
Distance (Route):
Temperature : 10.8°C
Humidity : 69.2%
Pressure : 880.9hPa| Receiver | Frames | First received | Last received |
|---|---|---|---|
| BIOWL1-15 | 922 | 2026-09-02 10:46:39 | 2026-09-02 13:31:20 |
| DM0DOS-11 | 853 | 2026-09-02 10:45:49 | 2026-09-02 13:30:10 |
| DL1XH-west | 637 | 2026-09-02 11:11:07 | 2026-09-02 13:09:50 |
| HSKMA3-T | 634 | 2026-09-02 11:18:09 | 2026-09-02 13:26:46 |
| DL1NUX | 439 | 2026-09-02 11:26:53 | 2026-09-02 13:21:34 |
| DL1XH1-15 | 429 | 2026-09-02 11:12:52 | 2026-09-02 13:08:25 |
| AA1-15 | 321 | 2026-09-02 11:42:39 | 2026-09-02 12:58:32 |
| DL1XH-15 | 248 | 2026-09-02 11:20:53 | 2026-09-02 13:00:12 |
| DD8BA-10 | 200 | 2026-09-02 10:55:59 | 2026-09-02 13:11:14 |
| DL3AQ-11 | 154 | 2026-09-02 11:01:14 | 2026-09-02 13:16:46 |
| DF8AY | 150 | 2026-09-02 11:45:03 | 2026-09-02 12:45:42 |
| GOEST3-10 | 142 | 2026-09-02 11:34:38 | 2026-09-02 13:00:00 |
| DO3DL | 97 | 2026-09-02 11:45:40 | 2026-09-02 13:23:32 |
| DB0UT-7 | 94 | 2026-09-02 10:52:45 | 2026-09-02 13:29:45 |
| DJ2DS-15 | 91 | 2026-09-02 11:01:27 | 2026-09-02 13:13:44 |
| DJ2KF-10 | 87 | 2026-09-02 10:47:54 | 2026-09-02 13:28:24 |
| DB0NH | 81 | 2026-09-02 11:12:40 | 2026-09-02 13:25:38 |
| DO9LL-15 | 80 | 2026-09-02 10:47:56 | 2026-09-02 13:25:12 |
| DO2JMG | 80 | 2026-09-02 11:13:54 | 2026-09-02 12:58:01 |
| BIOWL9-15 | 76 | 2026-09-02 10:48:06 | 2026-09-02 13:28:34 |
| DL8DAS-14 | 74 | 2026-09-02 10:50:44 | 2026-09-02 13:20:44 |
| DJ8HS-15 | 72 | 2026-09-02 11:21:16 | 2026-09-02 13:19:42 |
| DH3RM | 70 | 2026-09-02 10:48:31 | 2026-09-02 11:25:27 |
| AU51GT2 | 67 | 2026-09-02 10:51:59 | 2026-09-02 13:15:47 |
| DL4BBY-15 | 66 | 2026-09-02 11:01:58 | 2026-09-02 13:19:50 |
| DO3MHA-12 | 64 | 2026-09-02 11:34:17 | 2026-09-02 12:57:07 |
| DD1CC8 | 61 | 2026-09-02 10:50:51 | 2026-09-02 13:28:41 |
| DO1YAY-16 | 59 | 2026-09-02 10:52:36 | 2026-09-02 13:04:35 |
| SO1NDE-10 | 56 | 2026-09-02 11:26:21 | 2026-09-02 13:20:55 |
| WPPR-10 | 54 | 2026-09-02 10:48:00 | 2026-09-02 13:08:53 |
| DB0DAN | 54 | 2026-09-02 11:25:40 | 2026-09-02 13:20:55 |
| DB0ND-19 | 52 | 2026-09-02 11:13:57 | 2026-09-02 13:29:28 |
| DO3MHA-11 | 51 | 2026-09-02 11:34:04 | 2026-09-02 13:02:09 |
| DO2KSM | 44 | 2026-09-02 11:11:27 | 2026-09-02 13:22:16 |
| DD1CC1-15 | 42 | 2026-09-02 10:49:56 | 2026-09-02 12:54:26 |
| DL9SK-14 | 41 | 2026-09-02 11:18:21 | 2026-09-02 13:22:37 |
| BUE01 | 40 | 2026-09-02 11:03:40 | 2026-09-02 13:13:34 |
| SONCRA | 39 | 2026-09-02 11:23:57 | 2026-09-02 13:10:04 |
| HTAHTA | 38 | 2026-09-02 11:00:00 | 2026-09-02 13:04:13 |
| DD1CC9-15 | 36 | 2026-09-02 10:49:56 | 2026-09-02 11:37:12 |
| DD1CC3-15 | 35 | 2026-09-02 11:50:32 | 2026-09-02 13:29:16 |
| DL8DAS-15 | 34 | 2026-09-02 10:48:03 | 2026-09-02 13:10:18 |
| NBG1-10 | 30 | 2026-09-02 11:28:24 | 2026-09-02 13:24:43 |
| HARRO8 | 24 | 2026-09-02 11:17:16 | 2026-09-02 12:25:03 |
| DF7PN | 21 | 2026-09-02 11:34:39 | 2026-09-02 13:19:15 |
| DJ3KS | 19 | 2026-09-02 11:01:21 | 2026-09-02 12:37:48 |
| DL4XJ-10 | 18 | 2026-09-02 12:17:24 | 2026-09-02 13:02:31 |
| AM1SDL-15 | 15 | 2026-09-02 11:39:23 | 2026-09-02 13:05:28 |
| DD1CC2-15 | 15 | 2026-09-02 12:02:09 | 2026-09-02 13:01:24 |
| EDDB2-11 | 15 | 2026-09-02 12:06:43 | 2026-09-02 12:56:55 |
| DK9SH | 15 | 2026-09-02 12:24:20 | 2026-09-02 13:07:57 |
| DL3OBA | 14 | 2026-09-02 12:20:53 | 2026-09-02 13:07:33 |
| BIOWL7-15 | 9 | 2026-09-02 11:01:49 | 2026-09-02 13:29:46 |
| DL8OAI-8 | 7 | 2026-09-02 11:38:53 | 2026-09-02 13:14:53 |
| DL1LOL-11 | 6 | 2026-09-02 11:47:36 | 2026-09-02 12:57:42 |
| WEDDY | 5 | 2026-09-02 11:29:29 | 2026-09-02 12:48:38 |
| DL1CLM-18 | 4 | 2026-09-02 11:46:30 | 2026-09-02 13:10:16 |
| DJTTGO | 3 | 2026-09-02 11:53:32 | 2026-09-02 11:59:05 |
| SP3BTT-10 | 3 | 2026-09-02 12:27:43 | 2026-09-02 12:38:38 |
| DL1ZP-14 | 2 | 2026-09-02 13:17:35 | 2026-09-02 13:22:14 |
| SMARD9-10 | 1 | 2026-09-02 12:15:27 | 2026-09-02 12:15:27 |
| Receiver | Date | Latitude | Longitude | Direction | Speed | Altitude | Climb | Temperature | Humidity | Pressure | Voltage | Killtimer | Uptime | BKT | XDATA |
|---|---|---|---|---|---|---|---|---|---|---|---|---|---|---|---|
| BIOWL1-15 | 2026-09-02 13:31:20 | 50.89833 | 8.77917 | 88° | 24km/h | 1279m | -3.3m/s | 10.8°C | 69.2% | 880.9hPa | 2.7V | 07:38:23 | 03:13:24 | 00:00:00 | |
| BIOWL1-15 | 2026-09-02 13:31:11 | 50.89834 | 8.77851 | 91° | 24km/h | 1304m | -4m/s | 10.5°C | 70.9% | 878.6hPa | 2.7V | 07:38:23 | 03:13:17 | 00:00:00 | |
| BIOWL1-15 | 2026-09-02 13:31:10 | 50.89834 | 8.77841 | 94° | 24km/h | 1308m | -3.4m/s | 10.5°C | 71.4% | 878.2hPa | 2.7V | 07:38:23 | 03:13:16 | 00:00:00 | |
| BIOWL1-15 | 2026-09-02 13:31:08 | 50.89835 | 8.77821 | 94° | 26km/h | 1316m | -4.3m/s | 10.4°C | 72.6% | 877.1hPa | 2.7V | 07:38:23 | 03:13:14 | 00:00:00 | |
| BIOWL1-15 | 2026-09-02 13:31:07 | 50.89837 | 8.77751 | 91° | 24km/h | 1351m | -5.5m/s | 10.1°C | 74.9% | 873.7hPa | 2.7V | 07:38:23 | 03:13:07 | 00:00:00 | |
| BIOWL1-15 | 2026-09-02 13:31:06 | 50.89838 | 8.77741 | 96° | 26km/h | 1356m | -5.3m/s | 10.1°C | 75.7% | 872.9hPa | 2.7V | 07:38:23 | 03:13:06 | 00:00:00 | |
| BIOWL1-15 | 2026-09-02 13:30:58 | 50.89841 | 8.77699 | 98° | 26km/h | 1379m | -5.6m/s | 9.8°C | 75.3% | 870.8hPa | 2.6V | 07:38:23 | 03:13:02 | 00:00:00 | |
| BIOWL1-15 | 2026-09-02 13:30:57 | 50.89842 | 8.77689 | 100° | 27km/h | 1384m | -5.6m/s | 9.7°C | 74.6% | 870hPa | 2.7V | 07:38:23 | 03:13:01 | 00:00:00 | |
| BIOWL1-15 | 2026-09-02 13:30:54 | 50.89848 | 8.77633 | 99° | 29km/h | 1412m | -5.5m/s | 9.5°C | 75.7% | 867.2hPa | 2.7V | 07:39:14 | 03:12:56 | 00:00:00 | |
| BIOWL1-15 | 2026-09-02 13:30:53 | 50.89849 | 8.77621 | 98° | 29km/h | 1417m | -5.7m/s | 9.4°C | 76.4% | 866.5hPa | 2.7V | 07:39:14 | 03:12:55 | 00:00:00 | |
| BIOWL1-15 | 2026-09-02 13:30:48 | 50.89850 | 8.77609 | 99° | 31km/h | 1423m | -5.7m/s | 9.4°C | 76.6% | 866hPa | 2.7V | 07:39:14 | 03:12:54 | 00:00:00 | |
| BIOWL1-15 | 2026-09-02 13:30:46 | 50.89853 | 8.77585 | 101° | 31km/h | 1434m | -5.4m/s | 9.3°C | 77.6% | 865hPa | 2.7V | 07:39:14 | 03:12:52 | 00:00:00 | |
| BIOWL1-15 | 2026-09-02 13:30:44 | 50.89856 | 8.77560 | 102° | 31km/h | 1445m | -5.4m/s | 9.1°C | 77.2% | 863.9hPa | 2.6V | 07:39:14 | 03:12:50 | 00:00:00 | |
| BIOWL1-15 | 2026-09-02 13:30:43 | 50.89857 | 8.77548 | 101° | 31km/h | 1450m | -5.8m/s | 9.1°C | 77.5% | 863.2hPa | 2.7V | 07:39:14 | 03:12:49 | 00:00:00 | |
| BIOWL1-15 | 2026-09-02 13:30:41 | 50.89868 | 8.77458 | 99° | 27km/h | 1488m | -4.5m/s | 8.7°C | 78.3% | 859hPa | 2.7V | 07:39:14 | 03:12:41 | 00:00:00 | |
| BIOWL1-15 | 2026-09-02 13:30:33 | 50.89870 | 8.77436 | 101° | 27km/h | 1497m | -4.5m/s | 8.6°C | 77.9% | 858.2hPa | 2.6V | 07:39:14 | 03:12:39 | 00:00:00 | |
| BIOWL1-15 | 2026-09-02 13:30:31 | 50.89873 | 8.77415 | 101° | 27km/h | 1505m | -4.4m/s | 8.5°C | 78.2% | 857.4hPa | 2.7V | 07:39:14 | 03:12:37 | 00:00:00 | |
| BIOWL1-15 | 2026-09-02 13:30:29 | 50.89875 | 8.77393 | 100° | 27km/h | 1514m | -4.5m/s | 8.5°C | 77.8% | 856.4hPa | 2.7V | 07:39:14 | 03:12:35 | 00:00:00 | |
| BIOWL1-15 | 2026-09-02 13:30:27 | 50.89877 | 8.77371 | 98° | 29km/h | 1522m | -4.3m/s | 8.4°C | 78.8% | 855.6hPa | 2.7V | 07:39:14 | 03:12:33 | 00:00:00 | |
| BIOWL1-15 | 2026-09-02 13:30:26 | 50.89878 | 8.77359 | 97° | 31km/h | 1526m | -4m/s | 8.4°C | 79.2% | 855.2hPa | 2.7V | 07:39:14 | 03:12:32 | 00:00:00 | |
| BIOWL1-15 | 2026-09-02 13:30:25 | 50.89894 | 8.77210 | 99° | 26km/h | 1592m | -6.2m/s | 7.7°C | 85.2% | 848.6hPa | 2.7V | 07:39:14 | 03:12:18 | 00:00:00 | |
| BIOWL1-15 | 2026-09-02 13:30:23 | 50.89895 | 8.77200 | 96° | 26km/h | 1598m | -6.3m/s | 7.6°C | 85.2% | 848hPa | 2.7V | 07:39:14 | 03:12:17 | 00:00:00 | |
| BIOWL1-15 | 2026-09-02 13:30:14 | 50.89896 | 8.77189 | 97° | 26km/h | 1604m | -6.3m/s | 7.6°C | 85.3% | 847.3hPa | 2.7V | 07:39:14 | 03:12:16 | 00:00:00 | |
| DM0DOS-11 | 2026-09-02 13:30:10 | 50.89902 | 8.77138 | 102° | 26km/h | 1632m | -5.1m/s | 7.3°C | 80.2% | 844.3hPa | 2.7V | 07:39:09 | 03:12:11 | 00:00:00 | |
| BIOWL1-15 | 2026-09-02 13:30:08 | 50.89898 | 8.77168 | 99° | 26km/h | 1616m | -6m/s | 7.5°C | 85.6% | 846.3hPa | 2.7V | 07:39:14 | 03:12:14 | 00:00:00 | |
| BIOWL1-15 | 2026-09-02 13:30:06 | 50.89900 | 8.77148 | 100° | 26km/h | 1627m | -5.1m/s | 7.3°C | 86% | 844.9hPa | 2.7V | 07:39:14 | 03:12:12 | 00:00:00 | |
| DM0DOS-11 | 2026-09-02 13:30:05 | 50.89904 | 8.77118 | 104° | 26km/h | 1642m | -5.1m/s | 7.2°C | 80.7% | 843.3hPa | 2.7V | 07:39:11 | 03:12:09 | 00:00:00 | |
| DM0DOS-11 | 2026-09-02 13:30:05 | 50.89908 | 8.77099 | 107° | 24km/h | 1653m | -5.3m/s | 7°C | 81.3% | 842.3hPa | 2.6V | 07:39:13 | 03:12:07 | 00:00:00 | |
| BIOWL1-15 | 2026-09-02 13:30:04 | 50.89903 | 8.77128 | 102° | 26km/h | 1637m | -5.1m/s | 7.2°C | 86.8% | 844hPa | 2.7V | 07:39:14 | 03:12:10 | 00:00:00 | |
| BIOWL1-15 | 2026-09-02 13:30:02 | 50.89906 | 8.77108 | 106° | 24km/h | 1647m | -5.4m/s | 7.1°C | 86.8% | 842.8hPa | 2.7V | 07:39:14 | 03:12:08 | 00:00:00 | |
| BIOWL1-15 | 2026-09-02 13:30:01 | 50.89908 | 8.77099 | 108° | 24km/h | 1653m | -5.3m/s | 7°C | 86.8% | 842.3hPa | 2.6V | 07:39:14 | 03:12:07 | 00:00:00 | |
| BIOWL1-15 | 2026-09-02 13:29:59 | 50.89911 | 8.77081 | 109° | 24km/h | 1663m | -5m/s | 6.9°C | 86.6% | 841.1hPa | 2.7V | 07:40:05 | 03:12:05 | 00:00:00 | |
| BIOWL1-15 | 2026-09-02 13:29:58 | 50.89913 | 8.77072 | 109° | 24km/h | 1668m | -5m/s | 6.9°C | 86.6% | 840.6hPa | 2.7V | 07:40:05 | 03:12:04 | 00:00:00 | |
| BIOWL1-15 | 2026-09-02 13:29:57 | 50.89919 | 8.77043 | 105° | 26km/h | 1683m | -5m/s | 6.7°C | 87.1% | 838.7hPa | 2.6V | 07:40:05 | 03:12:01 | 00:00:00 | |
| BIOWL1-15 | 2026-09-02 13:29:56 | 50.89921 | 8.77033 | 102° | 26km/h | 1688m | -5.5m/s | 6.7°C | 87.7% | 838.6hPa | 2.7V | 07:40:05 | 03:12:00 | 00:00:00 | |
| DM0DOS-11 | 2026-09-02 13:29:55 | 50.89919 | 8.77043 | 104° | 26km/h | 1683m | -5m/s | 6.7°C | 82.7% | 838.7hPa | 2.6V | 07:39:19 | 03:12:01 | 00:00:00 | |
| DM0DOS-11 | 2026-09-02 13:29:55 | 50.89922 | 8.77023 | 101° | 26km/h | 1694m | -5.5m/s | 6.6°C | 83.1% | 838.1hPa | 2.7V | 07:39:21 | 03:11:59 | 00:00:00 | |
| DM0DOS-11 | 2026-09-02 13:29:55 | 50.89925 | 8.77002 | 96° | 27km/h | 1704m | -5.7m/s | 6.5°C | 83.6% | 836.9hPa | 2.7V | 07:39:23 | 03:11:57 | 00:00:00 | |
| BIOWL1-15 | 2026-09-02 13:29:52 | 50.89923 | 8.77012 | 103° | 26km/h | 1699m | -5.2m/s | 6.6°C | 88.7% | 837.6hPa | 2.7V | 07:40:05 | 03:11:58 | 00:00:00 | |
| BIOWL1-15 | 2026-09-02 13:29:50 | 50.89925 | 8.76992 | 99° | 26km/h | 1710m | -6.4m/s | 6.5°C | 89.7% | 836.5hPa | 2.7V | 07:40:05 | 03:11:56 | 00:00:00 | |
| DM0DOS-11 | 2026-09-02 13:29:50 | 50.89926 | 8.76981 | 95° | 26km/h | 1716m | -5.5m/s | 6.4°C | 84.2% | 836.1hPa | 2.6V | 07:39:25 | 03:11:55 | 00:00:00 | |
| DM0DOS-11 | 2026-09-02 13:29:50 | 50.89930 | 8.76943 | 101° | 26km/h | 1741m | -6.7m/s | 6.1°C | 85.6% | 833.2hPa | 2.7V | 07:39:29 | 03:11:51 | 00:00:00 | |
| BIOWL1-15 | 2026-09-02 13:29:49 | 50.89935 | 8.76902 | 105° | 27km/h | 1765m | -6.1m/s | 5.9°C | 93.5% | 831hPa | 2.7V | 07:40:05 | 03:11:47 | 00:00:00 | |
| BIOWL1-15 | 2026-09-02 13:29:47 | 50.89937 | 8.76892 | 104° | 27km/h | 1771m | -6m/s | 5.9°C | 93.5% | 830.3hPa | 2.7V | 07:40:05 | 03:11:46 | 00:00:00 | |
| BIOWL7-15 | 2026-09-02 13:29:46 | 50.89928 | 8.76962 | 98° | 26km/h | 1728m | -6.3m/s | 6.3°C | 84.6% | 834.6hPa | 2.7V | 07:40:00 | 00:00:00 | 00:00:00 | |
| DB0UT-7 | 2026-09-02 13:29:45 | 50.89930 | 8.76942 | 102° | 27km/h | 1741m | -6.7m/s | 6.1°C | 85.6% | 833.2hPa | 2.7V | 00:00:00 | 00:00:00 | 00:00:00 | |
| DM0DOS-11 | 2026-09-02 13:29:44 | 50.89935 | 8.76902 | 105° | 26km/h | 1765m | -6m/s | 5.9°C | 86.5% | 831hPa | 2.7V | 07:39:33 | 03:11:47 | 00:00:00 | |
| DM0DOS-11 | 2026-09-02 13:29:39 | 50.89942 | 8.76859 | 103° | 27km/h | 1788m | -4.8m/s | 5.7°C | 87.3% | 828.5hPa | 2.7V | 07:39:37 | 03:11:43 | 00:00:00 | |
| DM0DOS-11 | 2026-09-02 13:29:39 | 50.89945 | 8.76838 | 98° | 26km/h | 1799m | -5.2m/s | 5.6°C | 87.8% | 827.3hPa | 2.7V | 07:39:39 | 03:11:41 | 00:00:00 | |
| DM0DOS-11 | 2026-09-02 13:29:39 | 50.89946 | 8.76817 | 95° | 26km/h | 1809m | -5.2m/s | 5.5°C | 87.8% | 826.3hPa | 2.7V | 07:39:41 | 03:11:39 | 00:00:00 | |
| BIOWL1-15 | 2026-09-02 13:29:38 | 50.89941 | 8.76870 | 102° | 27km/h | 1783m | -5.7m/s | 5.8°C | 93.9% | 829hPa | 2.6V | 07:40:05 | 03:11:44 | 00:00:00 | |
| BIOWL1-15 | 2026-09-02 13:29:36 | 50.89947 | 8.76807 | 94° | 26km/h | 1814m | -5.1m/s | 5.5°C | 93.1% | 825.8hPa | 2.7V | 07:40:05 | 03:11:38 | 00:00:00 | |
| BIOWL1-15 | 2026-09-02 13:29:35 | 50.89947 | 8.76797 | 96° | 26km/h | 1819m | -4.6m/s | 5.5°C | 93% | 825.2hPa | 2.7V | 07:40:05 | 03:11:37 | 00:00:00 | |
| DB0UT-7 | 2026-09-02 13:29:35 | 50.89945 | 8.76838 | 99° | 26km/h | 1799m | -5.2m/s | 5.6°C | 87.8% | 827.3hPa | 2.7V | 00:00:00 | 03:11:41 | 00:00:00 | |
| DM0DOS-11 | 2026-09-02 13:29:31 | 50.89949 | 8.76777 | 95° | 26km/h | 1829m | -5.2m/s | 5.4°C | 87.8% | 824.2hPa | 2.7V | 07:39:45 | 03:11:35 | 00:00:00 | |
| BIOWL1-15 | 2026-09-02 13:29:29 | 50.89949 | 8.76767 | 96° | 26km/h | 1834m | -5.2m/s | 5.4°C | 92.7% | 823.7hPa | 2.6V | 07:40:05 | 03:11:34 | 00:00:00 | |
| BIOWL1-15 | 2026-09-02 13:29:29 | 50.89950 | 8.76757 | 96° | 26km/h | 1839m | -4.8m/s | 5.3°C | 92.6% | 823.2hPa | 2.6V | 07:40:05 | 03:11:33 | 00:00:00 | |
| DB0ND-19 | 2026-09-02 13:29:28 | 50.89949 | 8.76767 | 95° | 24km/h | 1834m | -5.2m/s | 5.4°C | 86.9% | 823.7hPa | 2.7V | 00:00:00 | 00:00:00 | 00:00:00 | |
| DM0DOS-11 | 2026-09-02 13:29:25 | 50.89956 | 8.76690 | 104° | 22km/h | 1872m | -4.5m/s | 5°C | 89.9% | 820hPa | 2.7V | 07:39:54 | 03:11:26 | 00:00:00 | |
| BIOWL1-15 | 2026-09-02 13:29:25 | 50.89953 | 8.76718 | 98° | 24km/h | 1858m | -4.7m/s | 5.1°C | 93.6% | 821.2hPa | 2.7V | 07:40:05 | 03:11:29 | 00:00:00 | |
| BIOWL1-15 | 2026-09-02 13:29:25 | 50.89954 | 8.76708 | 100° | 24km/h | 1862m | -4.7m/s | 5.1°C | 93.7% | 820.8hPa | 2.7V | 07:40:05 | 03:11:28 | 00:00:00 | |
| BIOWL1-15 | 2026-09-02 13:29:20 | 50.89964 | 8.76646 | 104° | 24km/h | 1896m | -5.5m/s | 4.6°C | 99.2% | 817.7hPa | 2.6V | 07:40:05 | 03:11:21 | 00:00:00 | |
| DM0DOS-11 | 2026-09-02 13:29:20 | 50.89963 | 8.76655 | 109° | 24km/h | 1890m | -5.2m/s | 4.7°C | 93.4% | 818.1hPa | 2.7V | 07:39:58 | 03:11:22 | 00:00:00 | |
| BIOWL1-15 | 2026-09-02 13:29:20 | 50.89966 | 8.76638 | 107° | 22km/h | 1901m | -5.3m/s | 4.5°C | 99.8% | 817.1hPa | 2.7V | 07:40:05 | 03:11:20 | 00:00:00 | |
| DD1CC3-15 | 2026-09-02 13:29:16 | 50.89961 | 8.76664 | 110° | 24km/h | 1885m | -4.9m/s | 4.7°C | 92.5% | 818.6hPa | 2.7V | 07:40:00 | 00:00:00 | 00:00:00 | |
| DM0DOS-11 | 2026-09-02 13:29:15 | 50.89973 | 8.76594 | 98° | 22km/h | 1927m | -5.2m/s | 4.3°C | 95% | 814.2hPa | 2.7V | 07:40:05 | 03:11:15 | 00:00:00 | |
| BIOWL1-15 | 2026-09-02 13:29:12 | 50.89969 | 8.76620 | 101° | 24km/h | 1912m | -5.3m/s | 4.4°C | 99.8% | 815.9hPa | 2.7V | 07:40:05 | 03:11:18 | 00:00:00 | |
| BIOWL1-15 | 2026-09-02 13:29:10 | 50.89972 | 8.76603 | 104° | 24km/h | 1922m | -5.3m/s | 4.3°C | 99.8% | 814.9hPa | 2.7V | 07:40:05 | 03:11:16 | 00:00:00 | |
| DM0DOS-11 | 2026-09-02 13:29:09 | 50.89974 | 8.76577 | 100° | 22km/h | 1938m | -5.5m/s | 4.2°C | 95.2% | 813.2hPa | 2.7V | 07:40:07 | 03:11:13 | 00:00:00 | |
| DM0DOS-11 | 2026-09-02 13:29:09 | 50.89976 | 8.76560 | 97° | 22km/h | 1949m | -5.3m/s | 4.1°C | 95.8% | 812.1hPa | 2.6V | 07:40:09 | 03:11:11 | 00:00:00 | |
| BIOWL1-15 | 2026-09-02 13:29:08 | 50.89973 | 8.76585 | 98° | 22km/h | 1932m | -5.3m/s | 4.2°C | 100% | 813.6hPa | 2.7V | 07:40:56 | 03:11:14 | 00:00:00 | |
| BIOWL1-15 | 2026-09-02 13:29:07 | 50.89974 | 8.76577 | 100° | 22km/h | 1938m | -5.5m/s | 4.2°C | 100% | 813.2hPa | 2.7V | 07:40:56 | 03:11:13 | 00:00:00 | |
| BIOWL1-15 | 2026-09-02 13:29:06 | 50.89975 | 8.76568 | 98° | 20km/h | 1943m | -5.7m/s | 4.1°C | 100% | 812.6hPa | 2.6V | 07:40:56 | 03:11:12 | 00:00:00 | |
| BIOWL1-15 | 2026-09-02 13:29:04 | 50.89978 | 8.76544 | 99° | 20km/h | 1959m | -5.4m/s | 4°C | 100% | 811.1hPa | 2.7V | 07:40:56 | 03:11:09 | 00:00:00 | |
| DM0DOS-11 | 2026-09-02 13:29:04 | 50.89979 | 8.76536 | 102° | 22km/h | 1965m | -6.1m/s | 3.9°C | 96.7% | 810.6hPa | 2.7V | 07:40:12 | 03:11:08 | 00:00:00 | |
| BIOWL1-15 | 2026-09-02 13:29:04 | 50.89979 | 8.76536 | 103° | 22km/h | 1965m | -6.1m/s | 3.9°C | 100% | 810.6hPa | 2.7V | 07:40:56 | 03:11:08 | 00:00:00 | |
| BIOWL1-15 | 2026-09-02 13:29:00 | 50.89982 | 8.76510 | 103° | 20km/h | 1982m | -5.8m/s | 3.8°C | 100% | 808.7hPa | 2.7V | 07:40:56 | 03:11:05 | 00:00:00 | |
| BIOWL1-15 | 2026-09-02 13:29:00 | 50.89983 | 8.76502 | 106° | 22km/h | 1988m | -6.1m/s | 3.8°C | 100% | 808.2hPa | 2.7V | 07:40:56 | 03:11:04 | 00:00:00 | |
| BIOWL1-15 | 2026-09-02 13:28:56 | 50.89986 | 8.76486 | 107° | 22km/h | 1999m | -5.7m/s | 3.7°C | 100% | 807hPa | 2.7V | 07:40:56 | 03:11:02 | 00:00:00 | |
| DD1CC3-15 | 2026-09-02 13:28:55 | 50.89986 | 8.76486 | 108° | 22km/h | 1999m | -5.7m/s | 3.7°C | 97.2% | 807.0hPa | 2.7V | 07:40:00 | 00:00:00 | 00:00:00 | |
| DB0UT-7 | 2026-09-02 13:28:55 | 50.89988 | 8.76477 | 109° | 26km/h | 2005m | -6.1m/s | 3.6°C | 97.7% | 806.5hPa | 2.7V | 07:40:00 | 03:11:01 | 00:00:00 | |
| DM0DOS-11 | 2026-09-02 13:28:54 | 50.89994 | 8.76451 | 108° | 24km/h | 2023m | -6.2m/s | 3.5°C | 96.7% | 804.8hPa | 2.7V | 07:40:22 | 03:10:58 | 00:00:00 | |
| BIOWL1-15 | 2026-09-02 13:28:51 | 50.90008 | 8.76348 | 98° | 26km/h | 2084m | -5.9m/s | 2.8°C | 97.6% | 798.9hPa | 2.7V | 07:40:56 | 03:10:47 | 00:00:00 | |
| DM0DOS-11 | 2026-09-02 13:28:49 | 50.90006 | 8.76367 | 99° | 24km/h | 2073m | -5.3m/s | 2.9°C | 95.7% | 799.9hPa | 2.7V | 07:40:31 | 03:10:49 | 00:00:00 | |
| DM0DOS-11 | 2026-09-02 13:28:43 | 50.90011 | 8.76316 | 98° | 27km/h | 2100m | -5.1m/s | 2.7°C | 95.7% | 797.2hPa | 2.6V | 07:40:36 | 03:10:44 | 00:00:00 | |
| DD1CC8 | 2026-09-02 13:28:41 | 50.90008 | 8.76348 | 98° | 26km/h | 2084m | -5.9m/s | 2.8°C | 94.5% | 798.9hPa | 2.7V | 00:00:00 | 00:00:00 | 00:00:00 | |
| DM0DOS-11 | 2026-09-02 13:28:38 | 50.90015 | 8.76260 | 96° | 27km/h | 2126m | -5.5m/s | 2.6°C | 97.3% | 794.7hPa | 2.7V | 07:40:41 | 03:10:39 | 00:00:00 | |
| BIOWL1-15 | 2026-09-02 13:28:35 | 50.90014 | 8.76283 | 97° | 27km/h | 2115m | -5.6m/s | 2.7°C | 98% | 795.8hPa | 2.7V | 07:40:56 | 03:10:41 | 00:00:00 | |
| DB0UT-7 | 2026-09-02 13:28:35 | 50.90014 | 8.76283 | 98° | 26km/h | 2115m | -5.6m/s | 2.6°C | 97.0% | 795.7hPa | 2.7V | 00:00:00 | 00:00:00 | 00:00:00 | |
| BIOWL9-15 | 2026-09-02 13:28:34 | 50.90016 | 8.76260 | 96° | 27km/h | 2126m | -5.5m/s | 2.6°C | 96.5% | 794.7hPa | 2.7V | 00:00:00 | 00:00:00 | 00:00:00 | |
| DM0DOS-11 | 2026-09-02 13:28:33 | 50.90019 | 8.76197 | 93° | 26km/h | 2155m | -4.6m/s | 2.3°C | 99.5% | 791.9hPa | 2.7V | 07:40:47 | 03:10:33 | 00:00:00 | |
| DM0DOS-11 | 2026-09-02 13:28:28 | 50.90018 | 8.76146 | 83° | 26km/h | 2179m | -5.2m/s | 2.3°C | 0% | 789.7hPa | 2.6V | 07:40:52 | 03:10:28 | 00:00:00 | |
| BIOWL1-15 | 2026-09-02 13:28:24 | 50.90016 | 8.76126 | 81° | 26km/h | 2188m | -4.4m/s | 2.5°C | 100% | 788.6hPa | 2.7V | 07:40:56 | 03:10:26 | 00:00:00 | |
| DJ2KF-10 | 2026-09-02 13:28:24 | 50.90019 | 8.76166 | 85° | 24km/h | 2169m | -4.7m/s | 2.2°C | 0% | 790.3hPa | 2.7V | 00:00:00 | 03:10:30 | 00:00:00 | |
| BIOWL7-15 | 2026-09-02 13:28:23 | 50.90019 | 8.76166 | 86° | 24km/h | 2169m | -4.7m/s | 2.3°C | 0% | 790.4hPa | 2.7V | 07:40:00 | 00:00:00 | 00:00:00 | |
| DM0DOS-11 | 2026-09-02 13:28:22 | 50.90013 | 8.76096 | 81° | 26km/h | 2202m | -4.8m/s | 2.5°C | 0% | 787.4hPa | 2.7V | 07:40:57 | 03:10:23 | 00:00:00 | |
| DM0DOS-11 | 2026-09-02 13:28:17 | 50.90008 | 8.76046 | 79° | 26km/h | 2227m | -4.9m/s | 2.4°C | 0% | 785hPa | 2.6V | 07:41:02 | 03:10:18 | 00:00:00 | |
| BIOWL1-15 | 2026-09-02 13:28:13 | 50.90009 | 8.76055 | 82° | 24km/h | 2222m | -5.5m/s | 2.4°C | 100% | 785.5hPa | 2.6V | 07:41:47 | 03:10:19 | 00:00:00 | |
| DD1CC8 | 2026-09-02 13:28:10 | 50.90004 | 8.76018 | 75° | 22km/h | 2241m | -4.6m/s | 3.4°C | 46.9% | 783.6hPa | 2.7V | 00:00:00 | 00:00:00 | 00:00:00 | |
| DM0DOS-11 | 2026-09-02 13:28:05 | 50.89998 | 8.75983 | 73° | 22km/h | 2261m | -4.8m/s | 3.4°C | 40.2% | 781.6hPa | 2.7V | 07:41:09 | 03:10:11 | 00:00:00 | |
| DM0DOS-11 | 2026-09-02 13:28:05 | 50.89991 | 8.75939 | 72° | 22km/h | 2284m | -4.5m/s | 2.9°C | 49% | 779.4hPa | 2.7V | 07:41:14 | 03:10:06 | 00:00:00 | |
| BIOWL1-15 | 2026-09-02 13:28:02 | 50.89994 | 8.75957 | 75° | 24km/h | 2275m | -4.5m/s | 3°C | 54.1% | 780.2hPa | 2.6V | 07:41:47 | 03:10:08 | 00:00:00 | |
| DM0DOS-11 | 2026-09-02 13:27:59 | 50.89981 | 8.75890 | 72° | 20km/h | 2311m | -4.3m/s | 3.5°C | 23% | 776.8hPa | 2.7V | 07:41:20 | 03:10:00 | 00:00:00 | |
| DB0ND-19 | 2026-09-02 13:27:55 | 50.89982 | 8.75890 | 72° | 20km/h | 2311m | -4.4m/s | 3.5°C | 22.9% | 776.8hPa | 2.7V | 00:00:00 | 00:00:00 | 00:00:00 | |
| DM0DOS-11 | 2026-09-02 13:27:54 | 50.89974 | 8.75849 | 73° | 22km/h | 2332m | -4.3m/s | 3.5°C | 19.4% | 774.7hPa | 2.7V | 07:41:25 | 03:09:55 | 00:00:00 | |
| BIOWL1-15 | 2026-09-02 13:27:51 | 50.89977 | 8.75866 | 74° | 22km/h | 2323m | -4.2m/s | 3.5°C | 22.8% | 775.4hPa | 2.7V | 07:41:47 | 03:09:57 | 00:00:00 | |
| DM0DOS-11 | 2026-09-02 13:27:44 | 50.89957 | 8.75756 | 75° | 26km/h | 2376m | -4m/s | 3.4°C | 17.7% | 770.6hPa | 2.7V | 07:41:35 | 03:09:45 | 00:00:00 | |
| BIOWL1-15 | 2026-09-02 13:27:43 | 50.89960 | 8.75775 | 73° | 24km/h | 2368m | -4.1m/s | 3.3°C | 21.1% | 771.3hPa | 2.7V | 07:41:47 | 03:09:47 | 00:00:00 | |
| DD1CC8 | 2026-09-02 13:27:39 | 50.89955 | 8.75746 | 72° | 24km/h | 2380m | -4.5m/s | 3.4°C | 17.2% | 770.4hPa | 2.7V | 00:00:00 | 00:00:00 | 00:00:00 | |
| DB0UT-7 | 2026-09-02 13:27:35 | 50.89949 | 8.75716 | 73° | 31km/h | 2394m | -4.6m/s | 3.4°C | 16.9% | 768.8hPa | 2.7V | 00:00:00 | 03:09:41 | 00:00:00 | |
| DM0DOS-11 | 2026-09-02 13:27:34 | 50.89935 | 8.75650 | 70° | 31km/h | 2423m | -4.9m/s | 3°C | 17.5% | 766.3hPa | 2.7V | 07:41:45 | 03:09:35 | 00:00:00 | |
| BIOWL1-15 | 2026-09-02 13:27:32 | 50.89933 | 8.75639 | 72° | 29km/h | 2428m | -5m/s | 3°C | 19.5% | 765.9hPa | 2.7V | 07:41:47 | 03:09:34 | 00:00:00 | |
| BIOWL9-15 | 2026-09-02 13:27:31 | 50.89940 | 8.75672 | 71° | 29km/h | 2413m | -4.8m/s | 3.1°C | 17.3% | 767.2hPa | 2.7V | 00:00:00 | 00:00:00 | 00:00:00 | |
| DM0DOS-11 | 2026-09-02 13:27:24 | 50.89910 | 8.75535 | 71° | 31km/h | 2471m | -4.8m/s | 3.2°C | 14.6% | 762hPa | 2.7V | 07:41:55 | 03:09:25 | 00:00:00 | |
| DJ2KF-10 | 2026-09-02 13:27:24 | 50.89923 | 8.75592 | 72° | 33km/h | 2447m | -4.7m/s | 3.2°C | 15.2% | 764.1hPa | 2.7V | 00:00:00 | 03:09:30 | 00:00:00 | |
| DM0DOS-11 | 2026-09-02 13:27:19 | 50.89899 | 8.75472 | 76° | 35km/h | 2494m | -4.7m/s | 3.5°C | 13.4% | 759.7hPa | 2.7V | 07:42:00 | 03:09:20 | 00:00:00 | |
| BIOWL1-15 | 2026-09-02 13:27:18 | 50.89908 | 8.75523 | 74° | 31km/h | 2476m | -4.4m/s | 3.3°C | 15% | 761.4hPa | 2.6V | 07:42:38 | 03:09:24 | 00:00:00 | |
| DB0UT-7 | 2026-09-02 13:27:15 | 50.89901 | 8.75485 | 76° | 35km/h | 2490m | -4.8m/s | 3.4°C | 13.0% | 759.9hPa | 2.7V | 00:00:00 | 00:00:00 | 00:00:00 | |
| DM0DOS-11 | 2026-09-02 13:27:14 | 50.89887 | 8.75391 | 77° | 35km/h | 2523m | -4.6m/s | 3.2°C | 13.6% | 756.9hPa | 2.6V | 07:42:06 | 03:09:14 | 00:00:00 | |
| BIOWL1-15 | 2026-09-02 13:27:10 | 50.89887 | 8.75391 | 77° | 35km/h | 2523m | -4.6m/s | 3.3°C | 15.1% | 756.9hPa | 2.6V | 07:42:38 | 03:09:14 | 00:00:00 | |
| DM0DOS-11 | 2026-09-02 13:27:09 | 50.89877 | 8.75325 | 78° | 33km/h | 2546m | -4.6m/s | 3.1°C | 13% | 754.8hPa | 2.7V | 07:42:11 | 03:09:09 | 00:00:00 | |
| DD1CC8 | 2026-09-02 13:27:08 | 50.89885 | 8.75377 | 76° | 33km/h | 2527m | -4.7m/s | 3.2°C | 13.6% | 756.4hPa | 2.7V | 00:00:00 | 00:00:00 | 00:00:00 | |
| DJ2KF-10 | 2026-09-02 13:27:04 | 50.89879 | 8.75338 | 78° | 37km/h | 2541m | -4.7m/s | 3.0°C | 13.2% | 755.1hPa | 2.7V | 07:42:00 | 03:09:10 | 00:00:00 | |
| BIOWL9-15 | 2026-09-02 13:27:00 | 50.89872 | 8.75284 | 79° | 35km/h | 2559m | -4.6m/s | 3.2°C | 10.3% | 753.4hPa | 2.7V | 00:00:00 | 00:00:00 | 00:00:00 | |
| DM0DOS-11 | 2026-09-02 13:26:58 | 50.89869 | 8.75256 | 79° | 37km/h | 2568m | -4.8m/s | 3.2°C | 10.6% | 752.6hPa | 2.7V | 07:42:16 | 03:09:04 | 00:00:00 | |
| DM0DOS-11 | 2026-09-02 13:26:58 | 50.89862 | 8.75183 | 82° | 38km/h | 2590m | -4.5m/s | 3°C | 10.8% | 750.3hPa | 2.6V | 07:42:21 | 03:08:59 | 00:00:00 | |
| BIOWL1-15 | 2026-09-02 13:26:57 | 50.89868 | 8.75242 | 81° | 37km/h | 2573m | -4.4m/s | 3.1°C | 11.2% | 752hPa | 2.7V | 07:42:38 | 03:09:03 | 00:00:00 | |
| DB0UT-7 | 2026-09-02 13:26:55 | 50.89865 | 8.75213 | 82° | 38km/h | 2582m | -4.5m/s | 3.0°C | 10.7% | 751.3hPa | 2.7V | 00:00:00 | 03:09:01 | 00:00:00 | |
| DM0DOS-11 | 2026-09-02 13:26:53 | 50.89854 | 8.75093 | 80° | 38km/h | 2617m | -4.9m/s | 2.7°C | 11.2% | 748hPa | 2.7V | 07:42:27 | 03:08:53 | 00:00:00 | |
| DB0ND-19 | 2026-09-02 13:26:53 | 50.89861 | 8.75168 | 82° | 37km/h | 2595m | -4.3m/s | 2.9°C | 11.0% | 750.0hPa | 2.7V | 00:00:00 | 00:00:00 | 00:00:00 | |
| DD1CC3-15 | 2026-09-02 13:26:52 | 50.89862 | 8.75183 | 83° | 38km/h | 2590m | -4.6m/s | 3.0°C | 10.7% | 750.3hPa | 2.7V | 07:42:00 | 00:00:00 | 00:00:00 | |
| DM0DOS-11 | 2026-09-02 13:26:48 | 50.89848 | 8.75016 | 83° | 40km/h | 2640m | -4.4m/s | 2.6°C | 13.4% | 745.7hPa | 2.7V | 07:42:32 | 03:08:48 | 00:00:00 | |
| BIOWL1-15 | 2026-09-02 13:26:47 | 50.89851 | 8.75062 | 82° | 38km/h | 2627m | -4.5m/s | 2.6°C | 12.2% | 747.1hPa | 2.6V | 07:42:38 | 03:08:51 | 00:00:00 | |
| HSKMA3-T | 2026-09-02 13:26:46 | 50.89853 | 8.75078 | 82° | 38km/h | 2622m | -4.7m/s | 2.7°C | 12.1% | 747.5hPa | 2.7V | 07:42:38 | 03:08:52 | 00:00:00 | |
| DJ2KF-10 | 2026-09-02 13:26:44 | 50.89850 | 8.75047 | 83° | 40km/h | 2631m | -4.5m/s | 2.5°C | 11.5% | 746.7hPa | 2.6V | 00:00:00 | 03:08:50 | 00:00:00 | |
| DM0DOS-11 | 2026-09-02 13:26:42 | 50.89840 | 8.74919 | 82° | 42km/h | 2667m | -4.5m/s | 2.4°C | 14.8% | 743.2hPa | 2.6V | 07:42:38 | 03:08:42 | 00:00:00 | |
| HSKMA3-T | 2026-09-02 13:26:36 | 50.89840 | 8.74919 | 83° | 42km/h | 2667m | -4.5m/s | 2.4°C | 16.6% | 743.2hPa | 2.6V | 07:42:38 | 03:08:42 | 00:00:00 | |
| DM0DOS-11 | 2026-09-02 13:26:36 | 50.89833 | 8.74835 | 83° | 42km/h | 2689m | -4.5m/s | 2.3°C | 16.8% | 741.3hPa | 2.7V | 07:42:43 | 03:08:37 | 00:00:00 | |
| BIOWL1-15 | 2026-09-02 13:26:34 | 50.89837 | 8.74885 | 82° | 42km/h | 2676m | -4.4m/s | 2.3°C | 16.8% | 742.4hPa | 2.7V | 07:43:29 | 03:08:40 | 00:00:00 | |
| DD1CC3-15 | 2026-09-02 13:26:31 | 50.89834 | 8.74852 | 84° | 42km/h | 2685m | -4.6m/s | 2.3°C | 15.5% | 741.7hPa | 2.6V | 07:43:00 | 00:00:00 | 00:00:00 | |
| BIOWL9-15 | 2026-09-02 13:26:29 | 50.89830 | 8.74802 | 81° | 40km/h | 2698m | -4.6m/s | 2.2°C | 17.6% | 740.5hPa | 2.6V | 00:00:00 | 00:00:00 | 00:00:00 | |
| DM0DOS-11 | 2026-09-02 13:26:26 | 50.89825 | 8.74753 | 80° | 40km/h | 2712m | -4.7m/s | 2.1°C | 18.8% | 739.2hPa | 2.6V | 07:42:48 | 03:08:32 | 00:00:00 | |
| DM0DOS-11 | 2026-09-02 13:26:26 | 50.89817 | 8.74676 | 80° | 40km/h | 2734m | -4.6m/s | 2°C | 20.4% | 737.1hPa | 2.7V | 07:42:53 | 03:08:27 | 00:00:00 | |
| BIOWL1-15 | 2026-09-02 13:26:24 | 50.89822 | 8.74722 | 81° | 38km/h | 2721m | -4.3m/s | 2°C | 22% | 738.4hPa | 2.7V | 07:43:29 | 03:08:30 | 00:00:00 | |
| DJ2KF-10 | 2026-09-02 13:26:24 | 50.89822 | 8.74722 | 81° | 40km/h | 2721m | -4.3m/s | 2.0°C | 19.4% | 738.3hPa | 2.7V | 00:00:00 | 03:08:30 | 00:00:00 | |
| DB0ND-19 | 2026-09-02 13:26:22 | 50.89817 | 8.74676 | 80° | 38km/h | 2734m | -4.6m/s | 2.0°C | 20.3% | 737.1hPa | 2.7V | 00:00:00 | 00:00:00 | 00:00:00 | |
| DM0DOS-11 | 2026-09-02 13:26:18 | 50.89809 | 8.74597 | 80° | 40km/h | 2757m | -5m/s | 2°C | 18.8% | 735hPa | 2.7V | 07:42:58 | 03:08:22 | 00:00:00 | |
| DB0UT-7 | 2026-09-02 13:26:15 | 50.89807 | 8.74581 | 81° | 42km/h | 2761m | -4.7m/s | 2.0°C | 18.4% | 734.6hPa | 2.7V | 07:42:00 | 03:08:21 | 00:00:00 | |
| DM0DOS-11 | 2026-09-02 13:26:12 | 50.89800 | 8.74516 | 79° | 40km/h | 2780m | -5m/s | 1.9°C | 17.4% | 732.7hPa | 2.7V | 07:43:03 | 03:08:17 | 00:00:00 | |
| DM0DOS-11 | 2026-09-02 13:26:12 | 50.89791 | 8.74436 | 80° | 42km/h | 2802m | -4.7m/s | 1.8°C | 15.6% | 730.8hPa | 2.7V | 07:43:08 | 03:08:12 | 00:00:00 | |
| HSKMA3-T | 2026-09-02 13:26:08 | 50.89795 | 8.74468 | 80° | 40km/h | 2793m | -4.5m/s | 1.8°C | 19.5% | 731.9hPa | 2.7V | 07:44:20 | 03:08:14 | 00:00:00 | |
| BIOWL1-15 | 2026-09-02 13:26:07 | 50.89782 | 8.74354 | 80° | 42km/h | 2825m | -4.8m/s | 2°C | 24% | 728.8hPa | 2.7V | 07:43:29 | 03:08:07 | 00:00:00 | |
| DM0DOS-11 | 2026-09-02 13:26:06 | 50.89782 | 8.74354 | 80° | 42km/h | 2825m | -4.8m/s | 2°C | 20.7% | 728.8hPa | 2.7V | 07:43:13 | 03:08:07 | 00:00:00 | |
| DD1CC8 | 2026-09-02 13:26:06 | 50.89790 | 8.74419 | 79° | 40km/h | 2806m | -4.7m/s | 1.9°C | 12.2% | 730.5hPa | 2.6V | 00:00:00 | 00:00:00 | 00:00:00 | |
| DJ2KF-10 | 2026-09-02 13:26:04 | 50.89788 | 8.74403 | 80° | 42km/h | 2811m | -4.8m/s | 1.9°C | 8.8% | 730.1hPa | 2.6V | 00:00:00 | 03:08:10 | 00:00:00 | |
| DM0DOS-11 | 2026-09-02 13:26:01 | 50.89773 | 8.74272 | 79° | 40km/h | 2848m | -4.6m/s | 1.8°C | 23.3% | 726.6hPa | 2.6V | 07:43:18 | 03:08:02 | 00:00:00 | |
| BIOWL1-15 | 2026-09-02 13:25:52 | 50.89765 | 8.74206 | 79° | 42km/h | 2866m | -4.8m/s | 1.7°C | 30.5% | 725hPa | 2.7V | 07:43:29 | 03:07:58 | 00:00:00 | |
| DM0DOS-11 | 2026-09-02 13:25:51 | 50.89763 | 8.74190 | 77° | 40km/h | 2871m | -4.5m/s | 1.7°C | 29.3% | 724.8hPa | 2.7V | 07:43:23 | 03:07:57 | 00:00:00 | |
| DB0ND-19 | 2026-09-02 13:25:51 | 50.89761 | 8.74174 | 77° | 40km/h | 2875m | -5.1m/s | 1.7°C | 31.2% | 724.2hPa | 2.7V | 00:00:00 | 00:00:00 | 00:00:00 | |
| DM0DOS-11 | 2026-09-02 13:25:46 | 50.89741 | 8.74031 | 80° | 40km/h | 2918m | -4.4m/s | 1.3°C | 63.3% | 720.4hPa | 2.7V | 07:43:33 | 03:07:47 | 00:00:00 | |
| BIOWL1-15 | 2026-09-02 13:25:45 | 50.89741 | 8.74031 | 81° | 40km/h | 2918m | -4.4m/s | 1.3°C | 68.3% | 720.4hPa | 2.7V | 07:44:20 | 03:07:47 | 00:00:00 | |
| DJ2KF-10 | 2026-09-02 13:25:44 | 50.89747 | 8.74079 | 78° | 42km/h | 2904m | -5.0m/s | 1.4°C | 62.2% | 721.5hPa | 2.7V | 00:00:00 | 03:07:50 | 00:00:00 | |
| DM0DOS-11 | 2026-09-02 13:25:41 | 50.89731 | 8.73949 | 79° | 42km/h | 2941m | -4.8m/s | 1.2°C | 65% | 718.4hPa | 2.7V | 07:43:38 | 03:07:42 | 00:00:00 | |
| HSKMA3-T | 2026-09-02 13:25:39 | 50.89737 | 8.73998 | 79° | 42km/h | 2927m | -4.8m/s | 1.3°C | 68.6% | 719.6hPa | 2.6V | 07:44:20 | 03:07:45 | 00:00:00 | |
| DB0NH | 2026-09-02 13:25:38 | 50.89735 | 8.73982 | 79° | 44km/h | 2932m | -4.8m/s | 1.2°C | 63.4% | 719.2hPa | 2.6V | 00:00:00 | 03:07:44 | 00:00:00 | |
| DM0DOS-11 | 2026-09-02 13:25:36 | 50.89721 | 8.73864 | 80° | 44km/h | 2965m | -5m/s | 1°C | 65.3% | 716.4hPa | 2.7V | 07:43:43 | 03:07:37 | 00:00:00 | |
| DD1CC8 | 2026-09-02 13:25:35 | 50.89727 | 8.73915 | 79° | 42km/h | 2951m | -4.6m/s | 1.1°C | 64.8% | 717.5hPa | 2.6V | 00:00:00 | 00:00:00 | 00:00:00 | |
| DM0DOS-11 | 2026-09-02 13:25:31 | 50.89713 | 8.73778 | 82° | 44km/h | 2989m | -5m/s | 0.9°C | 67.4% | 714.1hPa | 2.6V | 07:43:48 | 03:07:32 | 00:00:00 | |
| BIOWL1-15 | 2026-09-02 13:25:30 | 50.89720 | 8.73847 | 81° | 44km/h | 2970m | -5m/s | 1°C | 70.7% | 715.9hPa | 2.7V | 07:44:20 | 03:07:36 | 00:00:00 | |
| BIOWL9-15 | 2026-09-02 13:25:27 | 50.89714 | 8.73795 | 81° | 44km/h | 2984m | -5.1m/s | 0.9°C | 65.8% | 714.6hPa | 2.7V | 00:00:00 | 00:00:00 | 00:00:00 | |
| DM0DOS-11 | 2026-09-02 13:25:26 | 50.89705 | 8.73689 | 81° | 46km/h | 3014m | -4.7m/s | 0.7°C | 68.6% | 712hPa | 2.7V | 07:43:53 | 03:07:27 | 00:00:00 | |
| DJ2KF-10 | 2026-09-02 13:25:24 | 50.89710 | 8.73742 | 84° | 46km/h | 2999m | -4.8m/s | 0.8°C | 68.0% | 713.3hPa | 2.7V | 00:00:00 | 03:07:30 | 00:00:00 | |
| DM0DOS-11 | 2026-09-02 13:25:21 | 50.89697 | 8.73596 | 82° | 47km/h | 3039m | -4.7m/s | 0.5°C | 69.7% | 709.9hPa | 2.7V | 07:43:58 | 03:07:22 | 00:00:00 | |
| BIOWL1-15 | 2026-09-02 13:25:19 | 50.89702 | 8.73652 | 83° | 46km/h | 3024m | -5.1m/s | 0.6°C | 74.4% | 711.2hPa | 2.7V | 07:44:20 | 03:07:25 | 00:00:00 | |
| DB0NH | 2026-09-02 13:25:18 | 50.89700 | 8.73634 | 83° | 44km/h | 3029m | -4.9m/s | 0.5°C | 69.6% | 710.7hPa | 2.7V | 00:00:00 | 03:07:24 | 00:00:00 | |
| DM0DOS-11 | 2026-09-02 13:25:16 | 50.89690 | 8.73502 | 82° | 46km/h | 3063m | -5.1m/s | 0.3°C | 69.6% | 707.7hPa | 2.7V | 07:44:03 | 03:07:17 | 00:00:00 | |
| BIOWL1-15 | 2026-09-02 13:25:15 | 50.89687 | 8.73466 | 83° | 46km/h | 3073m | -5.2m/s | 0.3°C | 74.7% | 706.8hPa | 2.6V | 07:44:20 | 03:07:15 | 00:00:00 | |
| DB0UT-7 | 2026-09-02 13:25:15 | 50.89696 | 8.73577 | 83° | 44km/h | 3043m | -4.7m/s | 0.4°C | 69.7% | 709.3hPa | 2.7V | 00:00:00 | 00:00:00 | 00:00:00 | |
| DO9LL-15 | 2026-09-02 13:25:12 | 50.89691 | 8.73521 | 82° | 42km/h | 3058m | -5.2m/s | 0.3°C | 69.9% | 708.0hPa | 2.6V | 00:00:00 | 03:07:18 | 00:00:00 | |
| DD1CC3-15 | 2026-09-02 13:25:09 | 50.89688 | 8.73484 | 83° | 46km/h | 3068m | -5.5m/s | 0.3°C | 69.0% | 707.2hPa | 2.6V | 07:44:00 | 00:00:00 | 00:00:00 | |
| DM0DOS-11 | 2026-09-02 13:25:06 | 50.89674 | 8.73322 | 82° | 44km/h | 3114m | -5.2m/s | -0°C | 70.1% | 703.3hPa | 2.6V | 07:44:13 | 03:07:07 | 00:00:00 | |
| BIOWL1-15 | 2026-09-02 13:24:59 | 50.89662 | 8.73132 | 85° | 42km/h | 3169m | -5.2m/s | -0.4°C | 75.4% | 698.4hPa | 2.7V | 07:45:11 | 03:06:56 | 00:00:00 | |
| DM0DOS-11 | 2026-09-02 13:24:56 | 50.89663 | 8.73148 | 84° | 44km/h | 3164m | -5.1m/s | -0.3°C | 70.8% | 698.9hPa | 2.7V | 07:44:23 | 03:06:57 | 00:00:00 | |
| HSKMA3-T | 2026-09-02 13:24:54 | 50.89666 | 8.73199 | 85° | 44km/h | 3149m | -5.3m/s | -0.2°C | 75.1% | 700.2hPa | 2.7V | 07:44:20 | 03:07:00 | 00:00:00 | |
| DB0ND-19 | 2026-09-02 13:24:49 | 50.89660 | 8.73082 | 86° | 40km/h | 3184m | -4.9m/s | -0.4°C | 70.6% | 697.1hPa | 2.7V | 00:00:00 | 00:00:00 | 00:00:00 | |
| DD1CC3-15 | 2026-09-02 13:24:48 | 50.89661 | 8.73115 | 86° | 42km/h | 3174m | -5.1m/s | -0.4°C | 70.4% | 697.9hPa | 2.7V | 07:45:00 | 00:00:00 | 00:00:00 | |
| DB0NH | 2026-09-02 13:24:47 | 50.89660 | 8.73082 | 87° | 44km/h | 3184m | -4.9m/s | -0.4°C | 71.4% | 697.0hPa | 2.7V | 00:00:00 | 03:06:53 | 00:00:00 | |
| DB0UT-7 | 2026-09-02 13:24:45 | 50.89658 | 8.73049 | 85° | 44km/h | 3195m | -5.4m/s | -0.5°C | 71.8% | 696.1hPa | 2.7V | 00:00:00 | 03:06:51 | 00:00:00 | |
| NBG1-10 | 2026-09-02 13:24:43 | 50.89656 | 8.73017 | 86° | 46km/h | 3205m | -4.8m/s | -0.5°C | 71.9% | 695.1hPa | 2.7V | 07:44:00 | 03:06:49 | 00:00:00 | |
| DM0DOS-11 | 2026-09-02 13:24:40 | 50.89652 | 8.72951 | 84° | 42km/h | 3224m | -5.3m/s | -0.7°C | 71.8% | 693.5hPa | 2.7V | 07:44:35 | 03:06:45 | 00:00:00 | |
| BIOWL1-15 | 2026-09-02 13:24:40 | 50.89653 | 8.72968 | 86° | 42km/h | 3219m | -4.7m/s | -0.7°C | 76.3% | 694hPa | 2.7V | 07:45:11 | 03:06:46 | 00:00:00 | |
| DO9LL-15 | 2026-09-02 13:24:37 | 50.89650 | 8.72918 | 85° | 46km/h | 3235m | -5.0m/s | -0.7°C | 71.8% | 692.7hPa | 2.6V | 00:00:00 | 03:06:43 | 00:00:00 | |
| DM0DOS-11 | 2026-09-02 13:24:34 | 50.89642 | 8.72778 | 84° | 44km/h | 3275m | -5.3m/s | -1°C | 73% | 689.1hPa | 2.6V | 07:44:45 | 03:06:35 | 00:00:00 | |
| BIOWL1-15 | 2026-09-02 13:24:30 | 50.89643 | 8.72796 | 85° | 46km/h | 3271m | -4.9m/s | -1°C | 77% | 689.6hPa | 2.7V | 07:45:11 | 03:06:36 | 00:00:00 | |
| HSKMA3-T | 2026-09-02 13:24:28 | 50.89641 | 8.72760 | 84° | 44km/h | 3281m | -5.5m/s | -1°C | 77.5% | 688.7hPa | 2.6V | 07:45:11 | 03:06:34 | 00:00:00 | |
| DM0DOS-11 | 2026-09-02 13:24:26 | 50.89637 | 8.72690 | 85° | 46km/h | 3301m | -4.9m/s | -1°C | 73.5% | 686.9hPa | 2.7V | 07:44:50 | 03:06:30 | 00:00:00 | |
| BIOWL1-15 | 2026-09-02 13:24:22 | 50.89632 | 8.72617 | 85° | 46km/h | 3322m | -4.9m/s | -1.1°C | 77.6% | 685.1hPa | 2.6V | 07:45:11 | 03:06:26 | 00:00:00 | |
| HSKMA3-T | 2026-09-02 13:24:18 | 50.89630 | 8.72580 | 86° | 47km/h | 3332m | -4.9m/s | -1.1°C | 79.1% | 684.4hPa | 2.7V | 07:45:11 | 03:06:24 | 00:00:00 | |
| BIOWL1-15 | 2026-09-02 13:24:09 | 50.89616 | 8.72293 | 87° | 49km/h | 3407m | -4.8m/s | -1.3°C | 78.3% | 677.8hPa | 2.7V | 07:45:11 | 03:06:09 | 00:00:00 | |
| HSKMA3-T | 2026-09-02 13:24:07 | 50.89619 | 8.72372 | 87° | 49km/h | 3388m | -5m/s | -1.2°C | 78.4% | 679.5hPa | 2.7V | 07:45:11 | 03:06:13 | 00:00:00 | |
| HSKMA3-T | 2026-09-02 13:23:56 | 50.89611 | 8.72153 | 86° | 51km/h | 3441m | -4.9m/s | -1.2°C | 72.1% | 675.1hPa | 2.7V | 07:47:44 | 03:06:02 | 00:00:00 | |
| DM0DOS-11 | 2026-09-02 13:23:55 | 50.89607 | 8.72031 | 87° | 51km/h | 3468m | -4.8m/s | -1.4°C | 65.3% | 672.8hPa | 2.7V | 07:45:24 | 03:05:56 | 00:00:00 | |
| BIOWL1-15 | 2026-09-02 13:23:54 | 50.89609 | 8.72112 | 87° | 51km/h | 3450m | -4.4m/s | -1.3°C | 71.2% | 674.2hPa | 2.6V | 07:46:02 | 03:06:00 | 00:00:00 | |
| DD1CC3-15 | 2026-09-02 13:23:51 | 50.89605 | 8.71969 | 88° | 51km/h | 3482m | -4.5m/s | -1.4°C | 63.6% | 671.5hPa | 2.6V | 07:46:00 | 00:00:00 | 00:00:00 | |
| DM0DOS-11 | 2026-09-02 13:23:50 | 50.89604 | 8.71929 | 87° | 51km/h | 3491m | -5m/s | -1.4°C | 63% | 670.7hPa | 2.6V | 07:45:29 | 03:05:51 | 00:00:00 | |
| BIOWL1-15 | 2026-09-02 13:23:44 | 50.89603 | 8.71909 | 88° | 51km/h | 3496m | -4.7m/s | -1.4°C | 68% | 670.3hPa | 2.7V | 07:46:02 | 03:05:50 | 00:00:00 | |
| HSKMA3-T | 2026-09-02 13:23:42 | 50.89602 | 8.71869 | 88° | 51km/h | 3505m | -4.8m/s | -1.5°C | 68.8% | 669.5hPa | 2.7V | 07:47:44 | 03:05:48 | 00:00:00 | |
| DM0DOS-11 | 2026-09-02 13:23:40 | 50.89601 | 8.71828 | 88° | 51km/h | 3515m | -4.8m/s | -1.5°C | 63.9% | 668.7hPa | 2.7V | 07:45:34 | 03:05:46 | 00:00:00 | |
| DM0DOS-11 | 2026-09-02 13:23:40 | 50.89599 | 8.71727 | 88° | 51km/h | 3538m | -4.6m/s | -1.7°C | 64.4% | 666.8hPa | 2.7V | 07:45:39 | 03:05:41 | 00:00:00 | |
| BIOWL1-15 | 2026-09-02 13:23:39 | 50.89599 | 8.71686 | 88° | 51km/h | 3548m | -4.7m/s | -1.7°C | 69.7% | 666hPa | 2.7V | 07:46:02 | 03:05:39 | 00:00:00 | |
| DO9LL-15 | 2026-09-02 13:23:35 | 50.89599 | 8.71727 | 89° | 47km/h | 3538m | -4.6m/s | -1.6°C | 64.4% | 666.7hPa | 2.7V | 07:45:00 | 03:05:41 | 00:00:00 | |
| DO3DL | 2026-09-02 13:23:32 | 50.89598 | 8.71686 | 89° | 51km/h | 3548m | -4.7m/s | -1.7°C | 63.9% | 666.0hPa | 2.7V | 07:46:00 | 00:00:00 | 00:00:00 | |
| DD1CC8 | 2026-09-02 13:23:31 | 50.89598 | 8.71624 | 88° | 51km/h | 3562m | -4.6m/s | -1.8°C | 63.0% | 664.9hPa | 2.7V | 00:00:00 | 00:00:00 | 00:00:00 | |
| DM0DOS-11 | 2026-09-02 13:23:25 | 50.89594 | 8.71415 | 88° | 53km/h | 3609m | -4.8m/s | -2.1°C | 62.2% | 661hPa | 2.7V | 07:45:54 | 03:05:26 | 00:00:00 | |
| HSKMA3-T | 2026-09-02 13:23:25 | 50.89596 | 8.71521 | 88° | 53km/h | 3585m | -4.7m/s | -1.9°C | 67.2% | 662.9hPa | 2.7V | 07:47:44 | 03:05:31 | 00:00:00 | |
| BIOWL1-15 | 2026-09-02 13:23:24 | 50.89594 | 8.71458 | 88° | 53km/h | 3599m | -4.7m/s | -2°C | 67.2% | 661.8hPa | 2.7V | 07:46:02 | 03:05:28 | 00:00:00 | |
| BIOWL9-15 | 2026-09-02 13:23:23 | 50.89594 | 8.71458 | 87° | 53km/h | 3599m | -4.7m/s | -2.0°C | 61.1% | 661.8hPa | 2.7V | 00:00:00 | 00:00:00 | 00:00:00 | |
| DM0DOS-11 | 2026-09-02 13:23:20 | 50.89592 | 8.71287 | 89° | 53km/h | 3637m | -4.6m/s | -2.3°C | 62.3% | 658.6hPa | 2.7V | 07:46:00 | 03:05:20 | 00:00:00 | |
| DB0NH | 2026-09-02 13:23:17 | 50.89592 | 8.71351 | 90° | 51km/h | 3623m | -5.0m/s | -2.1°C | 62.3% | 659.6hPa | 2.6V | 00:00:00 | 03:05:23 | 00:00:00 | |
| DM0DOS-11 | 2026-09-02 13:23:15 | 50.89592 | 8.71182 | 89° | 53km/h | 3660m | -4.8m/s | -2.5°C | 62.4% | 656.6hPa | 2.6V | 07:46:05 | 03:05:15 | 00:00:00 | |
| HSKMA3-T | 2026-09-02 13:23:14 | 50.89592 | 8.71287 | 90° | 53km/h | 3637m | -4.6m/s | -2.3°C | 67.2% | 658.6hPa | 2.7V | 07:47:44 | 03:05:20 | 00:00:00 | |
| BIOWL1-15 | 2026-09-02 13:23:11 | 50.89592 | 8.71182 | 89° | 53km/h | 3660m | -4.8m/s | -2.5°C | 67.3% | 656.6hPa | 2.6V | 07:46:53 | 03:05:15 | 00:00:00 | |
| BIOWL1-15 | 2026-09-02 13:23:00 | 50.89591 | 8.70996 | 90° | 51km/h | 3702m | -4.7m/s | -2.7°C | 62.4% | 653.2hPa | 2.7V | 07:46:53 | 03:05:06 | 00:00:00 | |
| DM0DOS-11 | 2026-09-02 13:22:59 | 50.89591 | 8.70876 | 90° | 49km/h | 3730m | -4.9m/s | -2.8°C | 56% | 651hPa | 2.6V | 07:46:20 | 03:05:00 | 00:00:00 | |
| HSKMA3-T | 2026-09-02 13:22:57 | 50.89591 | 8.70935 | 90° | 51km/h | 3716m | -4.7m/s | -2.7°C | 61.7% | 652.1hPa | 2.7V | 07:47:44 | 03:05:03 | 00:00:00 | |
| DJ2KF-10 | 2026-09-02 13:22:55 | 50.89591 | 8.70895 | 91° | 47km/h | 3725m | -4.6m/s | -2.7°C | 56.0% | 651.2hPa | 2.7V | 00:00:00 | 03:05:01 | 00:00:00 | |
| DM0DOS-11 | 2026-09-02 13:22:54 | 50.89591 | 8.70777 | 90° | 49km/h | 3753m | -4.9m/s | -2.9°C | 56.3% | 648.9hPa | 2.7V | 07:46:25 | 03:04:55 | 00:00:00 | |
| BIOWL1-15 | 2026-09-02 13:22:50 | 50.89591 | 8.70757 | 91° | 49km/h | 3758m | -4.6m/s | -2.9°C | 61.5% | 648.6hPa | 2.7V | 07:46:53 | 03:04:54 | 00:00:00 | |
| DM0DOS-11 | 2026-09-02 13:22:49 | 50.89591 | 8.70679 | 89° | 47km/h | 3776m | -4.5m/s | -3.1°C | 56.9% | 647.2hPa | 2.7V | 07:46:30 | 03:04:50 | 00:00:00 | |
| DB0NH | 2026-09-02 13:22:47 | 50.89592 | 8.70737 | 90° | 46km/h | 3763m | -4.7m/s | -2.9°C | 56.5% | 648.3hPa | 2.6V | 00:00:00 | 03:04:53 | 00:00:00 | |
| DB0UT-7 | 2026-09-02 13:22:45 | 50.89591 | 8.70699 | 90° | 46km/h | 3772m | -4.7m/s | -3.0°C | 56.7% | 647.4hPa | 2.6V | 07:46:00 | 03:04:51 | 00:00:00 | |
| DM0DOS-11 | 2026-09-02 13:22:44 | 50.89592 | 8.70584 | 90° | 47km/h | 3799m | -4.8m/s | -3.2°C | 58.1% | 645.2hPa | 2.6V | 07:46:35 | 03:04:45 | 00:00:00 | |
| HSKMA3-T | 2026-09-02 13:22:43 | 50.89591 | 8.70660 | 90° | 47km/h | 3781m | -4.6m/s | -3.2°C | 61.8% | 646.6hPa | 2.7V | 07:47:44 | 03:04:49 | 00:00:00 | |
| BIOWL1-15 | 2026-09-02 13:22:39 | 50.89592 | 8.70546 | 92° | 47km/h | 3809m | -4.6m/s | -3.2°C | 63.2% | 644.5hPa | 2.7V | 07:46:53 | 03:04:43 | 00:00:00 | |
| DO3DL | 2026-09-02 13:22:38 | 50.89592 | 8.70584 | 92° | 47km/h | 3799m | -4.9m/s | -3.2°C | 57.2% | 645.2hPa | 2.7V | 00:00:00 | 00:00:00 | 00:00:00 | |
| DL9SK-14 | 2026-09-02 13:22:37 | 50.89593 | 8.70527 | 91° | 46km/h | 3813m | -4.6m/s | -3.3°C | 57.9% | 644.2hPa | 2.7V | 00:00:00 | 00:00:00 | 00:00:00 | |
| DM0DOS-11 | 2026-09-02 13:22:35 | 50.89593 | 8.70490 | 91° | 47km/h | 3822m | -5m/s | -3.3°C | 58.8% | 643.4hPa | 2.7V | 07:46:40 | 03:04:40 | 00:00:00 | |
| HSKMA3-T | 2026-09-02 13:22:32 | 50.89594 | 8.70452 | 90° | 47km/h | 3832m | -4.7m/s | -3.3°C | 63.4% | 642.5hPa | 2.6V | 07:47:44 | 03:04:38 | 00:00:00 | |
| DM0DOS-11 | 2026-09-02 13:22:29 | 50.89594 | 8.70397 | 89° | 46km/h | 3846m | -4.8m/s | -3.4°C | 59.2% | 641.5hPa | 2.7V | 07:46:45 | 03:04:35 | 00:00:00 | |
| DM0DOS-11 | 2026-09-02 13:22:29 | 50.89594 | 8.70307 | 90° | 44km/h | 3869m | -4.6m/s | -3.6°C | 60% | 639.6hPa | 2.7V | 07:46:50 | 03:04:30 | 00:00:00 | |
| BIOWL1-15 | 2026-09-02 13:22:28 | 50.89593 | 8.70343 | 90° | 46km/h | 3859m | -4.8m/s | -3.5°C | 64.6% | 640.4hPa | 2.6V | 07:46:53 | 03:04:32 | 00:00:00 | |
| DO3DL | 2026-09-02 13:22:26 | 50.89593 | 8.70361 | 90° | 46km/h | 3855m | -4.4m/s | -3.5°C | 58.8% | 640.9hPa | 2.6V | 00:00:00 | 00:00:00 | 00:00:00 | |
| DJ2KF-10 | 2026-09-02 13:22:25 | 50.89593 | 8.70325 | 91° | 46km/h | 3864m | -4.8m/s | -3.5°C | 60.0% | 639.9hPa | 2.6V | 00:00:00 | 03:04:31 | 00:00:00 | |
| DM0DOS-11 | 2026-09-02 13:22:24 | 50.89596 | 8.70217 | 94° | 46km/h | 3892m | -4.5m/s | -3.8°C | 60.7% | 637.9hPa | 2.6V | 07:46:55 | 03:04:25 | 00:00:00 | |
| HSKMA3-T | 2026-09-02 13:22:22 | 50.89594 | 8.70271 | 93° | 46km/h | 3878m | -4.6m/s | -3.6°C | 64.9% | 638.9hPa | 2.7V | 07:47:44 | 03:04:28 | 00:00:00 | |
| BIOWL9-15 | 2026-09-02 13:22:21 | 50.89595 | 8.70235 | 94° | 44km/h | 3887m | -4.5m/s | -3.7°C | 59.6% | 638.1hPa | 2.7V | 00:00:00 | 00:00:00 | 00:00:00 | |
| DM0DOS-11 | 2026-09-02 13:22:19 | 50.89602 | 8.70126 | 96° | 46km/h | 3914m | -4.3m/s | -3.9°C | 61% | 636hPa | 2.7V | 07:47:00 | 03:04:20 | 00:00:00 | |
| BIOWL1-15 | 2026-09-02 13:22:17 | 50.89601 | 8.70144 | 96° | 46km/h | 3910m | -4.4m/s | -3.9°C | 65.2% | 636.4hPa | 2.7V | 07:47:44 | 03:04:21 | 00:00:00 | |
| DB0NH | 2026-09-02 13:22:17 | 50.89598 | 8.70180 | 96° | 46km/h | 3901m | -4.6m/s | -3.8°C | 60.8% | 637.2hPa | 2.7V | 00:00:00 | 03:04:23 | 00:00:00 | |
| DO2KSM | 2026-09-02 13:22:16 | 50.89598 | 8.70180 | 97° | 46km/h | 3901m | -4.6m/s | -3.8°C | 59.9% | 637.2hPa | 2.7V | 00:00:00 | 00:00:00 | 00:00:00 | |
| DB0UT-7 | 2026-09-02 13:22:15 | 50.89601 | 8.70144 | 96° | 46km/h | 3910m | -4.4m/s | -3.8°C | 61.0% | 636.4hPa | 2.7V | 00:00:00 | 00:00:00 | 00:00:00 | |
| DM0DOS-11 | 2026-09-02 13:22:14 | 50.89611 | 8.70019 | 98° | 44km/h | 3941m | -4.5m/s | -3.9°C | 60.3% | 633.9hPa | 2.7V | 07:47:06 | 03:04:14 | 00:00:00 | |
| DL1ZP-14 | 2026-09-02 13:22:14 | 50.89603 | 8.70108 | 96° | 44km/h | 3919m | -4.6m/s | -3.9°C | 60.1% | 635.7hPa | 2.7V | 00:00:00 | 00:00:00 | 00:00:00 | |
| NBG1-10 | 2026-09-02 13:22:13 | 50.89603 | 8.70108 | 97° | 46km/h | 3919m | -4.5m/s | -3.8°C | 61.1% | 635.6hPa | 2.7V | 00:00:00 | 03:04:19 | 00:00:00 | |
| DM0DOS-11 | 2026-09-02 13:22:08 | 50.89620 | 8.69930 | 100° | 46km/h | 3963m | -4.5m/s | -4°C | 58.1% | 632.1hPa | 2.7V | 07:47:11 | 03:04:09 | 00:00:00 | |
| HSKMA3-T | 2026-09-02 13:22:05 | 50.89616 | 8.69966 | 100° | 46km/h | 3954m | -4.3m/s | -3.9°C | 62.8% | 632.8hPa | 2.6V | 07:47:44 | 03:04:11 | 00:00:00 | |
| DM0DOS-11 | 2026-09-02 13:22:03 | 50.89633 | 8.69839 | 103° | 47km/h | 3986m | -4.6m/s | -4.2°C | 58.7% | 630.3hPa | 2.6V | 07:47:16 | 03:04:04 | 00:00:00 | |
| DO9LL-15 | 2026-09-02 13:22:03 | 50.89620 | 8.69930 | 101° | 47km/h | 3963m | -4.5m/s | -3.9°C | 58.1% | 632.0hPa | 2.7V | 00:00:00 | 03:04:09 | 00:00:00 | |
| DD1CC3-15 | 2026-09-02 13:22:02 | 50.89620 | 8.69930 | 102° | 46km/h | 3963m | -4.5m/s | -4.0°C | 57.2% | 632.1hPa | 2.7V | 07:47:00 | 00:00:00 | 00:00:00 | |
| DO3DL | 2026-09-02 13:21:59 | 50.89628 | 8.69876 | 104° | 47km/h | 3977m | -4.4m/s | -4.1°C | 57.3% | 631.0hPa | 2.7V | 07:47:00 | 00:00:00 | 00:00:00 | |
| DM0DOS-11 | 2026-09-02 13:21:58 | 50.89648 | 8.69749 | 102° | 46km/h | 4008m | -4.6m/s | -4.3°C | 58.6% | 628.4hPa | 2.7V | 07:47:21 | 03:03:59 | 00:00:00 | |
| BIOWL1-15 | 2026-09-02 13:21:55 | 50.89642 | 8.69785 | 104° | 47km/h | 3999m | -4.6m/s | -4.3°C | 62.9% | 629.2hPa | 2.7V | 07:47:44 | 03:04:01 | 00:00:00 | |
| HSKMA3-T | 2026-09-02 13:21:54 | 50.89645 | 8.69767 | 104° | 47km/h | 4004m | -4.7m/s | -4.3°C | 62.8% | 628.8hPa | 2.7V | 07:47:44 | 03:04:00 | 00:00:00 | |
| BIOWL9-15 | 2026-09-02 13:21:50 | 50.89657 | 8.69676 | 100° | 46km/h | 4026m | -4.2m/s | -4.4°C | 57.5% | 627.0hPa | 2.6V | 00:00:00 | 00:00:00 | 00:00:00 | |
| DM0DOS-11 | 2026-09-02 13:21:48 | 50.89668 | 8.69567 | 98° | 46km/h | 4054m | -4.6m/s | -4.6°C | 57.7% | 624.9hPa | 2.6V | 07:47:31 | 03:03:49 | 00:00:00 | |
| BIOWL1-15 | 2026-09-02 13:21:44 | 50.89666 | 8.69586 | 99° | 46km/h | 4049m | -4.4m/s | -4.6°C | 61.7% | 625.2hPa | 2.6V | 07:47:44 | 03:03:50 | 00:00:00 | |
| DM0DOS-11 | 2026-09-02 13:21:43 | 50.89678 | 8.69474 | 98° | 47km/h | 4076m | -4.6m/s | -4.4°C | 53.9% | 623hPa | 2.7V | 07:47:36 | 03:03:44 | 00:00:00 | |
| HSKMA3-T | 2026-09-02 13:21:43 | 50.89668 | 8.69567 | 99° | 46km/h | 4054m | -4.6m/s | -4.6°C | 61.7% | 624.9hPa | 2.6V | 07:47:44 | 03:03:49 | 00:00:00 | |
| BIOWL1-15 | 2026-09-02 13:21:35 | 50.89686 | 8.69378 | 97° | 49km/h | 4099m | -4.6m/s | -4.5°C | 57.6% | 621.2hPa | 2.7V | 07:47:44 | 03:03:39 | 00:00:00 | |
| NBG1-10 | 2026-09-02 13:21:35 | 50.89683 | 8.69416 | 99° | 51km/h | 4090m | -4.6m/s | -4.4°C | 53.4% | 621.8hPa | 2.7V | 00:00:00 | 03:03:41 | 00:00:00 | |
| DL1NUX | 2026-09-02 13:21:34 | 50.89692 | 8.69301 | 95° | 49km/h | 4118m | -4.7m/s | -4.6°C | 52.2% | 619.7hPa | 2.7V | 07:47:45 | 03:03:35 | 00:00:00 | |
| DM0DOS-11 | 2026-09-02 13:21:33 | 50.89686 | 8.69378 | 96° | 49km/h | 4099m | -4.6m/s | -4.5°C | 52.4% | 621.2hPa | 2.7V | 07:47:41 | 03:03:39 | 00:00:00 | |
| HSKMA3-T | 2026-09-02 13:21:32 | 50.89688 | 8.69359 | 96° | 49km/h | 4104m | -4.8m/s | -4.5°C | 57.3% | 620.9hPa | 2.7V | 07:47:44 | 03:03:38 | 00:00:00 | |
| DO3DL | 2026-09-02 13:21:29 | 50.89690 | 8.69320 | 96° | 47km/h | 4113m | -4.6m/s | -4.6°C | 51.5% | 620.2hPa | 2.6V | 07:47:00 | 00:00:00 | 00:00:00 | |
| DM0DOS-11 | 2026-09-02 13:21:28 | 50.89698 | 8.69182 | 94° | 49km/h | 4146m | -4.6m/s | -4.7°C | 53.4% | 617.5hPa | 2.6V | 07:47:51 | 03:03:29 | 00:00:00 | |
| DD1CC8 | 2026-09-02 13:21:26 | 50.89695 | 8.69242 | 94° | 49km/h | 4132m | -4.6m/s | -4.7°C | 51.4% | 618.6hPa | 2.7V | 00:00:00 | 00:00:00 | 00:00:00 | |
| DJ2KF-10 | 2026-09-02 13:21:25 | 50.89696 | 8.69222 | 95° | 51km/h | 4136m | -4.5m/s | -4.6°C | 52.5% | 618.3hPa | 2.7V | 00:00:00 | 03:03:31 | 00:00:00 | |
| BIOWL1-15 | 2026-09-02 13:21:25 | 50.89698 | 8.69182 | 95° | 51km/h | 4146m | -4.6m/s | -4.7°C | 58.9% | 617.5hPa | 2.6V | 07:48:35 | 03:03:29 | 00:00:00 | |
| DM0DOS-11 | 2026-09-02 13:21:23 | 50.89703 | 8.69082 | 94° | 49km/h | 4168m | -4.9m/s | -4.8°C | 55% | 615.8hPa | 2.7V | 07:47:56 | 03:03:24 | 00:00:00 | |
| HSKMA3-T | 2026-09-02 13:21:21 | 50.89700 | 8.69142 | 94° | 51km/h | 4154m | -4.3m/s | -4.7°C | 59.8% | 616.8hPa | 2.7V | 07:48:35 | 03:03:27 | 00:00:00 | |
| BIOWL9-15 | 2026-09-02 13:21:19 | 50.89703 | 8.69082 | 94° | 49km/h | 4168m | -4.9m/s | -4.8°C | 54.1% | 615.8hPa | 2.7V | 00:00:00 | 00:00:00 | 00:00:00 | |
| DM0DOS-11 | 2026-09-02 13:21:18 | 50.89708 | 8.68983 | 94° | 51km/h | 4192m | -4.6m/s | -5°C | 57.1% | 613.9hPa | 2.7V | 07:48:01 | 03:03:19 | 00:00:00 | |
| BIOWL1-15 | 2026-09-02 13:21:14 | 50.89709 | 8.68963 | 94° | 51km/h | 4196m | -4.8m/s | -5.1°C | 63.1% | 613.6hPa | 2.7V | 07:48:35 | 03:03:18 | 00:00:00 | |
| DM0DOS-11 | 2026-09-02 13:21:13 | 50.89713 | 8.68882 | 94° | 51km/h | 4216m | -5.1m/s | -5.2°C | 58.1% | 612hPa | 2.7V | 07:48:06 | 03:03:14 | 00:00:00 | |
| HSKMA3-T | 2026-09-02 13:21:11 | 50.89710 | 8.68943 | 95° | 51km/h | 4201m | -4.9m/s | -5.1°C | 63.3% | 613.2hPa | 2.6V | 07:48:35 | 03:03:17 | 00:00:00 | |
| DO3DL | 2026-09-02 13:21:10 | 50.89710 | 8.68942 | 96° | 51km/h | 4201m | -4.9m/s | -5.1°C | 56.5% | 613.2hPa | 2.6V | 07:48:00 | 00:00:00 | 00:00:00 | |
| DM0DOS-11 | 2026-09-02 13:21:03 | 50.89724 | 8.68676 | 95° | 53km/h | 4264m | -4.8m/s | -5.7°C | 60% | 608.4hPa | 2.6V | 07:48:16 | 03:03:04 | 00:00:00 | |
| HSKMA3-T | 2026-09-02 13:21:01 | 50.89721 | 8.68738 | 96° | 51km/h | 4250m | -5.1m/s | -5.6°C | 64.7% | 609.5hPa | 2.7V | 07:48:35 | 03:03:07 | 00:00:00 | |
| DL1NUX | 2026-09-02 13:20:58 | 50.89733 | 8.68550 | 96° | 53km/h | 4293m | -5m/s | -5.9°C | 60.3% | 606.1hPa | 2.7V | 07:48:22 | 03:02:58 | 00:00:00 | |
| DO2KSM | 2026-09-02 13:20:57 | 50.89724 | 8.68676 | 97° | 53km/h | 4264m | -4.8m/s | -5.7°C | 58.9% | 608.4hPa | 2.7V | 07:48:00 | 00:00:00 | 00:00:00 | |
| DO3DL | 2026-09-02 13:20:56 | 50.89726 | 8.68655 | 97° | 53km/h | 4269m | -4.9m/s | -5.8°C | 58.8% | 607.9hPa | 2.7V | 07:48:00 | 00:00:00 | 00:00:00 | |
| DB0DAN | 2026-09-02 13:20:55 | 50.89729 | 8.68613 | 96° | 49km/h | 4278m | -5.1m/s | -5.8°C | 59.1% | 607.23hPa | 2.7V | 00:00:00 | 00:00:00 | 00:00:00 | |
| SO1NDE-10 | 2026-09-02 13:20:55 | 50.89729 | 8.68613 | 97° | 51km/h | 4278m | -5.1m/s | -5.8°C | 60.3% | 607.2hPa | 2.7V | 00:00:00 | 03:03:01 | 00:00:00 | |
| DM0DOS-11 | 2026-09-02 13:20:53 | 50.89739 | 8.68468 | 96° | 51km/h | 4313m | -4.7m/s | -6.1°C | 60.6% | 604.6hPa | 2.7V | 07:48:26 | 03:02:54 | 00:00:00 | |
| DL1NUX | 2026-09-02 13:20:52 | 50.89740 | 8.68447 | 96° | 51km/h | 4318m | -5.1m/s | -6.2°C | 60.9% | 604.2hPa | 2.7V | 07:48:27 | 03:02:53 | 00:00:00 | |
| BIOWL1-15 | 2026-09-02 13:20:51 | 50.89741 | 8.68447 | 97° | 51km/h | 4318m | -5.1m/s | -6.2°C | 65.4% | 604.2hPa | 2.7V | 07:48:35 | 03:02:53 | 00:00:00 | |
| DO3DL | 2026-09-02 13:20:49 | 50.89736 | 8.68509 | 97° | 53km/h | 4303m | -4.9m/s | -6.0°C | 59.3% | 605.4hPa | 2.7V | 07:48:00 | 00:00:00 | 00:00:00 | |
| DM0DOS-11 | 2026-09-02 13:20:48 | 50.89747 | 8.68364 | 96° | 53km/h | 4338m | -5.1m/s | -6.3°C | 61.7% | 602.6hPa | 2.7V | 07:48:31 | 03:02:49 | 00:00:00 | |
| HSKMA3-T | 2026-09-02 13:20:48 | 50.89739 | 8.68468 | 97° | 51km/h | 4313m | -4.7m/s | -6.1°C | 65.3% | 604.6hPa | 2.7V | 07:48:35 | 03:02:54 | 00:00:00 | |
| BIOWL9-15 | 2026-09-02 13:20:48 | 50.89741 | 8.68447 | 96° | 49km/h | 4318m | -5.1m/s | -6.2°C | 59.8% | 604.2hPa | 2.6V | 00:00:00 | 00:00:00 | 00:00:00 | |
| DL8DAS-14 | 2026-09-02 13:20:44 | 50.89745 | 8.68385 | 96° | 51km/h | 4333m | -5.1m/s | -6.3°C | 60.2% | 603.0hPa | 2.6V | 00:00:00 | 00:00:00 | 00:00:00 | |
| DM0DOS-11 | 2026-09-02 13:20:43 | 50.89755 | 8.68257 | 96° | 53km/h | 4362m | -5m/s | -6.5°C | 61.6% | 600.7hPa | 2.6V | 07:48:36 | 03:02:44 | 00:00:00 | |
| BIOWL1-15 | 2026-09-02 13:20:40 | 50.89755 | 8.68257 | 97° | 53km/h | 4362m | -5m/s | -6.5°C | 66% | 600.7hPa | 2.6V | 07:49:26 | 03:02:44 | 00:00:00 | |
| DB0DAN | 2026-09-02 13:20:40 | 50.89752 | 8.68300 | 97° | 51km/h | 4352m | -5m/s | -6.4°C | 60.3% | 601.29hPa | 2.7V | 00:00:00 | 00:00:00 | 00:00:00 | |
| DM0DOS-11 | 2026-09-02 13:20:38 | 50.89763 | 8.68152 | 97° | 53km/h | 4388m | -5.1m/s | -6.6°C | 62.3% | 598.8hPa | 2.6V | 07:48:41 | 03:02:39 | 00:00:00 | |
| HSKMA3-T | 2026-09-02 13:20:37 | 50.89756 | 8.68236 | 97° | 53km/h | 4367m | -5.2m/s | -6.5°C | 66% | 600.4hPa | 2.6V | 07:49:26 | 03:02:43 | 00:00:00 | |
| DO3DL | 2026-09-02 13:20:36 | 50.89756 | 8.68236 | 98° | 53km/h | 4367m | -5.2m/s | -6.5°C | 60.5% | 600.4hPa | 2.6V | 07:49:00 | 00:00:00 | 00:00:00 | |
| DO2KSM | 2026-09-02 13:20:35 | 50.89758 | 8.68215 | 98° | 53km/h | 4372m | -4.9m/s | -6.6°C | 60.7% | 599.9hPa | 2.6V | 00:00:00 | 00:00:00 | 00:00:00 | |
| DM0DOS-11 | 2026-09-02 13:20:33 | 50.89771 | 8.68048 | 96° | 53km/h | 4413m | -5.2m/s | -6.9°C | 62.9% | 596.9hPa | 2.6V | 07:48:46 | 03:02:34 | 00:00:00 | |
| DO9LL-15 | 2026-09-02 13:20:33 | 50.89763 | 8.68152 | 98° | 53km/h | 4388m | -5.0m/s | -6.6°C | 62.3% | 598.7hPa | 2.7V | 00:00:00 | 03:02:39 | 00:00:00 | |
| DL9SK-14 | 2026-09-02 13:20:32 | 50.89766 | 8.68111 | 96° | 51km/h | 4398m | -5.2m/s | -6.8°C | 61.5% | 598.1hPa | 2.7V | 00:00:00 | 00:00:00 | 00:00:00 | |
| DO3DL | 2026-09-02 13:20:30 | 50.89766 | 8.68111 | 98° | 53km/h | 4398m | -5.2m/s | -6.8°C | 61.5% | 598.1hPa | 2.7V | 07:49:00 | 00:00:00 | 00:00:00 | |
| DM0DOS-11 | 2026-09-02 13:20:28 | 50.89778 | 8.67942 | 96° | 53km/h | 4439m | -5.1m/s | -7°C | 62.8% | 595hPa | 2.7V | 07:48:51 | 03:02:29 | 00:00:00 | |
| BIOWL1-15 | 2026-09-02 13:20:28 | 50.89771 | 8.68048 | 96° | 53km/h | 4413m | -5.2m/s | -6.9°C | 66.9% | 596.9hPa | 2.6V | 07:49:26 | 03:02:34 | 00:00:00 | |
| DB0DAN | 2026-09-02 13:20:25 | 50.89775 | 8.67984 | 96° | 51km/h | 4429m | -5.3m/s | -7°C | 61.9% | 595.77hPa | 2.6V | 00:00:00 | 00:00:00 | 00:00:00 | |
| HSKMA3-T | 2026-09-02 13:20:25 | 50.89775 | 8.67984 | 96° | 53km/h | 4429m | -5.3m/s | -7°C | 67.2% | 595.8hPa | 2.6V | 07:49:26 | 03:02:31 | 00:00:00 | |
| DJ2KF-10 | 2026-09-02 13:20:25 | 50.89775 | 8.67984 | 96° | 53km/h | 4429m | -5.2m/s | -6.9°C | 63.1% | 595.7hPa | 2.6V | 00:00:00 | 03:02:31 | 00:00:00 | |
| DD1CC8 | 2026-09-02 13:20:24 | 50.89777 | 8.67963 | 95° | 53km/h | 4434m | -5.1m/s | -6.9°C | 61.6% | 595.4hPa | 2.6V | 00:00:00 | 00:00:00 | 00:00:00 | |
| DM0DOS-11 | 2026-09-02 13:20:23 | 50.89784 | 8.67837 | 94° | 53km/h | 4464m | -5.2m/s | -7.1°C | 64.6% | 592.9hPa | 2.6V | 07:48:56 | 03:02:24 | 00:00:00 | |
| BIOWL1-15 | 2026-09-02 13:20:20 | 50.89784 | 8.67837 | 94° | 53km/h | 4464m | -5.2m/s | -7.1°C | 69% | 592.9hPa | 2.6V | 07:49:26 | 03:02:24 | 00:00:00 | |
| DM0DOS-11 | 2026-09-02 13:20:18 | 50.89788 | 8.67733 | 93° | 53km/h | 4490m | -5.3m/s | -7.4°C | 67.4% | 591.1hPa | 2.6V | 07:49:01 | 03:02:19 | 00:00:00 | |
| HSKMA3-T | 2026-09-02 13:20:15 | 50.89787 | 8.67775 | 94° | 51km/h | 4480m | -4.9m/s | -7.3°C | 70.7% | 591.9hPa | 2.7V | 07:49:26 | 03:02:21 | 00:00:00 | |
| DB0UT-7 | 2026-09-02 13:20:15 | 50.89787 | 8.67775 | 94° | 51km/h | 4480m | -4.9m/s | -7.2°C | 66.5% | 591.8hPa | 2.6V | 00:00:00 | 00:00:00 | 00:00:00 | |
| DO2KSM | 2026-09-02 13:20:14 | 50.89787 | 8.67775 | 95° | 51km/h | 4480m | -4.9m/s | -7.3°C | 65.2% | 591.9hPa | 2.6V | 00:00:00 | 00:00:00 | 00:00:00 | |
| DM0DOS-11 | 2026-09-02 13:20:13 | 50.89792 | 8.67629 | 93° | 53km/h | 4515m | -5.1m/s | -7.6°C | 70.9% | 589.1hPa | 2.6V | 07:49:06 | 03:02:14 | 00:00:00 | |
| DB0DAN | 2026-09-02 13:20:10 | 50.89791 | 8.67671 | 93° | 49km/h | 4505m | -5.2m/s | -7.5°C | 68.1% | 589.93hPa | 2.7V | 00:00:00 | 00:00:00 | 00:00:00 | |
| DB0ND-19 | 2026-09-02 13:20:09 | 50.89792 | 8.67650 | 93° | 51km/h | 4510m | -5.1m/s | -7.6°C | 68.6% | 589.6hPa | 2.6V | 00:00:00 | 00:00:00 | 00:00:00 | |
| DM0DOS-11 | 2026-09-02 13:20:08 | 50.89796 | 8.67525 | 92° | 51km/h | 4542m | -5.4m/s | -7.7°C | 70.2% | 587.2hPa | 2.6V | 07:49:11 | 03:02:09 | 00:00:00 | |
| BIOWL1-15 | 2026-09-02 13:20:08 | 50.89795 | 8.67546 | 93° | 51km/h | 4536m | -5.2m/s | -7.7°C | 74.1% | 587.6hPa | 2.6V | 07:49:26 | 03:02:10 | 00:00:00 | |
| BIOWL1-15 | 2026-09-02 13:19:59 | 50.89802 | 8.67320 | 94° | 51km/h | 4595m | -5.4m/s | -8.1°C | 75.1% | 583.3hPa | 2.6V | 07:49:26 | 03:01:59 | 00:00:00 | |
| DL1NUX | 2026-09-02 13:19:58 | 50.89802 | 8.67320 | 94° | 51km/h | 4595m | -5.4m/s | -8.1°C | 71.5% | 583.3hPa | 2.6V | 07:49:21 | 03:01:59 | 00:00:00 | |
| DM0DOS-11 | 2026-09-02 13:19:57 | 50.89803 | 8.67299 | 94° | 51km/h | 4600m | -5.1m/s | -8.2°C | 71.8% | 582.8hPa | 2.7V | 07:49:22 | 03:01:58 | 00:00:00 | |
| DO3DL | 2026-09-02 13:19:57 | 50.89799 | 8.67401 | 93° | 51km/h | 4573m | -5.4m/s | -7.9°C | 68.6% | 584.7hPa | 2.6V | 07:49:00 | 00:00:00 | 00:00:00 | |
| DJ2KF-10 | 2026-09-02 13:19:55 | 50.89800 | 8.67360 | 94° | 51km/h | 4584m | -5.1m/s | -8.0°C | 70.4% | 583.9hPa | 2.6V | 07:49:00 | 03:02:01 | 00:00:00 | |
| DB0DAN | 2026-09-02 13:19:55 | 50.89800 | 8.67360 | 93° | 49km/h | 4584m | -5.2m/s | -8°C | 69% | 583.97hPa | 2.6V | 00:00:00 | 00:00:00 | 00:00:00 | |
| DO2KSM | 2026-09-02 13:19:54 | 50.89800 | 8.67360 | 94° | 51km/h | 4584m | -5.2m/s | -8.0°C | 69.0% | 584.0hPa | 2.6V | 00:00:00 | 00:00:00 | 00:00:00 | |
| DL1NUX | 2026-09-02 13:19:53 | 50.89807 | 8.67216 | 94° | 51km/h | 4621m | -5.6m/s | -8.3°C | 73.2% | 581.1hPa | 2.6V | 07:49:26 | 03:01:54 | 00:00:00 | |
| DM0DOS-11 | 2026-09-02 13:19:52 | 50.89808 | 8.67196 | 94° | 53km/h | 4627m | -5.4m/s | -8.4°C | 73.3% | 580.9hPa | 2.6V | 07:49:27 | 03:01:53 | 00:00:00 | |
| SO1NDE-10 | 2026-09-02 13:19:52 | 50.89803 | 8.67299 | 95° | 51km/h | 4600m | -5.1m/s | -8.1°C | 71.8% | 582.8hPa | 2.6V | 00:00:00 | 03:01:58 | 00:00:00 | |
| DL4BBY-15 | 2026-09-02 13:19:50 | 50.89805 | 8.67258 | 95° | 53km/h | 4610m | -5.3m/s | -7.9°C | 0% | 0hPa | 2.6V | 00:00:00 | 00:00:00 | 00:00:00 | |
| DO3DL | 2026-09-02 13:19:49 | 50.89805 | 8.67258 | 96° | 51km/h | 4610m | -5.3m/s | -8.2°C | 71.0% | 581.9hPa | 2.6V | 07:49:00 | 00:00:00 | 00:00:00 | |
| DM0DOS-11 | 2026-09-02 13:19:47 | 50.89813 | 8.67092 | 94° | 51km/h | 4652m | -5.4m/s | -8.5°C | 77.6% | 578.8hPa | 2.6V | 07:49:32 | 03:01:48 | 00:00:00 | |
| HSKMA3-T | 2026-09-02 13:19:45 | 50.89810 | 8.67154 | 94° | 51km/h | 4637m | -5.1m/s | -8.4°C | 77.5% | 580hPa | 2.7V | 07:50:17 | 03:01:51 | 00:00:00 | |
| BIOWL1-15 | 2026-09-02 13:19:43 | 50.89813 | 8.67092 | 95° | 51km/h | 4652m | -5.4m/s | -8.5°C | 80.1% | 578.8hPa | 2.6V | 07:50:17 | 03:01:48 | 00:00:00 | |
| DJ8HS-15 | 2026-09-02 13:19:42 | 50.89813 | 8.67092 | 95° | 51km/h | 4652m | -5.3m/s | -8.5°C | 77.6% | 578.8hPa | 2.6V | 00:00:00 | 03:01:48 | 00:00:00 | |
| DD1CC3-15 | 2026-09-02 13:19:41 | 50.89813 | 8.67092 | 96° | 51km/h | 4652m | -5.4m/s | -8.5°C | 76.0% | 578.8hPa | 2.6V | 07:50:00 | 00:00:00 | 00:00:00 | |
| DL1NUX | 2026-09-02 13:19:41 | 50.89822 | 8.66968 | 98° | 51km/h | 4683m | -4.9m/s | -8.5°C | 73.6% | 576.4hPa | 2.6V | 07:49:38 | 03:01:42 | 00:00:00 | |
| DB0DAN | 2026-09-02 13:19:40 | 50.89816 | 8.67050 | 96° | 49km/h | 4663m | -5.1m/s | -8.6°C | 78.9% | 578.06hPa | 2.6V | 00:00:00 | 00:00:00 | 00:00:00 | |
| DB0ND-19 | 2026-09-02 13:19:38 | 50.89819 | 8.67009 | 97° | 51km/h | 4673m | -5.3m/s | -8.6°C | 77.0% | 577.2hPa | 2.6V | 00:00:00 | 00:00:00 | 00:00:00 | |
| DM0DOS-11 | 2026-09-02 13:19:37 | 50.89830 | 8.66886 | 98° | 51km/h | 4704m | -4.9m/s | -8.6°C | 80.2% | 574.9hPa | 2.6V | 07:49:42 | 03:01:38 | 00:00:00 | |
| DL1NUX | 2026-09-02 13:19:36 | 50.89832 | 8.66866 | 98° | 51km/h | 4709m | -5.2m/s | -8.6°C | 81.5% | 574.5hPa | 2.6V | 07:49:43 | 03:01:37 | 00:00:00 | |
| HSKMA3-T | 2026-09-02 13:19:33 | 50.89828 | 8.66907 | 98° | 51km/h | 4698m | -5.5m/s | -8.6°C | 80.7% | 575.4hPa | 2.6V | 07:50:17 | 03:01:39 | 00:00:00 | |
| DO9LL-15 | 2026-09-02 13:19:33 | 50.89828 | 8.66906 | 99° | 53km/h | 4698m | -5.5m/s | -8.5°C | 78.7% | 575.3hPa | 2.6V | 00:00:00 | 03:01:39 | 00:00:00 | |
| DM0DOS-11 | 2026-09-02 13:19:32 | 50.89838 | 8.66784 | 96° | 51km/h | 4730m | -5.1m/s | -8.7°C | 84.4% | 573.1hPa | 2.6V | 07:49:47 | 03:01:33 | 00:00:00 | |
| BIOWL1-15 | 2026-09-02 13:19:31 | 50.89837 | 8.66805 | 97° | 51km/h | 4725m | -5.2m/s | -8.7°C | 84.1% | 573.4hPa | 2.6V | 07:50:17 | 03:01:34 | 00:00:00 | |
| DL9SK-14 | 2026-09-02 13:19:30 | 50.89834 | 8.66846 | 98° | 51km/h | 4714m | -5.5m/s | -8.6°C | 81.3% | 574.2hPa | 2.6V | 00:00:00 | 00:00:00 | 00:00:00 | |
| DB0DAN | 2026-09-02 13:19:25 | 50.89841 | 8.66742 | 96° | 51km/h | 4740m | -5.3m/s | -8.8°C | 83.4% | 572.23hPa | 2.6V | 00:00:00 | 00:00:00 | 00:00:00 | |
| DL1NUX | 2026-09-02 13:19:24 | 50.89848 | 8.66613 | 93° | 55km/h | 4772m | -5.5m/s | -9.1°C | 86.8% | 569.9hPa | 2.6V | 07:49:55 | 03:01:25 | 00:00:00 | |
| HSKMA3-T | 2026-09-02 13:19:22 | 50.89845 | 8.66678 | 95° | 55km/h | 4755m | -5.5m/s | -9°C | 86.4% | 571.1hPa | 2.6V | 07:50:17 | 03:01:28 | 00:00:00 | |
| BIOWL1-15 | 2026-09-02 13:19:21 | 50.89846 | 8.66656 | 94° | 55km/h | 4761m | -5.6m/s | -9°C | 86.6% | 570.8hPa | 2.6V | 07:50:17 | 03:01:27 | 00:00:00 | |
| DL4BBY-15 | 2026-09-02 13:19:20 | 50.89847 | 8.66634 | 94° | 53km/h | 4766m | -5.5m/s | -8.7°C | 0% | 0hPa | 2.6V | 00:00:00 | 00:00:00 | 00:00:00 | |
| DL1NUX | 2026-09-02 13:19:19 | 50.89853 | 8.66506 | 94° | 53km/h | 4800m | -5.4m/s | -8.8°C | 66.8% | 567.9hPa | 2.6V | 07:50:00 | 03:01:20 | 00:00:00 | |
| DB0NH | 2026-09-02 13:19:17 | 50.89850 | 8.66570 | 94° | 53km/h | 4783m | -5.7m/s | -9.0°C | 84.5% | 569.1hPa | 2.6V | 00:00:00 | 03:01:23 | 00:00:00 | |
| DO3DL | 2026-09-02 13:19:16 | 50.89850 | 8.66570 | 95° | 53km/h | 4783m | -5.8m/s | -9.1°C | 82.7% | 569.1hPa | 2.6V | 07:50:00 | 00:00:00 | 00:00:00 | |
| DF7PN | 2026-09-02 13:19:15 | 50.89853 | 8.66506 | 94° | 51km/h | 4800m | -5.4m/s | -8.8°C | 65.4% | 567.9hPa | 2.6V | 00:00:00 | 00:00:00 | 00:00:00 | |
| DL1NUX | 2026-09-02 13:19:14 | 50.89858 | 8.66401 | 94° | 53km/h | 4826m | -5.2m/s | -8.8°C | 61.9% | 565.9hPa | 2.6V | 07:50:05 | 03:01:15 | 00:00:00 | |
| HSKMA3-T | 2026-09-02 13:19:12 | 50.89855 | 8.66464 | 94° | 53km/h | 4811m | -5.2m/s | -8.8°C | 67.6% | 567.1hPa | 2.6V | 07:50:17 | 03:01:18 | 00:00:00 | |
| BIOWL1-15 | 2026-09-02 13:19:10 | 50.89861 | 8.66337 | 94° | 53km/h | 4842m | -5.7m/s | -8.8°C | 60.6% | 564.7hPa | 2.6V | 07:50:17 | 03:01:12 | 00:00:00 | |
| DL1NUX | 2026-09-02 13:19:08 | 50.89864 | 8.66273 | 93° | 53km/h | 4859m | -5.9m/s | -8.6°C | 49.8% | 563.5hPa | 2.6V | 07:50:11 | 03:01:09 | 00:00:00 | |
| DM0DOS-11 | 2026-09-02 13:19:07 | 50.89864 | 8.66252 | 93° | 53km/h | 4864m | -5.5m/s | -8.6°C | 48.7% | 563.2hPa | 2.6V | 07:50:12 | 03:01:08 | 00:00:00 | |
| DB0ND-19 | 2026-09-02 13:19:07 | 50.89860 | 8.66358 | 93° | 53km/h | 4837m | -5.5m/s | -8.9°C | 59.7% | 565.2hPa | 2.6V | 00:00:00 | 00:00:00 | 00:00:00 | |
| DL1NUX | 2026-09-02 13:19:03 | 50.89868 | 8.66169 | 94° | 51km/h | 4886m | -5.7m/s | -8.8°C | 48.1% | 561.5hPa | 2.6V | 07:50:16 | 03:01:04 | 00:00:00 | |
| HSKMA3-T | 2026-09-02 13:19:01 | 50.89865 | 8.66231 | 94° | 53km/h | 4870m | -5.6m/s | -8.7°C | 53% | 562.7hPa | 2.6V | 07:50:17 | 03:01:07 | 00:00:00 | |
| DL9SK-14 | 2026-09-02 13:18:59 | 50.89867 | 8.66189 | 94° | 51km/h | 4880m | -5.3m/s | -8.8°C | 46.9% | 561.9hPa | 2.6V | 00:00:00 | 00:00:00 | 00:00:00 | |
| DL1NUX | 2026-09-02 13:18:58 | 50.89874 | 8.66065 | 95° | 53km/h | 4914m | -5.8m/s | -9.1°C | 48.3% | 559.5hPa | 2.6V | 07:50:21 | 03:00:59 | 00:00:00 | |
| BIOWL1-15 | 2026-09-02 13:18:55 | 50.89871 | 8.66106 | 96° | 51km/h | 4903m | -6m/s | -8.9°C | 53% | 560.4hPa | 2.6V | 07:51:08 | 03:01:01 | 00:00:00 | |
| HSKMA3-T | 2026-09-02 13:18:50 | 50.89879 | 8.66001 | 98° | 53km/h | 4931m | -5.9m/s | -9.2°C | 53.2% | 558.3hPa | 2.6V | 07:51:59 | 03:00:56 | 00:00:00 | |
| DO3DL | 2026-09-02 13:18:49 | 50.89878 | 8.66001 | 99° | 53km/h | 4931m | -5.9m/s | -9.2°C | 47.6% | 558.3hPa | 2.5V | 07:51:00 | 00:00:00 | 00:00:00 | |
| DL1NUX | 2026-09-02 13:18:48 | 50.89882 | 8.65959 | 97° | 53km/h | 4942m | -5.6m/s | -9.3°C | 48.8% | 557.5hPa | 2.5V | 07:50:26 | 03:00:54 | 00:00:00 | |
| DM0DOS-11 | 2026-09-02 13:18:48 | 50.89892 | 8.65856 | 99° | 51km/h | 4969m | -5.5m/s | -9.5°C | 49% | 555.6hPa | 2.6V | 07:50:31 | 03:00:49 | 00:00:00 | |
| BIOWL1-15 | 2026-09-02 13:18:45 | 50.89908 | 8.65714 | 101° | 51km/h | 5006m | -5.3m/s | -9.7°C | 53.5% | 552.9hPa | 2.5V | 07:51:08 | 03:00:42 | 00:00:00 | |
| DB0UT-7 | 2026-09-02 13:18:45 | 50.89888 | 8.65897 | 99° | 49km/h | 4958m | -5.5m/s | -9.4°C | 49.0% | 556.3hPa | 2.6V | 07:50:00 | 03:00:51 | 00:00:00 | |
| DF7PN | 2026-09-02 13:18:44 | 50.89892 | 8.65856 | 99° | 51km/h | 4969m | -5.5m/s | -9.5°C | 47.8% | 555.6hPa | 2.6V | 00:00:00 | 00:00:00 | 00:00:00 | |
| BIOWL9-15 | 2026-09-02 13:18:43 | 50.89892 | 8.65856 | 99° | 51km/h | 4969m | -5.5m/s | -9.5°C | 47.8% | 555.6hPa | 2.6V | 00:00:00 | 00:00:00 | 00:00:00 | |
| DJ8HS-15 | 2026-09-02 13:18:42 | 50.89894 | 8.65835 | 100° | 51km/h | 4974m | -5.3m/s | -9.5°C | 49.2% | 555.1hPa | 2.6V | 00:00:00 | 03:00:48 | 00:00:00 | |
| DL1NUX | 2026-09-02 13:18:39 | 50.89903 | 8.65754 | 99° | 51km/h | 4995m | -5.5m/s | -9.7°C | 49.1% | 553.6hPa | 2.6V | 07:50:36 | 03:00:44 | 00:00:00 | |
| HSKMA3-T | 2026-09-02 13:18:39 | 50.89901 | 8.65774 | 100° | 51km/h | 4990m | -5.5m/s | -9.7°C | 53.4% | 554hPa | 2.6V | 07:51:59 | 03:00:45 | 00:00:00 | |
| BIOWL1-15 | 2026-09-02 13:18:35 | 50.89916 | 8.65654 | 102° | 51km/h | 5022m | -5.4m/s | -9.8°C | 52.5% | 551.7hPa | 2.6V | 07:51:08 | 03:00:39 | 00:00:00 | |
| DO9LL-15 | 2026-09-02 13:18:33 | 50.89916 | 8.65654 | 103° | 49km/h | 5022m | -5.3m/s | -9.8°C | 48.1% | 551.7hPa | 2.6V | 07:50:00 | 03:00:39 | 00:00:00 | |
| DL1NUX | 2026-09-02 13:18:29 | 50.89931 | 8.65555 | 104° | 49km/h | 5048m | -5.4m/s | -9.9°C | 45.3% | 549.8hPa | 2.6V | 07:50:46 | 03:00:34 | 00:00:00 | |
| BIOWL1-15 | 2026-09-02 13:18:24 | 50.89943 | 8.65478 | 105° | 49km/h | 5070m | -5.3m/s | -10°C | 47.1% | 548.3hPa | 2.6V | 07:51:08 | 03:00:30 | 00:00:00 | |
| DM0DOS-11 | 2026-09-02 13:18:23 | 50.89956 | 8.65404 | 106° | 47km/h | 5091m | -5.4m/s | -10.1°C | 43.7% | 546.8hPa | 2.6V | 07:50:54 | 03:00:26 | 00:00:00 | |
| DL1NUX | 2026-09-02 13:18:23 | 50.89963 | 8.65367 | 106° | 47km/h | 5102m | -5.3m/s | -10.2°C | 43.6% | 545.9hPa | 2.6V | 07:50:56 | 03:00:24 | 00:00:00 | |
| HSKMA3-T | 2026-09-02 13:18:14 | 50.89978 | 8.65293 | 108° | 47km/h | 5123m | -5.5m/s | -10.3°C | 48% | 544.5hPa | 2.5V | 07:51:59 | 03:00:20 | 00:00:00 | |
| DM0DOS-11 | 2026-09-02 13:18:13 | 50.89993 | 8.65221 | 108° | 47km/h | 5144m | -5.5m/s | -10.5°C | 42.9% | 543hPa | 2.6V | 07:51:04 | 03:00:16 | 00:00:00 | |
| HSKMA3-T | 2026-09-02 13:18:03 | 50.90020 | 8.65098 | 111° | 47km/h | 5183m | -6m/s | -10.8°C | 45.8% | 540.4hPa | 2.6V | 07:51:59 | 03:00:09 | 00:00:00 | |
| DL1NUX | 2026-09-02 13:18:03 | 50.90042 | 8.65009 | 111° | 49km/h | 5210m | -5.3m/s | -10.9°C | 42.7% | 538.5hPa | 2.6V | 07:51:16 | 03:00:04 | 00:00:00 | |
| DM0DOS-11 | 2026-09-02 13:18:03 | 50.90033 | 8.65045 | 111° | 47km/h | 5200m | -5.5m/s | -10.9°C | 42.4% | 539.3hPa | 2.6V | 07:51:14 | 03:00:06 | 00:00:00 | |
| DO9LL-15 | 2026-09-02 13:18:03 | 50.90020 | 8.65098 | 111° | 49km/h | 5183m | -6.0m/s | -10.7°C | 41.4% | 540.4hPa | 2.5V | 00:00:00 | 03:00:09 | 00:00:00 | |
| DJ8HS-15 | 2026-09-02 13:18:02 | 50.90025 | 8.65080 | 111° | 49km/h | 5189m | -5.7m/s | -10.7°C | 41.7% | 540.0hPa | 2.5V | 00:00:00 | 03:00:08 | 00:00:00 | |
| DO2KSM | 2026-09-02 13:18:01 | 50.90025 | 8.65080 | 112° | 47km/h | 5189m | -5.7m/s | -10.8°C | 40.6% | 540.0hPa | 2.6V | 07:51:00 | 00:00:00 | 00:00:00 | |
| DL9SK-14 | 2026-09-02 13:17:57 | 50.90051 | 8.64973 | 112° | 47km/h | 5221m | -5.5m/s | -11.0°C | 42.0% | 537.9hPa | 2.6V | 00:00:00 | 00:00:00 | 00:00:00 | |
| DJ2KF-10 | 2026-09-02 13:17:55 | 50.90056 | 8.64955 | 113° | 49km/h | 5227m | -6.0m/s | -11.0°C | 43.4% | 537.3hPa | 2.6V | 00:00:00 | 03:00:01 | 00:00:00 | |
| DM0DOS-11 | 2026-09-02 13:17:53 | 50.90080 | 8.64867 | 115° | 47km/h | 5254m | -5.6m/s | -11.3°C | 45.6% | 535.5hPa | 2.5V | 07:51:24 | 02:59:56 | 00:00:00 | |
| DL1NUX | 2026-09-02 13:17:53 | 50.90091 | 8.64832 | 115° | 49km/h | 5265m | -5.2m/s | -11.4°C | 46.4% | 534.7hPa | 2.6V | 07:51:26 | 02:59:54 | 00:00:00 | |
| HSKMA3-T | 2026-09-02 13:17:52 | 50.90070 | 8.64902 | 114° | 47km/h | 5243m | -5.3m/s | -11.2°C | 48.5% | 536.2hPa | 2.6V | 07:51:59 | 02:59:58 | 00:00:00 | |
| SO1NDE-10 | 2026-09-02 13:17:52 | 50.90070 | 8.64902 | 115° | 51km/h | 5243m | -5.2m/s | -11.1°C | 44.0% | 536.2hPa | 2.5V | 00:00:00 | 02:59:58 | 00:00:00 | |
| DO3DL | 2026-09-02 13:17:51 | 50.90070 | 8.64902 | 115° | 47km/h | 5243m | -5.3m/s | -11.2°C | 42.8% | 536.2hPa | 2.5V | 07:51:00 | 00:00:00 | 00:00:00 | |
| DL4BBY-15 | 2026-09-02 13:17:49 | 50.90086 | 8.64849 | 116° | 51km/h | 5260m | -5.7m/s | -11.0°C | 0% | 0hPa | 2.5V | 00:00:00 | 00:00:00 | 00:00:00 | |
| DB0NH | 2026-09-02 13:17:47 | 50.90096 | 8.64814 | 116° | 51km/h | 5270m | -5.4m/s | -11.4°C | 47.2% | 534.3hPa | 2.5V | 00:00:00 | 02:59:53 | 00:00:00 | |
| DM0DOS-11 | 2026-09-02 13:17:45 | 50.90136 | 8.64690 | 117° | 51km/h | 5308m | -5.6m/s | -11.8°C | 52.4% | 531.8hPa | 2.5V | 07:51:34 | 02:59:46 | 00:00:00 | |
| DB0UT-7 | 2026-09-02 13:17:45 | 50.90107 | 8.64779 | 117° | 51km/h | 5281m | -5.2m/s | -11.5°C | 49.0% | 533.6hPa | 2.5V | 00:00:00 | 02:59:51 | 00:00:00 | |
| DO3DL | 2026-09-02 13:17:44 | 50.90107 | 8.64779 | 118° | 49km/h | 5281m | -5.3m/s | -11.5°C | 47.7% | 533.7hPa | 2.6V | 07:51:00 | 00:00:00 | 00:00:00 | |
| DL1NUX | 2026-09-02 13:17:43 | 50.90148 | 8.64655 | 118° | 49km/h | 5319m | -5.8m/s | -11.8°C | 54% | 531hPa | 2.6V | 07:51:36 | 02:59:44 | 00:00:00 | |
| BIOWL1-15 | 2026-09-02 13:17:42 | 50.90142 | 8.64672 | 118° | 51km/h | 5314m | -5.6m/s | -11.8°C | 57.4% | 531.4hPa | 2.5V | 07:51:59 | 02:59:45 | 00:00:00 | |
| HSKMA3-T | 2026-09-02 13:17:41 | 50.90130 | 8.64708 | 117° | 49km/h | 5302m | -5.9m/s | -11.7°C | 56.5% | 532.1hPa | 2.6V | 07:51:59 | 02:59:47 | 00:00:00 | |
| DO2KSM | 2026-09-02 13:17:40 | 50.90130 | 8.64708 | 118° | 49km/h | 5303m | -5.9m/s | -11.7°C | 50.7% | 532.1hPa | 2.5V | 07:51:00 | 00:00:00 | 00:00:00 | |
| DL8DAS-14 | 2026-09-02 13:17:38 | 50.90154 | 8.64637 | 117° | 51km/h | 5325m | -5.5m/s | -11.9°C | 52.7% | 530.6hPa | 2.5V | 00:00:00 | 00:00:00 | 00:00:00 | |
| DD1CC3-15 | 2026-09-02 13:17:36 | 50.90154 | 8.64636 | 118° | 51km/h | 5325m | -5.5m/s | -11.9°C | 52.7% | 530.6hPa | 2.5V | 07:51:00 | 00:00:00 | 00:00:00 | |
| DL1ZP-14 | 2026-09-02 13:17:35 | 50.90172 | 8.64582 | 118° | 49km/h | 5342m | -5.8m/s | -12.1°C | 53.6% | 529.4hPa | 2.5V | 00:00:00 | 00:00:00 | 00:00:00 | |
| DM0DOS-11 | 2026-09-02 13:17:34 | 50.90197 | 8.64511 | 118° | 51km/h | 5363m | -5.4m/s | -12.2°C | 56.5% | 527.9hPa | 2.6V | 07:51:44 | 02:59:36 | 00:00:00 | |
| DL1NUX | 2026-09-02 13:17:33 | 50.90210 | 8.64476 | 120° | 51km/h | 5374m | -5.5m/s | -12.3°C | 57% | 527.2hPa | 2.5V | 07:51:46 | 02:59:34 | 00:00:00 | |
| DO9LL-15 | 2026-09-02 13:17:33 | 50.90178 | 8.64564 | 119° | 55km/h | 5347m | -5.4m/s | -12.0°C | 55.3% | 529.0hPa | 2.6V | 00:00:00 | 02:59:39 | 00:00:00 | |
| NBG1-10 | 2026-09-02 13:17:31 | 50.90190 | 8.64529 | 120° | 55km/h | 5358m | -5.0m/s | -12.1°C | 56.2% | 528.2hPa | 2.6V | 07:51:00 | 02:59:37 | 00:00:00 | |
| BIOWL1-15 | 2026-09-02 13:17:31 | 50.90191 | 8.64529 | 119° | 49km/h | 5358m | -5.1m/s | -12.2°C | 59.8% | 528.3hPa | 2.6V | 07:51:59 | 02:59:37 | 00:00:00 | |
| DO3DL | 2026-09-02 13:17:30 | 50.90190 | 8.64529 | 120° | 49km/h | 5358m | -5.1m/s | -12.2°C | 54.7% | 528.3hPa | 2.6V | 07:51:00 | 00:00:00 | 00:00:00 | |
| DB0DAN | 2026-09-02 13:17:25 | 50.90230 | 8.64422 | 120° | 51km/h | 5390m | -5.3m/s | -12.5°C | 55.4% | 526.12hPa | 2.6V | 00:00:00 | 00:00:00 | 00:00:00 | |
| DO3DL | 2026-09-02 13:17:24 | 50.90229 | 8.64421 | 121° | 53km/h | 5390m | -5.3m/s | -12.5°C | 55.4% | 526.1hPa | 2.6V | 07:51:00 | 00:00:00 | 00:00:00 | |
| DM0DOS-11 | 2026-09-02 13:17:23 | 50.90265 | 8.64327 | 119° | 55km/h | 5416m | -5.1m/s | -12.7°C | 60.8% | 524.3hPa | 2.6V | 07:51:54 | 02:59:26 | 00:00:00 | |
| DL1NUX | 2026-09-02 13:17:23 | 50.90278 | 8.64289 | 119° | 55km/h | 5427m | -5.4m/s | -12.8°C | 61.2% | 523.6hPa | 2.5V | 07:51:56 | 02:59:24 | 00:00:00 | |
| BIOWL1-15 | 2026-09-02 13:17:21 | 50.90258 | 8.64346 | 120° | 55km/h | 5411m | -5.3m/s | -12.7°C | 63.8% | 524.6hPa | 2.6V | 07:51:59 | 02:59:27 | 00:00:00 | |
| HSKMA3-T | 2026-09-02 13:17:19 | 50.90271 | 8.64308 | 119° | 55km/h | 5421m | -5.4m/s | -12.7°C | 64.3% | 524hPa | 2.6V | 07:51:59 | 02:59:25 | 00:00:00 | |
| DD1CC8 | 2026-09-02 13:17:18 | 50.90278 | 8.64289 | 119° | 53km/h | 5427m | -5.4m/s | -12.8°C | 59.5% | 523.6hPa | 2.6V | 00:00:00 | 00:00:00 | 00:00:00 | |
| DB0NH | 2026-09-02 13:17:17 | 50.90285 | 8.64270 | 120° | 58km/h | 5432m | -5.5m/s | -12.8°C | 61.6% | 523.3hPa | 2.6V | 00:00:00 | 02:59:23 | 00:00:00 | |
| DD1CC3-15 | 2026-09-02 13:17:16 | 50.90285 | 8.64270 | 120° | 55km/h | 5432m | -5.5m/s | -12.8°C | 59.9% | 523.3hPa | 2.6V | 07:51:00 | 00:00:00 | 00:00:00 | |
| DB0UT-7 | 2026-09-02 13:17:15 | 50.90299 | 8.64232 | 122° | 58km/h | 5443m | -5.1m/s | -12.9°C | 62.2% | 522.5hPa | 2.6V | 00:00:00 | 00:00:00 | 00:00:00 | |
| DM0DOS-11 | 2026-09-02 13:17:13 | 50.90335 | 8.64135 | 119° | 58km/h | 5468m | -5.1m/s | -13.1°C | 66.5% | 520.8hPa | 2.6V | 07:52:04 | 02:59:16 | 00:00:00 | |
| DL1NUX | 2026-09-02 13:17:13 | 50.90350 | 8.64094 | 120° | 58km/h | 5479m | -5m/s | -13.1°C | 67.6% | 520hPa | 2.6V | 07:52:06 | 02:59:14 | 00:00:00 | |
| BIOWL1-15 | 2026-09-02 13:17:12 | 50.90335 | 8.64135 | 120° | 58km/h | 5468m | -5.1m/s | -13.1°C | 69.6% | 520.8hPa | 2.6V | 07:52:50 | 02:59:16 | 00:00:00 | |
| DO3DL | 2026-09-02 13:17:11 | 50.90321 | 8.64174 | 122° | 57km/h | 5458m | -5.3m/s | -13.1°C | 62.4% | 521.4hPa | 2.6V | 07:52:00 | 00:00:00 | 00:00:00 | |
| DB0DAN | 2026-09-02 13:17:10 | 50.90335 | 8.64135 | 120° | 55km/h | 5468m | -5.1m/s | -13.1°C | 64.7% | 520.82hPa | 2.6V | 00:00:00 | 00:00:00 | 00:00:00 | |
| HSKMA3-T | 2026-09-02 13:17:08 | 50.90350 | 8.64094 | 120° | 58km/h | 5479m | -5m/s | -13.1°C | 70.5% | 520hPa | 2.6V | 07:52:50 | 02:59:14 | 00:00:00 | |
| DL8DAS-14 | 2026-09-02 13:17:07 | 50.90364 | 8.64054 | 118° | 57km/h | 5489m | -4.8m/s | -13.2°C | 66.6% | 519.3hPa | 2.6V | 00:00:00 | 00:00:00 | 00:00:00 | |
| DM0DOS-11 | 2026-09-02 13:17:05 | 50.90407 | 8.63930 | 118° | 58km/h | 5520m | -5.1m/s | -13.4°C | 71% | 517.3hPa | 2.6V | 07:52:14 | 02:59:06 | 00:00:00 | |
| DB0ND-19 | 2026-09-02 13:17:04 | 50.90386 | 8.63992 | 118° | 58km/h | 5505m | -5.1m/s | -13.3°C | 67.9% | 518.3hPa | 2.6V | 00:00:00 | 00:00:00 | 00:00:00 | |
| DO9LL-15 | 2026-09-02 13:17:03 | 50.90386 | 8.63992 | 119° | 60km/h | 5505m | -5.0m/s | -13.3°C | 69.8% | 518.2hPa | 2.6V | 00:00:00 | 02:59:09 | 00:00:00 | |
| DL1NUX | 2026-09-02 13:17:02 | 50.90428 | 8.63866 | 117° | 60km/h | 5536m | -5.1m/s | -13.6°C | 72.1% | 516.2hPa | 2.5V | 07:52:17 | 02:59:03 | 00:00:00 | |
| BIOWL1-15 | 2026-09-02 13:16:59 | 50.90414 | 8.63909 | 118° | 60km/h | 5525m | -5.3m/s | -13.5°C | 73.7% | 517hPa | 2.6V | 07:52:50 | 02:59:05 | 00:00:00 | |
| HSKMA3-T | 2026-09-02 13:16:58 | 50.90421 | 8.63888 | 118° | 60km/h | 5531m | -5.5m/s | -13.5°C | 74.4% | 516.6hPa | 2.6V | 07:52:50 | 02:59:04 | 00:00:00 | |
| NBG1-10 | 2026-09-02 13:16:58 | 50.90421 | 8.63888 | 118° | 62km/h | 5531m | -5.4m/s | -13.5°C | 71.9% | 516.5hPa | 2.5V | 00:00:00 | 02:59:04 | 00:00:00 | |
| DM0DOS-11 | 2026-09-02 13:16:55 | 50.90475 | 8.63717 | 115° | 60km/h | 5571m | -5.1m/s | -13.8°C | 73.7% | 513.8hPa | 2.5V | 07:52:24 | 02:58:56 | 00:00:00 | |
| DB0DAN | 2026-09-02 13:16:55 | 50.90442 | 8.63824 | 117° | 57km/h | 5546m | -5.2m/s | -13.6°C | 70.7% | 0hPa | 2.6V | 00:00:00 | 00:00:00 | 00:00:00 | |
| BIOWL1-15 | 2026-09-02 13:16:55 | 50.90488 | 8.63674 | 115° | 60km/h | 5581m | -4.8m/s | -13.9°C | 75.8% | 513.1hPa | 2.6V | 07:52:50 | 02:58:54 | 00:00:00 | |
| DL1NUX | 2026-09-02 13:16:52 | 50.90495 | 8.63652 | 115° | 60km/h | 5586m | -4.9m/s | -13.9°C | 74.2% | 512.7hPa | 2.6V | 07:52:27 | 02:58:53 | 00:00:00 | |
| HSKMA3-T | 2026-09-02 13:16:47 | 50.90494 | 8.63652 | 115° | 60km/h | 5586m | -4.9m/s | -14°C | 75.9% | 512.7hPa | 2.6V | 07:52:50 | 02:58:53 | 00:00:00 | |
| DD1CC8 | 2026-09-02 13:16:47 | 50.90501 | 8.63630 | 114° | 58km/h | 5591m | -5.2m/s | -14.0°C | 71.6% | 512.4hPa | 2.6V | 00:00:00 | 00:00:00 | 00:00:00 | |
| DL3AQ-11 | 2026-09-02 13:16:46 | 50.90501 | 8.63630 | 114° | 58km/h | 5591m | -5.2m/s | -14.0°C | 71.6% | 512.4hPa | 2.6V | 00:00:00 | 00:00:00 | 00:00:00 | |
| DM0DOS-11 | 2026-09-02 13:16:45 | 50.90541 | 8.63498 | 115° | 62km/h | 5621m | -5.3m/s | -14.2°C | 75.4% | 510.3hPa | 2.6V | 07:52:34 | 02:58:46 | 00:00:00 | |
| DB0UT-7 | 2026-09-02 13:16:45 | 50.90507 | 8.63608 | 115° | 62km/h | 5596m | -5.2m/s | -14.0°C | 74.0% | 511.9hPa | 2.5V | 00:00:00 | 02:58:51 | 00:00:00 | |
| DL1NUX | 2026-09-02 13:16:42 | 50.90561 | 8.63431 | 115° | 62km/h | 5637m | -5m/s | -14.4°C | 76.4% | 509.2hPa | 2.5V | 07:52:37 | 02:58:43 | 00:00:00 | |
| DJ8HS-15 | 2026-09-02 13:16:42 | 50.90527 | 8.63542 | 116° | 62km/h | 5611m | -5.1m/s | -14.1°C | 74.6% | 510.9hPa | 2.6V | 07:52:00 | 02:58:48 | 00:00:00 | |
| DB0DAN | 2026-09-02 13:16:40 | 50.90541 | 8.63498 | 116° | 58km/h | 5621m | -5.3m/s | -14.2°C | 73.3% | 0hPa | 2.6V | 00:00:00 | 00:00:00 | 00:00:00 | |
| BIOWL1-15 | 2026-09-02 13:16:38 | 50.90554 | 8.63453 | 116° | 62km/h | 5632m | -5.2m/s | -14.3°C | 77.6% | 509.6hPa | 2.5V | 07:52:50 | 02:58:44 | 00:00:00 | |
| HSKMA3-T | 2026-09-02 13:16:37 | 50.90561 | 8.63431 | 115° | 62km/h | 5637m | -5m/s | -14.4°C | 77.8% | 509.2hPa | 2.5V | 07:52:50 | 02:58:43 | 00:00:00 | |
| DD1CC3-15 | 2026-09-02 13:16:35 | 50.90568 | 8.63408 | 116° | 62km/h | 5642m | -5.2m/s | -14.4°C | 74.5% | 508.9hPa | 2.5V | 07:52:00 | 00:00:00 | 00:00:00 | |
| DM0DOS-11 | 2026-09-02 13:16:33 | 50.90607 | 8.63272 | 115° | 62km/h | 5672m | -5.3m/s | -14.7°C | 77.7% | 506.9hPa | 2.5V | 07:52:44 | 02:58:36 | 00:00:00 | |
| BIOWL1-15 | 2026-09-02 13:16:30 | 50.90621 | 8.63227 | 115° | 62km/h | 5683m | -5.1m/s | -14.7°C | 77.8% | 506.2hPa | 2.6V | 07:52:50 | 02:58:34 | 00:00:00 | |
| DL4BBY-15 | 2026-09-02 13:16:30 | 50.90607 | 8.63272 | 116° | 66km/h | 5673m | -5.3m/s | -14.3°C | 0% | 0hPa | 2.6V | 00:00:00 | 00:00:00 | 00:00:00 | |
| DL1NUX | 2026-09-02 13:16:29 | 50.90628 | 8.63204 | 115° | 64km/h | 5688m | -5.3m/s | -14.7°C | 76.8% | 505.8hPa | 2.6V | 07:52:47 | 02:58:33 | 00:00:00 | |
| HSKMA3-T | 2026-09-02 13:16:26 | 50.90635 | 8.63182 | 116° | 62km/h | 5693m | -4.9m/s | -14.7°C | 77.7% | 505.5hPa | 2.6V | 07:52:50 | 02:58:32 | 00:00:00 | |
| DB0DAN | 2026-09-02 13:16:25 | 50.90642 | 8.63159 | 115° | 60km/h | 5698m | -5m/s | -14.7°C | 74.4% | 0hPa | 2.5V | 00:00:00 | 00:00:00 | 00:00:00 | |
| DL9SK-14 | 2026-09-02 13:16:24 | 50.90655 | 8.63113 | 113° | 62km/h | 5708m | -5.5m/s | -14.8°C | 74.8% | 504.4hPa | 2.5V | 00:00:00 | 00:00:00 | 00:00:00 | |
| DM0DOS-11 | 2026-09-02 13:16:23 | 50.90674 | 8.63043 | 113° | 64km/h | 5724m | -5.2m/s | -14.9°C | 78.3% | 503.4hPa | 2.5V | 07:52:54 | 02:58:26 | 00:00:00 | |
| DL1NUX | 2026-09-02 13:16:22 | 50.90693 | 8.62971 | 112° | 66km/h | 5738m | -5.1m/s | -14.9°C | 78.5% | 502.4hPa | 2.6V | 07:52:57 | 02:58:23 | 00:00:00 | |
| BIOWL1-15 | 2026-09-02 13:16:17 | 50.90693 | 8.62971 | 113° | 66km/h | 5738m | -5.1m/s | -14.9°C | 79.7% | 502.4hPa | 2.6V | 07:53:41 | 02:58:23 | 00:00:00 | |
| HSKMA3-T | 2026-09-02 13:16:16 | 50.90700 | 8.62947 | 113° | 66km/h | 5743m | -5.1m/s | -15°C | 79.8% | 502.1hPa | 2.6V | 07:53:41 | 02:58:22 | 00:00:00 | |
| DD1CC8 | 2026-09-02 13:16:16 | 50.90706 | 8.62923 | 112° | 64km/h | 5748m | -5.1m/s | -15.0°C | 76.5% | 501.8hPa | 2.6V | 00:00:00 | 00:00:00 | 00:00:00 | |
| DB0UT-7 | 2026-09-02 13:16:15 | 50.90706 | 8.62923 | 113° | 66km/h | 5749m | -5.1m/s | -15.0°C | 78.8% | 501.8hPa | 2.6V | 00:00:00 | 00:00:00 | 00:00:00 | |
| DD1CC3-15 | 2026-09-02 13:16:14 | 50.90706 | 8.62923 | 113° | 66km/h | 5749m | -5.1m/s | -15.0°C | 76.5% | 501.8hPa | 2.5V | 07:53:00 | 00:00:00 | 00:00:00 | |
| DL1NUX | 2026-09-02 13:16:12 | 50.90755 | 8.62732 | 110° | 64km/h | 5789m | -5m/s | -15.4°C | 80% | 498.9hPa | 2.5V | 07:53:07 | 02:58:13 | 00:00:00 | |
| DB0DAN | 2026-09-02 13:16:10 | 50.90737 | 8.62803 | 112° | 62km/h | 5774m | -5.2m/s | -15.3°C | 0% | 0hPa | 2.6V | 00:00:00 | 00:00:00 | 00:00:00 | |
| HSKMA3-T | 2026-09-02 13:16:05 | 50.90767 | 8.62684 | 111° | 66km/h | 5800m | -5.3m/s | -15.4°C | 80.9% | 498.3hPa | 2.6V | 07:53:41 | 02:58:11 | 00:00:00 | |
| DM0DOS-11 | 2026-09-02 13:16:05 | 50.90796 | 8.62561 | 109° | 66km/h | 5825m | -5.2m/s | -15.6°C | 80.7% | 496.6hPa | 2.6V | 07:53:14 | 02:58:06 | 00:00:00 | |
| DL8DAS-14 | 2026-09-02 13:16:05 | 50.90773 | 8.62659 | 111° | 64km/h | 5805m | -5.1m/s | -15.4°C | 78.0% | 498.0hPa | 2.5V | 00:00:00 | 00:00:00 | 00:00:00 | |
| DO9LL-15 | 2026-09-02 13:16:03 | 50.90779 | 8.62635 | 112° | 69km/h | 5810m | -5.0m/s | -15.4°C | 80.3% | 497.6hPa | 2.5V | 00:00:00 | 02:58:09 | 00:00:00 | |
| DL1NUX | 2026-09-02 13:16:02 | 50.90813 | 8.62486 | 109° | 66km/h | 5841m | -5.2m/s | -15.7°C | 81.3% | 495.6hPa | 2.5V | 07:53:17 | 02:58:03 | 00:00:00 | |
| BIOWL1-15 | 2026-09-02 13:15:56 | 50.90830 | 8.62411 | 109° | 68km/h | 5857m | -5.2m/s | -15.9°C | 82% | 494.6hPa | 2.6V | 07:53:41 | 02:58:00 | 00:00:00 | |
| HSKMA3-T | 2026-09-02 13:15:55 | 50.90824 | 8.62436 | 109° | 68km/h | 5852m | -5.1m/s | -15.8°C | 81.9% | 494.9hPa | 2.6V | 07:53:41 | 02:58:01 | 00:00:00 | |
| DB0DAN | 2026-09-02 13:15:55 | 50.90824 | 8.62436 | 109° | 64km/h | 5852m | -5.1m/s | -15.8°C | 0% | 0hPa | 2.6V | 00:00:00 | 00:00:00 | 00:00:00 | |
| DL9SK-14 | 2026-09-02 13:15:53 | 50.90841 | 8.62360 | 109° | 66km/h | 5867m | -5.3m/s | -16.0°C | 79.8% | 493.8hPa | 2.5V | 00:00:00 | 00:00:00 | 00:00:00 | |
| DL1NUX | 2026-09-02 13:15:52 | 50.90869 | 8.62231 | 108° | 69km/h | 5892m | -5.4m/s | -16.1°C | 82.2% | 492.2hPa | 2.5V | 07:53:27 | 02:57:53 | 00:00:00 | |
| DL3AQ-11 | 2026-09-02 13:15:49 | 50.90858 | 8.62283 | 109° | 68km/h | 5882m | -5.2m/s | -16.0°C | 79.5% | 492.9hPa | 2.6V | 00:00:00 | 00:00:00 | 00:00:00 | |
| AU51GT2 | 2026-09-02 13:15:47 | 50.90875 | 8.62205 | 108° | 69km/h | 5898m | -4.8m/s | -16.2°C | 79.7% | 491.9hPa | 2.6V | 00:00:00 | 00:00:00 | 00:00:00 | |
| DO3DL | 2026-09-02 13:15:46 | 50.90869 | 8.62231 | 110° | 69km/h | 5893m | -5.4m/s | -16.1°C | 79.7% | 492.2hPa | 2.6V | 07:53:00 | 00:00:00 | 00:00:00 | |
| DM0DOS-11 | 2026-09-02 13:15:45 | 50.90909 | 8.62042 | 109° | 71km/h | 5928m | -5.1m/s | -16.3°C | 81.9% | 489.9hPa | 2.6V | 07:53:34 | 02:57:46 | 00:00:00 | |
| HSKMA3-T | 2026-09-02 13:15:45 | 50.90880 | 8.62178 | 108° | 71km/h | 5902m | -5.1m/s | -16.2°C | 82.2% | 491.6hPa | 2.6V | 07:53:41 | 02:57:51 | 00:00:00 | |
| BIOWL1-15 | 2026-09-02 13:15:43 | 50.90891 | 8.62124 | 108° | 71km/h | 5913m | -5.5m/s | -16.3°C | 82% | 491hPa | 2.6V | 07:53:41 | 02:57:49 | 00:00:00 | |
| DL1NUX | 2026-09-02 13:15:42 | 50.90927 | 8.61961 | 109° | 71km/h | 5943m | -5.2m/s | -16.4°C | 81.4% | 488.9hPa | 2.5V | 07:53:37 | 02:57:43 | 00:00:00 | |
| HSKMA3-T | 2026-09-02 13:15:34 | 50.90946 | 8.61880 | 110° | 73km/h | 5959m | -5.1m/s | -16.5°C | 81.9% | 487.9hPa | 2.6V | 07:53:41 | 02:57:40 | 00:00:00 | |
| DL8DAS-14 | 2026-09-02 13:15:34 | 50.90952 | 8.61852 | 109° | 71km/h | 5964m | -5.1m/s | -16.5°C | 80.5% | 487.6hPa | 2.6V | 00:00:00 | 00:00:00 | 00:00:00 | |
| DM0DOS-11 | 2026-09-02 13:15:33 | 50.90970 | 8.61768 | 107° | 75km/h | 5980m | -5.3m/s | -16.6°C | 82.3% | 486.6hPa | 2.6V | 07:53:44 | 02:57:36 | 00:00:00 | |
| BIOWL1-15 | 2026-09-02 13:15:32 | 50.90958 | 8.61824 | 109° | 73km/h | 5969m | -5.5m/s | -16.6°C | 82.3% | 487.2hPa | 2.5V | 07:54:32 | 02:57:38 | 00:00:00 | |
| DL1NUX | 2026-09-02 13:15:32 | 50.90987 | 8.61683 | 107° | 75km/h | 5995m | -5.1m/s | -16.7°C | 82.5% | 485.6hPa | 2.5V | 07:53:47 | 02:57:33 | 00:00:00 | |
| HSKMA3-T | 2026-09-02 13:15:23 | 50.91010 | 8.61568 | 108° | 75km/h | 6016m | -5.3m/s | -16.8°C | 82% | 484.3hPa | 2.6V | 07:54:32 | 02:57:29 | 00:00:00 | |
| DL1NUX | 2026-09-02 13:15:22 | 50.91044 | 8.61395 | 107° | 77km/h | 6046m | -5.1m/s | -16.9°C | 77.3% | 482.5hPa | 2.5V | 07:53:57 | 02:57:23 | 00:00:00 | |
| DM0DOS-11 | 2026-09-02 13:15:22 | 50.91027 | 8.61482 | 107° | 75km/h | 6031m | -5m/s | -16.9°C | 80.5% | 483.4hPa | 2.6V | 07:53:54 | 02:57:26 | 00:00:00 | |
| BIOWL1-15 | 2026-09-02 13:15:21 | 50.91056 | 8.61336 | 107° | 77km/h | 6056m | -5.2m/s | -16.9°C | 76.8% | 481.8hPa | 2.6V | 07:54:32 | 02:57:21 | 00:00:00 | |
| NBG1-10 | 2026-09-02 13:15:19 | 50.91033 | 8.61453 | 107° | 77km/h | 6037m | -4.8m/s | -16.8°C | 78.6% | 483.0hPa | 2.6V | 00:00:00 | 02:57:25 | 00:00:00 | |
| DO2KSM | 2026-09-02 13:15:18 | 50.91044 | 8.61395 | 108° | 77km/h | 6047m | -5.1m/s | -16.9°C | 74.8% | 482.5hPa | 2.6V | 07:54:00 | 00:00:00 | 00:00:00 | |
| AU51GT2 | 2026-09-02 13:15:17 | 50.91056 | 8.61336 | 106° | 77km/h | 6056m | -5.2m/s | -16.9°C | 74.0% | 481.8hPa | 2.6V | 00:00:00 | 00:00:00 | 00:00:00 | |
| DM0DOS-11 | 2026-09-02 13:15:16 | 50.91084 | 8.61189 | 105° | 77km/h | 6081m | -5.1m/s | -17°C | 75.2% | 480.2hPa | 2.6V | 07:54:04 | 02:57:16 | 00:00:00 | |
| HSKMA3-T | 2026-09-02 13:15:12 | 50.91072 | 8.61248 | 106° | 77km/h | 6072m | -4.9m/s | -17°C | 75.8% | 480.8hPa | 2.5V | 07:54:32 | 02:57:18 | 00:00:00 | |
| BIOWL1-15 | 2026-09-02 13:15:08 | 50.91100 | 8.61100 | 106° | 77km/h | 6096m | -5.1m/s | -17.1°C | 76.5% | 479.2hPa | 2.5V | 07:54:32 | 02:57:13 | 00:00:00 | |
| BIOWL7-15 | 2026-09-02 13:15:07 | 50.91094 | 8.61130 | 107° | 77km/h | 6091m | -5.1m/s | -17.1°C | 73.2% | 479.6hPa | 2.6V | 00:00:00 | 00:00:00 | 00:00:00 | |
| BIOWL9-15 | 2026-09-02 13:15:06 | 50.91105 | 8.61071 | 106° | 77km/h | 6101m | -4.7m/s | -17.1°C | 74.0% | 478.9hPa | 2.6V | 00:00:00 | 00:00:00 | 00:00:00 | |
| DM0DOS-11 | 2026-09-02 13:15:05 | 50.91137 | 8.60894 | 105° | 77km/h | 6131m | -5.1m/s | -17.4°C | 78.6% | 477hPa | 2.6V | 07:54:14 | 02:57:06 | 00:00:00 | |
| DJ8HS-15 | 2026-09-02 13:15:02 | 50.91127 | 8.60953 | 106° | 77km/h | 6121m | -5.1m/s | -17.3°C | 78.2% | 477.6hPa | 2.5V | 00:00:00 | 02:57:08 | 00:00:00 | |
| HSKMA3-T | 2026-09-02 13:15:02 | 50.91127 | 8.60953 | 106° | 77km/h | 6121m | -5.1m/s | -17.3°C | 78.2% | 477.6hPa | 2.5V | 07:54:32 | 02:57:08 | 00:00:00 | |
| DL1NUX | 2026-09-02 13:15:01 | 50.91153 | 8.60807 | 105° | 77km/h | 6146m | -5m/s | -17.5°C | 80% | 476.1hPa | 2.6V | 07:54:17 | 02:57:03 | 00:00:00 | |
| BIOWL1-15 | 2026-09-02 13:14:56 | 50.91158 | 8.60777 | 106° | 77km/h | 6151m | -4.9m/s | -17.5°C | 80% | 475.8hPa | 2.5V | 07:54:32 | 02:57:02 | 00:00:00 | |
| DM0DOS-11 | 2026-09-02 13:14:55 | 50.91189 | 8.60600 | 106° | 77km/h | 6180m | -4.8m/s | -17.8°C | 78.7% | 473.9hPa | 2.5V | 07:54:24 | 02:56:56 | 00:00:00 | |
| DJ2KF-10 | 2026-09-02 13:14:55 | 50.91163 | 8.60747 | 105° | 77km/h | 6156m | -4.9m/s | -17.5°C | 80.2% | 475.5hPa | 2.5V | 00:00:00 | 02:57:01 | 00:00:00 | |
| DL8OAI-8 | 2026-09-02 13:14:53 | 50.91168 | 8.60718 | 106° | 77km/h | 6161m | -5.2m/s | -17.6°C | 77.8% | 475.1hPa | 2.6V | 00:00:00 | 00:00:00 | 00:00:00 | |
| SO1NDE-10 | 2026-09-02 13:14:52 | 50.91178 | 8.60659 | 106° | 75km/h | 6171m | -4.7m/s | -17.7°C | 80.0% | 474.5hPa | 2.6V | 00:00:00 | 02:56:58 | 00:00:00 | |
| DL1NUX | 2026-09-02 13:14:51 | 50.91205 | 8.60511 | 107° | 78km/h | 6196m | -4.8m/s | -17.9°C | 77.7% | 472.9hPa | 2.6V | 07:54:27 | 02:56:53 | 00:00:00 | |
| HSKMA3-T | 2026-09-02 13:14:51 | 50.91183 | 8.60630 | 106° | 77km/h | 6176m | -5m/s | -17.8°C | 78.9% | 474.2hPa | 2.6V | 07:54:32 | 02:56:57 | 00:00:00 | |
| BIOWL1-15 | 2026-09-02 13:14:46 | 50.91211 | 8.60482 | 106° | 77km/h | 6201m | -4.9m/s | -17.9°C | 77% | 472.6hPa | 2.6V | 07:54:32 | 02:56:52 | 00:00:00 | |
| DM0DOS-11 | 2026-09-02 13:14:45 | 50.91243 | 8.60305 | 105° | 77km/h | 6230m | -5.2m/s | -18.2°C | 77.1% | 470.8hPa | 2.6V | 07:54:34 | 02:56:46 | 00:00:00 | |
| AU51GT2 | 2026-09-02 13:14:44 | 50.91222 | 8.60422 | 105° | 77km/h | 6210m | -5.1m/s | -18.0°C | 74.2% | 471.9hPa | 2.5V | 00:00:00 | 00:00:00 | 00:00:00 | |
| DD1CC8 | 2026-09-02 13:14:43 | 50.91232 | 8.60364 | 106° | 75km/h | 6220m | -5.0m/s | -18.1°C | 74.4% | 471.4hPa | 2.5V | 00:00:00 | 00:00:00 | 00:00:00 | |
| DL1NUX | 2026-09-02 13:14:42 | 50.91259 | 8.60218 | 105° | 77km/h | 6245m | -5.3m/s | -18.3°C | 79.8% | 469.8hPa | 2.5V | 07:54:37 | 02:56:43 | 00:00:00 | |
| HSKMA3-T | 2026-09-02 13:14:40 | 50.91243 | 8.60305 | 106° | 77km/h | 6230m | -5.2m/s | -18.2°C | 76.8% | 470.8hPa | 2.6V | 07:55:23 | 02:56:46 | 00:00:00 | |
| DM0DOS-11 | 2026-09-02 13:14:35 | 50.91296 | 8.60015 | 106° | 75km/h | 6279m | -5m/s | -18.4°C | 84% | 467.7hPa | 2.5V | 07:54:44 | 02:56:36 | 00:00:00 | |
| BIOWL1-15 | 2026-09-02 13:14:35 | 50.91269 | 8.60160 | 106° | 75km/h | 6254m | -5m/s | -18.3°C | 81.5% | 469.2hPa | 2.6V | 07:55:23 | 02:56:41 | 00:00:00 | |
| BIOWL9-15 | 2026-09-02 13:14:35 | 50.91269 | 8.60160 | 105° | 75km/h | 6254m | -5.0m/s | -18.3°C | 79.9% | 469.2hPa | 2.6V | 00:00:00 | 00:00:00 | 00:00:00 | |
| DO2KSM | 2026-09-02 13:14:34 | 50.91269 | 8.60160 | 107° | 75km/h | 6255m | -5.0m/s | -18.3°C | 79.9% | 469.2hPa | 2.6V | 07:55:00 | 00:00:00 | 00:00:00 | |
| DO3DL | 2026-09-02 13:14:33 | 50.91274 | 8.60130 | 107° | 77km/h | 6260m | -4.7m/s | -18.4°C | 81.3% | 468.9hPa | 2.6V | 07:55:00 | 00:00:00 | 00:00:00 | |
| DL1NUX | 2026-09-02 13:14:32 | 50.91312 | 8.59929 | 105° | 73km/h | 6294m | -5.2m/s | -18.5°C | 82.6% | 466.8hPa | 2.6V | 07:54:47 | 02:56:33 | 00:00:00 | |
| HSKMA3-T | 2026-09-02 13:14:30 | 50.91296 | 8.60015 | 106° | 75km/h | 6279m | -5m/s | -18.4°C | 82.9% | 467.7hPa | 2.5V | 07:55:23 | 02:56:36 | 00:00:00 | |
| DB0ND-19 | 2026-09-02 13:14:28 | 50.91307 | 8.59958 | 106° | 73km/h | 6289m | -4.8m/s | -18.4°C | 79.8% | 467.1hPa | 2.6V | 00:00:00 | 00:00:00 | 00:00:00 | |
| DO3DL | 2026-09-02 13:14:26 | 50.91312 | 8.59929 | 106° | 75km/h | 6294m | -5.2m/s | -18.5°C | 79.8% | 466.8hPa | 2.6V | 07:55:00 | 00:00:00 | 00:00:00 | |
| DM0DOS-11 | 2026-09-02 13:14:25 | 50.91347 | 8.59732 | 106° | 73km/h | 6328m | -4.7m/s | -18.7°C | 83.2% | 464.6hPa | 2.6V | 07:54:54 | 02:56:26 | 00:00:00 | |
| BIOWL1-15 | 2026-09-02 13:14:24 | 50.91357 | 8.59677 | 107° | 71km/h | 6337m | -5.3m/s | -18.8°C | 82.3% | 464.1hPa | 2.5V | 07:55:23 | 02:56:24 | 00:00:00 | |
| DL1NUX | 2026-09-02 13:14:22 | 50.91362 | 8.59649 | 106° | 71km/h | 6342m | -5.1m/s | -18.8°C | 83.4% | 463.7hPa | 2.5V | 07:54:57 | 02:56:23 | 00:00:00 | |
| HSKMA3-T | 2026-09-02 13:14:19 | 50.91352 | 8.59704 | 107° | 71km/h | 6332m | -4.7m/s | -18.8°C | 82.3% | 464.4hPa | 2.6V | 07:55:23 | 02:56:25 | 00:00:00 | |
| DB0NH | 2026-09-02 13:14:17 | 50.91362 | 8.59649 | 107° | 68km/h | 6343m | -5.1m/s | -18.8°C | 83.4% | 463.7hPa | 2.5V | 00:00:00 | 02:56:23 | 00:00:00 | |
| DM0DOS-11 | 2026-09-02 13:14:15 | 50.91399 | 8.59461 | 106° | 69km/h | 6376m | -5.1m/s | -19.1°C | 81.5% | 461.6hPa | 2.5V | 07:55:04 | 02:56:16 | 00:00:00 | |
| DB0UT-7 | 2026-09-02 13:14:15 | 50.91373 | 8.59595 | 107° | 68km/h | 6352m | -4.4m/s | -18.9°C | 83.5% | 463.0hPa | 2.6V | 00:00:00 | 00:00:00 | 00:00:00 | |
| NBG1-10 | 2026-09-02 13:14:13 | 50.91383 | 8.59542 | 107° | 68km/h | 6362m | -5.0m/s | -18.9°C | 83.5% | 462.5hPa | 2.6V | 00:00:00 | 02:56:19 | 00:00:00 | |
| DL1NUX | 2026-09-02 13:14:12 | 50.91414 | 8.59381 | 106° | 69km/h | 6391m | -4.7m/s | -19.2°C | 81.4% | 460.7hPa | 2.6V | 07:55:07 | 02:56:13 | 00:00:00 | |
| DL8OAI-8 | 2026-09-02 13:14:11 | 50.91388 | 8.59515 | 109° | 71km/h | 6367m | -4.8m/s | -19.0°C | 80.5% | 462.3hPa | 2.5V | 07:55:00 | 00:00:00 | 00:00:00 | |
| DB0DAN | 2026-09-02 13:14:10 | 50.91399 | 8.59461 | 107° | 68km/h | 6376m | -5.1m/s | -19.1°C | 0% | 0hPa | 2.5V | 00:00:00 | 00:00:00 | 00:00:00 | |
| BIOWL1-15 | 2026-09-02 13:14:09 | 50.91404 | 8.59434 | 107° | 71km/h | 6381m | -4.7m/s | -19.1°C | 80.3% | 461.4hPa | 2.5V | 07:55:23 | 02:56:15 | 00:00:00 | |
| HSKMA3-T | 2026-09-02 13:14:08 | 50.91409 | 8.59407 | 107° | 69km/h | 6386m | -5.2m/s | -19.2°C | 80.2% | 461hPa | 2.6V | 07:55:23 | 02:56:14 | 00:00:00 | |
| DO3DL | 2026-09-02 13:14:07 | 50.91409 | 8.59407 | 108° | 69km/h | 6386m | -5.2m/s | -19.1°C | 78.2% | 461.0hPa | 2.6V | 07:55:00 | 00:00:00 | 00:00:00 | |
| DM0DOS-11 | 2026-09-02 13:14:06 | 50.91449 | 8.59196 | 106° | 68km/h | 6425m | -4.8m/s | -19.4°C | 81.3% | 458.5hPa | 2.6V | 07:55:14 | 02:56:06 | 00:00:00 | |
| BIOWL1-15 | 2026-09-02 13:14:03 | 50.91453 | 8.59170 | 106° | 68km/h | 6430m | -4.8m/s | -19.5°C | 80.2% | 458.2hPa | 2.6V | 07:55:23 | 02:56:05 | 00:00:00 | |
| DL1NUX | 2026-09-02 13:14:02 | 50.91463 | 8.59119 | 106° | 68km/h | 6440m | -5.1m/s | -19.5°C | 81.5% | 457.6hPa | 2.5V | 07:55:17 | 02:56:03 | 00:00:00 | |
| HSKMA3-T | 2026-09-02 13:13:58 | 50.91458 | 8.59145 | 107° | 68km/h | 6435m | -5.2m/s | -19.5°C | 80.3% | 458hPa | 2.6V | 07:55:23 | 02:56:04 | 00:00:00 | |
| DB0ND-19 | 2026-09-02 13:13:57 | 50.91463 | 8.59119 | 106° | 66km/h | 6440m | -5.1m/s | -19.5°C | 78.6% | 457.6hPa | 2.5V | 00:00:00 | 00:00:00 | 00:00:00 | |
| DJ2KF-10 | 2026-09-02 13:13:55 | 50.91473 | 8.59068 | 108° | 64km/h | 6450m | -4.8m/s | -19.6°C | 81.7% | 457.0hPa | 2.5V | 00:00:00 | 02:56:01 | 00:00:00 | |
| DM0DOS-11 | 2026-09-02 13:13:54 | 50.91497 | 8.58941 | 106° | 64km/h | 6474m | -4.8m/s | -19.8°C | 81.8% | 455.5hPa | 2.5V | 07:55:24 | 02:55:56 | 00:00:00 | |
| DO2KSM | 2026-09-02 13:13:53 | 50.91477 | 8.59042 | 108° | 68km/h | 6455m | -4.7m/s | -19.7°C | 78.8% | 456.7hPa | 2.6V | 07:55:00 | 00:00:00 | 00:00:00 | |
| DL1NUX | 2026-09-02 13:13:52 | 50.91510 | 8.58867 | 105° | 64km/h | 6488m | -5m/s | -19.9°C | 81.7% | 454.6hPa | 2.6V | 07:55:27 | 02:55:53 | 00:00:00 | |
| HSKMA3-T | 2026-09-02 13:13:47 | 50.91510 | 8.58867 | 106° | 64km/h | 6489m | -5m/s | -19.9°C | 80.4% | 454.6hPa | 2.6V | 07:56:14 | 02:55:53 | 00:00:00 | |
| DB0NH | 2026-09-02 13:13:47 | 50.91510 | 8.58867 | 106° | 64km/h | 6489m | -4.9m/s | -19.9°C | 81.7% | 454.6hPa | 2.6V | 00:00:00 | 02:55:53 | 00:00:00 | |
| DM0DOS-11 | 2026-09-02 13:13:45 | 50.91540 | 8.58697 | 105° | 62km/h | 6524m | -5.2m/s | -20.2°C | 81.2% | 452.5hPa | 2.6V | 07:55:34 | 02:55:46 | 00:00:00 | |
| DJ2DS-15 | 2026-09-02 13:13:44 | 50.91523 | 8.58794 | 105° | 62km/h | 6504m | -5.2m/s | -20.1°C | 78.9% | 453.7hPa | 2.6V | 00:00:00 | 00:00:00 | 00:00:00 | |
| DL1NUX | 2026-09-02 13:13:42 | 50.91553 | 8.58623 | 105° | 66km/h | 6539m | -5m/s | -20.3°C | 79.9% | 451.6hPa | 2.6V | 07:55:37 | 02:55:43 | 00:00:00 | |
| BIOWL1-15 | 2026-09-02 13:13:38 | 50.91549 | 8.58648 | 106° | 64km/h | 6534m | -5.1m/s | -20.3°C | 79% | 451.9hPa | 2.6V | 07:56:14 | 02:55:44 | 00:00:00 | |
| HSKMA3-T | 2026-09-02 13:13:36 | 50.91558 | 8.58598 | 106° | 64km/h | 6544m | -5.3m/s | -20.4°C | 77.8% | 451.3hPa | 2.5V | 07:56:14 | 02:55:42 | 00:00:00 | |
| DM0DOS-11 | 2026-09-02 13:13:35 | 50.91585 | 8.58451 | 106° | 64km/h | 6574m | -5m/s | -20.5°C | 72.8% | 449.4hPa | 2.5V | 07:55:44 | 02:55:36 | 00:00:00 | |
| BUE01 | 2026-09-02 13:13:34 | 50.91571 | 8.58525 | 106° | 64km/h | 6559m | -5.0m/s | -20.5°C | 73.3% | 450.4hPa | 2.6V | 00:00:00 | 00:00:00 | 00:00:00 | |
| BIOWL9-15 | 2026-09-02 13:13:33 | 50.91571 | 8.58525 | 106° | 64km/h | 6559m | -5.0m/s | -20.5°C | 73.3% | 450.4hPa | 2.6V | 00:00:00 | 00:00:00 | 00:00:00 | |
| DL1NUX | 2026-09-02 13:13:32 | 50.91598 | 8.58378 | 106° | 64km/h | 6589m | -5m/s | -20.6°C | 72.5% | 448.5hPa | 2.6V | 07:55:47 | 02:55:33 | 00:00:00 | |
| BIOWL1-15 | 2026-09-02 13:13:28 | 50.91594 | 8.58402 | 106° | 64km/h | 6584m | -5m/s | -20.6°C | 70.8% | 448.9hPa | 2.6V | 07:56:14 | 02:55:34 | 00:00:00 | |
| HSKMA3-T | 2026-09-02 13:13:25 | 50.91608 | 8.58329 | 108° | 64km/h | 6598m | -4.9m/s | -20.6°C | 74.2% | 447.9hPa | 2.5V | 07:56:14 | 02:55:31 | 00:00:00 | |
| DM0DOS-11 | 2026-09-02 13:13:23 | 50.91634 | 8.58205 | 108° | 66km/h | 6624m | -5.3m/s | -20.8°C | 79.5% | 446.5hPa | 2.6V | 07:55:54 | 02:55:26 | 00:00:00 | |
| DL1NUX | 2026-09-02 13:13:22 | 50.91650 | 8.58131 | 109° | 66km/h | 6639m | -5.2m/s | -21°C | 81.8% | 445.6hPa | 2.5V | 07:55:57 | 02:55:23 | 00:00:00 | |
| BIOWL1-15 | 2026-09-02 13:13:17 | 50.91650 | 8.58131 | 109° | 66km/h | 6639m | -5.2m/s | -21°C | 80.7% | 445.6hPa | 2.5V | 07:56:14 | 02:55:23 | 00:00:00 | |
| HSKMA3-T | 2026-09-02 13:13:15 | 50.91661 | 8.58081 | 111° | 66km/h | 6650m | -5.1m/s | -21.1°C | 82.2% | 444.9hPa | 2.6V | 07:56:14 | 02:55:21 | 00:00:00 | |
| DB0UT-7 | 2026-09-02 13:13:15 | 50.91661 | 8.58081 | 111° | 69km/h | 6650m | -5.1m/s | -21.0°C | 83.5% | 444.9hPa | 2.6V | 00:00:00 | 00:00:00 | 00:00:00 | |
| DL4BBY-15 | 2026-09-02 13:13:14 | 50.91667 | 8.58056 | 111° | 69km/h | 6655m | -4.7m/s | -20.7°C | 0% | 0hPa | 2.5V | 00:00:00 | 00:00:00 | 00:00:00 | |
| DL1NUX | 2026-09-02 13:13:12 | 50.91709 | 8.57880 | 111° | 68km/h | 6690m | -5.2m/s | -21.2°C | 84.7% | 442.5hPa | 2.5V | 07:56:07 | 02:55:13 | 00:00:00 | |
| BIOWL1-15 | 2026-09-02 13:13:11 | 50.91709 | 8.57880 | 111° | 68km/h | 6690m | -5.2m/s | -21.2°C | 84.2% | 442.5hPa | 2.5V | 07:56:14 | 02:55:13 | 00:00:00 | |
| HSKMA3-T | 2026-09-02 13:13:05 | 50.91722 | 8.57829 | 112° | 68km/h | 6701m | -5.8m/s | -21.3°C | 84.4% | 441.9hPa | 2.5V | 07:56:14 | 02:55:11 | 00:00:00 | |
| DO3DL | 2026-09-02 13:13:03 | 50.91729 | 8.57804 | 114° | 68km/h | 6706m | -5.4m/s | -21.3°C | 82.2% | 441.5hPa | 2.6V | 07:56:00 | 00:00:00 | 00:00:00 | |
| DL1NUX | 2026-09-02 13:13:02 | 50.91777 | 8.57624 | 113° | 69km/h | 6743m | -5.6m/s | -21.6°C | 86.9% | 439.2hPa | 2.6V | 07:56:17 | 02:55:03 | 00:00:00 | |
| BIOWL1-15 | 2026-09-02 13:12:57 | 50.91777 | 8.57624 | 114° | 69km/h | 6743m | -5.6m/s | -21.6°C | 85.8% | 439.2hPa | 2.6V | 07:57:05 | 02:55:03 | 00:00:00 | |
| HSKMA3-T | 2026-09-02 13:12:54 | 50.91799 | 8.57546 | 114° | 71km/h | 6760m | -5.5m/s | -21.7°C | 86.2% | 438.3hPa | 2.5V | 07:57:05 | 02:55:00 | 00:00:00 | |
| DM0DOS-11 | 2026-09-02 13:12:52 | 50.91828 | 8.57443 | 114° | 71km/h | 6781m | -5.4m/s | -21.9°C | 88.8% | 437hPa | 2.6V | 07:56:24 | 02:54:56 | 00:00:00 | |
| DL1NUX | 2026-09-02 13:12:52 | 50.91851 | 8.57364 | 115° | 73km/h | 6798m | -5.3m/s | -22.1°C | 89.8% | 436hPa | 2.5V | 07:56:27 | 02:54:53 | 00:00:00 | |
| BIOWL1-15 | 2026-09-02 13:12:47 | 50.91851 | 8.57364 | 115° | 73km/h | 6798m | -5.4m/s | -22.1°C | 88.1% | 436hPa | 2.5V | 07:57:05 | 02:54:53 | 00:00:00 | |
| HSKMA3-T | 2026-09-02 13:12:44 | 50.91874 | 8.57286 | 115° | 71km/h | 6814m | -5m/s | -22.3°C | 88.8% | 435hPa | 2.6V | 07:57:05 | 02:54:50 | 00:00:00 | |
| DL4BBY-15 | 2026-09-02 13:12:44 | 50.91874 | 8.57286 | 116° | 73km/h | 6814m | -5.0m/s | -21.9°C | 0% | 0hPa | 2.6V | 00:00:00 | 00:00:00 | 00:00:00 | |
| DM0DOS-11 | 2026-09-02 13:12:42 | 50.91906 | 8.57183 | 115° | 71km/h | 6836m | -5.3m/s | -22.4°C | 91.9% | 433.8hPa | 2.6V | 07:56:34 | 02:54:46 | 00:00:00 | |
| DL1NUX | 2026-09-02 13:12:42 | 50.91929 | 8.57106 | 115° | 71km/h | 6851m | -5.9m/s | -22.6°C | 92.7% | 432.9hPa | 2.5V | 07:56:37 | 02:54:43 | 00:00:00 | |
| BIOWL1-15 | 2026-09-02 13:12:36 | 50.91937 | 8.57080 | 116° | 71km/h | 6857m | -5.7m/s | -22.6°C | 91% | 432.5hPa | 2.5V | 07:57:05 | 02:54:42 | 00:00:00 | |
| HSKMA3-T | 2026-09-02 13:12:33 | 50.91961 | 8.57003 | 117° | 71km/h | 6873m | -5.7m/s | -22.8°C | 91.6% | 431.6hPa | 2.6V | 07:57:05 | 02:54:39 | 00:00:00 | |
| DM0DOS-11 | 2026-09-02 13:12:33 | 50.91986 | 8.56928 | 117° | 71km/h | 6890m | -5.9m/s | -22.9°C | 93.7% | 430.6hPa | 2.6V | 07:56:44 | 02:54:36 | 00:00:00 | |
| DF7PN | 2026-09-02 13:12:32 | 50.91978 | 8.56953 | 117° | 69km/h | 6884m | -5.4m/s | -22.9°C | 90.0% | 431.0hPa | 2.5V | 00:00:00 | 00:00:00 | 00:00:00 | |
| DO2KSM | 2026-09-02 13:12:30 | 50.91978 | 8.56953 | 119° | 71km/h | 6885m | -5.4m/s | -22.9°C | 90.0% | 431.0hPa | 2.5V | 07:57:00 | 00:00:00 | 00:00:00 | |
| DD1CC3-15 | 2026-09-02 13:12:29 | 50.91986 | 8.56928 | 118° | 71km/h | 6890m | -5.9m/s | -22.9°C | 90.0% | 430.6hPa | 2.5V | 07:57:00 | 00:00:00 | 00:00:00 | |
| DL8DAS-14 | 2026-09-02 13:12:27 | 50.92010 | 8.56852 | 116° | 69km/h | 6907m | -5.7m/s | -23.1°C | 90.9% | 429.6hPa | 2.5V | 00:00:00 | 00:00:00 | 00:00:00 | |
| DL8OAI-8 | 2026-09-02 13:12:26 | 50.92010 | 8.56852 | 118° | 71km/h | 6907m | -5.7m/s | -23.1°C | 90.9% | 429.6hPa | 2.5V | 07:57:00 | 00:00:00 | 00:00:00 | |
| DB0DAN | 2026-09-02 13:12:25 | 50.92027 | 8.56801 | 117° | 69km/h | 6918m | -5.2m/s | -23.1°C | 0% | 0hPa | 2.5V | 00:00:00 | 00:00:00 | 00:00:00 | |
| BIOWL1-15 | 2026-09-02 13:12:25 | 50.92027 | 8.56801 | 117° | 73km/h | 6918m | -5.2m/s | -23.1°C | 92.9% | 429hPa | 2.5V | 07:57:05 | 02:54:31 | 00:00:00 | |
| HSKMA3-T | 2026-09-02 13:12:22 | 50.92051 | 8.56721 | 115° | 75km/h | 6934m | -5.2m/s | -23.3°C | 93.6% | 428hPa | 2.6V | 07:57:05 | 02:54:28 | 00:00:00 | |
| DL1NUX | 2026-09-02 13:12:22 | 50.92091 | 8.56586 | 115° | 75km/h | 6960m | -5.3m/s | -23.5°C | 96.4% | 426.5hPa | 2.6V | 07:56:57 | 02:54:23 | 00:00:00 | |
| BIOWL1-15 | 2026-09-02 13:12:15 | 50.92107 | 8.56532 | 115° | 75km/h | 6971m | -5.6m/s | -23.6°C | 93.5% | 425.8hPa | 2.5V | 07:57:05 | 02:54:21 | 00:00:00 | |
| DB0UT-7 | 2026-09-02 13:12:15 | 50.92107 | 8.56532 | 115° | 75km/h | 6971m | -5.5m/s | -23.6°C | 96.2% | 425.8hPa | 2.5V | 00:00:00 | 00:00:00 | 00:00:00 | |
| DM0DOS-11 | 2026-09-02 13:12:12 | 50.92146 | 8.56396 | 114° | 75km/h | 6998m | -5.5m/s | -23.7°C | 93.7% | 424.3hPa | 2.5V | 07:57:04 | 02:54:16 | 00:00:00 | |
| HSKMA3-T | 2026-09-02 13:12:11 | 50.92138 | 8.56424 | 115° | 75km/h | 6993m | -5.3m/s | -23.7°C | 91.2% | 424.5hPa | 2.6V | 07:57:05 | 02:54:17 | 00:00:00 | |
| DL1NUX | 2026-09-02 13:12:11 | 50.92169 | 8.56314 | 114° | 77km/h | 7014m | -5.3m/s | -23.7°C | 93.4% | 423.3hPa | 2.6V | 07:57:07 | 02:54:13 | 00:00:00 | |
| DB0DAN | 2026-09-02 13:12:10 | 50.92146 | 8.56396 | 114° | 71km/h | 6998m | -5.5m/s | 0°C | 0% | 0hPa | 2.5V | 00:00:00 | 00:00:00 | 00:00:00 | |
| BIOWL1-15 | 2026-09-02 13:12:04 | 50.92192 | 8.56230 | 113° | 77km/h | 7031m | -5.5m/s | -23.9°C | 91.2% | 422.4hPa | 2.6V | 07:57:56 | 02:54:10 | 00:00:00 | |
| DM0DOS-11 | 2026-09-02 13:12:04 | 50.92222 | 8.56119 | 113° | 75km/h | 7052m | -5.4m/s | -24°C | 92.5% | 421.1hPa | 2.5V | 07:57:14 | 02:54:06 | 00:00:00 | |
| DJ2DS-15 | 2026-09-02 13:12:02 | 50.92207 | 8.56174 | 113° | 75km/h | 7041m | -5.5m/s | -23.9°C | 92.5% | 421.7hPa | 2.6V | 00:00:00 | 02:54:08 | 00:00:00 | |
| DL1NUX | 2026-09-02 13:12:01 | 50.92244 | 8.56036 | 111° | 73km/h | 7069m | -5.6m/s | -24.1°C | 91.2% | 420.2hPa | 2.6V | 07:57:17 | 02:54:03 | 00:00:00 | |
| HSKMA3-T | 2026-09-02 13:12:00 | 50.92222 | 8.56119 | 114° | 75km/h | 7052m | -5.4m/s | -24°C | 90.5% | 421.1hPa | 2.5V | 07:57:56 | 02:54:06 | 00:00:00 | |
| BIOWL1-15 | 2026-09-02 13:11:54 | 50.92301 | 8.55816 | 112° | 75km/h | 7112m | -5.4m/s | -24.3°C | 83.1% | 417.7hPa | 2.6V | 07:57:56 | 02:53:55 | 00:00:00 | |
| DB0ND-19 | 2026-09-02 13:11:53 | 50.92279 | 8.55898 | 112° | 75km/h | 7096m | -5.5m/s | -24.3°C | 83.1% | 418.6hPa | 2.5V | 00:00:00 | 00:00:00 | 00:00:00 | |
| DM0DOS-11 | 2026-09-02 13:11:52 | 50.92294 | 8.55844 | 112° | 75km/h | 7107m | -5.4m/s | -24.3°C | 84.4% | 417.9hPa | 2.5V | 07:57:24 | 02:53:56 | 00:00:00 | |
| SO1NDE-10 | 2026-09-02 13:11:52 | 50.92279 | 8.55898 | 113° | 75km/h | 7096m | -5.5m/s | -24.2°C | 86.8% | 418.6hPa | 2.6V | 00:00:00 | 02:53:58 | 00:00:00 | |
| DL1NUX | 2026-09-02 13:11:51 | 50.92315 | 8.55761 | 111° | 73km/h | 7123m | -5.4m/s | -24.4°C | 83.5% | 417.1hPa | 2.6V | 07:57:27 | 02:53:53 | 00:00:00 | |
| HSKMA3-T | 2026-09-02 13:11:50 | 50.92293 | 8.55844 | 113° | 75km/h | 7107m | -5.4m/s | -24.3°C | 83.6% | 417.9hPa | 2.5V | 07:57:56 | 02:53:56 | 00:00:00 | |
| DL3AQ-11 | 2026-09-02 13:11:50 | 50.92301 | 8.55816 | 111° | 73km/h | 7112m | -5.4m/s | -24.3°C | 80.2% | 417.7hPa | 2.5V | 00:00:00 | 00:00:00 | 00:00:00 | |
| DO2KSM | 2026-09-02 13:11:49 | 50.92293 | 8.55843 | 114° | 75km/h | 7107m | -5.4m/s | -24.3°C | 80.8% | 417.9hPa | 2.5V | 07:57:00 | 00:00:00 | 00:00:00 | |
| DD1CC3-15 | 2026-09-02 13:11:48 | 50.92301 | 8.55816 | 113° | 75km/h | 7112m | -5.4m/s | -24.3°C | 80.2% | 417.7hPa | 2.5V | 07:57:00 | 00:00:00 | 00:00:00 | |
| DB0NH | 2026-09-02 13:11:47 | 50.92315 | 8.55761 | 112° | 75km/h | 7123m | -5.4m/s | -24.3°C | 83.5% | 417.0hPa | 2.5V | 00:00:00 | 02:53:53 | 00:00:00 | |
| DB0UT-7 | 2026-09-02 13:11:45 | 50.92328 | 8.55706 | 112° | 75km/h | 7134m | -6.0m/s | -24.4°C | 83.1% | 416.4hPa | 2.5V | 00:00:00 | 02:53:51 | 00:00:00 | |
| DM0DOS-11 | 2026-09-02 13:11:44 | 50.92361 | 8.55570 | 111° | 73km/h | 7161m | -5.2m/s | -24.5°C | 80.2% | 414.8hPa | 2.5V | 07:57:34 | 02:53:46 | 00:00:00 | |
| DL4BBY-15 | 2026-09-02 13:11:44 | 50.92335 | 8.55679 | 112° | 75km/h | 7140m | -5.7m/s | -24.1°C | 0% | 0hPa | 2.6V | 00:00:00 | 00:00:00 | 00:00:00 | |
| DL1NUX | 2026-09-02 13:11:42 | 50.92382 | 8.55488 | 111° | 73km/h | 7178m | -5.9m/s | -24.6°C | 78.6% | 413.9hPa | 2.6V | 07:57:37 | 02:53:43 | 00:00:00 | |
| BIOWL1-15 | 2026-09-02 13:11:40 | 50.92361 | 8.55570 | 112° | 73km/h | 7161m | -5.2m/s | -24.5°C | 80.1% | 414.8hPa | 2.5V | 07:57:56 | 02:53:46 | 00:00:00 | |
| HSKMA3-T | 2026-09-02 13:11:37 | 50.92382 | 8.55488 | 112° | 73km/h | 7178m | -5.9m/s | -24.7°C | 78.5% | 413.9hPa | 2.6V | 07:57:56 | 02:53:43 | 00:00:00 | |
| DD1CC8 | 2026-09-02 13:11:36 | 50.92389 | 8.55460 | 112° | 73km/h | 7183m | -5.3m/s | -24.7°C | 73.7% | 413.6hPa | 2.5V | 00:00:00 | 00:00:00 | 00:00:00 | |
| DM0DOS-11 | 2026-09-02 13:11:33 | 50.92431 | 8.55295 | 111° | 75km/h | 7216m | -5.6m/s | -24.8°C | 73.4% | 411.8hPa | 2.5V | 07:57:44 | 02:53:36 | 00:00:00 | |
| DL1NUX | 2026-09-02 13:11:32 | 50.92452 | 8.55212 | 112° | 75km/h | 7232m | -5.6m/s | -24.9°C | 69% | 410.9hPa | 2.6V | 07:57:47 | 02:53:33 | 00:00:00 | |
| BIOWL1-15 | 2026-09-02 13:11:30 | 50.92460 | 8.55185 | 114° | 73km/h | 7237m | -5.3m/s | -24.9°C | 69.7% | 410.6hPa | 2.6V | 07:57:56 | 02:53:32 | 00:00:00 | |
| HSKMA3-T | 2026-09-02 13:11:27 | 50.92452 | 8.55212 | 113° | 75km/h | 7232m | -5.6m/s | -24.9°C | 70.1% | 410.9hPa | 2.6V | 07:57:56 | 02:53:33 | 00:00:00 | |
| NBG1-10 | 2026-09-02 13:11:26 | 50.92460 | 8.55185 | 114° | 77km/h | 7238m | -5.2m/s | -24.8°C | 68.5% | 410.6hPa | 2.6V | 00:00:00 | 02:53:32 | 00:00:00 | |
| DJ2KF-10 | 2026-09-02 13:11:25 | 50.92467 | 8.55158 | 114° | 77km/h | 7243m | -5.4m/s | -24.9°C | 68.5% | 410.2hPa | 2.6V | 00:00:00 | 02:53:31 | 00:00:00 | |
| DL1NUX | 2026-09-02 13:11:22 | 50.92531 | 8.54935 | 114° | 78km/h | 7287m | -5.6m/s | -25.3°C | 68.9% | 407.8hPa | 2.6V | 07:57:57 | 02:53:23 | 00:00:00 | |
| BIOWL1-15 | 2026-09-02 13:11:17 | 50.92531 | 8.54935 | 115° | 78km/h | 7287m | -5.6m/s | -25.3°C | 70.3% | 407.8hPa | 2.6V | 07:58:47 | 02:53:23 | 00:00:00 | |
| HSKMA3-T | 2026-09-02 13:11:16 | 50.92540 | 8.54907 | 115° | 77km/h | 7292m | -5.6m/s | -25.3°C | 70.5% | 407.5hPa | 2.6V | 07:58:47 | 02:53:22 | 00:00:00 | |
| DB0UT-7 | 2026-09-02 13:11:15 | 50.92548 | 8.54879 | 116° | 78km/h | 7298m | -5.5m/s | -25.3°C | 69.3% | 407.1hPa | 2.5V | 00:00:00 | 00:00:00 | 00:00:00 | |
| DD8BA-10 | 2026-09-02 13:11:14 | 50.92556 | 8.54851 | 116° | 91km/h | 7303m | -5.1m/s | -25.4°C | 69.6% | 406.9hPa | 2.5V | 00:00:00 | 00:00:00 | 00:00:00 | |
| DO9LL-15 | 2026-09-02 13:11:13 | 50.92565 | 8.54822 | 115° | 78km/h | 7308m | -5.4m/s | -25.4°C | 69.7% | 406.6hPa | 2.6V | 00:00:00 | 02:53:19 | 00:00:00 | |
| DL1NUX | 2026-09-02 13:11:12 | 50.92615 | 8.54654 | 114° | 77km/h | 7340m | -5.8m/s | -25.7°C | 70.4% | 404.8hPa | 2.6V | 07:58:07 | 02:53:13 | 00:00:00 | |
| BIOWL1-15 | 2026-09-02 13:11:06 | 50.92639 | 8.54570 | 114° | 78km/h | 7357m | -5.6m/s | -25.8°C | 69.8% | 403.8hPa | 2.5V | 07:58:47 | 02:53:10 | 00:00:00 | |
| HSKMA3-T | 2026-09-02 13:11:06 | 50.92623 | 8.54626 | 115° | 77km/h | 7346m | -5.7m/s | -25.8°C | 71.1% | 404.5hPa | 2.6V | 07:58:47 | 02:53:12 | 00:00:00 | |
| DM0DOS-11 | 2026-09-02 13:11:05 | 50.92671 | 8.54456 | 113° | 77km/h | 7379m | -5.4m/s | -25.9°C | 66% | 402.6hPa | 2.6V | 07:58:14 | 02:53:06 | 00:00:00 | |
| BIOWL1-15 | 2026-09-02 13:10:54 | 50.92719 | 8.54284 | 113° | 77km/h | 7411m | -5.7m/s | -26.2°C | 67.9% | 400.8hPa | 2.6V | 07:58:47 | 02:53:00 | 00:00:00 | |
| DM0DOS-11 | 2026-09-02 13:10:53 | 50.92750 | 8.54170 | 114° | 77km/h | 7433m | -5.5m/s | -26.4°C | 66.1% | 399.6hPa | 2.6V | 07:58:24 | 02:52:56 | 00:00:00 | |
| HSKMA3-T | 2026-09-02 13:10:52 | 50.92735 | 8.54227 | 113° | 77km/h | 7422m | -5.7m/s | -26.3°C | 67.8% | 400.2hPa | 2.5V | 07:58:47 | 02:52:58 | 00:00:00 | |
| DB0ND-19 | 2026-09-02 13:10:51 | 50.92750 | 8.54170 | 114° | 77km/h | 7433m | -5.5m/s | -26.4°C | 62.8% | 399.6hPa | 2.6V | 00:00:00 | 00:00:00 | 00:00:00 | |
| DL3AQ-11 | 2026-09-02 13:10:46 | 50.92784 | 8.54056 | 115° | 78km/h | 7456m | -5.6m/s | -26.6°C | 61.4% | 398.4hPa | 2.6V | 00:00:00 | 00:00:00 | 00:00:00 | |
| DM0DOS-11 | 2026-09-02 13:10:45 | 50.92836 | 8.53882 | 115° | 80km/h | 7488m | -5.7m/s | -26.9°C | 65.4% | 396.6hPa | 2.6V | 07:58:34 | 02:52:46 | 00:00:00 | |
| BIOWL1-15 | 2026-09-02 13:10:43 | 50.92810 | 8.53969 | 115° | 78km/h | 7472m | -5.2m/s | -26.7°C | 67.1% | 397.5hPa | 2.5V | 07:58:47 | 02:52:49 | 00:00:00 | |
| DO9LL-15 | 2026-09-02 13:10:43 | 50.92810 | 8.53969 | 116° | 84km/h | 7472m | -5.2m/s | -26.6°C | 65.1% | 397.4hPa | 2.5V | 00:00:00 | 02:52:49 | 00:00:00 | |
| DL1NUX | 2026-09-02 13:10:42 | 50.92861 | 8.53794 | 115° | 80km/h | 7505m | -5.6m/s | -26.9°C | 65.7% | 395.6hPa | 2.5V | 07:58:37 | 02:52:43 | 00:00:00 | |
| HSKMA3-T | 2026-09-02 13:10:41 | 50.92827 | 8.53911 | 115° | 80km/h | 7483m | -5.8m/s | -26.8°C | 67.5% | 396.9hPa | 2.6V | 07:58:47 | 02:52:47 | 00:00:00 | |
| BIOWL1-15 | 2026-09-02 13:10:32 | 50.92942 | 8.53529 | 116° | 84km/h | 7556m | -6m/s | -27.3°C | 69.8% | 392.8hPa | 2.6V | 07:58:47 | 02:52:34 | 00:00:00 | |
| DL1NUX | 2026-09-02 13:10:32 | 50.92952 | 8.53498 | 115° | 84km/h | 7562m | -5.7m/s | -27.4°C | 68.1% | 392.5hPa | 2.5V | 07:58:47 | 02:52:33 | 00:00:00 | |
| HSKMA3-T | 2026-09-02 13:10:31 | 50.92914 | 8.53618 | 116° | 82km/h | 7540m | -5.4m/s | -27.2°C | 68.8% | 393.8hPa | 2.5V | 07:58:47 | 02:52:37 | 00:00:00 | |
| DM0DOS-11 | 2026-09-02 13:10:31 | 50.92923 | 8.53588 | 116° | 84km/h | 7545m | -5.7m/s | -27.2°C | 67.5% | 393.4hPa | 2.6V | 07:58:44 | 02:52:36 | 00:00:00 | |
| DJ8HS-15 | 2026-09-02 13:10:29 | 50.92933 | 8.53558 | 117° | 88km/h | 7551m | -5.5m/s | -27.2°C | 67.7% | 393.0hPa | 2.5V | 00:00:00 | 02:52:35 | 00:00:00 | |
| BUE01 | 2026-09-02 13:10:27 | 50.92951 | 8.53498 | 115° | 82km/h | 7562m | -5.7m/s | -27.4°C | 64.7% | 392.5hPa | 2.5V | 00:00:00 | 00:00:00 | 00:00:00 | |
| DD1CC3-15 | 2026-09-02 13:10:26 | 50.92951 | 8.53498 | 117° | 84km/h | 7562m | -5.7m/s | -27.4°C | 64.7% | 392.5hPa | 2.5V | 07:58:00 | 00:00:00 | 00:00:00 | |
| DM0DOS-11 | 2026-09-02 13:10:25 | 50.93019 | 8.53287 | 116° | 86km/h | 7602m | -5.7m/s | -27.8°C | 70.2% | 390.4hPa | 2.5V | 07:58:54 | 02:52:26 | 00:00:00 | |
| DL8DAS-14 | 2026-09-02 13:10:23 | 50.92989 | 8.53378 | 116° | 84km/h | 7585m | -5.7m/s | -27.6°C | 65.7% | 391.3hPa | 2.6V | 00:00:00 | 00:00:00 | 00:00:00 | |
| DL1NUX | 2026-09-02 13:10:22 | 50.93049 | 8.53194 | 117° | 88km/h | 7618m | -5.6m/s | -27.9°C | 71.1% | 389.5hPa | 2.6V | 07:58:57 | 02:52:23 | 00:00:00 | |
| BIOWL1-15 | 2026-09-02 13:10:21 | 50.93029 | 8.53256 | 118° | 86km/h | 7607m | -5.9m/s | -27.8°C | 72% | 390hPa | 2.5V | 07:59:38 | 02:52:25 | 00:00:00 | |
| HSKMA3-T | 2026-09-02 13:10:20 | 50.93019 | 8.53287 | 117° | 86km/h | 7602m | -5.7m/s | -27.8°C | 71.7% | 390.4hPa | 2.5V | 08:00:29 | 02:52:26 | 00:00:00 | |
| DB0ND-19 | 2026-09-02 13:10:20 | 50.93029 | 8.53256 | 117° | 86km/h | 7607m | -5.9m/s | -27.8°C | 67.0% | 390.0hPa | 2.5V | 00:00:00 | 00:00:00 | 00:00:00 | |
| DL8DAS-15 | 2026-09-02 13:10:18 | 50.93029 | 8.53256 | 119° | 86km/h | 7608m | -5.9m/s | -27.8°C | 67.0% | 390.0hPa | 2.5V | 00:00:00 | 00:00:00 | 00:00:00 | |
| DB0NH | 2026-09-02 13:10:17 | 50.93049 | 8.53194 | 118° | 89km/h | 7619m | -5.6m/s | -27.9°C | 71.1% | 389.4hPa | 2.5V | 00:00:00 | 02:52:23 | 00:00:00 | |
| DL1CLM-18 | 2026-09-02 13:10:16 | 50.93049 | 8.53194 | 118° | 88km/h | 7619m | -5.6m/s | -27.9°C | 67.5% | 389.5hPa | 2.5V | 00:00:00 | 00:00:00 | 00:00:00 | |
| DO3DL | 2026-09-02 13:10:15 | 50.93069 | 8.53132 | 118° | 88km/h | 7630m | -5.9m/s | -28.0°C | 67.8% | 388.8hPa | 2.5V | 07:59:00 | 00:00:00 | 00:00:00 | |
| DL4BBY-15 | 2026-09-02 13:10:14 | 50.93079 | 8.53101 | 118° | 89km/h | 7636m | -5.8m/s | -27.7°C | 0% | 0hPa | 2.5V | 00:00:00 | 00:00:00 | 00:00:00 | |
| DL1NUX | 2026-09-02 13:10:12 | 50.93153 | 8.52885 | 119° | 89km/h | 7677m | -5.8m/s | -28.4°C | 73% | 386.3hPa | 2.5V | 07:59:07 | 02:52:13 | 00:00:00 | |
| DO9LL-15 | 2026-09-02 13:10:12 | 50.93099 | 8.53040 | 118° | 89km/h | 7647m | -6.1m/s | -28.1°C | 72.2% | 387.9hPa | 2.6V | 00:00:00 | 02:52:18 | 00:00:00 | |
| DM0DOS-11 | 2026-09-02 13:10:11 | 50.93120 | 8.52978 | 118° | 88km/h | 7660m | -6.2m/s | -28.3°C | 72.7% | 387.2hPa | 2.6V | 07:59:04 | 02:52:16 | 00:00:00 | |
| BIOWL1-15 | 2026-09-02 13:10:10 | 50.93120 | 8.52978 | 119° | 88km/h | 7660m | -6.2m/s | -28.3°C | 74.3% | 387.2hPa | 2.6V | 07:59:38 | 02:52:16 | 00:00:00 | |
| DJ2DS-15 | 2026-09-02 13:10:08 | 50.93153 | 8.52885 | 119° | 88km/h | 7677m | -5.8m/s | -28.4°C | 69.3% | 386.3hPa | 2.6V | 00:00:00 | 00:00:00 | 00:00:00 | |
| DM0DOS-11 | 2026-09-02 13:10:05 | 50.93233 | 8.52665 | 119° | 91km/h | 7717m | -5.5m/s | -28.7°C | 74.7% | 384.1hPa | 2.6V | 07:59:14 | 02:52:06 | 00:00:00 | |
| SONCRA | 2026-09-02 13:10:04 | 50.93187 | 8.52791 | 120° | 89km/h | 7694m | -5.7m/s | -28.5°C | 69.8% | 385.4hPa | 2.5V | 00:00:00 | 00:00:00 | 00:00:00 | |
| DD1CC8 | 2026-09-02 13:10:03 | 50.93199 | 8.52760 | 120° | 89km/h | 7700m | -5.9m/s | -28.6°C | 70.0% | 385.1hPa | 2.5V | 00:00:00 | 00:00:00 | 00:00:00 | |
| DL1NUX | 2026-09-02 13:10:02 | 50.93267 | 8.52571 | 120° | 89km/h | 7734m | -5.4m/s | -28.9°C | 75% | 383.2hPa | 2.5V | 07:59:17 | 02:52:03 | 00:00:00 | |
| HSKMA3-T | 2026-09-02 13:10:00 | 50.93233 | 8.52665 | 120° | 91km/h | 7717m | -5.5m/s | -28.7°C | 75.7% | 384.1hPa | 2.6V | 08:00:29 | 02:52:06 | 00:00:00 | |
| BIOWL1-15 | 2026-09-02 13:10:00 | 50.93256 | 8.52603 | 119° | 89km/h | 7729m | -5.8m/s | -28.9°C | 75.8% | 383.6hPa | 2.6V | 07:59:38 | 02:52:04 | 00:00:00 | |
| DF7PN | 2026-09-02 13:09:56 | 50.93289 | 8.52509 | 118° | 89km/h | 7745m | -5.8m/s | -28.9°C | 70.4% | 382.6hPa | 2.6V | 00:00:00 | 00:00:00 | 00:00:00 | |
| DJ2KF-10 | 2026-09-02 13:09:55 | 50.93289 | 8.52509 | 119° | 89km/h | 7746m | -5.7m/s | -28.9°C | 74.3% | 382.5hPa | 2.6V | 00:00:00 | 02:52:01 | 00:00:00 | |
| DJ8HS-15 | 2026-09-02 13:09:53 | 50.93311 | 8.52447 | 119° | 89km/h | 7757m | -5.9m/s | -29.0°C | 73.3% | 381.9hPa | 2.6V | 00:00:00 | 02:51:59 | 00:00:00 | |
| DL1NUX | 2026-09-02 13:09:52 | 50.93379 | 8.52258 | 119° | 88km/h | 7793m | -6.1m/s | -29.2°C | 68.1% | 380.2hPa | 2.6V | 07:59:27 | 02:51:53 | 00:00:00 | |
| DM0DOS-11 | 2026-09-02 13:09:51 | 50.93345 | 8.52352 | 120° | 91km/h | 7775m | -5.6m/s | -29.1°C | 69.5% | 381.1hPa | 2.5V | 07:59:24 | 02:51:56 | 00:00:00 | |
| DL1XH-west | 2026-09-02 13:09:50 | 50.93345 | 8.52352 | 120° | 91km/h | 7775m | -5.6m/s | -29.1°C | 71.5% | 381.1hPa | 2.5V | 08:00:29 | 02:51:56 | 00:00:00 | |
| BIOWL1-15 | 2026-09-02 13:09:49 | 50.93379 | 8.52258 | 119° | 88km/h | 7793m | -6.1m/s | -29.2°C | 70.7% | 380.2hPa | 2.6V | 07:59:38 | 02:51:53 | 00:00:00 | |
| DB0ND-19 | 2026-09-02 13:09:49 | 50.93368 | 8.52289 | 119° | 89km/h | 7786m | -6.4m/s | -29.1°C | 63.9% | 380.5hPa | 2.6V | 00:00:00 | 00:00:00 | 00:00:00 | |
| DB0NH | 2026-09-02 13:09:47 | 50.93379 | 8.52258 | 120° | 89km/h | 7793m | -6.1m/s | -29.1°C | 68.1% | 380.1hPa | 2.6V | 00:00:00 | 02:51:53 | 00:00:00 | |
| DM0DOS-11 | 2026-09-02 13:09:45 | 50.93455 | 8.52038 | 118° | 91km/h | 7834m | -5.7m/s | -29.5°C | 70.7% | 377.9hPa | 2.6V | 07:59:34 | 02:51:46 | 00:00:00 | |
| DB0UT-7 | 2026-09-02 13:09:45 | 50.93400 | 8.52195 | 119° | 89km/h | 7804m | -5.8m/s | -29.2°C | 69.2% | 379.4hPa | 2.5V | 00:00:00 | 02:51:51 | 00:00:00 | |
| DL4BBY-15 | 2026-09-02 13:09:44 | 50.93411 | 8.52164 | 119° | 89km/h | 7810m | -5.7m/s | -29.0°C | 0% | 0hPa | 2.5V | 00:00:00 | 00:00:00 | 00:00:00 | |
| DL1NUX | 2026-09-02 13:09:42 | 50.93488 | 8.51942 | 117° | 91km/h | 7851m | -6.4m/s | -29.7°C | 70.8% | 377hPa | 2.5V | 07:59:37 | 02:51:43 | 00:00:00 | |
| DL1XH-west | 2026-09-02 13:09:40 | 50.93455 | 8.52038 | 119° | 91km/h | 7834m | -5.7m/s | -29.5°C | 72.7% | 377.9hPa | 2.6V | 08:00:29 | 02:51:46 | 00:00:00 | |
| BIOWL1-15 | 2026-09-02 13:09:38 | 50.93499 | 8.51910 | 118° | 91km/h | 7857m | -5.7m/s | -29.8°C | 72.7% | 376.7hPa | 2.6V | 07:59:38 | 02:51:42 | 00:00:00 | |
| HSKMA3-T | 2026-09-02 13:09:37 | 50.93488 | 8.51942 | 118° | 91km/h | 7851m | -6.4m/s | -29.7°C | 72.8% | 377hPa | 2.5V | 08:00:29 | 02:51:43 | 00:00:00 | |
| DO3DL | 2026-09-02 13:09:36 | 50.93488 | 8.51942 | 119° | 91km/h | 7851m | -6.4m/s | -29.7°C | 67.0% | 377.0hPa | 2.5V | 07:59:00 | 00:00:00 | 00:00:00 | |
| AU51GT2 | 2026-09-02 13:09:34 | 50.93520 | 8.51846 | 118° | 89km/h | 7868m | -6.1m/s | -29.9°C | 66.6% | 376.0hPa | 2.5V | 00:00:00 | 00:00:00 | 00:00:00 | |
| DJ8HS-15 | 2026-09-02 13:09:33 | 50.93531 | 8.51814 | 118° | 89km/h | 7875m | -5.6m/s | -29.9°C | 69.8% | 375.7hPa | 2.5V | 00:00:00 | 02:51:39 | 00:00:00 | |
| DL1NUX | 2026-09-02 13:09:32 | 50.93594 | 8.51623 | 117° | 89km/h | 7910m | -6.1m/s | -30.2°C | 65.3% | 373.9hPa | 2.5V | 07:59:47 | 02:51:33 | 00:00:00 | |
| DM0DOS-11 | 2026-09-02 13:09:31 | 50.93563 | 8.51718 | 117° | 89km/h | 7892m | -5.8m/s | -30.1°C | 68% | 374.9hPa | 2.6V | 07:59:44 | 02:51:36 | 00:00:00 | |
| BIOWL1-15 | 2026-09-02 13:09:26 | 50.93604 | 8.51591 | 117° | 89km/h | 7916m | -6.4m/s | -30.3°C | 67.2% | 373.6hPa | 2.5V | 08:00:29 | 02:51:32 | 00:00:00 | |
| DD1CC3-15 | 2026-09-02 13:09:26 | 50.93604 | 8.51591 | 118° | 89km/h | 7916m | -6.4m/s | -30.3°C | 61.2% | 373.6hPa | 2.5V | 08:00:00 | 00:00:00 | 00:00:00 | |
| DM0DOS-11 | 2026-09-02 13:09:25 | 50.93665 | 8.51398 | 116° | 91km/h | 7951m | -6.1m/s | -30.6°C | 63.6% | 371.7hPa | 2.5V | 07:59:54 | 02:51:26 | 00:00:00 | |
| DO2KSM | 2026-09-02 13:09:25 | 50.93614 | 8.51559 | 118° | 89km/h | 7922m | -6.2m/s | -30.3°C | 61.1% | 373.2hPa | 2.6V | 08:00:00 | 00:00:00 | 00:00:00 | |
| BIOWL9-15 | 2026-09-02 13:09:24 | 50.93624 | 8.51527 | 116° | 89km/h | 7928m | -5.9m/s | -30.4°C | 61.0% | 373.0hPa | 2.6V | 00:00:00 | 00:00:00 | 00:00:00 | |
| DO3DL | 2026-09-02 13:09:23 | 50.93624 | 8.51527 | 117° | 89km/h | 7928m | -5.9m/s | -30.4°C | 61.0% | 373.0hPa | 2.6V | 08:00:00 | 00:00:00 | 00:00:00 | |
| DL1NUX | 2026-09-02 13:09:22 | 50.93695 | 8.51300 | 115° | 91km/h | 7969m | -6m/s | -30.7°C | 62.1% | 370.8hPa | 2.6V | 07:59:57 | 02:51:23 | 00:00:00 | |
| DL1XH-west | 2026-09-02 13:09:19 | 50.93675 | 8.51365 | 116° | 91km/h | 7957m | -5.9m/s | -30.6°C | 65.7% | 371.4hPa | 2.5V | 08:00:29 | 02:51:25 | 00:00:00 | |
| BIOWL1-15 | 2026-09-02 13:09:16 | 50.93705 | 8.51267 | 116° | 89km/h | 7975m | -5.9m/s | -30.8°C | 64.3% | 370.5hPa | 2.6V | 08:00:29 | 02:51:22 | 00:00:00 | |
| DB0UT-7 | 2026-09-02 13:09:15 | 50.93714 | 8.51234 | 116° | 93km/h | 7981m | -5.8m/s | -30.8°C | 61.4% | 370.1hPa | 2.5V | 00:00:00 | 00:00:00 | 00:00:00 | |
| NBG1-10 | 2026-09-02 13:09:14 | 50.93724 | 8.51201 | 115° | 93km/h | 7987m | -6.2m/s | -30.8°C | 60.4% | 369.8hPa | 2.5V | 00:00:00 | 02:51:20 | 00:00:00 | |
| DL1NUX | 2026-09-02 13:09:12 | 50.93791 | 8.50969 | 114° | 91km/h | 8028m | -6.2m/s | -31.2°C | 58% | 367.8hPa | 2.5V | 08:00:07 | 02:51:13 | 00:00:00 | |
| DM0DOS-11 | 2026-09-02 13:09:11 | 50.93763 | 8.51069 | 114° | 91km/h | 8010m | -5.9m/s | -31°C | 58.4% | 368.6hPa | 2.6V | 08:00:04 | 02:51:16 | 00:00:00 | |
| DB0DAN | 2026-09-02 13:09:10 | 50.93763 | 8.51069 | 114° | 88km/h | 8010m | -5.9m/s | -31°C | 54.8% | 368.64hPa | 2.6V | 00:00:00 | 00:00:00 | 00:00:00 | |
| DL1XH-west | 2026-09-02 13:09:09 | 50.93772 | 8.51036 | 114° | 91km/h | 8016m | -5.8m/s | -31.1°C | 60.9% | 368.3hPa | 2.5V | 08:00:29 | 02:51:15 | 00:00:00 | |
| HSKMA3-T | 2026-09-02 13:09:06 | 50.93801 | 8.50935 | 114° | 93km/h | 8035m | -6.1m/s | -31.2°C | 60.8% | 367.5hPa | 2.6V | 08:00:29 | 02:51:12 | 00:00:00 | |
| BIOWL1-15 | 2026-09-02 13:09:05 | 50.93831 | 8.50834 | 115° | 93km/h | 8052m | -5.8m/s | -31.4°C | 61.6% | 366.5hPa | 2.5V | 08:00:29 | 02:51:09 | 00:00:00 | |
| DM0DOS-11 | 2026-09-02 13:09:05 | 50.93860 | 8.50733 | 115° | 93km/h | 8070m | -6m/s | -31.5°C | 60.2% | 365.6hPa | 2.6V | 08:00:14 | 02:51:06 | 00:00:00 | |
| DD1CC3-15 | 2026-09-02 13:09:04 | 50.93810 | 8.50901 | 116° | 93km/h | 8041m | -6.0m/s | -31.3°C | 54.8% | 367.1hPa | 2.5V | 08:00:00 | 00:00:00 | 00:00:00 | |
| AU51GT2 | 2026-09-02 13:09:03 | 50.93831 | 8.50834 | 115° | 91km/h | 8052m | -5.8m/s | -31.4°C | 55.3% | 366.5hPa | 2.5V | 00:00:00 | 00:00:00 | 00:00:00 | |
| DL1NUX | 2026-09-02 13:09:02 | 50.93890 | 8.50630 | 114° | 95km/h | 8088m | -6.3m/s | -31.7°C | 61.1% | 364.6hPa | 2.5V | 08:00:17 | 02:51:03 | 00:00:00 | |
| DL1XH-west | 2026-09-02 13:08:57 | 50.93890 | 8.50630 | 114° | 95km/h | 8088m | -6.3m/s | -31.7°C | 63.5% | 364.6hPa | 2.5V | 08:00:29 | 02:51:03 | 00:00:00 | |
| HSKMA3-T | 2026-09-02 13:08:55 | 50.93910 | 8.50562 | 115° | 93km/h | 8100m | -6.4m/s | -31.7°C | 63.6% | 364hPa | 2.6V | 08:00:29 | 02:51:01 | 00:00:00 | |
| DF7PN | 2026-09-02 13:08:54 | 50.93930 | 8.50495 | 115° | 91km/h | 8112m | -5.9m/s | -31.8°C | 56.6% | 363.4hPa | 2.6V | 00:00:00 | 00:00:00 | 00:00:00 | |
| WPPR-10 | 2026-09-02 13:08:53 | 50.93930 | 8.50495 | 115° | 91km/h | 8112m | -5.9m/s | -31.8°C | 56.6% | 363.4hPa | 2.6V | 00:00:00 | 00:00:00 | 00:00:00 | |
| DL1NUX | 2026-09-02 13:08:52 | 50.93990 | 8.50294 | 114° | 93km/h | 8149m | -6.2m/s | -32.1°C | 61.1% | 361.5hPa | 2.6V | 08:00:27 | 02:50:53 | 00:00:00 | |
| BIOWL1-15 | 2026-09-02 13:08:52 | 50.93959 | 8.50395 | 115° | 93km/h | 8130m | -6.3m/s | -32°C | 63.2% | 362.4hPa | 2.5V | 08:00:29 | 02:50:56 | 00:00:00 | |
| DM0DOS-11 | 2026-09-02 13:08:51 | 50.93959 | 8.50395 | 115° | 93km/h | 8130m | -6.3m/s | -32°C | 60.8% | 362.4hPa | 2.5V | 08:00:24 | 02:50:56 | 00:00:00 | |
| DL1XH-west | 2026-09-02 13:08:46 | 50.93999 | 8.50259 | 114° | 97km/h | 8154m | -6.1m/s | -32.2°C | 62.8% | 361.2hPa | 2.6V | 08:00:29 | 02:50:52 | 00:00:00 | |
| DL3AQ-11 | 2026-09-02 13:08:46 | 50.94009 | 8.50225 | 114° | 95km/h | 8160m | -6.1m/s | -32.2°C | 56.1% | 360.9hPa | 2.6V | 00:00:00 | 00:00:00 | 00:00:00 | |
| DM0DOS-11 | 2026-09-02 13:08:45 | 50.94059 | 8.50049 | 114° | 97km/h | 8191m | -6.1m/s | -32.4°C | 59.1% | 359.4hPa | 2.6V | 08:00:34 | 02:50:46 | 00:00:00 | |
| HSKMA3-T | 2026-09-02 13:08:45 | 50.94009 | 8.50225 | 114° | 95km/h | 8160m | -6.1m/s | -32.2°C | 62.3% | 360.9hPa | 2.6V | 08:00:29 | 02:50:51 | 00:00:00 | |
| BIOWL1-15 | 2026-09-02 13:08:42 | 50.94039 | 8.50119 | 114° | 97km/h | 8179m | -6.2m/s | -32.3°C | 61.7% | 360hPa | 2.5V | 08:01:20 | 02:50:48 | 00:00:00 | |
| DL1XH-west | 2026-09-02 13:08:36 | 50.94099 | 8.49910 | 115° | 97km/h | 8215m | -6m/s | -32.7°C | 61.3% | 358.1hPa | 2.5V | 08:01:20 | 02:50:42 | 00:00:00 | |
| HSKMA3-T | 2026-09-02 13:08:32 | 50.94140 | 8.49769 | 115° | 99km/h | 8239m | -6.3m/s | -32.8°C | 57.3% | 356.9hPa | 2.5V | 08:02:11 | 02:50:38 | 00:00:00 | |
| DL1NUX | 2026-09-02 13:08:32 | 50.94192 | 8.49591 | 115° | 97km/h | 8269m | -5.8m/s | -33°C | 55.4% | 355.3hPa | 2.5V | 08:00:47 | 02:50:33 | 00:00:00 | |
| BIOWL1-15 | 2026-09-02 13:08:32 | 50.94171 | 8.49662 | 115° | 97km/h | 8257m | -6.2m/s | -32.9°C | 57.5% | 355.9hPa | 2.6V | 08:01:20 | 02:50:35 | 00:00:00 | |
| DL1XH-west | 2026-09-02 13:08:25 | 50.94213 | 8.49521 | 116° | 97km/h | 8281m | -6.4m/s | -33.1°C | 59.1% | 354.7hPa | 2.6V | 08:01:20 | 02:50:31 | 00:00:00 | |
| DL1XH1-15 | 2026-09-02 13:08:25 | 50.94246 | 8.49417 | 117° | 95km/h | 8299m | -6m/s | -33.2°C | 57.5% | 353.9hPa | 2.5V | 08:00:52 | 02:50:28 | 00:00:00 | |
| DM0DOS-11 | 2026-09-02 13:08:25 | 50.94268 | 8.49349 | 116° | 95km/h | 8311m | -6.1m/s | -33.4°C | 58.5% | 353.2hPa | 2.6V | 08:00:54 | 02:50:26 | 00:00:00 | |
| BUE01 | 2026-09-02 13:08:23 | 50.94235 | 8.49452 | 116° | 97km/h | 8293m | -6.1m/s | -33.2°C | 53.3% | 354.1hPa | 2.5V | 00:00:00 | 00:00:00 | 00:00:00 | |
| DL1NUX | 2026-09-02 13:08:22 | 50.94302 | 8.49244 | 116° | 99km/h | 8330m | -6.4m/s | -33.5°C | 59.2% | 352.3hPa | 2.5V | 08:00:57 | 02:50:23 | 00:00:00 | |
| HSKMA3-T | 2026-09-02 13:08:21 | 50.94257 | 8.49383 | 117° | 97km/h | 8305m | -6.2m/s | -33.3°C | 60.8% | 353.5hPa | 2.5V | 08:02:11 | 02:50:27 | 00:00:00 | |
| DL1XH-west | 2026-09-02 13:08:15 | 50.94335 | 8.49139 | 118° | 99km/h | 8348m | -5.9m/s | -33.7°C | 62.6% | 351.4hPa | 2.6V | 08:01:20 | 02:50:20 | 00:00:00 | |
| DL4BBY-15 | 2026-09-02 13:08:14 | 50.94336 | 8.49139 | 118° | 99km/h | 8349m | -5.8m/s | -33.4°C | 0% | 0hPa | 2.5V | 00:00:00 | 00:00:00 | 00:00:00 | |
| DM0DOS-11 | 2026-09-02 13:08:13 | 50.94381 | 8.49001 | 118° | 97km/h | 8373m | -6m/s | -33.9°C | 61.2% | 350.1hPa | 2.5V | 08:01:04 | 02:50:16 | 00:00:00 | |
| DL1NUX | 2026-09-02 13:08:12 | 50.94416 | 8.48898 | 118° | 97km/h | 8392m | -6.6m/s | -34.1°C | 62.1% | 349.2hPa | 2.6V | 08:01:07 | 02:50:13 | 00:00:00 | |
| DB0DAN | 2026-09-02 13:08:10 | 50.94381 | 8.49001 | 118° | 93km/h | 8373m | -6m/s | -33.9°C | 57.2% | 350.15hPa | 2.5V | 00:00:00 | 00:00:00 | 00:00:00 | |
| BIOWL1-15 | 2026-09-02 13:08:10 | 50.94513 | 8.48623 | 120° | 99km/h | 8441m | -6m/s | -34.6°C | 65.6% | 346.8hPa | 2.5V | 08:01:20 | 02:50:05 | 00:00:00 | |
| HSKMA3-T | 2026-09-02 13:08:03 | 50.94476 | 8.48726 | 119° | 97km/h | 8423m | -6.4m/s | -34.4°C | 65.3% | 347.6hPa | 2.6V | 08:02:11 | 02:50:08 | 00:00:00 | |
| DO2KSM | 2026-09-02 13:08:03 | 50.94464 | 8.48760 | 120° | 99km/h | 8417m | -5.8m/s | -34.3°C | 58.7% | 348.0hPa | 2.5V | 08:01:00 | 00:00:00 | 00:00:00 | |
| BIOWL1-15 | 2026-09-02 13:08:02 | 50.94525 | 8.48589 | 119° | 99km/h | 8447m | -6.3m/s | -34.6°C | 65.6% | 346.4hPa | 2.5V | 08:01:20 | 02:50:04 | 00:00:00 | |
| DJ2DS-15 | 2026-09-02 13:08:02 | 50.94476 | 8.48726 | 120° | 100km/h | 8423m | -6.4m/s | -34.3°C | 63.2% | 347.6hPa | 2.5V | 00:00:00 | 02:50:08 | 00:00:00 | |
| DL1XH1-15 | 2026-09-02 13:08:01 | 50.94525 | 8.48589 | 119° | 99km/h | 8447m | -6.3m/s | -34.6°C | 63.6% | 346.4hPa | 2.5V | 08:01:16 | 02:50:04 | 00:00:00 | |
| DM0DOS-11 | 2026-09-02 13:08:01 | 50.94500 | 8.48657 | 119° | 99km/h | 8435m | -6.5m/s | -34.5°C | 63.4% | 347hPa | 2.5V | 08:01:14 | 02:50:06 | 00:00:00 | |
| SONCRA | 2026-09-02 13:08:00 | 50.94500 | 8.48657 | 119° | 97km/h | 8435m | -6.5m/s | -34.5°C | 59.2% | 347.0hPa | 2.6V | 00:00:00 | 00:00:00 | 00:00:00 | |
| DD1CC8 | 2026-09-02 13:07:59 | 50.94513 | 8.48623 | 120° | 97km/h | 8441m | -6.0m/s | -34.6°C | 59.3% | 346.8hPa | 2.6V | 00:00:00 | 00:00:00 | 00:00:00 | |
| DK9SH | 2026-09-02 13:07:57 | 50.94525 | 8.48589 | 120° | 99km/h | 8447m | -6.3m/s | -34.6°C | 59.4% | 346.5hPa | 2.6V | 08:01:00 | 00:00:00 | 00:00:00 | |
| DB0DAN | 2026-09-02 13:07:55 | 50.94561 | 8.48487 | 120° | 93km/h | 8466m | -6.3m/s | -34.8°C | 59.4% | 345.49hPa | 2.6V | 00:00:00 | 00:00:00 | 00:00:00 | |
| DM0DOS-11 | 2026-09-02 13:07:55 | 50.94625 | 8.48316 | 120° | 100km/h | 8497m | -6.5m/s | -34.9°C | 61.4% | 344hPa | 2.6V | 08:01:24 | 02:49:56 | 00:00:00 | |
| DL1XH-west | 2026-09-02 13:07:52 | 50.94599 | 8.48385 | 120° | 99km/h | 8484m | -6.1m/s | -34.9°C | 64.6% | 344.5hPa | 2.5V | 08:02:11 | 02:49:58 | 00:00:00 | |
| SO1NDE-10 | 2026-09-02 13:07:52 | 50.94599 | 8.48385 | 121° | 102km/h | 8484m | -6.1m/s | -34.8°C | 62.8% | 344.5hPa | 2.6V | 00:00:00 | 02:49:58 | 00:00:00 | |
| DL1XH1-15 | 2026-09-02 13:07:51 | 50.94663 | 8.48209 | 119° | 100km/h | 8515m | -6.2m/s | -35.1°C | 61.4% | 343hPa | 2.6V | 08:01:27 | 02:49:53 | 00:00:00 | |
| BIOWL1-15 | 2026-09-02 13:07:48 | 50.94650 | 8.48245 | 120° | 102km/h | 8509m | -5.9m/s | -35°C | 63.4% | 343.4hPa | 2.5V | 08:02:11 | 02:49:54 | 00:00:00 | |
| DB0NH | 2026-09-02 13:07:47 | 50.94663 | 8.48209 | 120° | 102km/h | 8515m | -6.2m/s | -35.0°C | 61.4% | 343.0hPa | 2.6V | 08:01:00 | 02:49:53 | 00:00:00 | |
| DB0UT-7 | 2026-09-02 13:07:45 | 50.94688 | 8.48139 | 121° | 104km/h | 8527m | -6.4m/s | -35.2°C | 61.4% | 342.4hPa | 2.6V | 00:00:00 | 02:49:51 | 00:00:00 | |
| DL4BBY-15 | 2026-09-02 13:07:44 | 50.94701 | 8.48103 | 121° | 104km/h | 8533m | -6.0m/s | -34.9°C | 0% | 0hPa | 2.6V | 00:00:00 | 00:00:00 | 00:00:00 | |
| DM0DOS-11 | 2026-09-02 13:07:43 | 50.94753 | 8.47963 | 120° | 102km/h | 8558m | -6.2m/s | -35.5°C | 59.5% | 340.9hPa | 2.6V | 08:01:34 | 02:49:46 | 00:00:00 | |
| DL1XH-west | 2026-09-02 13:07:41 | 50.94740 | 8.47999 | 121° | 100km/h | 8552m | -6.2m/s | -35.4°C | 62.1% | 341.2hPa | 2.6V | 08:02:11 | 02:49:47 | 00:00:00 | |
| DL1XH1-15 | 2026-09-02 13:07:41 | 50.94792 | 8.47857 | 120° | 104km/h | 8576m | -6.1m/s | -35.6°C | 56.7% | 340hPa | 2.5V | 08:01:37 | 02:49:43 | 00:00:00 | |
| DB0DAN | 2026-09-02 13:07:40 | 50.94753 | 8.47963 | 120° | 97km/h | 8558m | -6.2m/s | -35.5°C | 55.3% | 340.88hPa | 2.6V | 00:00:00 | 00:00:00 | 00:00:00 | |
| HSKMA3-T | 2026-09-02 13:07:38 | 50.94779 | 8.47893 | 120° | 102km/h | 8570m | -6.4m/s | -35.5°C | 59.7% | 340.3hPa | 2.5V | 08:02:11 | 02:49:44 | 00:00:00 | |
| BIOWL1-15 | 2026-09-02 13:07:37 | 50.94792 | 8.47857 | 121° | 104km/h | 8576m | -6.1m/s | -35.6°C | 58.8% | 340hPa | 2.5V | 08:02:11 | 02:49:43 | 00:00:00 | |
| DL3AQ-11 | 2026-09-02 13:07:37 | 50.94792 | 8.47857 | 120° | 102km/h | 8576m | -6.1m/s | -35.6°C | 52.6% | 340.0hPa | 2.6V | 00:00:00 | 00:00:00 | 00:00:00 | |
| DL9SK-14 | 2026-09-02 13:07:36 | 50.94818 | 8.47786 | 119° | 102km/h | 8589m | -6.3m/s | -35.6°C | 50.5% | 339.3hPa | 2.6V | 00:00:00 | 00:00:00 | 00:00:00 | |
| NBG1-10 | 2026-09-02 13:07:35 | 50.94818 | 8.47786 | 120° | 104km/h | 8589m | -6.2m/s | -35.6°C | 54.5% | 339.3hPa | 2.6V | 08:01:00 | 02:49:41 | 00:00:00 | |
| DL3OBA | 2026-09-02 13:07:33 | 50.94831 | 8.47750 | 121° | 104km/h | 8595m | -6.5m/s | -35.7°C | 49.9% | 339.1hPa | 2.5V | 00:00:00 | 00:00:00 | 00:00:00 | |
| DL1NUX | 2026-09-02 13:07:32 | 50.94923 | 8.47497 | 120° | 104km/h | 8639m | -6.3m/s | -36°C | 50.5% | 336.9hPa | 2.5V | 08:01:47 | 02:49:33 | 00:00:00 | |
| DM0DOS-11 | 2026-09-02 13:07:31 | 50.94884 | 8.47605 | 120° | 104km/h | 8620m | -6.2m/s | -35.8°C | 51% | 337.8hPa | 2.6V | 08:01:44 | 02:49:36 | 00:00:00 | |
| DL1XH-west | 2026-09-02 13:07:30 | 50.94884 | 8.47605 | 120° | 104km/h | 8620m | -6.2m/s | -35.8°C | 53.7% | 337.9hPa | 2.6V | 08:02:11 | 02:49:36 | 00:00:00 | |
| BIOWL1-15 | 2026-09-02 13:07:30 | 50.94937 | 8.47461 | 120° | 106km/h | 8645m | -6.5m/s | -36°C | 53.7% | 336.7hPa | 2.5V | 08:02:11 | 02:49:32 | 00:00:00 | |
| HSKMA3-T | 2026-09-02 13:07:27 | 50.94923 | 8.47497 | 120° | 104km/h | 8639m | -6.3m/s | -36°C | 53.3% | 336.9hPa | 2.5V | 08:02:11 | 02:49:33 | 00:00:00 | |
| DB0DAN | 2026-09-02 13:07:25 | 50.94950 | 8.47425 | 121° | 99km/h | 8651m | -6.4m/s | -36.1°C | 47.7% | 336.29hPa | 2.6V | 00:00:00 | 00:00:00 | 00:00:00 | |
| DD8BA-10 | 2026-09-02 13:07:25 | 50.94950 | 8.47425 | 121° | 104km/h | 8651m | -6.3m/s | -36.0°C | 51.7% | 336.2hPa | 2.6V | 00:00:00 | 00:00:00 | 00:00:00 | |
| DO3DL | 2026-09-02 13:07:24 | 50.94950 | 8.47425 | 122° | 104km/h | 8651m | -6.4m/s | -36.1°C | 47.7% | 336.3hPa | 2.6V | 08:02:00 | 00:00:00 | 00:00:00 | |
| DL1NUX | 2026-09-02 13:07:22 | 50.95057 | 8.47139 | 120° | 102km/h | 8702m | -6.5m/s | -36.5°C | 54% | 333.9hPa | 2.6V | 08:01:57 | 02:49:23 | 00:00:00 | |
| DJ2DS-15 | 2026-09-02 13:07:22 | 50.94990 | 8.47318 | 121° | 102km/h | 8671m | -6.6m/s | -36.2°C | 53.4% | 335.4hPa | 2.5V | 00:00:00 | 02:49:28 | 00:00:00 | |
| DM0DOS-11 | 2026-09-02 13:07:21 | 50.95017 | 8.47246 | 120° | 102km/h | 8683m | -6.4m/s | -36.3°C | 54.1% | 334.8hPa | 2.5V | 08:01:54 | 02:49:26 | 00:00:00 | |
| DL1XH1-15 | 2026-09-02 13:07:21 | 50.95030 | 8.47211 | 120° | 104km/h | 8689m | -6.4m/s | -36.4°C | 54.1% | 334.5hPa | 2.5V | 08:01:55 | 02:49:25 | 00:00:00 | |
| DL1XH-west | 2026-09-02 13:07:19 | 50.95030 | 8.47211 | 120° | 104km/h | 8689m | -6.4m/s | -36.4°C | 56.7% | 334.5hPa | 2.5V | 08:02:11 | 02:49:25 | 00:00:00 | |
| HSKMA3-T | 2026-09-02 13:07:16 | 50.95070 | 8.47104 | 121° | 102km/h | 8708m | -6.3m/s | -36.5°C | 56.2% | 333.6hPa | 2.6V | 08:02:11 | 02:49:22 | 00:00:00 | |
| DM0DOS-11 | 2026-09-02 13:07:15 | 50.95149 | 8.46892 | 120° | 102km/h | 8746m | -6.5m/s | -36.8°C | 51.4% | 331.8hPa | 2.6V | 08:02:04 | 02:49:16 | 00:00:00 | |
| DD8BA-10 | 2026-09-02 13:07:15 | 50.95083 | 8.47069 | 121° | 102km/h | 8715m | -6.3m/s | -36.6°C | 53.4% | 333.2hPa | 2.5V | 00:00:00 | 00:00:00 | 00:00:00 | |
| DL4BBY-15 | 2026-09-02 13:07:14 | 50.95096 | 8.47033 | 121° | 104km/h | 8721m | -6.4m/s | -36.3°C | 0% | 0hPa | 2.5V | 00:00:00 | 00:00:00 | 00:00:00 | |
| DB0ND-19 | 2026-09-02 13:07:13 | 50.95110 | 8.46998 | 121° | 102km/h | 8727m | -6.3m/s | -36.7°C | -1.0% | 332.7hPa | 2.5V | 00:00:00 | 00:00:00 | 00:00:00 | |
| DL3OBA | 2026-09-02 13:07:12 | 50.95110 | 8.46998 | 122° | 102km/h | 8727m | -6.3m/s | -36.7°C | 48.2% | 332.7hPa | 2.5V | 00:00:00 | 00:00:00 | 00:00:00 | |
| DL1NUX | 2026-09-02 13:07:12 | 50.95190 | 8.46786 | 121° | 104km/h | 8766m | -6.8m/s | -37°C | 50.1% | 330.9hPa | 2.5V | 08:02:07 | 02:49:13 | 00:00:00 | |
| DL1XH1-15 | 2026-09-02 13:07:11 | 50.95163 | 8.46857 | 121° | 102km/h | 8753m | -6.6m/s | -36.9°C | 51.1% | 331.4hPa | 2.5V | 08:02:05 | 02:49:15 | 00:00:00 | |
| DL1XH-west | 2026-09-02 13:07:09 | 50.95163 | 8.46857 | 121° | 102km/h | 8753m | -6.6m/s | -36.9°C | 54% | 331.4hPa | 2.5V | 08:02:11 | 02:49:15 | 00:00:00 | |
| HSKMA3-T | 2026-09-02 13:07:06 | 50.95203 | 8.46751 | 121° | 104km/h | 8773m | -6.6m/s | -37.1°C | 52.5% | 330.5hPa | 2.5V | 08:02:11 | 02:49:12 | 00:00:00 | |
| DL9SK-14 | 2026-09-02 13:07:05 | 50.95230 | 8.46680 | 121° | 102km/h | 8786m | -6.5m/s | -37.2°C | 44.8% | 329.9hPa | 2.6V | 00:00:00 | 00:00:00 | 00:00:00 | |
| BIOWL1-15 | 2026-09-02 13:07:05 | 50.95217 | 8.46715 | 121° | 104km/h | 8779m | -7m/s | -37.1°C | 52% | 330.2hPa | 2.6V | 08:02:11 | 02:49:11 | 00:00:00 | |
| DO3DL | 2026-09-02 13:07:04 | 50.95230 | 8.46680 | 122° | 104km/h | 8786m | -6.5m/s | -37.2°C | 44.8% | 329.9hPa | 2.6V | 08:02:00 | 00:00:00 | 00:00:00 | |
| DJ2DS-15 | 2026-09-02 13:07:02 | 50.95257 | 8.46609 | 121° | 104km/h | 8799m | -6.5m/s | -37.3°C | 48.1% | 329.3hPa | 2.6V | 00:00:00 | 02:49:08 | 00:00:00 | |
| DL1NUX | 2026-09-02 13:07:01 | 50.95325 | 8.46432 | 121° | 104km/h | 8832m | -6.5m/s | -37.6°C | 48.1% | 327.8hPa | 2.6V | 08:02:17 | 02:49:03 | 00:00:00 | |
| DL1XH1-15 | 2026-09-02 13:07:01 | 50.95298 | 8.46502 | 121° | 104km/h | 8818m | -6.5m/s | -37.5°C | 48.6% | 328.4hPa | 2.6V | 08:02:15 | 02:49:05 | 00:00:00 | |
| DL1XH-west | 2026-09-02 13:06:58 | 50.95312 | 8.46467 | 122° | 104km/h | 8825m | -6.9m/s | -37.6°C | 51.2% | 328hPa | 2.6V | 08:03:02 | 02:49:04 | 00:00:00 | |
| BIOWL1-15 | 2026-09-02 13:06:57 | 50.95352 | 8.46361 | 121° | 104km/h | 8845m | -6.6m/s | -37.8°C | 49.8% | 327.1hPa | 2.5V | 08:03:02 | 02:49:01 | 00:00:00 | |
| HSKMA3-T | 2026-09-02 13:06:56 | 50.95339 | 8.46397 | 121° | 102km/h | 8838m | -6.6m/s | -37.7°C | 50.4% | 327.5hPa | 2.5V | 08:03:02 | 02:49:02 | 00:00:00 | |
| DD8BA-10 | 2026-09-02 13:06:55 | 50.95352 | 8.46361 | 122° | 104km/h | 8845m | -6.5m/s | -37.7°C | 47.0% | 327.1hPa | 2.5V | 00:00:00 | 00:00:00 | 00:00:00 | |
| DL1NUX | 2026-09-02 13:06:51 | 50.95463 | 8.46077 | 121° | 104km/h | 8896m | -6.3m/s | -38.2°C | 42.9% | 324.7hPa | 2.5V | 08:02:27 | 02:48:53 | 00:00:00 | |
| DM0DOS-11 | 2026-09-02 13:06:50 | 50.95422 | 8.46184 | 121° | 104km/h | 8877m | -6.2m/s | -38°C | 44.4% | 325.6hPa | 2.6V | 08:02:24 | 02:48:56 | 00:00:00 | |
| BIOWL1-15 | 2026-09-02 13:06:48 | 50.95505 | 8.45969 | 122° | 106km/h | 8915m | -6.8m/s | -38.4°C | 45.5% | 323.8hPa | 2.5V | 08:03:02 | 02:48:50 | 00:00:00 | |
| DL1XH-west | 2026-09-02 13:06:47 | 50.95463 | 8.46077 | 122° | 104km/h | 8896m | -6.3m/s | -38.2°C | 45.7% | 324.7hPa | 2.5V | 08:03:02 | 02:48:53 | 00:00:00 | |
| HSKMA3-T | 2026-09-02 13:06:46 | 50.95477 | 8.46041 | 121° | 106km/h | 8902m | -6.5m/s | -38.3°C | 45.7% | 324.4hPa | 2.6V | 08:03:02 | 02:48:52 | 00:00:00 | |
| DD8BA-10 | 2026-09-02 13:06:45 | 50.95491 | 8.46005 | 123° | 106km/h | 8909m | -7.2m/s | -38.3°C | 42.7% | 324.0hPa | 2.6V | 08:02:00 | 00:00:00 | 00:00:00 | |
| DL4BBY-15 | 2026-09-02 13:06:44 | 50.95505 | 8.45969 | 122° | 106km/h | 8916m | -6.7m/s | -38.1°C | 0% | 0hPa | 2.6V | 00:00:00 | 00:00:00 | 00:00:00 | |
| DL1NUX | 2026-09-02 13:06:42 | 50.95604 | 8.45719 | 121° | 106km/h | 8961m | -6.4m/s | -38.8°C | 42.1% | 321.7hPa | 2.6V | 08:02:37 | 02:48:43 | 00:00:00 | |
| DL1XH-west | 2026-09-02 13:06:37 | 50.95604 | 8.45719 | 122° | 106km/h | 8961m | -6.4m/s | -38.8°C | 44.7% | 321.7hPa | 2.6V | 08:03:02 | 02:48:43 | 00:00:00 | |
| DL1XH1-15 | 2026-09-02 13:06:36 | 50.95633 | 8.45648 | 122° | 106km/h | 8973m | -6.2m/s | -38.9°C | 41.8% | 321.1hPa | 2.6V | 08:02:39 | 02:48:41 | 00:00:00 | |
| HSKMA3-T | 2026-09-02 13:06:35 | 50.95632 | 8.45648 | 122° | 108km/h | 8973m | -6.2m/s | -38.9°C | 44.4% | 321.1hPa | 2.6V | 08:03:02 | 02:48:41 | 00:00:00 | |
| BIOWL1-15 | 2026-09-02 13:06:33 | 50.95676 | 8.45539 | 123° | 108km/h | 8992m | -6.1m/s | -39.1°C | 43.7% | 320.2hPa | 2.5V | 08:03:02 | 02:48:38 | 00:00:00 | |
| DL1XH-west | 2026-09-02 13:06:26 | 50.95764 | 8.45323 | 123° | 108km/h | 9030m | -6.3m/s | -39.5°C | 41.5% | 318.4hPa | 2.5V | 08:03:02 | 02:48:32 | 00:00:00 | |
| DL1XH1-15 | 2026-09-02 13:06:26 | 50.95779 | 8.45287 | 122° | 108km/h | 9036m | -6.6m/s | -39.5°C | 38.4% | 318.2hPa | 2.5V | 08:02:49 | 02:48:31 | 00:00:00 | |
| HSKMA3-T | 2026-09-02 13:06:24 | 50.95794 | 8.45251 | 122° | 108km/h | 9043m | -6.4m/s | -39.5°C | 40.6% | 317.9hPa | 2.6V | 08:03:02 | 02:48:30 | 00:00:00 | |
| BIOWL1-15 | 2026-09-02 13:06:22 | 50.95853 | 8.45105 | 123° | 110km/h | 9068m | -6m/s | -39.7°C | 39.1% | 316.6hPa | 2.6V | 08:03:02 | 02:48:26 | 00:00:00 | |
| SO1NDE-10 | 2026-09-02 13:06:22 | 50.95823 | 8.45178 | 123° | 108km/h | 9055m | -6.4m/s | -39.6°C | 37.1% | 317.2hPa | 2.6V | 00:00:00 | 02:48:28 | 00:00:00 | |
| DL1XH1-15 | 2026-09-02 13:06:20 | 50.95926 | 8.44924 | 122° | 108km/h | 9099m | -6.5m/s | -40°C | 35.9% | 315.2hPa | 2.6V | 08:02:59 | 02:48:21 | 00:00:00 | |
| DL1XH-west | 2026-09-02 13:06:16 | 50.95926 | 8.44924 | 123° | 108km/h | 9099m | -6.5m/s | -40°C | 38.6% | 315.2hPa | 2.6V | 08:03:02 | 02:48:21 | 00:00:00 | |
| DM0DOS-11 | 2026-09-02 13:06:15 | 50.96000 | 8.44743 | 123° | 108km/h | 9132m | -6.5m/s | -40.3°C | 36.7% | 313.8hPa | 2.5V | 08:03:04 | 02:48:16 | 00:00:00 | |
| HSKMA3-T | 2026-09-02 13:06:14 | 50.95941 | 8.44888 | 123° | 108km/h | 9106m | -6.4m/s | -40°C | 38.7% | 314.9hPa | 2.6V | 08:03:02 | 02:48:20 | 00:00:00 | |
| DL1NUX | 2026-09-02 13:06:12 | 50.96044 | 8.44636 | 123° | 106km/h | 9151m | -6.4m/s | -40.5°C | 37.1% | 312.9hPa | 2.6V | 08:03:07 | 02:48:13 | 00:00:00 | |
| BIOWL1-15 | 2026-09-02 13:06:11 | 50.95985 | 8.44780 | 123° | 108km/h | 9125m | -6.7m/s | -40.2°C | 39.3% | 314hPa | 2.5V | 08:03:53 | 02:48:17 | 00:00:00 | |
| DO9LL-15 | 2026-09-02 13:06:11 | 50.95985 | 8.44780 | 123° | 106km/h | 9125m | -6.6m/s | -40.2°C | 36.5% | 313.9hPa | 2.5V | 00:00:00 | 02:48:17 | 00:00:00 | |
| DJ8HS-15 | 2026-09-02 13:06:10 | 50.96000 | 8.44743 | 124° | 106km/h | 9132m | -6.4m/s | -40.2°C | 36.7% | 313.7hPa | 2.5V | 00:00:00 | 02:48:16 | 00:00:00 | |
| DL1XH1-15 | 2026-09-02 13:06:09 | 50.96074 | 8.44564 | 122° | 106km/h | 9164m | -6.5m/s | -40.6°C | 37.3% | 312.3hPa | 2.5V | 08:03:09 | 02:48:11 | 00:00:00 | |
| DL3AQ-11 | 2026-09-02 13:06:06 | 50.96073 | 8.44564 | 122° | 106km/h | 9164m | -6.5m/s | -40.6°C | 33.5% | 312.3hPa | 2.5V | 00:00:00 | 00:00:00 | 00:00:00 | |
| DM0DOS-11 | 2026-09-02 13:06:05 | 50.96146 | 8.44385 | 122° | 108km/h | 9196m | -6.3m/s | -40.9°C | 38.7% | 310.8hPa | 2.5V | 08:03:14 | 02:48:06 | 00:00:00 | |
| HSKMA3-T | 2026-09-02 13:06:04 | 50.96088 | 8.44528 | 123° | 106km/h | 9171m | -6.5m/s | -40.6°C | 40.2% | 312hPa | 2.5V | 08:03:53 | 02:48:10 | 00:00:00 | |
| DL9SK-14 | 2026-09-02 13:06:03 | 50.96117 | 8.44456 | 122° | 106km/h | 9184m | -6.3m/s | -40.7°C | 34.1% | 311.4hPa | 2.6V | 00:00:00 | 00:00:00 | 00:00:00 | |
| DL1NUX | 2026-09-02 13:06:02 | 50.96189 | 8.44276 | 122° | 108km/h | 9215m | -6.5m/s | -41°C | 40.2% | 309.9hPa | 2.6V | 08:03:17 | 02:48:03 | 00:00:00 | |
| BIOWL1-15 | 2026-09-02 13:06:01 | 50.96131 | 8.44420 | 122° | 104km/h | 9190m | -6m/s | -40.8°C | 41% | 311.1hPa | 2.6V | 08:03:53 | 02:48:07 | 00:00:00 | |
| AU51GT2 | 2026-09-02 13:05:57 | 50.96189 | 8.44276 | 122° | 106km/h | 9215m | -6.5m/s | -41.0°C | 36.1% | 309.9hPa | 2.6V | 00:00:00 | 00:00:00 | 00:00:00 | |
| NBG1-10 | 2026-09-02 13:05:56 | 50.96204 | 8.44240 | 123° | 106km/h | 9221m | -6.1m/s | -41.1°C | 40.7% | 309.6hPa | 2.6V | 00:00:00 | 02:48:02 | 00:00:00 | |
| DM0DOS-11 | 2026-09-02 13:05:55 | 50.96291 | 8.44024 | 122° | 106km/h | 9260m | -6.8m/s | -41.5°C | 47.1% | 307.9hPa | 2.6V | 08:03:24 | 02:47:56 | 00:00:00 | |
| HSKMA3-T | 2026-09-02 13:05:53 | 50.96247 | 8.44132 | 122° | 106km/h | 9241m | -6.4m/s | -41.3°C | 45.9% | 308.7hPa | 2.5V | 08:03:53 | 02:47:59 | 00:00:00 | |
| BIOWL1-15 | 2026-09-02 13:05:52 | 50.96362 | 8.43843 | 122° | 106km/h | 9293m | -6.5m/s | -41.8°C | 55% | 306.4hPa | 2.6V | 08:03:53 | 02:47:51 | 00:00:00 | |
| DL1NUX | 2026-09-02 13:05:52 | 50.96334 | 8.43916 | 121° | 108km/h | 9280m | -6.7m/s | -41.6°C | 51% | 307hPa | 2.5V | 08:03:27 | 02:47:53 | 00:00:00 | |
| BUE01 | 2026-09-02 13:05:48 | 50.96334 | 8.43916 | 121° | 106km/h | 9280m | -6.7m/s | -41.7°C | 46.3% | 307.0hPa | 2.5V | 00:00:00 | 00:00:00 | 00:00:00 | |
| DB0NH | 2026-09-02 13:05:47 | 50.96334 | 8.43916 | 122° | 106km/h | 9280m | -6.7m/s | -41.6°C | 51.0% | 306.9hPa | 2.5V | 00:00:00 | 02:47:53 | 00:00:00 | |
| DD8BA-10 | 2026-09-02 13:05:46 | 50.96348 | 8.43880 | 123° | 106km/h | 9286m | -6.6m/s | -41.7°C | 52.4% | 306.7hPa | 2.5V | 00:00:00 | 00:00:00 | 00:00:00 | |
| DM0DOS-11 | 2026-09-02 13:05:45 | 50.96434 | 8.43663 | 122° | 106km/h | 9325m | -6.7m/s | -42.1°C | 53.3% | 304.9hPa | 2.5V | 08:03:34 | 02:47:46 | 00:00:00 | |
| DL8DAS-14 | 2026-09-02 13:05:44 | 50.96376 | 8.43807 | 122° | 106km/h | 9299m | -6.6m/s | -41.9°C | 48.1% | 306.1hPa | 2.5V | 00:00:00 | 00:00:00 | 00:00:00 | |
| HSKMA3-T | 2026-09-02 13:05:43 | 50.96391 | 8.43771 | 122° | 108km/h | 9306m | -6.5m/s | -41.9°C | 55.4% | 305.8hPa | 2.5V | 08:03:53 | 02:47:49 | 00:00:00 | |
| DL1XH-west | 2026-09-02 13:05:42 | 50.96405 | 8.43735 | 123° | 106km/h | 9312m | -6.6m/s | -42°C | 55.2% | 305.5hPa | 2.5V | 08:03:53 | 02:47:48 | 00:00:00 | |
| DJ2DS-15 | 2026-09-02 13:05:42 | 50.96405 | 8.43735 | 123° | 106km/h | 9312m | -6.5m/s | -41.9°C | 53.0% | 305.4hPa | 2.5V | 00:00:00 | 02:47:48 | 00:00:00 | |
| DB0DAN | 2026-09-02 13:05:40 | 50.96433 | 8.43663 | 122° | 100km/h | 9325m | -6.7m/s | -42.1°C | 48.3% | 304.86hPa | 2.5V | 00:00:00 | 00:00:00 | 00:00:00 | |
| BIOWL1-15 | 2026-09-02 13:05:39 | 50.96448 | 8.43627 | 122° | 106km/h | 9332m | -6.9m/s | -42.2°C | 56.2% | 304.6hPa | 2.6V | 08:03:53 | 02:47:45 | 00:00:00 | |
| HSKMA3-T | 2026-09-02 13:05:33 | 50.96533 | 8.43412 | 122° | 106km/h | 9371m | -6.5m/s | -42.5°C | 54.9% | 302.8hPa | 2.6V | 08:03:53 | 02:47:39 | 00:00:00 | |
| DL1XH-west | 2026-09-02 13:05:32 | 50.96547 | 8.43376 | 121° | 106km/h | 9377m | -6.5m/s | -42.6°C | 55.2% | 302.5hPa | 2.6V | 08:03:53 | 02:47:38 | 00:00:00 | |
| BIOWL1-15 | 2026-09-02 13:05:31 | 50.96588 | 8.43267 | 120° | 106km/h | 9397m | -6.5m/s | -42.8°C | 55.8% | 301.7hPa | 2.5V | 08:03:53 | 02:47:35 | 00:00:00 | |
| DM0DOS-11 | 2026-09-02 13:05:30 | 50.96574 | 8.43303 | 120° | 106km/h | 9391m | -6.9m/s | -42.7°C | 53.6% | 301.9hPa | 2.5V | 08:03:44 | 02:47:36 | 00:00:00 | |
| DJ8HS-15 | 2026-09-02 13:05:30 | 50.96575 | 8.43303 | 121° | 108km/h | 9391m | -6.8m/s | -42.7°C | 53.6% | 301.9hPa | 2.5V | 00:00:00 | 02:47:36 | 00:00:00 | |
| DL3OBA | 2026-09-02 13:05:29 | 50.96574 | 8.43303 | 122° | 106km/h | 9391m | -6.9m/s | -42.7°C | 48.6% | 301.9hPa | 2.6V | 08:03:00 | 00:00:00 | 00:00:00 | |
| AM1SDL-15 | 2026-09-02 13:05:28 | 50.96602 | 8.43230 | 121° | 108km/h | 9404m | -5.9m/s | -42.8°C | 54.3% | 301.3hPa | 2.6V | 08:03:00 | 02:47:34 | 00:00:00 | |
| DL3AQ-11 | 2026-09-02 13:05:26 | 50.96642 | 8.43119 | 120° | 106km/h | 9423m | -6.3m/s | -43.0°C | 51.6% | 300.5hPa | 2.6V | 00:00:00 | 00:00:00 | 00:00:00 | |
| DM0DOS-11 | 2026-09-02 13:05:25 | 50.96709 | 8.42934 | 120° | 108km/h | 9456m | -6.2m/s | -43.2°C | 61.1% | 299.1hPa | 2.6V | 08:03:54 | 02:47:26 | 00:00:00 | |
| BIOWL1-15 | 2026-09-02 13:05:23 | 50.96723 | 8.42896 | 120° | 108km/h | 9462m | -6.6m/s | -43.3°C | 63% | 298.8hPa | 2.6V | 08:04:44 | 02:47:25 | 00:00:00 | |
| HSKMA3-T | 2026-09-02 13:05:22 | 50.96682 | 8.43008 | 119° | 106km/h | 9442m | -7.5m/s | -43.2°C | 61.4% | 299.7hPa | 2.5V | 08:03:53 | 02:47:28 | 00:00:00 | |
| DL1XH-west | 2026-09-02 13:05:21 | 50.96696 | 8.42971 | 120° | 108km/h | 9449m | -6.8m/s | -43.2°C | 62.3% | 299.4hPa | 2.6V | 08:03:53 | 02:47:27 | 00:00:00 | |
| DL1XH1-15 | 2026-09-02 13:05:19 | 50.96776 | 8.42746 | 119° | 108km/h | 9488m | -6.3m/s | -43.5°C | 62.5% | 297.6hPa | 2.6V | 08:03:59 | 02:47:21 | 00:00:00 | |
| DB0NH | 2026-09-02 13:05:18 | 50.96749 | 8.42821 | 120° | 111km/h | 9476m | -6.6m/s | -43.4°C | 61.7% | 298.2hPa | 2.6V | 00:00:00 | 02:47:23 | 00:00:00 | |
| DD8BA-10 | 2026-09-02 13:05:16 | 50.96763 | 8.42783 | 120° | 108km/h | 9482m | -6.3m/s | -43.4°C | 62.0% | 297.9hPa | 2.6V | 00:00:00 | 00:00:00 | 00:00:00 | |
| DM0DOS-11 | 2026-09-02 13:05:15 | 50.96844 | 8.42557 | 119° | 110km/h | 9521m | -6.6m/s | -43.8°C | 64.4% | 296.2hPa | 2.6V | 08:04:04 | 02:47:16 | 00:00:00 | |
| DB0UT-7 | 2026-09-02 13:05:15 | 50.96776 | 8.42745 | 120° | 111km/h | 9488m | -6.3m/s | -43.5°C | 62.5% | 297.6hPa | 2.5V | 00:00:00 | 00:00:00 | 00:00:00 | |
| DL4BBY-15 | 2026-09-02 13:05:14 | 50.96790 | 8.42708 | 120° | 111km/h | 9495m | -6.9m/s | -43.3°C | 0% | 0hPa | 2.5V | 00:00:00 | 00:00:00 | 00:00:00 | |
| DL8DAS-14 | 2026-09-02 13:05:13 | 50.96803 | 8.42670 | 119° | 106km/h | 9502m | -6.5m/s | -43.6°C | 57.5% | 297.0hPa | 2.5V | 00:00:00 | 00:00:00 | 00:00:00 | |
| DL1NUX | 2026-09-02 13:05:12 | 50.96884 | 8.42443 | 119° | 110km/h | 9541m | -6.6m/s | -44°C | 65.4% | 295.3hPa | 2.5V | 08:04:07 | 02:47:13 | 00:00:00 | |
| HSKMA3-T | 2026-09-02 13:05:11 | 50.96830 | 8.42595 | 120° | 108km/h | 9515m | -7m/s | -43.8°C | 65.6% | 296.5hPa | 2.5V | 08:04:44 | 02:47:17 | 00:00:00 | |
| BIOWL1-15 | 2026-09-02 13:05:11 | 50.96857 | 8.42519 | 119° | 110km/h | 9528m | -6.9m/s | -43.8°C | 66.6% | 295.9hPa | 2.6V | 08:04:44 | 02:47:15 | 00:00:00 | |
| DL1XH-west | 2026-09-02 13:05:10 | 50.96844 | 8.42557 | 120° | 110km/h | 9521m | -6.6m/s | -43.8°C | 66.2% | 296.2hPa | 2.6V | 08:04:44 | 02:47:16 | 00:00:00 | |
| DL3AQ-11 | 2026-09-02 13:05:10 | 50.96857 | 8.42519 | 119° | 108km/h | 9528m | -6.9m/s | -43.8°C | 58.9% | 295.9hPa | 2.5V | 00:00:00 | 00:00:00 | 00:00:00 | |
| DL1XH1-15 | 2026-09-02 13:05:09 | 50.96912 | 8.42367 | 119° | 110km/h | 9555m | -7.7m/s | -44.1°C | 66% | 294.7hPa | 2.5V | 08:04:09 | 02:47:11 | 00:00:00 | |
| DO3DL | 2026-09-02 13:05:08 | 50.96857 | 8.42519 | 120° | 110km/h | 9528m | -6.9m/s | -43.8°C | 58.9% | 295.9hPa | 2.5V | 08:04:00 | 00:00:00 | 00:00:00 | |
| DD8BA-10 | 2026-09-02 13:05:06 | 50.96898 | 8.42405 | 120° | 110km/h | 9548m | -7.0m/s | -44.0°C | 65.7% | 0hPa | 2.5V | 00:00:00 | 00:00:00 | 00:00:00 | |
| DM0DOS-11 | 2026-09-02 13:05:05 | 50.96980 | 8.42177 | 119° | 111km/h | 9588m | -6.3m/s | -44.4°C | 67.1% | 293.2hPa | 2.5V | 08:04:14 | 02:47:06 | 00:00:00 | |
| AM1SDL-15 | 2026-09-02 13:05:04 | 50.96925 | 8.42329 | 120° | 111km/h | 9562m | -6.7m/s | -44.1°C | 66.5% | 294.4hPa | 2.6V | 00:00:00 | 02:47:10 | 00:00:00 | |
| DL1NUX | 2026-09-02 13:05:02 | 50.97021 | 8.42060 | 118° | 111km/h | 9607m | -7.2m/s | -44.5°C | 67.1% | 292.4hPa | 2.6V | 08:04:17 | 02:47:03 | 00:00:00 | |
| HSKMA3-T | 2026-09-02 13:05:01 | 50.96967 | 8.42215 | 120° | 110km/h | 9582m | -6.2m/s | -44.3°C | 68.6% | 293.6hPa | 2.6V | 08:04:44 | 02:47:07 | 00:00:00 | |
| DL1XH-west | 2026-09-02 13:05:00 | 50.96980 | 8.42177 | 120° | 111km/h | 9588m | -6.3m/s | -44.4°C | 68.6% | 293.2hPa | 2.5V | 08:04:44 | 02:47:06 | 00:00:00 | |
| BIOWL1-15 | 2026-09-02 13:04:58 | 50.97008 | 8.42099 | 119° | 111km/h | 9601m | -6.5m/s | -44.5°C | 68.8% | 292.7hPa | 2.5V | 08:04:44 | 02:47:04 | 00:00:00 | |
| DL3AQ-11 | 2026-09-02 13:04:57 | 50.97035 | 8.42020 | 118° | 111km/h | 9614m | -6.2m/s | -44.6°C | 61.3% | 292.1hPa | 2.6V | 00:00:00 | 00:00:00 | 00:00:00 | |
| DD8BA-10 | 2026-09-02 13:04:56 | 50.97035 | 8.42020 | 119° | 117km/h | 9614m | -6.2m/s | -44.5°C | 67.5% | 292.0hPa | 2.6V | 00:00:00 | 00:00:00 | 00:00:00 | |
| DM0DOS-11 | 2026-09-02 13:04:55 | 50.97115 | 8.41779 | 117° | 115km/h | 9652m | -6.5m/s | -44.8°C | 67.4% | 290.4hPa | 2.6V | 08:04:24 | 02:46:56 | 00:00:00 | |
| AU51GT2 | 2026-09-02 13:04:55 | 50.97062 | 8.41941 | 117° | 113km/h | 9626m | -6.4m/s | -44.7°C | 61.4% | 291.5hPa | 2.5V | 00:00:00 | 00:00:00 | 00:00:00 | |
| SONCRA | 2026-09-02 13:04:54 | 50.97075 | 8.41901 | 117° | 113km/h | 9633m | -6.2m/s | -44.8°C | 61.5% | 291.2hPa | 2.5V | 00:00:00 | 00:00:00 | 00:00:00 | |
| DD1CC8 | 2026-09-02 13:04:53 | 50.97075 | 8.41901 | 117° | 113km/h | 9633m | -6.2m/s | -44.8°C | 61.5% | 291.2hPa | 2.5V | 00:00:00 | 00:00:00 | 00:00:00 | |
| DL1NUX | 2026-09-02 13:04:52 | 50.97155 | 8.41656 | 116° | 115km/h | 9671m | -6.2m/s | -45°C | 69.5% | 289.5hPa | 2.5V | 08:04:27 | 02:46:53 | 00:00:00 | |
| DL1XH-west | 2026-09-02 13:04:50 | 50.97115 | 8.41779 | 118° | 115km/h | 9652m | -6.5m/s | -44.8°C | 69.6% | 290.4hPa | 2.6V | 08:04:44 | 02:46:56 | 00:00:00 | |
| BIOWL1-15 | 2026-09-02 13:04:49 | 50.97155 | 8.41656 | 117° | 115km/h | 9671m | -6.2m/s | -45°C | 71.7% | 289.5hPa | 2.5V | 08:04:44 | 02:46:53 | 00:00:00 | |
| DL1XH1-15 | 2026-09-02 13:04:49 | 50.97181 | 8.41573 | 116° | 115km/h | 9684m | -6.2m/s | -45.2°C | 71.3% | 289hPa | 2.6V | 08:04:29 | 02:46:51 | 00:00:00 | |
| BUE01 | 2026-09-02 13:04:46 | 50.97181 | 8.41573 | 116° | 115km/h | 9684m | -6.3m/s | -45.2°C | 64.8% | 289.0hPa | 2.5V | 00:00:00 | 00:00:00 | 00:00:00 | |
| DM0DOS-11 | 2026-09-02 13:04:45 | 50.97247 | 8.41365 | 116° | 117km/h | 9716m | -6.5m/s | -45.4°C | 76.3% | 287.6hPa | 2.5V | 08:04:34 | 02:46:46 | 00:00:00 | |
| DB0UT-7 | 2026-09-02 13:04:45 | 50.97181 | 8.41573 | 117° | 117km/h | 9684m | -6.2m/s | -45.1°C | 71.3% | 289.0hPa | 2.5V | 00:00:00 | 02:46:51 | 00:00:00 | |
| DL8DAS-15 | 2026-09-02 13:04:44 | 50.97194 | 8.41532 | 118° | 115km/h | 9691m | -7.0m/s | -45.2°C | 65.9% | 288.7hPa | 2.5V | 00:00:00 | 00:00:00 | 00:00:00 | |
| DJ2DS-15 | 2026-09-02 13:04:43 | 50.97207 | 8.41490 | 116° | 115km/h | 9697m | -6.2m/s | -45.3°C | 66.8% | 288.4hPa | 2.5V | 00:00:00 | 00:00:00 | 00:00:00 | |
| DL1NUX | 2026-09-02 13:04:42 | 50.97287 | 8.41239 | 116° | 117km/h | 9735m | -7.2m/s | -45.6°C | 78.1% | 286.8hPa | 2.5V | 08:04:37 | 02:46:43 | 00:00:00 | |
| DL1XH-west | 2026-09-02 13:04:40 | 50.97247 | 8.41365 | 116° | 117km/h | 9716m | -6.5m/s | -45.4°C | 77.7% | 287.6hPa | 2.5V | 08:04:44 | 02:46:46 | 00:00:00 | |
| HSKMA3-T | 2026-09-02 13:04:39 | 50.97260 | 8.41323 | 117° | 117km/h | 9723m | -6.4m/s | -45.5°C | 78.5% | 287.3hPa | 2.6V | 08:04:44 | 02:46:45 | 00:00:00 | |
| DB0ND-19 | 2026-09-02 13:04:38 | 50.97274 | 8.41281 | 116° | 115km/h | 9729m | -6.2m/s | 0°C | -1.0% | -1.0hPa | 2.6V | 00:00:00 | 00:00:00 | 00:00:00 | |
| DD1CC3-15 | 2026-09-02 13:04:36 | 50.97287 | 8.41239 | 118° | 117km/h | 9736m | -7.2m/s | -45.6°C | 71.2% | 286.8hPa | 2.6V | 08:04:00 | 00:00:00 | 00:00:00 | |
| BIOWL1-15 | 2026-09-02 13:04:36 | 50.97339 | 8.41073 | 116° | 117km/h | 9762m | -6.7m/s | -45.8°C | 80.9% | 285.7hPa | 2.6V | 08:04:44 | 02:46:39 | 00:00:00 | |
| DO1YAY-16 | 2026-09-02 13:04:35 | 50.97313 | 8.41156 | 116° | 115km/h | 9749m | -6.7m/s | -45.7°C | 72.0% | 286.2hPa | 2.6V | 00:00:00 | 00:00:00 | 00:00:00 | |
| DK9SH | 2026-09-02 13:04:34 | 50.97313 | 8.41156 | 117° | 117km/h | 9749m | -6.7m/s | -45.7°C | 72.0% | 286.2hPa | 2.6V | 08:04:00 | 00:00:00 | 00:00:00 | |
| DL1NUX | 2026-09-02 13:04:32 | 50.97417 | 8.40817 | 115° | 119km/h | 9801m | -6.5m/s | -46.2°C | 80.7% | 284hPa | 2.6V | 08:04:47 | 02:46:33 | 00:00:00 | |
| DM0DOS-11 | 2026-09-02 13:04:30 | 50.97379 | 8.40946 | 115° | 117km/h | 9782m | -6.6m/s | -46°C | 80.3% | 284.8hPa | 2.5V | 08:04:44 | 02:46:36 | 00:00:00 | |
| DL1XH-west | 2026-09-02 13:04:30 | 50.97378 | 8.40946 | 116° | 117km/h | 9782m | -6.6m/s | -46°C | 81.7% | 284.8hPa | 2.5V | 08:04:44 | 02:46:36 | 00:00:00 | |
| HSKMA3-T | 2026-09-02 13:04:28 | 50.97404 | 8.40860 | 115° | 119km/h | 9795m | -6.3m/s | -46.1°C | 82% | 284.3hPa | 2.5V | 08:05:35 | 02:46:34 | 00:00:00 | |
| BIOWL1-15 | 2026-09-02 13:04:25 | 50.97443 | 8.40731 | 115° | 119km/h | 9814m | -6.6m/s | -46.3°C | 82.3% | 283.5hPa | 2.6V | 08:05:35 | 02:46:31 | 00:00:00 | |
| DJ2KF-10 | 2026-09-02 13:04:25 | 50.97443 | 8.40730 | 116° | 119km/h | 9814m | -6.6m/s | -46.2°C | 81.2% | 283.4hPa | 2.6V | 00:00:00 | 02:46:31 | 00:00:00 | |
| AU51GT2 | 2026-09-02 13:04:24 | 50.97456 | 8.40687 | 115° | 119km/h | 9821m | -6.5m/s | -46.3°C | 74.2% | 283.2hPa | 2.5V | 00:00:00 | 00:00:00 | 00:00:00 | |
| DO3DL | 2026-09-02 13:04:23 | 50.97469 | 8.40644 | 117° | 119km/h | 9827m | -6.3m/s | -46.4°C | 74.4% | 282.9hPa | 2.5V | 08:05:00 | 00:00:00 | 00:00:00 | |
| DL1NUX | 2026-09-02 13:04:22 | 50.97547 | 8.40386 | 114° | 119km/h | 9864m | -5.9m/s | -46.7°C | 81.4% | 281.4hPa | 2.5V | 08:04:57 | 02:46:23 | 00:00:00 | |
| DL1XH-west | 2026-09-02 13:04:19 | 50.97521 | 8.40472 | 115° | 119km/h | 9851m | -6.5m/s | -46.6°C | 82.1% | 281.9hPa | 2.5V | 08:05:35 | 02:46:25 | 00:00:00 | |
| HSKMA3-T | 2026-09-02 13:04:18 | 50.97534 | 8.40429 | 115° | 119km/h | 9858m | -6.2m/s | -46.6°C | 81.9% | 281.6hPa | 2.5V | 08:05:35 | 02:46:24 | 00:00:00 | |
| DB0NH | 2026-09-02 13:04:17 | 50.97547 | 8.40386 | 115° | 117km/h | 9864m | -5.9m/s | -46.6°C | 81.4% | 281.3hPa | 2.5V | 00:00:00 | 02:46:23 | 00:00:00 | |
| DD1CC3-15 | 2026-09-02 13:04:16 | 50.97547 | 8.40386 | 116° | 119km/h | 9864m | -5.9m/s | -46.7°C | 74.1% | 281.4hPa | 2.5V | 08:05:00 | 00:00:00 | 00:00:00 | |
| BUE01 | 2026-09-02 13:04:15 | 50.97585 | 8.40256 | 115° | 119km/h | 9883m | -7.1m/s | -46.8°C | 72.3% | 280.6hPa | 2.5V | 00:00:00 | 00:00:00 | 00:00:00 | |
| DM0DOS-11 | 2026-09-02 13:04:14 | 50.97635 | 8.40083 | 115° | 119km/h | 9909m | -6.9m/s | -47°C | 78.8% | 279.5hPa | 2.5V | 08:05:04 | 02:46:16 | 00:00:00 | |
| WPPR-10 | 2026-09-02 13:04:14 | 50.97597 | 8.40213 | 114° | 119km/h | 9890m | -6.3m/s | -46.9°C | 72.2% | 280.3hPa | 2.6V | 00:00:00 | 00:00:00 | 00:00:00 | |
| HTAHTA | 2026-09-02 13:04:13 | 50.97610 | 8.40170 | 114° | 119km/h | 9896m | -6.4m/s | 0°C | -1.0% | -1.0hPa | 2.6V | 00:00:00 | 00:00:00 | 00:00:00 | |
| DL1NUX | 2026-09-02 13:04:12 | 50.97674 | 8.39953 | 116° | 119km/h | 9929m | -6m/s | -47.2°C | 78.7% | 278.7hPa | 2.6V | 08:05:07 | 02:46:13 | 00:00:00 | |
| DB0DAN | 2026-09-02 13:04:10 | 50.97635 | 8.40083 | 115° | 113km/h | 9909m | -6.9m/s | -47°C | 71.6% | 279.5hPa | 2.5V | 00:00:00 | 00:00:00 | 00:00:00 | |
| DL1XH-west | 2026-09-02 13:04:09 | 50.97648 | 8.40039 | 115° | 119km/h | 9916m | -6.5m/s | -47.1°C | 79.7% | 279.3hPa | 2.6V | 08:05:35 | 02:46:15 | 00:00:00 | |
| HSKMA3-T | 2026-09-02 13:04:08 | 50.97661 | 8.39996 | 115° | 119km/h | 9922m | -6.3m/s | -47.1°C | 79.6% | 279hPa | 2.6V | 08:05:35 | 02:46:14 | 00:00:00 | |
| BIOWL1-15 | 2026-09-02 13:04:04 | 50.97714 | 8.39827 | 117° | 117km/h | 9947m | -6.2m/s | -47.4°C | 79.2% | 277.9hPa | 2.5V | 08:05:35 | 02:46:10 | 00:00:00 | |
| DM0DOS-11 | 2026-09-02 13:04:03 | 50.97767 | 8.39661 | 117° | 117km/h | 9973m | -6.9m/s | -47.6°C | 77.2% | 276.9hPa | 2.6V | 08:05:14 | 02:46:06 | 00:00:00 | |
| DL1NUX | 2026-09-02 13:04:02 | 50.97809 | 8.39537 | 118° | 117km/h | 9993m | -6.6m/s | -47.8°C | 77.5% | 276hPa | 2.5V | 08:05:17 | 02:46:03 | 00:00:00 | |
| DL1XH-west | 2026-09-02 13:03:59 | 50.97781 | 8.39620 | 118° | 117km/h | 9980m | -6.9m/s | -47.7°C | 79% | 276.6hPa | 2.5V | 08:05:35 | 02:46:05 | 00:00:00 | |
| HSKMA3-T | 2026-09-02 13:03:57 | 50.97809 | 8.39537 | 119° | 117km/h | 9993m | -6.6m/s | -47.8°C | 78.6% | 276hPa | 2.5V | 08:05:35 | 02:46:03 | 00:00:00 | |
| DO3DL | 2026-09-02 13:03:56 | 50.97809 | 8.39537 | 120° | 117km/h | 9993m | -6.6m/s | -47.8°C | 70.1% | 276.0hPa | 2.6V | 08:05:00 | 00:00:00 | 00:00:00 | |
| DB0DAN | 2026-09-02 13:03:55 | 50.97838 | 8.39455 | 120° | 111km/h | 10007m | -7.1m/s | -47.9°C | 69.1% | 275.41hPa | 2.6V | 00:00:00 | 00:00:00 | 00:00:00 | |
| BIOWL1-15 | 2026-09-02 13:03:53 | 50.97960 | 8.39135 | 122° | 115km/h | 10059m | -6.7m/s | -48.2°C | 71.7% | 273.2hPa | 2.5V | 08:05:35 | 02:45:53 | 00:00:00 | |
| AU51GT2 | 2026-09-02 13:03:53 | 50.97883 | 8.39334 | 121° | 117km/h | 10027m | -6.3m/s | -48.0°C | 66.5% | 274.6hPa | 2.5V | 00:00:00 | 00:00:00 | 00:00:00 | |
| DL1NUX | 2026-09-02 13:03:52 | 50.97960 | 8.39135 | 121° | 115km/h | 10059m | -6.7m/s | -48.2°C | 70.7% | 273.2hPa | 2.5V | 08:05:27 | 02:45:53 | 00:00:00 | |
| DM0DOS-11 | 2026-09-02 13:03:52 | 50.97914 | 8.39254 | 121° | 117km/h | 10040m | -6.5m/s | -48°C | 72.2% | 274.1hPa | 2.6V | 08:05:24 | 02:45:56 | 00:00:00 | |
| DL1XH-west | 2026-09-02 13:03:49 | 50.97930 | 8.39214 | 122° | 117km/h | 10046m | -6.9m/s | -48.1°C | 72.8% | 273.8hPa | 2.6V | 08:05:35 | 02:45:55 | 00:00:00 | |
| HSKMA3-T | 2026-09-02 13:03:46 | 50.97975 | 8.39096 | 121° | 115km/h | 10066m | -6.7m/s | -48.2°C | 71.2% | 272.9hPa | 2.5V | 08:05:35 | 02:45:52 | 00:00:00 | |
| BIOWL1-15 | 2026-09-02 13:03:40 | 50.98067 | 8.38860 | 123° | 115km/h | 10107m | -7.1m/s | -48.6°C | 68.4% | 271.3hPa | 2.5V | 08:05:35 | 02:45:46 | 00:00:00 | |
| DL1NUX | 2026-09-02 13:03:39 | 50.98115 | 8.38745 | 123° | 113km/h | 10128m | -7.3m/s | -48.7°C | 66% | 270.4hPa | 2.6V | 08:05:37 | 02:45:43 | 00:00:00 | |
| DL1XH-west | 2026-09-02 13:03:39 | 50.98083 | 8.38822 | 123° | 115km/h | 10114m | -7m/s | -48.6°C | 68.1% | 271hPa | 2.5V | 08:05:35 | 02:45:45 | 00:00:00 | |
| DL1XH1-15 | 2026-09-02 13:03:38 | 50.98147 | 8.38669 | 124° | 115km/h | 10141m | -6.8m/s | -48.8°C | 66% | 269.8hPa | 2.6V | 08:05:39 | 02:45:41 | 00:00:00 | |
| HSKMA3-T | 2026-09-02 13:03:35 | 50.98147 | 8.38669 | 125° | 115km/h | 10141m | -6.8m/s | -48.8°C | 66.9% | 269.8hPa | 2.6V | 08:06:26 | 02:45:41 | 00:00:00 | |
| BIOWL1-15 | 2026-09-02 13:03:29 | 50.98247 | 8.38444 | 125° | 115km/h | 10182m | -6.8m/s | -49.1°C | 65.6% | 268.2hPa | 2.5V | 08:06:26 | 02:45:35 | 00:00:00 | |
| DL1NUX | 2026-09-02 13:03:29 | 50.98280 | 8.38369 | 125° | 115km/h | 10196m | -6.7m/s | -49.1°C | 64.1% | 267.6hPa | 2.5V | 08:05:47 | 02:45:33 | 00:00:00 | |
| DL1XH1-15 | 2026-09-02 13:03:28 | 50.98314 | 8.38294 | 125° | 113km/h | 10210m | -6.9m/s | -49.1°C | 64.1% | 267hPa | 2.6V | 08:05:49 | 02:45:31 | 00:00:00 | |
| DL1XH-west | 2026-09-02 13:03:28 | 50.98264 | 8.38406 | 125° | 115km/h | 10189m | -7.3m/s | -49.1°C | 65.4% | 267.9hPa | 2.5V | 08:06:26 | 02:45:34 | 00:00:00 | |
| HSKMA3-T | 2026-09-02 13:03:24 | 50.98330 | 8.38257 | 125° | 113km/h | 10217m | -7.1m/s | -49.2°C | 65.1% | 266.8hPa | 2.6V | 08:06:26 | 02:45:30 | 00:00:00 | |
| BIOWL1-15 | 2026-09-02 13:03:22 | 50.98429 | 8.38036 | 125° | 113km/h | 10258m | -6.8m/s | -49.5°C | 65.3% | 265.1hPa | 2.6V | 08:06:26 | 02:45:24 | 00:00:00 | |
| DL1NUX | 2026-09-02 13:03:22 | 50.98446 | 8.37998 | 125° | 113km/h | 10265m | -7.3m/s | -49.5°C | 63.5% | 264.8hPa | 2.6V | 08:05:57 | 02:45:23 | 00:00:00 | |
| DJ2DS-15 | 2026-09-02 13:03:22 | 50.98363 | 8.38183 | 126° | 115km/h | 10230m | -7.1m/s | -49.2°C | 64.4% | 266.1hPa | 2.5V | 08:05:00 | 02:45:28 | 00:00:00 | |
| SONCRA | 2026-09-02 13:03:21 | 50.98396 | 8.38110 | 125° | 111km/h | 10244m | -7.1m/s | -49.4°C | 57.9% | 265.6hPa | 2.5V | 00:00:00 | 00:00:00 | 00:00:00 | |
| DD1CC8 | 2026-09-02 13:03:20 | 50.98396 | 8.38110 | 125° | 111km/h | 10244m | -7.1m/s | -49.4°C | 57.9% | 265.6hPa | 2.5V | 00:00:00 | 00:00:00 | 00:00:00 | |
| DL1XH1-15 | 2026-09-02 13:03:18 | 50.98479 | 8.37924 | 125° | 115km/h | 10279m | -7m/s | -49.7°C | 61.8% | 264.2hPa | 2.5V | 08:05:59 | 02:45:21 | 00:00:00 | |
| DL1XH-west | 2026-09-02 13:03:18 | 50.98445 | 8.37998 | 125° | 113km/h | 10265m | -7.3m/s | -49.6°C | 64.6% | 264.8hPa | 2.6V | 08:06:26 | 02:45:23 | 00:00:00 | |
| HSKMA3-T | 2026-09-02 13:03:14 | 50.98495 | 8.37887 | 126° | 115km/h | 10286m | -6.8m/s | -49.7°C | 62.4% | 263.9hPa | 2.5V | 08:06:26 | 02:45:20 | 00:00:00 | |
| DD1CC3-15 | 2026-09-02 13:03:14 | 50.98495 | 8.37886 | 127° | 115km/h | 10286m | -6.8m/s | -49.7°C | 54.2% | 263.9hPa | 2.5V | 08:06:00 | 00:00:00 | 00:00:00 | |
| BUE01 | 2026-09-02 13:03:13 | 50.98530 | 8.37813 | 126° | 113km/h | 10299m | -6.8m/s | -49.8°C | 53.4% | 263.4hPa | 2.5V | 00:00:00 | 00:00:00 | 00:00:00 | |
| DL1NUX | 2026-09-02 13:03:12 | 50.98619 | 8.37628 | 128° | 117km/h | 10335m | -7.2m/s | -50°C | 55.5% | 262hPa | 2.5V | 08:06:07 | 02:45:13 | 00:00:00 | |
| DM0DOS-11 | 2026-09-02 13:03:11 | 50.98565 | 8.37739 | 127° | 115km/h | 10314m | -7.2m/s | -49.9°C | 59% | 262.8hPa | 2.6V | 08:06:04 | 02:45:16 | 00:00:00 | |
| DB0DAN | 2026-09-02 13:03:10 | 50.98565 | 8.37739 | 128° | 110km/h | 10314m | -7.2m/s | -49.9°C | 52.3% | 262.83hPa | 2.6V | 00:00:00 | 00:00:00 | 00:00:00 | |
| DL3AQ-11 | 2026-09-02 13:03:10 | 50.98583 | 8.37702 | 127° | 115km/h | 10321m | -7.4m/s | -50.0°C | 51.4% | 262.6hPa | 2.6V | 00:00:00 | 00:00:00 | 00:00:00 | |
| DL8DAS-14 | 2026-09-02 13:03:09 | 50.98583 | 8.37702 | 127° | 115km/h | 10321m | -7.4m/s | -50.0°C | 51.4% | 262.6hPa | 2.6V | 00:00:00 | 00:00:00 | 00:00:00 | |
| DL1XH1-15 | 2026-09-02 13:03:08 | 50.98655 | 8.37554 | 128° | 117km/h | 10349m | -7.2m/s | -50.1°C | 53.3% | 261.4hPa | 2.6V | 08:06:09 | 02:45:11 | 00:00:00 | |
| DL1XH-west | 2026-09-02 13:03:07 | 50.98619 | 8.37628 | 128° | 117km/h | 10335m | -7.2m/s | -50°C | 57.2% | 262hPa | 2.5V | 08:06:26 | 02:45:13 | 00:00:00 | |
| HSKMA3-T | 2026-09-02 13:03:04 | 50.98674 | 8.37517 | 128° | 117km/h | 10356m | -6.8m/s | -50.2°C | 53.9% | 261.1hPa | 2.5V | 08:06:26 | 02:45:10 | 00:00:00 | |
| BIOWL1-15 | 2026-09-02 13:03:03 | 50.98804 | 8.37261 | 130° | 117km/h | 10406m | -7.4m/s | -50.4°C | 45.6% | 259.1hPa | 2.5V | 08:06:26 | 02:45:03 | 00:00:00 | |
| DD8BA-10 | 2026-09-02 13:03:03 | 50.98692 | 8.37480 | 129° | 117km/h | 10363m | -7.4m/s | -50.2°C | 51.6% | 260.8hPa | 2.6V | 00:00:00 | 00:00:00 | 00:00:00 | |
| DJ2DS-15 | 2026-09-02 13:03:02 | 50.98710 | 8.37443 | 129° | 119km/h | 10371m | -7.2m/s | -50.2°C | 50.7% | 260.5hPa | 2.6V | 00:00:00 | 02:45:08 | 00:00:00 | |
| DM0DOS-11 | 2026-09-02 13:03:01 | 50.98748 | 8.37370 | 128° | 117km/h | 10384m | -6.7m/s | -50.3°C | 48.3% | 260hPa | 2.6V | 08:06:14 | 02:45:06 | 00:00:00 | |
| DL1NUX | 2026-09-02 13:02:59 | 50.98804 | 8.37261 | 129° | 117km/h | 10406m | -7.4m/s | -50.4°C | 44.1% | 259.1hPa | 2.5V | 08:06:17 | 02:45:03 | 00:00:00 | |
| DL1XH1-15 | 2026-09-02 13:02:58 | 50.98842 | 8.37189 | 130° | 119km/h | 10420m | -7m/s | -50.4°C | 41.2% | 258.5hPa | 2.5V | 08:06:19 | 02:45:01 | 00:00:00 | |
| DL1XH-west | 2026-09-02 13:02:56 | 50.98823 | 8.37225 | 130° | 119km/h | 10413m | -6.8m/s | -50.4°C | 44.4% | 258.8hPa | 2.5V | 08:06:26 | 02:45:02 | 00:00:00 | |
| HSKMA3-T | 2026-09-02 13:02:53 | 50.98881 | 8.37117 | 130° | 117km/h | 10434m | -7.3m/s | -50.4°C | 41% | 258hPa | 2.6V | 08:06:26 | 02:44:59 | 00:00:00 | |
| AU51GT2 | 2026-09-02 13:02:51 | 50.98939 | 8.37008 | 130° | 117km/h | 10455m | -7.2m/s | -50.6°C | 31.6% | 257.2hPa | 2.6V | 00:00:00 | 00:00:00 | 00:00:00 | |
| SONCRA | 2026-09-02 13:02:50 | 50.98958 | 8.36972 | 130° | 117km/h | 10462m | -6.9m/s | -50.7°C | 30.8% | 256.9hPa | 2.6V | 00:00:00 | 00:00:00 | 00:00:00 | |
| DD1CC8 | 2026-09-02 13:02:49 | 50.98958 | 8.36972 | 130° | 117km/h | 10462m | -6.9m/s | -50.7°C | 30.8% | 256.9hPa | 2.6V | 00:00:00 | 00:00:00 | 00:00:00 | |
| DL1XH1-15 | 2026-09-02 13:02:48 | 50.99036 | 8.36826 | 129° | 120km/h | 10491m | -6.8m/s | -50.8°C | 33.2% | 255.7hPa | 2.6V | 08:06:29 | 02:44:51 | 00:00:00 | |
| DL1XH-west | 2026-09-02 13:02:46 | 50.99017 | 8.36863 | 130° | 119km/h | 10484m | -7.1m/s | -50.8°C | 35.5% | 256.1hPa | 2.6V | 08:07:17 | 02:44:52 | 00:00:00 | |
| DL3AQ-11 | 2026-09-02 13:02:46 | 50.99036 | 8.36826 | 129° | 119km/h | 10491m | -6.9m/s | -50.8°C | 28.1% | 255.8hPa | 2.6V | 00:00:00 | 00:00:00 | 00:00:00 | |
| DB0UT-7 | 2026-09-02 13:02:45 | 50.99036 | 8.36826 | 130° | 122km/h | 10491m | -6.8m/s | -50.8°C | 33.2% | 255.7hPa | 2.6V | 00:00:00 | 02:44:51 | 00:00:00 | |
| DO3DL | 2026-09-02 13:02:44 | 50.99075 | 8.36752 | 131° | 120km/h | 10505m | -7.1m/s | -50.9°C | 27.4% | 255.2hPa | 2.5V | 08:07:00 | 00:00:00 | 00:00:00 | |
| DL1NUX | 2026-09-02 13:02:43 | 50.99192 | 8.36530 | 130° | 119km/h | 10547m | -7.6m/s | -51°C | 31.2% | 253.6hPa | 2.5V | 08:06:37 | 02:44:43 | 00:00:00 | |
| HSKMA3-T | 2026-09-02 13:02:43 | 50.99095 | 8.36715 | 130° | 120km/h | 10512m | -6.7m/s | -50.9°C | 33.9% | 254.9hPa | 2.5V | 08:07:17 | 02:44:48 | 00:00:00 | |
| DM0DOS-11 | 2026-09-02 13:02:41 | 50.99134 | 8.36641 | 130° | 120km/h | 10525m | -7.4m/s | -50.9°C | 31.7% | 254.4hPa | 2.6V | 08:06:34 | 02:44:46 | 00:00:00 | |
| DB0DAN | 2026-09-02 13:02:40 | 50.99134 | 8.36641 | 130° | 115km/h | 10525m | -7.4m/s | -50.9°C | 26.7% | 254.41hPa | 2.6V | 00:00:00 | 00:00:00 | 00:00:00 | |
| DL1XH-west | 2026-09-02 13:02:36 | 50.99212 | 8.36494 | 130° | 119km/h | 10555m | -7.3m/s | -51.1°C | 32.8% | 253.3hPa | 2.6V | 08:07:17 | 02:44:42 | 00:00:00 | |
| BIOWL1-15 | 2026-09-02 13:02:36 | 50.99250 | 8.36421 | 130° | 119km/h | 10569m | -7m/s | -51.2°C | 32.3% | 252.7hPa | 2.6V | 08:07:17 | 02:44:40 | 00:00:00 | |
| DO9LL-15 | 2026-09-02 13:02:35 | 50.99231 | 8.36457 | 131° | 126km/h | 10562m | -6.8m/s | -51.1°C | 31.0% | 252.9hPa | 2.6V | 08:06:00 | 02:44:41 | 00:00:00 | |
| AM1SDL-15 | 2026-09-02 13:02:33 | 50.99269 | 8.36384 | 130° | 122km/h | 10576m | -6.9m/s | -51.1°C | 30.4% | 252.4hPa | 2.6V | 00:00:00 | 02:44:39 | 00:00:00 | |
| DL1NUX | 2026-09-02 13:02:32 | 50.99386 | 8.36154 | 128° | 124km/h | 10618m | -7m/s | -51.4°C | 29.2% | 250.8hPa | 2.6V | 08:06:47 | 02:44:33 | 00:00:00 | |
| DD8BA-10 | 2026-09-02 13:02:32 | 50.99289 | 8.36346 | 130° | 126km/h | 10583m | -7.1m/s | -51.2°C | 30.0% | 252.1hPa | 2.5V | 00:00:00 | 00:00:00 | 00:00:00 | |
| DM0DOS-11 | 2026-09-02 13:02:31 | 50.99328 | 8.36270 | 128° | 122km/h | 10597m | -7m/s | -51.3°C | 29.6% | 251.6hPa | 2.5V | 08:06:44 | 02:44:36 | 00:00:00 | |
| HSKMA3-T | 2026-09-02 13:02:31 | 50.99308 | 8.36309 | 129° | 122km/h | 10590m | -7.2m/s | -51.2°C | 31.4% | 251.8hPa | 2.5V | 08:07:17 | 02:44:37 | 00:00:00 | |
| DL4XJ-10 | 2026-09-02 13:02:31 | 50.99308 | 8.36308 | 130° | 99km/h | 10590m | -7.1m/s | -51.0°C | 0% | 0hPa | 2.5V | 00:00:00 | 00:00:00 | 00:00:00 | |
| DJ8HS-15 | 2026-09-02 13:02:30 | 50.99328 | 8.36270 | 129° | 126km/h | 10597m | -7.0m/s | -51.2°C | 29.6% | 251.6hPa | 2.5V | 00:00:00 | 02:44:36 | 00:00:00 | |
| DO3DL | 2026-09-02 13:02:29 | 50.99328 | 8.36270 | 130° | 122km/h | 10597m | -7.0m/s | -51.3°C | 24.7% | 251.6hPa | 2.5V | 08:07:00 | 00:00:00 | 00:00:00 | |
| DB0DAN | 2026-09-02 13:02:25 | 50.99424 | 8.36075 | 127° | 120km/h | 10632m | -7.6m/s | -51.4°C | 23.9% | 250.23hPa | 2.5V | 00:00:00 | 00:00:00 | 00:00:00 | |
| DM0DOS-11 | 2026-09-02 13:02:25 | 50.99520 | 8.35874 | 127° | 126km/h | 10668m | -7.3m/s | -51.4°C | 28.1% | 248.9hPa | 2.6V | 08:06:54 | 02:44:26 | 00:00:00 | |
| DL1XH-west | 2026-09-02 13:02:25 | 50.99424 | 8.36075 | 127° | 126km/h | 10632m | -7.6m/s | -51.4°C | 30.6% | 250.2hPa | 2.5V | 08:07:17 | 02:44:31 | 00:00:00 | |
| BIOWL1-15 | 2026-09-02 13:02:24 | 50.99540 | 8.35833 | 127° | 128km/h | 10675m | -6.7m/s | -51.5°C | 29.8% | 248.6hPa | 2.5V | 08:07:17 | 02:44:25 | 00:00:00 | |
| DL1NUX | 2026-09-02 13:02:22 | 50.99579 | 8.35752 | 127° | 128km/h | 10689m | -7.3m/s | -51.6°C | 27.9% | 248.1hPa | 2.5V | 08:06:57 | 02:44:23 | 00:00:00 | |
| HSKMA3-T | 2026-09-02 13:02:20 | 50.99521 | 8.35874 | 127° | 126km/h | 10668m | -7.3m/s | -51.4°C | 29.9% | 248.9hPa | 2.6V | 08:07:17 | 02:44:26 | 00:00:00 | |
| DL1XH-west | 2026-09-02 13:02:15 | 50.99619 | 8.35671 | 127° | 128km/h | 10703m | -6.8m/s | -51.7°C | 29.3% | 247.5hPa | 2.6V | 08:07:17 | 02:44:21 | 00:00:00 | |
| DB0UT-7 | 2026-09-02 13:02:15 | 50.99619 | 8.35671 | 128° | 130km/h | 10703m | -6.7m/s | -51.6°C | 27.8% | 247.5hPa | 2.6V | 00:00:00 | 00:00:00 | 00:00:00 | |
| DL4BBY-15 | 2026-09-02 13:02:14 | 50.99638 | 8.35630 | 128° | 130km/h | 10710m | -6.9m/s | -51.4°C | 0% | 0hPa | 2.6V | 00:00:00 | 00:00:00 | 00:00:00 | |
| DM0DOS-11 | 2026-09-02 13:02:13 | 50.99717 | 8.35466 | 126° | 130km/h | 10738m | -6.8m/s | -51.7°C | 26.9% | 246.1hPa | 2.6V | 08:07:04 | 02:44:16 | 00:00:00 | |
| DL1NUX | 2026-09-02 13:02:12 | 50.99776 | 8.35342 | 127° | 128km/h | 10760m | -7.4m/s | -51.8°C | 26.4% | 245.3hPa | 2.5V | 08:07:07 | 02:44:13 | 00:00:00 | |
| BIOWL1-15 | 2026-09-02 13:02:09 | 50.99736 | 8.35424 | 127° | 130km/h | 10745m | -7m/s | -51.7°C | 28.2% | 245.9hPa | 2.6V | 08:07:17 | 02:44:15 | 00:00:00 | |
| DO3MHA-11 | 2026-09-02 13:02:09 | 50.99736 | 8.35424 | 128° | 130km/h | 10745m | -6.9m/s | -51.7°C | 26.6% | 245.8hPa | 2.5V | 00:00:00 | 02:44:15 | 00:00:00 | |
| DL1XH1-15 | 2026-09-02 13:02:08 | 50.99816 | 8.35260 | 127° | 130km/h | 10775m | -7.1m/s | -51.8°C | 26.2% | 244.8hPa | 2.5V | 08:07:09 | 02:44:11 | 00:00:00 | |
| DL1XH-west | 2026-09-02 13:02:04 | 50.99856 | 8.35179 | 128° | 130km/h | 10789m | -6.9m/s | -51.9°C | 27.4% | 244.2hPa | 2.6V | 08:07:17 | 02:44:09 | 00:00:00 | |
| DM0DOS-11 | 2026-09-02 13:02:03 | 50.99916 | 8.35056 | 127° | 130km/h | 10810m | -7.5m/s | -51.9°C | 25.7% | 243.4hPa | 2.5V | 08:07:14 | 02:44:06 | 00:00:00 | |
| DL1NUX | 2026-09-02 13:02:02 | 50.99976 | 8.34932 | 127° | 130km/h | 10831m | -7.3m/s | -51.9°C | 25.1% | 242.7hPa | 2.6V | 08:07:17 | 02:44:03 | 00:00:00 | |
| HSKMA3-T | 2026-09-02 13:01:59 | 50.99936 | 8.35015 | 127° | 130km/h | 10817m | -7m/s | -51.9°C | 26.8% | 243.2hPa | 2.5V | 08:07:17 | 02:44:05 | 00:00:00 | |
| BIOWL1-15 | 2026-09-02 13:01:58 | 50.99956 | 8.34973 | 127° | 130km/h | 10824m | -7.1m/s | -51.9°C | 26.7% | 242.9hPa | 2.5V | 08:07:17 | 02:44:04 | 00:00:00 | |
| DL1XH1-15 | 2026-09-02 13:01:58 | 51.00016 | 8.34848 | 126° | 130km/h | 10846m | -7m/s | -51.9°C | 24.9% | 242.1hPa | 2.6V | 08:07:19 | 02:44:01 | 00:00:00 | |
| DL1XH-west | 2026-09-02 13:01:53 | 51.00075 | 8.34725 | 128° | 130km/h | 10868m | -7.3m/s | -52°C | 26.2% | 241.3hPa | 2.5V | 08:08:08 | 02:43:58 | 00:00:00 | |
| DM0DOS-11 | 2026-09-02 13:01:53 | 51.00116 | 8.34643 | 128° | 130km/h | 10882m | -7.3m/s | -52°C | 24.5% | 240.8hPa | 2.6V | 08:07:24 | 02:43:56 | 00:00:00 | |
| DL1NUX | 2026-09-02 13:01:52 | 51.00177 | 8.34524 | 129° | 128km/h | 10904m | -7.6m/s | -52.1°C | 24.1% | 239.9hPa | 2.5V | 08:07:27 | 02:43:53 | 00:00:00 | |
| DL3AQ-11 | 2026-09-02 13:01:50 | 51.00136 | 8.34603 | 129° | 128km/h | 10889m | -7.6m/s | -52.0°C | 19.9% | 240.5hPa | 2.6V | 00:00:00 | 00:00:00 | 00:00:00 | |
| AU51GT2 | 2026-09-02 13:01:49 | 51.00157 | 8.34564 | 129° | 128km/h | 10897m | -7.4m/s | -52.1°C | 19.7% | 240.2hPa | 2.6V | 00:00:00 | 00:00:00 | 00:00:00 | |
| DL1XH1-15 | 2026-09-02 13:01:48 | 51.00218 | 8.34445 | 129° | 126km/h | 10919m | -7.5m/s | -52.1°C | 23.8% | 239.4hPa | 2.6V | 08:07:29 | 02:43:51 | 00:00:00 | |
| BIOWL1-15 | 2026-09-02 13:01:48 | 51.00157 | 8.34564 | 129° | 128km/h | 10897m | -7.4m/s | -52.1°C | 25.7% | 240.2hPa | 2.5V | 08:08:08 | 02:43:54 | 00:00:00 | |
| DD1CC8 | 2026-09-02 13:01:47 | 51.00198 | 8.34484 | 129° | 126km/h | 10912m | -7.4m/s | -52.1°C | 19.4% | 239.7hPa | 2.5V | 00:00:00 | 00:00:00 | 00:00:00 | |
| DL1XH-west | 2026-09-02 13:01:43 | 51.00258 | 8.34366 | 129° | 126km/h | 10934m | -7.2m/s | -52.2°C | 25.1% | 238.8hPa | 2.5V | 08:08:08 | 02:43:49 | 00:00:00 | |
| DM0DOS-11 | 2026-09-02 13:01:43 | 51.00318 | 8.34246 | 127° | 128km/h | 10956m | -8m/s | -52.3°C | 23.3% | 238hPa | 2.5V | 08:07:34 | 02:43:46 | 00:00:00 | |
| DL1NUX | 2026-09-02 13:01:42 | 51.00378 | 8.34123 | 127° | 130km/h | 10978m | -7.6m/s | -52.4°C | 22.9% | 237.2hPa | 2.6V | 08:07:37 | 02:43:43 | 00:00:00 | |
| DJ2DS-15 | 2026-09-02 13:01:42 | 51.00278 | 8.34326 | 129° | 131km/h | 10941m | -7.4m/s | -52.2°C | 23.5% | 238.5hPa | 2.5V | 00:00:00 | 02:43:48 | 00:00:00 | |
| BUE01 | 2026-09-02 13:01:40 | 51.00338 | 8.34205 | 127° | 128km/h | 10964m | -7.3m/s | -52.3°C | 18.7% | 237.8hPa | 2.5V | 00:00:00 | 00:00:00 | 00:00:00 | |
| DO3MHA-11 | 2026-09-02 13:01:39 | 51.00338 | 8.34205 | 128° | 137km/h | 10964m | -7.2m/s | -52.3°C | 23.2% | 237.7hPa | 2.5V | 00:00:00 | 02:43:45 | 00:00:00 | |
| DL1XH1-15 | 2026-09-02 13:01:38 | 51.00418 | 8.34042 | 128° | 130km/h | 10993m | -7.2m/s | -52.5°C | 22.8% | 236.7hPa | 2.5V | 08:07:39 | 02:43:41 | 00:00:00 | |
| BIOWL1-15 | 2026-09-02 13:01:38 | 51.00358 | 8.34164 | 128° | 128km/h | 10971m | -7.2m/s | -52.4°C | 24.3% | 237.5hPa | 2.6V | 08:08:08 | 02:43:44 | 00:00:00 | |
| DL1XH-west | 2026-09-02 13:01:33 | 51.00458 | 8.33959 | 127° | 130km/h | 11007m | -7.3m/s | -52.4°C | 23.5% | 236.1hPa | 2.5V | 08:08:08 | 02:43:39 | 00:00:00 | |
| BIOWL1-15 | 2026-09-02 13:01:29 | 51.00617 | 8.33622 | 127° | 135km/h | 11066m | -6.8m/s | -52.6°C | 22.6% | 234hPa | 2.6V | 08:08:08 | 02:43:31 | 00:00:00 | |
| HSKMA3-T | 2026-09-02 13:01:28 | 51.00557 | 8.33749 | 127° | 131km/h | 11045m | -7.3m/s | -52.5°C | 22.8% | 234.8hPa | 2.5V | 08:08:59 | 02:43:34 | 00:00:00 | |
| DL1XH1-15 | 2026-09-02 13:01:28 | 51.00617 | 8.33622 | 127° | 135km/h | 11066m | -6.8m/s | -52.6°C | 22.4% | 234hPa | 2.6V | 08:07:49 | 02:43:31 | 00:00:00 | |
| DL1NUX | 2026-09-02 13:01:27 | 51.00577 | 8.33707 | 126° | 131km/h | 11052m | -7.4m/s | -52.5°C | 22.4% | 234.5hPa | 2.5V | 08:07:47 | 02:43:33 | 00:00:00 | |
| DJ2KF-10 | 2026-09-02 13:01:25 | 51.00617 | 8.33622 | 128° | 151km/h | 11067m | -6.8m/s | -52.6°C | 22.4% | 234.0hPa | 2.6V | 00:00:00 | 02:43:31 | 00:00:00 | |
| DD1CC2-15 | 2026-09-02 13:01:24 | 51.00617 | 8.33622 | 128° | 135km/h | 11067m | -6.8m/s | -52.6°C | 17.9% | 234.0hPa | 2.6V | 08:08:00 | 00:00:00 | 00:00:00 | |
| DM0DOS-11 | 2026-09-02 13:01:23 | 51.00722 | 8.33403 | 127° | 141km/h | 11103m | -7.5m/s | -52.8°C | 21.7% | 232.7hPa | 2.6V | 08:07:54 | 02:43:26 | 00:00:00 | |
| DL1XH-west | 2026-09-02 13:01:23 | 51.00659 | 8.33535 | 127° | 135km/h | 11080m | -7.2m/s | -52.7°C | 22.3% | 233.5hPa | 2.5V | 08:08:08 | 02:43:29 | 00:00:00 | |
| SO1NDE-10 | 2026-09-02 13:01:22 | 51.00679 | 8.33492 | 128° | 155km/h | 11088m | -7.5m/s | -52.7°C | 22.0% | 233.2hPa | 2.5V | 00:00:00 | 02:43:28 | 00:00:00 | |
| DD8BA-10 | 2026-09-02 13:01:21 | 51.00701 | 8.33447 | 128° | 146km/h | 11095m | -7.4m/s | -52.7°C | 21.8% | 232.9hPa | 2.5V | 00:00:00 | 00:00:00 | 00:00:00 | |
| DL1XH1-15 | 2026-09-02 13:01:18 | 51.00834 | 8.33175 | 127° | 146km/h | 11140m | -7.3m/s | -52.9°C | 21% | 231.3hPa | 2.5V | 08:07:59 | 02:43:21 | 00:00:00 | |
| HSKMA3-T | 2026-09-02 13:01:18 | 51.00766 | 8.33313 | 127° | 144km/h | 11117m | -7.6m/s | -52.9°C | 21.3% | 232.2hPa | 2.5V | 08:08:59 | 02:43:24 | 00:00:00 | |
| BIOWL1-15 | 2026-09-02 13:01:14 | 51.00856 | 8.33128 | 128° | 148km/h | 11147m | -6.7m/s | -52.9°C | 20.4% | 231.1hPa | 2.6V | 08:08:08 | 02:43:20 | 00:00:00 | |
| DL4BBY-15 | 2026-09-02 13:01:14 | 51.00856 | 8.33128 | 128° | 164km/h | 11147m | -6.6m/s | -52.7°C | 0% | 0hPa | 2.5V | 00:00:00 | 00:00:00 | 00:00:00 | |
| DM0DOS-11 | 2026-09-02 13:01:13 | 51.00949 | 8.32938 | 127° | 151km/h | 11177m | -8m/s | -52.7°C | 19.8% | 230hPa | 2.5V | 08:08:04 | 02:43:16 | 00:00:00 | |
| DL1NUX | 2026-09-02 13:01:12 | 51.01021 | 8.32792 | 128° | 157km/h | 11199m | -7.2m/s | -52.3°C | 19.2% | 229.2hPa | 2.6V | 08:08:07 | 02:43:13 | 00:00:00 | |
| DL1XH-west | 2026-09-02 13:01:12 | 51.00902 | 8.33034 | 128° | 150km/h | 11162m | -7.3m/s | -52.8°C | 19.9% | 230.6hPa | 2.6V | 08:08:08 | 02:43:18 | 00:00:00 | |
| HSKMA3-T | 2026-09-02 13:01:09 | 51.01021 | 8.32792 | 128° | 157km/h | 11199m | -7.2m/s | -52.3°C | 19.3% | 229.2hPa | 2.6V | 08:08:59 | 02:43:13 | 00:00:00 | |
| BIOWL1-15 | 2026-09-02 13:01:03 | 51.01122 | 8.32593 | 129° | 162km/h | 11228m | -7.2m/s | -52°C | 19.3% | 228.2hPa | 2.5V | 08:08:59 | 02:43:09 | 00:00:00 | |
| DM0DOS-11 | 2026-09-02 13:01:02 | 51.01201 | 8.32441 | 129° | 164km/h | 11249m | -7.4m/s | -51.9°C | 18.8% | 227.4hPa | 2.6V | 08:08:14 | 02:43:06 | 00:00:00 | |
| DL1NUX | 2026-09-02 13:01:02 | 51.01281 | 8.32289 | 129° | 164km/h | 11272m | -7.4m/s | -51.8°C | 18.9% | 226.7hPa | 2.5V | 08:08:17 | 02:43:03 | 00:00:00 | |
| DL1XH-west | 2026-09-02 13:01:01 | 51.01175 | 8.32492 | 130° | 164km/h | 11242m | -7.1m/s | -52°C | 19.4% | 227.7hPa | 2.6V | 08:08:59 | 02:43:07 | 00:00:00 | |
| DJ2DS-15 | 2026-09-02 13:01:01 | 51.01175 | 8.32492 | 130° | 168km/h | 11242m | -7.0m/s | -52.0°C | 18.9% | 227.7hPa | 2.5V | 00:00:00 | 02:43:07 | 00:00:00 | |
| DD8BA-10 | 2026-09-02 13:00:59 | 51.01228 | 8.32391 | 130° | 166km/h | 11257m | -8.3m/s | -51.7°C | 18.6% | 227.1hPa | 2.5V | 00:00:00 | 00:00:00 | 00:00:00 | |
| DL1XH1-15 | 2026-09-02 13:00:57 | 51.01335 | 8.32187 | 130° | 166km/h | 11287m | -7.1m/s | -51.6°C | 19% | 226.1hPa | 2.6V | 08:08:19 | 02:43:01 | 00:00:00 | |
| HSKMA3-T | 2026-09-02 13:00:56 | 51.01308 | 8.32238 | 130° | 166km/h | 11279m | -8m/s | -51.7°C | 19.7% | 226.4hPa | 2.6V | 08:08:59 | 02:43:02 | 00:00:00 | |
| DB0DAN | 2026-09-02 13:00:55 | 51.01335 | 8.32187 | 130° | 159km/h | 11287m | -7.1m/s | -51.6°C | 0% | 226.13hPa | 2.6V | 00:00:00 | 00:00:00 | 00:00:00 | |
| BIOWL1-15 | 2026-09-02 13:00:53 | 51.01500 | 8.31881 | 131° | 170km/h | 11330m | -7.3m/s | -51.4°C | 20.4% | 224.6hPa | 2.6V | 08:08:59 | 02:42:55 | 00:00:00 | |
| DM0DOS-11 | 2026-09-02 13:00:52 | 51.01472 | 8.31933 | 130° | 168km/h | 11323m | -7.5m/s | -51.4°C | 19% | 224.9hPa | 2.5V | 08:08:24 | 02:42:56 | 00:00:00 | |
| DL1NUX | 2026-09-02 13:00:52 | 51.01556 | 8.31779 | 130° | 170km/h | 11345m | -7.5m/s | -51.6°C | 19.4% | 224.1hPa | 2.6V | 08:08:27 | 02:42:53 | 00:00:00 | |
| DL1XH-west | 2026-09-02 13:00:50 | 51.01472 | 8.31933 | 131° | 168km/h | 11323m | -7.5m/s | -51.4°C | 20.3% | 224.9hPa | 2.5V | 08:08:59 | 02:42:56 | 00:00:00 | |
| HSKMA3-T | 2026-09-02 13:00:45 | 51.01613 | 8.31675 | 131° | 172km/h | 11360m | -7.3m/s | -51.7°C | 21% | 223.6hPa | 2.5V | 08:08:59 | 02:42:51 | 00:00:00 | |
| DL4BBY-15 | 2026-09-02 13:00:44 | 51.01642 | 8.31623 | 132° | 177km/h | 11367m | -7.2m/s | -51.5°C | 0% | 0hPa | 2.6V | 00:00:00 | 00:00:00 | 00:00:00 | |
| DD1CC2-15 | 2026-09-02 13:00:43 | 51.01642 | 8.31623 | 132° | 173km/h | 11368m | -7.3m/s | -51.8°C | 15.6% | 223.3hPa | 2.6V | 08:08:00 | 00:00:00 | 00:00:00 | |
| DL1NUX | 2026-09-02 13:00:42 | 51.01848 | 8.31267 | 133° | 173km/h | 11420m | -7.7m/s | -52°C | 20% | 221.5hPa | 2.6V | 08:08:37 | 02:42:43 | 00:00:00 | |
| DL1XH-west | 2026-09-02 13:00:40 | 51.01759 | 8.31418 | 133° | 172km/h | 11397m | -7.7m/s | -51.9°C | 21.5% | 222.3hPa | 2.5V | 08:08:59 | 02:42:46 | 00:00:00 | |
| DD8BA-10 | 2026-09-02 13:00:39 | 51.01788 | 8.31367 | 134° | 175km/h | 11405m | -7.6m/s | -51.9°C | 19.9% | 222.0hPa | 2.5V | 00:00:00 | 00:00:00 | 00:00:00 | |
| BUE01 | 2026-09-02 13:00:38 | 51.01848 | 8.31267 | 133° | 172km/h | 11420m | -7.7m/s | -52.1°C | 15.8% | 221.5hPa | 2.5V | 00:00:00 | 00:00:00 | 00:00:00 | |
| DL1XH1-15 | 2026-09-02 13:00:37 | 51.01908 | 8.31166 | 133° | 175km/h | 11435m | -7.7m/s | -52.1°C | 20.3% | 221hPa | 2.5V | 08:08:39 | 02:42:41 | 00:00:00 | |
| HSKMA3-T | 2026-09-02 13:00:35 | 51.01908 | 8.31166 | 134° | 175km/h | 11435m | -7.7m/s | -52.2°C | 21.8% | 221hPa | 2.5V | 08:08:59 | 02:42:41 | 00:00:00 | |
| DO9LL-15 | 2026-09-02 13:00:35 | 51.01908 | 8.31166 | 134° | 179km/h | 11436m | -7.7m/s | -52.1°C | 20.3% | 221.0hPa | 2.5V | 00:00:00 | 02:42:41 | 00:00:00 | |
| DL3OBA | 2026-09-02 13:00:34 | 51.01939 | 8.31115 | 135° | 175km/h | 11443m | -7.8m/s | -52.2°C | 16.1% | 220.7hPa | 2.5V | 08:08:00 | 00:00:00 | 00:00:00 | |
| DL1NUX | 2026-09-02 13:00:32 | 51.02158 | 8.30762 | 134° | 177km/h | 11499m | -7.6m/s | -52.4°C | 20.9% | 218.8hPa | 2.5V | 08:08:47 | 02:42:33 | 00:00:00 | |
| BIOWL1-15 | 2026-09-02 13:00:31 | 51.02158 | 8.30762 | 134° | 177km/h | 11499m | -7.6m/s | -52.4°C | 22.5% | 218.9hPa | 2.5V | 08:08:59 | 02:42:33 | 00:00:00 | |
| DL1XH-west | 2026-09-02 13:00:29 | 51.02095 | 8.30863 | 135° | 175km/h | 11483m | -8.2m/s | -52.3°C | 22.2% | 219.4hPa | 2.6V | 08:08:59 | 02:42:35 | 00:00:00 | |
| DD8BA-10 | 2026-09-02 13:00:29 | 51.02095 | 8.30863 | 135° | 179km/h | 11483m | -8.2m/s | 0°C | 0% | 0hPa | 2.6V | 00:00:00 | 00:00:00 | 00:00:00 | |
| DL1XH1-15 | 2026-09-02 13:00:26 | 51.02221 | 8.30661 | 135° | 179km/h | 11514m | -8m/s | -52.4°C | 20.9% | 218.3hPa | 2.5V | 08:08:49 | 02:42:31 | 00:00:00 | |
| HSKMA3-T | 2026-09-02 13:00:24 | 51.02253 | 8.30610 | 135° | 179km/h | 11523m | -8m/s | -52.4°C | 22.7% | 218hPa | 2.6V | 08:08:59 | 02:42:30 | 00:00:00 | |
| BIOWL1-15 | 2026-09-02 13:00:23 | 51.02480 | 8.30258 | 136° | 181km/h | 11578m | -7.7m/s | -52.8°C | 23.1% | 216.2hPa | 2.6V | 08:08:59 | 02:42:23 | 00:00:00 | |
| DL1NUX | 2026-09-02 13:00:22 | 51.02480 | 8.30258 | 136° | 181km/h | 11578m | -7.7m/s | -52.8°C | 21.5% | 216.2hPa | 2.6V | 08:08:57 | 02:42:23 | 00:00:00 | |
| SO1NDE-10 | 2026-09-02 13:00:22 | 51.02317 | 8.30509 | 136° | 181km/h | 11539m | -7.7m/s | -52.5°C | 21.3% | 217.4hPa | 2.5V | 00:00:00 | 02:42:28 | 00:00:00 | |
| DJ2DS-15 | 2026-09-02 13:00:21 | 51.02349 | 8.30459 | 136° | 181km/h | 11546m | -7.6m/s | -52.6°C | 21.3% | 217.2hPa | 2.5V | 08:08:00 | 02:42:27 | 00:00:00 | |
| DL1XH1-15 | 2026-09-02 13:00:20 | 51.02546 | 8.30158 | 136° | 181km/h | 11594m | -7.6m/s | -53°C | 21.6% | 215.6hPa | 2.5V | 08:08:59 | 02:42:21 | 00:00:00 | |
| DM0DOS-11 | 2026-09-02 13:00:20 | 51.02414 | 8.30358 | 136° | 181km/h | 11562m | -7.9m/s | -52.7°C | 21.5% | 216.7hPa | 2.5V | 08:08:55 | 02:42:25 | 00:00:00 | |
| DL1XH-west | 2026-09-02 13:00:18 | 51.02447 | 8.30308 | 136° | 179km/h | 11570m | -7.8m/s | -52.8°C | 23.1% | 216.4hPa | 2.6V | 08:08:59 | 02:42:24 | 00:00:00 | |
| HSKMA3-T | 2026-09-02 13:00:13 | 51.02612 | 8.30059 | 137° | 181km/h | 11609m | -7.5m/s | -53.1°C | 23% | 215.1hPa | 2.6V | 08:09:50 | 02:42:19 | 00:00:00 | |
| DL1XH-15 | 2026-09-02 13:00:12 | 51.02680 | 8.29960 | 137° | 183km/h | 11625m | -8m/s | -53.2°C | 21.4% | 214.5hPa | 2.6V | 08:09:03 | 02:42:17 | 00:00:00 | |
| NBG1-10 | 2026-09-02 13:00:12 | 51.02646 | 8.30009 | 138° | 108km/h | 11617m | -7.9m/s | -53.1°C | 21.5% | 214.8hPa | 2.5V | 00:00:00 | 02:42:18 | 00:00:00 | |
| DM0DOS-11 | 2026-09-02 13:00:10 | 51.02747 | 8.29861 | 137° | 183km/h | 11641m | -7.7m/s | -53.2°C | 21.3% | 214hPa | 2.5V | 08:09:05 | 02:42:15 | 00:00:00 | |
| DL1XH1-15 | 2026-09-02 13:00:10 | 51.02917 | 8.29617 | 138° | 181km/h | 11680m | -7.7m/s | -53.4°C | 20.8% | 212.7hPa | 2.6V | 08:09:10 | 02:42:10 | 00:00:00 | |
| DL1XH-west | 2026-09-02 13:00:08 | 51.02781 | 8.29812 | 138° | 181km/h | 11649m | -7.9m/s | -53.3°C | 22.5% | 213.8hPa | 2.5V | 08:09:50 | 02:42:14 | 00:00:00 | |
| BIOWL1-15 | 2026-09-02 13:00:07 | 51.02815 | 8.29763 | 138° | 183km/h | 11657m | -7.9m/s | -53.3°C | 22.4% | 213.5hPa | 2.5V | 08:09:50 | 02:42:13 | 00:00:00 | |
| HSKMA3-T | 2026-09-02 13:00:02 | 51.02985 | 8.29520 | 138° | 181km/h | 11696m | -7.5m/s | -53.5°C | 21.9% | 212.2hPa | 2.5V | 08:09:50 | 02:42:08 | 00:00:00 | |
| DL1XH-15 | 2026-09-02 13:00:02 | 51.03019 | 8.29472 | 138° | 179km/h | 11704m | -8.5m/s | -53.6°C | 20.6% | 212hPa | 2.5V | 08:09:13 | 02:42:07 | 00:00:00 | |
| AM1SDL-15 | 2026-09-02 13:00:01 | 51.03053 | 8.29424 | 139° | 183km/h | 11712m | -7.8m/s | -53.6°C | 20.5% | 211.6hPa | 2.6V | 00:00:00 | 02:42:06 | 00:00:00 | |
| GOEST3-10 | 2026-09-02 13:00:00 | 51.03053 | 8.29424 | 139° | 181km/h | 11712m | -7.8m/s | -53.6°C | 20.5% | 211.6hPa | 2.6V | 08:09:00 | 00:00:00 | 00:00:00 | |
| DL1XH1-15 | 2026-09-02 12:59:59 | 51.03225 | 8.29183 | 138° | 184km/h | 11752m | -8.1m/s | -53.8°C | 19.6% | 210.3hPa | 2.6V | 08:09:19 | 02:42:01 | 00:00:00 | |
| DL1XH-west | 2026-09-02 12:59:57 | 51.03156 | 8.29279 | 139° | 181km/h | 11736m | -8.3m/s | -53.7°C | 21.1% | 210.9hPa | 2.5V | 08:09:50 | 02:42:03 | 00:00:00 | |
| DB0DAN | 2026-09-02 12:59:55 | 51.03225 | 8.29183 | 139° | 175km/h | 11752m | -8.1m/s | -53.8°C | 0% | 210.35hPa | 2.6V | 00:00:00 | 00:00:00 | 00:00:00 | |
| DJ2DS-15 | 2026-09-02 12:59:55 | 51.03260 | 8.29134 | 139° | 183km/h | 11761m | -8.8m/s | -53.9°C | 15.0% | 210.1hPa | 2.5V | 00:00:00 | 00:00:00 | 00:00:00 | |
| DL1XH-15 | 2026-09-02 12:59:52 | 51.03365 | 8.28991 | 139° | 183km/h | 11785m | -7.7m/s | -54.1°C | 19.1% | 209.2hPa | 2.5V | 08:09:23 | 02:41:57 | 00:00:00 | |
| DL1NUX | 2026-09-02 12:59:52 | 51.03505 | 8.28805 | 139° | 179km/h | 11817m | -8.1m/s | -54.3°C | 18.2% | 208.2hPa | 2.6V | 08:09:27 | 02:41:53 | 00:00:00 | |
| HSKMA3-T | 2026-09-02 12:59:51 | 51.03365 | 8.28991 | 140° | 183km/h | 11785m | -7.7m/s | -54.1°C | 19.8% | 209.2hPa | 2.5V | 08:09:50 | 02:41:57 | 00:00:00 | |
| DL3AQ-11 | 2026-09-02 12:59:50 | 51.03435 | 8.28897 | 140° | 179km/h | 11802m | -7.9m/s | -54.2°C | 14.3% | 208.8hPa | 2.5V | 00:00:00 | 00:00:00 | 00:00:00 | |
| DL1XH1-15 | 2026-09-02 12:59:49 | 51.03573 | 8.28714 | 140° | 177km/h | 11833m | -8.2m/s | -54.4°C | 17.7% | 207.7hPa | 2.5V | 08:09:29 | 02:41:51 | 00:00:00 | |
| DL1XH-west | 2026-09-02 12:59:47 | 51.03505 | 8.28805 | 140° | 179km/h | 11817m | -8.1m/s | -54.3°C | 18.6% | 208.2hPa | 2.6V | 08:09:50 | 02:41:53 | 00:00:00 | |
| BIOWL1-15 | 2026-09-02 12:59:47 | 51.03641 | 8.28623 | 140° | 175km/h | 11849m | -8.2m/s | -54.6°C | 17% | 207.2hPa | 2.5V | 08:09:50 | 02:41:49 | 00:00:00 | |
| AU51GT2 | 2026-09-02 12:59:45 | 51.03607 | 8.28668 | 140° | 173km/h | 11841m | -7.7m/s | -54.5°C | 13.2% | 207.4hPa | 2.6V | 00:00:00 | 00:00:00 | 00:00:00 | |
| DL4BBY-15 | 2026-09-02 12:59:44 | 51.03607 | 8.28668 | 141° | 159km/h | 11841m | -7.6m/s | -54.3°C | 0% | 0hPa | 2.6V | 00:00:00 | 00:00:00 | 00:00:00 | |
| SONCRA | 2026-09-02 12:59:43 | 51.03641 | 8.28623 | 140° | 173km/h | 11849m | -8.2m/s | -54.6°C | 12.9% | 207.2hPa | 2.6V | 00:00:00 | 00:00:00 | 00:00:00 | |
| DL1XH-15 | 2026-09-02 12:59:42 | 51.03709 | 8.28534 | 140° | 173km/h | 11865m | -8.7m/s | -54.6°C | 16.5% | 206.7hPa | 2.6V | 08:09:33 | 02:41:47 | 00:00:00 | |
| HSKMA3-T | 2026-09-02 12:59:41 | 51.03709 | 8.28534 | 140° | 173km/h | 11865m | -8.7m/s | -54.6°C | 16.1% | 206.7hPa | 2.6V | 08:09:50 | 02:41:47 | 00:00:00 | |
| DB0DAN | 2026-09-02 12:59:40 | 51.03742 | 8.28490 | 140° | 164km/h | 11873m | -7.5m/s | -54.6°C | 0% | 206.41hPa | 2.5V | 00:00:00 | 00:00:00 | 00:00:00 | |
| DM0DOS-11 | 2026-09-02 12:59:39 | 51.03775 | 8.28446 | 140° | 172km/h | 11881m | -8.3m/s | -54.6°C | 15.5% | 206.2hPa | 2.5V | 08:09:35 | 02:41:45 | 00:00:00 | |
| DL1XH1-15 | 2026-09-02 12:59:39 | 51.03905 | 8.28271 | 139° | 166km/h | 11913m | -8.4m/s | -54.5°C | 13.8% | 205.2hPa | 2.6V | 08:09:39 | 02:41:41 | 00:00:00 | |
| DL1XH-west | 2026-09-02 12:59:37 | 51.03841 | 8.28358 | 140° | 168km/h | 11898m | -8.1m/s | -54.7°C | 14.1% | 205.7hPa | 2.6V | 08:09:50 | 02:41:43 | 00:00:00 | |
| BUE01 | 2026-09-02 12:59:35 | 51.03906 | 8.28271 | 139° | 164km/h | 11913m | -8.4m/s | -54.5°C | 9.9% | 205.2hPa | 2.6V | 00:00:00 | 00:00:00 | 00:00:00 | |
| DM0DOS-11 | 2026-09-02 12:59:34 | 51.04091 | 8.28013 | 137° | 161km/h | 11962m | -7.9m/s | -54.7°C | 12.4% | 203.6hPa | 2.6V | 08:09:45 | 02:41:35 | 00:00:00 | |
| BIOWL1-15 | 2026-09-02 12:59:34 | 51.03969 | 8.28185 | 139° | 164km/h | 11929m | -8.3m/s | -54.5°C | 12.3% | 204.6hPa | 2.5V | 08:09:50 | 02:41:39 | 00:00:00 | |
| HSKMA3-T | 2026-09-02 12:59:30 | 51.04061 | 8.28056 | 138° | 161km/h | 11954m | -7.9m/s | -54.6°C | 11.4% | 203.8hPa | 2.6V | 08:09:50 | 02:41:36 | 00:00:00 | |
| DL1XH-west | 2026-09-02 12:59:26 | 51.04179 | 8.27885 | 137° | 155km/h | 11986m | -8.5m/s | -54.6°C | 10.2% | 202.9hPa | 2.5V | 08:09:50 | 02:41:32 | 00:00:00 | |
| DB0DAN | 2026-09-02 12:59:25 | 51.04208 | 8.27843 | 137° | 148km/h | 11994m | -7.9m/s | -54.5°C | 0% | 202.54hPa | 2.5V | 00:00:00 | 00:00:00 | 00:00:00 | |
| DJ2KF-10 | 2026-09-02 12:59:25 | 51.04208 | 8.27843 | 138° | 139km/h | 11994m | -7.8m/s | -54.5°C | 11.4% | 202.5hPa | 2.6V | 00:00:00 | 02:41:31 | 00:00:00 | |
| DO1YAY-16 | 2026-09-02 12:59:24 | 51.04237 | 8.27801 | 137° | 151km/h | 12002m | -8.2m/s | -54.5°C | 7.5% | 202.3hPa | 2.6V | 00:00:00 | 00:00:00 | 00:00:00 | |
| DM0DOS-11 | 2026-09-02 12:59:23 | 51.04374 | 8.27595 | 136° | 148km/h | 12042m | -7.7m/s | -54.3°C | 10.3% | 201.1hPa | 2.6V | 08:09:55 | 02:41:25 | 00:00:00 | |
| BIOWL1-15 | 2026-09-02 12:59:23 | 51.04320 | 8.27677 | 137° | 148km/h | 12026m | -8.1m/s | -54.4°C | 9% | 201.6hPa | 2.5V | 08:10:41 | 02:41:27 | 00:00:00 | |
| HSKMA3-T | 2026-09-02 12:59:20 | 51.04347 | 8.27636 | 136° | 148km/h | 12035m | -7.9m/s | -54.3°C | 8.8% | 201.4hPa | 2.5V | 08:10:41 | 02:41:26 | 00:00:00 | |
| DL1XH-west | 2026-09-02 12:59:15 | 51.04480 | 8.27431 | 135° | 144km/h | 12075m | -8m/s | -54.5°C | 8% | 200.1hPa | 2.5V | 08:10:41 | 02:41:21 | 00:00:00 | |
| DD8BA-10 | 2026-09-02 12:59:15 | 51.04480 | 8.27431 | 135° | 137km/h | 12075m | -8.0m/s | -54.4°C | 10.1% | 200.0hPa | 2.5V | 00:00:00 | 00:00:00 | 00:00:00 | |
| AU51GT2 | 2026-09-02 12:59:14 | 51.04530 | 8.27349 | 133° | 141km/h | 12091m | -8.5m/s | -54.4°C | 6.3% | 199.6hPa | 2.5V | 00:00:00 | 00:00:00 | 00:00:00 | |
| DM0DOS-11 | 2026-09-02 12:59:13 | 51.04626 | 8.27187 | 132° | 137km/h | 12124m | -8.2m/s | -54.2°C | 9.2% | 198.5hPa | 2.5V | 08:10:05 | 02:41:15 | 00:00:00 | |
| BIOWL1-15 | 2026-09-02 12:59:12 | 51.04578 | 8.27267 | 133° | 139km/h | 12108m | -8.3m/s | -54.2°C | 7.4% | 199hPa | 2.6V | 08:10:41 | 02:41:17 | 00:00:00 | |
| DL1NUX | 2026-09-02 12:59:12 | 51.04671 | 8.27107 | 132° | 133km/h | 12140m | -8.2m/s | -54°C | 9% | 198.1hPa | 2.5V | 08:10:07 | 02:41:13 | 00:00:00 | |
| HSKMA3-T | 2026-09-02 12:59:09 | 51.04626 | 8.27187 | 133° | 137km/h | 12124m | -8.2m/s | -54.2°C | 7.2% | 198.5hPa | 2.5V | 08:10:41 | 02:41:15 | 00:00:00 | |
| DL1XH-west | 2026-09-02 12:59:05 | 51.04716 | 8.27029 | 132° | 131km/h | 12156m | -8.5m/s | -53.7°C | 6.8% | 197.5hPa | 2.6V | 08:10:41 | 02:41:11 | 00:00:00 | |
| DO3DL | 2026-09-02 12:59:05 | 51.04716 | 8.27029 | 133° | 131km/h | 12156m | -8.5m/s | -53.7°C | 5.5% | 197.5hPa | 2.6V | 08:10:00 | 00:00:00 | 00:00:00 | |
| BUE01 | 2026-09-02 12:59:04 | 51.04738 | 8.26990 | 132° | 130km/h | 12164m | -7.9m/s | -53.6°C | 5.4% | 197.3hPa | 2.6V | 00:00:00 | 00:00:00 | 00:00:00 | |
| DM0DOS-11 | 2026-09-02 12:59:03 | 51.04847 | 8.26794 | 131° | 131km/h | 12205m | -8.2m/s | -52.7°C | 8% | 196hPa | 2.6V | 08:10:15 | 02:41:05 | 00:00:00 | |
| DL1NUX | 2026-09-02 12:59:03 | 51.04891 | 8.26715 | 131° | 131km/h | 12221m | -8.3m/s | -52.5°C | 7.8% | 195.6hPa | 2.5V | 08:10:17 | 02:41:03 | 00:00:00 | |
| BIOWL1-15 | 2026-09-02 12:59:01 | 51.04804 | 8.26873 | 131° | 130km/h | 12188m | -8.1m/s | -53.1°C | 6.5% | 196.5hPa | 2.6V | 08:10:41 | 02:41:07 | 00:00:00 | |
| HSKMA3-T | 2026-09-02 12:58:59 | 51.04847 | 8.26794 | 131° | 131km/h | 12205m | -8.2m/s | -52.7°C | 6.3% | 196hPa | 2.6V | 08:10:41 | 02:41:05 | 00:00:00 | |
| DL1XH-15 | 2026-09-02 12:58:59 | 51.04869 | 8.26755 | 131° | 131km/h | 12213m | -7.8m/s | -52.6°C | 7.9% | 195.8hPa | 2.5V | 08:10:16 | 02:41:04 | 00:00:00 | |
| DL1XH-west | 2026-09-02 12:58:55 | 51.04935 | 8.26637 | 132° | 131km/h | 12237m | -8.1m/s | -52.3°C | 6.1% | 195.1hPa | 2.5V | 08:10:41 | 02:41:01 | 00:00:00 | |
| DJ2KF-10 | 2026-09-02 12:58:55 | 51.04935 | 8.26637 | 133° | 120km/h | 12237m | -8.0m/s | -52.3°C | 7.6% | 195.0hPa | 2.6V | 00:00:00 | 02:41:01 | 00:00:00 | |
| GOEST3-10 | 2026-09-02 12:58:53 | 51.04980 | 8.26560 | 134° | 124km/h | 12253m | -8.1m/s | -52.4°C | 7.6% | 194.5hPa | 2.6V | 00:00:00 | 00:00:00 | 00:00:00 | |
| DM0DOS-11 | 2026-09-02 12:58:52 | 51.05069 | 8.26411 | 133° | 126km/h | 12286m | -8.3m/s | -52.7°C | 7.4% | 193.5hPa | 2.5V | 08:10:25 | 02:40:55 | 00:00:00 | |
| DL1NUX | 2026-09-02 12:58:52 | 51.05112 | 8.26337 | 132° | 124km/h | 12304m | -8.5m/s | -52.8°C | 7.4% | 193hPa | 2.6V | 08:10:27 | 02:40:53 | 00:00:00 | |
| BIOWL1-15 | 2026-09-02 12:58:50 | 51.05047 | 8.26448 | 133° | 128km/h | 12278m | -8.7m/s | -52.6°C | 5.8% | 193.8hPa | 2.5V | 08:10:41 | 02:40:56 | 00:00:00 | |
| HSKMA3-T | 2026-09-02 12:58:49 | 51.05069 | 8.26411 | 133° | 126km/h | 12286m | -8.3m/s | -52.7°C | 5.7% | 193.6hPa | 2.5V | 08:10:41 | 02:40:55 | 00:00:00 | |
| DO3MHA-11 | 2026-09-02 12:58:48 | 51.05090 | 8.26374 | 134° | 120km/h | 12295m | -9.1m/s | -52.7°C | 7.4% | 193.2hPa | 2.6V | 00:00:00 | 02:40:54 | 00:00:00 | |
| DL1XH-15 | 2026-09-02 12:58:47 | 51.05154 | 8.26265 | 132° | 122km/h | 12320m | -8.1m/s | -52.8°C | 7.2% | 192.5hPa | 2.5V | 08:10:29 | 02:40:51 | 00:00:00 | |
| DL1XH-west | 2026-09-02 12:58:45 | 51.05154 | 8.26265 | 133° | 122km/h | 12321m | -8.1m/s | -52.8°C | 5.3% | 192.5hPa | 2.5V | 08:10:41 | 02:40:51 | 00:00:00 | |
| DB0UT-7 | 2026-09-02 12:58:45 | 51.05154 | 8.26265 | 133° | 115km/h | 12321m | -8.1m/s | -52.8°C | 7.2% | 192.5hPa | 2.5V | 00:00:00 | 02:40:51 | 00:00:00 | |
| DL4BBY-15 | 2026-09-02 12:58:44 | 51.05175 | 8.26230 | 133° | 113km/h | 12329m | -8.8m/s | -52.6°C | 0% | 0hPa | 2.5V | 00:00:00 | 00:00:00 | 00:00:00 | |
| AU51GT2 | 2026-09-02 12:58:43 | 51.05216 | 8.26159 | 132° | 119km/h | 12346m | -8.3m/s | -52.9°C | 4.1% | 191.8hPa | 2.5V | 00:00:00 | 00:00:00 | 00:00:00 | |
| DM0DOS-11 | 2026-09-02 12:58:42 | 51.05277 | 8.26053 | 132° | 119km/h | 12370m | -8m/s | -52.9°C | 6.7% | 191.1hPa | 2.5V | 08:10:35 | 02:40:45 | 00:00:00 | |
| DL1NUX | 2026-09-02 12:58:42 | 51.05317 | 8.25982 | 132° | 119km/h | 12386m | -8.1m/s | -53°C | 6.7% | 190.6hPa | 2.6V | 08:10:37 | 02:40:43 | 00:00:00 | |
| BIOWL1-15 | 2026-09-02 12:58:39 | 51.05277 | 8.26053 | 133° | 119km/h | 12370m | -8m/s | -52.9°C | 4.7% | 191.1hPa | 2.5V | 08:10:41 | 02:40:45 | 00:00:00 | |
| HSKMA3-T | 2026-09-02 12:58:38 | 51.05297 | 8.26018 | 132° | 119km/h | 12378m | -8.2m/s | -53°C | 4.6% | 190.8hPa | 2.5V | 08:10:41 | 02:40:44 | 00:00:00 | |
| DL1XH1-15 | 2026-09-02 12:58:38 | 51.05357 | 8.25912 | 131° | 117km/h | 12403m | -8.5m/s | -53°C | 6.6% | 190.1hPa | 2.5V | 08:10:39 | 02:40:41 | 00:00:00 | |
| DL1XH-west | 2026-09-02 12:58:34 | 51.05376 | 8.25877 | 132° | 115km/h | 12411m | -8m/s | -53°C | 4.3% | 189.9hPa | 2.5V | 08:10:41 | 02:40:40 | 00:00:00 | |
| AA1-15 | 2026-09-02 12:58:32 | 51.05414 | 8.25808 | 131° | 113km/h | 12427m | -8m/s | -52.9°C | 4.1% | 189.4hPa | 2.6V | 08:14:05 | 02:40:38 | 00:00:00 | |
| DL1NUX | 2026-09-02 12:58:32 | 51.05504 | 8.25635 | 128° | 110km/h | 12467m | -8.4m/s | -52.9°C | 6% | 188.2hPa | 2.5V | 08:10:47 | 02:40:33 | 00:00:00 | |
| BIOWL1-15 | 2026-09-02 12:58:30 | 51.05621 | 8.25390 | 127° | 110km/h | 12526m | -8.1m/s | -53°C | 3.1% | 186.5hPa | 2.5V | 08:11:32 | 02:40:26 | 00:00:00 | |
| DL3AQ-11 | 2026-09-02 12:58:30 | 51.05469 | 8.25704 | 129° | 111km/h | 12451m | -8.3m/s | -52.9°C | 3.4% | 188.7hPa | 2.6V | 00:00:00 | 00:00:00 | 00:00:00 | |
| DL1XH1-15 | 2026-09-02 12:58:28 | 51.05538 | 8.25565 | 127° | 110km/h | 12484m | -8.8m/s | -53°C | 5.9% | 187.7hPa | 2.6V | 08:10:49 | 02:40:31 | 00:00:00 | |
| HSKMA3-T | 2026-09-02 12:58:27 | 51.05504 | 8.25635 | 128° | 110km/h | 12467m | -8.4m/s | -52.9°C | 3.7% | 188.2hPa | 2.5V | 08:11:32 | 02:40:33 | 00:00:00 | |
| DO2KSM | 2026-09-02 12:58:26 | 51.05504 | 8.25635 | 129° | 110km/h | 12468m | -8.4m/s | -52.9°C | 3.3% | 188.2hPa | 2.6V | 08:11:00 | 00:00:00 | 00:00:00 | |
| DB0DAN | 2026-09-02 12:58:25 | 51.05538 | 8.25565 | 127° | 104km/h | 12484m | -8.8m/s | -53°C | 0% | 187.71hPa | 2.6V | 00:00:00 | 00:00:00 | 00:00:00 | |
| DL1XH-west | 2026-09-02 12:58:24 | 51.05555 | 8.25530 | 127° | 110km/h | 12493m | -8.4m/s | -53°C | 3.4% | 187.5hPa | 2.6V | 08:11:32 | 02:40:30 | 00:00:00 | |
| BIOWL1-15 | 2026-09-02 12:58:20 | 51.05654 | 8.25319 | 127° | 110km/h | 12543m | -8.6m/s | -53°C | 3.1% | 186hPa | 2.6V | 08:11:32 | 02:40:24 | 00:00:00 | |
| DO3DL | 2026-09-02 12:58:18 | 51.05638 | 8.25354 | 128° | 111km/h | 12534m | -8.3m/s | -53.0°C | 3.0% | 186.3hPa | 2.5V | 08:11:00 | 00:00:00 | 00:00:00 | |
| DL1XH1-15 | 2026-09-02 12:58:17 | 51.05706 | 8.25212 | 128° | 113km/h | 12568m | -8.3m/s | -53°C | 5.6% | 185.3hPa | 2.5V | 08:10:59 | 02:40:21 | 00:00:00 | |
| HSKMA3-T | 2026-09-02 12:58:16 | 51.05689 | 8.25248 | 127° | 113km/h | 12559m | -8.3m/s | -53°C | 3% | 185.5hPa | 2.5V | 08:11:32 | 02:40:22 | 00:00:00 | |
| DL1XH-west | 2026-09-02 12:58:13 | 51.05742 | 8.25140 | 127° | 115km/h | 12584m | -8.3m/s | -53°C | 2.8% | 184.8hPa | 2.6V | 08:11:32 | 02:40:19 | 00:00:00 | |
| DO3DL | 2026-09-02 12:58:12 | 51.05742 | 8.25140 | 128° | 115km/h | 12584m | -8.3m/s | -53.0°C | 2.9% | 184.8hPa | 2.5V | 08:11:00 | 00:00:00 | 00:00:00 | |
| DM0DOS-11 | 2026-09-02 12:58:11 | 51.05809 | 8.24989 | 123° | 117km/h | 12618m | -8.1m/s | -53.1°C | 5.4% | 183.8hPa | 2.5V | 08:11:05 | 02:40:15 | 00:00:00 | |
| DJ8HS-15 | 2026-09-02 12:58:10 | 51.05793 | 8.25028 | 125° | 119km/h | 12609m | -8.8m/s | -53.0°C | 5.5% | 184.1hPa | 2.6V | 00:00:00 | 02:40:16 | 00:00:00 | |
| DD1CC8 | 2026-09-02 12:58:09 | 51.05809 | 8.24989 | 123° | 115km/h | 12618m | -8.1m/s | -53.1°C | 2.7% | 183.9hPa | 2.6V | 00:00:00 | 00:00:00 | 00:00:00 | |
| DL1NUX | 2026-09-02 12:58:08 | 51.05841 | 8.24911 | 122° | 115km/h | 12635m | -8.2m/s | -53°C | 5.3% | 183.3hPa | 2.6V | 08:11:07 | 02:40:13 | 00:00:00 | |
| DL1XH1-15 | 2026-09-02 12:58:07 | 51.05872 | 8.24832 | 120° | 115km/h | 12652m | -8.4m/s | -53.1°C | 5.3% | 182.9hPa | 2.6V | 08:11:09 | 02:40:11 | 00:00:00 | |
| BIOWL1-15 | 2026-09-02 12:58:07 | 51.05841 | 8.24911 | 122° | 115km/h | 12635m | -8.2m/s | -53.1°C | 2.5% | 183.3hPa | 2.6V | 08:11:32 | 02:40:13 | 00:00:00 | |
| HSKMA3-T | 2026-09-02 12:58:07 | 51.05856 | 8.24872 | 122° | 117km/h | 12643m | -8.8m/s | -53°C | 2.5% | 183.1hPa | 2.6V | 08:11:32 | 02:40:12 | 00:00:00 | |
| DL1XH-west | 2026-09-02 12:58:03 | 51.05902 | 8.24751 | 121° | 117km/h | 12668m | -8.3m/s | -53.2°C | 2.4% | 182.4hPa | 2.5V | 08:11:32 | 02:40:09 | 00:00:00 | |
| DO2JMG | 2026-09-02 12:58:01 | 51.05933 | 8.24671 | 122° | 117km/h | 12685m | -8.4m/s | 0°C | 0% | 0hPa | 2.6V | 18:12:15 | 02:40:07 | 00:00:00 | |
| DJ2DS-15 | 2026-09-02 12:58:01 | 51.05933 | 8.24671 | 122° | 120km/h | 12685m | -8.3m/s | -53.2°C | 5.3% | 181.9hPa | 2.5V | 00:00:00 | 02:40:07 | 00:00:00 | |
| DM0DOS-11 | 2026-09-02 12:58:00 | 51.05965 | 8.24591 | 122° | 119km/h | 12702m | -8.4m/s | -53.1°C | 5.2% | 181.4hPa | 2.5V | 08:11:15 | 02:40:05 | 00:00:00 | |
| DL1XH-15 | 2026-09-02 12:58:00 | 51.05997 | 8.24511 | 122° | 119km/h | 12718m | -8.2m/s | -52.6°C | 5% | 181hPa | 2.5V | 08:11:17 | 02:40:03 | 00:00:00 | |
| DL8DAS-14 | 2026-09-02 12:57:59 | 51.05981 | 8.24551 | 122° | 117km/h | 12710m | -8.2m/s | -52.9°C | 2.5% | 181.2hPa | 2.6V | 00:00:00 | 00:00:00 | 00:00:00 | |
| DL1XH1-15 | 2026-09-02 12:57:57 | 51.06030 | 8.24431 | 124° | 119km/h | 12735m | -8.6m/s | -52.4°C | 4.8% | 180.5hPa | 2.6V | 08:11:19 | 02:40:01 | 00:00:00 | |
| BIOWL1-15 | 2026-09-02 12:57:56 | 51.06013 | 8.24471 | 124° | 119km/h | 12727m | -8.3m/s | -52.5°C | 2% | 180.7hPa | 2.6V | 08:11:32 | 02:40:02 | 00:00:00 | |
| HSKMA3-T | 2026-09-02 12:57:55 | 51.06030 | 8.24431 | 124° | 119km/h | 12735m | -8.6m/s | -52.5°C | 2% | 180.5hPa | 2.6V | 08:11:32 | 02:40:01 | 00:00:00 | |
| DL1XH-west | 2026-09-02 12:57:52 | 51.06082 | 8.24313 | 126° | 120km/h | 12760m | -8.6m/s | -52.2°C | 1.9% | 179.8hPa | 2.5V | 08:11:32 | 02:39:58 | 00:00:00 | |
| DO1YAY-16 | 2026-09-02 12:57:51 | 51.06100 | 8.24274 | 125° | 119km/h | 12769m | -8.9m/s | -52.2°C | 2.2% | 179.5hPa | 2.5V | 00:00:00 | 00:00:00 | 00:00:00 | |
| DL3AQ-11 | 2026-09-02 12:57:49 | 51.06136 | 8.24196 | 126° | 120km/h | 12787m | -9.2m/s | -52.3°C | 2.2% | 179.1hPa | 2.5V | 00:00:00 | 00:00:00 | 00:00:00 | |
| DB0NH | 2026-09-02 12:57:47 | 51.06173 | 8.24118 | 127° | 124km/h | 12805m | -8.5m/s | -52.0°C | 4.6% | 178.5hPa | 2.5V | 00:00:00 | 02:39:53 | 00:00:00 | |
| DL1XH1-15 | 2026-09-02 12:57:46 | 51.06210 | 8.24041 | 127° | 120km/h | 12822m | -8.7m/s | -52°C | 4.6% | 178.1hPa | 2.5V | 08:11:29 | 02:39:51 | 00:00:00 | |
| HSKMA3-T | 2026-09-02 12:57:44 | 51.06228 | 8.24002 | 128° | 120km/h | 12831m | -8.8m/s | -52°C | 1.8% | 177.9hPa | 2.5V | 08:11:32 | 02:39:50 | 00:00:00 | |
| DL1XH-west | 2026-09-02 12:57:42 | 51.06265 | 8.23925 | 127° | 122km/h | 12848m | -8.7m/s | -51.9°C | 1.8% | 177.4hPa | 2.6V | 08:11:32 | 02:39:48 | 00:00:00 | |
| DL1LOL-11 | 2026-09-02 12:57:42 | 51.06265 | 8.23925 | 128° | 122km/h | 12848m | -8.7m/s | -51.9°C | 2.1% | 177.4hPa | 2.5V | 08:11:00 | 00:00:00 | 00:00:00 | |
| DJ2DS-15 | 2026-09-02 12:57:41 | 51.06284 | 8.23885 | 127° | 126km/h | 12857m | -8.7m/s | -51.9°C | 4.5% | 177.1hPa | 2.5V | 00:00:00 | 02:39:47 | 00:00:00 | |
| DK9SH | 2026-09-02 12:57:40 | 51.06302 | 8.23846 | 127° | 122km/h | 12866m | -9.0m/s | -52.0°C | 2.1% | 176.9hPa | 2.5V | 08:12:00 | 00:00:00 | 00:00:00 | |
| SONCRA | 2026-09-02 12:57:39 | 51.06320 | 8.23806 | 125° | 122km/h | 12874m | -8.6m/s | -52.1°C | 2.1% | 176.7hPa | 2.5V | 00:00:00 | 00:00:00 | 00:00:00 | |
| DD1CC8 | 2026-09-02 12:57:38 | 51.06338 | 8.23765 | 125° | 124km/h | 12883m | -8.6m/s | -52.2°C | 2.1% | 176.4hPa | 2.5V | 00:00:00 | 00:00:00 | 00:00:00 | |
| DL1XH1-15 | 2026-09-02 12:57:36 | 51.06393 | 8.23639 | 124° | 130km/h | 12909m | -8.6m/s | -52.5°C | 4.6% | 175.7hPa | 2.5V | 08:11:39 | 02:39:41 | 00:00:00 | |
| HSKMA3-T | 2026-09-02 12:57:33 | 51.06430 | 8.23553 | 124° | 130km/h | 12926m | -8.8m/s | -52.6°C | 1.7% | 175.3hPa | 2.5V | 08:12:23 | 02:39:39 | 00:00:00 | |
| DL1XH-west | 2026-09-02 12:57:31 | 51.06466 | 8.23468 | 124° | 126km/h | 12944m | -8.6m/s | -52.6°C | 1.7% | 174.8hPa | 2.6V | 08:12:23 | 02:39:37 | 00:00:00 | |
| DF7PN | 2026-09-02 12:57:31 | 51.06484 | 8.23426 | 124° | 126km/h | 12952m | -8.9m/s | -52.7°C | 2.1% | 174.6hPa | 2.6V | 00:00:00 | 00:00:00 | 00:00:00 | |
| DL1XH1-15 | 2026-09-02 12:57:30 | 51.06574 | 8.23220 | 124° | 126km/h | 12996m | -8.5m/s | -52.7°C | 4.6% | 173.3hPa | 2.6V | 08:11:49 | 02:39:31 | 00:00:00 | |
| DJ8HS-15 | 2026-09-02 12:57:30 | 51.06484 | 8.23426 | 125° | 124km/h | 12952m | -8.8m/s | -52.6°C | 4.7% | 174.5hPa | 2.5V | 08:11:00 | 02:39:36 | 00:00:00 | |
| DL1XH-15 | 2026-09-02 12:57:29 | 51.06538 | 8.23302 | 125° | 124km/h | 12979m | -8.6m/s | -52.8°C | 4.7% | 173.9hPa | 2.6V | 08:11:47 | 02:39:33 | 00:00:00 | |
| HSKMA3-T | 2026-09-02 12:57:23 | 51.06610 | 8.23138 | 125° | 126km/h | 13014m | -8.9m/s | -52.2°C | 1.5% | 172.9hPa | 2.5V | 08:12:23 | 02:39:29 | 00:00:00 | |
| BIOWL1-15 | 2026-09-02 12:57:22 | 51.06722 | 8.22892 | 127° | 126km/h | 13067m | -8.9m/s | -52.3°C | 1.4% | 171.5hPa | 2.5V | 08:12:23 | 02:39:23 | 00:00:00 | |
| DM0DOS-11 | 2026-09-02 12:57:22 | 51.06684 | 8.22974 | 126° | 126km/h | 13050m | -8.6m/s | -52.2°C | 4.4% | 171.9hPa | 2.6V | 08:11:55 | 02:39:25 | 00:00:00 | |
| DL1XH-west | 2026-09-02 12:57:21 | 51.06647 | 8.23056 | 126° | 126km/h | 13032m | -8.9m/s | -52.1°C | 1.4% | 172.4hPa | 2.5V | 08:12:23 | 02:39:27 | 00:00:00 | |
| DJ2DS-15 | 2026-09-02 12:57:21 | 51.06647 | 8.23056 | 126° | 122km/h | 13032m | -8.9m/s | -52.1°C | 4.3% | 172.3hPa | 2.5V | 08:11:00 | 02:39:27 | 00:00:00 | |
| GOEST3-10 | 2026-09-02 12:57:20 | 51.06666 | 8.23014 | 127° | 126km/h | 13041m | -8.7m/s | -52.1°C | 4.4% | 172.1hPa | 2.5V | 00:00:00 | 02:39:26 | 00:00:00 | |
| DL1XH-15 | 2026-09-02 12:57:19 | 51.06722 | 8.22892 | 126° | 126km/h | 13067m | -8.9m/s | -52.3°C | 4.3% | 171.5hPa | 2.5V | 08:11:57 | 02:39:23 | 00:00:00 | |
| DL1XH1-15 | 2026-09-02 12:57:19 | 51.06760 | 8.22812 | 127° | 124km/h | 13085m | -8.8m/s | -52.4°C | 4.4% | 171hPa | 2.5V | 08:11:59 | 02:39:21 | 00:00:00 | |
| HSKMA3-T | 2026-09-02 12:57:13 | 51.06798 | 8.22734 | 128° | 122km/h | 13103m | -9.1m/s | -52.5°C | 1.4% | 170.6hPa | 2.6V | 08:12:23 | 02:39:19 | 00:00:00 | |
| DM0DOS-11 | 2026-09-02 12:57:12 | 51.06873 | 8.22579 | 128° | 120km/h | 13137m | -8.5m/s | -52.8°C | 4.4% | 169.6hPa | 2.6V | 08:12:05 | 02:39:15 | 00:00:00 | |
| DL1XH-west | 2026-09-02 12:57:10 | 51.06854 | 8.22617 | 128° | 120km/h | 13129m | -8.4m/s | -52.7°C | 1.4% | 169.9hPa | 2.5V | 08:12:23 | 02:39:16 | 00:00:00 | |
| AU51GT2 | 2026-09-02 12:57:10 | 51.06873 | 8.22579 | 128° | 120km/h | 13137m | -8.5m/s | -52.8°C | 2.0% | 169.6hPa | 2.5V | 00:00:00 | 00:00:00 | 00:00:00 | |
| DO3MHA-11 | 2026-09-02 12:57:08 | 51.06892 | 8.22540 | 129° | 119km/h | 13146m | -8.5m/s | -52.8°C | 4.4% | 169.4hPa | 2.5V | 00:00:00 | 02:39:14 | 00:00:00 | |
| DO3MHA-12 | 2026-09-02 12:57:07 | 51.06910 | 8.22503 | 128° | 117km/h | 13155m | -8.8m/s | -52.8°C | 4.4% | 169.1hPa | 2.5V | 00:00:00 | 02:39:13 | 00:00:00 | |
| GOEST3-10 | 2026-09-02 12:57:05 | 51.06947 | 8.22429 | 129° | 117km/h | 13173m | -8.7m/s | -52.9°C | 4.4% | 168.7hPa | 2.5V | 00:00:00 | 00:00:00 | 00:00:00 | |
| DD1CC3-15 | 2026-09-02 12:57:04 | 51.06947 | 8.22429 | 130° | 119km/h | 13173m | -8.7m/s | -53.0°C | 2.0% | 168.7hPa | 2.5V | 08:12:00 | 00:00:00 | 00:00:00 | |
| DL3OBA | 2026-09-02 12:57:03 | 51.06966 | 8.22392 | 129° | 117km/h | 13181m | -8.6m/s | -53.0°C | 1.9% | 168.5hPa | 2.5V | 08:12:00 | 00:00:00 | 00:00:00 | |
| DM0DOS-11 | 2026-09-02 12:57:02 | 51.07056 | 8.22207 | 127° | 115km/h | 13226m | -8.7m/s | -53.2°C | 4.5% | 167.3hPa | 2.5V | 08:12:15 | 02:39:05 | 00:00:00 | |
| HSKMA3-T | 2026-09-02 12:57:02 | 51.07002 | 8.22317 | 128° | 117km/h | 13199m | -9.3m/s | -53.2°C | 1.4% | 168hPa | 2.6V | 08:12:23 | 02:39:08 | 00:00:00 | |
| DL1XH-west | 2026-09-02 12:57:00 | 51.07038 | 8.22244 | 128° | 115km/h | 13218m | -8.9m/s | -53.3°C | 1.4% | 167.5hPa | 2.5V | 08:12:23 | 02:39:06 | 00:00:00 | |
| DF7PN | 2026-09-02 12:56:59 | 51.07074 | 8.22171 | 127° | 113km/h | 13236m | -9.0m/s | -53.3°C | 1.9% | 167.1hPa | 2.6V | 00:00:00 | 00:00:00 | 00:00:00 | |
| DL1XH-15 | 2026-09-02 12:56:58 | 51.07092 | 8.22135 | 127° | 113km/h | 13244m | -8.8m/s | -53.4°C | 4.5% | 166.9hPa | 2.6V | 08:12:17 | 02:39:03 | 00:00:00 | |
| BIOWL1-15 | 2026-09-02 12:56:58 | 51.07074 | 8.22171 | 128° | 115km/h | 13236m | -9m/s | -53.3°C | 1.3% | 167.1hPa | 2.6V | 08:12:23 | 02:39:04 | 00:00:00 | |
| DL8DAS-14 | 2026-09-02 12:56:57 | 51.07109 | 8.22100 | 127° | 111km/h | 13253m | -8.7m/s | -53.4°C | 1.9% | 166.6hPa | 2.6V | 00:00:00 | 00:00:00 | 00:00:00 | |
| DL3AQ-11 | 2026-09-02 12:56:56 | 51.07109 | 8.22100 | 127° | 111km/h | 13253m | -8.7m/s | -53.4°C | 1.9% | 166.6hPa | 2.6V | 00:00:00 | 00:00:00 | 00:00:00 | |
| EDDB2-11 | 2026-09-02 12:56:55 | 51.07143 | 8.22029 | 127° | 110km/h | 13272m | -9.1m/s | -53.5°C | 1.9% | 166.2hPa | 2.6V | 00:00:00 | 00:00:00 | 00:00:00 | |
| DJ2DS-15 | 2026-09-02 12:56:54 | 51.07143 | 8.22029 | 127° | 110km/h | 13272m | -9.1m/s | -53.5°C | 1.9% | 166.2hPa | 2.6V | 00:00:00 | 00:00:00 | 00:00:00 | |
| DB0ND-19 | 2026-09-02 12:56:53 | 51.07177 | 8.21960 | 128° | 106km/h | 13290m | -9.1m/s | -53.4°C | 1.8% | 165.7hPa | 2.6V | 00:00:00 | 00:00:00 | 00:00:00 | |
| DM0DOS-11 | 2026-09-02 12:56:52 | 51.07227 | 8.21860 | 128° | 104km/h | 13317m | -9m/s | -53.5°C | 4.4% | 165hPa | 2.6V | 08:12:25 | 02:38:55 | 00:00:00 | |
| HSKMA3-T | 2026-09-02 12:56:51 | 51.07194 | 8.21926 | 129° | 106km/h | 13299m | -8.6m/s | -53.5°C | 1.2% | 165.4hPa | 2.6V | 08:12:23 | 02:38:57 | 00:00:00 | |
| DL1XH-west | 2026-09-02 12:56:49 | 51.07227 | 8.21860 | 129° | 104km/h | 13317m | -9m/s | -53.5°C | 1.2% | 165hPa | 2.6V | 08:13:14 | 02:38:55 | 00:00:00 | |
| DL1XH-15 | 2026-09-02 12:56:48 | 51.07259 | 8.21795 | 126° | 102km/h | 13335m | -9.1m/s | -53.5°C | 4.4% | 164.5hPa | 2.5V | 08:12:27 | 02:38:53 | 00:00:00 | |
| BIOWL1-15 | 2026-09-02 12:56:48 | 51.07304 | 8.21696 | 125° | 100km/h | 13364m | -9.5m/s | -53.7°C | 1.1% | 163.8hPa | 2.6V | 08:13:14 | 02:38:50 | 00:00:00 | |
| DB0NH | 2026-09-02 12:56:47 | 51.07259 | 8.21795 | 127° | 68km/h | 13336m | -9.0m/s | -53.5°C | 4.4% | 164.5hPa | 2.6V | 00:00:00 | 02:38:53 | 00:00:00 | |
| DB0UT-7 | 2026-09-02 12:56:45 | 51.07289 | 8.21729 | 126° | 100km/h | 13355m | -9.6m/s | -53.6°C | 4.4% | 164.0hPa | 2.6V | 08:12:00 | 02:38:51 | 00:00:00 | |
| DM0DOS-11 | 2026-09-02 12:56:44 | 51.07374 | 8.21525 | 122° | 104km/h | 13409m | -8.8m/s | -53.7°C | 4.4% | 162.6hPa | 2.6V | 08:12:35 | 02:38:45 | 00:00:00 | |
| DD1CC3-15 | 2026-09-02 12:56:44 | 51.07304 | 8.21696 | 126° | 100km/h | 13364m | -9.5m/s | -53.7°C | 1.8% | 163.8hPa | 2.5V | 08:13:00 | 00:00:00 | 00:00:00 | |
| DL1XH-15 | 2026-09-02 12:56:42 | 51.07403 | 8.21455 | 123° | 106km/h | 13427m | -8.7m/s | -53.7°C | 4.4% | 162.2hPa | 2.5V | 08:12:37 | 02:38:43 | 00:00:00 | |
| HSKMA3-T | 2026-09-02 12:56:40 | 51.07360 | 8.21560 | 123° | 102km/h | 13400m | -8.8m/s | -53.6°C | 1% | 162.9hPa | 2.6V | 08:13:14 | 02:38:46 | 00:00:00 | |
| DL1XH-west | 2026-09-02 12:56:39 | 51.07374 | 8.21525 | 123° | 104km/h | 13409m | -8.8m/s | -53.7°C | 1% | 162.6hPa | 2.6V | 08:13:14 | 02:38:45 | 00:00:00 | |
| AU51GT2 | 2026-09-02 12:56:38 | 51.07388 | 8.21490 | 123° | 104km/h | 13418m | -9.6m/s | -53.7°C | 1.7% | 162.4hPa | 2.6V | 00:00:00 | 00:00:00 | 00:00:00 | |
| DO3MHA-12 | 2026-09-02 12:56:37 | 51.07403 | 8.21455 | 124° | 102km/h | 13427m | -8.6m/s | -53.7°C | 4.4% | 162.2hPa | 2.6V | 00:00:00 | 02:38:43 | 00:00:00 | |
| DD1CC8 | 2026-09-02 12:56:36 | 51.07418 | 8.21420 | 124° | 104km/h | 13436m | -9.2m/s | -53.7°C | 1.7% | 162.0hPa | 2.6V | 00:00:00 | 00:00:00 | 00:00:00 | |
| GOEST3-10 | 2026-09-02 12:56:35 | 51.07432 | 8.21386 | 125° | 104km/h | 13445m | -8.9m/s | -53.7°C | 4.4% | 161.7hPa | 2.6V | 00:00:00 | 00:00:00 | 00:00:00 | |
| BIOWL1-15 | 2026-09-02 12:56:35 | 51.07433 | 8.21386 | 125° | 104km/h | 13445m | -9m/s | -53.8°C | 1% | 161.8hPa | 2.5V | 08:13:14 | 02:38:41 | 00:00:00 | |
| DO3DL | 2026-09-02 12:56:34 | 51.07432 | 8.21386 | 126° | 104km/h | 13445m | -9.0m/s | -53.8°C | 1.7% | 161.8hPa | 2.6V | 08:13:00 | 00:00:00 | 00:00:00 | |
| DM0DOS-11 | 2026-09-02 12:56:33 | 51.07522 | 8.21183 | 124° | 100km/h | 13501m | -9.1m/s | -53.8°C | 4.3% | 160.3hPa | 2.6V | 08:12:45 | 02:38:35 | 00:00:00 | |
| HSKMA3-T | 2026-09-02 12:56:31 | 51.07507 | 8.21216 | 125° | 102km/h | 13491m | -9.3m/s | -53.9°C | 0.9% | 160.6hPa | 2.5V | 08:13:14 | 02:38:36 | 00:00:00 | |
| DL1XH-west | 2026-09-02 12:56:29 | 51.07522 | 8.21183 | 125° | 100km/h | 13501m | -9.1m/s | -53.8°C | 0.9% | 160.4hPa | 2.6V | 08:13:14 | 02:38:35 | 00:00:00 | |
| DO3DL | 2026-09-02 12:56:29 | 51.07522 | 8.21183 | 126° | 100km/h | 13501m | -9.1m/s | -53.8°C | 1.7% | 160.4hPa | 2.5V | 08:13:00 | 00:00:00 | 00:00:00 | |
| DL1XH1-15 | 2026-09-02 12:56:28 | 51.07580 | 8.21053 | 125° | 99km/h | 13538m | -9m/s | -53.4°C | 4.1% | 159.4hPa | 2.5V | 08:12:49 | 02:38:31 | 00:00:00 | |
| DF7PN | 2026-09-02 12:56:28 | 51.07551 | 8.21117 | 125° | 99km/h | 13519m | -9.0m/s | -53.6°C | 1.6% | 159.9hPa | 2.5V | 00:00:00 | 00:00:00 | 00:00:00 | |
| DO3MHA-12 | 2026-09-02 12:56:27 | 51.07551 | 8.21117 | 126° | 97km/h | 13519m | -9.0m/s | -53.5°C | 4.2% | 159.8hPa | 2.5V | 00:00:00 | 02:38:33 | 00:00:00 | |
| DB0DAN | 2026-09-02 12:56:25 | 51.07580 | 8.21053 | 125° | 93km/h | 13538m | -9m/s | -53.4°C | 0% | 159.43hPa | 2.5V | 00:00:00 | 00:00:00 | 00:00:00 | |
| BIOWL1-15 | 2026-09-02 12:56:25 | 51.07580 | 8.21053 | 125° | 99km/h | 13538m | -9m/s | -53.4°C | 0.8% | 159.4hPa | 2.5V | 08:13:14 | 02:38:31 | 00:00:00 | |
| AA1-15 | 2026-09-02 12:56:22 | 51.07622 | 8.20958 | 125° | 97km/h | 13565m | -9.1m/s | -53°C | 0.7% | 158.7hPa | 2.6V | 08:14:05 | 02:38:28 | 00:00:00 | |
| DB0ND-19 | 2026-09-02 12:56:22 | 51.07636 | 8.20926 | 124° | 95km/h | 13575m | -9.1m/s | -53.0°C | 1.5% | 158.5hPa | 2.5V | 00:00:00 | 00:00:00 | 00:00:00 | |
| DM0DOS-11 | 2026-09-02 12:56:21 | 51.07663 | 8.20863 | 123° | 95km/h | 13593m | -9.2m/s | -53°C | 4% | 158.1hPa | 2.5V | 08:12:55 | 02:38:25 | 00:00:00 | |
| HSKMA3-T | 2026-09-02 12:56:19 | 51.07663 | 8.20863 | 124° | 95km/h | 13593m | -9.2m/s | -53°C | 0.6% | 158.1hPa | 2.5V | 08:13:14 | 02:38:25 | 00:00:00 | |
| DL1XH-west | 2026-09-02 12:56:18 | 51.07676 | 8.20831 | 124° | 95km/h | 13602m | -9.2m/s | -53°C | 0.6% | 157.8hPa | 2.5V | 08:13:14 | 02:38:24 | 00:00:00 | |
| DL1XH1-15 | 2026-09-02 12:56:18 | 51.07715 | 8.20735 | 121° | 93km/h | 13629m | -9.2m/s | -53.2°C | 4% | 157.1hPa | 2.6V | 08:12:59 | 02:38:21 | 00:00:00 | |
| BIOWL1-15 | 2026-09-02 12:56:14 | 51.07727 | 8.20703 | 120° | 91km/h | 13638m | -8.8m/s | -53.3°C | 0.6% | 156.9hPa | 2.5V | 08:13:14 | 02:38:20 | 00:00:00 | |
| DM0DOS-11 | 2026-09-02 12:56:14 | 51.07780 | 8.20544 | 117° | 89km/h | 13684m | -9m/s | -53.5°C | 4.1% | 155.8hPa | 2.6V | 08:13:05 | 02:38:15 | 00:00:00 | |
| DL4BBY-15 | 2026-09-02 12:56:14 | 51.07727 | 8.20703 | 121° | 91km/h | 13639m | -8.8m/s | -53.1°C | 0% | 0hPa | 2.5V | 00:00:00 | 00:00:00 | 00:00:00 | |
| DL1NUX | 2026-09-02 12:56:12 | 51.07802 | 8.20480 | 119° | 91km/h | 13702m | -8.9m/s | -53.6°C | 4.2% | 155.4hPa | 2.5V | 08:13:07 | 02:38:13 | 00:00:00 | |
| AA1-15 | 2026-09-02 12:56:11 | 51.07759 | 8.20607 | 118° | 89km/h | 13666m | -9.1m/s | -53.4°C | 0.6% | 156.3hPa | 2.6V | 08:14:05 | 02:38:17 | 00:00:00 | |
| DJ8HS-15 | 2026-09-02 12:56:10 | 51.07770 | 8.20575 | 118° | 93km/h | 13675m | -9.0m/s | -53.4°C | 4.1% | 156.0hPa | 2.6V | 00:00:00 | 02:38:16 | 00:00:00 | |
| DL1XH1-15 | 2026-09-02 12:56:08 | 51.07826 | 8.20416 | 120° | 95km/h | 13719m | -9m/s | -53.7°C | 4.2% | 154.9hPa | 2.6V | 08:13:09 | 02:38:11 | 00:00:00 | |
| HSKMA3-T | 2026-09-02 12:56:08 | 51.07791 | 8.20512 | 119° | 89km/h | 13693m | -8.8m/s | -53.5°C | 0.7% | 155.6hPa | 2.5V | 08:13:14 | 02:38:14 | 00:00:00 | |
| DL1XH-west | 2026-09-02 12:56:07 | 51.07802 | 8.20480 | 120° | 91km/h | 13702m | -8.9m/s | -53.6°C | 0.7% | 155.4hPa | 2.5V | 08:13:14 | 02:38:13 | 00:00:00 | |
| DO3MHA-12 | 2026-09-02 12:56:07 | 51.07802 | 8.20480 | 120° | 95km/h | 13702m | -8.9m/s | -53.5°C | 4.2% | 155.3hPa | 2.6V | 00:00:00 | 02:38:13 | 00:00:00 | |
| DL3AQ-11 | 2026-09-02 12:56:06 | 51.07826 | 8.20416 | 120° | 93km/h | 13719m | -9.0m/s | -53.7°C | 1.5% | 155.0hPa | 2.6V | 00:00:00 | 00:00:00 | 00:00:00 | |
| GOEST3-10 | 2026-09-02 12:56:05 | 51.07826 | 8.20416 | 121° | 95km/h | 13719m | -9.0m/s | -53.6°C | 4.2% | 154.9hPa | 2.6V | 00:00:00 | 00:00:00 | 00:00:00 | |
| BIOWL1-15 | 2026-09-02 12:56:05 | 51.07873 | 8.20284 | 118° | 95km/h | 13756m | -9.2m/s | -53.9°C | 0.7% | 154.1hPa | 2.5V | 08:13:14 | 02:38:07 | 00:00:00 | |
| DO2KSM | 2026-09-02 12:56:03 | 51.07838 | 8.20383 | 121° | 93km/h | 13728m | -9.2m/s | -53.8°C | 1.6% | 154.7hPa | 2.6V | 08:13:00 | 00:00:00 | 00:00:00 | |
| DD8BA-10 | 2026-09-02 12:56:02 | 51.07862 | 8.20317 | 120° | 93km/h | 13746m | -9.0m/s | -53.8°C | 4.3% | 154.2hPa | 2.6V | 00:00:00 | 00:00:00 | 00:00:00 | |
| DM0DOS-11 | 2026-09-02 12:56:01 | 51.07895 | 8.20216 | 116° | 95km/h | 13774m | -9.3m/s | -54°C | 4.4% | 153.6hPa | 2.6V | 08:13:15 | 02:38:05 | 00:00:00 | |
| DJ2DS-15 | 2026-09-02 12:56:01 | 51.07873 | 8.20284 | 118° | 91km/h | 13756m | -9.1m/s | -53.9°C | 4.3% | 154.0hPa | 2.5V | 00:00:00 | 02:38:07 | 00:00:00 | |
| DO3MHA-11 | 2026-09-02 12:56:00 | 51.07884 | 8.20250 | 117° | 93km/h | 13765m | -9.3m/s | -54.0°C | 4.4% | 153.8hPa | 2.5V | 00:00:00 | 02:38:06 | 00:00:00 | |
| DL1XH1-15 | 2026-09-02 12:55:58 | 51.07938 | 8.20080 | 117° | 93km/h | 13811m | -9.8m/s | -53.2°C | 4% | 152.7hPa | 2.5V | 08:13:19 | 02:38:01 | 00:00:00 | |
| HSKMA3-T | 2026-09-02 12:55:58 | 51.07906 | 8.20182 | 116° | 95km/h | 13783m | -9.3m/s | -53.8°C | 0.7% | 153.4hPa | 2.6V | 08:14:05 | 02:38:04 | 00:00:00 | |
| DL1XH-west | 2026-09-02 12:55:56 | 51.07927 | 8.20114 | 117° | 95km/h | 13802m | -9.6m/s | -53.3°C | 0.6% | 153hPa | 2.5V | 08:14:05 | 02:38:02 | 00:00:00 | |
| BIOWL1-15 | 2026-09-02 12:55:52 | 51.07970 | 8.19983 | 118° | 89km/h | 13839m | -8.9m/s | -53°C | 0.5% | 152.1hPa | 2.5V | 08:14:05 | 02:37:58 | 00:00:00 | |
| DB0ND-19 | 2026-09-02 12:55:51 | 51.07991 | 8.19920 | 117° | 88km/h | 13858m | -9.5m/s | -52.7°C | 1.4% | 151.6hPa | 2.6V | 00:00:00 | 00:00:00 | 00:00:00 | |
| DL1XH-15 | 2026-09-02 12:55:50 | 51.08022 | 8.19826 | 117° | 88km/h | 13886m | -9.4m/s | -52.4°C | 3.8% | 151hPa | 2.6V | 08:13:27 | 02:37:53 | 00:00:00 | |
| DL3AQ-11 | 2026-09-02 12:55:50 | 51.08001 | 8.19889 | 117° | 88km/h | 13867m | -9.2m/s | -52.6°C | 1.3% | 151.4hPa | 2.6V | 00:00:00 | 00:00:00 | 00:00:00 | |
| DM0DOS-11 | 2026-09-02 12:55:49 | 51.08001 | 8.19889 | 117° | 88km/h | 13867m | -9.2m/s | -52.6°C | 3.8% | 151.4hPa | 2.6V | 08:13:25 | 02:37:55 | 00:00:00 | |
| DO2JMG | 2026-09-02 12:55:47 | 51.08022 | 8.19826 | 118° | 88km/h | 13886m | -9.4m/s | 0°C | 0% | 0hPa | 2.6V | 18:12:15 | 02:37:53 | 00:00:00 | |
| DL1XH-west | 2026-09-02 12:55:45 | 51.08043 | 8.19763 | 118° | 89km/h | 13905m | -9.4m/s | -52.2°C | 0.4% | 150.5hPa | 2.5V | 08:14:05 | 02:37:51 | 00:00:00 | |
| DB0UT-7 | 2026-09-02 12:55:45 | 51.08042 | 8.19763 | 118° | 86km/h | 13905m | -9.4m/s | -52.2°C | 3.8% | 150.5hPa | 2.5V | 00:00:00 | 02:37:51 | 00:00:00 | |
| DM0DOS-11 | 2026-09-02 12:55:44 | 51.08107 | 8.19573 | 119° | 89km/h | 13961m | -9.7m/s | -52.3°C | 3.9% | 149.2hPa | 2.5V | 08:13:35 | 02:37:45 | 00:00:00 | |
| DL4BBY-15 | 2026-09-02 12:55:44 | 51.08053 | 8.19731 | 118° | 86km/h | 13914m | -9.2m/s | -51.9°C | 0% | 0hPa | 2.6V | 00:00:00 | 00:00:00 | 00:00:00 | |
| DL1XH-15 | 2026-09-02 12:55:42 | 51.08130 | 8.19513 | 121° | 86km/h | 13981m | -9.3m/s | -52.4°C | 3.9% | 148.8hPa | 2.6V | 08:13:37 | 02:37:43 | 00:00:00 | |
| BIOWL1-15 | 2026-09-02 12:55:41 | 51.08085 | 8.19635 | 119° | 89km/h | 13942m | -9.5m/s | -52.2°C | 0.4% | 149.7hPa | 2.5V | 08:14:05 | 02:37:47 | 00:00:00 | |
| HSKMA3-T | 2026-09-02 12:55:37 | 51.08130 | 8.19513 | 121° | 86km/h | 13981m | -9.3m/s | -52.4°C | 0.5% | 148.8hPa | 2.6V | 08:14:05 | 02:37:43 | 00:00:00 | |
| AA1-15 | 2026-09-02 12:55:36 | 51.08152 | 8.19455 | 122° | 84km/h | 14000m | -9.6m/s | -52.5°C | 0.6% | 148.4hPa | 2.5V | 08:14:05 | 02:37:41 | 00:00:00 | |
| DL1XH-west | 2026-09-02 12:55:34 | 51.08163 | 8.19426 | 122° | 84km/h | 14009m | -9.5m/s | -52.5°C | 0.5% | 148.1hPa | 2.5V | 08:14:05 | 02:37:40 | 00:00:00 | |
| DL1NUX | 2026-09-02 12:55:32 | 51.08245 | 8.19214 | 123° | 89km/h | 14078m | -10.1m/s | -52.2°C | 3.9% | 146.6hPa | 2.5V | 08:13:47 | 02:37:33 | 00:00:00 | |
| BIOWL1-15 | 2026-09-02 12:55:31 | 51.08220 | 8.19276 | 122° | 91km/h | 14058m | -10.6m/s | -52.4°C | 0.6% | 147.1hPa | 2.6V | 08:14:05 | 02:37:35 | 00:00:00 | |
| DL1XH1-15 | 2026-09-02 12:55:31 | 51.08271 | 8.19155 | 125° | 88km/h | 14097m | -9.8m/s | -52°C | 3.8% | 146.2hPa | 2.6V | 08:13:49 | 02:37:31 | 00:00:00 | |
| HSKMA3-T | 2026-09-02 12:55:27 | 51.08245 | 8.19214 | 124° | 89km/h | 14078m | -10.1m/s | -52.2°C | 0.6% | 146.6hPa | 2.5V | 08:14:05 | 02:37:33 | 00:00:00 | |
| DL1XH-west | 2026-09-02 12:55:24 | 51.08283 | 8.19127 | 126° | 86km/h | 14107m | -9.7m/s | -52°C | 0.6% | 145.9hPa | 2.6V | 08:14:05 | 02:37:30 | 00:00:00 | |
| DL8DAS-14 | 2026-09-02 12:55:24 | 51.08296 | 8.19100 | 126° | 84km/h | 14117m | -9.8m/s | -52.0°C | 1.4% | 145.7hPa | 2.5V | 00:00:00 | 00:00:00 | 00:00:00 | |
| DM0DOS-11 | 2026-09-02 12:55:22 | 51.08345 | 8.18993 | 125° | 80km/h | 14156m | -10.7m/s | -52.2°C | 3.9% | 144.8hPa | 2.5V | 08:13:55 | 02:37:25 | 00:00:00 | |
| EDDB2-11 | 2026-09-02 12:55:22 | 51.08321 | 8.19046 | 126° | 82km/h | 14136m | -9.8m/s | -52.2°C | 1.4% | 145.3hPa | 2.6V | 00:00:00 | 00:00:00 | 00:00:00 | |
| DJ2DS-15 | 2026-09-02 12:55:21 | 51.08321 | 8.19045 | 127° | 73km/h | 14137m | -9.8m/s | -52.1°C | 3.8% | 145.2hPa | 2.6V | 00:00:00 | 02:37:27 | 00:00:00 | |
| DL1XH1-15 | 2026-09-02 12:55:20 | 51.08392 | 8.18891 | 126° | 77km/h | 14195m | -10.3m/s | -51.4°C | 3.6% | 143.9hPa | 2.6V | 08:13:59 | 02:37:21 | 00:00:00 | |
| BIOWL1-15 | 2026-09-02 12:55:19 | 51.08345 | 8.18993 | 126° | 80km/h | 14156m | -10.7m/s | -52.2°C | 0.5% | 144.8hPa | 2.5V | 08:14:05 | 02:37:25 | 00:00:00 | |
| HSKMA3-T | 2026-09-02 12:55:16 | 51.08380 | 8.18916 | 127° | 77km/h | 14185m | -9.9m/s | -51.6°C | 0.4% | 144.1hPa | 2.6V | 08:14:05 | 02:37:22 | 00:00:00 | |
| DL1XH-west | 2026-09-02 12:55:13 | 51.08414 | 8.18843 | 126° | 73km/h | 14215m | -10m/s | -51.4°C | 0.4% | 143.5hPa | 2.5V | 08:14:05 | 02:37:19 | 00:00:00 | |
| BIOWL7-15 | 2026-09-02 12:55:13 | 51.08414 | 8.18843 | 127° | 73km/h | 14215m | -10.0m/s | -51.4°C | 1.3% | 143.5hPa | 2.6V | 08:14:00 | 00:00:00 | 00:00:00 | |
| DM0DOS-11 | 2026-09-02 12:55:12 | 51.08457 | 8.18749 | 125° | 71km/h | 14255m | -10.3m/s | -51.5°C | 3.6% | 142.6hPa | 2.6V | 08:14:05 | 02:37:15 | 00:00:00 | |
| DL1XH-15 | 2026-09-02 12:55:12 | 51.08447 | 8.18772 | 125° | 71km/h | 14245m | -10.2m/s | -51.4°C | 3.6% | 142.8hPa | 2.5V | 08:14:04 | 02:37:16 | 00:00:00 | |
| DD8BA-10 | 2026-09-02 12:55:12 | 51.08425 | 8.18819 | 126° | 71km/h | 14225m | -9.7m/s | -51.2°C | 3.5% | 143.2hPa | 2.5V | 00:00:00 | 00:00:00 | 00:00:00 | |
| DL9SK-14 | 2026-09-02 12:55:11 | 51.08446 | 8.18772 | 125° | 71km/h | 14245m | -10.2m/s | -51.4°C | 1.3% | 142.8hPa | 2.5V | 00:00:00 | 00:00:00 | 00:00:00 | |
| DL1XH1-15 | 2026-09-02 12:55:10 | 51.08507 | 8.18633 | 122° | 68km/h | 14304m | -10m/s | -51.8°C | 3.7% | 141.6hPa | 2.5V | 08:14:10 | 02:37:10 | 00:00:00 | |
| BIOWL1-15 | 2026-09-02 12:55:08 | 51.08467 | 8.18725 | 125° | 71km/h | 14265m | -9.5m/s | -51.5°C | 0.4% | 142.4hPa | 2.6V | 08:14:56 | 02:37:14 | 00:00:00 | |
| HSKMA3-T | 2026-09-02 12:55:06 | 51.08487 | 8.18679 | 124° | 69km/h | 14284m | -10.2m/s | -51.6°C | 0.4% | 142hPa | 2.5V | 08:14:56 | 02:37:12 | 00:00:00 | |
| AA1-15 | 2026-09-02 12:55:03 | 51.08533 | 8.18562 | 117° | 68km/h | 14334m | -9.9m/s | -52°C | 0.5% | 140.9hPa | 2.5V | 08:14:56 | 02:37:07 | 00:00:00 | |
| DL1XH-west | 2026-09-02 12:55:02 | 51.08524 | 8.18586 | 119° | 68km/h | 14324m | -9.8m/s | -51.9°C | 0.5% | 141.1hPa | 2.6V | 08:14:56 | 02:37:08 | 00:00:00 | |
| BIOWL1-15 | 2026-09-02 12:55:02 | 51.08554 | 8.18490 | 115° | 66km/h | 14363m | -9.8m/s | -52.2°C | 0.5% | 140.3hPa | 2.6V | 08:14:56 | 02:37:04 | 00:00:00 | |
| DM0DOS-11 | 2026-09-02 12:55:02 | 51.08547 | 8.18514 | 115° | 68km/h | 14353m | -9.5m/s | -52.1°C | 3.8% | 140.4hPa | 2.6V | 08:14:15 | 02:37:05 | 00:00:00 | |
| HSKMA3-T | 2026-09-02 12:54:55 | 51.08575 | 8.18420 | 116° | 64km/h | 14392m | -10.5m/s | -52.3°C | 0.5% | 139.6hPa | 2.5V | 08:14:56 | 02:37:01 | 00:00:00 | |
| DF7PN | 2026-09-02 12:54:55 | 51.08582 | 8.18397 | 116° | 62km/h | 14402m | -9.5m/s | -52.4°C | 1.3% | 139.4hPa | 2.6V | 00:00:00 | 00:00:00 | 00:00:00 | |
| DL8DAS-14 | 2026-09-02 12:54:53 | 51.08597 | 8.18353 | 116° | 60km/h | 14421m | -9.7m/s | -52.4°C | 1.3% | 139.0hPa | 2.6V | 00:00:00 | 00:00:00 | 00:00:00 | |
| SO1NDE-10 | 2026-09-02 12:54:52 | 51.08597 | 8.18353 | 117° | 58km/h | 14422m | -9.6m/s | -52.3°C | 3.8% | 139.0hPa | 2.6V | 00:00:00 | 02:36:58 | 00:00:00 | |
| DL1XH-15 | 2026-09-02 12:54:51 | 51.08610 | 8.18310 | 116° | 58km/h | 14442m | -10.6m/s | -52.3°C | 3.7% | 138.6hPa | 2.5V | 08:14:24 | 02:36:56 | 00:00:00 | |
| DL1XH-west | 2026-09-02 12:54:51 | 51.08603 | 8.18331 | 116° | 58km/h | 14432m | -11m/s | -52.4°C | 0.5% | 138.8hPa | 2.5V | 08:14:56 | 02:36:57 | 00:00:00 | |
| AA1-15 | 2026-09-02 12:54:50 | 51.08610 | 8.18310 | 117° | 58km/h | 14442m | -10.6m/s | -52.3°C | 0.4% | 138.6hPa | 2.5V | 08:14:56 | 02:36:56 | 00:00:00 | |
| BIOWL1-15 | 2026-09-02 12:54:47 | 51.08629 | 8.18248 | 117° | 57km/h | 14473m | -9.3m/s | -52.2°C | 0.5% | 137.9hPa | 2.6V | 08:14:56 | 02:36:53 | 00:00:00 | |
| HSKMA3-T | 2026-09-02 12:54:44 | 51.08647 | 8.18187 | 116° | 55km/h | 14502m | -10.4m/s | -52.2°C | 0.4% | 137.3hPa | 2.5V | 08:14:56 | 02:36:50 | 00:00:00 | |
| DL1XH-west | 2026-09-02 12:54:41 | 51.08666 | 8.18127 | 115° | 57km/h | 14531m | -10m/s | -52.4°C | 0.4% | 136.6hPa | 2.6V | 08:14:56 | 02:36:47 | 00:00:00 | |
| DL1XH-15 | 2026-09-02 12:54:41 | 51.08672 | 8.18106 | 114° | 57km/h | 14542m | -11.1m/s | -52.4°C | 3.6% | 136.4hPa | 2.6V | 08:14:34 | 02:36:46 | 00:00:00 | |
| DJ2DS-15 | 2026-09-02 12:54:41 | 51.08666 | 8.18127 | 116° | 58km/h | 14532m | -9.9m/s | -52.3°C | 3.7% | 136.6hPa | 2.5V | 00:00:00 | 02:36:47 | 00:00:00 | |
| DM0DOS-11 | 2026-09-02 12:54:40 | 51.08678 | 8.18085 | 113° | 57km/h | 14552m | -10m/s | -52.5°C | 3.7% | 136.2hPa | 2.5V | 08:14:35 | 02:36:45 | 00:00:00 | |
| DL1NUX | 2026-09-02 12:54:40 | 51.08689 | 8.18044 | 112° | 57km/h | 14572m | -10.2m/s | -52.6°C | 3.7% | 135.8hPa | 2.6V | 08:14:37 | 02:36:43 | 00:00:00 | |
| AA1-15 | 2026-09-02 12:54:39 | 51.08678 | 8.18085 | 114° | 57km/h | 14552m | -10m/s | -52.5°C | 0.4% | 136.2hPa | 2.5V | 08:14:56 | 02:36:45 | 00:00:00 | |
| DL1XH1-15 | 2026-09-02 12:54:39 | 51.08700 | 8.18002 | 113° | 57km/h | 14593m | -10m/s | -52.8°C | 3.8% | 135.3hPa | 2.5V | 08:14:39 | 02:36:41 | 00:00:00 | |
| BIOWL1-15 | 2026-09-02 12:54:37 | 51.08725 | 8.17896 | 109° | 58km/h | 14644m | -10.2m/s | -53.2°C | 0.5% | 134.2hPa | 2.6V | 08:14:56 | 02:36:36 | 00:00:00 | |
| GOEST3-10 | 2026-09-02 12:54:35 | 51.08700 | 8.18002 | 114° | 57km/h | 14593m | -10.0m/s | -52.8°C | 3.8% | 135.3hPa | 2.5V | 00:00:00 | 00:00:00 | 00:00:00 | |
| DM0DOS-11 | 2026-09-02 12:54:34 | 51.08730 | 8.17874 | 110° | 58km/h | 14654m | -10.6m/s | -53.3°C | 3.9% | 134hPa | 2.5V | 08:14:45 | 02:36:35 | 00:00:00 | |
| HSKMA3-T | 2026-09-02 12:54:34 | 51.08711 | 8.17960 | 111° | 57km/h | 14613m | -10.1m/s | -53°C | 0.4% | 134.9hPa | 2.5V | 08:14:56 | 02:36:39 | 00:00:00 | |
| SONCRA | 2026-09-02 12:54:33 | 51.08716 | 8.17939 | 110° | 55km/h | 14623m | -10.2m/s | -53.1°C | 1.3% | 134.8hPa | 2.6V | 00:00:00 | 00:00:00 | 00:00:00 | |
| DD8BA-10 | 2026-09-02 12:54:32 | 51.08716 | 8.17939 | 111° | 60km/h | 14623m | -10.1m/s | -53.0°C | 3.8% | 134.7hPa | 2.6V | 00:00:00 | 00:00:00 | 00:00:00 | |
| DL1XH-15 | 2026-09-02 12:54:31 | 51.08725 | 8.17896 | 108° | 58km/h | 14644m | -10.2m/s | -53.2°C | 3.8% | 134.2hPa | 2.6V | 08:14:44 | 02:36:36 | 00:00:00 | |
| DL1XH-west | 2026-09-02 12:54:31 | 51.08721 | 8.17918 | 109° | 57km/h | 14633m | -11.1m/s | -53.1°C | 0.4% | 134.5hPa | 2.6V | 08:14:56 | 02:36:37 | 00:00:00 | |
| AA1-15 | 2026-09-02 12:54:29 | 51.08730 | 8.17874 | 110° | 58km/h | 14654m | -10.6m/s | -53.3°C | 0.5% | 134hPa | 2.5V | 08:14:56 | 02:36:35 | 00:00:00 | |
| DO3MHA-11 | 2026-09-02 12:54:28 | 51.08735 | 8.17852 | 110° | 62km/h | 14665m | -9.9m/s | -53.4°C | 3.9% | 133.8hPa | 2.6V | 00:00:00 | 02:36:34 | 00:00:00 | |
| DO3DL | 2026-09-02 12:54:27 | 51.08740 | 8.17830 | 112° | 62km/h | 14675m | -10.3m/s | -53.5°C | 1.4% | 133.7hPa | 2.6V | 08:14:00 | 00:00:00 | 00:00:00 | |
| DL1XH-15 | 2026-09-02 12:54:26 | 51.08782 | 8.17643 | 105° | 60km/h | 14758m | -10.4m/s | -54°C | 4% | 131.9hPa | 2.6V | 08:14:55 | 02:36:25 | 00:00:00 | |
| DD1CC1-15 | 2026-09-02 12:54:26 | 51.08746 | 8.17806 | 112° | 62km/h | 14686m | -10.3m/s | -53.6°C | 1.4% | 133.4hPa | 2.6V | 08:14:00 | 00:00:00 | 00:00:00 | |
| DJ2KF-10 | 2026-09-02 12:54:25 | 51.08751 | 8.17783 | 112° | 64km/h | 14696m | -10.5m/s | -53.6°C | 4.0% | 133.2hPa | 2.6V | 00:00:00 | 02:36:31 | 00:00:00 | |
| DM0DOS-11 | 2026-09-02 12:54:24 | 51.08782 | 8.17643 | 105° | 60km/h | 14758m | -10.4m/s | -54°C | 4% | 131.9hPa | 2.6V | 08:14:55 | 02:36:25 | 00:00:00 | |
| BIOWL1-15 | 2026-09-02 12:54:22 | 51.08768 | 8.17713 | 109° | 62km/h | 14727m | -10.2m/s | -53.8°C | 0.5% | 132.6hPa | 2.5V | 08:14:56 | 02:36:28 | 00:00:00 | |
| DL1XH-west | 2026-09-02 12:54:20 | 51.08778 | 8.17666 | 107° | 60km/h | 14748m | -10.5m/s | -54°C | 0.5% | 132.2hPa | 2.5V | 08:14:56 | 02:36:26 | 00:00:00 | |
| AA1-15 | 2026-09-02 12:54:19 | 51.08786 | 8.17620 | 105° | 60km/h | 14769m | -11m/s | -54.1°C | 0.5% | 131.7hPa | 2.6V | 08:14:56 | 02:36:24 | 00:00:00 | |
| DL1XH1-15 | 2026-09-02 12:54:18 | 51.08797 | 8.17548 | 105° | 62km/h | 14800m | -9.9m/s | -54.1°C | 4.1% | 131.1hPa | 2.5V | 08:14:59 | 02:36:21 | 00:00:00 | |
| DB0ND-19 | 2026-09-02 12:54:18 | 51.08790 | 8.17596 | 103° | 60km/h | 14779m | -10.1m/s | -54.2°C | 1.4% | 131.5hPa | 2.5V | 00:00:00 | 00:00:00 | 00:00:00 | |
| DL3AQ-11 | 2026-09-02 12:54:17 | 51.08790 | 8.17596 | 103° | 60km/h | 14779m | -10.1m/s | -54.2°C | 1.4% | 131.5hPa | 2.5V | 00:00:00 | 00:00:00 | 00:00:00 | |
| DB0UT-7 | 2026-09-02 12:54:15 | 51.08797 | 8.17548 | 106° | 66km/h | 14800m | -9.9m/s | -54.1°C | 4.1% | 131.0hPa | 2.5V | 00:00:00 | 00:00:00 | 00:00:00 | |
| DM0DOS-11 | 2026-09-02 12:54:14 | 51.08831 | 8.17372 | 106° | 64km/h | 14872m | -10.7m/s | -54.1°C | 4% | 129.6hPa | 2.5V | 08:15:06 | 02:36:14 | 00:00:00 | |
| HSKMA3-T | 2026-09-02 12:54:12 | 51.08811 | 8.17473 | 107° | 66km/h | 14830m | -10.4m/s | -54°C | 0.4% | 130.4hPa | 2.6V | 08:15:47 | 02:36:18 | 00:00:00 | |
| BIOWL1-15 | 2026-09-02 12:54:11 | 51.08816 | 8.17448 | 108° | 66km/h | 14841m | -10.8m/s | -54°C | 0.5% | 130.2hPa | 2.6V | 08:15:47 | 02:36:17 | 00:00:00 | |
| DL1XH-west | 2026-09-02 12:54:09 | 51.08826 | 8.17398 | 107° | 66km/h | 14862m | -10.6m/s | -54.1°C | 0.4% | 129.8hPa | 2.5V | 08:15:47 | 02:36:15 | 00:00:00 | |
| DL1XH1-15 | 2026-09-02 12:54:08 | 51.08844 | 8.17298 | 105° | 64km/h | 14904m | -9.9m/s | -54.2°C | 4.1% | 128.9hPa | 2.6V | 08:15:09 | 02:36:11 | 00:00:00 | |
| AA1-15 | 2026-09-02 12:54:08 | 51.08835 | 8.17348 | 106° | 64km/h | 14883m | -10.6m/s | -54.1°C | 0.4% | 129.4hPa | 2.5V | 08:15:47 | 02:36:13 | 00:00:00 | |
| DO3MHA-11 | 2026-09-02 12:54:08 | 51.08830 | 8.17372 | 107° | 64km/h | 14872m | -10.7m/s | -54.1°C | 4.0% | 129.5hPa | 2.5V | 00:00:00 | 02:36:14 | 00:00:00 | |
| BIOWL7-15 | 2026-09-02 12:54:07 | 51.08835 | 8.17348 | 107° | 64km/h | 14883m | -10.6m/s | -54.1°C | 1.3% | 129.4hPa | 2.5V | 00:00:00 | 00:00:00 | 00:00:00 | |
| DL3AQ-11 | 2026-09-02 12:54:06 | 51.08840 | 8.17323 | 105° | 62km/h | 14894m | -10.5m/s | -54.2°C | 1.3% | 129.2hPa | 2.5V | 00:00:00 | 00:00:00 | 00:00:00 | |
| GOEST3-10 | 2026-09-02 12:54:05 | 51.08844 | 8.17298 | 106° | 64km/h | 14904m | -9.8m/s | -54.1°C | 4.1% | 128.9hPa | 2.5V | 00:00:00 | 00:00:00 | 00:00:00 | |
| DL1XH-15 | 2026-09-02 12:54:04 | 51.08863 | 8.17172 | 104° | 66km/h | 14955m | -10.3m/s | -53.7°C | 3.9% | 127.9hPa | 2.5V | 08:15:14 | 02:36:06 | 00:00:00 | |
| DM0DOS-11 | 2026-09-02 12:54:03 | 51.08872 | 8.17121 | 105° | 66km/h | 14976m | -10m/s | -53.7°C | 3.8% | 127.5hPa | 2.5V | 08:15:16 | 02:36:04 | 00:00:00 | |
| DO3MHA-12 | 2026-09-02 12:54:03 | 51.08851 | 8.17249 | 103° | 66km/h | 14925m | -10.6m/s | -54.0°C | 4.0% | 128.5hPa | 2.6V | 00:00:00 | 02:36:09 | 00:00:00 | |
| DL1NUX | 2026-09-02 12:54:02 | 51.08876 | 8.17095 | 106° | 68km/h | 14986m | -10.6m/s | -53.6°C | 3.8% | 127.3hPa | 2.6V | 08:15:17 | 02:36:03 | 00:00:00 | |
| HSKMA3-T | 2026-09-02 12:54:01 | 51.08859 | 8.17198 | 103° | 66km/h | 14945m | -10.1m/s | -53.8°C | 0.3% | 128.1hPa | 2.6V | 08:15:47 | 02:36:07 | 00:00:00 | |
| DL1XH-west | 2026-09-02 12:53:58 | 51.08872 | 8.17121 | 106° | 66km/h | 14976m | -10m/s | -53.7°C | 0.3% | 127.5hPa | 2.5V | 08:15:47 | 02:36:04 | 00:00:00 | |
| DL1XH1-15 | 2026-09-02 12:53:58 | 51.08886 | 8.17045 | 107° | 66km/h | 15007m | -11m/s | -53.7°C | 3.9% | 126.8hPa | 2.6V | 08:15:19 | 02:36:01 | 00:00:00 | |
| AA1-15 | 2026-09-02 12:53:56 | 51.08891 | 8.17020 | 108° | 64km/h | 15018m | -10.8m/s | -53.8°C | 0.3% | 126.7hPa | 2.5V | 08:15:47 | 02:36:00 | 00:00:00 | |
| DO3DL | 2026-09-02 12:53:55 | 51.08886 | 8.17045 | 108° | 66km/h | 15007m | -11.0m/s | -53.7°C | 1.2% | 126.9hPa | 2.5V | 08:15:00 | 00:00:00 | 00:00:00 | |
| DO9LL-15 | 2026-09-02 12:53:54 | 51.08891 | 8.17020 | 108° | 66km/h | 15018m | -10.8m/s | -53.7°C | 3.9% | 126.6hPa | 2.5V | 00:00:00 | 02:36:00 | 00:00:00 | |
| DL1NUX | 2026-09-02 12:53:53 | 51.08927 | 8.16843 | 107° | 68km/h | 15092m | -10.3m/s | -53.9°C | 3.8% | 125.2hPa | 2.5V | 08:15:27 | 02:35:53 | 00:00:00 | |
| HSKMA3-T | 2026-09-02 12:53:51 | 51.08906 | 8.16946 | 107° | 66km/h | 15049m | -10.3m/s | -53.7°C | 0.2% | 126hPa | 2.6V | 08:15:47 | 02:35:57 | 00:00:00 | |
| DL8DAS-14 | 2026-09-02 12:53:51 | 51.08911 | 8.16920 | 107° | 66km/h | 15059m | -11.0m/s | -53.8°C | 1.2% | 125.8hPa | 2.6V | 00:00:00 | 00:00:00 | 00:00:00 | |
| DL4XJ-10 | 2026-09-02 12:53:50 | 51.08911 | 8.16920 | 108° | 66km/h | 15059m | -10.9m/s | -53.6°C | 0% | 0hPa | 2.6V | 00:00:00 | 00:00:00 | 00:00:00 | |
| DL1XH1-15 | 2026-09-02 12:53:48 | 51.08937 | 8.16792 | 108° | 66km/h | 15113m | -10.8m/s | -53.7°C | 3.7% | 124.8hPa | 2.6V | 08:15:29 | 02:35:51 | 00:00:00 | |
| DL1XH-west | 2026-09-02 12:53:47 | 51.08927 | 8.16843 | 108° | 68km/h | 15092m | -10.3m/s | -53.9°C | 0.2% | 125.2hPa | 2.5V | 08:15:47 | 02:35:53 | 00:00:00 | |
| AA1-15 | 2026-09-02 12:53:45 | 51.08937 | 8.16792 | 108° | 66km/h | 15113m | -10.8m/s | -53.7°C | 0.2% | 124.8hPa | 2.6V | 08:15:47 | 02:35:51 | 00:00:00 | |
| DB0UT-7 | 2026-09-02 12:53:45 | 51.08937 | 8.16792 | 109° | 66km/h | 15113m | -10.8m/s | -53.6°C | 3.7% | 124.7hPa | 2.6V | 00:00:00 | 02:35:51 | 00:00:00 | |
| DL4BBY-15 | 2026-09-02 12:53:44 | 51.08942 | 8.16768 | 110° | 66km/h | 15124m | -11.4m/s | -53.5°C | 0% | 0hPa | 2.6V | 00:00:00 | 00:00:00 | 00:00:00 | |
| DL1XH-15 | 2026-09-02 12:53:43 | 51.08964 | 8.16671 | 109° | 62km/h | 15167m | -10.9m/s | -53.7°C | 3.7% | 123.8hPa | 2.6V | 08:15:34 | 02:35:46 | 00:00:00 | |
| DM0DOS-11 | 2026-09-02 12:53:43 | 51.08974 | 8.16623 | 107° | 64km/h | 15188m | -10.7m/s | -53.6°C | 3.7% | 123.3hPa | 2.5V | 08:15:36 | 02:35:44 | 00:00:00 | |
| DO3MHA-12 | 2026-09-02 12:53:43 | 51.08947 | 8.16743 | 109° | 64km/h | 15135m | -10.9m/s | -53.6°C | 3.7% | 124.3hPa | 2.5V | 08:15:00 | 02:35:49 | 00:00:00 | |
| DL1NUX | 2026-09-02 12:53:42 | 51.08979 | 8.16599 | 107° | 64km/h | 15199m | -10.5m/s | -53.7°C | 3.8% | 123.1hPa | 2.5V | 08:15:37 | 02:35:43 | 00:00:00 | |
| HSKMA3-T | 2026-09-02 12:53:41 | 51.08964 | 8.16671 | 110° | 64km/h | 15167m | -10.9m/s | -53.7°C | 0.1% | 123.8hPa | 2.6V | 08:15:47 | 02:35:46 | 00:00:00 | |
| DL1XH1-15 | 2026-09-02 12:53:38 | 51.08989 | 8.16549 | 105° | 66km/h | 15220m | -11.2m/s | -53.8°C | 3.8% | 122.7hPa | 2.6V | 08:15:39 | 02:35:41 | 00:00:00 | |
| DL1XH-west | 2026-09-02 12:53:37 | 51.08979 | 8.16599 | 108° | 64km/h | 15199m | -10.5m/s | -53.7°C | 0.2% | 123.1hPa | 2.5V | 08:15:47 | 02:35:43 | 00:00:00 | |
| BIOWL1-15 | 2026-09-02 12:53:36 | 51.09001 | 8.16469 | 104° | 69km/h | 15252m | -10.8m/s | -54°C | 0.2% | 122.1hPa | 2.5V | 08:15:47 | 02:35:38 | 00:00:00 | |
| DL1XH-15 | 2026-09-02 12:53:35 | 51.09010 | 8.16415 | 103° | 68km/h | 15274m | -11m/s | -54.1°C | 3.9% | 121.7hPa | 2.5V | 08:15:44 | 02:35:36 | 00:00:00 | |
| AA1-15 | 2026-09-02 12:53:34 | 51.08993 | 8.16523 | 106° | 68km/h | 15231m | -10.8m/s | -53.8°C | 0.2% | 122.5hPa | 2.6V | 08:15:47 | 02:35:40 | 00:00:00 | |
| DL1NUX | 2026-09-02 12:53:32 | 51.09021 | 8.16338 | 102° | 64km/h | 15307m | -11.1m/s | -54.3°C | 4.1% | 121hPa | 2.5V | 08:15:47 | 02:35:33 | 00:00:00 | |
| HSKMA3-T | 2026-09-02 12:53:30 | 51.09010 | 8.16415 | 104° | 68km/h | 15274m | -11m/s | -54.2°C | 0.3% | 121.7hPa | 2.5V | 08:15:47 | 02:35:36 | 00:00:00 | |
| DL1XH-west | 2026-09-02 12:53:27 | 51.09021 | 8.16338 | 103° | 64km/h | 15307m | -11.1m/s | -54.3°C | 0.3% | 121hPa | 2.5V | 08:15:47 | 02:35:33 | 00:00:00 | |
| BIOWL1-15 | 2026-09-02 12:53:25 | 51.09029 | 8.16288 | 106° | 64km/h | 15329m | -10.7m/s | -54.1°C | 0.2% | 120.7hPa | 2.6V | 08:16:38 | 02:35:31 | 00:00:00 | |
| DJ2KF-10 | 2026-09-02 12:53:25 | 51.09029 | 8.16288 | 106° | 60km/h | 15329m | -10.7m/s | -54.1°C | 4.0% | 120.6hPa | 2.6V | 00:00:00 | 02:35:31 | 00:00:00 | |
| DL1XH-15 | 2026-09-02 12:53:24 | 51.09063 | 8.16140 | 114° | 68km/h | 15393m | -10.5m/s | -53.5°C | 3.8% | 119.5hPa | 2.6V | 08:15:55 | 02:35:25 | 00:00:00 | |
| AA1-15 | 2026-09-02 12:53:23 | 51.09038 | 8.16240 | 109° | 64km/h | 15350m | -10.5m/s | -54°C | 0.3% | 120.3hPa | 2.5V | 08:16:38 | 02:35:29 | 00:00:00 | |
| HSKMA3-T | 2026-09-02 12:53:20 | 51.09056 | 8.16165 | 112° | 68km/h | 15382m | -10.8m/s | -53.5°C | 0.1% | 119.6hPa | 2.6V | 08:16:38 | 02:35:26 | 00:00:00 | |
| DL8DAS-14 | 2026-09-02 12:53:20 | 51.09063 | 8.16140 | 114° | 68km/h | 15393m | -10.5m/s | -53.5°C | 1.1% | 119.5hPa | 2.5V | 00:00:00 | 00:00:00 | 00:00:00 | |
| DL1XH1-15 | 2026-09-02 12:53:19 | 51.09095 | 8.16041 | 120° | 69km/h | 15436m | -10.9m/s | -53.5°C | 3.8% | 118.7hPa | 2.5V | 08:15:59 | 02:35:21 | 00:00:00 | |
| DM0DOS-11 | 2026-09-02 12:53:19 | 51.09070 | 8.16115 | 115° | 69km/h | 15404m | -11.5m/s | -53.5°C | 3.8% | 119.3hPa | 2.6V | 08:15:56 | 02:35:24 | 00:00:00 | |
| DL1XH-west | 2026-09-02 12:53:17 | 51.09078 | 8.16090 | 118° | 69km/h | 15415m | -11m/s | -53.6°C | 0.2% | 119.1hPa | 2.5V | 08:16:38 | 02:35:23 | 00:00:00 | |
| BIOWL1-15 | 2026-09-02 12:53:14 | 51.09141 | 8.15929 | 125° | 64km/h | 15492m | -11.2m/s | -53.1°C | 0.1% | 117.6hPa | 2.5V | 08:16:38 | 02:35:16 | 00:00:00 | |
| DL4BBY-15 | 2026-09-02 12:53:14 | 51.09104 | 8.16017 | 122° | 55km/h | 15448m | -11.1m/s | -53.2°C | 0% | 0hPa | 2.6V | 00:00:00 | 00:00:00 | 00:00:00 | |
| DM0DOS-11 | 2026-09-02 12:53:13 | 51.09160 | 8.15888 | 126° | 62km/h | 15514m | -11.3m/s | -52.8°C | 3.6% | 117.2hPa | 2.6V | 08:16:06 | 02:35:14 | 00:00:00 | |
| AA1-15 | 2026-09-02 12:53:12 | 51.09122 | 8.15972 | 124° | 66km/h | 15470m | -11.4m/s | -53.3°C | 0.1% | 118.1hPa | 2.5V | 08:16:38 | 02:35:18 | 00:00:00 | |
| DD8BA-10 | 2026-09-02 12:53:12 | 51.09122 | 8.15972 | 124° | 60km/h | 15470m | -11.3m/s | -53.2°C | 3.7% | 118.0hPa | 2.6V | 00:00:00 | 00:00:00 | 00:00:00 | |
| DD1CC2-15 | 2026-09-02 12:53:11 | 51.09122 | 8.15972 | 125° | 66km/h | 15470m | -11.4m/s | -53.3°C | 1.1% | 118.1hPa | 2.6V | 08:16:00 | 00:00:00 | 00:00:00 | |
| DK9SH | 2026-09-02 12:53:10 | 51.09132 | 8.15950 | 126° | 66km/h | 15481m | -11.2m/s | -53.2°C | 1.1% | 117.9hPa | 2.6V | 08:16:00 | 00:00:00 | 00:00:00 | |
| DL1XH-15 | 2026-09-02 12:53:09 | 51.09151 | 8.15908 | 126° | 62km/h | 15503m | -11.2m/s | -53°C | 3.6% | 117.4hPa | 2.6V | 08:16:05 | 02:35:15 | 00:00:00 | |
| HSKMA3-T | 2026-09-02 12:53:09 | 51.09151 | 8.15908 | 126° | 62km/h | 15503m | -11.2m/s | -53°C | 0% | 117.4hPa | 2.6V | 08:16:38 | 02:35:15 | 00:00:00 | |
| DO3MHA-11 | 2026-09-02 12:53:08 | 51.09160 | 8.15888 | 127° | 57km/h | 15515m | -11.3m/s | -52.8°C | 3.6% | 117.2hPa | 2.5V | 00:00:00 | 02:35:14 | 00:00:00 | |
| DL1XH1-15 | 2026-09-02 12:53:07 | 51.09187 | 8.15831 | 126° | 58km/h | 15548m | -11.4m/s | -52.5°C | 3.5% | 116.6hPa | 2.5V | 08:16:09 | 02:35:11 | 00:00:00 | |
| DL1XH-west | 2026-09-02 12:53:06 | 51.09178 | 8.15850 | 127° | 58km/h | 15537m | -11m/s | -52.4°C | 0% | 116.8hPa | 2.5V | 08:16:38 | 02:35:12 | 00:00:00 | |
| GOEST3-10 | 2026-09-02 12:53:05 | 51.09187 | 8.15831 | 127° | 53km/h | 15548m | -11.3m/s | -52.4°C | 3.5% | 116.6hPa | 2.6V | 00:00:00 | 00:00:00 | 00:00:00 | |
| DL1XH-15 | 2026-09-02 12:53:04 | 51.09233 | 8.15729 | 122° | 49km/h | 15615m | -11.2m/s | -52.5°C | 3.5% | 115.4hPa | 2.6V | 08:16:15 | 02:35:05 | 00:00:00 | |
| BIOWL1-15 | 2026-09-02 12:53:02 | 51.09247 | 8.15696 | 122° | 49km/h | 15637m | -11.4m/s | -52.6°C | 0% | 115hPa | 2.5V | 08:16:38 | 02:35:03 | 00:00:00 | |
| DL1NUX | 2026-09-02 12:53:02 | 51.09247 | 8.15696 | 121° | 49km/h | 15637m | -11.4m/s | -52.6°C | 3.5% | 115hPa | 2.5V | 08:16:17 | 02:35:03 | 00:00:00 | |
| AA1-15 | 2026-09-02 12:53:02 | 51.09219 | 8.15762 | 126° | 51km/h | 15593m | -11m/s | -52.4°C | 0% | 115.8hPa | 2.5V | 08:16:38 | 02:35:07 | 00:00:00 | |
| HSKMA3-T | 2026-09-02 12:52:58 | 51.09240 | 8.15712 | 122° | 49km/h | 15626m | -11.1m/s | -52.6°C | 0% | 115.2hPa | 2.6V | 08:16:38 | 02:35:04 | 00:00:00 | |
| DL3AQ-11 | 2026-09-02 12:52:57 | 51.09253 | 8.15679 | 121° | 47km/h | 15649m | -10.8m/s | -52.6°C | 1.0% | 114.8hPa | 2.5V | 00:00:00 | 00:00:00 | 00:00:00 | |
| DL1XH1-15 | 2026-09-02 12:52:56 | 51.09259 | 8.15662 | 117° | 49km/h | 15659m | -10.9m/s | -52.7°C | 3.6% | 114.7hPa | 2.5V | 08:16:19 | 02:35:01 | 00:00:00 | |
| DL1XH-west | 2026-09-02 12:52:56 | 51.09253 | 8.15679 | 122° | 49km/h | 15649m | -10.8m/s | -52.6°C | 0% | 114.8hPa | 2.5V | 08:16:38 | 02:35:02 | 00:00:00 | |
| DL4XJ-10 | 2026-09-02 12:52:56 | 51.09253 | 8.15679 | 122° | 51km/h | 15649m | -10.7m/s | -52.4°C | 0% | 0hPa | 2.5V | 00:00:00 | 00:00:00 | 00:00:00 | |
| DJ2KF-10 | 2026-09-02 12:52:55 | 51.09259 | 8.15662 | 118° | 51km/h | 15660m | -10.9m/s | -52.6°C | 3.6% | 114.6hPa | 2.5V | 00:00:00 | 02:35:01 | 00:00:00 | |
| DL1XH-15 | 2026-09-02 12:52:54 | 51.09289 | 8.15556 | 108° | 47km/h | 15726m | -11.3m/s | -52.6°C | 3.5% | 113.5hPa | 2.5V | 08:16:25 | 02:34:55 | 00:00:00 | |
| GOEST3-10 | 2026-09-02 12:52:54 | 51.09265 | 8.15645 | 118° | 47km/h | 15671m | -11.0m/s | -52.7°C | 3.5% | 114.4hPa | 2.6V | 00:00:00 | 00:00:00 | 00:00:00 | |
| DL1NUX | 2026-09-02 12:52:52 | 51.09296 | 8.15518 | 105° | 49km/h | 15748m | -11.4m/s | -52.5°C | 3.5% | 113.1hPa | 2.6V | 08:16:27 | 02:34:53 | 00:00:00 | |
| AA1-15 | 2026-09-02 12:52:52 | 51.09280 | 8.15592 | 112° | 47km/h | 15703m | -11.3m/s | -52.7°C | 0% | 113.9hPa | 2.5V | 08:16:38 | 02:34:57 | 00:00:00 | |
| BIOWL1-15 | 2026-09-02 12:52:50 | 51.09285 | 8.15574 | 111° | 47km/h | 15715m | -11m/s | -52.6°C | 0% | 113.7hPa | 2.5V | 08:16:38 | 02:34:56 | 00:00:00 | |
| HSKMA3-T | 2026-09-02 12:52:48 | 51.09293 | 8.15537 | 108° | 49km/h | 15737m | -11.4m/s | -52.5°C | 0% | 113.3hPa | 2.6V | 08:16:38 | 02:34:54 | 00:00:00 | |
| DL1XH-west | 2026-09-02 12:52:46 | 51.09300 | 8.15498 | 106° | 51km/h | 15760m | -11.6m/s | -52.5°C | 0% | 112.9hPa | 2.5V | 08:16:38 | 02:34:52 | 00:00:00 | |
| DL3AQ-11 | 2026-09-02 12:52:46 | 51.09304 | 8.15478 | 104° | 51km/h | 15771m | -11.4m/s | -52.5°C | 1.0% | 112.7hPa | 2.5V | 00:00:00 | 00:00:00 | 00:00:00 | |
| DB0UT-7 | 2026-09-02 12:52:45 | 51.09304 | 8.15478 | 105° | 53km/h | 15772m | -11.3m/s | -52.5°C | 3.5% | 112.6hPa | 2.5V | 00:00:00 | 02:34:51 | 00:00:00 | |
| DL1XH-15 | 2026-09-02 12:52:44 | 51.09319 | 8.15352 | 98° | 53km/h | 15838m | -10.8m/s | -52.4°C | 3.5% | 111.6hPa | 2.5V | 08:16:35 | 02:34:45 | 00:00:00 | |
| DL4BBY-15 | 2026-09-02 12:52:44 | 51.09307 | 8.15458 | 104° | 53km/h | 15783m | -11.1m/s | -52.2°C | 0% | 0hPa | 2.6V | 00:00:00 | 00:00:00 | 00:00:00 | |
| DO3DL | 2026-09-02 12:52:43 | 51.09307 | 8.15458 | 105° | 53km/h | 15783m | -11.2m/s | -52.4°C | 1.0% | 112.5hPa | 2.6V | 08:16:00 | 00:00:00 | 00:00:00 | |
| DL1NUX | 2026-09-02 12:52:42 | 51.09323 | 8.15311 | 98° | 53km/h | 15860m | -10.9m/s | -52.3°C | 3.5% | 111.2hPa | 2.6V | 08:16:37 | 02:34:43 | 00:00:00 | |
| AA1-15 | 2026-09-02 12:52:40 | 51.09317 | 8.15373 | 99° | 53km/h | 15827m | -10.9m/s | -52.4°C | 0% | 111.8hPa | 2.5V | 08:16:38 | 02:34:46 | 00:00:00 | |
| HSKMA3-T | 2026-09-02 12:52:38 | 51.09321 | 8.15332 | 99° | 53km/h | 15849m | -10.6m/s | -52.4°C | 0% | 111.4hPa | 2.5V | 08:16:38 | 02:34:44 | 00:00:00 | |
| DL1XH-west | 2026-09-02 12:52:36 | 51.09326 | 8.15269 | 97° | 51km/h | 15882m | -11m/s | -52.2°C | 0% | 110.8hPa | 2.5V | 08:17:29 | 02:34:41 | 00:00:00 | |
| DL9SK-14 | 2026-09-02 12:52:35 | 51.09328 | 8.15249 | 97° | 51km/h | 15893m | -10.9m/s | -52.2°C | 1.0% | 110.6hPa | 2.5V | 00:00:00 | 00:00:00 | 00:00:00 | |
| DL1XH-15 | 2026-09-02 12:52:34 | 51.09337 | 8.15149 | 101° | 49km/h | 15949m | -11.7m/s | -52.3°C | 3.5% | 109.6hPa | 2.5V | 08:16:45 | 02:34:35 | 00:00:00 | |
| GOEST3-10 | 2026-09-02 12:52:34 | 51.09328 | 8.15249 | 98° | 51km/h | 15893m | -10.8m/s | -52.2°C | 3.5% | 110.6hPa | 2.6V | 00:00:00 | 00:00:00 | 00:00:00 | |
| DL1NUX | 2026-09-02 12:52:32 | 51.09342 | 8.15110 | 102° | 51km/h | 15972m | -12.1m/s | -52.4°C | 3.5% | 109.2hPa | 2.6V | 08:16:47 | 02:34:33 | 00:00:00 | |
| BIOWL1-15 | 2026-09-02 12:52:29 | 51.09337 | 8.15150 | 101° | 49km/h | 15949m | -11.7m/s | -52.3°C | 0% | 109.6hPa | 2.5V | 08:17:29 | 02:34:35 | 00:00:00 | |
| HSKMA3-T | 2026-09-02 12:52:28 | 51.09339 | 8.15130 | 101° | 49km/h | 15960m | -11.3m/s | -52.4°C | 0% | 109.5hPa | 2.6V | 08:17:29 | 02:34:34 | 00:00:00 | |
| DL1XH1-15 | 2026-09-02 12:52:27 | 51.09348 | 8.15068 | 105° | 55km/h | 15995m | -11.9m/s | -52.3°C | 3.5% | 108.8hPa | 2.5V | 08:16:49 | 02:34:31 | 00:00:00 | |
| DL1XH-west | 2026-09-02 12:52:26 | 51.09348 | 8.15068 | 106° | 55km/h | 15995m | -12m/s | -52.3°C | 0% | 108.8hPa | 2.5V | 08:17:29 | 02:34:31 | 00:00:00 | |
| DJ2KF-10 | 2026-09-02 12:52:25 | 51.09348 | 8.15068 | 106° | 53km/h | 15996m | -11.9m/s | -52.3°C | 3.5% | 108.8hPa | 2.5V | 00:00:00 | 02:34:31 | 00:00:00 | |
| DL1XH-15 | 2026-09-02 12:52:24 | 51.09372 | 8.14943 | 108° | 53km/h | 16065m | -11.5m/s | -52.4°C | 3.6% | 107.7hPa | 2.5V | 08:16:55 | 02:34:25 | 00:00:00 | |
| GOEST3-10 | 2026-09-02 12:52:24 | 51.09352 | 8.15047 | 106° | 55km/h | 16007m | -11.2m/s | -52.4°C | 3.5% | 108.6hPa | 2.6V | 00:00:00 | 00:00:00 | 00:00:00 | |
| DL1NUX | 2026-09-02 12:52:22 | 51.09380 | 8.14902 | 108° | 53km/h | 16089m | -12.3m/s | -52.2°C | 3.5% | 107.3hPa | 2.6V | 08:16:57 | 02:34:23 | 00:00:00 | |
| DO9LL-15 | 2026-09-02 12:52:22 | 51.09363 | 8.14984 | 107° | 51km/h | 16042m | -12.1m/s | -52.5°C | 3.6% | 108.0hPa | 2.6V | 08:16:00 | 02:34:27 | 00:00:00 | |
| DL8DAS-15 | 2026-09-02 12:52:21 | 51.09363 | 8.14984 | 107° | 55km/h | 16042m | -12.2m/s | -52.6°C | 1.1% | 108.1hPa | 2.5V | 00:00:00 | 00:00:00 | 00:00:00 | |
| DD1CC1-15 | 2026-09-02 12:52:20 | 51.09367 | 8.14963 | 109° | 55km/h | 16054m | -11.6m/s | -52.5°C | 1.0% | 107.9hPa | 2.5V | 08:17:00 | 00:00:00 | 00:00:00 | |
| DM0DOS-11 | 2026-09-02 12:52:19 | 51.09393 | 8.14842 | 108° | 53km/h | 16127m | -11.9m/s | -52°C | 3.4% | 106.7hPa | 2.5V | 08:17:00 | 02:34:20 | 00:00:00 | |
| BIOWL1-15 | 2026-09-02 12:52:19 | 51.09372 | 8.14943 | 108° | 53km/h | 16065m | -11.5m/s | -52.4°C | 0% | 107.7hPa | 2.5V | 08:17:29 | 02:34:25 | 00:00:00 | |
| AA1-15 | 2026-09-02 12:52:18 | 51.09376 | 8.14922 | 108° | 53km/h | 16077m | -12.1m/s | -52.4°C | 0% | 107.5hPa | 2.5V | 08:17:29 | 02:34:24 | 00:00:00 | |
| HSKMA3-T | 2026-09-02 12:52:17 | 51.09380 | 8.14902 | 108° | 53km/h | 16089m | -12.3m/s | -52.2°C | 0% | 107.3hPa | 2.6V | 08:17:29 | 02:34:23 | 00:00:00 | |
| DL1XH1-15 | 2026-09-02 12:52:17 | 51.09389 | 8.14862 | 109° | 53km/h | 16115m | -12.7m/s | -52.1°C | 3.4% | 106.9hPa | 2.6V | 08:16:59 | 02:34:21 | 00:00:00 | |
| DL1XH-west | 2026-09-02 12:52:15 | 51.09389 | 8.14862 | 109° | 53km/h | 16115m | -12.7m/s | -52.1°C | 0% | 106.9hPa | 2.6V | 08:17:29 | 02:34:21 | 00:00:00 | |
| DB0UT-7 | 2026-09-02 12:52:15 | 51.09389 | 8.14862 | 110° | 51km/h | 16115m | -12.6m/s | -52.0°C | 3.4% | 106.8hPa | 2.6V | 08:16:00 | 00:00:00 | 00:00:00 | |
| DL4BBY-15 | 2026-09-02 12:52:14 | 51.09393 | 8.14842 | 109° | 51km/h | 16127m | -11.8m/s | -51.7°C | 0% | 0hPa | 2.5V | 00:00:00 | 00:00:00 | 00:00:00 | |
| NBG1-10 | 2026-09-02 12:52:13 | 51.09397 | 8.14822 | 111° | 51km/h | 16139m | -11.5m/s | -52.0°C | 3.4% | 106.4hPa | 2.5V | 08:17:00 | 02:34:19 | 00:00:00 | |
| DL1NUX | 2026-09-02 12:52:12 | 51.09418 | 8.14707 | 103° | 49km/h | 16210m | -12.2m/s | -52°C | 3.3% | 105.3hPa | 2.5V | 08:17:07 | 02:34:13 | 00:00:00 | |
| DD8BA-10 | 2026-09-02 12:52:12 | 51.09402 | 8.14803 | 109° | 49km/h | 16151m | -11.2m/s | -52.1°C | 3.4% | 106.2hPa | 2.6V | 00:00:00 | 00:00:00 | 00:00:00 | |
| DJ8HS-15 | 2026-09-02 12:52:10 | 51.09409 | 8.14764 | 106° | 51km/h | 16174m | -11.9m/s | -51.9°C | 3.3% | 105.9hPa | 2.6V | 00:00:00 | 02:34:16 | 00:00:00 | |
| DM0DOS-11 | 2026-09-02 12:52:09 | 51.09427 | 8.14649 | 102° | 51km/h | 16247m | -12.6m/s | -52.2°C | 3.4% | 104.7hPa | 2.6V | 08:17:10 | 02:34:10 | 00:00:00 | |
| AA1-15 | 2026-09-02 12:52:08 | 51.09416 | 8.14726 | 103° | 51km/h | 16198m | -11.6m/s | -52°C | 0% | 105.5hPa | 2.5V | 08:17:29 | 02:34:14 | 00:00:00 | |
| DL1XH1-15 | 2026-09-02 12:52:07 | 51.09425 | 8.14669 | 102° | 49km/h | 16234m | -12.6m/s | -52.1°C | 3.3% | 104.9hPa | 2.5V | 08:17:09 | 02:34:11 | 00:00:00 | |
| HSKMA3-T | 2026-09-02 12:52:07 | 51.09419 | 8.14707 | 104° | 49km/h | 16210m | -12.2m/s | -52°C | 0% | 105.3hPa | 2.5V | 08:17:29 | 02:34:13 | 00:00:00 | |
| DO2JMG | 2026-09-02 12:52:06 | 51.09422 | 8.14688 | 105° | 49km/h | 16222m | -11.9m/s | 0°C | 0% | 0hPa | 2.5V | 18:12:15 | 02:34:12 | 00:00:00 | |
| DL1XH-west | 2026-09-02 12:52:04 | 51.09427 | 8.14649 | 102° | 51km/h | 16247m | -12.6m/s | -52.2°C | 0% | 104.7hPa | 2.6V | 08:17:29 | 02:34:10 | 00:00:00 | |
| GOEST3-10 | 2026-09-02 12:52:04 | 51.09427 | 8.14649 | 103° | 53km/h | 16247m | -12.6m/s | -52.2°C | 3.4% | 104.7hPa | 2.6V | 00:00:00 | 00:00:00 | 00:00:00 | |
| DO3DL | 2026-09-02 12:52:03 | 51.09427 | 8.14649 | 103° | 51km/h | 16247m | -12.6m/s | -52.2°C | 0.9% | 104.7hPa | 2.6V | 08:17:00 | 00:00:00 | 00:00:00 | |
| DL1NUX | 2026-09-02 12:52:02 | 51.09445 | 8.14505 | 99° | 53km/h | 16330m | -11.1m/s | -52.6°C | 3.5% | 103.4hPa | 2.6V | 08:17:17 | 02:34:03 | 00:00:00 | |
| BIOWL1-15 | 2026-09-02 12:51:58 | 51.09450 | 8.14464 | 99° | 51km/h | 16352m | -11.2m/s | -52.6°C | 0% | 103hPa | 2.5V | 08:17:29 | 02:34:01 | 00:00:00 | |
| DO3DL | 2026-09-02 12:51:58 | 51.09442 | 8.14526 | 101° | 53km/h | 16319m | -11.4m/s | -52.5°C | 0.9% | 103.6hPa | 2.5V | 08:17:00 | 00:00:00 | 00:00:00 | |
| DM0DOS-11 | 2026-09-02 12:51:57 | 51.09452 | 8.14444 | 98° | 51km/h | 16363m | -11.2m/s | -52.7°C | 3.5% | 102.8hPa | 2.5V | 08:17:20 | 02:34:00 | 00:00:00 | |
| DL1XH1-15 | 2026-09-02 12:51:57 | 51.09450 | 8.14464 | 99° | 51km/h | 16352m | -11.2m/s | -52.6°C | 3.5% | 103hPa | 2.5V | 08:17:19 | 02:34:01 | 00:00:00 | |
| HSKMA3-T | 2026-09-02 12:51:56 | 51.09447 | 8.14485 | 101° | 53km/h | 16341m | -10.7m/s | -52.7°C | 0% | 103.2hPa | 2.6V | 08:17:29 | 02:34:02 | 00:00:00 | |
| DL1XH-west | 2026-09-02 12:51:53 | 51.09454 | 8.14424 | 98° | 49km/h | 16374m | -11.1m/s | -52.8°C | 0% | 102.7hPa | 2.5V | 08:17:29 | 02:33:59 | 00:00:00 | |
| DL1NUX | 2026-09-02 12:51:52 | 51.09462 | 8.14306 | 96° | 51km/h | 16442m | -11.5m/s | -53.1°C | 3.7% | 101.6hPa | 2.6V | 08:17:27 | 02:33:53 | 00:00:00 | |
| DO9LL-15 | 2026-09-02 12:51:51 | 51.09457 | 8.14385 | 98° | 49km/h | 16397m | -11.1m/s | -52.9°C | 3.7% | 102.2hPa | 2.5V | 00:00:00 | 02:33:57 | 00:00:00 | |
| BIOWL7-15 | 2026-09-02 12:51:50 | 51.09458 | 8.14366 | 98° | 49km/h | 16408m | -11.3m/s | -53.1°C | 1.0% | 102.1hPa | 2.5V | 00:00:00 | 00:00:00 | 00:00:00 | |
| DM0DOS-11 | 2026-09-02 12:51:48 | 51.09468 | 8.14245 | 101° | 53km/h | 16476m | -11.6m/s | -53.1°C | 3.6% | 101hPa | 2.5V | 08:17:30 | 02:33:50 | 00:00:00 | |
| HSKMA3-T | 2026-09-02 12:51:46 | 51.09464 | 8.14286 | 99° | 51km/h | 16453m | -11.1m/s | -53.1°C | 0.1% | 101.4hPa | 2.6V | 08:17:29 | 02:33:52 | 00:00:00 | |
| DL1XH1-15 | 2026-09-02 12:51:46 | 51.09466 | 8.14265 | 99° | 53km/h | 16465m | -11.3m/s | -53°C | 3.6% | 101.2hPa | 2.6V | 08:17:29 | 02:33:51 | 00:00:00 | |
| AA1-15 | 2026-09-02 12:51:46 | 51.09466 | 8.14265 | 99° | 53km/h | 16465m | -11.3m/s | -53.1°C | 0% | 101.2hPa | 2.6V | 08:17:29 | 02:33:51 | 00:00:00 | |
| EDDB2-11 | 2026-09-02 12:51:45 | 51.09468 | 8.14245 | 101° | 51km/h | 16476m | -11.6m/s | -53.1°C | 1.0% | 101.0hPa | 2.5V | 00:00:00 | 00:00:00 | 00:00:00 | |
| BIOWL1-15 | 2026-09-02 12:51:44 | 51.09471 | 8.14224 | 105° | 53km/h | 16488m | -11.2m/s | -53.2°C | 0.1% | 100.9hPa | 2.5V | 08:18:20 | 02:33:49 | 00:00:00 | |
| DL1XH-west | 2026-09-02 12:51:42 | 51.09475 | 8.14203 | 105° | 55km/h | 16499m | -11.2m/s | -53.3°C | 0.1% | 100.7hPa | 2.5V | 08:18:20 | 02:33:48 | 00:00:00 | |
| DD8BA-10 | 2026-09-02 12:51:42 | 51.09475 | 8.14203 | 105° | 49km/h | 16499m | -11.1m/s | -53.2°C | 3.7% | 100.6hPa | 2.6V | 00:00:00 | 00:00:00 | 00:00:00 | |
| DJ2DS-15 | 2026-09-02 12:51:40 | 51.09482 | 8.14162 | 107° | 47km/h | 16521m | -10.9m/s | -53.2°C | 3.7% | 100.3hPa | 2.6V | 00:00:00 | 02:33:46 | 00:00:00 | |
| DO1YAY-16 | 2026-09-02 12:51:38 | 51.09490 | 8.14122 | 106° | 49km/h | 16543m | -11.3m/s | -53.2°C | 1.1% | 100.0hPa | 2.6V | 00:00:00 | 00:00:00 | 00:00:00 | |
| DM0DOS-11 | 2026-09-02 12:51:37 | 51.09503 | 8.14048 | 105° | 47km/h | 16589m | -11.7m/s | -53°C | 3.6% | 99.3hPa | 2.6V | 08:17:40 | 02:33:40 | 00:00:00 | |
| DD1CC1-15 | 2026-09-02 12:51:37 | 51.09489 | 8.14122 | 108° | 49km/h | 16544m | -11.3m/s | -53.2°C | 1.1% | 100.0hPa | 2.6V | 08:18:00 | 00:00:00 | 00:00:00 | |
| DL1XH1-15 | 2026-09-02 12:51:36 | 51.09500 | 8.14066 | 106° | 46km/h | 16578m | -11.7m/s | -53.1°C | 3.7% | 99.5hPa | 2.6V | 08:17:39 | 02:33:41 | 00:00:00 | |
| HSKMA3-T | 2026-09-02 12:51:35 | 51.09500 | 8.14066 | 107° | 46km/h | 16578m | -11.7m/s | -53.1°C | 0.2% | 99.5hPa | 2.6V | 08:18:20 | 02:33:41 | 00:00:00 | |
| DO2KSM | 2026-09-02 12:51:34 | 51.09500 | 8.14066 | 108° | 46km/h | 16578m | -11.7m/s | -53.1°C | 1.0% | 99.5hPa | 2.6V | 08:18:00 | 00:00:00 | 00:00:00 | |
| DL1XH-15 | 2026-09-02 12:51:33 | 51.09520 | 8.13942 | 102° | 46km/h | 16660m | -12.7m/s | -52.9°C | 3.6% | 98.2hPa | 2.6V | 08:17:46 | 02:33:34 | 00:00:00 | |
| BIOWL1-15 | 2026-09-02 12:51:32 | 51.09539 | 8.13837 | 109° | 44km/h | 16733m | -12.8m/s | -52.8°C | 0.1% | 97.1hPa | 2.6V | 08:18:20 | 02:33:28 | 00:00:00 | |
| DL1XH-west | 2026-09-02 12:51:32 | 51.09509 | 8.14013 | 104° | 46km/h | 16612m | -11.5m/s | -52.7°C | 0.1% | 98.9hPa | 2.5V | 08:18:20 | 02:33:38 | 00:00:00 | |
| DL1NUX | 2026-09-02 12:51:32 | 51.09523 | 8.13925 | 103° | 46km/h | 16673m | -12.5m/s | -52.9°C | 3.6% | 98hPa | 2.5V | 08:17:47 | 02:33:33 | 00:00:00 | |
| DB0NH | 2026-09-02 12:51:32 | 51.09509 | 8.14013 | 104° | 44km/h | 16613m | -11.4m/s | -52.7°C | 3.6% | 98.8hPa | 2.6V | 00:00:00 | 02:33:38 | 00:00:00 | |
| DJ8HS-15 | 2026-09-02 12:51:30 | 51.09515 | 8.13978 | 105° | 44km/h | 16636m | -11.4m/s | -52.8°C | 3.5% | 98.5hPa | 2.6V | 08:17:00 | 02:33:36 | 00:00:00 | |
| DJ2DS-15 | 2026-09-02 12:51:29 | 51.09520 | 8.13942 | 102° | 44km/h | 16660m | -12.7m/s | -52.9°C | 1.0% | 98.2hPa | 2.5V | 00:00:00 | 00:00:00 | 00:00:00 | |
| AU51GT2 | 2026-09-02 12:51:28 | 51.09520 | 8.13942 | 102° | 44km/h | 16660m | -12.7m/s | -52.9°C | 1.0% | 98.2hPa | 2.5V | 00:00:00 | 00:00:00 | 00:00:00 | |
| DK9SH | 2026-09-02 12:51:27 | 51.09523 | 8.13925 | 105° | 46km/h | 16673m | -12.5m/s | -52.9°C | 1.0% | 98.0hPa | 2.5V | 08:18:00 | 00:00:00 | 00:00:00 | |
| DL1XH1-15 | 2026-09-02 12:51:26 | 51.09529 | 8.13889 | 105° | 46km/h | 16696m | -12m/s | -52.9°C | 3.6% | 97.6hPa | 2.5V | 08:17:49 | 02:33:31 | 00:00:00 | |
| DB0DAN | 2026-09-02 12:51:25 | 51.09529 | 8.13889 | 105° | 44km/h | 16696m | -12m/s | -52.9°C | 0% | 97.62hPa | 2.5V | 00:00:00 | 00:00:00 | 00:00:00 | |
| DM0DOS-11 | 2026-09-02 12:51:25 | 51.09532 | 8.13871 | 107° | 46km/h | 16708m | -12.1m/s | -52.9°C | 3.6% | 97.5hPa | 2.6V | 08:17:50 | 02:33:30 | 00:00:00 | |
| HSKMA3-T | 2026-09-02 12:51:25 | 51.09529 | 8.13889 | 105° | 46km/h | 16696m | -12m/s | -52.9°C | 0% | 97.6hPa | 2.5V | 08:18:20 | 02:33:31 | 00:00:00 | |
| AA1-15 | 2026-09-02 12:51:24 | 51.09532 | 8.13871 | 108° | 46km/h | 16708m | -12.1m/s | -52.9°C | 0.1% | 97.5hPa | 2.6V | 08:18:20 | 02:33:30 | 00:00:00 | |
| BIOWL1-15 | 2026-09-02 12:51:23 | 51.09559 | 8.13723 | 101° | 40km/h | 16819m | -12.9m/s | -53°C | 0% | 95.8hPa | 2.5V | 08:18:20 | 02:33:21 | 00:00:00 | |
| DL3OBA | 2026-09-02 12:51:23 | 51.09535 | 8.13853 | 110° | 46km/h | 16720m | -12.1m/s | -52.9°C | 1.0% | 97.3hPa | 2.5V | 08:18:00 | 00:00:00 | 00:00:00 | |
| DL1XH-west | 2026-09-02 12:51:23 | 51.09543 | 8.13820 | 107° | 44km/h | 16745m | -12.6m/s | -52.8°C | 0% | 96.9hPa | 2.5V | 08:18:20 | 02:33:27 | 00:00:00 | |
| SO1NDE-10 | 2026-09-02 12:51:22 | 51.09539 | 8.13837 | 110° | 44km/h | 16733m | -12.7m/s | -52.8°C | 3.6% | 97.1hPa | 2.5V | 00:00:00 | 02:33:28 | 00:00:00 | |
| DO9LL-15 | 2026-09-02 12:51:21 | 51.09542 | 8.13820 | 107° | 44km/h | 16746m | -12.6m/s | -52.8°C | 3.5% | 96.9hPa | 2.5V | 00:00:00 | 02:33:27 | 00:00:00 | |
| DM0DOS-11 | 2026-09-02 12:51:20 | 51.09560 | 8.13707 | 99° | 40km/h | 16833m | -13.1m/s | -53°C | 3.5% | 95.6hPa | 2.5V | 08:18:00 | 02:33:20 | 00:00:00 | |
| DL1NUX | 2026-09-02 12:51:17 | 51.09554 | 8.13755 | 102° | 40km/h | 16795m | -12m/s | -52.9°C | 3.5% | 96.2hPa | 2.6V | 08:17:57 | 02:33:23 | 00:00:00 | |
| HSKMA3-T | 2026-09-02 12:51:14 | 51.09561 | 8.13707 | 100° | 40km/h | 16833m | -13.1m/s | -53°C | 0% | 95.6hPa | 2.5V | 08:18:20 | 02:33:20 | 00:00:00 | |
| AA1-15 | 2026-09-02 12:51:13 | 51.09562 | 8.13691 | 97° | 40km/h | 16846m | -13.1m/s | -52.8°C | 0.1% | 95.4hPa | 2.6V | 08:18:20 | 02:33:19 | 00:00:00 | |
| DL1XH-west | 2026-09-02 12:51:10 | 51.09565 | 8.13642 | 95° | 42km/h | 16884m | -13m/s | -52.8°C | 0% | 94.9hPa | 2.5V | 08:18:20 | 02:33:16 | 00:00:00 | |
| DB0DAN | 2026-09-02 12:51:10 | 51.09565 | 8.13642 | 95° | 40km/h | 16884m | -13m/s | -52.8°C | 0% | 94.87hPa | 2.5V | 00:00:00 | 00:00:00 | 00:00:00 | |
| DD8BA-10 | 2026-09-02 12:51:10 | 51.09565 | 8.13642 | 95° | 47km/h | 16885m | -13.0m/s | -52.8°C | 3.5% | 94.8hPa | 2.5V | 00:00:00 | 00:00:00 | 00:00:00 | |
| DM0DOS-11 | 2026-09-02 12:51:09 | 51.09572 | 8.13533 | 98° | 51km/h | 16961m | -13.3m/s | -53.4°C | 3.7% | 93.7hPa | 2.5V | 08:18:10 | 02:33:10 | 00:00:00 | |
| BIOWL1-15 | 2026-09-02 12:51:08 | 51.09569 | 8.13572 | 95° | 47km/h | 16935m | -12.2m/s | -53.2°C | 0.1% | 94.1hPa | 2.6V | 08:18:20 | 02:33:12 | 00:00:00 | |
| DK9SH | 2026-09-02 12:51:06 | 51.09568 | 8.13590 | 96° | 46km/h | 16923m | -12.5m/s | -53.1°C | 1.0% | 94.3hPa | 2.5V | 08:18:00 | 00:00:00 | 00:00:00 | |
| DL1XH-15 | 2026-09-02 12:51:05 | 51.09574 | 8.13513 | 100° | 51km/h | 16974m | -13.1m/s | -53.5°C | 3.7% | 93.5hPa | 2.5V | 08:18:11 | 02:33:09 | 00:00:00 | |
| HSKMA3-T | 2026-09-02 12:51:03 | 51.09574 | 8.13513 | 101° | 51km/h | 16974m | -13.1m/s | -53.5°C | 0.1% | 93.5hPa | 2.5V | 08:18:20 | 02:33:09 | 00:00:00 | |
| AA1-15 | 2026-09-02 12:51:03 | 51.09577 | 8.13493 | 102° | 51km/h | 16987m | -12m/s | -53.5°C | 0% | 93.4hPa | 2.5V | 08:18:20 | 02:33:08 | 00:00:00 | |
| DL1NUX | 2026-09-02 12:51:02 | 51.09590 | 8.13399 | 101° | 44km/h | 17050m | -12.4m/s | -53.8°C | 3.8% | 92.4hPa | 2.6V | 08:18:17 | 02:33:03 | 00:00:00 | |
| DL1XH-west | 2026-09-02 12:50:59 | 51.09585 | 8.13434 | 102° | 47km/h | 17024m | -13.1m/s | -53.7°C | 0.1% | 92.8hPa | 2.5V | 08:18:20 | 02:33:05 | 00:00:00 | |
| AU51GT2 | 2026-09-02 12:50:57 | 51.09590 | 8.13399 | 101° | 42km/h | 17050m | -12.4m/s | -53.8°C | 1.0% | 92.4hPa | 2.5V | 00:00:00 | 00:00:00 | 00:00:00 | |
| DL1XH1-15 | 2026-09-02 12:50:56 | 51.09595 | 8.13366 | 105° | 42km/h | 17076m | -12.7m/s | -53.8°C | 3.7% | 92.1hPa | 2.5V | 08:18:19 | 02:33:01 | 00:00:00 | |
| BIOWL1-15 | 2026-09-02 12:50:56 | 51.09610 | 8.13214 | 94° | 47km/h | 17194m | -12.8m/s | -53.7°C | 0.1% | 90.4hPa | 2.6V | 08:19:11 | 02:32:52 | 00:00:00 | |
| DL1XH-15 | 2026-09-02 12:50:55 | 51.09600 | 8.13334 | 102° | 42km/h | 17102m | -13m/s | -53.5°C | 3.6% | 91.7hPa | 2.5V | 08:18:21 | 02:32:59 | 00:00:00 | |
| HSKMA3-T | 2026-09-02 12:50:53 | 51.09600 | 8.13334 | 102° | 42km/h | 17102m | -13m/s | -53.5°C | 0% | 91.7hPa | 2.5V | 08:19:11 | 02:32:59 | 00:00:00 | |
| AA1-15 | 2026-09-02 12:50:52 | 51.09603 | 8.13302 | 101° | 40km/h | 17128m | -13.1m/s | -53.5°C | 0% | 91.3hPa | 2.6V | 08:19:11 | 02:32:57 | 00:00:00 | |
| DL1XH-west | 2026-09-02 12:50:50 | 51.09607 | 8.13269 | 99° | 44km/h | 17154m | -13.3m/s | -53.7°C | 0.1% | 91hPa | 2.5V | 08:19:11 | 02:32:55 | 00:00:00 | |
| DM0DOS-11 | 2026-09-02 12:50:49 | 51.09612 | 8.13174 | 94° | 51km/h | 17220m | -13.3m/s | -53.7°C | 3.7% | 90hPa | 2.6V | 08:18:30 | 02:32:50 | 00:00:00 | |
| DL1NUX | 2026-09-02 12:50:48 | 51.09610 | 8.13233 | 94° | 47km/h | 17181m | -12.8m/s | -53.7°C | 3.7% | 90.6hPa | 2.5V | 08:18:27 | 02:32:53 | 00:00:00 | |
| BIOWL1-15 | 2026-09-02 12:50:45 | 51.09611 | 8.13195 | 94° | 49km/h | 17207m | -13.1m/s | -53.7°C | 0.1% | 90.2hPa | 2.6V | 08:19:11 | 02:32:51 | 00:00:00 | |
| DL8DAS-14 | 2026-09-02 12:50:44 | 51.09612 | 8.13174 | 94° | 51km/h | 17220m | -13.3m/s | -53.7°C | 1.0% | 90.0hPa | 2.5V | 00:00:00 | 00:00:00 | 00:00:00 | |
| HSKMA3-T | 2026-09-02 12:50:42 | 51.09614 | 8.13132 | 96° | 55km/h | 17246m | -13.1m/s | -53.6°C | 0% | 89.7hPa | 2.5V | 08:19:11 | 02:32:48 | 00:00:00 | |
| AA1-15 | 2026-09-02 12:50:40 | 51.09618 | 8.13088 | 99° | 57km/h | 17271m | -12.4m/s | -53.6°C | 0% | 89.3hPa | 2.6V | 08:19:11 | 02:32:46 | 00:00:00 | |
| DL1XH-west | 2026-09-02 12:50:38 | 51.09622 | 8.13044 | 99° | 57km/h | 17296m | -12.8m/s | -53.6°C | 0.1% | 89hPa | 2.5V | 08:19:11 | 02:32:44 | 00:00:00 | |
| DL1NUX | 2026-09-02 12:50:37 | 51.09624 | 8.13022 | 99° | 55km/h | 17310m | -13.2m/s | -53.5°C | 3.6% | 88.8hPa | 2.5V | 08:18:37 | 02:32:43 | 00:00:00 | |
| DL1XH1-15 | 2026-09-02 12:50:36 | 51.09628 | 8.12979 | 97° | 53km/h | 17336m | -13.1m/s | -53.5°C | 3.6% | 88.4hPa | 2.6V | 08:18:39 | 02:32:41 | 00:00:00 | |
| BIOWL1-15 | 2026-09-02 12:50:35 | 51.09628 | 8.12979 | 98° | 53km/h | 17336m | -13.1m/s | -53.5°C | 0.1% | 88.4hPa | 2.6V | 08:19:11 | 02:32:41 | 00:00:00 | |
| HSKMA3-T | 2026-09-02 12:50:32 | 51.09633 | 8.12918 | 96° | 51km/h | 17375m | -13m/s | -53.7°C | 0.1% | 87.9hPa | 2.5V | 08:19:11 | 02:32:38 | 00:00:00 | |
| AA1-15 | 2026-09-02 12:50:29 | 51.09638 | 8.12859 | 102° | 47km/h | 17415m | -14.1m/s | -53.6°C | 0.1% | 87.3hPa | 2.6V | 08:19:11 | 02:32:35 | 00:00:00 | |
| DM0DOS-11 | 2026-09-02 12:50:29 | 51.09652 | 8.12768 | 105° | 44km/h | 17481m | -13.3m/s | -53.5°C | 3.6% | 86.4hPa | 2.6V | 08:18:50 | 02:32:30 | 00:00:00 | |
| DL1XH-west | 2026-09-02 12:50:27 | 51.09644 | 8.12822 | 104° | 47km/h | 17442m | -13.5m/s | -53.5°C | 0% | 87hPa | 2.5V | 08:19:11 | 02:32:33 | 00:00:00 | |
| DL1XH1-15 | 2026-09-02 12:50:26 | 51.09650 | 8.12785 | 101° | 44km/h | 17468m | -12.9m/s | -53.5°C | 3.6% | 86.6hPa | 2.6V | 08:18:49 | 02:32:31 | 00:00:00 | |
| BIOWL1-15 | 2026-09-02 12:50:25 | 51.09655 | 8.12751 | 105° | 44km/h | 17495m | -13.5m/s | -53.6°C | 0% | 86.3hPa | 2.6V | 08:19:11 | 02:32:29 | 00:00:00 | |
| HSKMA3-T | 2026-09-02 12:50:22 | 51.09657 | 8.12734 | 102° | 44km/h | 17508m | -13m/s | -53.6°C | 0% | 86.1hPa | 2.5V | 08:19:11 | 02:32:28 | 00:00:00 | |
| AA1-15 | 2026-09-02 12:50:19 | 51.09668 | 8.12668 | 104° | 42km/h | 17560m | -12.3m/s | -53.9°C | 0% | 85.4hPa | 2.6V | 08:19:11 | 02:32:24 | 00:00:00 | |
| DM0DOS-11 | 2026-09-02 12:50:18 | 51.09679 | 8.12608 | 109° | 37km/h | 17612m | -13.1m/s | -53.9°C | 3.7% | 84.7hPa | 2.6V | 08:19:00 | 02:32:20 | 00:00:00 | |
| DL1XH-west | 2026-09-02 12:50:17 | 51.09670 | 8.12653 | 107° | 40km/h | 17573m | -12.8m/s | -53.9°C | 0.1% | 85.2hPa | 2.5V | 08:19:11 | 02:32:23 | 00:00:00 | |
| DL1XH1-15 | 2026-09-02 12:50:16 | 51.09676 | 8.12623 | 105° | 38km/h | 17599m | -13.4m/s | -53.9°C | 3.7% | 84.9hPa | 2.6V | 08:18:59 | 02:32:21 | 00:00:00 | |
| DL1XH-15 | 2026-09-02 12:50:16 | 51.09685 | 8.12581 | 107° | 35km/h | 17638m | -13.2m/s | -53.8°C | 3.7% | 84.3hPa | 2.5V | 08:19:02 | 02:32:18 | 00:00:00 | |
| BIOWL1-15 | 2026-09-02 12:50:14 | 51.09679 | 8.12608 | 110° | 37km/h | 17612m | -13.1m/s | -53.9°C | 0.1% | 84.7hPa | 2.6V | 08:19:11 | 02:32:20 | 00:00:00 | |
| DL4BBY-15 | 2026-09-02 12:50:14 | 51.09679 | 8.12608 | 110° | 40km/h | 17612m | -13.1m/s | -53.7°C | 0% | 0hPa | 2.5V | 00:00:00 | 00:00:00 | 00:00:00 | |
| DD1CC3-15 | 2026-09-02 12:50:13 | 51.09679 | 8.12608 | 111° | 37km/h | 17612m | -13.1m/s | -53.9°C | 1.0% | 84.7hPa | 2.5V | 08:19:00 | 00:00:00 | 00:00:00 | |
| DL1NUX | 2026-09-02 12:50:12 | 51.09698 | 8.12517 | 110° | 33km/h | 17704m | -13.2m/s | -53.8°C | 3.7% | 83.5hPa | 2.5V | 08:19:07 | 02:32:13 | 00:00:00 | |
| HSKMA3-T | 2026-09-02 12:50:11 | 51.09688 | 8.12568 | 112° | 35km/h | 17652m | -13.2m/s | -53.8°C | 0% | 84.1hPa | 2.5V | 08:19:11 | 02:32:17 | 00:00:00 | |
| EDDB2-11 | 2026-09-02 12:50:11 | 51.09688 | 8.12568 | 111° | 35km/h | 17652m | -13.2m/s | -53.8°C | 0.9% | 84.1hPa | 2.5V | 00:00:00 | 00:00:00 | 00:00:00 | |
| DJ8HS-15 | 2026-09-02 12:50:10 | 51.09690 | 8.12554 | 107° | 38km/h | 17665m | -13.3m/s | -53.7°C | 3.7% | 83.9hPa | 2.5V | 00:00:00 | 02:32:16 | 00:00:00 | |
| AM1SDL-15 | 2026-09-02 12:50:09 | 51.09693 | 8.12542 | 108° | 35km/h | 17678m | -13.4m/s | -53.7°C | 3.7% | 83.8hPa | 2.5V | 00:00:00 | 02:32:15 | 00:00:00 | |
| DL1XH1-15 | 2026-09-02 12:50:08 | 51.09704 | 8.12491 | 108° | 33km/h | 17731m | -13.6m/s | -53.8°C | 3.7% | 83.1hPa | 2.5V | 08:19:09 | 02:32:11 | 00:00:00 | |
| DL1XH-west | 2026-09-02 12:50:07 | 51.09698 | 8.12517 | 111° | 33km/h | 17704m | -13.2m/s | -53.8°C | 0% | 83.5hPa | 2.5V | 08:19:11 | 02:32:13 | 00:00:00 | |
| DM0DOS-11 | 2026-09-02 12:50:05 | 51.09706 | 8.12478 | 106° | 35km/h | 17745m | -14.1m/s | -53.6°C | 3.7% | 83hPa | 2.6V | 08:19:10 | 02:32:10 | 00:00:00 | |
| BIOWL1-15 | 2026-09-02 12:50:03 | 51.09709 | 8.12464 | 101° | 37km/h | 17759m | -13.8m/s | -53.6°C | 0% | 82.8hPa | 2.6V | 08:19:11 | 02:32:09 | 00:00:00 | |
| DL1XH-15 | 2026-09-02 12:50:03 | 51.09710 | 8.12450 | 100° | 37km/h | 17772m | -13.6m/s | -53.6°C | 3.7% | 82.6hPa | 2.6V | 08:19:12 | 02:32:08 | 00:00:00 | |
| HSKMA3-T | 2026-09-02 12:50:02 | 51.09712 | 8.12435 | 100° | 38km/h | 17786m | -13.7m/s | -53.7°C | 0% | 82.4hPa | 2.5V | 08:20:02 | 02:32:07 | 00:00:00 | |
| DL9SK-14 | 2026-09-02 12:50:00 | 51.09714 | 8.12404 | 91° | 38km/h | 17814m | -14.5m/s | -53.9°C | 1.0% | 82.1hPa | 2.5V | 00:00:00 | 00:00:00 | 00:00:00 | |
| DM0DOS-11 | 2026-09-02 12:49:59 | 51.09716 | 8.12324 | 93° | 44km/h | 17885m | -14.5m/s | -54°C | 3.9% | 81.2hPa | 2.5V | 08:19:20 | 02:32:00 | 00:00:00 | |
| DL1XH-west | 2026-09-02 12:49:57 | 51.09714 | 8.12373 | 93° | 40km/h | 17842m | -14.2m/s | -53.9°C | 0.1% | 81.7hPa | 2.6V | 08:20:02 | 02:32:03 | 00:00:00 | |
| DL1XH1-15 | 2026-09-02 12:49:57 | 51.09716 | 8.12341 | 93° | 42km/h | 17870m | -13.9m/s | -54°C | 3.8% | 81.3hPa | 2.5V | 08:19:19 | 02:32:01 | 00:00:00 | |
| BIOWL1-15 | 2026-09-02 12:49:52 | 51.09719 | 8.12288 | 98° | 46km/h | 17914m | -14.5m/s | -54°C | 0.2% | 80.8hPa | 2.6V | 08:20:02 | 02:31:58 | 00:00:00 | |
| DO2KSM | 2026-09-02 12:49:52 | 51.09719 | 8.12288 | 99° | 46km/h | 17914m | -14.5m/s | -54.0°C | 1.0% | 80.8hPa | 2.6V | 08:20:00 | 00:00:00 | 00:00:00 | |
| DL1NUX | 2026-09-02 12:49:51 | 51.09734 | 8.12193 | 110° | 51km/h | 17984m | -14.8m/s | -54°C | 3.9% | 80hPa | 2.6V | 08:19:27 | 02:31:53 | 00:00:00 | |
| HSKMA3-T | 2026-09-02 12:49:50 | 51.09723 | 8.12251 | 103° | 49km/h | 17942m | -13.5m/s | -54°C | 0.1% | 80.4hPa | 2.5V | 08:20:02 | 02:31:56 | 00:00:00 | |
| DL3AQ-11 | 2026-09-02 12:49:49 | 51.09726 | 8.12232 | 105° | 49km/h | 17956m | -13.7m/s | -54.0°C | 1.0% | 80.3hPa | 2.5V | 00:00:00 | 00:00:00 | 00:00:00 | |
| DM0DOS-11 | 2026-09-02 12:49:48 | 51.09747 | 8.12136 | 108° | 46km/h | 18027m | -14.3m/s | -53.9°C | 3.9% | 79.3hPa | 2.5V | 08:19:30 | 02:31:50 | 00:00:00 | |
| DL1XH-west | 2026-09-02 12:49:47 | 51.09743 | 8.12155 | 110° | 51km/h | 18013m | -13.7m/s | -53.9°C | 0.1% | 79.6hPa | 2.5V | 08:20:02 | 02:31:51 | 00:00:00 | |
| DL1XH1-15 | 2026-09-02 12:49:47 | 51.09743 | 8.12155 | 109° | 51km/h | 18013m | -13.7m/s | -53.9°C | 3.8% | 79.6hPa | 2.5V | 08:19:29 | 02:31:51 | 00:00:00 | |
| AA1-15 | 2026-09-02 12:49:47 | 51.09747 | 8.12136 | 109° | 46km/h | 18027m | -14.3m/s | -53.9°C | 0.2% | 79.4hPa | 2.5V | 08:20:02 | 02:31:50 | 00:00:00 | |
| DL1XH-15 | 2026-09-02 12:49:46 | 51.09754 | 8.12102 | 108° | 44km/h | 18055m | -13.7m/s | -53.9°C | 3.9% | 79hPa | 2.6V | 08:19:32 | 02:31:48 | 00:00:00 | |
| WPPR-10 | 2026-09-02 12:49:45 | 51.09747 | 8.12136 | 108° | 46km/h | 18027m | -14.3m/s | -53.9°C | 1.0% | 79.4hPa | 2.6V | 00:00:00 | 00:00:00 | 00:00:00 | |
| DL4BBY-15 | 2026-09-02 12:49:44 | 51.09747 | 8.12136 | 109° | 40km/h | 18028m | -14.2m/s | -53.6°C | 0% | 0hPa | 2.6V | 00:00:00 | 00:00:00 | 00:00:00 | |
| DK9SH | 2026-09-02 12:49:43 | 51.09747 | 8.12136 | 110° | 46km/h | 18027m | -14.3m/s | -53.9°C | 1.0% | 79.4hPa | 2.6V | 08:20:00 | 00:00:00 | 00:00:00 | |
| DO3DL | 2026-09-02 12:49:42 | 51.09751 | 8.12119 | 109° | 46km/h | 18042m | -14.0m/s | -53.9°C | 1.0% | 79.2hPa | 2.6V | 08:20:00 | 00:00:00 | 00:00:00 | |
| DL1NUX | 2026-09-02 12:49:41 | 51.09768 | 8.12021 | 102° | 42km/h | 18126m | -14.7m/s | -53.3°C | 3.7% | 78.2hPa | 2.6V | 08:19:37 | 02:31:43 | 00:00:00 | |
| BIOWL1-15 | 2026-09-02 12:49:41 | 51.09758 | 8.12086 | 108° | 42km/h | 18069m | -14.2m/s | -53.8°C | 0.2% | 78.9hPa | 2.6V | 08:20:02 | 02:31:47 | 00:00:00 | |
| HSKMA3-T | 2026-09-02 12:49:40 | 51.09761 | 8.12070 | 106° | 42km/h | 18083m | -14.4m/s | -53.6°C | 0.1% | 78.7hPa | 2.5V | 08:20:02 | 02:31:46 | 00:00:00 | |
| DL1XH-west | 2026-09-02 12:49:36 | 51.09771 | 8.12004 | 105° | 44km/h | 18140m | -13.6m/s | -53.3°C | 0.1% | 78hPa | 2.6V | 08:20:02 | 02:31:42 | 00:00:00 | |
| AA1-15 | 2026-09-02 12:49:35 | 51.09776 | 8.11969 | 102° | 46km/h | 18169m | -14.5m/s | -53.4°C | 0.1% | 77.7hPa | 2.5V | 08:20:02 | 02:31:40 | 00:00:00 | |
| DD1CC1-15 | 2026-09-02 12:49:35 | 51.09773 | 8.11987 | 105° | 46km/h | 18154m | -14.2m/s | -53.4°C | 0.9% | 77.8hPa | 2.5V | 08:20:00 | 00:00:00 | 00:00:00 | |
| DO1YAY-16 | 2026-09-02 12:49:34 | 51.09776 | 8.11969 | 102° | 46km/h | 18169m | -14.5m/s | -53.4°C | 0.9% | 77.7hPa | 2.5V | 00:00:00 | 00:00:00 | 00:00:00 | |
| DB0NH | 2026-09-02 12:49:32 | 51.09782 | 8.11933 | 106° | 35km/h | 18198m | -14.7m/s | -53.4°C | 3.8% | 77.3hPa | 2.5V | 08:19:00 | 02:31:38 | 00:00:00 | |
| DL1NUX | 2026-09-02 12:49:31 | 51.09801 | 8.11854 | 117° | 38km/h | 18271m | -14.2m/s | -53.1°C | 3.7% | 76.5hPa | 2.5V | 08:19:47 | 02:31:33 | 00:00:00 | |
| BIOWL1-15 | 2026-09-02 12:49:30 | 51.09789 | 8.11898 | 109° | 44km/h | 18227m | -15.1m/s | -53.2°C | 0.1% | 77hPa | 2.6V | 08:20:02 | 02:31:36 | 00:00:00 | |
| DL1XH-west | 2026-09-02 12:49:26 | 51.09811 | 8.11829 | 128° | 35km/h | 18300m | -14.9m/s | -52.8°C | 0% | 76.1hPa | 2.6V | 08:20:02 | 02:31:31 | 00:00:00 | |
| AA1-15 | 2026-09-02 12:49:25 | 51.09817 | 8.11818 | 130° | 33km/h | 18315m | -14.4m/s | -52.7°C | 0% | 75.9hPa | 2.6V | 08:20:02 | 02:31:30 | 00:00:00 | |
| AU51GT2 | 2026-09-02 12:49:24 | 51.09817 | 8.11818 | 129° | 33km/h | 18315m | -14.4m/s | -52.7°C | 0.9% | 75.9hPa | 2.5V | 00:00:00 | 00:00:00 | 00:00:00 | |
| DD1CC2-15 | 2026-09-02 12:49:23 | 51.09817 | 8.11818 | 131° | 33km/h | 18315m | -14.4m/s | -52.7°C | 0.9% | 75.9hPa | 2.5V | 08:20:00 | 00:00:00 | 00:00:00 | |
| SO1NDE-10 | 2026-09-02 12:49:22 | 51.09827 | 8.11798 | 131° | 35km/h | 18344m | -14.1m/s | -52.6°C | 3.6% | 75.6hPa | 2.5V | 00:00:00 | 02:31:28 | 00:00:00 | |
| DL1NUX | 2026-09-02 12:49:21 | 51.09848 | 8.11742 | 107° | 33km/h | 18415m | -14.4m/s | -52.2°C | 3.4% | 74.8hPa | 2.5V | 08:19:57 | 02:31:23 | 00:00:00 | |
| BIOWL1-15 | 2026-09-02 12:49:20 | 51.09851 | 8.11730 | 101° | 31km/h | 18429m | -14.3m/s | -52.1°C | 0% | 74.6hPa | 2.6V | 08:20:02 | 02:31:22 | 00:00:00 | |
| HSKMA3-T | 2026-09-02 12:49:19 | 51.09842 | 8.11766 | 118° | 33km/h | 18386m | -14.6m/s | -52.6°C | 0.1% | 75.1hPa | 2.5V | 08:20:02 | 02:31:25 | 00:00:00 | |
| DL1XH-west | 2026-09-02 12:49:16 | 51.09852 | 8.11717 | 98° | 31km/h | 18444m | -14.5m/s | -52.1°C | 0% | 74.4hPa | 2.6V | 08:20:02 | 02:31:21 | 00:00:00 | |
| AA1-15 | 2026-09-02 12:49:14 | 51.09853 | 8.11705 | 97° | 31km/h | 18458m | -14.2m/s | -52.1°C | 0% | 74.3hPa | 2.6V | 08:20:02 | 02:31:20 | 00:00:00 | |
| DL4BBY-15 | 2026-09-02 12:49:14 | 51.09853 | 8.11705 | 98° | 35km/h | 18458m | -14.2m/s | -51.9°C | 0% | 0hPa | 2.5V | 00:00:00 | 00:00:00 | 00:00:00 | |
| DL1XH-15 | 2026-09-02 12:49:13 | 51.09856 | 8.11668 | 95° | 31km/h | 18500m | -14.1m/s | -51.9°C | 3.4% | 73.7hPa | 2.5V | 08:20:03 | 02:31:17 | 00:00:00 | |
| DD1CC3-15 | 2026-09-02 12:49:13 | 51.09854 | 8.11693 | 100° | 31km/h | 18472m | -14.0m/s | -52.1°C | 0.9% | 74.1hPa | 2.5V | 08:20:00 | 00:00:00 | 00:00:00 | |
| DL3OBA | 2026-09-02 12:49:12 | 51.09855 | 8.11681 | 97° | 31km/h | 18486m | -14.2m/s | -52.0°C | 0.8% | 73.9hPa | 2.5V | 08:20:00 | 00:00:00 | 00:00:00 | |
| DL1NUX | 2026-09-02 12:49:11 | 51.09859 | 8.11621 | 93° | 31km/h | 18558m | -14.6m/s | -51.8°C | 3.4% | 73.1hPa | 2.5V | 08:20:07 | 02:31:13 | 00:00:00 | |
| HSKMA3-T | 2026-09-02 12:49:09 | 51.09857 | 8.11645 | 99° | 29km/h | 18529m | -14.5m/s | -51.8°C | 0% | 73.5hPa | 2.6V | 08:20:53 | 02:31:15 | 00:00:00 | |
| BIOWL1-15 | 2026-09-02 12:49:09 | 51.09858 | 8.11633 | 98° | 31km/h | 18543m | -15.2m/s | -51.8°C | 0% | 73.3hPa | 2.6V | 08:20:53 | 02:31:14 | 00:00:00 | |
| EDDB2-11 | 2026-09-02 12:49:09 | 51.09858 | 8.11633 | 97° | 29km/h | 18544m | -15.2m/s | -51.8°C | 0.8% | 73.3hPa | 2.5V | 00:00:00 | 00:00:00 | 00:00:00 | |
| DO3DL | 2026-09-02 12:49:08 | 51.09858 | 8.11633 | 99° | 31km/h | 18544m | -15.2m/s | -51.8°C | 0.8% | 73.3hPa | 2.5V | 08:20:00 | 00:00:00 | 00:00:00 | |
| DM0DOS-11 | 2026-09-02 12:49:07 | 51.09859 | 8.11608 | 90° | 33km/h | 18573m | -14.3m/s | -51.9°C | 3.4% | 72.9hPa | 2.5V | 08:20:08 | 02:31:12 | 00:00:00 | |
| DL1XH-west | 2026-09-02 12:49:05 | 51.09859 | 8.11594 | 86° | 35km/h | 18587m | -14.9m/s | -51.9°C | 0% | 72.8hPa | 2.5V | 08:20:53 | 02:31:11 | 00:00:00 | |
| AA1-15 | 2026-09-02 12:49:04 | 51.09858 | 8.11580 | 83° | 37km/h | 18602m | -14.9m/s | -51.9°C | 0% | 72.6hPa | 2.6V | 08:20:53 | 02:31:10 | 00:00:00 | |
| DO1YAY-16 | 2026-09-02 12:49:03 | 51.09857 | 8.11566 | 82° | 37km/h | 18617m | -14.2m/s | -51.9°C | 0.8% | 72.5hPa | 2.5V | 00:00:00 | 00:00:00 | 00:00:00 | |
| DL1XH-15 | 2026-09-02 12:49:02 | 51.09855 | 8.11535 | 83° | 40km/h | 18646m | -14.9m/s | -51.9°C | 3.4% | 72.1hPa | 2.5V | 08:20:13 | 02:31:07 | 00:00:00 | |
| DB0NH | 2026-09-02 12:49:02 | 51.09856 | 8.11551 | 84° | 38km/h | 18632m | -14.4m/s | -51.8°C | 3.4% | 72.3hPa | 2.6V | 00:00:00 | 02:31:08 | 00:00:00 | |
| DL1NUX | 2026-09-02 12:49:01 | 51.09854 | 8.11471 | 95° | 38km/h | 18706m | -14.9m/s | -51.8°C | 3.3% | 71.5hPa | 2.6V | 08:20:17 | 02:31:03 | 00:00:00 | |
| HSKMA3-T | 2026-09-02 12:48:59 | 51.09853 | 8.11487 | 91° | 40km/h | 18691m | -14.7m/s | -51.8°C | 0% | 71.6hPa | 2.6V | 08:20:53 | 02:31:04 | 00:00:00 | |
| BIOWL1-15 | 2026-09-02 12:48:58 | 51.09864 | 8.11398 | 105° | 37km/h | 18781m | -14.5m/s | -51.7°C | 0% | 70.7hPa | 2.5V | 08:20:53 | 02:30:58 | 00:00:00 | |
| DL3AQ-11 | 2026-09-02 12:48:57 | 51.09855 | 8.11456 | 100° | 38km/h | 18721m | -15.6m/s | -51.8°C | 0.8% | 71.3hPa | 2.5V | 00:00:00 | 00:00:00 | 00:00:00 | |
| DL1XH-15 | 2026-09-02 12:48:56 | 51.09866 | 8.11384 | 104° | 35km/h | 18795m | -15m/s | -51.7°C | 3.3% | 70.5hPa | 2.5V | 08:20:23 | 02:30:57 | 00:00:00 | |
| AA1-15 | 2026-09-02 12:48:54 | 51.09859 | 8.11427 | 103° | 37km/h | 18751m | -15m/s | -51.6°C | 0% | 71hPa | 2.6V | 08:20:53 | 02:31:00 | 00:00:00 | |
| AU51GT2 | 2026-09-02 12:48:53 | 51.09862 | 8.11412 | 105° | 37km/h | 18766m | -14.9m/s | -51.7°C | 0.8% | 70.8hPa | 2.5V | 00:00:00 | 00:00:00 | 00:00:00 | |
| SO1NDE-10 | 2026-09-02 12:48:52 | 51.09864 | 8.11398 | 106° | 38km/h | 18781m | -14.4m/s | -51.6°C | 3.3% | 70.6hPa | 2.5V | 00:00:00 | 02:30:58 | 00:00:00 | |
| DL1NUX | 2026-09-02 12:48:51 | 51.09874 | 8.11328 | 95° | 37km/h | 18855m | -14.8m/s | -51.8°C | 3.3% | 69.8hPa | 2.5V | 08:20:27 | 02:30:53 | 00:00:00 | |
| HSKMA3-T | 2026-09-02 12:48:48 | 51.09873 | 8.11343 | 100° | 37km/h | 18840m | -14.8m/s | -51.8°C | 0% | 70hPa | 2.5V | 08:20:53 | 02:30:54 | 00:00:00 | |
| BIOWL1-15 | 2026-09-02 12:48:47 | 51.09879 | 8.11175 | 103° | 40km/h | 19004m | -14.3m/s | -52.6°C | 0% | 68.2hPa | 2.6V | 08:20:53 | 02:30:43 | 00:00:00 | |
| DL3AQ-11 | 2026-09-02 12:48:46 | 51.09875 | 8.11299 | 89° | 35km/h | 18886m | -14.8m/s | -51.9°C | 0.8% | 69.5hPa | 2.5V | 00:00:00 | 00:00:00 | 00:00:00 | |
| DL1XH-west | 2026-09-02 12:48:44 | 51.09875 | 8.11254 | 89° | 40km/h | 18931m | -15.3m/s | -52.2°C | 0% | 69.1hPa | 2.5V | 08:20:53 | 02:30:48 | 00:00:00 | |
| BUE01 | 2026-09-02 12:48:43 | 51.09875 | 8.11269 | 89° | 37km/h | 18916m | -14.9m/s | -52.1°C | 0.8% | 69.2hPa | 2.5V | 00:00:00 | 00:00:00 | 00:00:00 | |
| DL1XH-15 | 2026-09-02 12:48:42 | 51.09875 | 8.11238 | 88° | 38km/h | 18946m | -14.9m/s | -52.2°C | 3.4% | 68.9hPa | 2.5V | 08:20:33 | 02:30:47 | 00:00:00 | |
| HSKMA3-T | 2026-09-02 12:48:39 | 51.09877 | 8.11190 | 98° | 40km/h | 18990m | -14.9m/s | -52.5°C | 0% | 68.4hPa | 2.6V | 08:20:53 | 02:30:44 | 00:00:00 | |
| BIOWL1-15 | 2026-09-02 12:48:38 | 51.09882 | 8.11159 | 109° | 42km/h | 19019m | -15.2m/s | -52.7°C | 0% | 68.1hPa | 2.5V | 08:20:53 | 02:30:42 | 00:00:00 | |
| WEDDY | 2026-09-02 12:48:38 | 51.09877 | 8.11190 | 99° | 40km/h | 18990m | -14.9m/s | -52.5°C | 0.8% | 68.4hPa | 2.5V | 08:20:00 | 00:00:00 | 00:00:00 | |
| DB0ND-19 | 2026-09-02 12:48:36 | 51.09882 | 8.11159 | 108° | 40km/h | 19019m | -15.2m/s | -52.7°C | 0.9% | 68.1hPa | 2.5V | 00:00:00 | 00:00:00 | 00:00:00 | |
| DL1XH1-15 | 2026-09-02 12:48:35 | 51.09888 | 8.11127 | 109° | 42km/h | 19049m | -14.8m/s | -52.6°C | 3.6% | 67.8hPa | 2.5V | 08:20:40 | 02:30:40 | 00:00:00 | |
| DM0DOS-11 | 2026-09-02 12:48:34 | 51.09899 | 8.11084 | 108° | 37km/h | 19094m | -14.7m/s | -52.6°C | 3.6% | 67.3hPa | 2.6V | 08:20:43 | 02:30:37 | 00:00:00 | |
| DL1XH-west | 2026-09-02 12:48:33 | 51.09895 | 8.11098 | 113° | 38km/h | 19079m | -14.7m/s | -52.6°C | 0.1% | 67.5hPa | 2.6V | 08:20:53 | 02:30:38 | 00:00:00 | |
| DB0NH | 2026-09-02 12:48:32 | 51.09895 | 8.11098 | 114° | 37km/h | 19079m | -14.6m/s | -52.5°C | 3.6% | 67.4hPa | 2.5V | 00:00:00 | 02:30:38 | 00:00:00 | |
| DL1XH1-15 | 2026-09-02 12:48:30 | 51.09911 | 8.10972 | 93° | 38km/h | 19216m | -15.3m/s | -52.6°C | 3.6% | 66.1hPa | 2.5V | 08:20:51 | 02:30:29 | 00:00:00 | |
| AA1-15 | 2026-09-02 12:48:29 | 51.09906 | 8.11044 | 102° | 33km/h | 19140m | -14.6m/s | -52.6°C | 0.1% | 66.8hPa | 2.5V | 08:20:53 | 02:30:34 | 00:00:00 | |
| HSKMA3-T | 2026-09-02 12:48:27 | 51.09908 | 8.11031 | 98° | 35km/h | 19155m | -15.2m/s | -52.5°C | 0.1% | 66.7hPa | 2.6V | 08:20:53 | 02:30:33 | 00:00:00 | |
| BIOWL1-15 | 2026-09-02 12:48:26 | 51.09912 | 8.10940 | 96° | 42km/h | 19247m | -14.9m/s | -52.7°C | 0.1% | 65.7hPa | 2.6V | 08:20:53 | 02:30:27 | 00:00:00 | |
| DL1XH-west | 2026-09-02 12:48:22 | 51.09911 | 8.10957 | 91° | 40km/h | 19231m | -16m/s | -52.7°C | 0.1% | 65.9hPa | 2.5V | 08:20:53 | 02:30:28 | 00:00:00 | |
| SO1NDE-10 | 2026-09-02 12:48:22 | 51.09911 | 8.10957 | 92° | 29km/h | 19231m | -16.0m/s | -52.6°C | 3.6% | 65.9hPa | 2.6V | 00:00:00 | 02:30:28 | 00:00:00 | |
| DL1NUX | 2026-09-02 12:48:21 | 51.09921 | 8.10874 | 104° | 44km/h | 19308m | -15.1m/s | -52°C | 3.4% | 65.1hPa | 2.6V | 08:20:57 | 02:30:23 | 00:00:00 | |
| DO3DL | 2026-09-02 12:48:21 | 51.09912 | 8.10940 | 97° | 42km/h | 19247m | -14.9m/s | -52.7°C | 0.9% | 65.7hPa | 2.6V | 08:20:00 | 00:00:00 | 00:00:00 | |
| DJ2DS-15 | 2026-09-02 12:48:20 | 51.09914 | 8.10924 | 99° | 33km/h | 19262m | -14.8m/s | -52.6°C | 3.6% | 65.6hPa | 2.6V | 08:20:00 | 02:30:26 | 00:00:00 | |
| DD1CC8 | 2026-09-02 12:48:19 | 51.09915 | 8.10908 | 99° | 42km/h | 19277m | -15.2m/s | -52.5°C | 0.9% | 65.4hPa | 2.6V | 00:00:00 | 00:00:00 | 00:00:00 | |
| DL1XH1-15 | 2026-09-02 12:48:18 | 51.09934 | 8.10813 | 110° | 40km/h | 19369m | -15.6m/s | -51.9°C | 3.4% | 64.5hPa | 2.6V | 08:21:01 | 02:30:19 | 00:00:00 | |
| HSKMA3-T | 2026-09-02 12:48:17 | 51.09920 | 8.10874 | 104° | 44km/h | 19308m | -15.1m/s | -52°C | 0% | 65.2hPa | 2.6V | 08:21:44 | 02:30:23 | 00:00:00 | |
| AA1-15 | 2026-09-02 12:48:14 | 51.09930 | 8.10828 | 111° | 38km/h | 19354m | -15.5m/s | -52°C | 0% | 64.7hPa | 2.5V | 08:21:44 | 02:30:20 | 00:00:00 | |
| BIOWL1-15 | 2026-09-02 12:48:13 | 51.09968 | 8.10712 | 122° | 24km/h | 19513m | -15.9m/s | -52°C | 0% | 63.1hPa | 2.6V | 08:21:44 | 02:30:10 | 00:00:00 | |
| DL1XH-west | 2026-09-02 12:48:12 | 51.09941 | 8.10785 | 117° | 37km/h | 19401m | -15.8m/s | -51.9°C | 0% | 64.2hPa | 2.5V | 08:21:44 | 02:30:17 | 00:00:00 | |
| DL1XH-15 | 2026-09-02 12:48:11 | 51.09945 | 8.10772 | 114° | 33km/h | 19417m | -16.2m/s | -51.9°C | 3.4% | 64.1hPa | 2.5V | 08:21:04 | 02:30:16 | 00:00:00 | |
| DL1NUX | 2026-09-02 12:48:11 | 51.09957 | 8.10739 | 124° | 29km/h | 19466m | -15.7m/s | -51.9°C | 3.4% | 63.6hPa | 2.5V | 08:21:07 | 02:30:13 | 00:00:00 | |
| DB0DAN | 2026-09-02 12:48:10 | 51.09945 | 8.10772 | 115° | 33km/h | 19417m | -16.2m/s | -51.9°C | 0% | 64.06hPa | 2.5V | 00:00:00 | 00:00:00 | 00:00:00 | |
| DJ8HS-15 | 2026-09-02 12:48:10 | 51.09945 | 8.10772 | 115° | 22km/h | 19417m | -16.1m/s | -51.9°C | 3.4% | 64.0hPa | 2.6V | 00:00:00 | 02:30:16 | 00:00:00 | |
| DL8DAS-14 | 2026-09-02 12:48:09 | 51.09949 | 8.10760 | 119° | 33km/h | 19433m | -16.3m/s | -51.9°C | 0.8% | 63.9hPa | 2.6V | 00:00:00 | 00:00:00 | 00:00:00 | |
| DL1XH1-15 | 2026-09-02 12:48:08 | 51.09971 | 8.10704 | 125° | 20km/h | 19529m | -15.6m/s | -52°C | 3.4% | 63hPa | 2.6V | 08:21:11 | 02:30:09 | 00:00:00 | |
| HSKMA3-T | 2026-09-02 12:48:07 | 51.09957 | 8.10739 | 124° | 29km/h | 19466m | -15.7m/s | -51.9°C | 0% | 63.6hPa | 2.5V | 08:21:44 | 02:30:13 | 00:00:00 | |
| DM0DOS-11 | 2026-09-02 12:48:07 | 51.09961 | 8.10729 | 118° | 27km/h | 19482m | -15.4m/s | -51.9°C | 3.4% | 63.4hPa | 2.5V | 08:21:08 | 02:30:12 | 00:00:00 | |
| EDDB2-11 | 2026-09-02 12:48:07 | 51.09961 | 8.10729 | 118° | 27km/h | 19482m | -15.4m/s | -51.9°C | 0.8% | 63.4hPa | 2.5V | 00:00:00 | 00:00:00 | 00:00:00 | |
| DL1XH-15 | 2026-09-02 12:48:06 | 51.09977 | 8.10686 | 97° | 15km/h | 19576m | -15.9m/s | -52.2°C | 3.5% | 62.5hPa | 2.5V | 08:21:14 | 02:30:06 | 00:00:00 | |
| AA1-15 | 2026-09-02 12:48:03 | 51.09971 | 8.10704 | 125° | 20km/h | 19529m | -15.6m/s | -52°C | 0% | 63hPa | 2.6V | 08:21:44 | 02:30:09 | 00:00:00 | |
| DL1XH-west | 2026-09-02 12:48:00 | 51.09977 | 8.10686 | 97° | 15km/h | 19576m | -16m/s | -52.2°C | 0% | 62.5hPa | 2.5V | 08:21:44 | 02:30:06 | 00:00:00 | |
| DD8BA-10 | 2026-09-02 12:48:00 | 51.09977 | 8.10686 | 98° | 16km/h | 19576m | -15.9m/s | -52.1°C | 3.5% | 62.5hPa | 2.6V | 00:00:00 | 00:00:00 | 00:00:00 | |
| DK9SH | 2026-09-02 12:47:59 | 51.09977 | 8.10686 | 98° | 15km/h | 19576m | -16.0m/s | -52.2°C | 0.8% | 62.5hPa | 2.6V | 08:21:00 | 00:00:00 | 00:00:00 | |
| DM0DOS-11 | 2026-09-02 12:47:57 | 51.09974 | 8.10663 | 67° | 18km/h | 19638m | -15.7m/s | -52.1°C | 3.4% | 61.9hPa | 2.6V | 08:21:18 | 02:30:02 | 00:00:00 | |
| HSKMA3-T | 2026-09-02 12:47:56 | 51.09974 | 8.10663 | 68° | 18km/h | 19638m | -15.7m/s | -52.1°C | 0% | 61.9hPa | 2.6V | 08:21:44 | 02:30:02 | 00:00:00 | |
| AA1-15 | 2026-09-02 12:47:53 | 51.09968 | 8.10637 | 77° | 16km/h | 19701m | -16.7m/s | -52.4°C | 0% | 61.3hPa | 2.6V | 08:21:44 | 02:29:58 | 00:00:00 | |
| DJ2DS-15 | 2026-09-02 12:47:53 | 51.09968 | 8.10637 | 76° | 16km/h | 19701m | -16.7m/s | -52.4°C | 0.8% | 61.3hPa | 2.6V | 00:00:00 | 00:00:00 | 00:00:00 | |
| DL1XH-15 | 2026-09-02 12:47:52 | 51.09967 | 8.10623 | 97° | 16km/h | 19734m | -15.7m/s | -52.6°C | 3.6% | 61hPa | 2.6V | 08:21:24 | 02:29:56 | 00:00:00 | |
| SO1NDE-10 | 2026-09-02 12:47:52 | 51.09968 | 8.10637 | 77° | 20km/h | 19701m | -16.6m/s | -52.3°C | 3.5% | 61.2hPa | 2.5V | 00:00:00 | 02:29:58 | 00:00:00 | |
| DL1NUX | 2026-09-02 12:47:51 | 51.09971 | 8.10606 | 104° | 15km/h | 19781m | -16m/s | -52.5°C | 3.6% | 60.5hPa | 2.5V | 08:21:27 | 02:29:53 | 00:00:00 | |
| DL1XH-west | 2026-09-02 12:47:49 | 51.09969 | 8.10617 | 110° | 15km/h | 19749m | -15.4m/s | -52.7°C | 0% | 60.8hPa | 2.5V | 08:21:44 | 02:29:55 | 00:00:00 | |
| DD1CC8 | 2026-09-02 12:47:49 | 51.09970 | 8.10611 | 106° | 13km/h | 19765m | -15.7m/s | -52.7°C | 0.9% | 60.7hPa | 2.5V | 00:00:00 | 00:00:00 | 00:00:00 | |
| DL1XH1-15 | 2026-09-02 12:47:47 | 51.09974 | 8.10579 | 92° | 13km/h | 19860m | -16.1m/s | -52.3°C | 3.4% | 59.8hPa | 2.5V | 08:21:32 | 02:29:48 | 00:00:00 | |
| HSKMA3-T | 2026-09-02 12:47:45 | 51.09973 | 8.10594 | 106° | 15km/h | 19812m | -15.7m/s | -52.4°C | 0% | 60.2hPa | 2.6V | 08:21:44 | 02:29:51 | 00:00:00 | |
| AA1-15 | 2026-09-02 12:47:42 | 51.09974 | 8.10573 | 92° | 15km/h | 19876m | -15.6m/s | -52.2°C | 0% | 59.7hPa | 2.6V | 08:21:44 | 02:29:47 | 00:00:00 | |
| DL1NUX | 2026-09-02 12:47:42 | 51.09972 | 8.10546 | 69° | 18km/h | 19940m | -16.4m/s | -51.9°C | 3.3% | 59.1hPa | 2.5V | 08:21:37 | 02:29:43 | 00:00:00 | |
| DM0DOS-11 | 2026-09-02 12:47:41 | 51.09969 | 8.10533 | 72° | 18km/h | 19972m | -15.8m/s | -51.8°C | 3.3% | 58.8hPa | 2.6V | 08:21:39 | 02:29:41 | 00:00:00 | |
| BIOWL1-15 | 2026-09-02 12:47:41 | 51.09972 | 8.10546 | 70° | 18km/h | 19940m | -16.4m/s | -51.9°C | 0% | 59.1hPa | 2.5V | 08:21:44 | 02:29:43 | 00:00:00 | |
| GOEST3-10 | 2026-09-02 12:47:41 | 51.09974 | 8.10573 | 93° | 15km/h | 19876m | -15.5m/s | -52.2°C | 3.4% | 59.6hPa | 2.5V | 00:00:00 | 02:29:47 | 00:00:00 | |
| DK9SH | 2026-09-02 12:47:40 | 51.09974 | 8.10567 | 92° | 15km/h | 19892m | -16.0m/s | -52.2°C | 0.8% | 59.5hPa | 2.5V | 08:21:00 | 00:00:00 | 00:00:00 | |
| HTAHTA | 2026-09-02 12:47:39 | 51.09974 | 8.10561 | 90° | 16km/h | 19908m | -16.4m/s | -52.2°C | 0.8% | 59.4hPa | 2.5V | 00:00:00 | 00:00:00 | 00:00:00 | |
| DL8DAS-14 | 2026-09-02 12:47:38 | 51.09974 | 8.10554 | 80° | 18km/h | 19924m | -16.1m/s | -52.0°C | 0.8% | 59.2hPa | 2.5V | 00:00:00 | 00:00:00 | 00:00:00 | |
| DL1XH-west | 2026-09-02 12:47:38 | 51.09974 | 8.10554 | 81° | 18km/h | 19924m | -16.1m/s | -52°C | 0% | 59.2hPa | 2.6V | 08:21:44 | 02:29:44 | 00:00:00 | |
| DL3AQ-11 | 2026-09-02 12:47:37 | 51.09972 | 8.10546 | 69° | 18km/h | 19940m | -16.4m/s | -51.9°C | 0.8% | 59.1hPa | 2.5V | 00:00:00 | 00:00:00 | 00:00:00 | |
| EDDB2-11 | 2026-09-02 12:47:36 | 51.09969 | 8.10533 | 72° | 18km/h | 19973m | -15.8m/s | -51.8°C | 0.8% | 58.8hPa | 2.5V | 00:00:00 | 00:00:00 | 00:00:00 | |
| WPPR-10 | 2026-09-02 12:47:35 | 51.09968 | 8.10525 | 71° | 20km/h | 19988m | -16.1m/s | -51.8°C | 0.8% | 58.6hPa | 2.5V | 00:00:00 | 00:00:00 | 00:00:00 | |
| HSKMA3-T | 2026-09-02 12:47:35 | 51.09969 | 8.10533 | 73° | 18km/h | 19973m | -15.8m/s | -51.8°C | 0% | 58.8hPa | 2.6V | 08:21:44 | 02:29:41 | 00:00:00 | |
| DB0ND-19 | 2026-09-02 12:47:34 | 51.09968 | 8.10525 | 71° | 20km/h | 19988m | -16.1m/s | -51.8°C | 0.8% | 58.6hPa | 2.5V | 00:00:00 | 00:00:00 | 00:00:00 | |
| NBG1-10 | 2026-09-02 12:47:33 | 51.09966 | 8.10517 | 68° | 24km/h | 20005m | -16.1m/s | -51.8°C | 3.3% | 58.4hPa | 2.5V | 00:00:00 | 02:29:39 | 00:00:00 | |
| DL1XH-15 | 2026-09-02 12:47:32 | 51.09957 | 8.10490 | 67° | 27km/h | 20053m | -16m/s | -52.2°C | 3.4% | 58hPa | 2.5V | 08:21:44 | 02:29:36 | 00:00:00 | |
| DL1NUX | 2026-09-02 12:47:31 | 51.09946 | 8.10457 | 61° | 31km/h | 20101m | -16.4m/s | -52.7°C | 3.5% | 57.6hPa | 2.6V | 08:21:47 | 02:29:33 | 00:00:00 | |
| AA1-15 | 2026-09-02 12:47:31 | 51.09957 | 8.10490 | 67° | 27km/h | 20053m | -16m/s | -52.2°C | 0% | 58hPa | 2.5V | 08:21:44 | 02:29:36 | 00:00:00 | |
| DL1XH-west | 2026-09-02 12:47:27 | 51.09946 | 8.10457 | 61° | 31km/h | 20102m | -16.4m/s | -52.7°C | 0% | 57.6hPa | 2.6V | 08:22:35 | 02:29:33 | 00:00:00 | |
| DJ2KF-10 | 2026-09-02 12:47:26 | 51.09940 | 8.10436 | 71° | 22km/h | 20134m | -16.3m/s | -53.0°C | 3.6% | 57.3hPa | 2.6V | 00:00:00 | 02:29:31 | 00:00:00 | |
| DL1XH-15 | 2026-09-02 12:47:26 | 51.09930 | 8.10384 | 84° | 26km/h | 20217m | -16.3m/s | -52.9°C | 3.6% | 56.6hPa | 2.6V | 08:21:54 | 02:29:26 | 00:00:00 | |
| DL9SK-14 | 2026-09-02 12:47:24 | 51.09938 | 8.10425 | 69° | 29km/h | 20150m | -16.4m/s | -53.1°C | 0.9% | 57.1hPa | 2.6V | 00:00:00 | 00:00:00 | 00:00:00 | |
| HSKMA3-T | 2026-09-02 12:47:24 | 51.09938 | 8.10425 | 69° | 29km/h | 20150m | -16.4m/s | -53.1°C | 0.1% | 57.1hPa | 2.5V | 08:22:35 | 02:29:30 | 00:00:00 | |
| DO3DL | 2026-09-02 12:47:23 | 51.09938 | 8.10425 | 70° | 29km/h | 20150m | -16.4m/s | -53.1°C | 0.9% | 57.1hPa | 2.6V | 08:22:00 | 00:00:00 | 00:00:00 | |
| DL1XH1-15 | 2026-09-02 12:47:23 | 51.09932 | 8.10404 | 72° | 26km/h | 20183m | -17.1m/s | -53.2°C | 3.7% | 56.9hPa | 2.6V | 08:21:52 | 02:29:28 | 00:00:00 | |
| SO1NDE-10 | 2026-09-02 12:47:22 | 51.09932 | 8.10404 | 73° | 22km/h | 20184m | -17.0m/s | -53.2°C | 3.7% | 56.8hPa | 2.6V | 08:21:00 | 02:29:28 | 00:00:00 | |
| DL1NUX | 2026-09-02 12:47:21 | 51.09930 | 8.10354 | 89° | 24km/h | 20267m | -16.8m/s | -52.8°C | 3.6% | 56.1hPa | 2.5V | 08:21:57 | 02:29:23 | 00:00:00 | |
| AA1-15 | 2026-09-02 12:47:20 | 51.09930 | 8.10374 | 90° | 26km/h | 20233m | -16.7m/s | -52.8°C | 0.1% | 56.4hPa | 2.5V | 08:22:35 | 02:29:25 | 00:00:00 | |
| DL1XH-west | 2026-09-02 12:47:17 | 51.09930 | 8.10354 | 90° | 24km/h | 20267m | -16.8m/s | -52.8°C | 0.1% | 56.1hPa | 2.5V | 08:22:35 | 02:29:23 | 00:00:00 | |
| DL1XH1-15 | 2026-09-02 12:47:16 | 51.09930 | 8.10321 | 89° | 11km/h | 20351m | -16.5m/s | -52.8°C | 3.7% | 55.4hPa | 2.5V | 08:22:02 | 02:29:18 | 00:00:00 | |
| GOEST3-10 | 2026-09-02 12:47:16 | 51.09930 | 8.10345 | 92° | 15km/h | 20284m | -16.9m/s | -52.8°C | 3.7% | 55.9hPa | 2.6V | 00:00:00 | 00:00:00 | 00:00:00 | |
| BIOWL1-15 | 2026-09-02 12:47:16 | 51.09930 | 8.10345 | 92° | 20km/h | 20284m | -17m/s | -52.9°C | 0.1% | 56hPa | 2.6V | 08:22:35 | 02:29:22 | 00:00:00 | |
| DL1XH-15 | 2026-09-02 12:47:15 | 51.09929 | 8.10312 | 75° | 15km/h | 20384m | -17.1m/s | -52.9°C | 3.8% | 55.1hPa | 2.6V | 08:22:04 | 02:29:16 | 00:00:00 | |
| HSKMA3-T | 2026-09-02 12:47:13 | 51.09930 | 8.10326 | 94° | 11km/h | 20334m | -16.4m/s | -52.9°C | 0.1% | 55.6hPa | 2.5V | 08:22:35 | 02:29:19 | 00:00:00 | |
| WEDDY | 2026-09-02 12:47:12 | 51.09930 | 8.10326 | 95° | 11km/h | 20335m | -16.4m/s | -52.9°C | 0.8% | 55.6hPa | 2.5V | 00:00:00 | 00:00:00 | 00:00:00 | |
| DL1NUX | 2026-09-02 12:47:11 | 51.09924 | 8.10292 | 67° | 22km/h | 20437m | -18.3m/s | -52.7°C | 3.7% | 54.7hPa | 2.5V | 08:22:07 | 02:29:13 | 00:00:00 | |
| AA1-15 | 2026-09-02 12:47:10 | 51.09928 | 8.10306 | 69° | 16km/h | 20401m | -17.3m/s | -52.9°C | 0.2% | 55hPa | 2.6V | 08:22:35 | 02:29:15 | 00:00:00 | |
| DD8BA-10 | 2026-09-02 12:47:10 | 51.09929 | 8.10312 | 76° | 22km/h | 20384m | -17.1m/s | -52.9°C | 3.8% | 55.1hPa | 2.5V | 00:00:00 | 00:00:00 | 00:00:00 | |
| DM0DOS-11 | 2026-09-02 12:47:09 | 51.09922 | 8.10275 | 85° | 24km/h | 20471m | -16.1m/s | -52.6°C | 3.7% | 54.4hPa | 2.5V | 08:22:09 | 02:29:11 | 00:00:00 | |
| DL1XH-west | 2026-09-02 12:47:06 | 51.09922 | 8.10274 | 85° | 24km/h | 20471m | -16.1m/s | -52.7°C | 0.1% | 54.4hPa | 2.5V | 08:22:35 | 02:29:11 | 00:00:00 | |
| GOEST3-10 | 2026-09-02 12:47:06 | 51.09923 | 8.10283 | 78° | 26km/h | 20455m | -16.9m/s | -52.6°C | 3.7% | 54.5hPa | 2.5V | 00:00:00 | 00:00:00 | 00:00:00 | |
| DL1XH1-15 | 2026-09-02 12:47:05 | 51.09922 | 8.10243 | 92° | 27km/h | 20521m | -16.9m/s | -52.6°C | 3.6% | 54hPa | 2.6V | 08:22:12 | 02:29:08 | 00:00:00 | |
| HSKMA3-T | 2026-09-02 12:47:03 | 51.09922 | 8.10254 | 94° | 27km/h | 20504m | -16.7m/s | -52.6°C | 0% | 54.1hPa | 2.6V | 08:22:35 | 02:29:09 | 00:00:00 | |
| AA1-15 | 2026-09-02 12:46:59 | 51.09923 | 8.10211 | 85° | 24km/h | 20572m | -16.8m/s | -52.2°C | 0.1% | 53.6hPa | 2.5V | 08:22:35 | 02:29:05 | 00:00:00 | |
| DO1YAY-16 | 2026-09-02 12:46:59 | 51.09923 | 8.10211 | 85° | 22km/h | 20572m | -16.8m/s | -52.2°C | 0.8% | 53.6hPa | 2.5V | 00:00:00 | 00:00:00 | 00:00:00 | |
| DD1CC2-15 | 2026-09-02 12:46:58 | 51.09923 | 8.10211 | 86° | 24km/h | 20572m | -16.8m/s | -52.2°C | 0.9% | 53.6hPa | 2.5V | 08:22:00 | 00:00:00 | 00:00:00 | |
| DL8DAS-15 | 2026-09-02 12:46:57 | 51.09921 | 8.10192 | 85° | 24km/h | 20606m | -16.9m/s | -52.1°C | 0.9% | 53.3hPa | 2.5V | 00:00:00 | 00:00:00 | 00:00:00 | |
| DM0DOS-11 | 2026-09-02 12:46:56 | 51.09919 | 8.10173 | 74° | 26km/h | 20640m | -17m/s | -51.8°C | 3.5% | 53hPa | 2.5V | 08:22:19 | 02:29:01 | 00:00:00 | |
| DL1XH-west | 2026-09-02 12:46:56 | 51.09919 | 8.10173 | 75° | 26km/h | 20640m | -17m/s | -51.8°C | 0% | 53hPa | 2.5V | 08:22:35 | 02:29:01 | 00:00:00 | |
| DJ2KF-10 | 2026-09-02 12:46:55 | 51.09919 | 8.10173 | 75° | 20km/h | 20640m | -17.0m/s | -51.7°C | 3.5% | 52.9hPa | 2.6V | 00:00:00 | 02:29:01 | 00:00:00 | |
| DL1XH1-15 | 2026-09-02 12:46:54 | 51.09910 | 8.10132 | 70° | 26km/h | 20708m | -17.9m/s | -51.4°C | 3.4% | 52.4hPa | 2.6V | 08:22:23 | 02:28:57 | 00:00:00 | |
| HSKMA3-T | 2026-09-02 12:46:52 | 51.09912 | 8.10142 | 69° | 27km/h | 20691m | -17.4m/s | -51.4°C | 0% | 52.6hPa | 2.6V | 08:22:35 | 02:28:58 | 00:00:00 | |
| SO1NDE-10 | 2026-09-02 12:46:52 | 51.09912 | 8.10142 | 70° | 20km/h | 20691m | -17.4m/s | -51.4°C | 3.4% | 52.5hPa | 2.6V | 00:00:00 | 02:28:58 | 00:00:00 | |
| DL1NUX | 2026-09-02 12:46:51 | 51.09906 | 8.10089 | 88° | 27km/h | 20779m | -18.3m/s | -51.2°C | 3.3% | 51.9hPa | 2.6V | 08:22:27 | 02:28:53 | 00:00:00 | |
| DB0NH | 2026-09-02 12:46:51 | 51.09910 | 8.10132 | 71° | 18km/h | 20709m | -17.8m/s | -51.4°C | 3.4% | 52.4hPa | 2.6V | 00:00:00 | 02:28:57 | 00:00:00 | |
| DJ8HS-15 | 2026-09-02 12:46:50 | 51.09908 | 8.10122 | 81° | 22km/h | 20726m | -17.2m/s | -51.4°C | 3.4% | 52.3hPa | 2.6V | 00:00:00 | 02:28:56 | 00:00:00 | |
| DM0DOS-11 | 2026-09-02 12:46:49 | 51.09908 | 8.10067 | 102° | 27km/h | 20815m | -18m/s | -51.2°C | 3.3% | 51.6hPa | 2.6V | 08:22:29 | 02:28:51 | 00:00:00 | |
| AA1-15 | 2026-09-02 12:46:49 | 51.09907 | 8.10101 | 84° | 29km/h | 20761m | -17.5m/s | -51.2°C | 0% | 52hPa | 2.6V | 08:22:35 | 02:28:54 | 00:00:00 | |
| DL1XH-west | 2026-09-02 12:46:45 | 51.09908 | 8.10067 | 103° | 27km/h | 20815m | -18m/s | -51.2°C | 0% | 51.6hPa | 2.6V | 08:22:35 | 02:28:51 | 00:00:00 | |
| BIOWL1-15 | 2026-09-02 12:46:45 | 51.09909 | 8.10056 | 102° | 29km/h | 20833m | -18.2m/s | -51.2°C | 0% | 51.5hPa | 2.6V | 08:22:35 | 02:28:50 | 00:00:00 | |
| DL4BBY-15 | 2026-09-02 12:46:44 | 51.09909 | 8.10056 | 102° | 15km/h | 20833m | -18.1m/s | -51.0°C | 0% | 0hPa | 2.6V | 00:00:00 | 00:00:00 | 00:00:00 | |
| DL1XH1-15 | 2026-09-02 12:46:43 | 51.09912 | 8.10025 | 98° | 24km/h | 20886m | -17.7m/s | -51.5°C | 3.3% | 51hPa | 2.6V | 08:22:33 | 02:28:47 | 00:00:00 | |
| HSKMA3-T | 2026-09-02 12:46:41 | 51.09912 | 8.10025 | 98° | 24km/h | 20886m | -17.7m/s | -51.5°C | 0% | 51hPa | 2.6V | 08:22:35 | 02:28:47 | 00:00:00 | |
| AA1-15 | 2026-09-02 12:46:38 | 51.09914 | 8.09992 | 114° | 18km/h | 20960m | -18.7m/s | -51.3°C | 0% | 50.5hPa | 2.5V | 08:23:26 | 02:28:43 | 00:00:00 | |
| HTAHTA | 2026-09-02 12:46:38 | 51.09916 | 8.09985 | 110° | 16km/h | 20978m | -18.2m/s | -51.3°C | 0.7% | 50.3hPa | 2.6V | 00:00:00 | 00:00:00 | 00:00:00 | |
| DL8DAS-14 | 2026-09-02 12:46:37 | 51.09916 | 8.09985 | 110° | 16km/h | 20978m | -18.2m/s | -51.3°C | 0.7% | 50.3hPa | 2.6V | 00:00:00 | 00:00:00 | 00:00:00 | |
| DL1XH-15 | 2026-09-02 12:46:36 | 51.09932 | 8.09960 | 140° | 9km/h | 21103m | -17.8m/s | -51.3°C | 3.3% | 49.3hPa | 2.6V | 08:22:45 | 02:28:35 | 00:00:00 | |
| DL1XH-west | 2026-09-02 12:46:35 | 51.09920 | 8.09974 | 130° | 13km/h | 21014m | -18.1m/s | -51.3°C | 0% | 50hPa | 2.6V | 08:23:26 | 02:28:40 | 00:00:00 | |
| HSKMA3-T | 2026-09-02 12:46:30 | 51.09930 | 8.09963 | 139° | 11km/h | 21085m | -18m/s | -51.3°C | 0% | 49.5hPa | 2.5V | 08:23:26 | 02:28:36 | 00:00:00 | |
| DL3AQ-11 | 2026-09-02 12:46:30 | 51.09932 | 8.09960 | 140° | 9km/h | 21103m | -17.8m/s | -51.3°C | 0.7% | 49.3hPa | 2.6V | 00:00:00 | 00:00:00 | 00:00:00 | |
| DL1NUX | 2026-09-02 12:46:29 | 51.09936 | 8.09953 | 104° | 13km/h | 21138m | -18m/s | -51.5°C | 3.3% | 49.1hPa | 2.6V | 08:22:47 | 02:28:33 | 00:00:00 | |
| DO2JMG | 2026-09-02 12:46:28 | 51.09934 | 8.09957 | 135° | 11km/h | 21121m | -17.9m/s | 0°C | 0% | 0hPa | 2.6V | 18:12:15 | 02:28:34 | 00:00:00 | |
| DO1YAY-16 | 2026-09-02 12:46:28 | 51.09936 | 8.09954 | 104° | 11km/h | 21139m | -18.0m/s | -51.5°C | 0.8% | 49.1hPa | 2.5V | 00:00:00 | 00:00:00 | 00:00:00 | |
| DM0DOS-11 | 2026-09-02 12:46:27 | 51.09936 | 8.09945 | 96° | 13km/h | 21175m | -17.9m/s | -51.4°C | 3.2% | 48.8hPa | 2.5V | 08:22:49 | 02:28:31 | 00:00:00 | |
| AA1-15 | 2026-09-02 12:46:26 | 51.09936 | 8.09949 | 84° | 11km/h | 21157m | -18m/s | -51.4°C | 0% | 48.9hPa | 2.6V | 08:23:26 | 02:28:32 | 00:00:00 | |
| DL1XH-west | 2026-09-02 12:46:25 | 51.09936 | 8.09939 | 92° | 15km/h | 21193m | -18.4m/s | -51.6°C | 0% | 48.7hPa | 2.5V | 08:23:26 | 02:28:30 | 00:00:00 | |
| DL1LOL-11 | 2026-09-02 12:46:23 | 51.09936 | 8.09939 | 93° | 15km/h | 21193m | -18.4m/s | -51.6°C | 0.7% | 48.7hPa | 2.6V | 00:00:00 | 00:00:00 | 00:00:00 | |
| DL1XH1-15 | 2026-09-02 12:46:22 | 51.09936 | 8.09924 | 86° | 13km/h | 21249m | -18.5m/s | -52°C | 3.4% | 48.2hPa | 2.6V | 08:22:53 | 02:28:27 | 00:00:00 | |
| BIOWL1-15 | 2026-09-02 12:46:21 | 51.09936 | 8.09924 | 87° | 13km/h | 21249m | -18.5m/s | -52°C | 0% | 48.2hPa | 2.6V | 08:23:26 | 02:28:27 | 00:00:00 | |
| HSKMA3-T | 2026-09-02 12:46:19 | 51.09937 | 8.09917 | 99° | 7km/h | 21285m | -18.8m/s | -52.2°C | 0% | 48hPa | 2.5V | 08:23:26 | 02:28:25 | 00:00:00 | |
| AA1-15 | 2026-09-02 12:46:15 | 51.09938 | 8.09912 | 125° | 0km/h | 21358m | -18.4m/s | -52.3°C | 0% | 47.4hPa | 2.6V | 08:23:26 | 02:28:21 | 00:00:00 | |
| DO9LL-15 | 2026-09-02 12:46:15 | 51.09938 | 8.09912 | 125° | 9km/h | 21359m | -18.3m/s | -52.3°C | 3.5% | 47.4hPa | 2.6V | 00:00:00 | 02:28:21 | 00:00:00 | |
| DL1XH-15 | 2026-09-02 12:46:14 | 51.09932 | 8.09909 | 26° | 5km/h | 21452m | -18.6m/s | -51.9°C | 3.3% | 46.8hPa | 2.6V | 08:23:04 | 02:28:16 | 00:00:00 | |
| DL1XH-west | 2026-09-02 12:46:14 | 51.09936 | 8.09912 | 6° | 7km/h | 21395m | -19.5m/s | -52.2°C | 0% | 47.2hPa | 2.5V | 08:23:26 | 02:28:19 | 00:00:00 | |
| DL1XH1-15 | 2026-09-02 12:46:12 | 51.09933 | 8.09910 | 39° | 5km/h | 21433m | -18.7m/s | -51.8°C | 3.3% | 46.9hPa | 2.6V | 08:23:03 | 02:28:17 | 00:00:00 | |
| BIOWL1-15 | 2026-09-02 12:46:11 | 51.09919 | 8.09894 | 76° | 2km/h | 21625m | -18.8m/s | -52.7°C | 0.1% | 45.5hPa | 2.5V | 08:23:26 | 02:28:07 | 00:00:00 | |
| DM0DOS-11 | 2026-09-02 12:46:11 | 51.09924 | 8.09898 | 50° | 4km/h | 21548m | -19.1m/s | -52.3°C | 3.4% | 46.1hPa | 2.6V | 08:23:09 | 02:28:11 | 00:00:00 | |
| HSKMA3-T | 2026-09-02 12:46:08 | 51.09928 | 8.09905 | 37° | 11km/h | 21490m | -19.3m/s | -52.1°C | 0% | 46.5hPa | 2.6V | 08:23:26 | 02:28:14 | 00:00:00 | |
| DO2KSM | 2026-09-02 12:46:08 | 51.09928 | 8.09905 | 38° | 11km/h | 21491m | -19.3m/s | -52.1°C | 0.8% | 46.5hPa | 2.5V | 08:23:00 | 00:00:00 | 00:00:00 | |
| DF7PN | 2026-09-02 12:46:07 | 51.09924 | 8.09900 | 54° | 5km/h | 21529m | -19.5m/s | -52.2°C | 0.8% | 46.2hPa | 2.5V | 00:00:00 | 00:00:00 | 00:00:00 | |
| DL1XH-15 | 2026-09-02 12:46:06 | 51.09919 | 8.09893 | 81° | 2km/h | 21644m | -19.3m/s | -52.8°C | 3.8% | 45.4hPa | 2.5V | 08:23:14 | 02:28:06 | 00:00:00 | |
| AA1-15 | 2026-09-02 12:46:05 | 51.09922 | 8.09897 | 8° | 5km/h | 21567m | -18.8m/s | -52.4°C | 0% | 45.9hPa | 2.6V | 08:23:26 | 02:28:10 | 00:00:00 | |
| BIOWL1-15 | 2026-09-02 12:46:03 | 51.09919 | 8.09891 | 71° | 7km/h | 21663m | -19.6m/s | -52.9°C | 0.2% | 45.3hPa | 2.5V | 08:23:26 | 02:28:05 | 00:00:00 | |
| DL1XH-west | 2026-09-02 12:46:03 | 51.09920 | 8.09895 | 40° | 2km/h | 21605m | -19.3m/s | -52.6°C | 0.1% | 45.6hPa | 2.6V | 08:23:26 | 02:28:08 | 00:00:00 | |
| EDDB2-11 | 2026-09-02 12:46:03 | 51.09920 | 8.09895 | 40° | 2km/h | 21605m | -19.3m/s | -52.6°C | 0.8% | 45.6hPa | 2.6V | 00:00:00 | 00:00:00 | 00:00:00 | |
| DL1NUX | 2026-09-02 12:46:02 | 51.09919 | 8.09882 | 103° | 16km/h | 21702m | -18.7m/s | -53.1°C | 3.9% | 45hPa | 2.6V | 08:23:17 | 02:28:03 | 00:00:00 | |
| DL1XH1-15 | 2026-09-02 12:46:02 | 51.09919 | 8.09894 | 75° | 2km/h | 21625m | -18.8m/s | -52.7°C | 3.7% | 45.5hPa | 2.5V | 08:23:13 | 02:28:07 | 00:00:00 | |
| HSKMA3-T | 2026-09-02 12:45:58 | 51.09919 | 8.09887 | 97° | 13km/h | 21683m | -19m/s | -53°C | 0.2% | 45.1hPa | 2.6V | 08:23:26 | 02:28:04 | 00:00:00 | |
| DK9SH | 2026-09-02 12:45:58 | 51.09919 | 8.09887 | 98° | 13km/h | 21683m | -19.0m/s | -53.0°C | 0.9% | 45.1hPa | 2.6V | 08:23:00 | 00:00:00 | 00:00:00 | |
| DL1XH1-15 | 2026-09-02 12:45:57 | 51.09924 | 8.09811 | 97° | 29km/h | 21837m | -18.5m/s | -53.1°C | 3.9% | 44.1hPa | 2.6V | 08:23:24 | 02:27:56 | 00:00:00 | |
| DM0DOS-11 | 2026-09-02 12:45:57 | 51.09920 | 8.09867 | 93° | 24km/h | 21740m | -19.3m/s | -53.3°C | 4% | 44.7hPa | 2.5V | 08:23:19 | 02:28:01 | 00:00:00 | |
| GOEST3-10 | 2026-09-02 12:45:56 | 51.09920 | 8.09875 | 97° | 26km/h | 21721m | -18.9m/s | -53.1°C | 3.9% | 44.8hPa | 2.6V | 00:00:00 | 00:00:00 | 00:00:00 | |
| DJ2KF-10 | 2026-09-02 12:45:55 | 51.09920 | 8.09867 | 94° | 18km/h | 21740m | -19.3m/s | -53.2°C | 4.0% | 44.7hPa | 2.6V | 00:00:00 | 02:28:01 | 00:00:00 | |
| DL1XH-15 | 2026-09-02 12:45:54 | 51.09924 | 8.09811 | 97° | 29km/h | 21837m | -18.5m/s | -53.1°C | 3.9% | 44.1hPa | 2.6V | 08:23:24 | 02:27:56 | 00:00:00 | |
| AA1-15 | 2026-09-02 12:45:53 | 51.09922 | 8.09846 | 100° | 26km/h | 21779m | -19m/s | -53.4°C | 0.3% | 44.5hPa | 2.5V | 08:23:26 | 02:27:59 | 00:00:00 | |
| DL1XH-west | 2026-09-02 12:45:52 | 51.09923 | 8.09823 | 96° | 31km/h | 21818m | -19.2m/s | -53.4°C | 0.3% | 44.2hPa | 2.6V | 08:23:26 | 02:27:57 | 00:00:00 | |
| GOEST3-10 | 2026-09-02 12:45:52 | 51.09923 | 8.09823 | 96° | 26km/h | 21818m | -19.1m/s | -53.3°C | 4.0% | 44.1hPa | 2.6V | 00:00:00 | 02:27:57 | 00:00:00 | |
| DM0DOS-11 | 2026-09-02 12:45:51 | 51.09926 | 8.09762 | 98° | 13km/h | 21956m | -20.9m/s | -51°C | 3.3% | 43.3hPa | 2.6V | 08:23:30 | 02:27:50 | 00:00:00 | |
| BIOWL1-15 | 2026-09-02 12:45:48 | 51.09925 | 8.09791 | 96° | 22km/h | 21874m | -19.4m/s | -52.3°C | 0.1% | 43.8hPa | 2.6V | 08:23:26 | 02:27:54 | 00:00:00 | |
| HSKMA3-T | 2026-09-02 12:45:47 | 51.09926 | 8.09782 | 96° | 20km/h | 21893m | -19.8m/s | -51.9°C | 0% | 43.7hPa | 2.6V | 08:24:17 | 02:27:53 | 00:00:00 | |
| AU51GT2 | 2026-09-02 12:45:47 | 51.09926 | 8.09775 | 91° | 16km/h | 21914m | -20.5m/s | -51.4°C | 0.8% | 43.5hPa | 2.5V | 00:00:00 | 00:00:00 | 00:00:00 | |
| SONCRA | 2026-09-02 12:45:45 | 51.09926 | 8.09762 | 98° | 13km/h | 21956m | -20.9m/s | -51.0°C | 0.7% | 43.3hPa | 2.5V | 00:00:00 | 00:00:00 | 00:00:00 | |
| DD1CC8 | 2026-09-02 12:45:44 | 51.09926 | 8.09762 | 98° | 13km/h | 21956m | -20.9m/s | -51.0°C | 0.7% | 43.3hPa | 2.5V | 00:00:00 | 00:00:00 | 00:00:00 | |
| AA1-15 | 2026-09-02 12:45:43 | 51.09927 | 8.09757 | 100° | 11km/h | 21976m | -19.9m/s | -51°C | 0% | 43.1hPa | 2.5V | 08:24:17 | 02:27:49 | 00:00:00 | |
| DL1XH-15 | 2026-09-02 12:45:43 | 51.09929 | 8.09750 | 39° | 4km/h | 22036m | -20m/s | -51.3°C | 3.4% | 42.7hPa | 2.6V | 08:23:34 | 02:27:46 | 00:00:00 | |
| DL1XH-west | 2026-09-02 12:45:42 | 51.09928 | 8.09753 | 126° | 9km/h | 21997m | -20.3m/s | -51.1°C | 0% | 43hPa | 2.5V | 08:24:17 | 02:27:48 | 00:00:00 | |
| DF8AY | 2026-09-02 12:45:42 | 51.09907 | 8.09709 | 62° | 22km/h | 22232m | -21m/s | -51.8°C | 0.1% | 41.5hPa | 2.5V | 08:25:08 | 02:27:36 | 00:00:00 | |
| BIOWL1-15 | 2026-09-02 12:45:37 | 51.09924 | 8.09741 | 53° | 11km/h | 22115m | -19.4m/s | -51.6°C | 0% | 42.2hPa | 2.5V | 08:24:17 | 02:27:42 | 00:00:00 | |
| HSKMA3-T | 2026-09-02 12:45:37 | 51.09926 | 8.09744 | 51° | 9km/h | 22095m | -19.6m/s | -51.5°C | 0% | 42.3hPa | 2.5V | 08:24:17 | 02:27:43 | 00:00:00 | |
| DL3AQ-11 | 2026-09-02 12:45:37 | 51.09926 | 8.09744 | 50° | 7km/h | 22095m | -19.6m/s | -51.5°C | 0.8% | 42.3hPa | 2.5V | 00:00:00 | 00:00:00 | 00:00:00 | |
| GOEST3-10 | 2026-09-02 12:45:36 | 51.09924 | 8.09740 | 54° | 15km/h | 22115m | -19.3m/s | -51.5°C | 3.5% | 42.2hPa | 2.5V | 00:00:00 | 00:00:00 | 00:00:00 | |
| DL1XH-15 | 2026-09-02 12:45:35 | 51.09905 | 8.09701 | 71° | 22km/h | 22253m | -20.8m/s | -51.7°C | 3.6% | 41.3hPa | 2.6V | 08:23:45 | 02:27:35 | 00:00:00 | |
| AA1-15 | 2026-09-02 12:45:32 | 51.09914 | 8.09723 | 45° | 22km/h | 22191m | -20m/s | -51.8°C | 0.1% | 41.7hPa | 2.6V | 08:24:17 | 02:27:38 | 00:00:00 | |
| DL1NUX | 2026-09-02 12:45:32 | 51.09903 | 8.09684 | 83° | 22km/h | 22293m | -20.4m/s | -51.5°C | 3.5% | 41.1hPa | 2.6V | 08:23:47 | 02:27:33 | 00:00:00 | |
| DL1XH-west | 2026-09-02 12:45:31 | 51.09910 | 8.09716 | 51° | 22km/h | 22211m | -20.2m/s | -51.8°C | 0.1% | 41.6hPa | 2.5V | 08:24:17 | 02:27:37 | 00:00:00 | |
| GOEST3-10 | 2026-09-02 12:45:31 | 51.09910 | 8.09716 | 51° | 22km/h | 22211m | -20.2m/s | -51.8°C | 3.6% | 41.5hPa | 2.5V | 00:00:00 | 02:27:37 | 00:00:00 | |
| DD8BA-10 | 2026-09-02 12:45:30 | 51.09907 | 8.09709 | 62° | 24km/h | 22232m | -20.9m/s | -51.7°C | 3.6% | 41.4hPa | 2.5V | 00:00:00 | 00:00:00 | 00:00:00 | |
| DM0DOS-11 | 2026-09-02 12:45:29 | 51.09901 | 8.09666 | 84° | 24km/h | 22334m | -21m/s | -51.4°C | 3.5% | 40.8hPa | 2.5V | 08:23:49 | 02:27:31 | 00:00:00 | |
| DF8AY | 2026-09-02 12:45:28 | 51.09912 | 8.09607 | 113° | 27km/h | 22457m | -20.2m/s | -50.7°C | 0% | 40hPa | 2.5V | 08:25:08 | 02:27:25 | 00:00:00 | |
| BIOWL1-15 | 2026-09-02 12:45:28 | 51.09941 | 8.09558 | 219° | 4km/h | 22687m | -19.8m/s | -50.2°C | 0% | 38.7hPa | 2.6V | 08:24:17 | 02:27:14 | 00:00:00 | |
| HSKMA3-T | 2026-09-02 12:45:27 | 51.09902 | 8.09675 | 78° | 22km/h | 22313m | -20.5m/s | -51.5°C | 0% | 40.9hPa | 2.6V | 08:24:17 | 02:27:32 | 00:00:00 | |
| GOEST3-10 | 2026-09-02 12:45:27 | 51.09902 | 8.09675 | 78° | 26km/h | 22313m | -20.4m/s | -51.4°C | 3.5% | 40.9hPa | 2.6V | 00:00:00 | 00:00:00 | 00:00:00 | |
| DD1CC3-15 | 2026-09-02 12:45:26 | 51.09902 | 8.09675 | 79° | 22km/h | 22313m | -20.5m/s | -51.5°C | 0.8% | 40.9hPa | 2.6V | 08:24:00 | 00:00:00 | 00:00:00 | |
| DJ2KF-10 | 2026-09-02 12:45:25 | 51.09901 | 8.09666 | 85° | 16km/h | 22335m | -20.9m/s | -51.3°C | 3.5% | 40.8hPa | 2.6V | 00:00:00 | 02:27:31 | 00:00:00 | |
| DO3DL | 2026-09-02 12:45:24 | 51.09901 | 8.09666 | 85° | 24km/h | 22335m | -21.0m/s | -51.4°C | 0.8% | 40.8hPa | 2.6V | 08:24:00 | 00:00:00 | 00:00:00 | |
| DL1NUX | 2026-09-02 12:45:22 | 51.09918 | 8.09589 | 124° | 24km/h | 22499m | -21.5m/s | -50.3°C | 3.2% | 39.8hPa | 2.6V | 08:23:57 | 02:27:23 | 00:00:00 | |
| DL1XH-west | 2026-09-02 12:45:21 | 51.09918 | 8.09589 | 124° | 24km/h | 22499m | -21.5m/s | -50.3°C | 0% | 39.8hPa | 2.6V | 08:24:17 | 02:27:23 | 00:00:00 | |
| AA1-15 | 2026-09-02 12:45:21 | 51.09906 | 8.09626 | 112° | 26km/h | 22416m | -19.7m/s | -50.8°C | 0% | 40.3hPa | 2.6V | 08:24:17 | 02:27:27 | 00:00:00 | |
| BIOWL1-15 | 2026-09-02 12:45:18 | 51.09941 | 8.09559 | 280° | 5km/h | 22707m | -20.7m/s | -50.2°C | 0% | 38.5hPa | 2.6V | 08:24:17 | 02:27:13 | 00:00:00 | |
| HSKMA3-T | 2026-09-02 12:45:16 | 51.09922 | 8.09581 | 129° | 24km/h | 22520m | -21.5m/s | -50.2°C | 0% | 39.7hPa | 2.6V | 08:24:17 | 02:27:22 | 00:00:00 | |
| AU51GT2 | 2026-09-02 12:45:16 | 51.09925 | 8.09575 | 128° | 20km/h | 22542m | -21.2m/s | -50.2°C | 0.7% | 39.6hPa | 2.6V | 00:00:00 | 00:00:00 | 00:00:00 | |
| DB0UT-7 | 2026-09-02 12:45:15 | 51.09925 | 8.09575 | 129° | 11km/h | 22542m | -21.1m/s | -50.1°C | 3.1% | 39.5hPa | 2.6V | 00:00:00 | 00:00:00 | 00:00:00 | |
| SONCRA | 2026-09-02 12:45:14 | 51.09933 | 8.09564 | 150° | 16km/h | 22584m | -20.0m/s | -50.2°C | 0.7% | 39.3hPa | 2.6V | 00:00:00 | 00:00:00 | 00:00:00 | |
| DD1CC8 | 2026-09-02 12:45:13 | 51.09933 | 8.09564 | 150° | 16km/h | 22584m | -20.0m/s | -50.2°C | 0.7% | 39.3hPa | 2.6V | 00:00:00 | 00:00:00 | 00:00:00 | |
| DL1NUX | 2026-09-02 12:45:12 | 51.09941 | 8.09559 | 280° | 5km/h | 22706m | -20.7m/s | -50.2°C | 3.2% | 38.5hPa | 2.6V | 08:24:07 | 02:27:13 | 00:00:00 | |
| DO3DL | 2026-09-02 12:45:12 | 51.09935 | 8.09561 | 144° | 9km/h | 22604m | -19.8m/s | -50.1°C | 0.7% | 39.2hPa | 2.6V | 08:24:00 | 00:00:00 | 00:00:00 | |
| DB0DAN | 2026-09-02 12:45:10 | 51.09939 | 8.09558 | 155° | 7km/h | 22645m | -20.7m/s | -50.2°C | 0% | 38.94hPa | 2.6V | 00:00:00 | 00:00:00 | 00:00:00 | |
| AA1-15 | 2026-09-02 12:45:10 | 51.09939 | 8.09558 | 155° | 7km/h | 22645m | -20.7m/s | -50.2°C | 0% | 38.9hPa | 2.6V | 08:24:17 | 02:27:16 | 00:00:00 | |
| DL3AQ-11 | 2026-09-02 12:45:10 | 51.09940 | 8.09557 | 176° | 5km/h | 22666m | -20.4m/s | -50.2°C | 0.7% | 38.8hPa | 2.6V | 00:00:00 | 00:00:00 | 00:00:00 | |
| DM0DOS-11 | 2026-09-02 12:45:07 | 51.09936 | 8.09565 | 339° | 13km/h | 22768m | -21m/s | -50.3°C | 3.2% | 38.2hPa | 2.6V | 08:24:10 | 02:27:10 | 00:00:00 | |
| HSKMA3-T | 2026-09-02 12:45:05 | 51.09933 | 8.09567 | 335° | 13km/h | 22789m | -20.3m/s | -50°C | 0% | 38hPa | 2.6V | 08:24:17 | 02:27:09 | 00:00:00 | |
| HTAHTA | 2026-09-02 12:45:05 | 51.09933 | 8.09567 | 334° | 11km/h | 22789m | -20.3m/s | -50.0°C | 0.7% | 38.0hPa | 2.6V | 00:00:00 | 00:00:00 | 00:00:00 | |
| DL1NUX | 2026-09-02 12:45:03 | 51.09909 | 8.09576 | 357° | 11km/h | 22911m | -20.3m/s | -50.8°C | 3.3% | 37.3hPa | 2.6V | 08:24:17 | 02:27:03 | 00:00:00 | |
| AA1-15 | 2026-09-02 12:44:59 | 51.09916 | 8.09575 | 353° | 16km/h | 22870m | -20m/s | -50.5°C | 0% | 37.6hPa | 2.5V | 08:24:17 | 02:27:05 | 00:00:00 | |
| BIOWL1-15 | 2026-09-02 12:44:58 | 51.09912 | 8.09576 | 357° | 15km/h | 22890m | -20.7m/s | -50.7°C | 0% | 37.5hPa | 2.6V | 08:24:17 | 02:27:04 | 00:00:00 | |
| DL1XH-west | 2026-09-02 12:44:55 | 51.09899 | 8.09570 | 48° | 9km/h | 23014m | -20.8m/s | -50.5°C | 0% | 36.8hPa | 2.6V | 08:25:08 | 02:26:58 | 00:00:00 | |
| HSKMA3-T | 2026-09-02 12:44:53 | 51.09901 | 8.09572 | 35° | 9km/h | 22993m | -20.8m/s | -50.4°C | 0% | 36.9hPa | 2.6V | 08:25:08 | 02:26:59 | 00:00:00 | |
| DJ2DS-15 | 2026-09-02 12:44:52 | 51.09899 | 8.09570 | 47° | 9km/h | 23014m | -20.8m/s | -50.5°C | 0.7% | 36.8hPa | 2.6V | 00:00:00 | 00:00:00 | 00:00:00 | |
| DF8AY | 2026-09-02 12:44:50 | 51.09925 | 8.09564 | 207° | 5km/h | 23354m | -21.3m/s | -51°C | 0% | 34.9hPa | 2.6V | 08:25:08 | 02:26:42 | 00:00:00 | |
| BIOWL1-15 | 2026-09-02 12:44:50 | 51.09902 | 8.09560 | 186° | 5km/h | 23162m | -21.7m/s | -50.6°C | 0% | 36hPa | 2.6V | 08:25:08 | 02:26:51 | 00:00:00 | |
| AA1-15 | 2026-09-02 12:44:49 | 51.09897 | 8.09562 | 103° | 5km/h | 23078m | -20.6m/s | -50.5°C | 0% | 36.4hPa | 2.6V | 08:25:08 | 02:26:55 | 00:00:00 | |
| DL1XH-15 | 2026-09-02 12:44:49 | 51.09898 | 8.09560 | 141° | 5km/h | 23099m | -20.9m/s | -50.5°C | 3.1% | 36.3hPa | 2.6V | 08:24:26 | 02:26:54 | 00:00:00 | |
| DL1XH-west | 2026-09-02 12:44:44 | 51.09904 | 8.09560 | 182° | 11km/h | 23184m | -21.5m/s | -50.6°C | 0% | 35.8hPa | 2.6V | 08:25:08 | 02:26:50 | 00:00:00 | |
| DL4BBY-15 | 2026-09-02 12:44:44 | 51.09904 | 8.09560 | 183° | 13km/h | 23184m | -21.4m/s | -50.4°C | 0% | 0hPa | 2.6V | 00:00:00 | 00:00:00 | 00:00:00 | |
| DM0DOS-11 | 2026-09-02 12:44:42 | 51.09914 | 8.09562 | 190° | 15km/h | 23247m | -21m/s | -50.9°C | 3.2% | 35.4hPa | 2.6V | 08:24:33 | 02:26:47 | 00:00:00 | |
| HSKMA3-T | 2026-09-02 12:44:42 | 51.09910 | 8.09561 | 188° | 15km/h | 23226m | -20.8m/s | -50.7°C | 0% | 35.6hPa | 2.6V | 08:25:08 | 02:26:48 | 00:00:00 | |
| AA1-15 | 2026-09-02 12:44:38 | 51.09922 | 8.09564 | 180° | 9km/h | 23311m | -21.3m/s | -51°C | 0% | 35.1hPa | 2.6V | 08:25:08 | 02:26:44 | 00:00:00 | |
| BIOWL1-15 | 2026-09-02 12:44:36 | 51.09926 | 8.09568 | 292° | 7km/h | 23395m | -20.7m/s | -51°C | 0% | 34.7hPa | 2.6V | 08:25:08 | 02:26:40 | 00:00:00 | |
| DF8AY | 2026-09-02 12:44:34 | 51.09890 | 8.09574 | 24° | 18km/h | 23644m | -22.3m/s | -51.8°C | 0% | 33.3hPa | 2.6V | 08:25:08 | 02:26:28 | 00:00:00 | |
| DL1XH-west | 2026-09-02 12:44:33 | 51.09925 | 8.09571 | 308° | 9km/h | 23416m | -21m/s | -51°C | 0% | 34.5hPa | 2.6V | 08:25:08 | 02:26:39 | 00:00:00 | |
| HSKMA3-T | 2026-09-02 12:44:31 | 51.09920 | 8.09576 | 337° | 13km/h | 23457m | -21.3m/s | -51.3°C | 0% | 34.3hPa | 2.6V | 08:25:08 | 02:26:37 | 00:00:00 | |
| DD8BA-10 | 2026-09-02 12:44:30 | 51.09917 | 8.09578 | 339° | 15km/h | 23479m | -20.9m/s | -51.4°C | 3.4% | 34.2hPa | 2.5V | 00:00:00 | 00:00:00 | 00:00:00 | |
| DM0DOS-11 | 2026-09-02 12:44:29 | 51.09908 | 8.09582 | 4° | 15km/h | 23540m | -20.2m/s | -51.8°C | 3.5% | 33.9hPa | 2.5V | 08:24:47 | 02:26:33 | 00:00:00 | |
| AA1-15 | 2026-09-02 12:44:28 | 51.09907 | 8.09582 | 5° | 15km/h | 23540m | -20.2m/s | -51.8°C | 0.1% | 33.9hPa | 2.5V | 08:25:08 | 02:26:33 | 00:00:00 | |
| DO3DL | 2026-09-02 12:44:27 | 51.09908 | 8.09582 | 6° | 15km/h | 23540m | -20.2m/s | -51.8°C | 0.8% | 33.9hPa | 2.6V | 08:25:00 | 00:00:00 | 00:00:00 | |
| DJ2KF-10 | 2026-09-02 12:44:25 | 51.09901 | 8.09580 | 14° | 15km/h | 23581m | -20.1m/s | -52.0°C | 3.6% | 33.6hPa | 2.6V | 00:00:00 | 02:26:31 | 00:00:00 | |
| DO2KSM | 2026-09-02 12:44:24 | 51.09901 | 8.09580 | 15° | 13km/h | 23581m | -20.2m/s | -52.1°C | 0.8% | 33.7hPa | 2.6V | 08:25:00 | 00:00:00 | 00:00:00 | |
| DL1XH-15 | 2026-09-02 12:44:23 | 51.09874 | 8.09564 | 15° | 16km/h | 23731m | -22.2m/s | -51.6°C | 3.5% | 32.9hPa | 2.6V | 08:24:56 | 02:26:24 | 00:00:00 | |
| DL1XH-west | 2026-09-02 12:44:23 | 51.09894 | 8.09577 | 19° | 16km/h | 23622m | -21.7m/s | -51.9°C | 0.1% | 33.5hPa | 2.6V | 08:25:08 | 02:26:29 | 00:00:00 | |
| HSKMA3-T | 2026-09-02 12:44:21 | 51.09886 | 8.09571 | 29° | 16km/h | 23666m | -21.6m/s | -51.6°C | 0.1% | 33.2hPa | 2.5V | 08:25:08 | 02:26:27 | 00:00:00 | |
| DL1XH1-15 | 2026-09-02 12:44:21 | 51.09865 | 8.09562 | 2° | 18km/h | 23774m | -21.6m/s | -51.4°C | 3.4% | 32.7hPa | 2.6V | 08:24:58 | 02:26:22 | 00:00:00 | |
| DJ2DS-15 | 2026-09-02 12:44:20 | 51.09882 | 8.09568 | 24° | 16km/h | 23688m | -21.4m/s | -51.5°C | 3.5% | 33.1hPa | 2.6V | 00:00:00 | 02:26:26 | 00:00:00 | |
| DM0DOS-11 | 2026-09-02 12:44:18 | 51.09852 | 8.09559 | 23° | 16km/h | 23841m | -22.2m/s | -51.3°C | 3.3% | 32.4hPa | 2.6V | 08:25:01 | 02:26:19 | 00:00:00 | |
| AA1-15 | 2026-09-02 12:44:17 | 51.09870 | 8.09563 | 4° | 16km/h | 23753m | -21.5m/s | -51.5°C | 0% | 32.8hPa | 2.6V | 08:25:08 | 02:26:23 | 00:00:00 | |
| DL1XH-west | 2026-09-02 12:44:12 | 51.09849 | 8.09556 | 39° | 16km/h | 23863m | -22.5m/s | -51.3°C | 0% | 32.3hPa | 2.7V | 08:25:08 | 02:26:18 | 00:00:00 | |
| DL1NUX | 2026-09-02 12:44:12 | 51.09841 | 8.09528 | 80° | 18km/h | 23975m | -22.4m/s | -51.3°C | 3.3% | 31.7hPa | 2.7V | 08:25:07 | 02:26:13 | 00:00:00 | |
| DL1XH-15 | 2026-09-02 12:44:11 | 51.09842 | 8.09534 | 72° | 18km/h | 23953m | -22.2m/s | -51.3°C | 3.3% | 31.8hPa | 2.6V | 08:25:06 | 02:26:14 | 00:00:00 | |
| DL1XH1-15 | 2026-09-02 12:44:11 | 51.09841 | 8.09521 | 86° | 16km/h | 23998m | -22.4m/s | -51.2°C | 3.3% | 31.6hPa | 2.6V | 08:25:08 | 02:26:12 | 00:00:00 | |
| DF8AY | 2026-09-02 12:44:11 | 51.09844 | 8.09497 | 85° | 7km/h | 24110m | -22.4m/s | -51.5°C | 0% | 31hPa | 2.6V | 18:12:15 | 02:26:07 | 00:00:00 | |
| HSKMA3-T | 2026-09-02 12:44:10 | 51.09843 | 8.09541 | 69° | 16km/h | 23930m | -22.4m/s | -51.3°C | 0% | 31.9hPa | 2.6V | 08:25:08 | 02:26:15 | 00:00:00 | |
| BIOWL1-15 | 2026-09-02 12:44:08 | 51.09841 | 8.09528 | 80° | 18km/h | 23975m | -22.4m/s | -51.3°C | 0% | 31.7hPa | 2.7V | 08:25:08 | 02:26:13 | 00:00:00 | |
| AA1-15 | 2026-09-02 12:44:07 | 51.09841 | 8.09521 | 86° | 16km/h | 23998m | -22.4m/s | -51.2°C | 0% | 31.6hPa | 2.6V | 08:25:08 | 02:26:12 | 00:00:00 | |
| DL3AQ-11 | 2026-09-02 12:44:06 | 51.09841 | 8.09515 | 93° | 15km/h | 24020m | -22.7m/s | -51.1°C | 0.7% | 31.5hPa | 2.6V | 00:00:00 | 00:00:00 | 00:00:00 | |
| GOEST3-10 | 2026-09-02 12:44:05 | 51.09841 | 8.09515 | 94° | 13km/h | 24020m | -22.6m/s | -51.1°C | 3.3% | 31.4hPa | 2.6V | 00:00:00 | 00:00:00 | 00:00:00 | |
| BUE01 | 2026-09-02 12:44:04 | 51.09842 | 8.09504 | 114° | 11km/h | 24065m | -22.3m/s | -51.2°C | 0.7% | 31.3hPa | 2.7V | 00:00:00 | 00:00:00 | 00:00:00 | |
| BIOWL9-15 | 2026-09-02 12:44:03 | 51.09843 | 8.09500 | 115° | 9km/h | 24088m | -22.5m/s | -51.3°C | 0.7% | 31.2hPa | 2.7V | 00:00:00 | 00:00:00 | 00:00:00 | |
| DL1NUX | 2026-09-02 12:44:02 | 51.09837 | 8.09486 | 34° | 11km/h | 24202m | -22.5m/s | -51.6°C | 3.4% | 30.6hPa | 2.7V | 08:25:17 | 02:26:03 | 00:00:00 | |
| DF8AY | 2026-09-02 12:44:01 | 51.09842 | 8.09491 | 49° | 9km/h | 24156m | -23m/s | -51.6°C | 0% | 30.8hPa | 2.6V | 18:12:15 | 02:26:05 | 00:00:00 | |
| DL1XH-15 | 2026-09-02 12:44:00 | 51.09840 | 8.09488 | 39° | 11km/h | 24179m | -23m/s | -51.6°C | 3.4% | 30.7hPa | 2.6V | 08:25:16 | 02:26:04 | 00:00:00 | |
| DL1XH1-15 | 2026-09-02 12:44:00 | 51.09835 | 8.09483 | 25° | 15km/h | 24224m | -21.7m/s | -51.6°C | 3.4% | 30.5hPa | 2.6V | 08:25:18 | 02:26:02 | 00:00:00 | |
| DD8BA-10 | 2026-09-02 12:44:00 | 51.09843 | 8.09494 | 56° | 15km/h | 24133m | -23.6m/s | -51.5°C | 3.4% | 30.9hPa | 2.6V | 00:00:00 | 00:00:00 | 00:00:00 | |
| DM0DOS-11 | 2026-09-02 12:43:58 | 51.09822 | 8.09472 | 38° | 20km/h | 24289m | -22.2m/s | -51.7°C | 3.4% | 30.2hPa | 2.6V | 08:25:21 | 02:25:59 | 00:00:00 | |
| HSKMA3-T | 2026-09-02 12:43:58 | 51.09840 | 8.09488 | 40° | 11km/h | 24179m | -23m/s | -51.6°C | 0% | 30.7hPa | 2.6V | 08:25:59 | 02:26:04 | 00:00:00 | |
| BIOWL1-15 | 2026-09-02 12:43:56 | 51.09835 | 8.09483 | 25° | 15km/h | 24224m | -21.7m/s | -51.6°C | 0% | 30.5hPa | 2.6V | 08:25:59 | 02:26:02 | 00:00:00 | |
| AA1-15 | 2026-09-02 12:43:55 | 51.09831 | 8.09480 | 23° | 18km/h | 24245m | -21.9m/s | -51.6°C | 0% | 30.4hPa | 2.6V | 08:25:59 | 02:26:01 | 00:00:00 | |
| DJ2KF-10 | 2026-09-02 12:43:55 | 51.09831 | 8.09480 | 23° | 18km/h | 24246m | -21.8m/s | -51.6°C | 3.5% | 30.3hPa | 2.5V | 00:00:00 | 02:26:01 | 00:00:00 | |
| DO3DL | 2026-09-02 12:43:54 | 51.09831 | 8.09480 | 24° | 18km/h | 24246m | -21.9m/s | -51.6°C | 0.8% | 30.4hPa | 2.5V | 08:25:00 | 00:00:00 | 00:00:00 | |
| DL1XH-15 | 2026-09-02 12:43:53 | 51.09808 | 8.09440 | 77° | 22km/h | 24402m | -22.7m/s | -51.8°C | 3.6% | 29.7hPa | 2.5V | 08:25:26 | 02:25:54 | 00:00:00 | |
| DL1XH-west | 2026-09-02 12:43:49 | 51.09809 | 8.09448 | 64° | 22km/h | 24380m | -22.4m/s | -51.9°C | 0.1% | 29.8hPa | 2.6V | 08:25:59 | 02:25:55 | 00:00:00 | |
| DF8AY | 2026-09-02 12:43:48 | 51.09808 | 8.09440 | 77° | 22km/h | 24402m | -22.7m/s | -51.8°C | 0.1% | 29.7hPa | 2.5V | 18:12:15 | 02:25:54 | 00:00:00 | |
| DO3DL | 2026-09-02 12:43:48 | 51.09809 | 8.09448 | 65° | 22km/h | 24380m | -22.4m/s | -51.9°C | 0.8% | 29.8hPa | 2.6V | 08:25:00 | 00:00:00 | 00:00:00 | |
| DL1XH1-15 | 2026-09-02 12:43:47 | 51.09808 | 8.09422 | 106° | 24km/h | 24448m | -22.4m/s | -51.7°C | 3.5% | 29.5hPa | 2.6V | 08:25:28 | 02:25:52 | 00:00:00 | |
| HSKMA3-T | 2026-09-02 12:43:47 | 51.09807 | 8.09431 | 92° | 22km/h | 24425m | -22.7m/s | -51.8°C | 0% | 29.6hPa | 2.6V | 08:25:59 | 02:25:53 | 00:00:00 | |
| BIOWL1-15 | 2026-09-02 12:43:46 | 51.09808 | 8.09422 | 107° | 24km/h | 24448m | -22.4m/s | -51.7°C | 0.1% | 29.5hPa | 2.6V | 08:25:59 | 02:25:52 | 00:00:00 | |
| DO2JMG | 2026-09-02 12:43:45 | 51.09810 | 8.09413 | 107° | 24km/h | 24471m | -22.7m/s | 0°C | 0% | 0hPa | 2.6V | 18:12:15 | 02:25:51 | 00:00:00 | |
| AA1-15 | 2026-09-02 12:43:44 | 51.09812 | 8.09404 | 111° | 26km/h | 24493m | -23.3m/s | -51.6°C | 0% | 29.2hPa | 2.6V | 08:25:59 | 02:25:50 | 00:00:00 | |
| DM0DOS-11 | 2026-09-02 12:43:44 | 51.09814 | 8.09395 | 108° | 26km/h | 24517m | -23.6m/s | -51.6°C | 3.5% | 29.2hPa | 2.6V | 08:25:31 | 02:25:49 | 00:00:00 | |
| DL4BBY-15 | 2026-09-02 12:43:44 | 51.09812 | 8.09404 | 111° | 13km/h | 24494m | -23.3m/s | -51.4°C | 0% | 0hPa | 2.6V | 00:00:00 | 00:00:00 | 00:00:00 | |
| AU51GT2 | 2026-09-02 12:43:43 | 51.09816 | 8.09385 | 108° | 27km/h | 24540m | -23.8m/s | -51.7°C | 0.7% | 29.1hPa | 2.6V | 00:00:00 | 00:00:00 | 00:00:00 | |
| DL1NUX | 2026-09-02 12:43:42 | 51.09830 | 8.09338 | 122° | 20km/h | 24662m | -23.4m/s | -51.8°C | 3.6% | 28.5hPa | 2.6V | 08:25:37 | 02:25:43 | 00:00:00 | |
| DL1XH1-15 | 2026-09-02 12:43:42 | 51.09835 | 8.09325 | 119° | 15km/h | 24710m | -23.8m/s | -51.8°C | 3.6% | 28.3hPa | 2.6V | 08:25:39 | 02:25:41 | 00:00:00 | |
| DL1XH-west | 2026-09-02 12:43:39 | 51.09824 | 8.09355 | 115° | 27km/h | 24614m | -24.3m/s | -51.8°C | 0.2% | 28.7hPa | 2.5V | 08:25:59 | 02:25:45 | 00:00:00 | |
| DL3OBA | 2026-09-02 12:43:39 | 51.09821 | 8.09364 | 113° | 27km/h | 24589m | -24.4m/s | -51.8°C | 0.8% | 28.8hPa | 2.6V | 08:25:00 | 00:00:00 | 00:00:00 | |
| DM0DOS-11 | 2026-09-02 12:43:38 | 51.09838 | 8.09316 | 125° | 13km/h | 24758m | -24.6m/s | -51.6°C | 3.6% | 28.1hPa | 2.6V | 08:25:41 | 02:25:39 | 00:00:00 | |
| DF8AY | 2026-09-02 12:43:37 | 51.09842 | 8.09309 | 123° | 9km/h | 24806m | -24.2m/s | -51.5°C | 0.1% | 27.9hPa | 2.6V | 18:12:15 | 02:25:37 | 00:00:00 | |
| HSKMA3-T | 2026-09-02 12:43:36 | 51.09832 | 8.09331 | 120° | 18km/h | 24685m | -23.6m/s | -51.8°C | 0.1% | 28.4hPa | 2.6V | 08:25:59 | 02:25:42 | 00:00:00 | |
| BIOWL1-15 | 2026-09-02 12:43:35 | 51.09835 | 8.09325 | 120° | 15km/h | 24710m | -23.8m/s | -51.8°C | 0.1% | 28.3hPa | 2.6V | 08:25:59 | 02:25:41 | 00:00:00 | |
| AA1-15 | 2026-09-02 12:43:33 | 51.09839 | 8.09316 | 125° | 13km/h | 24758m | -24.6m/s | -51.6°C | 0.1% | 28.1hPa | 2.6V | 08:25:59 | 02:25:39 | 00:00:00 | |
| BUE01 | 2026-09-02 12:43:33 | 51.09840 | 8.09312 | 130° | 11km/h | 24782m | -24.0m/s | -51.6°C | 0.8% | 28.0hPa | 2.6V | 00:00:00 | 00:00:00 | 00:00:00 | |
| BIOWL9-15 | 2026-09-02 12:43:32 | 51.09842 | 8.09309 | 123° | 7km/h | 24807m | -24.2m/s | -51.5°C | 0.8% | 27.9hPa | 2.6V | 00:00:00 | 00:00:00 | 00:00:00 | |
| HTAHTA | 2026-09-02 12:43:31 | 51.09843 | 8.09307 | 144° | 5km/h | 24831m | -24.2m/s | -51.3°C | 0.7% | 27.8hPa | 2.6V | 00:00:00 | 00:00:00 | 00:00:00 | |
| DL1XH1-15 | 2026-09-02 12:43:30 | 51.09844 | 8.09308 | 346° | 5km/h | 24952m | -24.2m/s | -50.6°C | 3.4% | 27.3hPa | 2.6V | 08:25:49 | 02:25:31 | 00:00:00 | |
| DL1XH-15 | 2026-09-02 12:43:29 | 51.09845 | 8.09306 | 204° | 2km/h | 24880m | -23.8m/s | -50.9°C | 3.4% | 27.6hPa | 2.6V | 08:25:46 | 02:25:34 | 00:00:00 | |
| DL1XH-west | 2026-09-02 12:43:28 | 51.09845 | 8.09306 | 204° | 2km/h | 24880m | -23.8m/s | -50.9°C | 0% | 27.6hPa | 2.6V | 08:25:59 | 02:25:34 | 00:00:00 | |
| EDDB2-11 | 2026-09-02 12:43:27 | 51.09845 | 8.09307 | 262° | 2km/h | 24904m | -24.0m/s | -50.8°C | 0.7% | 27.5hPa | 2.6V | 00:00:00 | 00:00:00 | 00:00:00 | |
| DM0DOS-11 | 2026-09-02 12:43:26 | 51.09841 | 8.09309 | 355° | 7km/h | 25001m | -24.5m/s | -50.5°C | 3.4% | 27.1hPa | 2.6V | 08:25:51 | 02:25:29 | 00:00:00 | |
| HSKMA3-T | 2026-09-02 12:43:26 | 51.09845 | 8.09308 | 303° | 4km/h | 24928m | -24.5m/s | -50.8°C | 0% | 27.4hPa | 2.6V | 08:25:59 | 02:25:32 | 00:00:00 | |
| BIOWL1-15 | 2026-09-02 12:43:24 | 51.09843 | 8.09309 | 353° | 7km/h | 24976m | -24.4m/s | -50.5°C | 0% | 27.2hPa | 2.6V | 08:25:59 | 02:25:30 | 00:00:00 | |
| DL1NUX | 2026-09-02 12:43:23 | 51.09827 | 8.09308 | 18° | 13km/h | 25148m | -24.6m/s | -50.2°C | 3.3% | 26.5hPa | 2.6V | 08:25:57 | 02:25:23 | 00:00:00 | |
| AA1-15 | 2026-09-02 12:43:23 | 51.09839 | 8.09309 | 353° | 7km/h | 25025m | -24.4m/s | -50.5°C | 0% | 26.9hPa | 2.6V | 08:25:59 | 02:25:28 | 00:00:00 | |
| DD1CC3-15 | 2026-09-02 12:43:21 | 51.09839 | 8.09309 | 354° | 7km/h | 25025m | -24.4m/s | -50.5°C | 0.7% | 26.9hPa | 2.6V | 08:25:00 | 00:00:00 | 00:00:00 | |
| DD8BA-10 | 2026-09-02 12:43:20 | 51.09835 | 8.09309 | 3° | 13km/h | 25074m | -24.7m/s | -50.3°C | 3.3% | 26.7hPa | 2.6V | 08:25:00 | 00:00:00 | 00:00:00 | |
| DB0NH | 2026-09-02 12:43:19 | 51.09833 | 8.09309 | 1° | 11km/h | 25099m | -24.5m/s | -50.2°C | 3.3% | 26.6hPa | 2.6V | 00:00:00 | 02:25:25 | 00:00:00 | |
| DL3OBA | 2026-09-02 12:43:18 | 51.09833 | 8.09309 | 1° | 11km/h | 25099m | -24.6m/s | -50.3°C | 0.7% | 26.7hPa | 2.7V | 08:25:00 | 00:00:00 | 00:00:00 | |
| DL1XH1-15 | 2026-09-02 12:43:16 | 51.09822 | 8.09302 | 60° | 11km/h | 25198m | -25.6m/s | -50.2°C | 3.3% | 26.3hPa | 2.7V | 08:25:59 | 02:25:21 | 00:00:00 | |
| HSKMA3-T | 2026-09-02 12:43:16 | 51.09824 | 8.09306 | 37° | 13km/h | 25173m | -25.3m/s | -50.2°C | 0% | 26.4hPa | 2.6V | 08:25:59 | 02:25:22 | 00:00:00 | |
| BIOWL1-15 | 2026-09-02 12:43:15 | 51.09822 | 8.09293 | 94° | 13km/h | 25250m | -25.2m/s | -50.1°C | 0% | 26.1hPa | 2.6V | 08:26:50 | 02:25:19 | 00:00:00 | |
| DO9LL-15 | 2026-09-02 12:43:15 | 51.09822 | 8.09302 | 61° | 11km/h | 25199m | -25.6m/s | -50.1°C | 3.3% | 26.2hPa | 2.7V | 08:25:00 | 02:25:21 | 00:00:00 | |
| DM0DOS-11 | 2026-09-02 12:43:14 | 51.09822 | 8.09293 | 93° | 13km/h | 25250m | -25.2m/s | -50.1°C | 3.3% | 26.1hPa | 2.6V | 08:26:01 | 02:25:19 | 00:00:00 | |
| DL4BBY-15 | 2026-09-02 12:43:14 | 51.09821 | 8.09298 | 81° | 11km/h | 25225m | -25.2m/s | -49.9°C | 0% | 0hPa | 2.6V | 00:00:00 | 00:00:00 | 00:00:00 | |
| DL1XH-15 | 2026-09-02 12:43:13 | 51.09830 | 8.09272 | 123° | 13km/h | 25375m | -26m/s | -50.1°C | 3.4% | 25.5hPa | 2.6V | 08:26:06 | 02:25:14 | 00:00:00 | |
| DK9SH | 2026-09-02 12:43:13 | 51.09822 | 8.09298 | 81° | 11km/h | 25224m | -25.3m/s | -50.1°C | 0.7% | 26.1hPa | 2.6V | 08:26:00 | 00:00:00 | 00:00:00 | |
| DL1NUX | 2026-09-02 12:43:12 | 51.09832 | 8.09267 | 130° | 13km/h | 25401m | -25m/s | -50°C | 3.4% | 25.5hPa | 2.6V | 08:26:07 | 02:25:13 | 00:00:00 | |
| AA1-15 | 2026-09-02 12:43:11 | 51.09825 | 8.09284 | 128° | 13km/h | 25300m | -24.4m/s | -50.1°C | 0% | 25.8hPa | 2.6V | 08:26:50 | 02:25:17 | 00:00:00 | |
| DL1XH1-15 | 2026-09-02 12:43:10 | 51.09836 | 8.09259 | 129° | 5km/h | 25475m | -25.3m/s | -49.7°C | 3.3% | 25.2hPa | 2.6V | 08:26:10 | 02:25:10 | 00:00:00 | |
| DL1XH-west | 2026-09-02 12:43:06 | 51.09834 | 8.09264 | 135° | 11km/h | 25426m | -24.4m/s | -49.9°C | 0% | 25.3hPa | 2.6V | 08:26:50 | 02:25:12 | 00:00:00 | |
| HSKMA3-T | 2026-09-02 12:43:06 | 51.09835 | 8.09261 | 135° | 7km/h | 25450m | -25.1m/s | -49.8°C | 0% | 25.3hPa | 2.6V | 08:26:50 | 02:25:11 | 00:00:00 | |
| GOEST3-10 | 2026-09-02 12:43:05 | 51.09835 | 8.09261 | 135° | 7km/h | 25450m | -25.0m/s | -49.8°C | 3.3% | 25.2hPa | 2.6V | 08:26:00 | 00:00:00 | 00:00:00 | |
| DD1CC1-15 | 2026-09-02 12:43:04 | 51.09835 | 8.09261 | 136° | 7km/h | 25450m | -25.1m/s | -49.8°C | 0.7% | 25.3hPa | 2.6V | 08:26:00 | 00:00:00 | 00:00:00 | |
| DL1XH-15 | 2026-09-02 12:43:03 | 51.09843 | 8.09244 | 126° | 11km/h | 25628m | -25.2m/s | -49.3°C | 3.2% | 24.6hPa | 2.6V | 08:26:16 | 02:25:04 | 00:00:00 | |
| BIOWL1-15 | 2026-09-02 12:43:02 | 51.09837 | 8.09255 | 109° | 7km/h | 25525m | -25.8m/s | -49.5°C | 0% | 24.9hPa | 2.6V | 08:26:50 | 02:25:08 | 00:00:00 | |
| DL1NUX | 2026-09-02 12:43:02 | 51.09845 | 8.09240 | 134° | 11km/h | 25653m | -25.4m/s | -49.2°C | 3.2% | 24.5hPa | 2.6V | 08:26:17 | 02:25:03 | 00:00:00 | |
| AA1-15 | 2026-09-02 12:43:00 | 51.09840 | 8.09250 | 129° | 11km/h | 25577m | -25.7m/s | -49.4°C | 0% | 24.8hPa | 2.6V | 08:26:50 | 02:25:06 | 00:00:00 | |
| HTAHTA | 2026-09-02 12:43:00 | 51.09841 | 8.09247 | 136° | 9km/h | 25603m | -25.0m/s | -49.4°C | 0.6% | 24.7hPa | 2.6V | 00:00:00 | 00:00:00 | 00:00:00 | |
| DL8DAS-14 | 2026-09-02 12:42:59 | 51.09841 | 8.09247 | 136° | 9km/h | 25603m | -25.0m/s | -49.4°C | 0.6% | 24.7hPa | 2.6V | 00:00:00 | 00:00:00 | 00:00:00 | |
| DL1XH1-15 | 2026-09-02 12:42:59 | 51.09852 | 8.09233 | 167° | 13km/h | 25728m | -25.1m/s | -48.9°C | 3.2% | 24.2hPa | 2.5V | 08:26:20 | 02:25:00 | 00:00:00 | |
| DL3OBA | 2026-09-02 12:42:58 | 51.09842 | 8.09247 | 138° | 9km/h | 25603m | -25.0m/s | -49.4°C | 0.6% | 24.7hPa | 2.6V | 08:26:00 | 00:00:00 | 00:00:00 | |
| DM0DOS-11 | 2026-09-02 12:42:57 | 51.09859 | 8.09234 | 218° | 9km/h | 25803m | -25.5m/s | -48.4°C | 3% | 23.9hPa | 2.6V | 08:26:23 | 02:24:57 | 00:00:00 | |
| DL1XH-west | 2026-09-02 12:42:56 | 51.09847 | 8.09237 | 136° | 11km/h | 25678m | -25.1m/s | -49.1°C | 0% | 24.4hPa | 2.6V | 08:26:50 | 02:25:02 | 00:00:00 | |
| HSKMA3-T | 2026-09-02 12:42:54 | 51.09852 | 8.09233 | 167° | 13km/h | 25728m | -25.1m/s | -48.9°C | 0% | 24.2hPa | 2.5V | 08:26:50 | 02:25:00 | 00:00:00 | |
| BIOWL1-15 | 2026-09-02 12:42:52 | 51.09868 | 8.09242 | 214° | 9km/h | 25908m | -26.9m/s | -48.2°C | 0% | 23.5hPa | 2.7V | 08:26:50 | 02:24:53 | 00:00:00 | |
| DL1NUX | 2026-09-02 12:42:52 | 51.09868 | 8.09242 | 214° | 9km/h | 25908m | -26.9m/s | -48.2°C | 3% | 23.5hPa | 2.7V | 08:26:27 | 02:24:53 | 00:00:00 | |
| AA1-15 | 2026-09-02 12:42:50 | 51.09861 | 8.09236 | 212° | 9km/h | 25829m | -26.5m/s | -48.3°C | 0% | 23.8hPa | 2.6V | 08:26:50 | 02:24:56 | 00:00:00 | |
| DD8BA-10 | 2026-09-02 12:42:50 | 51.09861 | 8.09236 | 212° | 9km/h | 25829m | -26.5m/s | -48.3°C | 3.0% | 23.8hPa | 2.6V | 00:00:00 | 00:00:00 | 00:00:00 | |
| DL1XH1-15 | 2026-09-02 12:42:49 | 51.09873 | 8.09250 | 242° | 9km/h | 25987m | -26.3m/s | -48.1°C | 3% | 23.2hPa | 2.6V | 08:26:30 | 02:24:50 | 00:00:00 | |
| DL1XH-west | 2026-09-02 12:42:46 | 51.09870 | 8.09244 | 214° | 11km/h | 25935m | -26.4m/s | -48.1°C | 0% | 23.4hPa | 2.6V | 08:26:50 | 02:24:52 | 00:00:00 | |
| DL9SK-14 | 2026-09-02 12:42:45 | 51.09873 | 8.09250 | 242° | 9km/h | 25987m | -26.3m/s | -48.1°C | 0.6% | 23.2hPa | 2.7V | 00:00:00 | 00:00:00 | 00:00:00 | |
| HSKMA3-T | 2026-09-02 12:42:43 | 51.09874 | 8.09253 | 259° | 7km/h | 26013m | -26.5m/s | -48°C | 0% | 23.2hPa | 2.7V | 08:26:50 | 02:24:49 | 00:00:00 | |
| DL1NUX | 2026-09-02 12:42:42 | 51.09869 | 8.09261 | 4° | 4km/h | 26176m | -26.8m/s | -47.9°C | 3% | 22.6hPa | 2.7V | 08:26:37 | 02:24:43 | 00:00:00 | |
| BIOWL1-15 | 2026-09-02 12:42:40 | 51.09872 | 8.09260 | 305° | 4km/h | 26094m | -26.7m/s | -47.9°C | 0% | 22.9hPa | 2.6V | 08:26:50 | 02:24:46 | 00:00:00 | |
| AA1-15 | 2026-09-02 12:42:40 | 51.09872 | 8.09261 | 338° | 4km/h | 26121m | -27.2m/s | -47.9°C | 0% | 22.8hPa | 2.6V | 08:26:50 | 02:24:45 | 00:00:00 | |
| DF8AY | 2026-09-02 12:42:36 | 51.09867 | 8.09258 | 47° | 5km/h | 26255m | -26.8m/s | -47.8°C | 0% | 22.3hPa | 2.6V | 18:12:15 | 02:24:40 | 00:00:00 | |
| DL1XH-west | 2026-09-02 12:42:36 | 51.09869 | 8.09261 | 29° | 4km/h | 26202m | -26.5m/s | -47.8°C | 0% | 22.5hPa | 2.7V | 08:26:50 | 02:24:42 | 00:00:00 | |
| HSKMA3-T | 2026-09-02 12:42:33 | 51.09866 | 8.09255 | 81° | 5km/h | 26309m | -27m/s | -47.7°C | 0% | 22.2hPa | 2.6V | 08:26:50 | 02:24:38 | 00:00:00 | |
| DM0DOS-11 | 2026-09-02 12:42:33 | 51.09866 | 8.09252 | 87° | 5km/h | 26336m | -27.1m/s | -47.6°C | 2.9% | 22.1hPa | 2.7V | 08:26:43 | 02:24:37 | 00:00:00 | |
| AA1-15 | 2026-09-02 12:42:29 | 51.09868 | 8.09247 | 121° | 7km/h | 26390m | -27.2m/s | -47.7°C | 0% | 21.9hPa | 2.7V | 08:26:50 | 02:24:35 | 00:00:00 | |
| BIOWL1-15 | 2026-09-02 12:42:29 | 51.09881 | 8.09237 | 174° | 16km/h | 26530m | -27.3m/s | -47.2°C | 0% | 21.4hPa | 2.7V | 08:26:50 | 02:24:30 | 00:00:00 | |
| HTAHTA | 2026-09-02 12:42:29 | 51.09869 | 8.09244 | 139° | 7km/h | 26418m | -27.6m/s | -47.6°C | 0.6% | 21.8hPa | 2.7V | 00:00:00 | 00:00:00 | 00:00:00 | |
| DL1XH1-15 | 2026-09-02 12:42:28 | 51.09880 | 8.09237 | 174° | 16km/h | 26530m | -27.3m/s | -47.2°C | 2.9% | 21.4hPa | 2.7V | 08:26:50 | 02:24:30 | 00:00:00 | |
| DL1XH-west | 2026-09-02 12:42:26 | 51.09877 | 8.09238 | 166° | 15km/h | 26502m | -28.3m/s | -47.2°C | 0% | 21.5hPa | 2.6V | 08:26:50 | 02:24:31 | 00:00:00 | |
| HSKMA3-T | 2026-09-02 12:42:23 | 51.09888 | 8.09236 | 181° | 15km/h | 26585m | -27.6m/s | -47.2°C | 0% | 21.2hPa | 2.6V | 08:27:41 | 02:24:28 | 00:00:00 | |
| DM0DOS-11 | 2026-09-02 12:42:22 | 51.09893 | 8.09236 | 183° | 16km/h | 26613m | -27.8m/s | -47.1°C | 2.8% | 21.1hPa | 2.6V | 08:26:53 | 02:24:27 | 00:00:00 | |
| AA1-15 | 2026-09-02 12:42:19 | 51.09906 | 8.09238 | 180° | 18km/h | 26696m | -27.6m/s | -46.7°C | 0% | 20.9hPa | 2.7V | 08:27:41 | 02:24:24 | 00:00:00 | |
| BIOWL1-15 | 2026-09-02 12:42:19 | 51.09929 | 8.09237 | 183° | 16km/h | 26837m | -27.9m/s | -46.4°C | 0% | 20.4hPa | 2.6V | 08:27:41 | 02:24:19 | 00:00:00 | |
| DB0NH | 2026-09-02 12:42:19 | 51.09901 | 8.09237 | 185° | 13km/h | 26669m | -27.4m/s | -46.8°C | 2.8% | 20.9hPa | 2.6V | 00:00:00 | 02:24:25 | 00:00:00 | |
| WEDDY | 2026-09-02 12:42:18 | 51.09901 | 8.09237 | 186° | 16km/h | 26669m | -27.5m/s | -46.9°C | 0.5% | 21.0hPa | 2.6V | 08:27:00 | 00:00:00 | 00:00:00 | |
| DL3AQ-11 | 2026-09-02 12:42:17 | 51.09915 | 8.09237 | 176° | 18km/h | 26753m | -27.3m/s | -46.6°C | 0.5% | 20.7hPa | 2.6V | 00:00:00 | 00:00:00 | 00:00:00 | |
| DM0DOS-11 | 2026-09-02 12:42:16 | 51.09940 | 8.09241 | 199° | 15km/h | 26923m | -28.7m/s | -46.6°C | 2.7% | 20.2hPa | 2.6V | 08:27:04 | 02:24:16 | 00:00:00 | |
| DL1XH-west | 2026-09-02 12:42:14 | 51.09936 | 8.09239 | 193° | 11km/h | 26894m | -28.4m/s | -46.5°C | 0% | 20.3hPa | 2.6V | 08:27:41 | 02:24:17 | 00:00:00 | |
| HSKMA3-T | 2026-09-02 12:42:12 | 51.09933 | 8.09238 | 191° | 15km/h | 26865m | -28.3m/s | -46.4°C | 0% | 20.4hPa | 2.6V | 08:27:41 | 02:24:18 | 00:00:00 | |
| DF8AY | 2026-09-02 12:42:12 | 51.09940 | 8.09241 | 199° | 15km/h | 26923m | -28.7m/s | -46.6°C | 0% | 20.2hPa | 2.6V | 18:12:15 | 02:24:16 | 00:00:00 | |
| AA1-15 | 2026-09-02 12:42:07 | 51.09951 | 8.09250 | 212° | 22km/h | 27008m | -28m/s | -46.7°C | 0% | 19.9hPa | 2.6V | 08:27:41 | 02:24:13 | 00:00:00 | |
| BIOWL1-15 | 2026-09-02 12:42:06 | 51.09956 | 8.09256 | 218° | 24km/h | 27036m | -27.6m/s | -46.7°C | 0% | 19.9hPa | 2.6V | 08:27:41 | 02:24:12 | 00:00:00 | |
| DL1XH-west | 2026-09-02 12:42:03 | 51.09969 | 8.09286 | 250° | 22km/h | 27149m | -29.1m/s | -46.9°C | 0% | 19.5hPa | 2.7V | 08:27:41 | 02:24:08 | 00:00:00 | |
| HSKMA3-T | 2026-09-02 12:42:02 | 51.09971 | 8.09294 | 257° | 22km/h | 27177m | -28.7m/s | -47°C | 0% | 19.4hPa | 2.6V | 08:27:41 | 02:24:07 | 00:00:00 | |
| DF8AY | 2026-09-02 12:42:01 | 51.09971 | 8.09316 | 283° | 16km/h | 27264m | -28.9m/s | -47.3°C | 0% | 19.2hPa | 2.7V | 18:12:15 | 02:24:04 | 00:00:00 | |
| DL1XH-15 | 2026-09-02 12:42:00 | 51.09969 | 8.09322 | 293° | 16km/h | 27293m | -29.3m/s | -47.3°C | 2.9% | 19.1hPa | 2.6V | 08:27:17 | 02:24:03 | 00:00:00 | |
| BUE01 | 2026-09-02 12:41:59 | 51.09971 | 8.09309 | 276° | 16km/h | 27235m | -29.2m/s | -47.2°C | 0.6% | 19.2hPa | 2.6V | 00:00:00 | 00:00:00 | 00:00:00 | |
| BIOWL9-15 | 2026-09-02 12:41:58 | 51.09971 | 8.09316 | 282° | 15km/h | 27264m | -28.9m/s | -47.3°C | 0.6% | 19.2hPa | 2.6V | 00:00:00 | 00:00:00 | 00:00:00 | |
| DL8DAS-14 | 2026-09-02 12:41:57 | 51.09969 | 8.09322 | 293° | 15km/h | 27293m | -29.3m/s | -47.3°C | 0.6% | 19.1hPa | 2.6V | 00:00:00 | 00:00:00 | 00:00:00 | |
| DL1XH1-15 | 2026-09-02 12:41:56 | 51.09963 | 8.09337 | 304° | 15km/h | 27381m | -29.3m/s | -47.1°C | 2.9% | 18.8hPa | 2.6V | 08:27:20 | 02:24:00 | 00:00:00 | |
| AA1-15 | 2026-09-02 12:41:56 | 51.09967 | 8.09327 | 298° | 15km/h | 27322m | -29.5m/s | -47.2°C | 0% | 19hPa | 2.6V | 08:27:41 | 02:24:02 | 00:00:00 | |
| BIOWL1-15 | 2026-09-02 12:41:55 | 51.09961 | 8.09342 | 312° | 16km/h | 27410m | -29.7m/s | -47°C | 0% | 18.8hPa | 2.6V | 08:27:41 | 02:23:59 | 00:00:00 | |
| DL1XH-west | 2026-09-02 12:41:51 | 51.09955 | 8.09350 | 312° | 13km/h | 27469m | -29.7m/s | -46.9°C | 0% | 18.6hPa | 2.6V | 08:27:41 | 02:23:57 | 00:00:00 | |
| HSKMA3-T | 2026-09-02 12:41:50 | 51.09953 | 8.09354 | 313° | 11km/h | 27499m | -30m/s | -46.9°C | 0% | 18.5hPa | 2.6V | 08:27:41 | 02:23:56 | 00:00:00 | |
| DF8AY | 2026-09-02 12:41:48 | 51.09951 | 8.09360 | 291° | 7km/h | 27559m | -30.2m/s | -46.9°C | 0% | 18.3hPa | 2.7V | 18:12:15 | 02:23:54 | 00:00:00 | |
| DL1NUX | 2026-09-02 12:41:48 | 51.09950 | 8.09363 | 278° | 7km/h | 27590m | -30.5m/s | -46.8°C | 2.8% | 18.2hPa | 2.7V | 08:27:27 | 02:23:53 | 00:00:00 | |
| DL1XH1-15 | 2026-09-02 12:41:46 | 51.09951 | 8.09371 | 249° | 9km/h | 27681m | -29.8m/s | -46.7°C | 2.8% | 18hPa | 2.6V | 08:27:30 | 02:23:50 | 00:00:00 | |
| BIOWL1-15 | 2026-09-02 12:41:45 | 51.09951 | 8.09368 | 253° | 9km/h | 27651m | -29.8m/s | -46.8°C | 0% | 18.1hPa | 2.6V | 08:27:41 | 02:23:51 | 00:00:00 | |
| DB0UT-7 | 2026-09-02 12:41:45 | 51.09951 | 8.09368 | 253° | 11km/h | 27651m | -29.8m/s | -46.7°C | 2.8% | 18.0hPa | 2.6V | 00:00:00 | 02:23:51 | 00:00:00 | |
| DM0DOS-11 | 2026-09-02 12:41:44 | 51.09952 | 8.09383 | 270° | 11km/h | 27772m | -30.8m/s | -46.4°C | 2.7% | 17.7hPa | 2.7V | 08:27:33 | 02:23:47 | 00:00:00 | |
| HSKMA3-T | 2026-09-02 12:41:40 | 51.09952 | 8.09387 | 271° | 11km/h | 27803m | -30.6m/s | -46.4°C | 0% | 17.7hPa | 2.7V | 08:27:41 | 02:23:46 | 00:00:00 | |
| DF8AY | 2026-09-02 12:41:38 | 51.09950 | 8.09403 | 282° | 11km/h | 27924m | -30.4m/s | -46.9°C | 0% | 17.3hPa | 2.6V | 18:12:15 | 02:23:42 | 00:00:00 | |
| DL1NUX | 2026-09-02 12:41:38 | 51.09951 | 8.09399 | 268° | 11km/h | 27894m | -29.8m/s | -46.8°C | 2.8% | 17.4hPa | 2.6V | 08:27:37 | 02:23:43 | 00:00:00 | |
| AA1-15 | 2026-09-02 12:41:35 | 51.09950 | 8.09407 | 286° | 11km/h | 27954m | -30.9m/s | -47°C | 0% | 17.2hPa | 2.6V | 08:27:41 | 02:23:41 | 00:00:00 | |
| DO3MHA-12 | 2026-09-02 12:41:35 | 51.09950 | 8.09407 | 287° | 13km/h | 27955m | -30.9m/s | -46.9°C | 2.9% | 17.2hPa | 2.6V | 00:00:00 | 02:23:41 | 00:00:00 | |
| DM0DOS-11 | 2026-09-02 12:41:34 | 51.09940 | 8.09422 | 323° | 15km/h | 28078m | -31.5m/s | -46.9°C | 3% | 16.9hPa | 2.6V | 08:27:43 | 02:23:37 | 00:00:00 | |
| BIOWL1-15 | 2026-09-02 12:41:34 | 51.09948 | 8.09411 | 302° | 13km/h | 27985m | -31.3m/s | -47°C | 0% | 17.2hPa | 2.6V | 08:27:41 | 02:23:40 | 00:00:00 | |
| DL1XH-west | 2026-09-02 12:41:30 | 51.09937 | 8.09425 | 335° | 16km/h | 28110m | -31.8m/s | -46.9°C | 0% | 16.9hPa | 2.6V | 08:28:32 | 02:23:36 | 00:00:00 | |
| HSKMA3-T | 2026-09-02 12:41:29 | 51.09932 | 8.09427 | 351° | 20km/h | 28141m | -31.5m/s | -46.8°C | 0% | 16.8hPa | 2.7V | 08:28:32 | 02:23:35 | 00:00:00 | |
| DD1CC2-15 | 2026-09-02 12:41:29 | 51.09937 | 8.09425 | 336° | 16km/h | 28110m | -31.8m/s | -46.9°C | 0.6% | 16.9hPa | 2.6V | 08:28:00 | 00:00:00 | 00:00:00 | |
| DL1XH-15 | 2026-09-02 12:41:28 | 51.09923 | 8.09427 | 9° | 20km/h | 28203m | -31.1m/s | -46.7°C | 3% | 16.6hPa | 2.6V | 08:27:47 | 02:23:33 | 00:00:00 | |
| DF8AY | 2026-09-02 12:41:26 | 51.09897 | 8.09413 | 316° | 9km/h | 28553m | -32m/s | -45.7°C | 0% | 15.7hPa | 2.6V | 18:12:15 | 02:23:22 | 00:00:00 | |
| AA1-15 | 2026-09-02 12:41:25 | 51.09911 | 8.09420 | 27° | 15km/h | 28296m | -31.3m/s | -46.7°C | 0% | 16.4hPa | 2.7V | 08:28:32 | 02:23:30 | 00:00:00 | |
| DB0DAN | 2026-09-02 12:41:25 | 51.09914 | 8.09423 | 24° | 15km/h | 28266m | -30.8m/s | -46.7°C | 0% | 16.44hPa | 2.6V | 00:00:00 | 00:00:00 | 00:00:00 | |
| BIOWL1-15 | 2026-09-02 12:41:24 | 51.09907 | 8.09417 | 29° | 13km/h | 28327m | -31.8m/s | -46.6°C | 0% | 16.3hPa | 2.6V | 08:28:32 | 02:23:29 | 00:00:00 | |
| DL1XH-15 | 2026-09-02 12:41:23 | 51.09898 | 8.09411 | 300° | 7km/h | 28521m | -32.4m/s | -45.9°C | 2.9% | 15.8hPa | 2.7V | 08:27:57 | 02:23:23 | 00:00:00 | |
| DB0ND-19 | 2026-09-02 12:41:23 | 51.09903 | 8.09413 | 33° | 11km/h | 28392m | -33.1m/s | -46.5°C | 0.6% | 16.1hPa | 2.6V | 00:00:00 | 00:00:00 | 00:00:00 | |
| DL1NUX | 2026-09-02 12:41:21 | 51.09897 | 8.09413 | 315° | 9km/h | 28553m | -32m/s | -45.7°C | 2.9% | 15.7hPa | 2.6V | 08:27:58 | 02:23:22 | 00:00:00 | |
| DL1XH-west | 2026-09-02 12:41:19 | 51.09900 | 8.09409 | 31° | 5km/h | 28457m | -31.9m/s | -46.1°C | 0% | 16hPa | 2.6V | 08:28:32 | 02:23:25 | 00:00:00 | |
| HSKMA3-T | 2026-09-02 12:41:18 | 51.09899 | 8.09409 | 309° | 2km/h | 28489m | -32.5m/s | -46°C | 0% | 15.9hPa | 2.7V | 08:28:32 | 02:23:24 | 00:00:00 | |
| AA1-15 | 2026-09-02 12:41:13 | 51.09893 | 8.09417 | 342° | 7km/h | 28650m | -33m/s | -45.2°C | 0% | 15.5hPa | 2.6V | 08:28:32 | 02:23:19 | 00:00:00 | |
| BIOWL1-15 | 2026-09-02 12:41:13 | 51.09885 | 8.09413 | 40° | 13km/h | 28748m | -32.4m/s | -44.8°C | 0% | 15.3hPa | 2.6V | 08:28:32 | 02:23:16 | 00:00:00 | |
| DL1XH-15 | 2026-09-02 12:41:12 | 51.09880 | 8.09404 | 35° | 11km/h | 28843m | -32.1m/s | -44.4°C | 2.5% | 15.1hPa | 2.6V | 08:28:07 | 02:23:13 | 00:00:00 | |
| DL9SK-14 | 2026-09-02 12:41:12 | 51.09888 | 8.09416 | 20° | 11km/h | 28716m | -32.3m/s | -45.0°C | 0.5% | 15.3hPa | 2.6V | 00:00:00 | 00:00:00 | 00:00:00 | |
| DL1NUX | 2026-09-02 12:41:11 | 51.09877 | 8.09401 | 33° | 11km/h | 28875m | -32.4m/s | -44.3°C | 2.5% | 15hPa | 2.6V | 08:28:08 | 02:23:12 | 00:00:00 | |
| DL1XH-west | 2026-09-02 12:41:09 | 51.09883 | 8.09410 | 48° | 11km/h | 28780m | -31.9m/s | -44.7°C | 0% | 15.2hPa | 2.6V | 08:28:32 | 02:23:15 | 00:00:00 | |
| HSKMA3-T | 2026-09-02 12:41:08 | 51.09881 | 8.09407 | 48° | 11km/h | 28812m | -31.6m/s | -44.6°C | 0% | 15.2hPa | 2.6V | 08:28:32 | 02:23:14 | 00:00:00 | |
| AU51GT2 | 2026-09-02 12:41:07 | 51.09880 | 8.09404 | 35° | 9km/h | 28843m | -32.1m/s | -44.4°C | 0.5% | 15.1hPa | 2.7V | 00:00:00 | 00:00:00 | 00:00:00 | |
| DK9SH | 2026-09-02 12:41:06 | 51.09880 | 8.09404 | 37° | 11km/h | 28844m | -32.1m/s | -44.4°C | 0.5% | 15.1hPa | 2.7V | 08:28:00 | 00:00:00 | 00:00:00 | |
| DL1XH1-15 | 2026-09-02 12:41:05 | 51.09874 | 8.09398 | 26° | 4km/h | 28940m | -33.6m/s | -44.1°C | 2.5% | 14.9hPa | 2.7V | 08:28:10 | 02:23:10 | 00:00:00 | |
| AA1-15 | 2026-09-02 12:41:03 | 51.09873 | 8.09397 | 35° | 4km/h | 28974m | -34.3m/s | -44°C | 0% | 14.8hPa | 2.6V | 08:28:32 | 02:23:09 | 00:00:00 | |
| BIOWL1-15 | 2026-09-02 12:41:02 | 51.09873 | 8.09397 | 13° | 2km/h | 29008m | -34.2m/s | -44°C | 0% | 14.7hPa | 2.6V | 08:28:32 | 02:23:08 | 00:00:00 | |
| DF8AY | 2026-09-02 12:41:02 | 51.09872 | 8.09400 | 23° | 7km/h | 29241m | -32.9m/s | -43.9°C | 0% | 14.2hPa | 2.6V | 18:12:15 | 02:23:01 | 00:00:00 | |
| DL1NUX | 2026-09-02 12:41:01 | 51.09873 | 8.09401 | 22° | 2km/h | 29208m | -32.9m/s | -43.8°C | 2.5% | 14.3hPa | 2.6V | 08:28:18 | 02:23:02 | 00:00:00 | |
| DL1XH-west | 2026-09-02 12:40:59 | 51.09873 | 8.09401 | 235° | 2km/h | 29142m | -32.9m/s | -43.7°C | 0% | 14.4hPa | 2.7V | 08:28:32 | 02:23:04 | 00:00:00 | |
| HSKMA3-T | 2026-09-02 12:40:57 | 51.09873 | 8.09401 | 154° | 0km/h | 29175m | -33.2m/s | -43.8°C | 0% | 14.3hPa | 2.6V | 08:28:32 | 02:23:03 | 00:00:00 | |
| DL3AQ-11 | 2026-09-02 12:40:57 | 51.09873 | 8.09401 | 153° | 0km/h | 29175m | -33.2m/s | -43.8°C | 0.5% | 14.3hPa | 2.6V | 00:00:00 | 00:00:00 | 00:00:00 | |
| DF7PN | 2026-09-02 12:40:56 | 51.09872 | 8.09400 | 22° | 7km/h | 29241m | -32.9m/s | -43.9°C | 0.4% | 14.2hPa | 2.6V | 00:00:00 | 00:00:00 | 00:00:00 | |
| WEDDY | 2026-09-02 12:40:55 | 51.09872 | 8.09400 | 24° | 7km/h | 29241m | -32.9m/s | 0°C | 0% | 14.2hPa | 2.6V | 00:00:00 | 00:00:00 | 00:00:00 | |
| DM0DOS-11 | 2026-09-02 12:40:54 | 51.09859 | 8.09388 | 32° | 15km/h | 29373m | -32.9m/s | -44.1°C | 2.6% | 13.9hPa | 2.6V | 08:28:23 | 02:22:57 | 00:00:00 | |
| BIOWL1-15 | 2026-09-02 12:40:53 | 51.09854 | 8.09384 | 12° | 11km/h | 29438m | -33.2m/s | -44°C | 0% | 13.8hPa | 2.6V | 08:28:32 | 02:22:55 | 00:00:00 | |
| AA1-15 | 2026-09-02 12:40:52 | 51.09863 | 8.09392 | 35° | 16km/h | 29340m | -33.1m/s | -44.1°C | 0% | 14hPa | 2.6V | 08:28:32 | 02:22:58 | 00:00:00 | |
| SO1NDE-10 | 2026-09-02 12:40:52 | 51.09862 | 8.09392 | 36° | 13km/h | 29340m | -33.0m/s | -44.0°C | 2.5% | 13.9hPa | 2.6V | 00:00:00 | 02:22:58 | 00:00:00 | |
| DL1NUX | 2026-09-02 12:40:51 | 51.09846 | 8.09381 | 14° | 9km/h | 29537m | -33.3m/s | -44.1°C | 2.6% | 13.6hPa | 2.6V | 08:28:28 | 02:22:52 | 00:00:00 | |
| DL1XH-west | 2026-09-02 12:40:48 | 51.09844 | 8.09380 | 31° | 5km/h | 29570m | -33.1m/s | -44°C | 0% | 13.5hPa | 2.6V | 08:28:32 | 02:22:51 | 00:00:00 | |
| HSKMA3-T | 2026-09-02 12:40:47 | 51.09848 | 8.09382 | 12° | 9km/h | 29504m | -33m/s | -44.1°C | 0% | 13.6hPa | 2.6V | 08:28:32 | 02:22:53 | 00:00:00 | |
| DL1XH1-15 | 2026-09-02 12:40:46 | 51.09843 | 8.09379 | 38° | 4km/h | 29603m | -33m/s | -43.9°C | 2.5% | 13.4hPa | 2.6V | 08:28:30 | 02:22:50 | 00:00:00 | |
| DL3AQ-11 | 2026-09-02 12:40:46 | 51.09846 | 8.09381 | 14° | 9km/h | 29537m | -33.3m/s | -44.1°C | 0.5% | 13.6hPa | 2.7V | 00:00:00 | 00:00:00 | 00:00:00 | |
| AA1-15 | 2026-09-02 12:40:42 | 51.09840 | 8.09376 | 38° | 11km/h | 29668m | -33.4m/s | -43.6°C | 0% | 13.3hPa | 2.7V | 08:28:32 | 02:22:48 | 00:00:00 | |
| BIOWL1-15 | 2026-09-02 12:40:41 | 51.09837 | 8.09372 | 42° | 13km/h | 29701m | -33.3m/s | -43.6°C | 0% | 13.2hPa | 2.7V | 08:29:23 | 02:22:47 | 00:00:00 | |
| DF8AY | 2026-09-02 12:40:38 | 51.09830 | 8.09360 | 42° | 13km/h | 29801m | -32.7m/s | -43°C | 0% | 13hPa | 2.6V | 18:12:15 | 02:22:44 | 00:00:00 | |
| HSKMA3-T | 2026-09-02 12:40:37 | 51.09824 | 8.09355 | 27° | 11km/h | 29866m | -33.2m/s | -42.9°C | 0% | 12.9hPa | 2.6V | 08:29:23 | 02:22:42 | 00:00:00 | |
| AU51GT2 | 2026-09-02 12:40:36 | 51.09824 | 8.09355 | 26° | 11km/h | 29867m | -33.2m/s | -42.9°C | 0.4% | 12.9hPa | 2.7V | 00:00:00 | 00:00:00 | 00:00:00 | |
| DL1XH1-15 | 2026-09-02 12:40:35 | 51.09819 | 8.09351 | 31° | 11km/h | 29933m | -34.1m/s | -43°C | 2.4% | 12.8hPa | 2.7V | 08:28:40 | 02:22:40 | 00:00:00 | |
| DL1XH-west | 2026-09-02 12:40:34 | 51.09819 | 8.09351 | 31° | 11km/h | 29933m | -34.1m/s | -43°C | 0% | 12.8hPa | 2.7V | 08:29:23 | 02:22:40 | 00:00:00 | |
| AA1-15 | 2026-09-02 12:40:32 | 51.09814 | 8.09342 | 83° | 9km/h | 30033m | -33m/s | -43°C | 0% | 12.6hPa | 2.6V | 08:29:23 | 02:22:37 | 00:00:00 | |
| DL1XH-15 | 2026-09-02 12:40:31 | 51.09811 | 8.09324 | 67° | 16km/h | 30164m | -33.5m/s | -42.6°C | 2.4% | 12.3hPa | 2.7V | 08:28:47 | 02:22:33 | 00:00:00 | |
| BIOWL1-15 | 2026-09-02 12:40:30 | 51.09797 | 8.09292 | 50° | 26km/h | 30324m | -32.7m/s | -42.3°C | 0% | 12hPa | 2.6V | 08:29:23 | 02:22:28 | 00:00:00 | |
| DF8AY | 2026-09-02 12:40:26 | 51.09791 | 8.09278 | 61° | 22km/h | 30387m | -31.8m/s | -42.1°C | 0% | 11.9hPa | 2.6V | 18:12:15 | 02:22:26 | 00:00:00 | |
| BUE01 | 2026-09-02 12:40:26 | 51.09809 | 8.09318 | 67° | 18km/h | 30197m | -32.6m/s | -42.5°C | 0.4% | 12.2hPa | 2.6V | 00:00:00 | 00:00:00 | 00:00:00 | |
| DM0DOS-11 | 2026-09-02 12:40:25 | 51.09793 | 8.09285 | 59° | 20km/h | 30356m | -31.6m/s | -42.2°C | 2.3% | 12hPa | 2.6V | 08:28:53 | 02:22:27 | 00:00:00 | |
| HSKMA3-T | 2026-09-02 12:40:25 | 51.09807 | 8.09311 | 57° | 18km/h | 30229m | -32.5m/s | -42.3°C | 0% | 12.2hPa | 2.6V | 08:29:23 | 02:22:31 | 00:00:00 | |
| DL1XH1-15 | 2026-09-02 12:40:25 | 51.09805 | 8.09305 | 49° | 20km/h | 30261m | -31.9m/s | -42.3°C | 2.3% | 12.1hPa | 2.7V | 08:28:50 | 02:22:30 | 00:00:00 | |
| DL1XH-west | 2026-09-02 12:40:24 | 51.09804 | 8.09305 | 50° | 20km/h | 30261m | -31.9m/s | -42.3°C | 0% | 12.2hPa | 2.7V | 08:29:23 | 02:22:30 | 00:00:00 | |
| AA1-15 | 2026-09-02 12:40:21 | 51.09793 | 8.09285 | 60° | 20km/h | 30356m | -31.6m/s | -42.2°C | 0% | 12hPa | 2.6V | 08:29:23 | 02:22:27 | 00:00:00 | |
| DL1XH-15 | 2026-09-02 12:40:20 | 51.09790 | 8.09254 | 106° | 18km/h | 30479m | -30.6m/s | -41.9°C | 2.3% | 11.7hPa | 2.7V | 08:28:57 | 02:22:23 | 00:00:00 | |
| BIOWL1-15 | 2026-09-02 12:40:19 | 51.09789 | 8.09270 | 74° | 24km/h | 30418m | -30.8m/s | -42.1°C | 0% | 11.8hPa | 2.6V | 08:29:23 | 02:22:25 | 00:00:00 | |
| DF8AY | 2026-09-02 12:40:16 | 51.09794 | 8.09242 | 129° | 18km/h | 30540m | -31.1m/s | -41.8°C | 0% | 11.6hPa | 2.6V | 18:12:15 | 02:22:21 | 00:00:00 | |
| DM0DOS-11 | 2026-09-02 12:40:15 | 51.09803 | 8.09236 | 314° | 5km/h | 30663m | -31.2m/s | -41.4°C | 2.2% | 11.4hPa | 2.7V | 08:29:03 | 02:22:17 | 00:00:00 | |
| DL1XH1-15 | 2026-09-02 12:40:14 | 51.09797 | 8.09238 | 151° | 16km/h | 30571m | -32.2m/s | -41.7°C | 2.2% | 11.6hPa | 2.6V | 08:29:00 | 02:22:20 | 00:00:00 | |
| HSKMA3-T | 2026-09-02 12:40:14 | 51.09797 | 8.09238 | 152° | 18km/h | 30571m | -32.2m/s | -41.7°C | 0% | 11.6hPa | 2.6V | 08:29:23 | 02:22:20 | 00:00:00 | |
| DL1XH-west | 2026-09-02 12:40:13 | 51.09800 | 8.09235 | 166° | 9km/h | 30603m | -31.1m/s | -41.6°C | 0% | 11.6hPa | 2.6V | 08:29:23 | 02:22:19 | 00:00:00 | |
| AA1-15 | 2026-09-02 12:40:10 | 51.09801 | 8.09238 | 322° | 11km/h | 30694m | -30.5m/s | -41.4°C | 0% | 11.4hPa | 2.7V | 08:29:23 | 02:22:16 | 00:00:00 | |
| BIOWL1-15 | 2026-09-02 12:40:10 | 51.09762 | 8.09223 | 51° | 20km/h | 30901m | -28.5m/s | -41.4°C | 0% | 11hPa | 2.6V | 08:29:23 | 02:22:09 | 00:00:00 | |
| DL9SK-14 | 2026-09-02 12:40:09 | 51.09797 | 8.09240 | 351° | 18km/h | 30724m | -31.1m/s | -41.3°C | 0.4% | 11.3hPa | 2.7V | 00:00:00 | 00:00:00 | 00:00:00 | |
| DL1XH1-15 | 2026-09-02 12:40:08 | 51.09766 | 8.09230 | 41° | 26km/h | 30872m | -29.8m/s | -41.4°C | 2.2% | 11hPa | 2.7V | 08:29:10 | 02:22:10 | 00:00:00 | |
| HSKMA3-T | 2026-09-02 12:40:04 | 51.09766 | 8.09230 | 42° | 26km/h | 30873m | -29.8m/s | -41.4°C | 0% | 11hPa | 2.7V | 08:29:23 | 02:22:10 | 00:00:00 | |
| DM0DOS-11 | 2026-09-02 12:40:03 | 51.09760 | 8.09211 | 112° | 15km/h | 30958m | -28.1m/s | -41.3°C | 2.2% | 10.9hPa | 2.6V | 08:29:13 | 02:22:07 | 00:00:00 | |
| DL1XH-west | 2026-09-02 12:40:03 | 51.09760 | 8.09217 | 77° | 18km/h | 30929m | -29.7m/s | -41.4°C | 0% | 10.9hPa | 2.6V | 08:29:23 | 02:22:08 | 00:00:00 | |
| AA1-15 | 2026-09-02 12:40:00 | 51.09762 | 8.09205 | 128° | 18km/h | 30986m | -28.6m/s | -41.3°C | 0% | 10.9hPa | 2.6V | 08:29:23 | 02:22:06 | 00:00:00 | |
| DD8BA-10 | 2026-09-02 12:40:00 | 51.09762 | 8.09205 | 128° | 20km/h | 30986m | -28.5m/s | -41.2°C | 2.2% | 10.8hPa | 2.7V | 00:00:00 | 00:00:00 | 00:00:00 | |
| DL1XH-15 | 2026-09-02 12:39:57 | 51.09774 | 8.09198 | 190° | 18km/h | 31068m | -26.5m/s | -41.2°C | 2.2% | 10.7hPa | 2.7V | 08:29:17 | 02:22:03 | 00:00:00 | |
| DL1XH1-15 | 2026-09-02 12:39:57 | 51.09784 | 8.09210 | 260° | 18km/h | 31146m | -26.4m/s | -41.1°C | 2.2% | 10.6hPa | 2.7V | 08:29:20 | 02:22:00 | 00:00:00 | |
| DO2JMG | 2026-09-02 12:39:57 | 51.09774 | 8.09198 | 191° | 18km/h | 31068m | -26.5m/s | -41.2°C | 0% | 10.7hPa | 2.7V | 18:12:15 | 02:22:03 | 00:00:00 | |
| BIOWL1-15 | 2026-09-02 12:39:53 | 51.09782 | 8.09227 | 293° | 27km/h | 31198m | -26.3m/s | -41°C | 0% | 10.5hPa | 2.7V | 08:29:23 | 02:21:58 | 00:00:00 | |
| HSKMA3-T | 2026-09-02 12:39:53 | 51.09784 | 8.09217 | 274° | 20km/h | 31172m | -26.6m/s | -41°C | 0% | 10.5hPa | 2.7V | 08:29:23 | 02:21:59 | 00:00:00 | |
| DL1XH-west | 2026-09-02 12:39:53 | 51.09778 | 8.09236 | 316° | 33km/h | 31223m | -26.4m/s | -41°C | 0% | 10.5hPa | 2.6V | 08:29:23 | 02:21:57 | 00:00:00 | |
| AA1-15 | 2026-09-02 12:39:50 | 51.09771 | 8.09244 | 330° | 37km/h | 31249m | -26.6m/s | -41.1°C | 0% | 10.4hPa | 2.6V | 18:12:15 | 02:21:56 | 00:00:00 | |
| DB0ND-19 | 2026-09-02 12:39:49 | 51.09751 | 8.09254 | 351° | 47km/h | 31303m | -27.7m/s | -41.2°C | 0.4% | 10.3hPa | 2.6V | 00:00:00 | 00:00:00 | 00:00:00 | |
| DL1NUX | 2026-09-02 12:39:48 | 51.09724 | 8.09251 | 17° | 60km/h | 31356m | -28m/s | -41.1°C | 2.3% | 10.2hPa | 2.6V | 08:30:00 | 02:21:52 | 00:00:00 | |
| DM0DOS-11 | 2026-09-02 12:39:47 | 51.09674 | 8.09162 | 82° | 66km/h | 31491m | -27.6m/s | -40.8°C | 2.2% | 10hPa | 2.6V | 08:30:00 | 02:21:47 | 00:00:00 | |
| DO1YAY-16 | 2026-09-02 12:39:44 | 51.09697 | 8.09227 | 40° | 62km/h | 31410m | -27.4m/s | -40.9°C | 0.4% | 10.2hPa | 2.6V | 00:00:00 | 00:00:00 | 00:00:00 | |
| HSKMA3-T | 2026-09-02 12:39:43 | 51.09687 | 8.09209 | 53° | 64km/h | 31436m | -28.3m/s | -40.9°C | 0% | 10.1hPa | 2.6V | 18:12:15 | 02:21:49 | 00:00:00 | |
| DL1XH-west | 2026-09-02 12:39:41 | 51.09674 | 8.09136 | 99° | 66km/h | 31518m | -27.5m/s | -40.6°C | 0% | 10hPa | 2.6V | 18:12:15 | 02:21:46 | 00:00:00 | |
| BIOWL1-15 | 2026-09-02 12:39:41 | 51.09716 | 8.09169 | 341° | 73km/h | 31810m | -26m/s | -39.2°C | 0% | 9.6hPa | 2.6V | 18:12:15 | 02:21:35 | 00:00:00 | |
| DJ2DS-15 | 2026-09-02 12:39:40 | 51.09674 | 8.09136 | 99° | 71km/h | 31518m | -27.4m/s | -40.6°C | 2.2% | 10.0hPa | 2.7V | 00:00:00 | 02:21:46 | 00:00:00 | |
| DD1CC1-15 | 2026-09-02 12:39:39 | 51.09674 | 8.09136 | 100° | 66km/h | 31518m | -27.5m/s | -40.6°C | 0.4% | 10.0hPa | 2.7V | 00:00:00 | 00:00:00 | 00:00:00 | |
| DL1NUX | 2026-09-02 12:39:38 | 51.09711 | 8.09072 | 172° | 51km/h | 31627m | -27.8m/s | -40.1°C | 2.1% | 9.8hPa | 2.7V | 08:30:00 | 02:21:42 | 00:00:00 | |
| DO2JMG | 2026-09-02 12:39:35 | 51.09723 | 8.09074 | 197° | 49km/h | 31654m | -27.8m/s | -39.9°C | 0% | 9.8hPa | 2.6V | 18:12:15 | 02:21:41 | 00:00:00 | |
| DB0NH | 2026-09-02 12:39:35 | 51.09723 | 8.09074 | 197° | 58km/h | 31654m | -27.7m/s | -39.9°C | 2.1% | 9.8hPa | 2.6V | 00:00:00 | 02:21:41 | 08:30:00 | |
| DL1XH-15 | 2026-09-02 12:39:34 | 51.09744 | 8.09117 | 272° | 51km/h | 31733m | -26.9m/s | -39.4°C | 2.1% | 9.7hPa | 2.6V | 08:30:00 | 02:21:38 | 00:00:00 | |
| BIOWL1-15 | 2026-09-02 12:39:34 | 51.09697 | 8.09174 | 359° | 78km/h | 31835m | -26m/s | -39.3°C | 0% | 9.5hPa | 2.6V | 18:12:15 | 02:21:34 | 00:00:00 | |
| HSKMA3-T | 2026-09-02 12:39:32 | 51.09744 | 8.09117 | 273° | 51km/h | 31733m | -26.9m/s | -39.4°C | 0% | 9.7hPa | 2.6V | 18:12:15 | 02:21:38 | 00:00:00 | |
| DL1XH-west | 2026-09-02 12:39:31 | 51.09740 | 8.09138 | 299° | 57km/h | 31759m | -26.6m/s | -39.2°C | 0% | 9.6hPa | 2.7V | 18:12:15 | 02:21:37 | 00:00:00 | |
| DJ8HS-15 | 2026-09-02 12:39:30 | 51.09731 | 8.09156 | 321° | 68km/h | 31785m | -25.8m/s | -39.2°C | 2.0% | 9.6hPa | 2.7V | 00:00:00 | 02:21:36 | 08:30:00 | |
| DD8BA-10 | 2026-09-02 12:39:29 | 51.09716 | 8.09169 | 342° | 84km/h | 31811m | -25.9m/s | -39.2°C | 2.0% | 9.5hPa | 2.6V | 00:00:00 | 00:00:00 | 00:00:00 | |
| DL1NUX | 2026-09-02 12:39:28 | 51.09658 | 8.09156 | 33° | 88km/h | 31887m | -26.9m/s | -39.3°C | 2% | 9.4hPa | 2.6V | 08:30:00 | 02:21:32 | 00:00:00 | |
| AA1-15 | 2026-09-02 12:39:27 | 51.09629 | 8.09102 | 67° | 89km/h | 31938m | -25.9m/s | -39.3°C | 0% | 9.4hPa | 2.7V | 18:12:15 | 02:21:30 | 00:00:00 | |
| DD1CC2-15 | 2026-09-02 12:39:26 | 51.09658 | 8.09156 | 35° | 88km/h | 31887m | -26.9m/s | -39.3°C | 0.4% | 9.5hPa | 2.6V | 00:00:00 | 00:00:00 | 00:00:00 | |
| DJ2KF-10 | 2026-09-02 12:39:25 | 51.09641 | 8.09132 | 50° | 66km/h | 31913m | -26.0m/s | -39.3°C | 2.0% | 9.4hPa | 2.6V | 00:00:00 | 02:21:31 | 00:00:00 | |
| BIOWL9-15 | 2026-09-02 12:39:24 | 51.09623 | 8.09068 | 83° | 86km/h | 31964m | -26.2m/s | -39.3°C | 0.3% | 9.3hPa | 2.6V | 00:00:00 | 00:00:00 | 00:00:00 | |
| DM0DOS-11 | 2026-09-02 12:39:23 | 51.09630 | 8.09003 | 116° | 80km/h | 32017m | -27.3m/s | -39.4°C | 2% | 9.3hPa | 2.6V | 08:30:00 | 02:21:27 | 00:00:00 | |
| HSKMA3-T | 2026-09-02 12:39:21 | 51.09630 | 8.09003 | 117° | 80km/h | 32017m | -27.3m/s | -39.4°C | 0% | 9.3hPa | 2.6V | 18:12:15 | 02:21:27 | 00:00:00 | |
| DL1XH-west | 2026-09-02 12:39:21 | 51.09667 | 8.08952 | 171° | 58km/h | 32098m | -25.7m/s | -39.5°C | 0% | 9.2hPa | 2.7V | 18:12:15 | 02:21:24 | 00:00:00 | |
| BIOWL1-15 | 2026-09-02 12:39:21 | 51.09697 | 8.08973 | 246° | 42km/h | 32173m | -24.4m/s | -39.5°C | 0% | 9.1hPa | 2.6V | 18:12:15 | 02:21:21 | 00:00:00 | |
| AA1-15 | 2026-09-02 12:39:18 | 51.09681 | 8.08953 | 194° | 47km/h | 32123m | -24.9m/s | -39.5°C | 0% | 9.1hPa | 2.6V | 18:12:15 | 02:21:23 | 00:00:00 | |
| DL1XH-15 | 2026-09-02 12:39:17 | 51.09697 | 8.08973 | 246° | 42km/h | 32173m | -24.4m/s | -39.5°C | 2.1% | 9.1hPa | 2.6V | 08:30:00 | 02:21:21 | 00:00:00 | |
| DL1XH1-15 | 2026-09-02 12:39:16 | 51.09698 | 8.08989 | 277° | 42km/h | 32196m | -22.9m/s | -39.4°C | 2.1% | 9hPa | 2.7V | 08:30:00 | 02:21:20 | 00:00:00 | |
| DB0UT-7 | 2026-09-02 12:39:15 | 51.09697 | 8.08973 | 247° | 55km/h | 32173m | -24.3m/s | -39.4°C | 2.1% | 9.0hPa | 2.6V | 00:00:00 | 00:00:00 | 00:00:00 | |
| DL4BBY-15 | 2026-09-02 12:39:14 | 51.09699 | 8.08989 | 278° | 53km/h | 32197m | -22.8m/s | -39.1°C | 0% | 0hPa | 2.6V | 00:00:00 | 00:00:00 | 00:00:00 | |
| DO1YAY-16 | 2026-09-02 12:39:13 | 51.09695 | 8.09006 | 300° | 47km/h | 32220m | -24.3m/s | -39.3°C | 0.4% | 9.0hPa | 2.6V | 00:00:00 | 00:00:00 | 00:00:00 | |
| DM0DOS-11 | 2026-09-02 12:39:11 | 51.09674 | 8.09030 | 343° | 60km/h | 32269m | -25.8m/s | -39.2°C | 2.1% | 8.9hPa | 2.6V | 08:30:00 | 02:21:17 | 00:00:00 | |
| HSKMA3-T | 2026-09-02 12:39:11 | 51.09674 | 8.09030 | 343° | 60km/h | 32269m | -25.8m/s | -39.2°C | 0% | 8.9hPa | 2.6V | 18:12:15 | 02:21:17 | 00:00:00 | |
| DL1XH-west | 2026-09-02 12:39:09 | 51.09628 | 8.09023 | 27° | 66km/h | 32348m | -25.9m/s | -39.1°C | 0% | 8.8hPa | 2.7V | 18:12:15 | 02:21:14 | 00:00:00 | |
| DL1XH-15 | 2026-09-02 12:39:07 | 51.09597 | 8.08965 | 70° | 68km/h | 32420m | -22.9m/s | -39°C | 2.1% | 8.8hPa | 2.6V | 08:30:00 | 02:21:11 | 00:00:00 | |
| BIOWL1-15 | 2026-09-02 12:39:07 | 51.09614 | 8.09008 | 42° | 66km/h | 32373m | -24.2m/s | -39.1°C | 0% | 8.8hPa | 2.7V | 18:12:15 | 02:21:13 | 00:00:00 | |
| DL1XH1-15 | 2026-09-02 12:39:06 | 51.09593 | 8.08939 | 84° | 69km/h | 32442m | -21.2m/s | -38.9°C | 2.1% | 8.7hPa | 2.6V | 08:30:00 | 02:21:10 | 00:00:00 | |
| DM0DOS-11 | 2026-09-02 12:39:06 | 51.09601 | 8.08855 | 109° | 75km/h | 32509m | -23.1m/s | -38.5°C | 2% | 8.6hPa | 2.7V | 08:30:00 | 02:21:07 | 00:00:00 | |
| HSKMA3-T | 2026-09-02 12:39:00 | 51.09608 | 8.08828 | 115° | 73km/h | 32532m | -23.8m/s | -38.4°C | 0% | 8.6hPa | 2.6V | 18:12:15 | 02:21:06 | 00:00:00 | |
| DL1XH-west | 2026-09-02 12:38:58 | 51.09648 | 8.08699 | 104° | 40km/h | 32675m | -24.3m/s | -37.9°C | 0% | 8.4hPa | 2.6V | 18:12:15 | 02:21:00 | 00:00:00 | |
| BIOWL1-15 | 2026-09-02 12:38:57 | 51.09655 | 8.08536 | 75° | 27km/h | 32876m | 5.7m/s | -36.4°C | 0% | 8.2hPa | 2.6V | 18:12:15 | 02:20:47 | 00:00:00 | |
| AA1-15 | 2026-09-02 12:38:57 | 51.09649 | 8.08653 | 86° | 40km/h | 32759m | -30.2m/s | -37.3°C | 0% | 8.3hPa | 2.7V | 18:12:15 | 02:20:57 | 00:00:00 | |
| DL3AQ-11 | 2026-09-02 12:38:57 | 51.09650 | 8.08684 | 92° | 37km/h | 32701m | -26.8m/s | -37.6°C | 0.3% | 8.4hPa | 2.6V | 00:00:00 | 00:00:00 | 00:00:00 | |
| DL1XH1-15 | 2026-09-02 12:38:56 | 51.09648 | 8.08700 | 104° | 40km/h | 32675m | -24.3m/s | -37.9°C | 1.9% | 8.4hPa | 2.6V | 08:30:00 | 02:21:00 | 00:00:00 | |
| DO3DL | 2026-09-02 12:38:56 | 51.09633 | 8.08755 | 119° | 62km/h | 32605m | -23.8m/s | -38.1°C | 0.3% | 8.5hPa | 2.7V | 00:00:00 | 00:00:00 | 00:00:00 | |
| DM0DOS-11 | 2026-09-02 12:38:55 | 51.09649 | 8.08653 | 85° | 40km/h | 32758m | -30.2m/s | -37.3°C | 1.9% | 8.3hPa | 2.7V | 08:30:00 | 02:20:57 | 00:00:00 | |
| DF8AY | 2026-09-02 12:38:54 | 51.09650 | 8.08684 | 93° | 38km/h | 32700m | -26.8m/s | -37.6°C | 0% | 8.4hPa | 2.6V | 18:12:15 | 02:20:59 | 00:00:00 | |
| HSKMA3-T | 2026-09-02 12:38:50 | 51.09648 | 8.08638 | 90° | 40km/h | 32789m | -30m/s | -37.1°C | 0% | 8.3hPa | 2.7V | 18:12:15 | 02:20:56 | 00:00:00 | |
| DL1NUX | 2026-09-02 12:38:49 | 51.09653 | 8.08586 | 105° | 24km/h | 32881m | -16.2m/s | -36.3°C | 1.7% | 8.2hPa | 2.7V | 08:30:00 | 02:20:52 | 00:00:00 | |
| WPPR-10 | 2026-09-02 12:38:47 | 51.09653 | 8.08586 | 105° | 24km/h | 32882m | -16.2m/s | -36.3°C | 0.3% | 8.2hPa | 2.6V | 00:00:00 | 00:00:00 | 00:00:00 | |
| DB0ND-19 | 2026-09-02 12:38:46 | 51.09654 | 8.08576 | 101° | 24km/h | 32893m | -6.1m/s | -36.3°C | 0.3% | 8.1hPa | 2.6V | 00:00:00 | 00:00:00 | 00:00:00 | |
| DF8AY | 2026-09-02 12:38:44 | 51.09657 | 8.08558 | 95° | 26km/h | 32889m | 6.5m/s | -36.2°C | 0% | 8.1hPa | 2.6V | 18:12:15 | 02:20:49 | 00:00:00 | |
| DL4BBY-15 | 2026-09-02 12:38:44 | 51.09656 | 8.08567 | 106° | 27km/h | 32894m | 4.2m/s | -35.8°C | 0% | 0hPa | 2.6V | 00:00:00 | 00:00:00 | 00:00:00 | |
| DL8DAS-15 | 2026-09-02 12:38:43 | 51.09655 | 8.08567 | 107° | 24km/h | 32895m | 4.2m/s | -36.2°C | 0.3% | 8.1hPa | 2.6V | 00:00:00 | 00:00:00 | 00:00:00 | |
| DL3OBA | 2026-09-02 12:38:42 | 51.09656 | 8.08558 | 96° | 26km/h | 32889m | 6.5m/s | -36.2°C | 0.3% | 8.1hPa | 2.6V | 00:00:00 | 00:00:00 | 00:00:00 | |
| DM0DOS-11 | 2026-09-02 12:38:41 | 51.09655 | 8.08536 | 74° | 27km/h | 32876m | 5.7m/s | -36.4°C | 1.8% | 8.2hPa | 2.6V | 08:30:00 | 02:20:47 | 00:00:00 | |
| AA1-15 | 2026-09-02 12:38:41 | 51.09653 | 8.08526 | 73° | 27km/h | 32871m | 6.3m/s | -36.3°C | 0% | 8.2hPa | 2.7V | 18:12:15 | 02:20:46 | 00:00:00 | |
| HSKMA3-T | 2026-09-02 12:38:39 | 51.09651 | 8.08516 | 74° | 24km/h | 32864m | 6.5m/s | -36.4°C | 0% | 8.2hPa | 2.7V | 18:12:15 | 02:20:45 | 00:00:00 | |
| DL1NUX | 2026-09-02 12:38:38 | 51.09649 | 8.08491 | 87° | 20km/h | 32847m | 5.1m/s | -36.6°C | 1.8% | 8.2hPa | 2.6V | 08:30:00 | 02:20:42 | 00:00:00 | |
| SP3BTT-10 | 2026-09-02 12:38:38 | 51.09650 | 8.08507 | 79° | 24km/h | 32858m | 5.7m/s | 0°C | 0% | 0hPa | 2.6V | 00:00:00 | 00:00:00 | 00:00:00 | |
| DD1CC3-15 | 2026-09-02 12:38:37 | 51.09648 | 8.08463 | 87° | 27km/h | 32829m | 6.4m/s | -36.9°C | 0.3% | 8.2hPa | 2.6V | 00:00:00 | 00:00:00 | 00:00:00 | |
| DM0DOS-11 | 2026-09-02 12:38:36 | 51.09648 | 8.08441 | 93° | 29km/h | 32818m | 5.2m/s | -36.9°C | 1.8% | 8.2hPa | 2.6V | 08:30:00 | 02:20:37 | 00:00:00 | |
| DL1XH-west | 2026-09-02 12:38:34 | 51.09648 | 8.08463 | 86° | 27km/h | 32829m | 6.4m/s | -36.9°C | 0% | 8.2hPa | 2.7V | 18:12:15 | 02:20:39 | 00:00:00 | |
| BIOWL1-15 | 2026-09-02 12:38:29 | 51.09650 | 8.08419 | 110° | 27km/h | 32805m | 6.8m/s | -37.1°C | 0% | 8.2hPa | 2.7V | 18:12:15 | 02:20:35 | 00:00:00 | |
| HSKMA3-T | 2026-09-02 12:38:28 | 51.09653 | 8.08409 | 115° | 26km/h | 32799m | 5.8m/s | -37.1°C | 0% | 8.3hPa | 2.7V | 18:12:15 | 02:20:34 | 00:00:00 | |
| DL1XH-15 | 2026-09-02 12:38:27 | 51.09659 | 8.08379 | 94° | 29km/h | 32783m | 6.7m/s | -37.2°C | 1.9% | 8.3hPa | 2.7V | 08:30:00 | 02:20:31 | 00:00:00 | |
| DL1XH-west | 2026-09-02 12:38:23 | 51.09656 | 8.08340 | 80° | 35km/h | 32764m | 5.2m/s | -37.2°C | 0% | 8.3hPa | 2.6V | 18:12:15 | 02:20:28 | 00:00:00 | |
| BIOWL1-15 | 2026-09-02 12:38:21 | 51.09656 | 8.08301 | 103° | 29km/h | 32747m | 6.5m/s | -37.4°C | 0% | 8.3hPa | 2.7V | 18:12:15 | 02:20:25 | 00:00:00 | |
| HSKMA3-T | 2026-09-02 12:38:18 | 51.09658 | 8.08290 | 112° | 29km/h | 32741m | 5.6m/s | -37.3°C | 0% | 8.3hPa | 2.7V | 18:12:15 | 02:20:24 | 00:00:00 | |
| DL1XH-15 | 2026-09-02 12:38:16 | 51.09665 | 8.08258 | 97° | 29km/h | 32724m | 6.5m/s | -37.4°C | 1.9% | 8.3hPa | 2.6V | 08:30:00 | 02:20:21 | 00:00:00 | |
| DO2JMG | 2026-09-02 12:38:16 | 51.09663 | 8.08269 | 107° | 27km/h | 32730m | 5.7m/s | -37.4°C | 0% | 8.3hPa | 2.6V | 18:12:15 | 02:20:22 | 00:00:00 | |
| DL1XH-west | 2026-09-02 12:38:13 | 51.09659 | 8.08201 | 78° | 27km/h | 32693m | 6.2m/s | -37.6°C | 0% | 8.4hPa | 2.6V | 18:12:15 | 02:20:16 | 00:00:00 | |
| DF8AY | 2026-09-02 12:38:12 | 51.09661 | 8.08212 | 76° | 29km/h | 32700m | 6.6m/s | -37.5°C | 0% | 8.4hPa | 2.7V | 18:12:15 | 02:20:17 | 00:00:00 | |
| DO9LL-15 | 2026-09-02 12:38:12 | 51.09662 | 8.08223 | 77° | 27km/h | 32706m | 5.6m/s | -37.3°C | 1.8% | 8.3hPa | 2.6V | 00:00:00 | 02:20:18 | 00:00:00 | |
| DO1YAY-16 | 2026-09-02 12:38:11 | 51.09661 | 8.08212 | 76° | 27km/h | 32700m | 6.6m/s | -37.5°C | 0.3% | 8.4hPa | 2.6V | 00:00:00 | 00:00:00 | 00:00:00 | |
| DL1NUX | 2026-09-02 12:38:10 | 51.09653 | 8.08154 | 76° | 35km/h | 32670m | 6.9m/s | -37.7°C | 1.9% | 8.4hPa | 2.6V | 08:30:00 | 02:20:12 | 00:00:00 | |
| BIOWL1-15 | 2026-09-02 12:38:08 | 51.09657 | 8.08179 | 79° | 29km/h | 32682m | 5.2m/s | -37.6°C | 0% | 8.4hPa | 2.7V | 18:12:15 | 02:20:14 | 00:00:00 | |
| HSKMA3-T | 2026-09-02 12:38:07 | 51.09655 | 8.08167 | 77° | 31km/h | 32676m | 6.1m/s | -37.6°C | 0% | 8.4hPa | 2.7V | 18:12:15 | 02:20:13 | 00:00:00 | |
| DL1XH1-15 | 2026-09-02 12:38:05 | 51.09649 | 8.08127 | 80° | 35km/h | 32658m | 5m/s | -37.9°C | 1.9% | 8.4hPa | 2.7V | 08:30:00 | 02:20:10 | 00:00:00 | |
| DO2JMG | 2026-09-02 12:38:05 | 51.09651 | 8.08141 | 77° | 37km/h | 32664m | 5.8m/s | -37.8°C | 0% | 8.4hPa | 2.6V | 18:12:15 | 02:20:11 | 00:00:00 | |
| DL1XH-west | 2026-09-02 12:38:01 | 51.09649 | 8.08086 | 100° | 16km/h | 32634m | 5.4m/s | -37.8°C | 0% | 8.5hPa | 2.6V | 18:12:15 | 02:20:06 | 00:00:00 | |
| DL1XH-15 | 2026-09-02 12:38:01 | 51.09641 | 8.08043 | 66° | 37km/h | 32606m | 5.6m/s | -37.9°C | 1.9% | 8.5hPa | 2.6V | 08:30:00 | 02:20:01 | 00:00:00 | |
| AU51GT2 | 2026-09-02 12:38:01 | 51.09648 | 8.08093 | 97° | 20km/h | 32641m | 6.6m/s | -37.8°C | 0.3% | 8.4hPa | 2.6V | 00:00:00 | 00:00:00 | 00:00:00 | |
| DO3MHA-12 | 2026-09-02 12:38:00 | 51.09649 | 8.08086 | 100° | 31km/h | 32635m | 5.4m/s | -37.8°C | 1.9% | 8.4hPa | 2.6V | 00:00:00 | 02:20:06 | 00:00:00 | |
| DL1XH1-15 | 2026-09-02 12:37:59 | 51.09637 | 8.08029 | 68° | 40km/h | 32601m | 5.5m/s | -38°C | 1.9% | 8.5hPa | 2.6V | 08:30:00 | 02:20:00 | 00:00:00 | |
| AA1-15 | 2026-09-02 12:37:58 | 51.09649 | 8.08073 | 77° | 16km/h | 32624m | 5.5m/s | -37.8°C | 0% | 8.5hPa | 2.7V | 18:12:15 | 02:20:04 | 00:00:00 | |
| BIOWL1-15 | 2026-09-02 12:37:57 | 51.09629 | 8.07987 | 75° | 29km/h | 32583m | 5.4m/s | -37.8°C | 0% | 8.5hPa | 2.7V | 18:12:15 | 02:19:57 | 00:00:00 | |
| HSKMA3-T | 2026-09-02 12:37:56 | 51.09645 | 8.08055 | 66° | 31km/h | 32612m | 6m/s | -37.7°C | 0% | 8.5hPa | 2.7V | 18:12:15 | 02:20:02 | 00:00:00 | |
| DF8AY | 2026-09-02 12:37:55 | 51.09641 | 8.08043 | 66° | 37km/h | 32606m | 5.6m/s | -37.9°C | 0% | 8.5hPa | 2.6V | 18:12:15 | 02:20:01 | 00:00:00 | |
| DO2JMG | 2026-09-02 12:37:54 | 51.09638 | 8.08029 | 69° | 40km/h | 32601m | 5.5m/s | -38°C | 0% | 8.5hPa | 2.6V | 18:12:15 | 02:20:00 | 00:00:00 | |
| DL1XH-west | 2026-09-02 12:37:51 | 51.09625 | 8.07968 | 63° | 22km/h | 32573m | 5.3m/s | -38°C | 0% | 8.5hPa | 2.6V | 18:12:15 | 02:19:55 | 00:00:00 | |
| AA1-15 | 2026-09-02 12:37:48 | 51.09614 | 8.07947 | 46° | 24km/h | 32554m | 5.7m/s | -37.9°C | 0% | 8.6hPa | 2.7V | 18:12:15 | 02:19:52 | 00:00:00 | |
| DL1XH1-15 | 2026-09-02 12:37:48 | 51.09607 | 8.07933 | 54° | 22km/h | 32544m | 4.9m/s | -38°C | 1.9% | 8.6hPa | 2.6V | 08:30:00 | 02:19:50 | 00:00:00 | |
| DJ3KS | 2026-09-02 12:37:48 | 51.09622 | 8.07960 | 56° | 22km/h | 32567m | 6.4m/s | -38.1°C | 0.3% | 8.6hPa | 2.7V | 00:00:00 | 00:00:00 | 00:00:00 | |
| DM0DOS-11 | 2026-09-02 12:37:47 | 51.09602 | 8.07910 | 89° | 20km/h | 32526m | 6.1m/s | -38.3°C | 1.9% | 8.6hPa | 2.7V | 08:30:00 | 02:19:47 | 00:00:00 | |
| HSKMA3-T | 2026-09-02 12:37:45 | 51.09610 | 8.07940 | 47° | 24km/h | 32549m | 5.1m/s | -37.9°C | 0% | 8.6hPa | 2.6V | 18:12:15 | 02:19:51 | 00:00:00 | |
| DO2JMG | 2026-09-02 12:37:44 | 51.09607 | 8.07933 | 54° | 22km/h | 32544m | 4.9m/s | -38°C | 0% | 8.6hPa | 2.6V | 18:12:15 | 02:19:50 | 00:00:00 | |
| DF8AY | 2026-09-02 12:37:43 | 51.09602 | 8.07910 | 90° | 20km/h | 32526m | 6.1m/s | -38.3°C | 0% | 8.6hPa | 2.7V | 18:12:15 | 02:19:47 | 00:00:00 | |
| DO9LL-15 | 2026-09-02 12:37:42 | 51.09602 | 8.07918 | 78° | 22km/h | 32533m | 6.7m/s | -38.2°C | 1.9% | 8.5hPa | 2.7V | 00:00:00 | 02:19:48 | 00:00:00 | |
| DD1CC2-15 | 2026-09-02 12:37:41 | 51.09602 | 8.07918 | 79° | 20km/h | 32533m | 6.8m/s | -38.2°C | 0.3% | 8.6hPa | 2.7V | 00:00:00 | 00:00:00 | 00:00:00 | |
| DL1NUX | 2026-09-02 12:37:40 | 51.09595 | 8.07861 | 54° | 29km/h | 32498m | 5.1m/s | -38.5°C | 1.9% | 8.6hPa | 2.7V | 08:30:00 | 02:19:42 | 00:00:00 | |
| BIOWL1-15 | 2026-09-02 12:37:40 | 51.09602 | 8.07902 | 93° | 22km/h | 32521m | 5.2m/s | -38.3°C | 0% | 8.6hPa | 2.6V | 18:12:15 | 02:19:46 | 00:00:00 | |
| DJ2DS-15 | 2026-09-02 12:37:40 | 51.09602 | 8.07901 | 93° | 22km/h | 32521m | 5.1m/s | -38.3°C | 1.9% | 8.6hPa | 2.7V | 00:00:00 | 02:19:46 | 00:00:00 | |
| DL1XH-15 | 2026-09-02 12:37:39 | 51.09590 | 8.07853 | 46° | 27km/h | 32493m | 4.9m/s | -38.5°C | 2% | 8.6hPa | 2.7V | 08:30:00 | 02:19:41 | 00:00:00 | |
| DD8BA-10 | 2026-09-02 12:37:39 | 51.09601 | 8.07892 | 87° | 22km/h | 32516m | 5.1m/s | -38.3°C | 1.9% | 8.6hPa | 2.6V | 00:00:00 | 00:00:00 | 00:00:00 | |
| DO3DL | 2026-09-02 12:37:38 | 51.09601 | 8.07892 | 88° | 24km/h | 32516m | 5.2m/s | -38.3°C | 0.3% | 8.6hPa | 2.6V | 00:00:00 | 00:00:00 | 00:00:00 | |
| DL3AQ-11 | 2026-09-02 12:37:37 | 51.09595 | 8.07861 | 54° | 29km/h | 32498m | 5.1m/s | -38.5°C | 0.3% | 8.6hPa | 2.6V | 00:00:00 | 00:00:00 | 00:00:00 | |
| DL1XH1-15 | 2026-09-02 12:37:36 | 51.09586 | 8.07846 | 38° | 24km/h | 32487m | 6.1m/s | -38.4°C | 2% | 8.6hPa | 2.6V | 08:30:00 | 02:19:40 | 00:00:00 | |
| HSKMA3-T | 2026-09-02 12:37:35 | 51.09590 | 8.07853 | 46° | 27km/h | 32493m | 4.9m/s | -38.5°C | 0% | 8.6hPa | 2.7V | 18:12:15 | 02:19:41 | 00:00:00 | |
| DM0DOS-11 | 2026-09-02 12:37:34 | 51.09575 | 8.07836 | 31° | 9km/h | 32470m | 4.7m/s | -38.5°C | 1.9% | 8.7hPa | 2.7V | 08:30:00 | 02:19:37 | 00:00:00 | |
| DO2JMG | 2026-09-02 12:37:33 | 51.09581 | 8.07841 | 31° | 18km/h | 32481m | 6.4m/s | -38.4°C | 0% | 8.7hPa | 2.6V | 18:12:15 | 02:19:39 | 00:00:00 | |
| SP3BTT-10 | 2026-09-02 12:37:31 | 51.09575 | 8.07836 | 32° | 18km/h | 32471m | 4.6m/s | 0°C | 0% | 0hPa | 2.7V | 00:00:00 | 00:00:00 | 00:00:00 | |
| DL1NUX | 2026-09-02 12:37:30 | 51.09570 | 8.07803 | 91° | 27km/h | 32443m | 5.6m/s | -38.5°C | 1.9% | 8.7hPa | 2.7V | 08:30:00 | 02:19:32 | 00:00:00 | |
| DL1XH-west | 2026-09-02 12:37:30 | 51.09573 | 8.07833 | 52° | 11km/h | 32465m | 5m/s | -38.6°C | 0% | 8.7hPa | 2.7V | 18:12:15 | 02:19:36 | 00:00:00 | |
| BIOWL1-15 | 2026-09-02 12:37:30 | 51.09572 | 8.07829 | 68° | 15km/h | 32460m | 6.2m/s | -38.7°C | 0% | 8.7hPa | 2.7V | 18:12:15 | 02:19:35 | 00:00:00 | |
| DD8BA-10 | 2026-09-02 12:37:29 | 51.09572 | 8.07829 | 69° | 24km/h | 32460m | 6.1m/s | -38.6°C | 2.0% | 8.6hPa | 2.7V | 00:00:00 | 00:00:00 | 00:00:00 | |
| DL1XH-15 | 2026-09-02 12:37:28 | 51.09571 | 8.07792 | 94° | 29km/h | 32437m | 6.2m/s | -38.6°C | 2% | 8.7hPa | 2.7V | 08:30:00 | 02:19:31 | 00:00:00 | |
| DD1CC8 | 2026-09-02 12:37:28 | 51.09570 | 8.07814 | 86° | 24km/h | 32448m | 5.5m/s | -38.5°C | 0.3% | 8.7hPa | 2.7V | 00:00:00 | 00:00:00 | 00:00:00 | |
| SONCRA | 2026-09-02 12:37:27 | 51.09570 | 8.07814 | 86° | 24km/h | 32448m | 5.5m/s | -38.5°C | 0.3% | 8.7hPa | 2.7V | 00:00:00 | 00:00:00 | 00:00:00 | |
| DM0DOS-11 | 2026-09-02 12:37:26 | 51.09567 | 8.07740 | 65° | 27km/h | 32410m | 6.5m/s | -38.7°C | 2% | 8.7hPa | 2.7V | 08:30:00 | 02:19:26 | 00:00:00 | |
| HSKMA3-T | 2026-09-02 12:37:24 | 51.09571 | 8.07781 | 94° | 27km/h | 32431m | 5.6m/s | -38.7°C | 0% | 8.7hPa | 2.6V | 18:12:15 | 02:19:30 | 00:00:00 | |
| DO2JMG | 2026-09-02 12:37:23 | 51.09571 | 8.07770 | 90° | 26km/h | 32426m | 4.7m/s | -38.8°C | 0% | 8.7hPa | 2.6V | 18:12:15 | 02:19:29 | 00:00:00 | |
| DL1XH-west | 2026-09-02 12:37:20 | 51.09557 | 8.07703 | 83° | 20km/h | 32389m | 6.2m/s | -38.7°C | 0% | 8.8hPa | 2.7V | 18:12:15 | 02:19:22 | 00:00:00 | |
| BIOWL1-15 | 2026-09-02 12:37:19 | 51.09558 | 8.07711 | 70° | 24km/h | 32394m | 4.7m/s | -38.7°C | 0% | 8.8hPa | 2.6V | 18:12:15 | 02:19:23 | 00:00:00 | |
| DO3DL | 2026-09-02 12:37:19 | 51.09564 | 8.07730 | 62° | 29km/h | 32405m | 5.4m/s | -38.6°C | 0.3% | 8.7hPa | 2.7V | 00:00:00 | 00:00:00 | 00:00:00 | |
| DL8DAS-14 | 2026-09-02 12:37:18 | 51.09558 | 8.07711 | 70° | 22km/h | 32394m | 4.7m/s | -38.7°C | 0.3% | 8.8hPa | 2.7V | 00:00:00 | 00:00:00 | 00:00:00 | |
| DL1XH-15 | 2026-09-02 12:37:16 | 51.09557 | 8.07696 | 106° | 18km/h | 32383m | 6m/s | -38.8°C | 2% | 8.8hPa | 2.7V | 08:30:00 | 02:19:21 | 00:00:00 | |
| DF8AY | 2026-09-02 12:37:15 | 51.09567 | 8.07663 | 99° | 29km/h | 32364m | 5.6m/s | -39.1°C | 0% | 8.8hPa | 2.6V | 18:12:15 | 02:19:17 | 00:00:00 | |
| DL4BBY-15 | 2026-09-02 12:37:14 | 51.09559 | 8.07689 | 123° | 22km/h | 32377m | 4.8m/s | -38.5°C | 0% | 0hPa | 2.6V | 00:00:00 | 00:00:00 | 00:00:00 | |
| DM0DOS-11 | 2026-09-02 12:37:13 | 51.09566 | 8.07663 | 99° | 29km/h | 32364m | 5.6m/s | -39.1°C | 2% | 8.8hPa | 2.6V | 08:30:00 | 02:19:17 | 00:00:00 | |
| HSKMA3-T | 2026-09-02 12:37:13 | 51.09562 | 8.07682 | 123° | 24km/h | 32373m | 3.8m/s | -38.9°C | 0% | 8.8hPa | 2.6V | 18:12:15 | 02:19:19 | 00:00:00 | |
| DO2JMG | 2026-09-02 12:37:12 | 51.09565 | 8.07673 | 113° | 26km/h | 32369m | 3.9m/s | -38.9°C | 0% | 8.8hPa | 2.6V | 18:12:15 | 02:19:18 | 00:00:00 | |
| DO9LL-15 | 2026-09-02 12:37:12 | 51.09565 | 8.07673 | 113° | 22km/h | 32369m | 3.9m/s | -38.9°C | 2.0% | 8.7hPa | 2.6V | 00:00:00 | 02:19:18 | 00:00:00 | |
| DO3DL | 2026-09-02 12:37:11 | 51.09564 | 8.07673 | 114° | 26km/h | 32369m | 3.9m/s | -38.9°C | 0.3% | 8.8hPa | 2.7V | 00:00:00 | 00:00:00 | 00:00:00 | |
| DL1XH-15 | 2026-09-02 12:37:10 | 51.09547 | 8.07597 | 44° | 18km/h | 32333m | 5.5m/s | -38.9°C | 2% | 8.8hPa | 2.7V | 08:30:00 | 02:19:11 | 00:00:00 | |
| DL1XH-west | 2026-09-02 12:37:08 | 51.09561 | 8.07624 | 60° | 37km/h | 32348m | 4.7m/s | -39.2°C | 0% | 8.8hPa | 2.7V | 18:12:15 | 02:19:14 | 00:00:00 | |
| DM0DOS-11 | 2026-09-02 12:37:06 | 51.09546 | 8.07583 | 115° | 15km/h | 32314m | 5.5m/s | -39°C | 2% | 8.9hPa | 2.7V | 08:30:00 | 02:19:07 | 00:00:00 | |
| AA1-15 | 2026-09-02 12:37:04 | 51.09544 | 8.07587 | 119° | 9km/h | 32319m | 4.3m/s | -38.9°C | 0% | 8.8hPa | 2.6V | 18:12:15 | 02:19:08 | 00:00:00 | |
| HSKMA3-T | 2026-09-02 12:37:03 | 51.09544 | 8.07590 | 95° | 5km/h | 32323m | 4.1m/s | -38.9°C | 0% | 8.9hPa | 2.6V | 18:12:15 | 02:19:09 | 00:00:00 | |
| DO2JMG | 2026-09-02 12:37:01 | 51.09546 | 8.07583 | 115° | 15km/h | 32314m | 5.5m/s | -39°C | 0% | 8.9hPa | 2.7V | 18:12:15 | 02:19:07 | 00:00:00 | |
| DL1XH-15 | 2026-09-02 12:37:00 | 51.09546 | 8.07515 | 70° | 27km/h | 32285m | 5m/s | -39.6°C | 2.1% | 8.9hPa | 2.7V | 08:30:00 | 02:19:01 | 00:00:00 | |
| DF8AY | 2026-09-02 12:37:00 | 51.09547 | 8.07576 | 106° | 22km/h | 32308m | 5.9m/s | -39.1°C | 0% | 8.9hPa | 2.7V | 18:12:15 | 02:19:06 | 00:00:00 | |
| DJ2DS-15 | 2026-09-02 12:37:00 | 51.09547 | 8.07575 | 107° | 22km/h | 32308m | 5.8m/s | -39.0°C | 2.0% | 8.8hPa | 2.7V | 00:00:00 | 02:19:06 | 00:00:00 | |
| DL1XH1-15 | 2026-09-02 12:36:59 | 51.09543 | 8.07506 | 59° | 20km/h | 32279m | 6.1m/s | -39.5°C | 2.1% | 8.9hPa | 2.7V | 08:30:00 | 02:19:00 | 00:00:00 | |
| DL1XH-west | 2026-09-02 12:36:58 | 51.09549 | 8.07553 | 91° | 33km/h | 32297m | 4.8m/s | -39.3°C | 0% | 8.9hPa | 2.6V | 18:12:15 | 02:19:04 | 00:00:00 | |
| DL3AQ-11 | 2026-09-02 12:36:57 | 51.09547 | 8.07526 | 77° | 31km/h | 32289m | 3.7m/s | -39.6°C | 0.3% | 8.9hPa | 2.6V | 00:00:00 | 00:00:00 | 00:00:00 | |
| DM0DOS-11 | 2026-09-02 12:36:56 | 51.09536 | 8.07498 | 8° | 9km/h | 32262m | 4.3m/s | -39.3°C | 2.1% | 8.9hPa | 2.6V | 08:30:00 | 02:18:57 | 00:00:00 | |
| AA1-15 | 2026-09-02 12:36:53 | 51.09535 | 8.07498 | 9° | 11km/h | 32262m | 4.3m/s | -39.3°C | 0% | 8.9hPa | 2.6V | 18:12:15 | 02:18:57 | 00:00:00 | |
| HSKMA3-T | 2026-09-02 12:36:52 | 51.09538 | 8.07499 | 16° | 11km/h | 32267m | 5.4m/s | -39.4°C | 0% | 8.9hPa | 2.6V | 18:12:15 | 02:18:58 | 00:00:00 | |
| DF8AY | 2026-09-02 12:36:51 | 51.09533 | 8.07497 | 24° | 11km/h | 32258m | 4.8m/s | -39.2°C | 0% | 8.9hPa | 2.6V | 18:12:15 | 02:18:56 | 00:00:00 | |
| DL1NUX | 2026-09-02 12:36:50 | 51.09525 | 8.07471 | 79° | 26km/h | 32238m | 4.7m/s | -39.4°C | 2.1% | 9hPa | 2.6V | 08:30:00 | 02:18:52 | 00:00:00 | |
| DO2JMG | 2026-09-02 12:36:48 | 51.09528 | 8.07488 | 62° | 20km/h | 32248m | 4.8m/s | -39.2°C | 0% | 8.9hPa | 2.7V | 18:12:15 | 02:18:54 | 00:00:00 | |
| DL1XH1-15 | 2026-09-02 12:36:47 | 51.09523 | 8.07451 | 86° | 24km/h | 32227m | 5.5m/s | -39.2°C | 2% | 9hPa | 2.7V | 08:30:00 | 02:18:50 | 00:00:00 | |
| DL1XH-west | 2026-09-02 12:36:47 | 51.09526 | 8.07480 | 73° | 24km/h | 32243m | 4.7m/s | -39.3°C | 0% | 9hPa | 2.7V | 18:12:15 | 02:18:53 | 00:00:00 | |
| DL8DAS-14 | 2026-09-02 12:36:47 | 51.09524 | 8.07471 | 79° | 26km/h | 32238m | 4.7m/s | -39.4°C | 0.4% | 9.0hPa | 2.6V | 00:00:00 | 00:00:00 | 00:00:00 | |
| DL3AQ-11 | 2026-09-02 12:36:46 | 51.09523 | 8.07461 | 83° | 26km/h | 32233m | 5.6m/s | -39.4°C | 0.3% | 9.0hPa | 2.6V | 00:00:00 | 00:00:00 | 00:00:00 | |
| BIOWL1-15 | 2026-09-02 12:36:45 | 51.09520 | 8.07428 | 64° | 18km/h | 32213m | 4.4m/s | -39.3°C | 0% | 9hPa | 2.6V | 18:12:15 | 02:18:47 | 00:00:00 | |
| DM0DOS-11 | 2026-09-02 12:36:45 | 51.09520 | 8.07428 | 64° | 18km/h | 32213m | 4.4m/s | -39.2°C | 2.1% | 9hPa | 2.6V | 08:30:00 | 02:18:47 | 00:00:00 | |
| HSKMA3-T | 2026-09-02 12:36:42 | 51.09522 | 8.07435 | 77° | 18km/h | 32218m | 4.2m/s | -39.2°C | 0% | 9hPa | 2.6V | 18:12:15 | 02:18:48 | 00:00:00 | |
| DO9LL-15 | 2026-09-02 12:36:42 | 51.09522 | 8.07435 | 77° | 24km/h | 32218m | 4.2m/s | -39.1°C | 2.1% | 8.9hPa | 2.6V | 00:00:00 | 02:18:48 | 00:00:00 | |
| DL1NUX | 2026-09-02 12:36:41 | 51.09500 | 8.07392 | 41° | 24km/h | 32188m | 5.2m/s | -39.4°C | 2.1% | 9hPa | 2.6V | 08:30:00 | 02:18:42 | 00:00:00 | |
| DJ2DS-15 | 2026-09-02 12:36:40 | 51.09518 | 8.07421 | 55° | 24km/h | 32209m | 5.7m/s | -39.3°C | 2.1% | 9.0hPa | 2.6V | 00:00:00 | 02:18:46 | 00:00:00 | |
| DF8AY | 2026-09-02 12:36:40 | 51.09518 | 8.07421 | 55° | 22km/h | 32208m | 5.8m/s | -39.3°C | 0% | 9hPa | 2.7V | 18:12:15 | 02:18:46 | 00:00:00 | |
| DL1XH-15 | 2026-09-02 12:36:39 | 51.09496 | 8.07386 | 43° | 18km/h | 32182m | 5.7m/s | -39.4°C | 2.1% | 9.1hPa | 2.6V | 08:30:00 | 02:18:41 | 00:00:00 | |
| DL1XH-west | 2026-09-02 12:36:37 | 51.09504 | 8.07399 | 42° | 27km/h | 32193m | 4.1m/s | -39.5°C | 0% | 9.1hPa | 2.6V | 18:12:15 | 02:18:43 | 00:00:00 | |
| DL1XH1-15 | 2026-09-02 12:36:35 | 51.09493 | 8.07381 | 54° | 15km/h | 32177m | 4.9m/s | -39.3°C | 2.1% | 9.1hPa | 2.7V | 08:30:00 | 02:18:40 | 00:00:00 | |
| DM0DOS-11 | 2026-09-02 12:36:34 | 51.09489 | 8.07361 | 81° | 24km/h | 32162m | 5.9m/s | -39.4°C | 2% | 9.1hPa | 2.6V | 08:30:00 | 02:18:37 | 00:00:00 | |
| DO2JMG | 2026-09-02 12:36:33 | 51.09491 | 8.07376 | 69° | 15km/h | 32173m | 4.4m/s | -39.3°C | 0% | 9.1hPa | 2.7V | 18:12:15 | 02:18:39 | 00:00:00 | |
| HSKMA3-T | 2026-09-02 12:36:32 | 51.09490 | 8.07370 | 79° | 18km/h | 32168m | 4.7m/s | -39.3°C | 0% | 9.1hPa | 2.7V | 18:12:15 | 02:18:38 | 00:00:00 | |
| DF8AY | 2026-09-02 12:36:30 | 51.09487 | 8.07340 | 80° | 29km/h | 32152m | 4.6m/s | -39.3°C | 0% | 9.1hPa | 2.6V | 18:12:15 | 02:18:35 | 00:00:00 | |
| DL3AQ-11 | 2026-09-02 12:36:30 | 51.09487 | 8.07340 | 79° | 29km/h | 32152m | 4.6m/s | -39.3°C | 0.3% | 9.1hPa | 2.6V | 00:00:00 | 00:00:00 | 00:00:00 | |
| DD8BA-10 | 2026-09-02 12:36:29 | 51.09487 | 8.07340 | 80° | 26km/h | 32152m | 4.6m/s | -39.3°C | 2.0% | 9.0hPa | 2.6V | 00:00:00 | 00:00:00 | 00:00:00 | |
| DL1XH-15 | 2026-09-02 12:36:28 | 51.09480 | 8.07301 | 58° | 20km/h | 32132m | 4.5m/s | -39.4°C | 2% | 9.1hPa | 2.6V | 08:30:00 | 02:18:31 | 00:00:00 | |
| DL1XH-west | 2026-09-02 12:36:26 | 51.09482 | 8.07308 | 68° | 22km/h | 32137m | 5.3m/s | -39.4°C | 0% | 9.1hPa | 2.7V | 18:12:15 | 02:18:32 | 00:00:00 | |
| DJ3KS | 2026-09-02 12:36:26 | 51.09482 | 8.07308 | 69° | 22km/h | 32137m | 5.3m/s | -39.4°C | 0.4% | 9.1hPa | 2.6V | 00:00:00 | 00:00:00 | 00:00:00 | |
| BIOWL1-15 | 2026-09-02 12:36:22 | 51.09428 | 8.07146 | 32° | 26km/h | 32047m | 4.3m/s | -39.4°C | 0% | 9.2hPa | 2.6V | 18:12:15 | 02:18:14 | 00:00:00 | |
| HSKMA3-T | 2026-09-02 12:36:21 | 51.09462 | 8.07272 | 45° | 31km/h | 32111m | 4.9m/s | -39.6°C | 0% | 9.2hPa | 2.6V | 18:12:15 | 02:18:27 | 00:00:00 | |
| AA1-15 | 2026-09-02 12:36:19 | 51.09448 | 8.07238 | 80° | 22km/h | 32091m | 4.7m/s | -39.3°C | 0% | 9.2hPa | 2.7V | 18:12:15 | 02:18:23 | 00:00:00 | |
| DF8AY | 2026-09-02 12:36:19 | 51.09446 | 8.07195 | 79° | 33km/h | 32071m | 5.2m/s | -39.5°C | 0% | 9.2hPa | 2.7V | 18:12:15 | 02:18:19 | 00:00:00 | |
| DL1XH1-15 | 2026-09-02 12:36:18 | 51.09447 | 8.07207 | 86° | 29km/h | 32077m | 5.8m/s | -39.5°C | 2.1% | 9.2hPa | 2.6V | 08:30:00 | 02:18:20 | 00:00:00 | |
| DK9SH | 2026-09-02 12:36:17 | 51.09450 | 8.07246 | 68° | 24km/h | 32097m | 5.7m/s | -39.4°C | 0.4% | 9.2hPa | 2.6V | 00:00:00 | 00:00:00 | 00:00:00 | |
| DL1XH-15 | 2026-09-02 12:36:16 | 51.09447 | 8.07219 | 89° | 27km/h | 32082m | 4.7m/s | -39.5°C | 2% | 9.2hPa | 2.6V | 08:30:00 | 02:18:21 | 00:00:00 | |
| DO2JMG | 2026-09-02 12:36:16 | 51.09448 | 8.07229 | 89° | 24km/h | 32087m | 4.2m/s | -39.4°C | 0% | 9.2hPa | 2.6V | 18:12:15 | 02:18:22 | 00:00:00 | |
| HSKMA3-T | 2026-09-02 12:36:10 | 51.09437 | 8.07160 | 54° | 27km/h | 32057m | 5.7m/s | -39.3°C | 0% | 9.2hPa | 2.6V | 18:12:15 | 02:18:16 | 00:00:00 | |
| DO2JMG | 2026-09-02 12:36:06 | 51.09416 | 8.07135 | 32° | 27km/h | 32038m | 5.5m/s | -39.4°C | 0% | 9.2hPa | 2.7V | 18:12:15 | 02:18:12 | 00:00:00 | |
| DL3AQ-11 | 2026-09-02 12:36:06 | 51.09410 | 8.07129 | 39° | 29km/h | 32032m | 5.3m/s | -39.4°C | 0.4% | 9.2hPa | 2.7V | 00:00:00 | 00:00:00 | 00:00:00 | |
| DL1XH1-15 | 2026-09-02 12:36:05 | 51.09405 | 8.07120 | 48° | 29km/h | 32027m | 4.5m/s | -39.2°C | 2% | 9.2hPa | 2.6V | 08:30:00 | 02:18:10 | 00:00:00 | |
| DL1XH-west | 2026-09-02 12:36:05 | 51.09410 | 8.07129 | 40° | 29km/h | 32032m | 5.3m/s | -39.4°C | 0% | 9.2hPa | 2.7V | 18:12:15 | 02:18:11 | 00:00:00 | |
| DM0DOS-11 | 2026-09-02 12:36:03 | 51.09397 | 8.07092 | 83° | 24km/h | 32012m | 5.9m/s | -39.3°C | 2% | 9.3hPa | 2.7V | 08:30:00 | 02:18:07 | 00:00:00 | |
| HSKMA3-T | 2026-09-02 12:36:00 | 51.09397 | 8.07083 | 96° | 22km/h | 32006m | 4.9m/s | -39.3°C | 0% | 9.3hPa | 2.7V | 18:12:15 | 02:18:06 | 00:00:00 | |
| DL4XJ-10 | 2026-09-02 12:36:00 | 51.09397 | 8.07083 | 96° | 20km/h | 32007m | 4.8m/s | -39.0°C | 0% | 0hPa | 2.6V | 00:00:00 | 00:00:00 | 00:00:00 | |
| DL1XH1-15 | 2026-09-02 12:35:59 | 51.09383 | 8.07023 | 38° | 35km/h | 31979m | 4.5m/s | -39.5°C | 2.1% | 9.3hPa | 2.6V | 08:30:00 | 02:18:00 | 00:00:00 | |
| DD8BA-10 | 2026-09-02 12:35:59 | 51.09397 | 8.07074 | 97° | 27km/h | 32002m | 3.5m/s | -39.2°C | 2.0% | 9.3hPa | 2.7V | 00:00:00 | 00:00:00 | 00:00:00 | |
| DL1NUX | 2026-09-02 12:35:58 | 51.09394 | 8.07043 | 62° | 31km/h | 31988m | 5.4m/s | -39.4°C | 2% | 9.3hPa | 2.7V | 08:30:00 | 02:18:02 | 00:00:00 | |
| AA1-15 | 2026-09-02 12:35:55 | 51.09389 | 8.07033 | 49° | 35km/h | 31984m | 4.7m/s | -39.5°C | 0% | 9.3hPa | 2.7V | 18:12:15 | 02:18:01 | 00:00:00 | |
| DF8AY | 2026-09-02 12:35:54 | 51.09383 | 8.07023 | 39° | 35km/h | 31979m | 4.5m/s | -39.5°C | 0% | 9.3hPa | 2.6V | 18:12:15 | 02:18:00 | 00:00:00 | |
| SONCRA | 2026-09-02 12:35:54 | 51.09383 | 8.07023 | 38° | 35km/h | 31979m | 4.5m/s | -39.5°C | 0.4% | 9.3hPa | 2.7V | 00:00:00 | 00:00:00 | 00:00:00 | |
| GOEST3-10 | 2026-09-02 12:35:53 | 51.09376 | 8.07015 | 30° | 24km/h | 31975m | 4.8m/s | -39.3°C | 2.0% | 9.3hPa | 2.7V | 00:00:00 | 00:00:00 | 00:00:00 | |
| DM0DOS-11 | 2026-09-02 12:35:51 | 51.09362 | 8.07006 | 15° | 24km/h | 31963m | 5.2m/s | -39.1°C | 2% | 9.3hPa | 2.7V | 08:30:00 | 02:17:57 | 00:00:00 | |
| HSKMA3-T | 2026-09-02 12:35:50 | 51.09357 | 8.07004 | 15° | 16km/h | 31959m | 4.3m/s | -39.2°C | 0% | 9.4hPa | 2.7V | 18:12:15 | 02:17:56 | 00:00:00 | |
| DO2JMG | 2026-09-02 12:35:49 | 51.09354 | 8.07002 | 32° | 13km/h | 31955m | 3.8m/s | -39.2°C | 0% | 9.4hPa | 2.6V | 18:12:15 | 02:17:55 | 00:00:00 | |
| DD8BA-10 | 2026-09-02 12:35:49 | 51.09354 | 8.07002 | 32° | 26km/h | 31955m | 3.8m/s | -39.1°C | 2.0% | 9.3hPa | 2.6V | 00:00:00 | 00:00:00 | 08:30:00 | |
| DL1XH1-15 | 2026-09-02 12:35:48 | 51.09343 | 8.06960 | 66° | 35km/h | 31930m | 4.3m/s | -39.3°C | 2% | 9.4hPa | 2.7V | 08:30:00 | 02:17:50 | 00:00:00 | |
| DO3MHA-12 | 2026-09-02 12:35:47 | 51.09350 | 8.06992 | 69° | 31km/h | 31946m | 5.7m/s | -39.2°C | 2.0% | 9.3hPa | 2.7V | 00:00:00 | 02:17:53 | 00:00:00 | |
| DM0DOS-11 | 2026-09-02 12:35:46 | 51.09322 | 8.06925 | 19° | 31km/h | 31910m | 5.1m/s | -39.5°C | 2% | 9.4hPa | 2.7V | 08:30:00 | 02:17:46 | 00:00:00 | |
| BIOWL1-15 | 2026-09-02 12:35:46 | 51.09348 | 8.06984 | 72° | 27km/h | 31940m | 6m/s | -39.3°C | 0% | 9.4hPa | 2.7V | 18:12:15 | 02:17:52 | 00:00:00 | |
| BIOWL9-15 | 2026-09-02 12:35:46 | 51.09346 | 8.06972 | 71° | 31km/h | 31935m | 5.1m/s | -39.4°C | 0.3% | 9.4hPa | 2.6V | 00:00:00 | 00:00:00 | 00:00:00 | |
| DL8DAS-14 | 2026-09-02 12:35:45 | 51.09343 | 8.06960 | 66° | 33km/h | 31930m | 4.3m/s | -39.3°C | 0.3% | 9.4hPa | 2.6V | 00:00:00 | 00:00:00 | 00:00:00 | |
| DF8AY | 2026-09-02 12:35:44 | 51.09328 | 8.06930 | 33° | 29km/h | 31915m | 4.6m/s | -39.4°C | 0% | 9.4hPa | 2.6V | 18:12:15 | 02:17:47 | 00:00:00 | |
| DL4BBY-15 | 2026-09-02 12:35:44 | 51.09343 | 8.06960 | 67° | 24km/h | 31931m | 4.2m/s | -39.0°C | 0% | 0hPa | 2.6V | 00:00:00 | 00:00:00 | 00:00:00 | |
| GOEST3-10 | 2026-09-02 12:35:43 | 51.09339 | 8.06948 | 60° | 31km/h | 31925m | 5.0m/s | -39.2°C | 2.0% | 9.3hPa | 2.6V | 00:00:00 | 00:00:00 | 00:00:00 | |
| DD1CC1-15 | 2026-09-02 12:35:42 | 51.09334 | 8.06938 | 49° | 29km/h | 31920m | 5.0m/s | -39.3°C | 0.3% | 9.4hPa | 2.6V | 00:00:00 | 00:00:00 | 00:00:00 | |
| DL1XH-15 | 2026-09-02 12:35:41 | 51.09283 | 8.06913 | 16° | 20km/h | 31886m | 4.6m/s | -39.5°C | 2% | 9.5hPa | 2.6V | 08:30:00 | 02:17:41 | 00:00:00 | |
| HSKMA3-T | 2026-09-02 12:35:39 | 51.09314 | 8.06921 | 13° | 33km/h | 31905m | 5.9m/s | -39.6°C | 0% | 9.4hPa | 2.7V | 18:12:15 | 02:17:45 | 00:00:00 | |
| DL4XJ-10 | 2026-09-02 12:35:39 | 51.09314 | 8.06921 | 13° | 31km/h | 31905m | 5.8m/s | -39.3°C | 0% | 0hPa | 2.6V | 00:00:00 | 00:00:00 | 00:00:00 | |
| DL1NUX | 2026-09-02 12:35:38 | 51.09290 | 8.06915 | 10° | 27km/h | 31890m | 4m/s | -39.5°C | 2% | 9.4hPa | 2.6V | 08:30:00 | 02:17:42 | 00:00:00 | |
| DO3MHA-11 | 2026-09-02 12:35:38 | 51.09305 | 8.06919 | 9° | 22km/h | 31899m | 5.6m/s | -39.6°C | 2.0% | 9.4hPa | 2.7V | 00:00:00 | 02:17:44 | 00:00:00 | |
| DL3AQ-11 | 2026-09-02 12:35:37 | 51.09289 | 8.06915 | 10° | 27km/h | 31890m | 4.0m/s | -39.5°C | 0.4% | 9.4hPa | 2.7V | 00:00:00 | 00:00:00 | 00:00:00 | |
| BIOWL1-15 | 2026-09-02 12:35:36 | 51.09202 | 8.06805 | 56° | 18km/h | 31775m | 5.1m/s | -40.2°C | 0% | 9.6hPa | 2.7V | 18:12:15 | 02:17:19 | 00:00:00 | |
| DM0DOS-11 | 2026-09-02 12:35:35 | 51.09276 | 8.06896 | 77° | 18km/h | 31865m | 3.2m/s | -39.6°C | 2% | 9.5hPa | 2.6V | 08:30:00 | 02:17:37 | 00:00:00 | |
| DF8AY | 2026-09-02 12:35:34 | 51.09276 | 8.06902 | 83° | 13km/h | 31869m | 4.3m/s | -39.6°C | 0% | 9.5hPa | 2.7V | 18:12:15 | 02:17:38 | 00:00:00 | |
| AA1-15 | 2026-09-02 12:35:32 | 51.09274 | 8.06888 | 67° | 24km/h | 31861m | 5.1m/s | -39.5°C | 0% | 9.5hPa | 2.6V | 18:12:15 | 02:17:36 | 00:00:00 | |
| HSKMA3-T | 2026-09-02 12:35:30 | 51.09271 | 8.06878 | 55° | 31km/h | 31856m | 6m/s | -39.5°C | 0% | 9.5hPa | 2.7V | 18:12:15 | 02:17:35 | 00:00:00 | |
| DL1XH1-15 | 2026-09-02 12:35:30 | 51.09232 | 8.06840 | 10° | 29km/h | 31831m | 5.3m/s | -39.6°C | 2% | 9.5hPa | 2.7V | 08:30:00 | 02:17:30 | 00:00:00 | |
| DF8AY | 2026-09-02 12:35:23 | 51.09225 | 8.06839 | 358° | 20km/h | 31826m | 5.2m/s | -39.6°C | 0% | 9.6hPa | 2.7V | 18:12:15 | 02:17:29 | 00:00:00 | |
| DM0DOS-11 | 2026-09-02 12:35:23 | 51.09219 | 8.06841 | 340° | 9km/h | 31816m | 4.9m/s | -39.8°C | 2.1% | 9.5hPa | 2.6V | 08:30:00 | 02:17:27 | 00:00:00 | |
| DO2JMG | 2026-09-02 12:35:22 | 51.09221 | 8.06840 | 345° | 15km/h | 31821m | 5.2m/s | -39.7°C | 0% | 9.6hPa | 2.6V | 18:12:15 | 02:17:28 | 00:00:00 | |
| AA1-15 | 2026-09-02 12:35:21 | 51.09218 | 8.06841 | 341° | 9km/h | 31816m | 4.9m/s | -39.8°C | 0% | 9.5hPa | 2.6V | 18:12:15 | 02:17:27 | 00:00:00 | |
| HSKMA3-T | 2026-09-02 12:35:19 | 51.09214 | 8.06837 | 57° | 13km/h | 31800m | 5m/s | -39.8°C | 0% | 9.6hPa | 2.7V | 18:12:15 | 02:17:24 | 00:00:00 | |
| DL1NUX | 2026-09-02 12:35:19 | 51.09209 | 8.06825 | 60° | 20km/h | 31791m | 4.5m/s | -39.9°C | 2% | 9.6hPa | 2.6V | 08:30:00 | 02:17:22 | 00:00:00 | |
| DF8AY | 2026-09-02 12:35:14 | 51.09196 | 8.06794 | 44° | 18km/h | 31765m | 4.9m/s | -40.1°C | 0% | 9.6hPa | 2.7V | 18:12:15 | 02:17:17 | 00:00:00 | |
| DM0DOS-11 | 2026-09-02 12:35:13 | 51.09196 | 8.06794 | 43° | 18km/h | 31765m | 4.9m/s | -40.1°C | 2.1% | 9.6hPa | 2.7V | 08:30:00 | 02:17:17 | 00:00:00 | |
| DL1XH-west | 2026-09-02 12:35:13 | 51.09199 | 8.06799 | 51° | 18km/h | 31770m | 4.9m/s | -40.1°C | 0% | 9.6hPa | 2.7V | 18:12:15 | 02:17:18 | 00:00:00 | |
| DO9LL-15 | 2026-09-02 12:35:12 | 51.09199 | 8.06799 | 51° | 15km/h | 31771m | 4.8m/s | -40.0°C | 2.1% | 9.6hPa | 2.7V | 00:00:00 | 02:17:18 | 00:00:00 | |
| DL1NUX | 2026-09-02 12:35:11 | 51.09177 | 8.06775 | 12° | 11km/h | 31740m | 6m/s | -40.4°C | 2.1% | 9.7hPa | 2.7V | 08:30:00 | 02:17:12 | 00:00:00 | |
| DO2JMG | 2026-09-02 12:35:10 | 51.09192 | 8.06789 | 38° | 20km/h | 31760m | 5.9m/s | -40.2°C | 0% | 9.6hPa | 2.6V | 18:12:15 | 02:17:16 | 00:00:00 | |
| BIOWL1-15 | 2026-09-02 12:35:10 | 51.09188 | 8.06784 | 34° | 22km/h | 31754m | 5.3m/s | -40.3°C | 0% | 9.6hPa | 2.6V | 18:12:15 | 02:17:15 | 00:00:00 | |
| HSKMA3-T | 2026-09-02 12:35:07 | 51.09180 | 8.06776 | 23° | 15km/h | 31745m | 4.1m/s | -40.3°C | 0% | 9.7hPa | 2.7V | 18:12:15 | 02:17:13 | 00:00:00 | |
| DL1XH-west | 2026-09-02 12:35:03 | 51.09155 | 8.06756 | 39° | 26km/h | 31697m | 4.7m/s | -40.6°C | 0% | 9.7hPa | 2.7V | 18:12:15 | 02:17:04 | 00:00:00 | |
| DF8AY | 2026-09-02 12:35:01 | 51.09168 | 8.06773 | 35° | 15km/h | 31713m | 6.2m/s | -40.7°C | 0% | 9.7hPa | 2.7V | 18:12:15 | 02:17:07 | 00:00:00 | |
| DL1NUX | 2026-09-02 12:35:01 | 51.09146 | 8.06745 | 34° | 18km/h | 31686m | 5.8m/s | -40.9°C | 2.2% | 9.7hPa | 2.7V | 08:30:00 | 02:17:02 | 00:00:00 | |
| DO3MHA-11 | 2026-09-02 12:35:01 | 51.09168 | 8.06773 | 36° | 16km/h | 31714m | 6.1m/s | -40.6°C | 2.2% | 9.7hPa | 2.6V | 00:00:00 | 02:17:07 | 00:00:00 | |
| DJ2DS-15 | 2026-09-02 12:35:00 | 51.09164 | 8.06768 | 39° | 16km/h | 31708m | 5.5m/s | -40.7°C | 2.1% | 9.7hPa | 2.6V | 00:00:00 | 02:17:06 | 00:00:00 | |
| AA1-15 | 2026-09-02 12:35:00 | 51.09160 | 8.06762 | 40° | 26km/h | 31702m | 4.8m/s | -40.6°C | 0% | 9.7hPa | 2.6V | 18:12:15 | 02:17:05 | 00:00:00 | |
| DL1XH-15 | 2026-09-02 12:34:59 | 51.09142 | 8.06742 | 26° | 13km/h | 31681m | 5.2m/s | -40.9°C | 2.2% | 9.7hPa | 2.6V | 08:30:00 | 02:17:01 | 00:00:00 | |
| BIOWL1-15 | 2026-09-02 12:34:58 | 51.09123 | 8.06721 | 43° | 13km/h | 31628m | 4.6m/s | -41°C | 0% | 9.8hPa | 2.7V | 18:12:15 | 02:16:51 | 00:00:00 | |
| DL1XH1-15 | 2026-09-02 12:34:58 | 51.09138 | 8.06739 | 12° | 9km/h | 31671m | 5.1m/s | -40.8°C | 2.2% | 9.8hPa | 2.6V | 08:30:00 | 02:16:59 | 00:00:00 | |
| DO2JMG | 2026-09-02 12:34:57 | 51.09150 | 8.06750 | 37° | 24km/h | 31692m | 5.6m/s | -40.8°C | 0% | 9.7hPa | 2.7V | 18:12:15 | 02:17:03 | 00:00:00 | |
| DL1XH-west | 2026-09-02 12:34:53 | 51.09136 | 8.06738 | 16° | 9km/h | 31665m | 6.2m/s | -40.9°C | 0% | 9.8hPa | 2.7V | 18:12:15 | 02:16:58 | 00:00:00 | |
| SO1NDE-10 | 2026-09-02 12:34:52 | 51.09136 | 8.06738 | 17° | 15km/h | 31666m | 6.2m/s | -40.8°C | 2.2% | 9.7hPa | 2.7V | 00:00:00 | 02:16:58 | 00:00:00 | |
| DL1NUX | 2026-09-02 12:34:51 | 51.09125 | 8.06724 | 51° | 9km/h | 31632m | 4.3m/s | -40.9°C | 2.2% | 9.8hPa | 2.7V | 08:30:00 | 02:16:52 | 00:00:00 | |
| DF8AY | 2026-09-02 12:34:50 | 51.09125 | 8.06724 | 52° | 9km/h | 31632m | 4.3m/s | -40.9°C | 0% | 9.8hPa | 2.7V | 18:12:15 | 02:16:52 | 00:00:00 | |
| AA1-15 | 2026-09-02 12:34:49 | 51.09129 | 8.06732 | 44° | 9km/h | 31649m | 5.3m/s | -40.9°C | 0% | 9.8hPa | 2.6V | 18:12:15 | 02:16:55 | 00:00:00 | |
| DD8BA-10 | 2026-09-02 12:34:49 | 51.09129 | 8.06732 | 44° | 16km/h | 31649m | 5.3m/s | -40.9°C | 2.2% | 9.7hPa | 2.6V | 00:00:00 | 00:00:00 | 00:00:00 | |
| DL1XH1-15 | 2026-09-02 12:34:48 | 51.09116 | 8.06712 | 33° | 24km/h | 31616m | 6.4m/s | -41°C | 2.2% | 9.8hPa | 2.6V | 08:30:00 | 02:16:49 | 00:00:00 | |
| DL1XH-15 | 2026-09-02 12:34:48 | 51.09123 | 8.06721 | 42° | 13km/h | 31628m | 4.6m/s | -41°C | 2.2% | 9.8hPa | 2.7V | 08:30:00 | 02:16:51 | 00:00:00 | |
| DO2JMG | 2026-09-02 12:34:48 | 51.09127 | 8.06727 | 58° | 7km/h | 31637m | 5.3m/s | -40.8°C | 0% | 9.8hPa | 2.6V | 18:12:15 | 02:16:53 | 00:00:00 | |
| DL3AQ-11 | 2026-09-02 12:34:46 | 51.09123 | 8.06721 | 42° | 13km/h | 31628m | 4.6m/s | -41.0°C | 0.4% | 9.8hPa | 2.6V | 00:00:00 | 00:00:00 | 00:00:00 | |
| BIOWL1-15 | 2026-09-02 12:34:45 | 51.09105 | 8.06702 | 27° | 24km/h | 31605m | 4.8m/s | -41°C | 0% | 9.9hPa | 2.6V | 18:12:15 | 02:16:47 | 00:00:00 | |
| BUE01 | 2026-09-02 12:34:45 | 51.09123 | 8.06721 | 42° | 13km/h | 31628m | 4.6m/s | -41.0°C | 0.4% | 9.8hPa | 2.6V | 00:00:00 | 00:00:00 | 00:00:00 | |
| DL1XH-west | 2026-09-02 12:34:42 | 51.09111 | 8.06707 | 29° | 26km/h | 31610m | 5.3m/s | -41°C | 0% | 9.9hPa | 2.6V | 18:12:15 | 02:16:48 | 00:00:00 | |
| DF8AY | 2026-09-02 12:34:40 | 51.09095 | 8.06691 | 115° | 9km/h | 31573m | 5.8m/s | -41.2°C | 0% | 9.9hPa | 2.6V | 18:12:15 | 02:16:41 | 00:00:00 | |
| DJ2DS-15 | 2026-09-02 12:34:40 | 51.09100 | 8.06699 | 24° | 15km/h | 31600m | 4.9m/s | -41.1°C | 2.2% | 9.8hPa | 2.6V | 00:00:00 | 02:16:46 | 00:00:00 | |
| DL1XH-15 | 2026-09-02 12:34:39 | 51.09095 | 8.06691 | 114° | 9km/h | 31573m | 5.8m/s | -41.2°C | 2.3% | 9.9hPa | 2.6V | 08:30:00 | 02:16:41 | 00:00:00 | |
| AA1-15 | 2026-09-02 12:34:39 | 51.09094 | 8.06695 | 19° | 5km/h | 31588m | 5.9m/s | -41.2°C | 0% | 9.9hPa | 2.7V | 18:12:15 | 02:16:44 | 00:00:00 | |
| HSKMA3-T | 2026-09-02 12:34:36 | 51.09094 | 8.06693 | 134° | 5km/h | 31578m | 4.5m/s | -41.2°C | 0% | 9.9hPa | 2.6V | 18:12:15 | 02:16:42 | 00:00:00 | |
| BIOWL1-15 | 2026-09-02 12:34:31 | 51.09092 | 8.06661 | 68° | 26km/h | 31550m | 5m/s | -41°C | 0% | 9.9hPa | 2.6V | 18:12:15 | 02:16:37 | 00:00:00 | |
| AA1-15 | 2026-09-02 12:34:29 | 51.09085 | 8.06639 | 47° | 15km/h | 31532m | 5.3m/s | -41.2°C | 0% | 10hPa | 2.7V | 18:12:15 | 02:16:34 | 00:00:00 | |
| DD8BA-10 | 2026-09-02 12:34:29 | 51.09087 | 8.06645 | 57° | 16km/h | 31538m | 6.2m/s | -41.1°C | 2.3% | 9.9hPa | 2.7V | 00:00:00 | 00:00:00 | 00:00:00 | |
| DL9SK-14 | 2026-09-02 12:34:28 | 51.09082 | 8.06635 | 37° | 13km/h | 31527m | 4.8m/s | -41.3°C | 0.4% | 10.0hPa | 2.7V | 00:00:00 | 00:00:00 | 00:00:00 | |
| DL1XH-15 | 2026-09-02 12:34:27 | 51.09076 | 8.06629 | 32° | 15km/h | 31516m | 6.5m/s | -41.2°C | 2.3% | 10hPa | 2.7V | 08:30:00 | 02:16:31 | 00:00:00 | |
| DL1NUX | 2026-09-02 12:34:27 | 51.09079 | 8.06632 | 32° | 13km/h | 31522m | 5.2m/s | -41.3°C | 2.3% | 10hPa | 2.6V | 08:30:00 | 02:16:32 | 00:00:00 | |
| DO2JMG | 2026-09-02 12:34:26 | 51.09079 | 8.06632 | 33° | 13km/h | 31522m | 5.2m/s | -41.3°C | 0% | 0hPa | 2.6V | 18:12:15 | 02:16:32 | 00:00:00 | |
| HSKMA3-T | 2026-09-02 12:34:25 | 51.09076 | 8.06629 | 33° | 15km/h | 31516m | 6.5m/s | -41.2°C | 0% | 10hPa | 2.7V | 18:12:15 | 02:16:31 | 00:00:00 | |
| BIOWL1-15 | 2026-09-02 12:34:22 | 51.09061 | 8.06606 | 62° | 13km/h | 31488m | 6.6m/s | -41°C | 0% | 10hPa | 2.6V | 18:12:15 | 02:16:26 | 00:00:00 | |
| DL1XH-west | 2026-09-02 12:34:22 | 51.09066 | 8.06616 | 46° | 18km/h | 31499m | 5.1m/s | -41°C | 0% | 10hPa | 2.6V | 18:12:15 | 02:16:28 | 00:00:00 | |
| SONCRA | 2026-09-02 12:34:22 | 51.09063 | 8.06611 | 52° | 15km/h | 31494m | 5.2m/s | -41.0°C | 0.4% | 10.0hPa | 2.6V | 00:00:00 | 00:00:00 | 00:00:00 | |
| DL1NUX | 2026-09-02 12:34:21 | 51.09058 | 8.06590 | 65° | 15km/h | 31465m | 5.9m/s | -41.2°C | 2.3% | 10.1hPa | 2.6V | 08:30:00 | 02:16:22 | 00:00:00 | |
| DB0NH | 2026-09-02 12:34:21 | 51.09063 | 8.06611 | 53° | 20km/h | 31494m | 5.2m/s | -41.0°C | 2.3% | 10.0hPa | 2.6V | 00:00:00 | 02:16:27 | 00:00:00 | |
| DJ2DS-15 | 2026-09-02 12:34:20 | 51.09061 | 8.06606 | 62° | 18km/h | 31488m | 6.6m/s | -41.0°C | 2.3% | 10.0hPa | 2.6V | 00:00:00 | 02:16:26 | 00:00:00 | |
| DL1XH-15 | 2026-09-02 12:34:19 | 51.09056 | 8.06583 | 56° | 20km/h | 31458m | 7m/s | -41.2°C | 2.3% | 10.1hPa | 2.6V | 08:30:00 | 02:16:21 | 00:00:00 | |
| AA1-15 | 2026-09-02 12:34:18 | 51.09059 | 8.06595 | 79° | 11km/h | 31470m | 4.8m/s | -41.2°C | 0% | 10.1hPa | 2.7V | 18:12:15 | 02:16:23 | 00:00:00 | |
| DO2JMG | 2026-09-02 12:34:15 | 51.09056 | 8.06584 | 56° | 20km/h | 31458m | 7m/s | -41.2°C | 0% | 0hPa | 2.6V | 18:12:15 | 02:16:21 | 00:00:00 | |
| DL1XH-west | 2026-09-02 12:34:12 | 51.09043 | 8.06560 | 46° | 27km/h | 31441m | 5m/s | -41°C | 0% | 10.1hPa | 2.7V | 18:12:15 | 02:16:18 | 00:00:00 | |
| BIOWL1-15 | 2026-09-02 12:34:10 | 51.09031 | 8.06526 | 75° | 13km/h | 31406m | 6.3m/s | -41.2°C | 0% | 10.2hPa | 2.7V | 18:12:15 | 02:16:12 | 00:00:00 | |
| AA1-15 | 2026-09-02 12:34:08 | 51.09032 | 8.06531 | 83° | 11km/h | 31412m | 5.2m/s | -41.2°C | 0% | 10.2hPa | 2.7V | 18:12:15 | 02:16:13 | 00:00:00 | |
| DL1XH-15 | 2026-09-02 12:34:08 | 51.09030 | 8.06520 | 64° | 16km/h | 31400m | 6.5m/s | -41.2°C | 2.2% | 10.2hPa | 2.7V | 08:30:00 | 02:16:11 | 00:00:00 | |
| HSKMA3-T | 2026-09-02 12:34:05 | 51.09030 | 8.06520 | 65° | 18km/h | 31400m | 6.5m/s | -41.2°C | 0% | 10.2hPa | 2.7V | 18:12:15 | 02:16:11 | 00:00:00 | |
| DL1XH-west | 2026-09-02 12:34:01 | 51.09018 | 8.06491 | 55° | 22km/h | 31375m | 6.3m/s | -41.1°C | 0% | 10.2hPa | 2.7V | 18:12:15 | 02:16:07 | 00:00:00 | |
| DO3MHA-11 | 2026-09-02 12:34:01 | 51.09018 | 8.06491 | 56° | 26km/h | 31376m | 6.3m/s | -41.1°C | 2.2% | 10.2hPa | 2.7V | 00:00:00 | 02:16:07 | 00:00:00 | |
| DL1XH-15 | 2026-09-02 12:34:00 | 51.08997 | 8.06440 | 65° | 29km/h | 31340m | 5.8m/s | -41.2°C | 2.1% | 10.3hPa | 2.7V | 08:30:00 | 02:16:01 | 00:00:00 | |
| BIOWL1-15 | 2026-09-02 12:33:59 | 51.09004 | 8.06460 | 56° | 27km/h | 31352m | 6.8m/s | -41.1°C | 0% | 10.2hPa | 2.6V | 18:12:15 | 02:16:03 | 00:00:00 | |
| DF8AY | 2026-09-02 12:33:58 | 51.08993 | 8.06410 | 94° | 22km/h | 31321m | 5.9m/s | -41.3°C | 0% | 10.3hPa | 2.7V | 18:12:15 | 02:15:58 | 00:00:00 | |
| AA1-15 | 2026-09-02 12:33:56 | 51.09000 | 8.06450 | 60° | 29km/h | 31346m | 5.9m/s | -41.1°C | 0% | 10.3hPa | 2.7V | 18:12:15 | 02:16:02 | 00:00:00 | |
| DJ2KF-10 | 2026-09-02 12:33:55 | 51.08997 | 8.06440 | 66° | 26km/h | 31340m | 5.8m/s | -41.1°C | 2.1% | 10.2hPa | 2.6V | 00:00:00 | 02:16:01 | 00:00:00 | |
| HSKMA3-T | 2026-09-02 12:33:55 | 51.08997 | 8.06440 | 66° | 29km/h | 31340m | 5.8m/s | -41.2°C | 0% | 10.3hPa | 2.7V | 18:12:15 | 02:16:01 | 00:00:00 | |
| DL1XH1-15 | 2026-09-02 12:33:54 | 51.08993 | 8.06419 | 84° | 24km/h | 31327m | 7m/s | -41.3°C | 2.2% | 10.3hPa | 2.6V | 08:30:00 | 02:15:59 | 00:00:00 | |
| DL1XH-west | 2026-09-02 12:33:51 | 51.08994 | 8.06402 | 94° | 20km/h | 31315m | 4.5m/s | -41.3°C | 0% | 10.3hPa | 2.7V | 18:12:15 | 02:15:57 | 00:00:00 | |
| DO2JMG | 2026-09-02 12:33:50 | 51.08993 | 8.06394 | 81° | 20km/h | 31311m | 4.8m/s | 0°C | 0% | 0hPa | 2.6V | 18:12:15 | 02:15:56 | 00:00:00 | |
| DL3AQ-11 | 2026-09-02 12:33:50 | 51.08992 | 8.06386 | 65° | 20km/h | 31305m | 6.6m/s | -41.3°C | 0.4% | 10.3hPa | 2.6V | 00:00:00 | 00:00:00 | 00:00:00 | |
| DL1XH1-15 | 2026-09-02 12:33:49 | 51.08959 | 8.06351 | 32° | 22km/h | 31268m | 5.8m/s | -40.9°C | 2.1% | 10.4hPa | 2.6V | 08:30:00 | 02:15:49 | 00:00:00 | |
| GOEST3-10 | 2026-09-02 12:33:48 | 51.08989 | 8.06379 | 48° | 27km/h | 31299m | 6.8m/s | -41.3°C | 2.2% | 10.3hPa | 2.7V | 00:00:00 | 02:15:54 | 00:00:00 | |
| DL1XH-15 | 2026-09-02 12:33:47 | 51.08971 | 8.06360 | 26° | 29km/h | 31280m | 6.4m/s | -41.1°C | 2.2% | 10.4hPa | 2.6V | 08:30:00 | 02:15:51 | 00:00:00 | |
| BIOWL1-15 | 2026-09-02 12:33:47 | 51.08984 | 8.06372 | 35° | 29km/h | 31292m | 6m/s | -41.3°C | 0% | 10.3hPa | 2.7V | 18:12:15 | 02:15:53 | 00:00:00 | |
| AA1-15 | 2026-09-02 12:33:45 | 51.08971 | 8.06360 | 26° | 29km/h | 31280m | 6.4m/s | -41.1°C | 0% | 10.4hPa | 2.6V | 18:12:15 | 02:15:51 | 00:00:00 | |
| HSKMA3-T | 2026-09-02 12:33:44 | 51.08965 | 8.06355 | 26° | 26km/h | 31274m | 6.5m/s | -41°C | 0% | 10.4hPa | 2.6V | 18:12:15 | 02:15:50 | 00:00:00 | |
| DL4BBY-15 | 2026-09-02 12:33:44 | 51.08964 | 8.06355 | 27° | 26km/h | 31274m | 6.5m/s | -40.7°C | 0% | 0hPa | 2.7V | 00:00:00 | 00:00:00 | 00:00:00 | |
| GOEST3-10 | 2026-09-02 12:33:43 | 51.08959 | 8.06351 | 33° | 22km/h | 31268m | 5.7m/s | -40.8°C | 2.1% | 10.3hPa | 2.7V | 00:00:00 | 00:00:00 | 00:00:00 | |
| DM0DOS-11 | 2026-09-02 12:33:42 | 51.08952 | 8.06339 | 57° | 20km/h | 31257m | 5.3m/s | -41°C | 2.1% | 10.4hPa | 2.7V | 08:30:00 | 02:15:47 | 00:00:00 | |
| BIOWL9-15 | 2026-09-02 12:33:42 | 51.08952 | 8.06339 | 57° | 20km/h | 31257m | 5.3m/s | -41.0°C | 0.4% | 10.4hPa | 2.7V | 00:00:00 | 00:00:00 | 00:00:00 | |
| DL1NUX | 2026-09-02 12:33:41 | 51.08938 | 8.06290 | 63° | 27km/h | 31226m | 5.5m/s | -40.9°C | 2.1% | 10.4hPa | 2.7V | 08:30:00 | 02:15:42 | 00:00:00 | |
| DL1XH-west | 2026-09-02 12:33:40 | 51.08950 | 8.06332 | 65° | 24km/h | 31251m | 6m/s | -41.1°C | 0% | 10.4hPa | 2.7V | 18:12:15 | 02:15:46 | 00:00:00 | |
| BIOWL1-15 | 2026-09-02 12:33:36 | 51.08938 | 8.06290 | 64° | 27km/h | 31226m | 5.5m/s | -40.9°C | 0% | 10.4hPa | 2.7V | 18:12:15 | 02:15:42 | 00:00:00 | |
| DO2JMG | 2026-09-02 12:33:35 | 51.08935 | 8.06281 | 58° | 22km/h | 31220m | 6.5m/s | 0°C | 0% | 0hPa | 2.7V | 18:12:15 | 02:15:41 | 00:00:00 | |
| HSKMA3-T | 2026-09-02 12:33:34 | 51.08932 | 8.06276 | 41° | 16km/h | 31214m | 6m/s | -41°C | 0% | 10.5hPa | 2.7V | 18:12:15 | 02:15:40 | 00:00:00 | |
| GOEST3-10 | 2026-09-02 12:33:33 | 51.08928 | 8.06272 | 18° | 26km/h | 31209m | 5.3m/s | -41.1°C | 2.2% | 10.4hPa | 2.6V | 00:00:00 | 00:00:00 | 00:00:00 | |
| DM0DOS-11 | 2026-09-02 12:33:32 | 51.08917 | 8.06270 | 3° | 26km/h | 31197m | 7.1m/s | -41.1°C | 2.2% | 10.5hPa | 2.6V | 08:30:00 | 02:15:37 | 00:00:00 | |
| DO1YAY-16 | 2026-09-02 12:33:32 | 51.08917 | 8.06270 | 3° | 26km/h | 31197m | 7.1m/s | -41.2°C | 0.4% | 10.5hPa | 2.6V | 00:00:00 | 00:00:00 | 00:00:00 | |
| DL1NUX | 2026-09-02 12:33:31 | 51.08881 | 8.06255 | 35° | 24km/h | 31167m | 6.7m/s | -41°C | 2.2% | 10.5hPa | 2.6V | 08:30:00 | 02:15:32 | 00:00:00 | |
| DF8AY | 2026-09-02 12:33:31 | 51.08851 | 8.06185 | 20° | 27km/h | 31121m | 6.2m/s | -41.1°C | 0% | 10.6hPa | 2.7V | 18:12:15 | 02:15:24 | 00:00:00 | |
| DL1XH-west | 2026-09-02 12:33:30 | 51.08910 | 8.06269 | 6° | 31km/h | 31190m | 6.8m/s | -41.2°C | 0% | 10.5hPa | 2.7V | 18:12:15 | 02:15:36 | 00:00:00 | |
| DJ8HS-15 | 2026-09-02 12:33:30 | 51.08910 | 8.06269 | 7° | 27km/h | 31190m | 6.8m/s | -41.1°C | 2.2% | 10.4hPa | 2.7V | 00:00:00 | 02:15:36 | 08:30:00 | |
| DD8BA-10 | 2026-09-02 12:33:29 | 51.08902 | 8.06267 | 11° | 27km/h | 31184m | 5.6m/s | -41.1°C | 2.2% | 10.5hPa | 2.6V | 00:00:00 | 00:00:00 | 00:00:00 | |
| DO3DL | 2026-09-02 12:33:28 | 51.08893 | 8.06264 | 17° | 33km/h | 31179m | 5.0m/s | -41.1°C | 0.4% | 10.5hPa | 2.6V | 00:00:00 | 00:00:00 | 00:00:00 | |
| DL1XH-15 | 2026-09-02 12:33:27 | 51.08877 | 8.06248 | 55° | 22km/h | 31160m | 6m/s | -41.1°C | 2.2% | 10.5hPa | 2.6V | 08:30:00 | 02:15:31 | 00:00:00 | |
| DO2JMG | 2026-09-02 12:33:24 | 51.08874 | 8.06241 | 71° | 24km/h | 31155m | 5.1m/s | 0°C | 0% | 0hPa | 2.7V | 18:12:15 | 02:15:30 | 00:00:00 | |
| DL1XH1-15 | 2026-09-02 12:33:24 | 51.08873 | 8.06231 | 75° | 26km/h | 31149m | 5.7m/s | -41.3°C | 2.2% | 10.6hPa | 2.7V | 08:30:00 | 02:15:29 | 00:00:00 | |
| HSKMA3-T | 2026-09-02 12:33:23 | 51.08872 | 8.06231 | 75° | 26km/h | 31149m | 5.7m/s | -41.3°C | 0% | 10.6hPa | 2.7V | 18:12:15 | 02:15:29 | 00:00:00 | |
| DF8AY | 2026-09-02 12:33:23 | 51.08845 | 8.06183 | 4° | 27km/h | 31114m | 7.5m/s | -41.2°C | 0% | 10.6hPa | 2.6V | 18:12:15 | 02:15:23 | 00:00:00 | |
| GOEST3-10 | 2026-09-02 12:33:23 | 51.08872 | 8.06231 | 76° | 29km/h | 31150m | 5.6m/s | -41.2°C | 2.2% | 10.5hPa | 2.6V | 00:00:00 | 00:00:00 | 00:00:00 | |
| SO1NDE-10 | 2026-09-02 12:33:22 | 51.08870 | 8.06220 | 72° | 24km/h | 31144m | 6.4m/s | -41.1°C | 2.2% | 10.5hPa | 2.6V | 00:00:00 | 02:15:28 | 00:00:00 | |
| DL1NUX | 2026-09-02 12:33:21 | 51.08838 | 8.06184 | 347° | 27km/h | 31107m | 6.7m/s | -41.3°C | 2.2% | 10.6hPa | 2.6V | 08:30:00 | 02:15:22 | 00:00:00 | |
| DB0NH | 2026-09-02 12:33:21 | 51.08867 | 8.06209 | 64° | 24km/h | 31137m | 5.8m/s | -41.0°C | 2.2% | 10.5hPa | 2.6V | 00:00:00 | 02:15:27 | 00:00:00 | |
| DJ2DS-15 | 2026-09-02 12:33:20 | 51.08863 | 8.06199 | 51° | 26km/h | 31132m | 5.0m/s | -40.9°C | 2.2% | 10.5hPa | 2.6V | 00:00:00 | 02:15:26 | 08:30:00 | |
| DL1XH-15 | 2026-09-02 12:33:19 | 51.08831 | 8.06187 | 339° | 27km/h | 31101m | 5.3m/s | -41.3°C | 2.2% | 10.6hPa | 2.7V | 08:30:00 | 02:15:21 | 00:00:00 | |
| DL1XH-west | 2026-09-02 12:33:19 | 51.08858 | 8.06190 | 36° | 29km/h | 31126m | 5.2m/s | -41°C | 0% | 10.6hPa | 2.7V | 18:12:15 | 02:15:25 | 00:00:00 | |
| BIOWL1-15 | 2026-09-02 12:33:18 | 51.08838 | 8.06184 | 347° | 27km/h | 31107m | 6.7m/s | -41.3°C | 0% | 10.6hPa | 2.6V | 18:12:15 | 02:15:22 | 00:00:00 | |
| DO2JMG | 2026-09-02 12:33:13 | 51.08819 | 8.06192 | 358° | 24km/h | 31091m | 5.7m/s | 0°C | 0% | 0hPa | 2.6V | 18:12:15 | 02:15:19 | 00:00:00 | |
| HSKMA3-T | 2026-09-02 12:33:12 | 51.08813 | 8.06190 | 18° | 26km/h | 31085m | 6.2m/s | -40.9°C | 0% | 10.7hPa | 2.6V | 18:12:15 | 02:15:18 | 00:00:00 | |
| DL1XH-west | 2026-09-02 12:33:08 | 51.08793 | 8.06156 | 67° | 29km/h | 31061m | 6.8m/s | -41.2°C | 0% | 10.7hPa | 2.6V | 18:12:15 | 02:15:14 | 00:00:00 | |
| GOEST3-10 | 2026-09-02 12:33:08 | 51.08793 | 8.06156 | 68° | 24km/h | 31061m | 6.7m/s | -41.2°C | 2.2% | 10.7hPa | 2.6V | 00:00:00 | 02:15:14 | 00:00:00 | |
| DO3MHA-12 | 2026-09-02 12:33:07 | 51.08791 | 8.06145 | 74° | 22km/h | 31055m | 5.9m/s | -41.2°C | 2.3% | 10.7hPa | 2.6V | 00:00:00 | 02:15:13 | 00:00:00 | |
| DF8AY | 2026-09-02 12:33:05 | 51.08727 | 8.06064 | 36° | 11km/h | 30949m | 4.6m/s | -41.2°C | 0% | 10.9hPa | 2.6V | 18:12:15 | 02:14:55 | 00:00:00 | |
| BIOWL1-15 | 2026-09-02 12:33:05 | 51.08788 | 8.06129 | 68° | 18km/h | 31044m | 5.1m/s | -41°C | 0% | 10.7hPa | 2.7V | 18:12:15 | 02:15:11 | 00:00:00 | |
| DL1XH1-15 | 2026-09-02 12:33:04 | 51.08782 | 8.06117 | 39° | 20km/h | 31031m | 6.6m/s | -40.9°C | 2.2% | 10.7hPa | 2.7V | 08:30:00 | 02:15:09 | 00:00:00 | |
| DM0DOS-11 | 2026-09-02 12:33:03 | 51.08772 | 8.06109 | 14° | 24km/h | 31020m | 5.5m/s | -40.9°C | 2.2% | 10.8hPa | 2.6V | 08:30:00 | 02:15:07 | 00:00:00 | |
| DO2JMG | 2026-09-02 12:33:02 | 51.08778 | 8.06112 | 25° | 22km/h | 31025m | 5.7m/s | 0°C | 0% | 0hPa | 2.6V | 18:12:15 | 02:15:08 | 00:00:00 | |
| HSKMA3-T | 2026-09-02 12:33:01 | 51.08772 | 8.06109 | 14° | 24km/h | 31020m | 5.5m/s | -40.9°C | 0% | 10.8hPa | 2.6V | 18:12:15 | 02:15:07 | 00:00:00 | |
| DL1XH-west | 2026-09-02 12:32:57 | 51.08751 | 8.06109 | 357° | 16km/h | 30996m | 5.1m/s | -41.2°C | 0% | 10.8hPa | 2.7V | 18:12:15 | 02:15:03 | 00:00:00 | |
| BIOWL1-15 | 2026-09-02 12:32:57 | 51.08744 | 8.06105 | 37° | 18km/h | 30985m | 6.9m/s | -41.3°C | 0% | 10.8hPa | 2.6V | 18:12:15 | 02:15:01 | 00:00:00 | |
| DL3AQ-11 | 2026-09-02 12:32:57 | 51.08747 | 8.06108 | 17° | 15km/h | 30991m | 5.1m/s | -41.3°C | 0.4% | 10.8hPa | 2.7V | 00:00:00 | 00:00:00 | 00:00:00 | |
| DL9SK-14 | 2026-09-02 12:32:55 | 51.08740 | 8.06100 | 51° | 22km/h | 30978m | 6.8m/s | -41.3°C | 0.4% | 10.8hPa | 2.7V | 00:00:00 | 00:00:00 | 00:00:00 | |
| DF8AY | 2026-09-02 12:32:55 | 51.08704 | 8.06069 | 332° | 9km/h | 30909m | 6.5m/s | -41.1°C | 0% | 10.9hPa | 2.6V | 18:12:15 | 02:14:48 | 00:00:00 | |
| GOEST3-10 | 2026-09-02 12:32:54 | 51.08737 | 8.06092 | 60° | 20km/h | 30972m | 5.9m/s | -41.1°C | 2.2% | 10.8hPa | 2.7V | 00:00:00 | 00:00:00 | 00:00:00 | |
| DL1NUX | 2026-09-02 12:32:52 | 51.08718 | 8.06063 | 351° | 15km/h | 30932m | 6.5m/s | -41.3°C | 2.3% | 10.9hPa | 2.7V | 08:30:00 | 02:14:52 | 00:00:00 | |
| DO2JMG | 2026-09-02 12:32:51 | 51.08731 | 8.06075 | 65° | 22km/h | 30960m | 6.1m/s | 0°C | 0% | 0hPa | 2.7V | 18:12:15 | 02:14:57 | 00:00:00 | |
| HSKMA3-T | 2026-09-02 12:32:50 | 51.08729 | 8.06068 | 59° | 15km/h | 30954m | 5.6m/s | -41.1°C | 0% | 10.9hPa | 2.6V | 18:12:15 | 02:14:56 | 00:00:00 | |
| DL1XH-west | 2026-09-02 12:32:46 | 51.08718 | 8.06064 | 352° | 15km/h | 30932m | 6.5m/s | -41.3°C | 0% | 10.9hPa | 2.7V | 18:12:15 | 02:14:52 | 00:00:00 | |
| DM0DOS-11 | 2026-09-02 12:32:46 | 51.08703 | 8.06071 | 311° | 7km/h | 30902m | 6.4m/s | -41°C | 2.2% | 11hPa | 2.7V | 08:30:00 | 02:14:47 | 00:00:00 | |
| DL3AQ-11 | 2026-09-02 12:32:46 | 51.08714 | 8.06064 | 350° | 15km/h | 30926m | 5.6m/s | -41.2°C | 0.4% | 10.9hPa | 2.6V | 00:00:00 | 00:00:00 | 00:00:00 | |
| DF8AY | 2026-09-02 12:32:44 | 51.08701 | 8.06073 | 41° | 5km/h | 30887m | 5.7m/s | -41.2°C | 0% | 11hPa | 2.6V | 18:12:15 | 02:14:44 | 00:00:00 | |
| HSKMA3-T | 2026-09-02 12:32:40 | 51.08702 | 8.06072 | 290° | 4km/h | 30897m | 5.1m/s | -41°C | 0% | 11hPa | 2.7V | 18:12:15 | 02:14:46 | 00:00:00 | |
| AA1-15 | 2026-09-02 12:32:39 | 51.08702 | 8.06073 | 345° | 2km/h | 30892m | 4.6m/s | -41.1°C | 0% | 11hPa | 2.7V | 18:12:15 | 02:14:45 | 00:00:00 | |
| DL1NUX | 2026-09-02 12:32:39 | 51.08696 | 8.06067 | 36° | 16km/h | 30874m | 6m/s | -41.4°C | 2.2% | 11hPa | 2.7V | 08:30:00 | 02:14:42 | 00:00:00 | |
| DD8BA-10 | 2026-09-02 12:32:39 | 51.08701 | 8.06073 | 345° | 15km/h | 30892m | 4.5m/s | -41.1°C | 2.2% | 10.9hPa | 2.6V | 00:00:00 | 00:00:00 | 00:00:00 | |
| DL1XH1-15 | 2026-09-02 12:32:38 | 51.08684 | 8.06060 | 351° | 16km/h | 30858m | 6.5m/s | -41.4°C | 2.3% | 11hPa | 2.6V | 08:30:00 | 02:14:39 | 00:00:00 | |
| DO2JMG | 2026-09-02 12:32:37 | 51.08699 | 8.06070 | 43° | 11km/h | 30880m | 7m/s | 0°C | 0% | 0hPa | 2.6V | 18:12:15 | 02:14:43 | 00:00:00 | |
| DL1XH-west | 2026-09-02 12:32:36 | 51.08693 | 8.06063 | 26° | 18km/h | 30868m | 5m/s | -41.4°C | 0% | 11hPa | 2.7V | 18:12:15 | 02:14:41 | 00:00:00 | |
| DM0DOS-11 | 2026-09-02 12:32:36 | 51.08678 | 8.06068 | 296° | 18km/h | 30845m | 5.8m/s | -41.1°C | 2.3% | 11.1hPa | 2.7V | 08:30:00 | 02:14:37 | 00:00:00 | |
| BIOWL1-15 | 2026-09-02 12:32:34 | 51.08688 | 8.06061 | 12° | 18km/h | 30863m | 5m/s | -41.4°C | 0% | 11hPa | 2.6V | 18:12:15 | 02:14:40 | 00:00:00 | |
| GOEST3-10 | 2026-09-02 12:32:33 | 51.08684 | 8.06060 | 352° | 16km/h | 30858m | 6.5m/s | -41.3°C | 2.3% | 11.0hPa | 2.6V | 00:00:00 | 00:00:00 | 08:30:00 | |
| DD1CC2-15 | 2026-09-02 12:32:32 | 51.08684 | 8.06060 | 352° | 16km/h | 30858m | 6.5m/s | -41.4°C | 0.4% | 11.0hPa | 2.6V | 00:00:00 | 00:00:00 | 00:00:00 | |
| DL1NUX | 2026-09-02 12:32:31 | 51.08674 | 8.06091 | 24° | 2km/h | 30817m | 5.4m/s | -41°C | 2.2% | 11.1hPa | 2.6V | 08:30:00 | 02:14:32 | 00:00:00 | |
| HSKMA3-T | 2026-09-02 12:32:29 | 51.08676 | 8.06082 | 279° | 16km/h | 30834m | 5.4m/s | -41.1°C | 0% | 11.1hPa | 2.6V | 18:12:15 | 02:14:35 | 00:00:00 | |
| DF8AY | 2026-09-02 12:32:27 | 51.08675 | 8.06091 | 293° | 5km/h | 30822m | 5.6m/s | -41°C | 0% | 11.1hPa | 2.7V | 18:12:15 | 02:14:33 | 00:00:00 | |
| DO3MHA-12 | 2026-09-02 12:32:27 | 51.08675 | 8.06090 | 293° | 5km/h | 30823m | 5.5m/s | -40.9°C | 2.2% | 11.0hPa | 2.6V | 00:00:00 | 02:14:33 | 00:00:00 | |
| DM0DOS-11 | 2026-09-02 12:32:25 | 51.08674 | 8.06081 | 82° | 5km/h | 30788m | 4.9m/s | -40.9°C | 2.1% | 11.2hPa | 2.6V | 08:30:00 | 02:14:27 | 00:00:00 | |
| DL1XH-west | 2026-09-02 12:32:24 | 51.08674 | 8.06088 | 92° | 7km/h | 30806m | 6.4m/s | -41°C | 0% | 11.1hPa | 2.7V | 18:12:15 | 02:14:30 | 00:00:00 | |
| GOEST3-10 | 2026-09-02 12:32:23 | 51.08674 | 8.06085 | 103° | 5km/h | 30799m | 6.1m/s | -40.9°C | 2.1% | 11.1hPa | 2.7V | 00:00:00 | 00:00:00 | 00:00:00 | |
| SO1NDE-10 | 2026-09-02 12:32:22 | 51.08674 | 8.06083 | 104° | 11km/h | 30794m | 5.1m/s | -40.9°C | 2.2% | 11.1hPa | 2.7V | 00:00:00 | 02:14:28 | 00:00:00 | |
| DL1NUX | 2026-09-02 12:32:21 | 51.08667 | 8.06075 | 328° | 7km/h | 30760m | 5.8m/s | -41.1°C | 2.1% | 11.2hPa | 2.7V | 08:30:00 | 02:14:22 | 00:00:00 | |
| HSKMA3-T | 2026-09-02 12:32:20 | 51.08672 | 8.06077 | 40° | 7km/h | 30777m | 6.6m/s | -40.9°C | 0% | 11.2hPa | 2.6V | 18:12:15 | 02:14:25 | 00:00:00 | |
| DD8BA-10 | 2026-09-02 12:32:19 | 51.08672 | 8.06077 | 40° | 7km/h | 30777m | 6.6m/s | -40.9°C | 2.1% | 11.1hPa | 2.6V | 00:00:00 | 00:00:00 | 00:00:00 | |
| DL1XH1-15 | 2026-09-02 12:32:18 | 51.08665 | 8.06084 | 246° | 7km/h | 30744m | 4.1m/s | -41.3°C | 2.2% | 11.2hPa | 2.6V | 08:30:00 | 02:14:19 | 00:00:00 | |
| AA1-15 | 2026-09-02 12:32:18 | 51.08671 | 8.06075 | 23° | 9km/h | 30771m | 5.6m/s | -41°C | 0% | 11.2hPa | 2.7V | 18:12:15 | 02:14:24 | 00:00:00 | |
| DF8AY | 2026-09-02 12:32:17 | 51.08667 | 8.06075 | 328° | 7km/h | 30760m | 5.8m/s | -41.1°C | 0% | 11.2hPa | 2.7V | 18:12:15 | 02:14:22 | 00:00:00 | |
| DL4XJ-10 | 2026-09-02 12:32:16 | 51.08667 | 8.06075 | 329° | 9km/h | 30760m | 5.8m/s | -40.8°C | 0% | 0hPa | 2.7V | 00:00:00 | 00:00:00 | 00:00:00 | |
| DB0UT-7 | 2026-09-02 12:32:15 | 51.08665 | 8.06077 | 293° | 11km/h | 30754m | 6.3m/s | -41.1°C | 2.1% | 11.2hPa | 2.7V | 00:00:00 | 00:00:00 | 00:00:00 | |
| DM0DOS-11 | 2026-09-02 12:32:14 | 51.08667 | 8.06084 | 104° | 5km/h | 30733m | 6.3m/s | -41.5°C | 2.2% | 11.2hPa | 2.7V | 08:30:00 | 02:14:17 | 00:00:00 | |
| DL1XH-west | 2026-09-02 12:32:13 | 51.08665 | 8.06084 | 247° | 7km/h | 30744m | 4.1m/s | -41.3°C | 0% | 11.2hPa | 2.6V | 18:12:15 | 02:14:19 | 00:00:00 | |
| DL1NUX | 2026-09-02 12:32:12 | 51.08664 | 8.06057 | 65° | 11km/h | 30705m | 5.4m/s | -41.7°C | 2.3% | 11.3hPa | 2.7V | 08:30:00 | 02:14:12 | 00:00:00 | |
| DO2JMG | 2026-09-02 12:32:12 | 51.08667 | 8.06084 | 105° | 5km/h | 30733m | 6.3m/s | 0°C | 0% | 0hPa | 2.7V | 18:12:15 | 02:14:17 | 00:00:00 | |
| HSKMA3-T | 2026-09-02 12:32:09 | 51.08667 | 8.06075 | 83° | 16km/h | 30722m | 4.9m/s | -41.6°C | 0% | 11.3hPa | 2.6V | 18:12:15 | 02:14:15 | 00:00:00 | |
| BIOWL1-15 | 2026-09-02 12:32:08 | 51.08666 | 8.06068 | 79° | 18km/h | 30717m | 5.2m/s | -41.7°C | 0% | 11.3hPa | 2.6V | 18:12:15 | 02:14:14 | 00:00:00 | |
| GOEST3-10 | 2026-09-02 12:32:08 | 51.08666 | 8.06068 | 80° | 13km/h | 30717m | 5.1m/s | -41.6°C | 2.2% | 11.2hPa | 2.7V | 00:00:00 | 02:14:14 | 00:00:00 | |
| DL1XH-15 | 2026-09-02 12:32:07 | 51.08662 | 8.06053 | 46° | 9km/h | 30700m | 4.8m/s | -41.6°C | 2.3% | 11.3hPa | 2.7V | 08:30:00 | 02:14:11 | 00:00:00 | |
| AA1-15 | 2026-09-02 12:32:07 | 51.08665 | 8.06062 | 75° | 15km/h | 30711m | 6m/s | -41.7°C | 0% | 11.3hPa | 2.6V | 18:12:15 | 02:14:13 | 00:00:00 | |
| DF8AY | 2026-09-02 12:32:06 | 51.08651 | 8.06046 | 18° | 15km/h | 30678m | 5.1m/s | -41.4°C | 0% | 11.3hPa | 2.6V | 18:12:15 | 02:14:07 | 00:00:00 | |
| DO3MHA-12 | 2026-09-02 12:32:06 | 51.08664 | 8.06056 | 66° | 11km/h | 30706m | 5.4m/s | -41.6°C | 2.3% | 11.2hPa | 2.7V | 00:00:00 | 02:14:12 | 00:00:00 | |
| DL3AQ-11 | 2026-09-02 12:32:05 | 51.08662 | 8.06053 | 46° | 9km/h | 30700m | 4.9m/s | -41.6°C | 0.4% | 11.3hPa | 2.6V | 00:00:00 | 00:00:00 | 00:00:00 | |
| DL1XH1-15 | 2026-09-02 12:32:04 | 51.08658 | 8.06049 | 18° | 13km/h | 30690m | 6m/s | -41.6°C | 2.3% | 11.3hPa | 2.6V | 08:30:00 | 02:14:09 | 00:00:00 | |
| DM0DOS-11 | 2026-09-02 12:32:04 | 51.08651 | 8.06046 | 17° | 15km/h | 30678m | 5.1m/s | -41.4°C | 2.3% | 11.3hPa | 2.6V | 08:30:00 | 02:14:07 | 00:00:00 | |
| DL1XH-west | 2026-09-02 12:32:02 | 51.08655 | 8.06048 | 17° | 15km/h | 30684m | 6.1m/s | -41.6°C | 0% | 11.3hPa | 2.6V | 18:12:15 | 02:14:08 | 00:00:00 | |
| DL1NUX | 2026-09-02 12:32:01 | 51.08644 | 8.06038 | 109° | 9km/h | 30653m | 4.3m/s | -41.5°C | 2.3% | 11.4hPa | 2.6V | 08:30:00 | 02:14:02 | 00:00:00 | |
| DL1XH-15 | 2026-09-02 12:32:00 | 51.08645 | 8.06034 | 98° | 13km/h | 30647m | 6m/s | -41.5°C | 2.3% | 11.4hPa | 2.6V | 08:30:00 | 02:14:01 | 00:00:00 | |
| HSKMA3-T | 2026-09-02 12:31:59 | 51.08645 | 8.06043 | 21° | 7km/h | 30669m | 5.7m/s | -41.4°C | 0% | 11.3hPa | 2.7V | 18:12:15 | 02:14:05 | 00:00:00 | |
| BIOWL1-15 | 2026-09-02 12:31:58 | 51.08644 | 8.06042 | 50° | 4km/h | 30663m | 6m/s | -41.4°C | 0% | 11.3hPa | 2.7V | 18:12:15 | 02:14:04 | 00:00:00 | |
| DJ2DS-15 | 2026-09-02 12:31:58 | 51.08644 | 8.06042 | 50° | 11km/h | 30663m | 6.0m/s | -41.3°C | 2.3% | 11.3hPa | 2.7V | 00:00:00 | 02:14:04 | 00:00:00 | |
| DL1XH1-15 | 2026-09-02 12:31:57 | 51.08644 | 8.06020 | 79° | 20km/h | 30635m | 5.4m/s | -41.7°C | 2.3% | 11.4hPa | 2.7V | 08:30:00 | 02:13:59 | 00:00:00 | |
| AA1-15 | 2026-09-02 12:31:56 | 51.08645 | 8.06038 | 110° | 9km/h | 30653m | 4.3m/s | -41.5°C | 0% | 11.4hPa | 2.6V | 18:12:15 | 02:14:02 | 00:00:00 | |
| DL4XJ-10 | 2026-09-02 12:31:56 | 51.08644 | 8.06038 | 110° | 13km/h | 30652m | 4.3m/s | -41.2°C | 0% | 0hPa | 2.6V | 00:00:00 | 00:00:00 | 00:00:00 | |
| DJ2KF-10 | 2026-09-02 12:31:55 | 51.08645 | 8.06034 | 99° | 13km/h | 30648m | 5.9m/s | -41.5°C | 2.3% | 11.3hPa | 2.6V | 00:00:00 | 02:14:01 | 00:00:00 | |
| DM0DOS-11 | 2026-09-02 12:31:54 | 51.08642 | 8.06005 | 69° | 18km/h | 30625m | 5.4m/s | -41.6°C | 2.3% | 11.4hPa | 2.6V | 08:30:00 | 02:13:57 | 00:00:00 | |
| DL1XH-west | 2026-09-02 12:31:51 | 51.08642 | 8.06005 | 70° | 18km/h | 30625m | 5.4m/s | -41.6°C | 0% | 11.4hPa | 2.6V | 18:12:15 | 02:13:57 | 00:00:00 | |
| HSKMA3-T | 2026-09-02 12:31:48 | 51.08637 | 8.05992 | 32° | 9km/h | 30610m | 4.3m/s | -41.5°C | 0% | 11.5hPa | 2.7V | 18:12:15 | 02:13:54 | 00:00:00 | |
| DO3MHA-11 | 2026-09-02 12:31:48 | 51.08636 | 8.05992 | 32° | 11km/h | 30610m | 4.3m/s | -41.5°C | 2.3% | 11.4hPa | 2.6V | 00:00:00 | 02:13:54 | 00:00:00 | |
| DL1XH-15 | 2026-09-02 12:31:47 | 51.08628 | 8.05986 | 28° | 15km/h | 30594m | 5m/s | -41.6°C | 2.3% | 11.5hPa | 2.6V | 08:30:00 | 02:13:51 | 00:00:00 | |
| DF8AY | 2026-09-02 12:31:46 | 51.08632 | 8.05988 | 24° | 13km/h | 30599m | 6m/s | -41.5°C | 0% | 11.5hPa | 2.7V | 18:12:15 | 02:13:52 | 00:00:00 | |
| AA1-15 | 2026-09-02 12:31:46 | 51.08625 | 8.05983 | 33° | 15km/h | 30589m | 4.7m/s | -41.6°C | 0% | 11.5hPa | 2.6V | 18:12:15 | 02:13:50 | 00:00:00 | |
| DL1CLM-18 | 2026-09-02 12:31:46 | 51.08632 | 8.05988 | 25° | 13km/h | 30600m | 6.0m/s | -41.5°C | 0.4% | 11.5hPa | 2.7V | 00:00:00 | 00:00:00 | 00:00:00 | |
| DB0UT-7 | 2026-09-02 12:31:45 | 51.08628 | 8.05986 | 29° | 15km/h | 30594m | 5.0m/s | -41.5°C | 2.3% | 11.4hPa | 2.7V | 00:00:00 | 02:13:51 | 00:00:00 | |
| DM0DOS-11 | 2026-09-02 12:31:44 | 51.08619 | 8.05974 | 62° | 5km/h | 30573m | 6.2m/s | -41.7°C | 2.3% | 11.5hPa | 2.7V | 08:30:00 | 02:13:47 | 00:00:00 | |
| DL1XH-west | 2026-09-02 12:31:41 | 51.08619 | 8.05974 | 62° | 5km/h | 30573m | 6.2m/s | -41.7°C | 0% | 11.5hPa | 2.7V | 18:12:15 | 02:13:47 | 00:00:00 | |
| DD1CC3-15 | 2026-09-02 12:31:40 | 51.08619 | 8.05974 | 63° | 5km/h | 30574m | 6.2m/s | -41.7°C | 0.5% | 11.5hPa | 2.6V | 00:00:00 | 00:00:00 | 00:00:00 | |
| DL1XH-15 | 2026-09-02 12:31:39 | 51.08615 | 8.05948 | 58° | 22km/h | 30543m | 4.4m/s | -42°C | 2.3% | 11.6hPa | 2.6V | 08:30:00 | 02:13:41 | 00:00:00 | |
| HSKMA3-T | 2026-09-02 12:31:38 | 51.08619 | 8.05966 | 89° | 11km/h | 30559m | 4.4m/s | -41.9°C | 0% | 11.6hPa | 2.6V | 18:12:15 | 02:13:44 | 00:00:00 | |
| BIOWL9-15 | 2026-09-02 12:31:38 | 51.08619 | 8.05962 | 75° | 13km/h | 30554m | 6.2m/s | -41.9°C | 0.4% | 11.6hPa | 2.7V | 00:00:00 | 00:00:00 | 00:00:00 | |
| BIOWL1-15 | 2026-09-02 12:31:37 | 51.08577 | 8.05881 | 67° | 16km/h | 30460m | 5.4m/s | -42.3°C | 0% | 11.7hPa | 2.7V | 18:12:15 | 02:13:24 | 00:00:00 | |
| DF8AY | 2026-09-02 12:31:34 | 51.08605 | 8.05931 | 26° | 13km/h | 30530m | 5.9m/s | -41.9°C | 0% | 11.6hPa | 2.7V | 18:12:15 | 02:13:38 | 00:00:00 | |
| DM0DOS-11 | 2026-09-02 12:31:33 | 51.08603 | 8.05931 | 349° | 9km/h | 30524m | 5.5m/s | -41.9°C | 2.3% | 11.6hPa | 2.6V | 08:30:00 | 02:13:37 | 00:00:00 | |
| AA1-15 | 2026-09-02 12:31:33 | 51.08609 | 8.05935 | 43° | 18km/h | 30535m | 4.4m/s | -41.8°C | 0% | 11.6hPa | 2.7V | 18:12:15 | 02:13:39 | 00:00:00 | |
| DB0ND-19 | 2026-09-02 12:31:32 | 51.08603 | 8.05931 | 349° | 9km/h | 30524m | 5.5m/s | -41.9°C | 0.4% | 11.6hPa | 2.6V | 00:00:00 | 00:00:00 | 00:00:00 | |
| DL1NUX | 2026-09-02 12:31:31 | 51.08591 | 8.05935 | 40° | 15km/h | 30500m | 5.5m/s | -42°C | 2.3% | 11.6hPa | 2.6V | 08:30:00 | 02:13:32 | 00:00:00 | |
| DL1XH-west | 2026-09-02 12:31:30 | 51.08601 | 8.05932 | 321° | 11km/h | 30519m | 4.4m/s | -42°C | 0% | 11.6hPa | 2.6V | 18:12:15 | 02:13:36 | 00:00:00 | |
| BIOWL1-15 | 2026-09-02 12:31:27 | 51.08575 | 8.05875 | 61° | 18km/h | 30455m | 5.3m/s | -42.4°C | 0% | 11.7hPa | 2.7V | 18:12:15 | 02:13:23 | 00:00:00 | |
| HSKMA3-T | 2026-09-02 12:31:27 | 51.08594 | 8.05938 | 12° | 11km/h | 30506m | 5.7m/s | -42°C | 0% | 11.6hPa | 2.6V | 18:12:15 | 02:13:33 | 00:00:00 | |
| DO3MHA-11 | 2026-09-02 12:31:27 | 51.08594 | 8.05938 | 12° | 13km/h | 30506m | 5.6m/s | -41.9°C | 2.3% | 11.6hPa | 2.7V | 00:00:00 | 02:13:33 | 00:00:00 | |
| DL3AQ-11 | 2026-09-02 12:31:26 | 51.08588 | 8.05930 | 54° | 18km/h | 30495m | 5.0m/s | -41.9°C | 0.4% | 11.7hPa | 2.7V | 00:00:00 | 00:00:00 | 00:00:00 | |
| DJ2KF-10 | 2026-09-02 12:31:25 | 51.08588 | 8.05930 | 55° | 16km/h | 30495m | 4.9m/s | -41.9°C | 2.3% | 11.6hPa | 2.7V | 00:00:00 | 02:13:31 | 08:30:00 | |
| DL1XH1-15 | 2026-09-02 12:31:24 | 51.08583 | 8.05915 | 67° | 22km/h | 30485m | 5.8m/s | -42°C | 2.3% | 11.7hPa | 2.7V | 08:30:00 | 02:13:29 | 00:00:00 | |
| DF8AY | 2026-09-02 12:31:24 | 51.08569 | 8.05860 | 52° | 11km/h | 30440m | 6m/s | -42.3°C | 0% | 11.8hPa | 2.6V | 18:12:15 | 02:13:20 | 00:00:00 | |
| AA1-15 | 2026-09-02 12:31:22 | 51.08582 | 8.05907 | 74° | 20km/h | 30479m | 5.2m/s | -42°C | 0% | 11.7hPa | 2.6V | 18:12:15 | 02:13:28 | 00:00:00 | |
| DL1NUX | 2026-09-02 12:31:22 | 51.08573 | 8.05869 | 56° | 16km/h | 30450m | 4.6m/s | -42.5°C | 2.4% | 11.7hPa | 2.6V | 08:30:00 | 02:13:22 | 00:00:00 | |
| DL1XH-west | 2026-09-02 12:31:20 | 51.08580 | 8.05893 | 78° | 16km/h | 30470m | 4.1m/s | -42.1°C | 0% | 11.7hPa | 2.6V | 18:12:15 | 02:13:26 | 00:00:00 | |
| DL1XH-15 | 2026-09-02 12:31:20 | 51.08571 | 8.05864 | 54° | 15km/h | 30445m | 4.6m/s | -42.4°C | 2.4% | 11.7hPa | 2.6V | 08:30:00 | 02:13:21 | 00:00:00 | |
| HSKMA3-T | 2026-09-02 12:31:16 | 51.08573 | 8.05869 | 57° | 16km/h | 30450m | 4.6m/s | -42.5°C | 0% | 11.7hPa | 2.6V | 18:12:15 | 02:13:22 | 00:00:00 | |
| DL4XJ-10 | 2026-09-02 12:31:16 | 51.08573 | 8.05869 | 57° | 15km/h | 30450m | 4.6m/s | -42.2°C | 0% | 0hPa | 2.6V | 00:00:00 | 00:00:00 | 00:00:00 | |
| DB0UT-7 | 2026-09-02 12:31:15 | 51.08571 | 8.05864 | 55° | 15km/h | 30446m | 4.6m/s | -42.4°C | 2.4% | 11.7hPa | 2.6V | 00:00:00 | 00:00:00 | 00:00:00 | |
| DL1XH1-15 | 2026-09-02 12:31:14 | 51.08567 | 8.05857 | 40° | 7km/h | 30434m | 5.5m/s | -42.3°C | 2.4% | 11.7hPa | 2.7V | 08:30:00 | 02:13:19 | 00:00:00 | |
| DF8AY | 2026-09-02 12:31:14 | 51.08567 | 8.05857 | 41° | 7km/h | 30434m | 5.5m/s | -42.3°C | 0% | 11.8hPa | 2.7V | 18:12:15 | 02:13:19 | 00:00:00 | |
| DM0DOS-11 | 2026-09-02 12:31:14 | 51.08564 | 8.05855 | 27° | 9km/h | 30425m | 3.8m/s | -42.4°C | 2.4% | 11.8hPa | 2.7V | 08:30:00 | 02:13:17 | 00:00:00 | |
| AA1-15 | 2026-09-02 12:31:12 | 51.08566 | 8.05856 | 25° | 5km/h | 30429m | 4m/s | -42.3°C | 0% | 11.8hPa | 2.7V | 18:12:15 | 02:13:18 | 00:00:00 | |
| DO9LL-15 | 2026-09-02 12:31:12 | 51.08566 | 8.05856 | 26° | 15km/h | 30430m | 4.0m/s | -42.3°C | 2.4% | 11.7hPa | 2.7V | 00:00:00 | 02:13:18 | 00:00:00 | |
| DL1NUX | 2026-09-02 12:31:11 | 51.08546 | 8.05827 | 53° | 26km/h | 30400m | 5.1m/s | -42.4°C | 2.4% | 11.8hPa | 2.7V | 08:30:00 | 02:13:12 | 00:00:00 | |
| BIOWL1-15 | 2026-09-02 12:31:09 | 51.08559 | 8.05848 | 39° | 20km/h | 30415m | 6.1m/s | -42.5°C | 0% | 11.8hPa | 2.6V | 18:12:15 | 02:13:15 | 00:00:00 | |
| DD8BA-10 | 2026-09-02 12:31:09 | 51.08559 | 8.05848 | 40° | 18km/h | 30416m | 6.0m/s | -42.5°C | 2.4% | 11.8hPa | 2.7V | 00:00:00 | 00:00:00 | 00:00:00 | |
| BUE01 | 2026-09-02 12:31:08 | 51.08550 | 8.05835 | 48° | 26km/h | 30405m | 4.6m/s | -42.3°C | 0.4% | 11.8hPa | 2.7V | 00:00:00 | 00:00:00 | 00:00:00 | |
| DL1XH-15 | 2026-09-02 12:31:07 | 51.08543 | 8.05820 | 62° | 20km/h | 30395m | 5.5m/s | -42.4°C | 2.4% | 11.8hPa | 2.7V | 08:30:00 | 02:13:11 | 00:00:00 | |
| HSKMA3-T | 2026-09-02 12:31:05 | 51.08543 | 8.05820 | 62° | 20km/h | 30395m | 5.5m/s | -42.4°C | 0% | 11.8hPa | 2.7V | 18:12:15 | 02:13:11 | 00:00:00 | |
| DO3DL | 2026-09-02 12:31:04 | 51.08543 | 8.05819 | 63° | 20km/h | 30395m | 5.5m/s | -42.4°C | 0.5% | 11.8hPa | 2.7V | 00:00:00 | 00:00:00 | 00:00:00 | |
| DM0DOS-11 | 2026-09-02 12:31:03 | 51.08541 | 8.05795 | 89° | 15km/h | 30375m | 5.7m/s | -42.6°C | 2.4% | 11.8hPa | 2.7V | 08:30:00 | 02:13:07 | 00:00:00 | |
| DF8AY | 2026-09-02 12:31:02 | 51.08541 | 8.05801 | 96° | 15km/h | 30380m | 4.3m/s | -42.6°C | 0% | 11.8hPa | 2.6V | 18:12:15 | 02:13:08 | 00:00:00 | |
| AA1-15 | 2026-09-02 12:31:02 | 51.08541 | 8.05795 | 90° | 15km/h | 30375m | 5.7m/s | -42.6°C | 0% | 11.9hPa | 2.7V | 18:12:15 | 02:13:07 | 00:00:00 | |
| WPPR-10 | 2026-09-02 12:31:01 | 51.08541 | 8.05795 | 89° | 15km/h | 30375m | 5.7m/s | -42.6°C | 0.4% | 11.9hPa | 2.7V | 00:00:00 | 00:00:00 | 00:00:00 | |
| DJ3KS | 2026-09-02 12:31:00 | 51.08541 | 8.05795 | 91° | 15km/h | 30376m | 5.7m/s | -42.6°C | 0.5% | 11.9hPa | 2.7V | 00:00:00 | 00:00:00 | 00:00:00 | |
| DL1XH-15 | 2026-09-02 12:30:59 | 51.08530 | 8.05768 | 28° | 13km/h | 30343m | 4.5m/s | -42.3°C | 2.4% | 11.9hPa | 2.7V | 08:30:00 | 02:13:01 | 00:00:00 | |
| DL1XH-west | 2026-09-02 12:30:58 | 51.08538 | 8.05778 | 52° | 15km/h | 30360m | 4.6m/s | -42.4°C | 0% | 11.9hPa | 2.6V | 18:12:15 | 02:13:04 | 00:00:00 | |
| HSKMA3-T | 2026-09-02 12:30:55 | 51.08527 | 8.05765 | 30° | 15km/h | 30339m | 4.3m/s | -42.3°C | 0% | 11.9hPa | 2.7V | 18:12:15 | 02:13:00 | 00:00:00 | |
| GOEST3-10 | 2026-09-02 12:30:53 | 51.08523 | 8.05761 | 34° | 20km/h | 30335m | 5.6m/s | -42.3°C | 2.4% | 11.9hPa | 2.6V | 00:00:00 | 00:00:00 | 00:00:00 | |
| DM0DOS-11 | 2026-09-02 12:30:52 | 51.08515 | 8.05751 | 45° | 22km/h | 30323m | 4.7m/s | -42.3°C | 2.4% | 11.9hPa | 2.6V | 08:30:00 | 02:12:57 | 00:00:00 | |
| AA1-15 | 2026-09-02 12:30:52 | 51.08515 | 8.05751 | 45° | 22km/h | 30323m | 4.7m/s | -42.3°C | 0% | 11.9hPa | 2.6V | 18:12:15 | 02:12:57 | 00:00:00 | |
| DL1NUX | 2026-09-02 12:30:51 | 51.08510 | 8.05729 | 132° | 5km/h | 30297m | 4.5m/s | -42.4°C | 2.3% | 12hPa | 2.6V | 08:30:00 | 02:12:52 | 00:00:00 | |
| BIOWL1-15 | 2026-09-02 12:30:48 | 51.08510 | 8.05729 | 133° | 5km/h | 30297m | 4.6m/s | -42.4°C | 0% | 12hPa | 2.6V | 18:12:15 | 02:12:52 | 00:00:00 | |
| DF8AY | 2026-09-02 12:30:48 | 51.08503 | 8.05717 | 27° | 16km/h | 30272m | 5.1m/s | -42.4°C | 0% | 12.1hPa | 2.7V | 18:12:15 | 02:12:47 | 00:00:00 | |
| DL1XH-west | 2026-09-02 12:30:48 | 51.08509 | 8.05731 | 120° | 7km/h | 30302m | 5.4m/s | -42.4°C | 0% | 12hPa | 2.7V | 18:12:15 | 02:12:53 | 00:00:00 | |
| DL1XH1-15 | 2026-09-02 12:30:47 | 51.08509 | 8.05723 | 36° | 11km/h | 30282m | 4.8m/s | -42.3°C | 2.3% | 12hPa | 2.7V | 08:30:00 | 02:12:49 | 00:00:00 | |
| HSKMA3-T | 2026-09-02 12:30:44 | 51.08510 | 8.05725 | 64° | 5km/h | 30287m | 5.8m/s | -42.4°C | 0% | 12hPa | 2.6V | 18:12:15 | 02:12:50 | 00:00:00 | |
| SONCRA | 2026-09-02 12:30:44 | 51.08509 | 8.05723 | 36° | 9km/h | 30282m | 4.9m/s | -42.3°C | 0.4% | 12.1hPa | 2.7V | 00:00:00 | 00:00:00 | 00:00:00 | |
| GOEST3-10 | 2026-09-02 12:30:43 | 51.08509 | 8.05723 | 37° | 15km/h | 30282m | 4.8m/s | -42.3°C | 2.3% | 12.0hPa | 2.7V | 00:00:00 | 00:00:00 | 00:00:00 | |
| DM0DOS-11 | 2026-09-02 12:30:41 | 51.08503 | 8.05717 | 26° | 16km/h | 30272m | 5.1m/s | -42.4°C | 2.3% | 12.1hPa | 2.7V | 08:30:00 | 02:12:47 | 00:00:00 | |
| DL1NUX | 2026-09-02 12:30:41 | 51.08487 | 8.05704 | 42° | 15km/h | 30246m | 4.8m/s | -42.8°C | 2.3% | 12.1hPa | 2.7V | 08:30:00 | 02:12:42 | 00:00:00 | |
| BIOWL1-15 | 2026-09-02 12:30:41 | 51.08475 | 8.05678 | 289° | 4km/h | 30205m | 4.1m/s | -43°C | 0% | 12.2hPa | 2.6V | 18:12:15 | 02:12:34 | 00:00:00 | |
| AA1-15 | 2026-09-02 12:30:40 | 51.08499 | 8.05714 | 25° | 16km/h | 30267m | 5.7m/s | -42.5°C | 0% | 12.1hPa | 2.6V | 18:12:15 | 02:12:46 | 00:00:00 | |
| DL1XH-15 | 2026-09-02 12:30:39 | 51.08484 | 8.05699 | 48° | 18km/h | 30241m | 6.1m/s | -42.9°C | 2.3% | 12.1hPa | 2.7V | 08:30:00 | 02:12:41 | 00:00:00 | |
| DL1XH-west | 2026-09-02 12:30:37 | 51.08490 | 8.05707 | 32° | 13km/h | 30251m | 4.7m/s | -42.7°C | 0% | 12.1hPa | 2.7V | 18:12:15 | 02:12:43 | 00:00:00 | |
| DF8AY | 2026-09-02 12:30:37 | 51.08460 | 8.05670 | 36° | 22km/h | 30179m | 5.1m/s | -43.1°C | 0% | 12.2hPa | 2.7V | 18:12:15 | 02:12:29 | 00:00:00 | |
| DM0DOS-11 | 2026-09-02 12:30:36 | 51.08475 | 8.05678 | 68° | 9km/h | 30221m | 6.1m/s | -43°C | 2.4% | 12.1hPa | 2.7V | 08:30:00 | 02:12:37 | 00:00:00 | |
| DL4XJ-10 | 2026-09-02 12:30:35 | 51.08484 | 8.05699 | 49° | 13km/h | 30241m | 6.0m/s | -42.6°C | 0% | 0hPa | 2.6V | 00:00:00 | 00:00:00 | 00:00:00 | |
| DL1XH1-15 | 2026-09-02 12:30:34 | 51.08479 | 8.05688 | 58° | 18km/h | 30230m | 4.1m/s | -43.1°C | 2.4% | 12.1hPa | 2.6V | 08:30:00 | 02:12:39 | 00:00:00 | |
| HSKMA3-T | 2026-09-02 12:30:33 | 51.08479 | 8.05688 | 58° | 18km/h | 30230m | 4.1m/s | -43.1°C | 0% | 12.1hPa | 2.6V | 18:12:15 | 02:12:39 | 00:00:00 | |
| AA1-15 | 2026-09-02 12:30:30 | 51.08475 | 8.05676 | 255° | 2km/h | 30209m | 4.9m/s | -43°C | 0% | 12.2hPa | 2.7V | 18:12:15 | 02:12:35 | 00:00:00 | |
| DF8AY | 2026-09-02 12:30:28 | 51.08453 | 8.05660 | 46° | 15km/h | 30168m | 5.3m/s | -43°C | 0% | 12.2hPa | 2.6V | 18:12:15 | 02:12:27 | 00:00:00 | |
| DL1XH-15 | 2026-09-02 12:30:27 | 51.08469 | 8.05678 | 21° | 16km/h | 30189m | 5.4m/s | -43.3°C | 2.4% | 12.2hPa | 2.7V | 08:30:00 | 02:12:31 | 00:00:00 | |
| DL1XH1-15 | 2026-09-02 12:30:26 | 51.08460 | 8.05670 | 36° | 22km/h | 30179m | 5.1m/s | -43.1°C | 2.4% | 12.2hPa | 2.7V | 08:30:00 | 02:12:29 | 00:00:00 | |
| DL1XH-west | 2026-09-02 12:30:26 | 51.08472 | 8.05679 | 6° | 11km/h | 30195m | 6.2m/s | -43.2°C | 0% | 12.2hPa | 2.6V | 18:12:15 | 02:12:32 | 00:00:00 | |
| DO1YAY-16 | 2026-09-02 12:30:26 | 51.08469 | 8.05678 | 21° | 16km/h | 30189m | 5.4m/s | -43.3°C | 0.5% | 12.2hPa | 2.6V | 00:00:00 | 00:00:00 | 00:00:00 | |
| DM0DOS-11 | 2026-09-02 12:30:25 | 51.08453 | 8.05660 | 46° | 15km/h | 30168m | 5.3m/s | -43°C | 2.4% | 12.2hPa | 2.6V | 08:30:00 | 02:12:27 | 00:00:00 | |
| HSKMA3-T | 2026-09-02 12:30:22 | 51.08456 | 8.05665 | 40° | 18km/h | 30173m | 5.9m/s | -43°C | 0% | 12.2hPa | 2.6V | 18:12:15 | 02:12:28 | 00:00:00 | |
| SO1NDE-10 | 2026-09-02 12:30:22 | 51.08456 | 8.05665 | 40° | 13km/h | 30174m | 5.9m/s | -43.0°C | 2.4% | 12.2hPa | 2.6V | 00:00:00 | 02:12:28 | 00:00:00 | |
| DL1CLM-18 | 2026-09-02 12:30:20 | 51.08453 | 8.05660 | 47° | 15km/h | 30168m | 5.3m/s | -43.0°C | 0.5% | 12.2hPa | 2.6V | 00:00:00 | 00:00:00 | 00:00:00 | |
| DL1XH-15 | 2026-09-02 12:30:19 | 51.08445 | 8.05643 | 348° | 5km/h | 30136m | 5.2m/s | -43.4°C | 2.4% | 12.3hPa | 2.6V | 08:30:00 | 02:12:21 | 00:00:00 | |
| AA1-15 | 2026-09-02 12:30:19 | 51.08448 | 8.05649 | 64° | 11km/h | 30152m | 6.2m/s | -43.3°C | 0% | 12.3hPa | 2.7V | 18:12:15 | 02:12:24 | 00:00:00 | |
| BIOWL1-15 | 2026-09-02 12:30:18 | 51.08432 | 8.05659 | 348° | 20km/h | 30109m | 6.4m/s | -43.4°C | 0% | 12.3hPa | 2.6V | 18:12:15 | 02:12:16 | 00:00:00 | |
| DL1XH-west | 2026-09-02 12:30:17 | 51.08446 | 8.05643 | 42° | 5km/h | 30141m | 4.6m/s | -43.4°C | 0% | 12.3hPa | 2.6V | 18:12:15 | 02:12:22 | 00:00:00 | |
| DF8AY | 2026-09-02 12:30:12 | 51.08440 | 8.05652 | 315° | 16km/h | 30119m | 4.3m/s | -43.2°C | 0% | 12.3hPa | 2.7V | 18:12:15 | 02:12:18 | 00:00:00 | |
| HSKMA3-T | 2026-09-02 12:30:12 | 51.08436 | 8.05656 | 330° | 18km/h | 30115m | 4.9m/s | -43.3°C | 0% | 12.3hPa | 2.7V | 18:12:15 | 02:12:17 | 00:00:00 | |
| AA1-15 | 2026-09-02 12:30:08 | 51.08421 | 8.05658 | 13° | 24km/h | 30098m | 4.9m/s | -43.2°C | 0% | 12.4hPa | 2.6V | 18:12:15 | 02:12:14 | 00:00:00 | |
| GOEST3-10 | 2026-09-02 12:30:08 | 51.08421 | 8.05658 | 13° | 16km/h | 30098m | 4.8m/s | -43.2°C | 2.4% | 12.3hPa | 2.7V | 00:00:00 | 02:12:14 | 00:00:00 | |
| DL1XH-15 | 2026-09-02 12:30:07 | 51.08407 | 8.05650 | 30° | 9km/h | 30082m | 5.6m/s | -43.4°C | 2.4% | 12.4hPa | 2.7V | 08:30:00 | 02:12:11 | 00:00:00 | |
| DL1XH-west | 2026-09-02 12:30:06 | 51.08410 | 8.05653 | 23° | 16km/h | 30088m | 5.9m/s | -43.4°C | 0% | 12.4hPa | 2.7V | 18:12:15 | 02:12:12 | 00:00:00 | |
| BIOWL1-15 | 2026-09-02 12:30:05 | 51.08407 | 8.05643 | 110° | 5km/h | 30060m | 5.9m/s | -43.4°C | 0% | 12.5hPa | 2.7V | 18:12:15 | 02:12:07 | 00:00:00 | |
| BUE01 | 2026-09-02 12:30:05 | 51.08407 | 8.05650 | 30° | 9km/h | 30082m | 5.6m/s | -43.4°C | 0.5% | 12.4hPa | 2.6V | 00:00:00 | 00:00:00 | 00:00:00 | |
| DL1XH1-15 | 2026-09-02 12:30:04 | 51.08406 | 8.05647 | 124° | 4km/h | 30072m | 4.9m/s | -43.3°C | 2.4% | 12.4hPa | 2.6V | 08:30:00 | 02:12:09 | 00:00:00 | |
| HSKMA3-T | 2026-09-02 12:30:00 | 51.08407 | 8.05641 | 72° | 5km/h | 30055m | 5.2m/s | -43.4°C | 0% | 12.5hPa | 2.7V | 18:12:15 | 02:12:06 | 00:00:00 | |
| DF8AY | 2026-09-02 12:29:58 | 51.08402 | 8.05640 | 349° | 13km/h | 30038m | 5.7m/s | -43.3°C | 0% | 12.5hPa | 2.6V | 18:12:15 | 02:12:03 | 00:00:00 | |
| DL1NUX | 2026-09-02 12:29:57 | 51.08398 | 8.05641 | 355° | 16km/h | 30033m | 4.7m/s | -43.4°C | 2.4% | 12.5hPa | 2.6V | 08:30:00 | 02:12:02 | 00:00:00 | |
| DL1XH1-15 | 2026-09-02 12:29:56 | 51.08385 | 8.05634 | 41° | 22km/h | 30016m | 5.8m/s | -43.3°C | 2.4% | 12.5hPa | 2.7V | 08:30:00 | 02:11:59 | 00:00:00 | |
| DL1XH-west | 2026-09-02 12:29:56 | 51.08394 | 8.05641 | 8° | 18km/h | 30028m | 4.7m/s | -43.4°C | 0% | 12.5hPa | 2.7V | 18:12:15 | 02:12:01 | 00:00:00 | |
| BIOWL1-15 | 2026-09-02 12:29:53 | 51.08385 | 8.05634 | 42° | 22km/h | 30016m | 5.8m/s | -43.3°C | 0% | 12.5hPa | 2.7V | 18:12:15 | 02:11:59 | 00:00:00 | |
| GOEST3-10 | 2026-09-02 12:29:53 | 51.08384 | 8.05634 | 42° | 20km/h | 30017m | 5.8m/s | -43.2°C | 2.4% | 12.5hPa | 2.6V | 00:00:00 | 00:00:00 | 00:00:00 | |
| SO1NDE-10 | 2026-09-02 12:29:52 | 51.08381 | 8.05627 | 60° | 15km/h | 30011m | 5.0m/s | -43.3°C | 2.4% | 12.5hPa | 2.6V | 00:00:00 | 02:11:58 | 00:00:00 | |
| DL1NUX | 2026-09-02 12:29:51 | 51.08387 | 8.05592 | 127° | 13km/h | 29978m | 6.1m/s | -43.3°C | 2.4% | 12.6hPa | 2.6V | 08:30:00 | 02:11:52 | 00:00:00 | |
| HSKMA3-T | 2026-09-02 12:29:50 | 51.08378 | 8.05612 | 94° | 16km/h | 30000m | 6.4m/s | -43.4°C | 0% | 12.6hPa | 2.6V | 18:12:15 | 02:11:56 | 00:00:00 | |
| DL3AQ-11 | 2026-09-02 12:29:50 | 51.08380 | 8.05606 | 117° | 15km/h | 29994m | 5.4m/s | -43.3°C | 0.5% | 12.6hPa | 2.7V | 00:00:00 | 00:00:00 | 00:00:00 | |
| DK9SH | 2026-09-02 12:29:49 | 51.08379 | 8.05612 | 95° | 16km/h | 30000m | 6.4m/s | -43.4°C | 0.5% | 12.6hPa | 2.7V | 00:00:00 | 00:00:00 | 00:00:00 | |
| DD1CC2-15 | 2026-09-02 12:29:49 | 51.08379 | 8.05612 | 95° | 16km/h | 30000m | 6.4m/s | -43.4°C | 0.5% | 12.6hPa | 2.7V | 00:00:00 | 00:00:00 | 00:00:00 | |
| DD8BA-10 | 2026-09-02 12:29:49 | 51.08380 | 8.05606 | 118° | 13km/h | 29994m | 5.4m/s | -43.2°C | 2.4% | 12.5hPa | 2.7V | 00:00:00 | 00:00:00 | 08:30:00 | |
| GOEST3-10 | 2026-09-02 12:29:48 | 51.08382 | 8.05601 | 133° | 13km/h | 29989m | 4.6m/s | -43.2°C | 2.4% | 12.5hPa | 2.7V | 00:00:00 | 02:11:54 | 00:00:00 | |
| DL1XH-15 | 2026-09-02 12:29:47 | 51.08388 | 8.05588 | 110° | 11km/h | 29973m | 5.5m/s | -43.2°C | 2.4% | 12.6hPa | 2.6V | 08:30:00 | 02:11:51 | 00:00:00 | |
| AA1-15 | 2026-09-02 12:29:47 | 51.08387 | 8.05592 | 127° | 13km/h | 29978m | 6.1m/s | -43.4°C | 0% | 12.6hPa | 2.6V | 18:12:15 | 02:11:52 | 00:00:00 | |
| DL1XH-west | 2026-09-02 12:29:45 | 51.08388 | 8.05588 | 110° | 11km/h | 29973m | 5.5m/s | -43.3°C | 0% | 12.6hPa | 2.6V | 18:12:15 | 02:11:51 | 00:00:00 | |
| DB0UT-7 | 2026-09-02 12:29:45 | 51.08388 | 8.05588 | 111° | 13km/h | 29973m | 5.4m/s | -43.2°C | 2.4% | 12.6hPa | 2.6V | 00:00:00 | 02:11:51 | 08:30:00 | |
| DL1XH1-15 | 2026-09-02 12:29:44 | 51.08387 | 8.05580 | 40° | 9km/h | 29962m | 5.3m/s | -43.2°C | 2.4% | 12.6hPa | 2.7V | 08:30:00 | 02:11:49 | 00:00:00 | |
| DL4BBY-15 | 2026-09-02 12:29:44 | 51.08388 | 8.05584 | 78° | 13km/h | 29968m | 5.1m/s | -42.9°C | 0% | 0hPa | 2.7V | 00:00:00 | 00:00:00 | 00:00:00 | |
| GOEST3-10 | 2026-09-02 12:29:43 | 51.08387 | 8.05580 | 41° | 15km/h | 29962m | 5.3m/s | -43.1°C | 2.4% | 12.6hPa | 2.7V | 00:00:00 | 00:00:00 | 00:00:00 | |
| DO9LL-15 | 2026-09-02 12:29:42 | 51.08385 | 8.05579 | 12° | 13km/h | 29956m | 6.7m/s | -43.2°C | 2.4% | 12.6hPa | 2.7V | 00:00:00 | 02:11:48 | 08:30:00 | |
| DL1NUX | 2026-09-02 12:29:41 | 51.08359 | 8.05573 | 45° | 20km/h | 29921m | 5.3m/s | -43.2°C | 2.4% | 12.7hPa | 2.7V | 08:30:00 | 02:11:42 | 00:00:00 | |
| HSKMA3-T | 2026-09-02 12:29:39 | 51.08373 | 8.05580 | 357° | 20km/h | 29939m | 4.5m/s | -43.1°C | 0% | 12.7hPa | 2.6V | 18:12:15 | 02:11:45 | 00:00:00 | |
| AA1-15 | 2026-09-02 12:29:36 | 51.08356 | 8.05567 | 65° | 16km/h | 29916m | 5.1m/s | -43.1°C | 0% | 12.7hPa | 2.7V | 18:12:15 | 02:11:41 | 00:00:00 | |
| DL1XH-west | 2026-09-02 12:29:35 | 51.08355 | 8.05561 | 87° | 15km/h | 29911m | 6.1m/s | -43.1°C | 0% | 12.7hPa | 2.6V | 18:12:15 | 02:11:40 | 00:00:00 | |
| DF8AY | 2026-09-02 12:29:35 | 51.08355 | 8.05556 | 113° | 11km/h | 29904m | 6.6m/s | -43.1°C | 0% | 12.7hPa | 2.6V | 18:12:15 | 02:11:39 | 00:00:00 | |
| BIOWL1-15 | 2026-09-02 12:29:33 | 51.08335 | 8.05537 | 64° | 11km/h | 29824m | 5.1m/s | -43.2°C | 0% | 12.9hPa | 2.7V | 18:12:15 | 02:11:25 | 00:00:00 | |
| DL1NUX | 2026-09-02 12:29:31 | 51.08356 | 8.05545 | 14° | 13km/h | 29865m | 6m/s | -43°C | 2.3% | 12.8hPa | 2.6V | 08:30:00 | 02:11:32 | 00:00:00 | |
| HSKMA3-T | 2026-09-02 12:29:28 | 51.08361 | 8.05549 | 43° | 7km/h | 29876m | 5.7m/s | -43.1°C | 0% | 12.8hPa | 2.6V | 18:12:15 | 02:11:34 | 00:00:00 | |
| DL1XH-15 | 2026-09-02 12:29:27 | 51.08353 | 8.05545 | 4° | 15km/h | 29858m | 6.8m/s | -43.1°C | 2.3% | 12.8hPa | 2.7V | 08:30:00 | 02:11:31 | 00:00:00 | |
| AA1-15 | 2026-09-02 12:29:25 | 51.08353 | 8.05545 | 5° | 15km/h | 29859m | 6.8m/s | -43.1°C | 0% | 12.8hPa | 2.7V | 18:12:15 | 02:11:31 | 00:00:00 | |
| DM0DOS-11 | 2026-09-02 12:29:25 | 51.08339 | 8.05544 | 24° | 11km/h | 29836m | 6.1m/s | -43.2°C | 2.4% | 12.9hPa | 2.6V | 08:30:00 | 02:11:27 | 00:00:00 | |
| DL1XH-west | 2026-09-02 12:29:24 | 51.08349 | 8.05545 | 356° | 15km/h | 29852m | 6m/s | -43.2°C | 0% | 12.8hPa | 2.7V | 18:12:15 | 02:11:30 | 00:00:00 | |
| GOEST3-10 | 2026-09-02 12:29:23 | 51.08345 | 8.05545 | 356° | 13km/h | 29847m | 5.0m/s | -43.0°C | 2.3% | 12.8hPa | 2.6V | 00:00:00 | 00:00:00 | 00:00:00 | |
| SO1NDE-10 | 2026-09-02 12:29:22 | 51.08342 | 8.05545 | 6° | 9km/h | 29842m | 5.0m/s | -43.0°C | 2.3% | 12.8hPa | 2.6V | 00:00:00 | 02:11:28 | 08:30:00 | |
| DL1NUX | 2026-09-02 12:29:21 | 51.08335 | 8.05531 | 201° | 5km/h | 29807m | 7m/s | -43.4°C | 2.4% | 12.9hPa | 2.6V | 08:30:00 | 02:11:22 | 00:00:00 | |
| BIOWL1-15 | 2026-09-02 12:29:20 | 51.08335 | 8.05531 | 124° | 5km/h | 29814m | 5.6m/s | -43.4°C | 0% | 12.9hPa | 2.7V | 18:12:15 | 02:11:23 | 00:00:00 | |
| HSKMA3-T | 2026-09-02 12:29:18 | 51.08334 | 8.05534 | 86° | 9km/h | 29819m | 4.7m/s | -43.3°C | 0% | 12.9hPa | 2.7V | 18:12:15 | 02:11:24 | 00:00:00 | |
| AA1-15 | 2026-09-02 12:29:15 | 51.08337 | 8.05533 | 237° | 11km/h | 29801m | 6.2m/s | -43.4°C | 0% | 12.9hPa | 2.6V | 18:12:15 | 02:11:21 | 00:00:00 | |
| DL1XH-west | 2026-09-02 12:29:14 | 51.08338 | 8.05542 | 273° | 13km/h | 29790m | 5.7m/s | -43.4°C | 0% | 13hPa | 2.7V | 18:12:15 | 02:11:19 | 00:00:00 | |
| DM0DOS-11 | 2026-09-02 12:29:13 | 51.08335 | 8.05551 | 323° | 13km/h | 29778m | 5.7m/s | -43.6°C | 2.4% | 13hPa | 2.7V | 08:30:00 | 02:11:17 | 00:00:00 | |
| GOEST3-10 | 2026-09-02 12:29:13 | 51.08338 | 8.05542 | 273° | 13km/h | 29790m | 5.7m/s | -43.3°C | 2.4% | 12.9hPa | 2.7V | 00:00:00 | 00:00:00 | 00:00:00 | |
| DO9LL-15 | 2026-09-02 12:29:12 | 51.08338 | 8.05547 | 297° | 11km/h | 29784m | 6.3m/s | -43.5°C | 2.4% | 12.9hPa | 2.7V | 00:00:00 | 02:11:18 | 00:00:00 | |
| DL1NUX | 2026-09-02 12:29:11 | 51.08323 | 8.05556 | 10° | 5km/h | 29749m | 5m/s | -43.7°C | 2.4% | 13hPa | 2.7V | 08:30:00 | 02:11:12 | 00:00:00 | |
| BIOWL1-15 | 2026-09-02 12:29:08 | 51.08323 | 8.05556 | 11° | 5km/h | 29749m | 5.1m/s | -43.7°C | 0% | 13hPa | 2.7V | 18:12:15 | 02:11:12 | 00:00:00 | |
| HSKMA3-T | 2026-09-02 12:29:07 | 51.08324 | 8.05556 | 348° | 9km/h | 29755m | 5.6m/s | -43.8°C | 0% | 13hPa | 2.7V | 18:12:15 | 02:11:13 | 00:00:00 | |
| DM0DOS-11 | 2026-09-02 12:29:06 | 51.08317 | 8.05544 | 58° | 4km/h | 29720m | 5.3m/s | -43.7°C | 2.4% | 13.1hPa | 2.7V | 08:30:00 | 02:11:07 | 00:00:00 | |
| AA1-15 | 2026-09-02 12:29:05 | 51.08320 | 8.05553 | 60° | 9km/h | 29738m | 6.9m/s | -43.9°C | 0% | 13.1hPa | 2.6V | 18:12:15 | 02:11:10 | 00:00:00 | |
| DL1XH-west | 2026-09-02 12:29:02 | 51.08318 | 8.05546 | 63° | 7km/h | 29726m | 5.2m/s | -43.8°C | 0% | 13.1hPa | 2.6V | 18:12:15 | 02:11:08 | 00:00:00 | |
| DF8AY | 2026-09-02 12:29:01 | 51.08317 | 8.05545 | 270° | 7km/h | 29708m | 5.9m/s | -43.7°C | 0% | 13.1hPa | 2.7V | 18:12:15 | 02:11:05 | 00:00:00 | |
| BIOWL1-15 | 2026-09-02 12:28:59 | 51.08297 | 8.05537 | 59° | 11km/h | 29650m | 5.4m/s | -43.8°C | 0% | 13.2hPa | 2.7V | 18:12:15 | 02:10:55 | 00:00:00 | |
| DD8BA-10 | 2026-09-02 12:28:59 | 51.08317 | 8.05545 | 270° | 11km/h | 29708m | 5.9m/s | -43.7°C | 2.4% | 13.1hPa | 2.7V | 00:00:00 | 00:00:00 | 00:00:00 | |
| DL1XH1-15 | 2026-09-02 12:28:58 | 51.08305 | 8.05550 | 30° | 15km/h | 29673m | 5.8m/s | -43.7°C | 2.4% | 13.2hPa | 2.7V | 08:30:00 | 02:10:59 | 00:00:00 | |
| HSKMA3-T | 2026-09-02 12:28:57 | 51.08316 | 8.05552 | 303° | 9km/h | 29697m | 5.4m/s | -43.7°C | 0% | 13.2hPa | 2.6V | 18:12:15 | 02:11:03 | 00:00:00 | |
| AA1-15 | 2026-09-02 12:28:54 | 51.08309 | 8.05553 | 22° | 15km/h | 29679m | 5.5m/s | -43.6°C | 0% | 13.2hPa | 2.7V | 18:12:15 | 02:11:00 | 00:00:00 | |
| DM0DOS-11 | 2026-09-02 12:28:53 | 51.08300 | 8.05544 | 46° | 11km/h | 29661m | 5.8m/s | -43.9°C | 2.5% | 13.2hPa | 2.6V | 08:30:00 | 02:10:57 | 00:00:00 | |
| DL1XH-west | 2026-09-02 12:28:51 | 51.08300 | 8.05544 | 47° | 11km/h | 29661m | 5.8m/s | -43.9°C | 0% | 13.2hPa | 2.6V | 18:12:15 | 02:10:57 | 00:00:00 | |
| DJ8HS-15 | 2026-09-02 12:28:50 | 51.08298 | 8.05540 | 55° | 15km/h | 29656m | 5.1m/s | -43.8°C | 2.5% | 13.2hPa | 2.7V | 00:00:00 | 02:10:56 | 00:00:00 | |
| DD8BA-10 | 2026-09-02 12:28:48 | 51.08295 | 8.05532 | 58° | 15km/h | 29645m | 6.6m/s | -43.7°C | 2.5% | 13.2hPa | 2.7V | 00:00:00 | 00:00:00 | 00:00:00 | |
| DL1XH-15 | 2026-09-02 12:28:47 | 51.08288 | 8.05524 | 1° | 11km/h | 29627m | 5.1m/s | -43.9°C | 2.5% | 13.3hPa | 2.6V | 08:30:00 | 02:10:51 | 00:00:00 | |
| HSKMA3-T | 2026-09-02 12:28:47 | 51.08293 | 8.05528 | 48° | 13km/h | 29638m | 5.7m/s | -43.8°C | 0% | 13.3hPa | 2.7V | 18:12:15 | 02:10:53 | 00:00:00 | |
| DL8DAS-15 | 2026-09-02 12:28:46 | 51.08290 | 8.05525 | 32° | 13km/h | 29633m | 5.0m/s | -43.8°C | 0.5% | 13.3hPa | 2.7V | 00:00:00 | 00:00:00 | 00:00:00 | |
| BIOWL1-15 | 2026-09-02 12:28:46 | 51.08283 | 8.05528 | 309° | 16km/h | 29614m | 6.9m/s | -44°C | 0% | 13.3hPa | 2.7V | 18:12:15 | 02:10:49 | 00:00:00 | |
| DB0UT-7 | 2026-09-02 12:28:45 | 51.08288 | 8.05523 | 2° | 16km/h | 29628m | 5.1m/s | -43.9°C | 2.5% | 13.2hPa | 2.7V | 00:00:00 | 02:10:51 | 00:00:00 | |
| DL1XH1-15 | 2026-09-02 12:28:44 | 51.08282 | 8.05528 | 309° | 16km/h | 29614m | 6.9m/s | -44°C | 2.5% | 13.3hPa | 2.7V | 08:30:00 | 02:10:49 | 00:00:00 | |
| AA1-15 | 2026-09-02 12:28:43 | 51.08280 | 8.05534 | 302° | 18km/h | 29608m | 5.2m/s | -44.1°C | 0% | 13.3hPa | 2.7V | 18:12:15 | 02:10:48 | 00:00:00 | |
| DF8AY | 2026-09-02 12:28:41 | 51.08271 | 8.05546 | 358° | 15km/h | 29592m | 6.6m/s | -44.2°C | 0% | 13.4hPa | 2.6V | 18:12:15 | 02:10:45 | 00:00:00 | |
| DL1XH-west | 2026-09-02 12:28:40 | 51.08275 | 8.05544 | 327° | 15km/h | 29598m | 5.9m/s | -44.2°C | 0% | 13.3hPa | 2.6V | 18:12:15 | 02:10:46 | 00:00:00 | |
| DD1CC8 | 2026-09-02 12:28:40 | 51.08271 | 8.05546 | 358° | 13km/h | 29592m | 6.6m/s | -44.2°C | 0.5% | 13.4hPa | 2.7V | 00:00:00 | 00:00:00 | 00:00:00 | |
| DL1XH-15 | 2026-09-02 12:28:39 | 51.08258 | 8.05529 | 55° | 16km/h | 29567m | 6.3m/s | -43.9°C | 2.4% | 13.4hPa | 2.7V | 08:30:00 | 02:10:41 | 00:00:00 | |
| SONCRA | 2026-09-02 12:28:39 | 51.08271 | 8.05546 | 358° | 13km/h | 29592m | 6.6m/s | -44.2°C | 0.5% | 13.4hPa | 2.6V | 00:00:00 | 00:00:00 | 00:00:00 | |
| DJ2DS-15 | 2026-09-02 12:28:38 | 51.08268 | 8.05544 | 28° | 18km/h | 29586m | 5.9m/s | -44.1°C | 2.5% | 13.3hPa | 2.6V | 00:00:00 | 02:10:44 | 00:00:00 | |
| DL1XH1-15 | 2026-09-02 12:28:37 | 51.08253 | 8.05520 | 37° | 11km/h | 29556m | 5.3m/s | -43.9°C | 2.5% | 13.4hPa | 2.6V | 08:30:00 | 02:10:39 | 00:00:00 | |
| HSKMA3-T | 2026-09-02 12:28:36 | 51.08261 | 8.05534 | 51° | 20km/h | 29574m | 6.4m/s | -44°C | 0% | 13.4hPa | 2.7V | 18:12:15 | 02:10:42 | 00:00:00 | |
| BIOWL1-15 | 2026-09-02 12:28:35 | 51.08251 | 8.05518 | 17° | 13km/h | 29550m | 5.7m/s | -44°C | 0% | 13.4hPa | 2.6V | 18:12:15 | 02:10:38 | 00:00:00 | |
| DD1CC3-15 | 2026-09-02 12:28:35 | 51.08261 | 8.05534 | 52° | 20km/h | 29574m | 6.4m/s | -44.0°C | 0.5% | 13.4hPa | 2.7V | 00:00:00 | 00:00:00 | 00:00:00 | |
| DM0DOS-11 | 2026-09-02 12:28:33 | 51.08248 | 8.05517 | 1° | 15km/h | 29544m | 6.8m/s | -43.9°C | 2.5% | 13.4hPa | 2.7V | 08:30:00 | 02:10:37 | 00:00:00 | |
| GOEST3-10 | 2026-09-02 12:28:33 | 51.08253 | 8.05520 | 38° | 15km/h | 29556m | 5.3m/s | -43.9°C | 2.5% | 13.4hPa | 2.6V | 00:00:00 | 00:00:00 | 00:00:00 | |
| NBG1-10 | 2026-09-02 12:28:32 | 51.08251 | 8.05518 | 17° | 16km/h | 29551m | 5.7m/s | -43.9°C | 2.5% | 13.4hPa | 2.6V | 00:00:00 | 02:10:38 | 00:00:00 | |
| AA1-15 | 2026-09-02 12:28:32 | 51.08248 | 8.05517 | 2° | 15km/h | 29544m | 6.8m/s | -43.9°C | 0% | 13.5hPa | 2.7V | 18:12:15 | 02:10:37 | 00:00:00 | |
| DL1NUX | 2026-09-02 12:28:31 | 51.08226 | 8.05538 | 311° | 20km/h | 29514m | 4.7m/s | -43.8°C | 2.5% | 13.5hPa | 2.6V | 08:30:00 | 02:10:32 | 00:00:00 | |
| DL1XH-west | 2026-09-02 12:28:30 | 51.08244 | 8.05518 | 347° | 18km/h | 29538m | 5.9m/s | -43.8°C | 0% | 13.5hPa | 2.7V | 18:12:15 | 02:10:36 | 00:00:00 | |
| BIOWL1-15 | 2026-09-02 12:28:27 | 51.08216 | 8.05544 | 30° | 16km/h | 29498m | 7.1m/s | -43.9°C | 0% | 13.5hPa | 2.7V | 18:12:15 | 02:10:29 | 00:00:00 | |
| DF8AY | 2026-09-02 12:28:26 | 51.08226 | 8.05538 | 312° | 20km/h | 29514m | 4.7m/s | -43.8°C | 0% | 13.5hPa | 2.6V | 18:12:15 | 02:10:32 | 00:00:00 | |
| DM0DOS-11 | 2026-09-02 12:28:26 | 51.08209 | 8.05530 | 62° | 27km/h | 29486m | 5.3m/s | -44°C | 2.5% | 13.6hPa | 2.6V | 08:30:00 | 02:10:27 | 00:00:00 | |
| HSKMA3-T | 2026-09-02 12:28:25 | 51.08223 | 8.05543 | 324° | 16km/h | 29510m | 4.1m/s | -43.8°C | 0% | 13.5hPa | 2.7V | 18:12:15 | 02:10:31 | 00:00:00 | |
| DL1XH-west | 2026-09-02 12:28:20 | 51.08206 | 8.05520 | 67° | 27km/h | 29481m | 4.8m/s | -44°C | 0% | 13.6hPa | 2.6V | 18:12:15 | 02:10:26 | 00:00:00 | |
| DL1XH-15 | 2026-09-02 12:28:19 | 51.08197 | 8.05498 | 331° | 11km/h | 29453m | 5.2m/s | -43.6°C | 2.5% | 13.6hPa | 2.6V | 08:30:00 | 02:10:21 | 00:00:00 | |
| DL1XH1-15 | 2026-09-02 12:28:19 | 51.08191 | 8.05503 | 341° | 18km/h | 29441m | 6.1m/s | -43.7°C | 2.4% | 13.7hPa | 2.7V | 08:30:00 | 02:10:19 | 00:00:00 | |
| HSKMA3-T | 2026-09-02 12:28:14 | 51.08194 | 8.05501 | 333° | 15km/h | 29447m | 6.7m/s | -43.6°C | 0% | 13.6hPa | 2.6V | 18:12:15 | 02:10:20 | 00:00:00 | |
| DF8AY | 2026-09-02 12:28:13 | 51.08190 | 8.05503 | 341° | 18km/h | 29441m | 6.1m/s | -43.7°C | 0% | 13.7hPa | 2.7V | 18:12:15 | 02:10:19 | 00:00:00 | |
| DM0DOS-11 | 2026-09-02 12:28:13 | 51.08182 | 8.05505 | 0° | 15km/h | 29431m | 4.6m/s | -43.9°C | 2.4% | 13.7hPa | 2.7V | 08:30:00 | 02:10:17 | 00:00:00 | |
| BIOWL1-15 | 2026-09-02 12:28:13 | 51.08178 | 8.05498 | 129° | 11km/h | 29407m | 5.6m/s | -44.1°C | 0% | 13.7hPa | 2.7V | 18:12:15 | 02:10:13 | 00:00:00 | |
| AA1-15 | 2026-09-02 12:28:11 | 51.08182 | 8.05505 | 1° | 15km/h | 29431m | 4.6m/s | -43.9°C | 0% | 13.7hPa | 2.7V | 18:12:15 | 02:10:17 | 00:00:00 | |
| DL1NUX | 2026-09-02 12:28:11 | 51.08180 | 8.05494 | 123° | 13km/h | 29401m | 4.9m/s | -43.9°C | 2.5% | 13.8hPa | 2.7V | 08:30:00 | 02:10:12 | 00:00:00 | |
| DL1XH-west | 2026-09-02 12:28:09 | 51.08177 | 8.05503 | 53° | 5km/h | 29419m | 6.4m/s | -44.1°C | 0% | 13.7hPa | 2.6V | 18:12:15 | 02:10:15 | 00:00:00 | |
| DD1CC8 | 2026-09-02 12:28:09 | 51.08177 | 8.05501 | 112° | 7km/h | 29413m | 6.5m/s | -44.1°C | 0.5% | 13.7hPa | 2.6V | 00:00:00 | 00:00:00 | 00:00:00 | |
| DD8BA-10 | 2026-09-02 12:28:08 | 51.08177 | 8.05501 | 113° | 13km/h | 29413m | 6.5m/s | -44.1°C | 2.5% | 13.7hPa | 2.6V | 00:00:00 | 00:00:00 | 00:00:00 | |
| DD1CC2-15 | 2026-09-02 12:28:06 | 51.08178 | 8.05498 | 130° | 11km/h | 29407m | 5.6m/s | -44.1°C | 0.5% | 13.7hPa | 2.6V | 00:00:00 | 00:00:00 | 00:00:00 | |
| DL3OBA | 2026-09-02 12:28:05 | 51.08180 | 8.05494 | 124° | 13km/h | 29402m | 4.9m/s | -43.9°C | 0.5% | 13.8hPa | 2.6V | 00:00:00 | 00:00:00 | 00:00:00 | |
| DL1XH1-15 | 2026-09-02 12:28:04 | 51.08181 | 8.05479 | 55° | 13km/h | 29385m | 5.2m/s | -43.8°C | 2.4% | 13.8hPa | 2.6V | 08:30:00 | 02:10:09 | 00:00:00 | |
| HSKMA3-T | 2026-09-02 12:28:03 | 51.08181 | 8.05479 | 56° | 13km/h | 29385m | 5.2m/s | -43.8°C | 0% | 13.8hPa | 2.6V | 18:12:15 | 02:10:09 | 00:00:00 | |
| DM0DOS-11 | 2026-09-02 12:28:03 | 51.08175 | 8.05474 | 355° | 15km/h | 29374m | 5.9m/s | -44°C | 2.5% | 13.8hPa | 2.7V | 08:30:00 | 02:10:07 | 00:00:00 | |
| BIOWL1-15 | 2026-09-02 12:28:02 | 51.08172 | 8.05476 | 330° | 16km/h | 29368m | 6.9m/s | -44.1°C | 0% | 13.8hPa | 2.7V | 18:12:15 | 02:10:06 | 00:00:00 | |
| AA1-15 | 2026-09-02 12:28:01 | 51.08175 | 8.05474 | 355° | 15km/h | 29374m | 5.9m/s | -44°C | 0% | 13.8hPa | 2.7V | 18:12:15 | 02:10:07 | 00:00:00 | |
| DL1XH-west | 2026-09-02 12:27:58 | 51.08166 | 8.05486 | 301° | 18km/h | 29357m | 4.5m/s | -44.1°C | 0% | 13.8hPa | 2.6V | 18:12:15 | 02:10:04 | 00:00:00 | |
| EDDB2-11 | 2026-09-02 12:27:56 | 51.08161 | 8.05497 | 351° | 2km/h | 29341m | 5.6m/s | -43.9°C | 0.5% | 13.9hPa | 2.6V | 00:00:00 | 00:00:00 | 00:00:00 | |
| DB0ND-19 | 2026-09-02 12:27:55 | 51.08161 | 8.05496 | 94° | 5km/h | 29335m | 5.6m/s | -43.9°C | 0.5% | 13.9hPa | 2.6V | 00:00:00 | 00:00:00 | 00:00:00 | |
| WPPR-10 | 2026-09-02 12:27:54 | 51.08161 | 8.05496 | 94° | 5km/h | 29335m | 5.6m/s | -43.9°C | 0.5% | 13.9hPa | 2.6V | 00:00:00 | 00:00:00 | 00:00:00 | |
| DM0DOS-11 | 2026-09-02 12:27:53 | 51.08167 | 8.05484 | 142° | 18km/h | 29317m | 6.2m/s | -43.8°C | 2.5% | 13.9hPa | 2.6V | 08:30:00 | 02:09:57 | 00:00:00 | |
| HSKMA3-T | 2026-09-02 12:27:53 | 51.08162 | 8.05493 | 118° | 11km/h | 29330m | 5.7m/s | -43.9°C | 0% | 13.9hPa | 2.7V | 18:12:15 | 02:09:59 | 00:00:00 | |
| AA1-15 | 2026-09-02 12:27:51 | 51.08167 | 8.05484 | 143° | 18km/h | 29317m | 6.2m/s | -43.8°C | 0% | 13.9hPa | 2.6V | 18:12:15 | 02:09:57 | 00:00:00 | |
| DL1NUX | 2026-09-02 12:27:51 | 51.08173 | 8.05475 | 352° | 13km/h | 29291m | 6m/s | -44°C | 2.5% | 14hPa | 2.6V | 08:30:00 | 02:09:52 | 00:00:00 | |
| DF8AY | 2026-09-02 12:27:50 | 51.08173 | 8.05478 | 154° | 11km/h | 29307m | 3.7m/s | -43.8°C | 0% | 13.9hPa | 2.7V | 18:12:15 | 02:09:55 | 00:00:00 | |
| BIOWL1-15 | 2026-09-02 12:27:49 | 51.08165 | 8.05480 | 331° | 20km/h | 29280m | 5m/s | -43.8°C | 0% | 14hPa | 2.6V | 18:12:15 | 02:09:50 | 00:00:00 | |
| DL1XH-west | 2026-09-02 12:27:48 | 51.08175 | 8.05476 | 144° | 5km/h | 29303m | 5.1m/s | -43.9°C | 0% | 14hPa | 2.7V | 18:12:15 | 02:09:54 | 00:00:00 | |
| HSKMA3-T | 2026-09-02 12:27:44 | 51.08162 | 8.05484 | 317° | 18km/h | 29274m | 5.9m/s | -43.8°C | 0% | 14hPa | 2.7V | 18:12:15 | 02:09:49 | 00:00:00 | |
| SP3BTT-10 | 2026-09-02 12:27:43 | 51.08162 | 8.05484 | 318° | 11km/h | 29275m | 5.8m/s | 0°C | 0% | 0hPa | 2.7V | 00:00:00 | 00:00:00 | 00:00:00 | |
| DM0DOS-11 | 2026-09-02 12:27:42 | 51.08158 | 8.05495 | 262° | 13km/h | 29264m | 4.6m/s | -43.9°C | 2.4% | 14hPa | 2.7V | 08:30:00 | 02:09:47 | 00:00:00 | |
| AA1-15 | 2026-09-02 12:27:40 | 51.08160 | 8.05499 | 220° | 11km/h | 29259m | 4.8m/s | -43.9°C | 0% | 14hPa | 2.6V | 18:12:15 | 02:09:46 | 00:00:00 | |
| AU51GT2 | 2026-09-02 12:27:40 | 51.08160 | 8.05499 | 219° | 9km/h | 29259m | 4.8m/s | -43.9°C | 0.5% | 14.0hPa | 2.7V | 00:00:00 | 00:00:00 | 00:00:00 | |
| DL1XH-15 | 2026-09-02 12:27:39 | 51.08173 | 8.05484 | 125° | 15km/h | 29232m | 4.1m/s | -43.6°C | 2.5% | 14.1hPa | 2.7V | 08:30:00 | 02:09:41 | 00:00:00 | |
| BIOWL1-15 | 2026-09-02 12:27:39 | 51.08162 | 8.05500 | 180° | 11km/h | 29254m | 6.2m/s | -43.9°C | 0% | 14.1hPa | 2.6V | 18:12:15 | 02:09:45 | 00:00:00 | |
| DJ2DS-15 | 2026-09-02 12:27:38 | 51.08165 | 8.05499 | 149° | 11km/h | 29248m | 6.3m/s | -43.8°C | 2.5% | 14.0hPa | 2.7V | 00:00:00 | 02:09:44 | 00:00:00 | |
| DL1NUX | 2026-09-02 12:27:37 | 51.08170 | 8.05489 | 124° | 16km/h | 29236m | 4.4m/s | -43.7°C | 2.5% | 14.1hPa | 2.7V | 08:30:00 | 02:09:42 | 00:00:00 | |
| DL1XH-west | 2026-09-02 12:27:37 | 51.08168 | 8.05495 | 132° | 16km/h | 29241m | 5.5m/s | -43.8°C | 0% | 14.1hPa | 2.7V | 18:12:15 | 02:09:43 | 00:00:00 | |
| DM0DOS-11 | 2026-09-02 12:27:37 | 51.08179 | 8.05483 | 263° | 11km/h | 29211m | 4.7m/s | -43.8°C | 2.5% | 14.1hPa | 2.7V | 08:30:00 | 02:09:37 | 00:00:00 | |
| DO3DL | 2026-09-02 12:27:34 | 51.08173 | 8.05484 | 127° | 15km/h | 29232m | 4.1m/s | -43.6°C | 0.5% | 14.1hPa | 2.6V | 00:00:00 | 00:00:00 | 00:00:00 | |
| DD1CC3-15 | 2026-09-02 12:27:33 | 51.08175 | 8.05480 | 138° | 11km/h | 29228m | 5.3m/s | -43.6°C | 0.5% | 14.1hPa | 2.6V | 00:00:00 | 00:00:00 | 00:00:00 | |
| GOEST3-10 | 2026-09-02 12:27:32 | 51.08178 | 8.05480 | 233° | 11km/h | 29217m | 5.3m/s | -43.7°C | 2.5% | 14.1hPa | 2.6V | 00:00:00 | 00:00:00 | 00:00:00 | |
| HSKMA3-T | 2026-09-02 12:27:32 | 51.08178 | 8.05480 | 233° | 7km/h | 29216m | 5.4m/s | -43.8°C | 0% | 14.1hPa | 2.6V | 18:12:15 | 02:09:38 | 00:00:00 | |
| DL1NUX | 2026-09-02 12:27:31 | 51.08171 | 8.05496 | 18° | 7km/h | 29185m | 4.9m/s | -43.8°C | 2.4% | 14.2hPa | 2.6V | 08:30:00 | 02:09:32 | 00:00:00 | |
| DF8AY | 2026-09-02 12:27:30 | 51.08178 | 8.05492 | 304° | 11km/h | 29201m | 6m/s | -43.7°C | 0% | 14.2hPa | 2.7V | 18:12:15 | 02:09:35 | 00:00:00 | |
| BIOWL1-15 | 2026-09-02 12:27:28 | 51.08176 | 8.05495 | 331° | 11km/h | 29195m | 6m/s | -43.7°C | 0% | 14.2hPa | 2.6V | 18:12:15 | 02:09:34 | 00:00:00 | |
| DL1XH-15 | 2026-09-02 12:27:28 | 51.08170 | 8.05495 | 43° | 5km/h | 29179m | 6.2m/s | -43.9°C | 2.4% | 14.2hPa | 2.7V | 08:30:00 | 02:09:31 | 00:00:00 | |
| DL1XH-west | 2026-09-02 12:27:27 | 51.08173 | 8.05497 | 355° | 9km/h | 29190m | 5m/s | -43.7°C | 0% | 14.2hPa | 2.6V | 18:12:15 | 02:09:33 | 00:00:00 | |
| HSKMA3-T | 2026-09-02 12:27:22 | 51.08171 | 8.05488 | 124° | 11km/h | 29164m | 4.8m/s | -43.7°C | 0% | 14.3hPa | 2.6V | 18:12:15 | 02:09:28 | 00:00:00 | |
| DL1NUX | 2026-09-02 12:27:21 | 51.08171 | 8.05476 | 290° | 9km/h | 29133m | 6.1m/s | -43.9°C | 2.5% | 14.3hPa | 2.6V | 08:30:00 | 02:09:22 | 00:00:00 | |
| DO3DL | 2026-09-02 12:27:20 | 51.08173 | 8.05484 | 115° | 11km/h | 29159m | 5.9m/s | -43.6°C | 0.5% | 14.3hPa | 2.6V | 00:00:00 | 00:00:00 | 00:00:00 | |
| DL1XH-15 | 2026-09-02 12:27:19 | 51.08170 | 8.05480 | 281° | 11km/h | 29128m | 5.1m/s | -43.9°C | 2.5% | 14.3hPa | 2.6V | 08:30:00 | 02:09:21 | 00:00:00 | |
| BIOWL1-15 | 2026-09-02 12:27:17 | 51.08172 | 8.05474 | 327° | 4km/h | 29139m | 5.7m/s | -43.9°C | 0% | 14.3hPa | 2.7V | 18:12:15 | 02:09:23 | 00:00:00 | |
| DL1XH-west | 2026-09-02 12:27:16 | 51.08171 | 8.05476 | 290° | 9km/h | 29133m | 6.1m/s | -43.9°C | 0% | 14.3hPa | 2.6V | 18:12:15 | 02:09:22 | 00:00:00 | |
| DL1XH1-15 | 2026-09-02 12:27:15 | 51.08170 | 8.05486 | 301° | 4km/h | 29118m | 5.8m/s | -43.7°C | 2.5% | 14.3hPa | 2.7V | 08:30:00 | 02:09:19 | 00:00:00 | |
| HSKMA3-T | 2026-09-02 12:27:12 | 51.08169 | 8.05486 | 56° | 4km/h | 29112m | 5.7m/s | -43.6°C | 0% | 14.3hPa | 2.7V | 18:12:15 | 02:09:18 | 00:00:00 | |
| DO9LL-15 | 2026-09-02 12:27:12 | 51.08169 | 8.05486 | 56° | 9km/h | 29113m | 5.6m/s | -43.5°C | 2.4% | 14.3hPa | 2.7V | 00:00:00 | 02:09:18 | 00:00:00 | |
| DL1NUX | 2026-09-02 12:27:11 | 51.08171 | 8.05465 | 126° | 7km/h | 29081m | 4.4m/s | -43.6°C | 2.4% | 14.4hPa | 2.7V | 08:30:00 | 02:09:12 | 00:00:00 | |
| DB0DAN | 2026-09-02 12:27:10 | 51.08168 | 8.05480 | 89° | 11km/h | 29102m | 4.7m/s | -43.5°C | 0% | 14.4hPa | 2.6V | 00:00:00 | 00:00:00 | 00:00:00 | |
| DF8AY | 2026-09-02 12:27:08 | 51.08170 | 8.05467 | 119° | 7km/h | 29086m | 5m/s | -43.6°C | 0% | 14.4hPa | 2.7V | 18:12:15 | 02:09:13 | 00:00:00 | |
| DD8BA-10 | 2026-09-02 12:27:08 | 51.08169 | 8.05471 | 108° | 7km/h | 29092m | 5.7m/s | -43.6°C | 2.4% | 14.4hPa | 2.7V | 00:00:00 | 00:00:00 | 00:00:00 | |
| DL1XH-15 | 2026-09-02 12:27:07 | 51.08172 | 8.05463 | 117° | 5km/h | 29077m | 4.3m/s | -43.7°C | 2.4% | 14.4hPa | 2.7V | 08:30:00 | 02:09:11 | 00:00:00 | |
| DL1XH-west | 2026-09-02 12:27:05 | 51.08172 | 8.05463 | 117° | 5km/h | 29077m | 4.3m/s | -43.7°C | 0% | 14.4hPa | 2.7V | 18:12:15 | 02:09:11 | 00:00:00 | |
| DL4XJ-10 | 2026-09-02 12:27:05 | 51.08171 | 8.05462 | 118° | 7km/h | 29077m | 4.3m/s | -43.4°C | 0% | 0hPa | 2.6V | 00:00:00 | 00:00:00 | 00:00:00 | |
| DL1XH1-15 | 2026-09-02 12:27:04 | 51.08172 | 8.05458 | 76° | 7km/h | 29066m | 5.8m/s | -43.9°C | 2.5% | 14.5hPa | 2.6V | 08:30:00 | 02:09:09 | 00:00:00 | |
| HSKMA3-T | 2026-09-02 12:27:02 | 51.08171 | 8.05455 | 56° | 9km/h | 29061m | 5m/s | -43.9°C | 0% | 14.5hPa | 2.6V | 18:12:15 | 02:09:08 | 00:00:00 | |
| DM0DOS-11 | 2026-09-02 12:27:01 | 51.08170 | 8.05452 | 34° | 7km/h | 29056m | 4.6m/s | -44°C | 2.5% | 14.5hPa | 2.7V | 08:30:00 | 02:09:07 | 00:00:00 | |
| DL1NUX | 2026-09-02 12:27:01 | 51.08164 | 8.05455 | 116° | 2km/h | 29030m | 6.2m/s | -43.8°C | 2.5% | 14.5hPa | 2.6V | 08:30:00 | 02:09:02 | 00:00:00 | |
| DL1XH-15 | 2026-09-02 12:26:59 | 51.08165 | 8.05453 | 117° | 9km/h | 29024m | 5.4m/s | -43.8°C | 2.5% | 14.5hPa | 2.7V | 08:30:00 | 02:09:01 | 00:00:00 | |
| BUE01 | 2026-09-02 12:26:59 | 51.08166 | 8.05452 | 332° | 7km/h | 29045m | 5.6m/s | -43.7°C | 0.5% | 14.5hPa | 2.7V | 00:00:00 | 00:00:00 | 00:00:00 | |
| DL1XH1-15 | 2026-09-02 12:26:58 | 51.08168 | 8.05444 | 119° | 15km/h | 29015m | 4.8m/s | -43.8°C | 2.5% | 14.6hPa | 2.7V | 08:30:00 | 02:08:59 | 00:00:00 | |
| AA1-15 | 2026-09-02 12:26:56 | 51.08164 | 8.05455 | 117° | 2km/h | 29030m | 6.2m/s | -43.8°C | 0% | 14.5hPa | 2.6V | 18:12:15 | 02:09:02 | 00:00:00 | |
| DL1XH-west | 2026-09-02 12:26:55 | 51.08165 | 8.05453 | 117° | 9km/h | 29024m | 5.4m/s | -43.8°C | 0% | 14.5hPa | 2.7V | 18:12:15 | 02:09:01 | 00:00:00 | |
| BIOWL1-15 | 2026-09-02 12:26:54 | 51.08168 | 8.05444 | 119° | 15km/h | 29015m | 4.8m/s | -43.8°C | 0% | 14.6hPa | 2.7V | 18:12:15 | 02:08:59 | 00:00:00 | |
| HSKMA3-T | 2026-09-02 12:26:52 | 51.08169 | 8.05439 | 123° | 13km/h | 29009m | 5.5m/s | -43.8°C | 0% | 14.6hPa | 2.6V | 18:12:15 | 02:08:58 | 00:00:00 | |
| SO1NDE-10 | 2026-09-02 12:26:52 | 51.08169 | 8.05439 | 123° | 11km/h | 29010m | 5.4m/s | -43.8°C | 2.5% | 14.5hPa | 2.6V | 00:00:00 | 02:08:58 | 00:00:00 | |
| DL1NUX | 2026-09-02 12:26:51 | 51.08168 | 8.05424 | 54° | 13km/h | 28979m | 5.5m/s | -44°C | 2.5% | 14.7hPa | 2.6V | 08:30:00 | 02:08:52 | 00:00:00 | |
| DJ8HS-15 | 2026-09-02 12:26:50 | 51.08172 | 8.05433 | 119° | 9km/h | 28999m | 4.8m/s | -43.8°C | 2.4% | 14.6hPa | 2.7V | 00:00:00 | 02:08:56 | 00:00:00 | |
| DO2KSM | 2026-09-02 12:26:49 | 51.08172 | 8.05433 | 120° | 5km/h | 28999m | 4.9m/s | -43.8°C | 0.5% | 14.6hPa | 2.7V | 00:00:00 | 00:00:00 | 00:00:00 | |
| DD8BA-10 | 2026-09-02 12:26:48 | 51.08171 | 8.05430 | 52° | 11km/h | 28990m | 4.4m/s | -43.8°C | 2.4% | 14.6hPa | 2.7V | 00:00:00 | 00:00:00 | 08:30:00 | |
| DL1XH-15 | 2026-09-02 12:26:47 | 51.08166 | 8.05419 | 52° | 15km/h | 28974m | 4.9m/s | -44.1°C | 2.4% | 14.6hPa | 2.6V | 08:30:00 | 02:08:51 | 00:00:00 | |
| DF8AY | 2026-09-02 12:26:46 | 51.08156 | 8.05389 | 97° | 9km/h | 28929m | 4.5m/s | -44.2°C | 0% | 14.8hPa | 2.7V | 18:12:15 | 02:08:42 | 00:00:00 | |
| DL3AQ-11 | 2026-09-02 12:26:46 | 51.08166 | 8.05419 | 52° | 15km/h | 28974m | 4.9m/s | -44.2°C | 0.5% | 14.6hPa | 2.7V | 00:00:00 | 00:00:00 | 00:00:00 | |
| DL4XJ-10 | 2026-09-02 12:26:45 | 51.08166 | 8.05419 | 53° | 11km/h | 28974m | 4.8m/s | -43.9°C | 0% | 0hPa | 2.7V | 00:00:00 | 00:00:00 | 00:00:00 | |
| DL1XH1-15 | 2026-09-02 12:26:44 | 51.08162 | 8.05411 | 38° | 13km/h | 28963m | 5.9m/s | -44.4°C | 2.5% | 14.7hPa | 2.7V | 08:30:00 | 02:08:49 | 00:00:00 | |
| DL1XH-west | 2026-09-02 12:26:44 | 51.08164 | 8.05415 | 48° | 15km/h | 28969m | 4.8m/s | -44.3°C | 0% | 14.7hPa | 2.6V | 18:12:15 | 02:08:50 | 00:00:00 | |
| BIOWL1-15 | 2026-09-02 12:26:43 | 51.08159 | 8.05409 | 30° | 9km/h | 28958m | 4.8m/s | -44.3°C | 0% | 14.7hPa | 2.7V | 18:12:15 | 02:08:48 | 00:00:00 | |
| HSKMA3-T | 2026-09-02 12:26:41 | 51.08157 | 8.05407 | 34° | 7km/h | 28954m | 4m/s | -44.2°C | 0% | 14.7hPa | 2.7V | 18:12:15 | 02:08:47 | 00:00:00 | |
| DB0NH | 2026-09-02 12:26:41 | 51.08157 | 8.05407 | 34° | 11km/h | 28954m | 4.0m/s | -44.2°C | 2.5% | 14.7hPa | 2.7V | 00:00:00 | 02:08:47 | 00:00:00 | |
| DL1XH-15 | 2026-09-02 12:26:39 | 51.08155 | 8.05387 | 76° | 5km/h | 28924m | 5.8m/s | -44.2°C | 2.5% | 14.8hPa | 2.7V | 08:30:00 | 02:08:41 | 00:00:00 | |
| DL1XH1-15 | 2026-09-02 12:26:38 | 51.08153 | 8.05386 | 341° | 9km/h | 28913m | 4.4m/s | -44.2°C | 2.5% | 14.8hPa | 2.6V | 08:30:00 | 02:08:39 | 00:00:00 | |
| AA1-15 | 2026-09-02 12:26:35 | 51.08156 | 8.05387 | 76° | 5km/h | 28924m | 5.8m/s | -44.2°C | 0% | 14.8hPa | 2.7V | 18:12:15 | 02:08:41 | 00:00:00 | |
| DL1XH-west | 2026-09-02 12:26:34 | 51.08155 | 8.05386 | 0° | 5km/h | 28918m | 5.7m/s | -44.2°C | 0% | 14.8hPa | 2.6V | 18:12:15 | 02:08:40 | 00:00:00 | |
| BIOWL1-15 | 2026-09-02 12:26:32 | 51.08150 | 8.05387 | 350° | 13km/h | 28909m | 3.6m/s | -44.2°C | 0% | 14.8hPa | 2.6V | 18:12:15 | 02:08:38 | 00:00:00 | |
| DM0DOS-11 | 2026-09-02 12:26:32 | 51.08147 | 8.05387 | 5° | 13km/h | 28904m | 5.3m/s | -44.2°C | 2.5% | 14.8hPa | 2.7V | 08:30:00 | 02:08:37 | 00:00:00 | |
| HSKMA3-T | 2026-09-02 12:26:31 | 51.08147 | 8.05387 | 5° | 13km/h | 28904m | 5.3m/s | -44.2°C | 0% | 14.8hPa | 2.7V | 18:12:15 | 02:08:37 | 00:00:00 | |
| DL3AQ-11 | 2026-09-02 12:26:30 | 51.08141 | 8.05382 | 42° | 16km/h | 28894m | 5.1m/s | -44.3°C | 0.5% | 14.8hPa | 2.7V | 00:00:00 | 00:00:00 | 00:00:00 | |
| DD8BA-10 | 2026-09-02 12:26:28 | 51.08137 | 8.05377 | 51° | 15km/h | 28889m | 4.2m/s | -44.3°C | 2.5% | 14.8hPa | 2.7V | 00:00:00 | 00:00:00 | 00:00:00 | |
| DL1XH-15 | 2026-09-02 12:26:27 | 51.08128 | 8.05362 | 28° | 15km/h | 28874m | 5.5m/s | -44.5°C | 2.5% | 14.9hPa | 2.7V | 08:30:00 | 02:08:31 | 00:00:00 | |
| AA1-15 | 2026-09-02 12:26:25 | 51.08128 | 8.05362 | 29° | 15km/h | 28874m | 5.6m/s | -44.5°C | 0% | 14.9hPa | 2.7V | 18:12:15 | 02:08:31 | 00:00:00 | |
| DJ2KF-10 | 2026-09-02 12:26:25 | 51.08128 | 8.05362 | 29° | 9km/h | 28874m | 5.5m/s | -44.5°C | 2.5% | 14.8hPa | 2.7V | 00:00:00 | 02:08:31 | 00:00:00 | |
| DL1XH1-15 | 2026-09-02 12:26:24 | 51.08121 | 8.05359 | 8° | 15km/h | 28865m | 4.2m/s | -44.4°C | 2.4% | 14.9hPa | 2.7V | 08:30:00 | 02:08:29 | 00:00:00 | |
| DL1XH-west | 2026-09-02 12:26:23 | 51.08121 | 8.05359 | 8° | 15km/h | 28865m | 4.2m/s | -44.4°C | 0% | 14.9hPa | 2.7V | 18:12:15 | 02:08:29 | 00:00:00 | |
| DM0DOS-11 | 2026-09-02 12:26:22 | 51.08114 | 8.05356 | 24° | 15km/h | 28855m | 5.7m/s | -44.6°C | 2.5% | 14.9hPa | 2.6V | 08:30:00 | 02:08:27 | 00:00:00 | |
| DB0ND-19 | 2026-09-02 12:26:22 | 51.08114 | 8.05356 | 24° | 13km/h | 28855m | 5.7m/s | -44.7°C | 0.5% | 15.0hPa | 2.6V | 00:00:00 | 00:00:00 | 00:00:00 | |
| DL1NUX | 2026-09-02 12:26:21 | 51.08107 | 8.05341 | 67° | 2km/h | 28830m | 5.4m/s | -44.8°C | 2.5% | 15hPa | 2.6V | 08:30:00 | 02:08:22 | 00:00:00 | |
| HSKMA3-T | 2026-09-02 12:26:20 | 51.08111 | 8.05353 | 42° | 15km/h | 28849m | 5.2m/s | -44.8°C | 0% | 15hPa | 2.6V | 18:12:15 | 02:08:26 | 00:00:00 | |
| NBG1-10 | 2026-09-02 12:26:20 | 51.08111 | 8.05353 | 43° | 7km/h | 28850m | 5.1m/s | -44.7°C | 2.5% | 14.9hPa | 2.6V | 00:00:00 | 02:08:26 | 00:00:00 | |
| DO3DL | 2026-09-02 12:26:19 | 51.08111 | 8.05353 | 43° | 15km/h | 28850m | 5.2m/s | -44.8°C | 0.5% | 15.0hPa | 2.7V | 00:00:00 | 00:00:00 | 00:00:00 | |
| DL1XH1-15 | 2026-09-02 12:26:18 | 51.08105 | 8.05342 | 349° | 5km/h | 28815m | 4.7m/s | -45°C | 2.5% | 15hPa | 2.7V | 08:30:00 | 02:08:19 | 00:00:00 | |
| AA1-15 | 2026-09-02 12:26:15 | 51.08107 | 8.05342 | 321° | 5km/h | 28819m | 4.8m/s | -44.9°C | 0% | 15hPa | 2.6V | 18:12:15 | 02:08:20 | 00:00:00 | |
| DL1XH-west | 2026-09-02 12:26:13 | 51.08105 | 8.05342 | 349° | 5km/h | 28815m | 4.7m/s | -45°C | 0% | 15hPa | 2.7V | 18:12:15 | 02:08:19 | 00:00:00 | |
| HSKMA3-T | 2026-09-02 12:26:10 | 51.08101 | 8.05337 | 54° | 11km/h | 28799m | 4.2m/s | -45.4°C | 0% | 15.1hPa | 2.6V | 18:12:15 | 02:08:16 | 00:00:00 | |
| DD1CC3-15 | 2026-09-02 12:26:10 | 51.08101 | 8.05337 | 55° | 11km/h | 28800m | 4.2m/s | -45.4°C | 0.6% | 15.1hPa | 2.7V | 00:00:00 | 00:00:00 | 00:00:00 | |
| DL1NUX | 2026-09-02 12:26:08 | 51.08093 | 8.05330 | 0° | 11km/h | 28780m | 4.5m/s | -45.5°C | 2.7% | 15.1hPa | 2.7V | 08:30:00 | 02:08:12 | 00:00:00 | |
| DD8BA-10 | 2026-09-02 12:26:08 | 51.08097 | 8.05332 | 31° | 9km/h | 28790m | 5.5m/s | -45.4°C | 2.6% | 15.0hPa | 2.7V | 00:00:00 | 00:00:00 | 00:00:00 | |
| DL1XH-15 | 2026-09-02 12:26:07 | 51.08090 | 8.05330 | 4° | 11km/h | 28775m | 4.8m/s | -45.5°C | 2.7% | 15.1hPa | 2.7V | 08:30:00 | 02:08:11 | 00:00:00 | |
| BIOWL1-15 | 2026-09-02 12:26:06 | 51.08093 | 8.05330 | 1° | 11km/h | 28780m | 4.5m/s | -45.5°C | 0% | 15.1hPa | 2.7V | 18:12:15 | 02:08:12 | 00:00:00 | |
| AA1-15 | 2026-09-02 12:26:04 | 51.08088 | 8.05329 | 19° | 11km/h | 28770m | 5.9m/s | -45.5°C | 0% | 15.1hPa | 2.6V | 18:12:15 | 02:08:10 | 00:00:00 | |
| DL1XH-west | 2026-09-02 12:26:03 | 51.08085 | 8.05327 | 31° | 11km/h | 28765m | 4.7m/s | -45.5°C | 0% | 15.2hPa | 2.6V | 18:12:15 | 02:08:09 | 00:00:00 | |
| DM0DOS-11 | 2026-09-02 12:26:02 | 51.08081 | 8.05324 | 17° | 7km/h | 28755m | 4.9m/s | -45.2°C | 2.6% | 15.2hPa | 2.7V | 08:30:00 | 02:08:07 | 00:00:00 | |
| GOEST3-10 | 2026-09-02 12:26:02 | 51.08083 | 8.05325 | 33° | 7km/h | 28760m | 4.2m/s | -45.3°C | 2.6% | 15.1hPa | 2.6V | 00:00:00 | 00:00:00 | 00:00:00 | |
| DL1NUX | 2026-09-02 12:26:01 | 51.08076 | 8.05329 | 195° | 2km/h | 28729m | 5.6m/s | -45.2°C | 2.6% | 15.2hPa | 2.6V | 08:30:00 | 02:08:02 | 00:00:00 | |
| DF8AY | 2026-09-02 12:26:01 | 51.08077 | 8.05329 | 151° | 2km/h | 28723m | 4.5m/s | 0°C | 0% | 15.2hPa | 2.7V | 18:12:15 | 02:08:01 | 00:00:00 | |
| HSKMA3-T | 2026-09-02 12:25:59 | 51.08078 | 8.05325 | 318° | 7km/h | 28744m | 5.1m/s | -45.1°C | 0% | 15.2hPa | 2.7V | 18:12:15 | 02:08:05 | 00:00:00 | |
| DL1XH-15 | 2026-09-02 12:25:59 | 51.08077 | 8.05329 | 150° | 2km/h | 28723m | 4.5m/s | -45.2°C | 2.7% | 15.2hPa | 2.7V | 08:30:00 | 02:08:01 | 00:00:00 | |
| DJ2DS-15 | 2026-09-02 12:25:58 | 51.08077 | 8.05327 | 302° | 4km/h | 28740m | 4.6m/s | -45.1°C | 2.6% | 15.2hPa | 2.6V | 00:00:00 | 02:08:04 | 00:00:00 | |
| GOEST3-10 | 2026-09-02 12:25:57 | 51.08076 | 8.05329 | 290° | 2km/h | 28734m | 5.6m/s | -45.1°C | 2.6% | 15.2hPa | 2.6V | 00:00:00 | 02:08:03 | 00:00:00 | |
| DM0DOS-11 | 2026-09-02 12:25:56 | 51.08079 | 8.05332 | 248° | 5km/h | 28703m | 4.4m/s | -45.3°C | 2.6% | 15.3hPa | 2.6V | 08:30:00 | 02:07:57 | 00:00:00 | |
| BIOWL1-15 | 2026-09-02 12:25:56 | 51.08079 | 8.05330 | 243° | 5km/h | 28708m | 5.4m/s | -45.3°C | 0% | 15.3hPa | 2.6V | 18:12:15 | 02:07:58 | 00:00:00 | |
| DL1XH-west | 2026-09-02 12:25:53 | 51.08078 | 8.05329 | 215° | 2km/h | 28713m | 6.1m/s | -45.3°C | 0% | 15.3hPa | 2.7V | 18:12:15 | 02:07:59 | 00:00:00 | |
| SO1NDE-10 | 2026-09-02 12:25:52 | 51.08079 | 8.05330 | 243° | 7km/h | 28708m | 5.4m/s | -45.2°C | 2.6% | 15.2hPa | 2.6V | 00:00:00 | 02:07:58 | 00:00:00 | |
| DL1NUX | 2026-09-02 12:25:51 | 51.08081 | 8.05330 | 57° | 2km/h | 28677m | 5.2m/s | -45.6°C | 2.6% | 15.3hPa | 2.6V | 08:30:00 | 02:07:52 | 00:00:00 | |
| HSKMA3-T | 2026-09-02 12:25:48 | 51.08080 | 8.05333 | 114° | 4km/h | 28687m | 5.4m/s | -45.4°C | 0% | 15.3hPa | 2.7V | 18:12:15 | 02:07:54 | 00:00:00 | |
| DF8AY | 2026-09-02 12:25:48 | 51.08081 | 8.05331 | 97° | 4km/h | 28682m | 4.5m/s | 0°C | 0% | 15.3hPa | 2.7V | 18:12:15 | 02:07:53 | 00:00:00 | |
| DL1XH-15 | 2026-09-02 12:25:47 | 51.08080 | 8.05330 | 328° | 4km/h | 28671m | 5.9m/s | -45.6°C | 2.6% | 15.4hPa | 2.6V | 08:30:00 | 02:07:51 | 00:00:00 | |
| BIOWL1-15 | 2026-09-02 12:25:44 | 51.08079 | 8.05331 | 312° | 5km/h | 28666m | 4.7m/s | -45.7°C | 0% | 15.4hPa | 2.6V | 18:12:15 | 02:07:50 | 00:00:00 | |
| AA1-15 | 2026-09-02 12:25:42 | 51.08077 | 8.05334 | 323° | 4km/h | 28657m | 5.4m/s | -45.8°C | 0% | 15.4hPa | 2.7V | 18:12:15 | 02:07:48 | 00:00:00 | |
| DO9LL-15 | 2026-09-02 12:25:42 | 51.08077 | 8.05334 | 324° | 9km/h | 28658m | 5.3m/s | -45.8°C | 2.6% | 15.3hPa | 2.7V | 00:00:00 | 02:07:48 | 00:00:00 | |
| DB0NH | 2026-09-02 12:25:41 | 51.08077 | 8.05335 | 16° | 11km/h | 28652m | 6.0m/s | -45.9°C | 2.7% | 15.4hPa | 2.7V | 00:00:00 | 02:07:47 | 00:00:00 | |
| DL1XH-15 | 2026-09-02 12:25:39 | 51.08077 | 8.05332 | 227° | 2km/h | 28620m | 4.8m/s | -46°C | 2.7% | 15.5hPa | 2.7V | 08:30:00 | 02:07:41 | 00:00:00 | |
| DL1XH1-15 | 2026-09-02 12:25:38 | 51.08077 | 8.05331 | 84° | 5km/h | 28609m | 5.8m/s | -46.2°C | 2.8% | 15.5hPa | 2.6V | 08:30:00 | 02:07:39 | 00:00:00 | |
| HSKMA3-T | 2026-09-02 12:25:37 | 51.08076 | 8.05331 | 206° | 2km/h | 28630m | 5.9m/s | -46°C | 0% | 15.5hPa | 2.7V | 18:12:15 | 02:07:43 | 00:00:00 | |
| BIOWL1-15 | 2026-09-02 12:25:34 | 51.08077 | 8.05332 | 135° | 2km/h | 28614m | 5.9m/s | -46.1°C | 0% | 15.5hPa | 2.6V | 18:12:15 | 02:07:40 | 00:00:00 | |
| DM0DOS-11 | 2026-09-02 12:25:33 | 51.08075 | 8.05325 | 51° | 11km/h | 28599m | 4.2m/s | -46.3°C | 2.8% | 15.5hPa | 2.7V | 08:30:00 | 02:07:37 | 00:00:00 | |
| DL1XH-west | 2026-09-02 12:25:32 | 51.08075 | 8.05325 | 51° | 11km/h | 28599m | 4.2m/s | -46.3°C | 0% | 15.5hPa | 2.7V | 18:12:15 | 02:07:37 | 00:00:00 | |
| DL1NUX | 2026-09-02 12:25:31 | 51.08060 | 8.05314 | 27° | 15km/h | 28574m | 5m/s | -46.1°C | 2.8% | 15.6hPa | 2.6V | 08:30:00 | 02:07:32 | 00:00:00 | |
| HSKMA3-T | 2026-09-02 12:25:27 | 51.08064 | 8.05317 | 16° | 15km/h | 28579m | 3.9m/s | -46.1°C | 0% | 15.6hPa | 2.6V | 18:12:15 | 02:07:33 | 00:00:00 | |
| DF8AY | 2026-09-02 12:25:26 | 51.08057 | 8.05311 | 41° | 18km/h | 28569m | 6.1m/s | 0°C | 0% | 15.6hPa | 2.7V | 18:12:15 | 02:07:31 | 00:00:00 | |
| BIOWL1-15 | 2026-09-02 12:25:23 | 51.08047 | 8.05289 | 58° | 11km/h | 28548m | 6.2m/s | -46.3°C | 0% | 15.7hPa | 2.6V | 18:12:15 | 02:07:27 | 00:00:00 | |
| DL4XJ-10 | 2026-09-02 12:25:23 | 51.08051 | 8.05299 | 57° | 15km/h | 28559m | 4.6m/s | -45.9°C | 0% | 0hPa | 2.6V | 00:00:00 | 00:00:00 | 00:00:00 | |
| SO1NDE-10 | 2026-09-02 12:25:22 | 51.08049 | 8.05293 | 59° | 16km/h | 28554m | 5.1m/s | -46.2°C | 2.7% | 15.6hPa | 2.6V | 00:00:00 | 02:07:28 | 00:00:00 | |
| DL1NUX | 2026-09-02 12:25:21 | 51.08040 | 8.05277 | 56° | 15km/h | 28522m | 5.5m/s | -46.3°C | 2.7% | 15.7hPa | 2.6V | 08:30:00 | 02:07:22 | 00:00:00 | |
| DL1XH-west | 2026-09-02 12:25:20 | 51.08045 | 8.05286 | 48° | 7km/h | 28542m | 4.9m/s | -46.3°C | 0% | 15.7hPa | 2.6V | 18:12:15 | 02:07:26 | 00:00:00 | |
| WPPR-10 | 2026-09-02 12:25:19 | 51.08040 | 8.05277 | 56° | 13km/h | 28522m | 5.5m/s | -46.3°C | 0.5% | 15.7hPa | 2.7V | 00:00:00 | 00:00:00 | 00:00:00 | |
| DL1XH1-15 | 2026-09-02 12:25:18 | 51.08034 | 8.05260 | 65° | 15km/h | 28505m | 6.2m/s | -46.5°C | 2.7% | 15.8hPa | 2.7V | 08:30:00 | 02:07:19 | 00:00:00 | |
| HSKMA3-T | 2026-09-02 12:25:16 | 51.08040 | 8.05277 | 56° | 15km/h | 28522m | 5.5m/s | -46.3°C | 0% | 15.7hPa | 2.6V | 18:12:15 | 02:07:22 | 00:00:00 | |
| DF8AY | 2026-09-02 12:25:14 | 51.08034 | 8.05260 | 66° | 16km/h | 28505m | 6.2m/s | 0°C | 0% | 0hPa | 2.7V | 18:12:15 | 02:07:19 | 00:00:00 | |
| BIOWL1-15 | 2026-09-02 12:25:13 | 51.08018 | 8.05224 | 44° | 22km/h | 28473m | 5m/s | -46.8°C | 0% | 15.8hPa | 2.7V | 18:12:15 | 02:07:13 | 00:00:00 | |
| DO9LL-15 | 2026-09-02 12:25:12 | 51.08032 | 8.05254 | 64° | 18km/h | 28500m | 5.2m/s | -46.5°C | 2.7% | 15.7hPa | 2.7V | 00:00:00 | 02:07:18 | 08:30:00 | |
| DL1NUX | 2026-09-02 12:25:11 | 51.08015 | 8.05218 | 38° | 20km/h | 28467m | 6.2m/s | -46.8°C | 2.8% | 15.8hPa | 2.7V | 08:30:00 | 02:07:12 | 00:00:00 | |
| AA1-15 | 2026-09-02 12:25:09 | 51.08026 | 8.05237 | 53° | 22km/h | 28484m | 6.3m/s | -46.9°C | 0% | 15.8hPa | 2.6V | 18:12:15 | 02:07:15 | 00:00:00 | |
| HSKMA3-T | 2026-09-02 12:25:05 | 51.08011 | 8.05214 | 31° | 16km/h | 28461m | 5.9m/s | -46.7°C | 0% | 15.9hPa | 2.7V | 18:12:15 | 02:07:11 | 00:00:00 | |
| DL1XH1-15 | 2026-09-02 12:25:05 | 51.08005 | 8.05209 | 28° | 13km/h | 28451m | 5m/s | -46.8°C | 2.8% | 15.9hPa | 2.6V | 08:30:00 | 02:07:09 | 00:00:00 | |
| DF8AY | 2026-09-02 12:25:03 | 51.08005 | 8.05209 | 28° | 13km/h | 28451m | 5m/s | 0°C | 0% | 0hPa | 2.6V | 18:12:15 | 02:07:09 | 00:00:00 | |
| DM0DOS-11 | 2026-09-02 12:25:03 | 51.07999 | 8.05202 | 43° | 18km/h | 28440m | 5.4m/s | -47°C | 2.9% | 15.9hPa | 2.7V | 08:30:00 | 02:07:07 | 00:00:00 | |
| HARRO8 | 2026-09-02 12:25:03 | 51.08002 | 8.05206 | 36° | 15km/h | 28446m | 6.2m/s | -46.9°C | 0.6% | 15.9hPa | 2.6V | 00:00:00 | 00:00:00 | 00:00:00 | |
| GOEST3-10 | 2026-09-02 12:25:02 | 51.08001 | 8.05206 | 37° | 16km/h | 28446m | 6.1m/s | -46.9°C | 2.8% | 15.9hPa | 2.6V | 00:00:00 | 00:00:00 | 08:30:00 | |
| DL1NUX | 2026-09-02 12:25:01 | 51.07983 | 8.05179 | 27° | 16km/h | 28413m | 4.8m/s | -46.8°C | 2.8% | 16hPa | 2.6V | 08:30:00 | 02:07:02 | 00:00:00 | |
| BIOWL1-15 | 2026-09-02 12:25:00 | 51.07989 | 8.05187 | 43° | 16km/h | 28424m | 6.4m/s | -47°C | 0% | 16hPa | 2.6V | 18:12:15 | 02:07:04 | 00:00:00 | |
| DL1XH-west | 2026-09-02 12:24:59 | 51.07992 | 8.05191 | 47° | 18km/h | 28429m | 5.3m/s | -47.1°C | 0% | 15.9hPa | 2.7V | 18:12:15 | 02:07:05 | 00:00:00 | |
| HSKMA3-T | 2026-09-02 12:24:55 | 51.07979 | 8.05176 | 25° | 20km/h | 28407m | 6.3m/s | -46.8°C | 0% | 16hPa | 2.7V | 18:12:15 | 02:07:01 | 00:00:00 | |
| DF8AY | 2026-09-02 12:24:51 | 51.07953 | 8.05167 | 357° | 26km/h | 28386m | 6.5m/s | 0°C | 0% | 0hPa | 2.6V | 18:12:15 | 02:06:57 | 00:00:00 | |
| BIOWL1-15 | 2026-09-02 12:24:51 | 51.07942 | 8.05171 | 341° | 20km/h | 28374m | 5.3m/s | -47°C | 0% | 16.1hPa | 2.7V | 18:12:15 | 02:06:55 | 00:00:00 | |
| DL1XH-west | 2026-09-02 12:24:48 | 51.07937 | 8.05173 | 344° | 16km/h | 28368m | 5.2m/s | -46.9°C | 0% | 16.1hPa | 2.7V | 18:12:15 | 02:06:54 | 00:00:00 | |
| DL3AQ-11 | 2026-09-02 12:24:46 | 51.07927 | 8.05171 | 36° | 13km/h | 28352m | 4.9m/s | -46.8°C | 0.6% | 16.1hPa | 2.7V | 00:00:00 | 00:00:00 | 00:00:00 | |
| DB0UT-7 | 2026-09-02 12:24:45 | 51.07927 | 8.05171 | 37° | 16km/h | 28352m | 4.8m/s | -46.7°C | 2.8% | 16.1hPa | 2.7V | 00:00:00 | 02:06:51 | 00:00:00 | |
| DL1XH1-15 | 2026-09-02 12:24:44 | 51.07923 | 8.05165 | 36° | 9km/h | 28341m | 6.2m/s | -46.9°C | 2.8% | 16.2hPa | 2.7V | 08:30:00 | 02:06:49 | 00:00:00 | |
| HSKMA3-T | 2026-09-02 12:24:44 | 51.07925 | 8.05168 | 42° | 11km/h | 28346m | 4.7m/s | -46.8°C | 0% | 16.1hPa | 2.6V | 18:12:15 | 02:06:50 | 00:00:00 | |
| DL4BBY-15 | 2026-09-02 12:24:44 | 51.07925 | 8.05168 | 43° | 16km/h | 28347m | 4.7m/s | -46.6°C | 0% | 0hPa | 2.7V | 00:00:00 | 00:00:00 | 00:00:00 | |
| DM0DOS-11 | 2026-09-02 12:24:43 | 51.07918 | 8.05163 | 2° | 13km/h | 28330m | 4.9m/s | -47°C | 2.9% | 16.2hPa | 2.7V | 08:30:00 | 02:06:47 | 00:00:00 | |
| DF8AY | 2026-09-02 12:24:40 | 51.07886 | 8.05175 | 326° | 22km/h | 28295m | 5.3m/s | 0°C | 0% | 0hPa | 2.7V | 18:12:15 | 02:06:41 | 00:00:00 | |
| BIOWL1-15 | 2026-09-02 12:24:38 | 51.07904 | 8.05164 | 350° | 26km/h | 28312m | 4.9m/s | -46.9°C | 0% | 16.2hPa | 2.6V | 18:12:15 | 02:06:44 | 00:00:00 | |
| AA1-15 | 2026-09-02 12:24:37 | 51.07897 | 8.05167 | 342° | 26km/h | 28307m | 5.6m/s | -46.8°C | 0% | 16.2hPa | 2.7V | 18:12:15 | 02:06:43 | 00:00:00 | |
| HSKMA3-T | 2026-09-02 12:24:34 | 51.07882 | 8.05180 | 324° | 18km/h | 28290m | 4.8m/s | -46.8°C | 0% | 16.3hPa | 2.6V | 18:12:15 | 02:06:40 | 00:00:00 | |
| AU51GT2 | 2026-09-02 12:24:34 | 51.07882 | 8.05180 | 323° | 16km/h | 28290m | 4.8m/s | -46.8°C | 0.6% | 16.3hPa | 2.6V | 00:00:00 | 00:00:00 | 00:00:00 | |
| HARRO8 | 2026-09-02 12:24:32 | 51.07875 | 8.05183 | 44° | 7km/h | 28273m | 5.5m/s | -46.9°C | 0.6% | 16.4hPa | 2.6V | 00:00:00 | 00:00:00 | 00:00:00 | |
| DL1NUX | 2026-09-02 12:24:31 | 51.07870 | 8.05179 | 326° | 13km/h | 28245m | 5.2m/s | -46.9°C | 2.8% | 16.4hPa | 2.6V | 08:30:00 | 02:06:32 | 00:00:00 | |
| DF8AY | 2026-09-02 12:24:30 | 51.07874 | 8.05180 | 66° | 7km/h | 28267m | 4.9m/s | 0°C | 0% | 0hPa | 2.7V | 18:12:15 | 02:06:36 | 00:00:00 | |
| DL1XH-west | 2026-09-02 12:24:28 | 51.07873 | 8.05177 | 38° | 2km/h | 28256m | 6.2m/s | -47°C | 0% | 16.4hPa | 2.6V | 18:12:15 | 02:06:34 | 00:00:00 | |
| AA1-15 | 2026-09-02 12:24:26 | 51.07870 | 8.05179 | 327° | 13km/h | 28245m | 5.2m/s | -46.9°C | 0% | 16.4hPa | 2.6V | 18:12:15 | 02:06:32 | 00:00:00 | |
| HSKMA3-T | 2026-09-02 12:24:24 | 51.07861 | 8.05185 | 340° | 26km/h | 28233m | 6.2m/s | -46.9°C | 0% | 16.4hPa | 2.7V | 18:12:15 | 02:06:30 | 00:00:00 | |
| BUE01 | 2026-09-02 12:24:24 | 51.07855 | 8.05189 | 341° | 29km/h | 28227m | 4.9m/s | -47.0°C | 0.6% | 16.4hPa | 2.6V | 00:00:00 | 00:00:00 | 00:00:00 | |
| DL8DAS-14 | 2026-09-02 12:24:23 | 51.07847 | 8.05193 | 340° | 31km/h | 28222m | 5.1m/s | -47.0°C | 0.6% | 16.4hPa | 2.6V | 00:00:00 | 00:00:00 | 00:00:00 | |
| HTAHTA | 2026-09-02 12:24:22 | 51.07828 | 8.05207 | 331° | 20km/h | 28206m | 4.9m/s | -46.8°C | 0.6% | 16.5hPa | 2.6V | 00:00:00 | 00:00:00 | 00:00:00 | |
| DL1NUX | 2026-09-02 12:24:21 | 51.07819 | 8.05209 | 45° | 11km/h | 28188m | 6.6m/s | -47.1°C | 2.8% | 16.5hPa | 2.6V | 08:30:00 | 02:06:22 | 00:00:00 | |
| DK9SH | 2026-09-02 12:24:20 | 51.07840 | 8.05197 | 338° | 31km/h | 28217m | 6.2m/s | -47.1°C | 0.6% | 16.5hPa | 2.7V | 00:00:00 | 00:00:00 | 00:00:00 | |
| DF8AY | 2026-09-02 12:24:20 | 51.07834 | 8.05202 | 332° | 27km/h | 28211m | 5.4m/s | 0°C | 0% | 0hPa | 2.6V | 18:12:15 | 02:06:26 | 00:00:00 | |
| DL1XH-15 | 2026-09-02 12:24:19 | 51.07817 | 8.05201 | 77° | 11km/h | 28177m | 5.2m/s | -47.3°C | 2.9% | 16.6hPa | 2.7V | 08:30:00 | 02:06:20 | 00:00:00 | |
| DL1XH-west | 2026-09-02 12:24:18 | 51.07824 | 8.05210 | 340° | 15km/h | 28200m | 5.1m/s | -46.9°C | 0% | 16.5hPa | 2.7V | 18:12:15 | 02:06:24 | 00:00:00 | |
| BIOWL1-15 | 2026-09-02 12:24:17 | 51.07821 | 8.05211 | 6° | 11km/h | 28195m | 6.7m/s | -47°C | 0% | 16.5hPa | 2.6V | 18:12:15 | 02:06:23 | 00:00:00 | |
| DJ2DS-15 | 2026-09-02 12:24:17 | 51.07821 | 8.05211 | 6° | 13km/h | 28195m | 6.7m/s | -46.9°C | 2.8% | 16.5hPa | 2.6V | 00:00:00 | 02:06:23 | 08:30:00 | |
| DM0DOS-11 | 2026-09-02 12:24:16 | 51.07814 | 8.05197 | 324° | 9km/h | 28160m | 5m/s | -47.3°C | 3% | 16.6hPa | 2.7V | 08:30:00 | 02:06:17 | 00:00:00 | |
| AA1-15 | 2026-09-02 12:24:15 | 51.07818 | 8.05205 | 68° | 13km/h | 28182m | 5.1m/s | -47.2°C | 0% | 16.6hPa | 2.7V | 18:12:15 | 02:06:21 | 00:00:00 | |
| HSKMA3-T | 2026-09-02 12:24:13 | 51.07816 | 8.05198 | 75° | 7km/h | 28171m | 6.1m/s | -47.3°C | 0% | 16.6hPa | 2.6V | 18:12:15 | 02:06:19 | 00:00:00 | |
| DL1XH-west | 2026-09-02 12:24:08 | 51.07802 | 8.05209 | 329° | 27km/h | 28142m | 5.3m/s | -47.3°C | 0% | 16.6hPa | 2.6V | 18:12:15 | 02:06:14 | 00:00:00 | |
| DD8BA-10 | 2026-09-02 12:24:08 | 51.07802 | 8.05209 | 329° | 15km/h | 28142m | 5.2m/s | -47.2°C | 2.9% | 16.6hPa | 2.6V | 00:00:00 | 00:00:00 | 00:00:00 | |
| DL1XH-15 | 2026-09-02 12:24:07 | 51.07783 | 8.05233 | 322° | 15km/h | 28120m | 5.3m/s | -46.9°C | 2.9% | 16.7hPa | 2.6V | 08:30:00 | 02:06:10 | 00:00:00 | |
| BIOWL1-15 | 2026-09-02 12:24:07 | 51.07796 | 8.05215 | 325° | 27km/h | 28136m | 5.4m/s | -47.3°C | 0% | 16.7hPa | 2.7V | 18:12:15 | 02:06:13 | 00:00:00 | |
| DF8AY | 2026-09-02 12:24:05 | 51.07786 | 8.05228 | 318° | 22km/h | 28125m | 5.2m/s | 0°C | 0% | 0hPa | 2.6V | 18:12:15 | 02:06:11 | 00:00:00 | |
| AA1-15 | 2026-09-02 12:24:04 | 51.07783 | 8.05233 | 322° | 15km/h | 28120m | 5.3m/s | -46.9°C | 0% | 16.7hPa | 2.6V | 18:12:15 | 02:06:10 | 00:00:00 | |
| DL1XH1-15 | 2026-09-02 12:24:04 | 51.07780 | 8.05235 | 338° | 9km/h | 28114m | 6.9m/s | -46.8°C | 2.8% | 16.7hPa | 2.7V | 08:30:00 | 02:06:09 | 00:00:00 | |
| DM0DOS-11 | 2026-09-02 12:24:03 | 51.07777 | 8.05234 | 63° | 5km/h | 28102m | 4.9m/s | -46.7°C | 2.8% | 16.7hPa | 2.6V | 08:30:00 | 02:06:07 | 00:00:00 | |
| HSKMA3-T | 2026-09-02 12:24:02 | 51.07778 | 8.05236 | 19° | 7km/h | 28107m | 6m/s | -46.7°C | 0% | 16.7hPa | 2.7V | 18:12:15 | 02:06:08 | 00:00:00 | |
| HARRO8 | 2026-09-02 12:24:01 | 51.07777 | 8.05232 | 93° | 4km/h | 28097m | 5.1m/s | -46.8°C | 0.6% | 16.8hPa | 2.6V | 00:00:00 | 00:00:00 | 00:00:00 | |
| SONCRA | 2026-09-02 12:24:00 | 51.07777 | 8.05232 | 93° | 4km/h | 28097m | 5.1m/s | -46.8°C | 0.6% | 16.8hPa | 2.6V | 00:00:00 | 00:00:00 | 00:00:00 | |
| DL1XH-15 | 2026-09-02 12:23:59 | 51.07769 | 8.05250 | 325° | 24km/h | 28063m | 5.9m/s | -47.1°C | 2.9% | 16.9hPa | 2.6V | 08:30:00 | 02:06:00 | 00:00:00 | |
| DL1XH1-15 | 2026-09-02 12:23:58 | 51.07764 | 8.05255 | 332° | 24km/h | 28057m | 5.1m/s | -47.2°C | 2.9% | 16.9hPa | 2.6V | 08:30:00 | 02:05:59 | 00:00:00 | |
| DD8BA-10 | 2026-09-02 12:23:58 | 51.07777 | 8.05232 | 244° | 16km/h | 28085m | 5.5m/s | -46.7°C | 2.8% | 16.8hPa | 2.7V | 00:00:00 | 00:00:00 | 00:00:00 | |
| DJ2DS-15 | 2026-09-02 12:23:57 | 51.07777 | 8.05234 | 280° | 15km/h | 28080m | 4.7m/s | -46.7°C | 2.8% | 16.7hPa | 2.7V | 00:00:00 | 02:06:03 | 00:00:00 | |
| DL1XH-west | 2026-09-02 12:23:57 | 51.07778 | 8.05235 | 280° | 11km/h | 28080m | 4.7m/s | -46.8°C | 0% | 16.8hPa | 2.7V | 18:12:15 | 02:06:03 | 00:00:00 | |
| DM0DOS-11 | 2026-09-02 12:23:56 | 51.07755 | 8.05264 | 326° | 20km/h | 28047m | 5.2m/s | -47°C | 2.9% | 16.9hPa | 2.7V | 08:30:00 | 02:05:57 | 00:00:00 | |
| BIOWL1-15 | 2026-09-02 12:23:56 | 51.07776 | 8.05239 | 299° | 15km/h | 28075m | 5.4m/s | -46.8°C | 0% | 16.8hPa | 2.7V | 18:12:15 | 02:06:02 | 00:00:00 | |
| DF8AY | 2026-09-02 12:23:54 | 51.07751 | 8.05269 | 312° | 16km/h | 28042m | 6m/s | 0°C | 0% | 0hPa | 2.7V | 18:12:15 | 02:05:56 | 00:00:00 | |
| AA1-15 | 2026-09-02 12:23:53 | 51.07764 | 8.05255 | 333° | 24km/h | 28057m | 5.1m/s | -47.2°C | 0% | 16.9hPa | 2.6V | 18:12:15 | 02:05:59 | 00:00:00 | |
| HSKMA3-T | 2026-09-02 12:23:51 | 51.07755 | 8.05264 | 326° | 20km/h | 28047m | 5.2m/s | -47°C | 0% | 16.9hPa | 2.7V | 18:12:15 | 02:05:57 | 00:00:00 | |
| DL8DAS-14 | 2026-09-02 12:23:51 | 51.07751 | 8.05269 | 311° | 16km/h | 28042m | 6.0m/s | -47.0°C | 0.6% | 16.9hPa | 2.6V | 00:00:00 | 00:00:00 | 00:00:00 | |
| DL3AQ-11 | 2026-09-02 12:23:50 | 51.07749 | 8.05274 | 289° | 15km/h | 28036m | 6.0m/s | -47.0°C | 0.6% | 16.9hPa | 2.6V | 00:00:00 | 00:00:00 | 00:00:00 | |
| DD8BA-10 | 2026-09-02 12:23:48 | 51.07748 | 8.05280 | 271° | 9km/h | 28030m | 5.3m/s | -47.0°C | 2.9% | 16.9hPa | 2.6V | 00:00:00 | 00:00:00 | 08:30:00 | |
| DL1XH-15 | 2026-09-02 12:23:47 | 51.07750 | 8.05295 | 292° | 4km/h | 28007m | 5.4m/s | -46.8°C | 2.9% | 17hPa | 2.7V | 08:30:00 | 02:05:50 | 00:00:00 | |
| DL1XH-west | 2026-09-02 12:23:46 | 51.07749 | 8.05295 | 293° | 4km/h | 28007m | 5.4m/s | -46.9°C | 0% | 17hPa | 2.7V | 18:12:15 | 02:05:50 | 00:00:00 | |
| WPPR-10 | 2026-09-02 12:23:46 | 51.07749 | 8.05290 | 259° | 9km/h | 28019m | 6.4m/s | -47.1°C | 0.6% | 17.0hPa | 2.7V | 00:00:00 | 00:00:00 | 00:00:00 | |
| DB0UT-7 | 2026-09-02 12:23:45 | 51.07749 | 8.05293 | 265° | 13km/h | 28013m | 6.3m/s | -46.9°C | 2.9% | 17.0hPa | 2.7V | 00:00:00 | 02:05:51 | 00:00:00 | |
| DL1XH1-15 | 2026-09-02 12:23:44 | 51.07749 | 8.05296 | 311° | 4km/h | 28001m | 5.5m/s | -46.7°C | 2.8% | 17hPa | 2.6V | 08:30:00 | 02:05:49 | 00:00:00 | |
| AA1-15 | 2026-09-02 12:23:43 | 51.07749 | 8.05297 | 301° | 4km/h | 27995m | 6.8m/s | -46.7°C | 0% | 17hPa | 2.6V | 18:12:15 | 02:05:48 | 00:00:00 | |
| HSKMA3-T | 2026-09-02 12:23:40 | 51.07747 | 8.05302 | 298° | 9km/h | 27984m | 4.8m/s | -46.6°C | 0% | 17.1hPa | 2.7V | 18:12:15 | 02:05:46 | 00:00:00 | |
| DL1XH-15 | 2026-09-02 12:23:39 | 51.07732 | 8.05330 | 280° | 16km/h | 27951m | 6.7m/s | -46.9°C | 2.8% | 17.1hPa | 2.7V | 08:30:00 | 02:05:40 | 00:00:00 | |
| DL1XH1-15 | 2026-09-02 12:23:38 | 51.07732 | 8.05337 | 253° | 16km/h | 27944m | 6.3m/s | -46.9°C | 2.8% | 17.2hPa | 2.7V | 08:30:00 | 02:05:39 | 00:00:00 | |
| DD8BA-10 | 2026-09-02 12:23:38 | 51.07743 | 8.05310 | 318° | 16km/h | 27973m | 6.7m/s | -46.6°C | 2.8% | 17.0hPa | 2.6V | 00:00:00 | 00:00:00 | 00:00:00 | |
| DM0DOS-11 | 2026-09-02 12:23:37 | 51.07737 | 8.05348 | 218° | 16km/h | 27932m | 6.5m/s | -46.8°C | 2.9% | 17.2hPa | 2.6V | 08:30:00 | 02:05:37 | 00:00:00 | |
| DL1XH-west | 2026-09-02 12:23:37 | 51.07737 | 8.05319 | 316° | 18km/h | 27961m | 4.3m/s | -46.7°C | 0% | 17.1hPa | 2.6V | 18:12:15 | 02:05:42 | 00:00:00 | |
| DL9SK-14 | 2026-09-02 12:23:35 | 51.07732 | 8.05330 | 280° | 16km/h | 27951m | 6.7m/s | -46.9°C | 0.6% | 17.2hPa | 2.7V | 00:00:00 | 00:00:00 | 00:00:00 | |
| DL1NUX | 2026-09-02 12:23:32 | 51.07750 | 8.05361 | 257° | 9km/h | 27904m | 5.2m/s | -46.7°C | 2.9% | 17.3hPa | 2.7V | 08:30:00 | 02:05:32 | 00:00:00 | |
| BIOWL1-15 | 2026-09-02 12:23:31 | 51.07737 | 8.05348 | 219° | 16km/h | 27932m | 6.5m/s | -46.8°C | 0% | 17.2hPa | 2.6V | 18:12:15 | 02:05:37 | 00:00:00 | |
| HSKMA3-T | 2026-09-02 12:23:30 | 51.07741 | 8.05351 | 207° | 15km/h | 27926m | 6m/s | -46.7°C | 0% | 17.2hPa | 2.6V | 18:12:15 | 02:05:36 | 00:00:00 | |
| HARRO8 | 2026-09-02 12:23:30 | 51.07744 | 8.05354 | 202° | 11km/h | 27921m | 4.9m/s | -46.7°C | 0.6% | 17.2hPa | 2.6V | 00:00:00 | 00:00:00 | 00:00:00 | |
| SONCRA | 2026-09-02 12:23:29 | 51.07746 | 8.05355 | 206° | 11km/h | 27916m | 5.4m/s | -46.7°C | 0.6% | 17.2hPa | 2.6V | 00:00:00 | 00:00:00 | 00:00:00 | |
| DD8BA-10 | 2026-09-02 12:23:28 | 51.07746 | 8.05355 | 207° | 15km/h | 27916m | 5.4m/s | -46.6°C | 2.9% | 17.2hPa | 2.6V | 00:00:00 | 00:00:00 | 00:00:00 | |
| DL1XH-15 | 2026-09-02 12:23:27 | 51.07748 | 8.05370 | 314° | 16km/h | 27893m | 6.4m/s | -46.5°C | 2.8% | 17.3hPa | 2.6V | 08:30:00 | 02:05:30 | 00:00:00 | |
| DL1XH-west | 2026-09-02 12:23:25 | 51.07749 | 8.05365 | 292° | 13km/h | 27899m | 5.1m/s | -46.6°C | 0% | 17.3hPa | 2.6V | 18:12:15 | 02:05:31 | 00:00:00 | |
| DL1XH1-15 | 2026-09-02 12:23:24 | 51.07744 | 8.05374 | 326° | 20km/h | 27886m | 7m/s | -46.5°C | 2.8% | 17.3hPa | 2.6V | 08:30:00 | 02:05:29 | 00:00:00 | |
| DM0DOS-11 | 2026-09-02 12:23:23 | 51.07735 | 8.05383 | 326° | 20km/h | 27876m | 4m/s | -46.5°C | 2.7% | 17.3hPa | 2.7V | 08:30:00 | 02:05:27 | 00:00:00 | |
| DL1NUX | 2026-09-02 12:23:22 | 51.07739 | 8.05405 | 198° | 18km/h | 27848m | 6.2m/s | -46.4°C | 2.8% | 17.4hPa | 2.7V | 08:30:00 | 02:05:22 | 00:00:00 | |
| HSKMA3-T | 2026-09-02 12:23:20 | 51.07732 | 8.05387 | 310° | 16km/h | 27871m | 5.7m/s | -46.4°C | 0% | 17.4hPa | 2.7V | 18:12:15 | 02:05:26 | 00:00:00 | |
| DL3OBA | 2026-09-02 12:23:20 | 51.07732 | 8.05387 | 311° | 16km/h | 27872m | 5.7m/s | -46.4°C | 0.6% | 17.4hPa | 2.6V | 00:00:00 | 00:00:00 | 00:00:00 | |
| DF7PN | 2026-09-02 12:23:19 | 51.07731 | 8.05392 | 273° | 13km/h | 27865m | 6.2m/s | -46.3°C | 0.6% | 17.4hPa | 2.6V | 00:00:00 | 00:00:00 | 00:00:00 | |
| DL1XH1-15 | 2026-09-02 12:23:18 | 51.07750 | 8.05407 | 188° | 9km/h | 27832m | 4.7m/s | -46.2°C | 2.8% | 17.5hPa | 2.6V | 08:30:00 | 02:05:19 | 00:00:00 | |
| DD8BA-10 | 2026-09-02 12:23:18 | 51.07732 | 8.05397 | 234° | 13km/h | 27860m | 5.5m/s | -46.3°C | 2.7% | 17.4hPa | 2.6V | 00:00:00 | 00:00:00 | 00:00:00 | |
| DJ2DS-15 | 2026-09-02 12:23:17 | 51.07734 | 8.05401 | 211° | 11km/h | 27854m | 5.4m/s | -46.3°C | 2.7% | 17.4hPa | 2.6V | 00:00:00 | 02:05:23 | 00:00:00 | |
| DM0DOS-11 | 2026-09-02 12:23:16 | 51.07752 | 8.05414 | 283° | 9km/h | 27815m | 5.8m/s | -46.3°C | 2.8% | 17.5hPa | 2.7V | 08:30:00 | 02:05:16 | 00:00:00 | |
| DL1XH-west | 2026-09-02 12:23:14 | 51.07752 | 8.05408 | 219° | 5km/h | 27827m | 5.5m/s | -46.2°C | 0% | 17.5hPa | 2.6V | 18:12:15 | 02:05:18 | 00:00:00 | |
| DL4BBY-15 | 2026-09-02 12:23:14 | 51.07747 | 8.05407 | 184° | 11km/h | 27837m | 4.7m/s | -46.0°C | 0% | 0hPa | 2.6V | 00:00:00 | 00:00:00 | 00:00:00 | |
| DJ2DS-15 | 2026-09-02 12:23:13 | 51.07750 | 8.05407 | 188° | 7km/h | 27832m | 4.7m/s | -46.2°C | 0.6% | 17.5hPa | 2.6V | 00:00:00 | 00:00:00 | 00:00:00 | |
| DL1NUX | 2026-09-02 12:23:12 | 51.07745 | 8.05424 | 4° | 11km/h | 27793m | 6.5m/s | -46.2°C | 2.6% | 17.6hPa | 2.6V | 08:30:00 | 02:05:12 | 00:00:00 | |
| HSKMA3-T | 2026-09-02 12:23:10 | 51.07751 | 8.05417 | 298° | 11km/h | 27810m | 4.8m/s | -46.3°C | 0% | 17.5hPa | 2.7V | 18:12:15 | 02:05:15 | 00:00:00 | |
| DL3AQ-11 | 2026-09-02 12:23:10 | 51.07751 | 8.05417 | 297° | 9km/h | 27810m | 4.8m/s | -46.3°C | 0.6% | 17.5hPa | 2.7V | 00:00:00 | 00:00:00 | 00:00:00 | |
| DD8BA-10 | 2026-09-02 12:23:08 | 51.07750 | 8.05421 | 316° | 11km/h | 27805m | 4.6m/s | -46.3°C | 2.7% | 17.5hPa | 2.7V | 00:00:00 | 00:00:00 | 00:00:00 | |
| DL1XH-15 | 2026-09-02 12:23:07 | 51.07741 | 8.05420 | 56° | 7km/h | 27783m | 4.5m/s | -46.4°C | 2.7% | 17.6hPa | 2.7V | 08:30:00 | 02:05:10 | 00:00:00 | |
| GOEST3-10 | 2026-09-02 12:23:07 | 51.07747 | 8.05423 | 338° | 9km/h | 27800m | 5.8m/s | -46.2°C | 2.7% | 17.5hPa | 2.7V | 00:00:00 | 02:05:13 | 00:00:00 | |
| DL1XH1-15 | 2026-09-02 12:23:04 | 51.07740 | 8.05418 | 110° | 5km/h | 27777m | 6.5m/s | -46.5°C | 2.7% | 17.6hPa | 2.7V | 08:30:00 | 02:05:09 | 00:00:00 | |
| DL1XH-west | 2026-09-02 12:23:04 | 51.07741 | 8.05420 | 57° | 7km/h | 27783m | 4.5m/s | -46.4°C | 0% | 17.6hPa | 2.7V | 18:12:15 | 02:05:10 | 00:00:00 | |
| GOEST3-10 | 2026-09-02 12:23:02 | 51.07742 | 8.05417 | 168° | 13km/h | 27771m | 6.5m/s | -46.4°C | 2.7% | 17.6hPa | 2.7V | 00:00:00 | 00:00:00 | 00:00:00 | |
| DL1NUX | 2026-09-02 12:23:01 | 51.07761 | 8.05423 | 228° | 11km/h | 27737m | 6.4m/s | -46.6°C | 2.8% | 17.7hPa | 2.6V | 08:30:00 | 02:05:02 | 00:00:00 | |
| HSKMA3-T | 2026-09-02 12:22:59 | 51.07752 | 8.05417 | 184° | 16km/h | 27752m | 6m/s | -46.4°C | 0% | 17.7hPa | 2.6V | 18:12:15 | 02:05:05 | 00:00:00 | |
| HARRO8 | 2026-09-02 12:22:59 | 51.07756 | 8.05418 | 192° | 13km/h | 27747m | 4.6m/s | -46.4°C | 0.6% | 17.7hPa | 2.7V | 00:00:00 | 00:00:00 | 00:00:00 | |
| DL1XH1-15 | 2026-09-02 12:22:58 | 51.07761 | 8.05434 | 316° | 11km/h | 27720m | 6.1m/s | -46.9°C | 2.9% | 17.8hPa | 2.7V | 08:30:00 | 02:04:59 | 00:00:00 | |
| BIOWL1-15 | 2026-09-02 12:22:58 | 51.07756 | 8.05418 | 192° | 13km/h | 27747m | 4.6m/s | -46.4°C | 0% | 17.7hPa | 2.7V | 18:12:15 | 02:05:04 | 00:00:00 | |
| SONCRA | 2026-09-02 12:22:58 | 51.07759 | 8.05420 | 208° | 11km/h | 27743m | 5.0m/s | -46.5°C | 0.6% | 17.7hPa | 2.6V | 00:00:00 | 00:00:00 | 00:00:00 | |
| DJ2DS-15 | 2026-09-02 12:22:57 | 51.07759 | 8.05420 | 209° | 13km/h | 27743m | 4.9m/s | -46.5°C | 2.8% | 17.7hPa | 2.6V | 00:00:00 | 02:05:03 | 00:00:00 | |
| DM0DOS-11 | 2026-09-02 12:22:55 | 51.07755 | 8.05438 | 348° | 15km/h | 27708m | 4.5m/s | -46.9°C | 2.8% | 17.8hPa | 2.6V | 08:30:00 | 02:04:57 | 00:00:00 | |
| DL1XH-west | 2026-09-02 12:22:53 | 51.07761 | 8.05434 | 317° | 11km/h | 27720m | 6.1m/s | -46.9°C | 0% | 17.8hPa | 2.7V | 18:12:15 | 02:04:59 | 00:00:00 | |
| SO1NDE-10 | 2026-09-02 12:22:52 | 51.07758 | 8.05437 | 340° | 11km/h | 27714m | 6.5m/s | -46.8°C | 2.8% | 17.7hPa | 2.7V | 00:00:00 | 02:04:58 | 00:00:00 | |
| DL1NUX | 2026-09-02 12:22:51 | 51.07753 | 8.05453 | 219° | 18km/h | 27681m | 5.6m/s | -46.6°C | 2.8% | 17.9hPa | 2.7V | 08:30:00 | 02:04:52 | 00:00:00 | |
| AA1-15 | 2026-09-02 12:22:49 | 51.07750 | 8.05442 | 316° | 9km/h | 27698m | 6.2m/s | -46.8°C | 0% | 17.8hPa | 2.7V | 18:12:15 | 02:04:55 | 00:00:00 | |
| BIOWL1-15 | 2026-09-02 12:22:48 | 51.07757 | 8.05457 | 211° | 18km/h | 27675m | 6.6m/s | -46.6°C | 0% | 17.9hPa | 2.7V | 18:12:15 | 02:04:51 | 00:00:00 | |
| DL3AQ-11 | 2026-09-02 12:22:46 | 51.07757 | 8.05457 | 210° | 16km/h | 27675m | 6.6m/s | -46.6°C | 0.6% | 17.9hPa | 2.7V | 00:00:00 | 00:00:00 | 00:00:00 | |
| DM0DOS-11 | 2026-09-02 12:22:45 | 51.07770 | 8.05469 | 225° | 13km/h | 27652m | 6.5m/s | -46.5°C | 2.8% | 17.9hPa | 2.7V | 08:30:00 | 02:04:47 | 00:00:00 | |
| DL1XH1-15 | 2026-09-02 12:22:45 | 51.07764 | 8.05463 | 204° | 16km/h | 27663m | 5m/s | -46.6°C | 2.8% | 17.9hPa | 2.6V | 08:30:00 | 02:04:49 | 00:00:00 | |
| DL1XH-west | 2026-09-02 12:22:43 | 51.07764 | 8.05463 | 204° | 16km/h | 27663m | 5m/s | -46.6°C | 0% | 17.9hPa | 2.6V | 18:12:15 | 02:04:49 | 00:00:00 | |
| DO9LL-15 | 2026-09-02 12:22:42 | 51.07768 | 8.05466 | 212° | 9km/h | 27658m | 5.2m/s | -46.5°C | 2.8% | 17.9hPa | 2.6V | 00:00:00 | 02:04:48 | 00:00:00 | |
| DL1NUX | 2026-09-02 12:22:41 | 51.07767 | 8.05484 | 355° | 11km/h | 27623m | 4.1m/s | -46.4°C | 2.8% | 18hPa | 2.6V | 08:30:00 | 02:04:42 | 00:00:00 | |
| DL1XH-15 | 2026-09-02 12:22:40 | 51.07762 | 8.05489 | 268° | 9km/h | 27609m | 6.2m/s | -46.6°C | 2.7% | 18.1hPa | 2.7V | 08:30:00 | 02:04:39 | 00:00:00 | |
| HSKMA3-T | 2026-09-02 12:22:39 | 51.07772 | 8.05478 | 276° | 9km/h | 27641m | 5m/s | -46.5°C | 0% | 18hPa | 2.7V | 18:12:15 | 02:04:45 | 00:00:00 | |
| AA1-15 | 2026-09-02 12:22:39 | 51.07771 | 8.05481 | 308° | 9km/h | 27635m | 6.3m/s | -46.6°C | 0% | 18hPa | 2.6V | 18:12:15 | 02:04:44 | 00:00:00 | |
| BIOWL1-15 | 2026-09-02 12:22:36 | 51.07765 | 8.05499 | 235° | 16km/h | 27598m | 5m/s | -46.5°C | 0% | 18.1hPa | 2.6V | 18:12:15 | 02:04:37 | 00:00:00 | |
| DM0DOS-11 | 2026-09-02 12:22:34 | 51.07765 | 8.05499 | 235° | 16km/h | 27598m | 5m/s | -46.5°C | 2.8% | 18.1hPa | 2.6V | 08:30:00 | 02:04:37 | 00:00:00 | |
| DL1XH-west | 2026-09-02 12:22:32 | 51.07763 | 8.05493 | 246° | 15km/h | 27603m | 5.5m/s | -46.6°C | 0% | 18.1hPa | 2.6V | 18:12:15 | 02:04:38 | 00:00:00 | |
| AA1-15 | 2026-09-02 12:22:28 | 51.07773 | 8.05511 | 211° | 11km/h | 27581m | 5.9m/s | -46.6°C | 0% | 18.1hPa | 2.7V | 18:12:15 | 02:04:34 | 00:00:00 | |
| DD8BA-10 | 2026-09-02 12:22:28 | 51.07773 | 8.05511 | 211° | 5km/h | 27581m | 5.8m/s | -46.6°C | 2.8% | 18.1hPa | 2.6V | 00:00:00 | 00:00:00 | 00:00:00 | |
| DL1XH-15 | 2026-09-02 12:22:27 | 51.07776 | 8.05514 | 293° | 4km/h | 27558m | 6.2m/s | -46.7°C | 2.8% | 18.2hPa | 2.6V | 08:30:00 | 02:04:30 | 00:00:00 | |
| BIOWL1-15 | 2026-09-02 12:22:26 | 51.07776 | 8.05514 | 293° | 4km/h | 27559m | 6.2m/s | -46.7°C | 0% | 18.2hPa | 2.6V | 18:12:15 | 02:04:30 | 00:00:00 | |
| DM0DOS-11 | 2026-09-02 12:22:25 | 51.07773 | 8.05520 | 327° | 7km/h | 27541m | 6.4m/s | -46.7°C | 2.8% | 18.2hPa | 2.7V | 08:30:00 | 02:04:27 | 00:00:00 | |
| DL1XH-west | 2026-09-02 12:22:22 | 51.07775 | 8.05518 | 313° | 7km/h | 27548m | 5.4m/s | -46.6°C | 0% | 18.2hPa | 2.7V | 18:12:15 | 02:04:28 | 00:00:00 | |
| SO1NDE-10 | 2026-09-02 12:22:22 | 51.07775 | 8.05518 | 314° | 13km/h | 27548m | 5.3m/s | -46.6°C | 2.8% | 18.2hPa | 2.6V | 00:00:00 | 02:04:28 | 00:00:00 | |
| DO3MHA-11 | 2026-09-02 12:22:21 | 51.07773 | 8.05520 | 328° | 9km/h | 27542m | 6.4m/s | -46.6°C | 2.8% | 18.2hPa | 2.6V | 00:00:00 | 02:04:27 | 00:00:00 | |
| BUE01 | 2026-09-02 12:22:20 | 51.07770 | 8.05522 | 334° | 5km/h | 27531m | 4.6m/s | -46.7°C | 0.6% | 18.3hPa | 2.6V | 00:00:00 | 00:00:00 | 00:00:00 | |
| DL1XH-15 | 2026-09-02 12:22:19 | 51.07771 | 8.05537 | 247° | 7km/h | 27503m | 5.9m/s | -46.7°C | 2.8% | 18.3hPa | 2.6V | 08:30:00 | 02:04:20 | 00:00:00 | |
| DL1XH1-15 | 2026-09-02 12:22:18 | 51.07772 | 8.05539 | 262° | 4km/h | 27497m | 5.8m/s | -46.7°C | 2.9% | 18.4hPa | 2.6V | 08:30:00 | 02:04:19 | 00:00:00 | |
| HSKMA3-T | 2026-09-02 12:22:18 | 51.07769 | 8.05526 | 266° | 7km/h | 27520m | 6.5m/s | -46.7°C | 0% | 18.3hPa | 2.7V | 18:12:15 | 02:04:23 | 00:00:00 | |
| BIOWL1-15 | 2026-09-02 12:22:14 | 51.07769 | 8.05543 | 323° | 7km/h | 27481m | 6.5m/s | -46.6°C | 0% | 18.4hPa | 2.7V | 18:12:15 | 02:04:16 | 00:00:00 | |
| DL4BBY-15 | 2026-09-02 12:22:14 | 51.07771 | 8.05537 | 248° | 15km/h | 27504m | 5.8m/s | -46.4°C | 0% | 0hPa | 2.6V | 00:00:00 | 00:00:00 | 00:00:00 | |
| DL4XJ-10 | 2026-09-02 12:22:13 | 51.07772 | 8.05539 | 263° | 16km/h | 27498m | 5.7m/s | -46.5°C | 0% | 0hPa | 2.6V | 00:00:00 | 00:00:00 | 00:00:00 | |
| DO9LL-15 | 2026-09-02 12:22:12 | 51.07771 | 8.05541 | 314° | 16km/h | 27492m | 4.9m/s | -46.7°C | 2.8% | 18.3hPa | 2.6V | 00:00:00 | 02:04:18 | 00:00:00 | |
| DL1XH-west | 2026-09-02 12:22:12 | 51.07771 | 8.05542 | 327° | 5km/h | 27487m | 5.3m/s | -46.7°C | 0% | 18.4hPa | 2.7V | 18:12:15 | 02:04:17 | 00:00:00 | |
| GOEST3-10 | 2026-09-02 12:22:11 | 51.07771 | 8.05542 | 328° | 11km/h | 27487m | 5.3m/s | -46.6°C | 2.8% | 18.4hPa | 2.7V | 00:00:00 | 00:00:00 | 00:00:00 | |
| DJ8HS-15 | 2026-09-02 12:22:10 | 51.07769 | 8.05543 | 324° | 16km/h | 27481m | 6.4m/s | -46.6°C | 2.8% | 18.4hPa | 2.7V | 00:00:00 | 02:04:16 | 00:00:00 | |
| DO1YAY-16 | 2026-09-02 12:22:09 | 51.07765 | 8.05549 | 318° | 13km/h | 27469m | 5.0m/s | -46.7°C | 0.6% | 18.4hPa | 2.7V | 00:00:00 | 00:00:00 | 00:00:00 | |
| DL1XH-15 | 2026-09-02 12:22:08 | 51.07751 | 8.05564 | 322° | 18km/h | 27448m | 4.3m/s | -46.6°C | 2.8% | 18.5hPa | 2.7V | 08:30:00 | 02:04:10 | 00:00:00 | |
| DM0DOS-11 | 2026-09-02 12:22:07 | 51.07742 | 8.05586 | 286° | 26km/h | 27431m | 5.9m/s | -46.7°C | 2.8% | 18.6hPa | 2.7V | 08:30:00 | 02:04:07 | 00:00:00 | |
| HSKMA3-T | 2026-09-02 12:22:07 | 51.07762 | 8.05553 | 323° | 16km/h | 27464m | 5.3m/s | -46.6°C | 0% | 18.4hPa | 2.6V | 18:12:15 | 02:04:13 | 00:00:00 | |
| GOEST3-10 | 2026-09-02 12:22:07 | 51.07758 | 8.05556 | 330° | 20km/h | 27459m | 6.4m/s | -46.5°C | 2.7% | 18.4hPa | 2.6V | 00:00:00 | 02:04:12 | 00:00:00 | |
| DL3AQ-11 | 2026-09-02 12:22:05 | 51.07755 | 8.05560 | 331° | 16km/h | 27453m | 5.3m/s | -46.7°C | 0.6% | 18.5hPa | 2.6V | 00:00:00 | 00:00:00 | 00:00:00 | |
| DL1XH1-15 | 2026-09-02 12:22:04 | 51.07747 | 8.05570 | 309° | 20km/h | 27443m | 4.9m/s | -46.6°C | 2.8% | 18.5hPa | 2.6V | 08:30:00 | 02:04:09 | 00:00:00 | |
| DL1XH-west | 2026-09-02 12:22:00 | 51.07741 | 8.05596 | 279° | 27km/h | 27426m | 4.6m/s | -46.6°C | 0% | 18.6hPa | 2.7V | 18:12:15 | 02:04:06 | 00:00:00 | |
| DO3DL | 2026-09-02 12:22:00 | 51.07742 | 8.05586 | 287° | 26km/h | 27431m | 5.9m/s | -46.7°C | 0.6% | 18.6hPa | 2.6V | 00:00:00 | 00:00:00 | 00:00:00 | |
| DL1XH-15 | 2026-09-02 12:21:59 | 51.07736 | 8.05636 | 284° | 13km/h | 27394m | 5.9m/s | -46.4°C | 2.8% | 18.7hPa | 2.6V | 08:30:00 | 02:04:00 | 00:00:00 | |
| AU51GT2 | 2026-09-02 12:21:59 | 51.07739 | 8.05615 | 276° | 18km/h | 27415m | 6.0m/s | -46.6°C | 0.6% | 18.6hPa | 2.6V | 00:00:00 | 00:00:00 | 00:00:00 | |
| DL1XH1-15 | 2026-09-02 12:21:58 | 51.07735 | 8.05641 | 280° | 15km/h | 27388m | 5.3m/s | -46.5°C | 2.8% | 18.7hPa | 2.6V | 08:30:00 | 02:03:59 | 00:00:00 | |
| HSKMA3-T | 2026-09-02 12:21:57 | 51.07738 | 8.05627 | 287° | 11km/h | 27404m | 4.9m/s | -46.6°C | 0% | 18.6hPa | 2.7V | 18:12:15 | 02:04:02 | 00:00:00 | |
| AA1-15 | 2026-09-02 12:21:56 | 51.07737 | 8.05631 | 288° | 11km/h | 27399m | 5.3m/s | -46.6°C | 0% | 18.6hPa | 2.6V | 18:12:15 | 02:04:01 | 00:00:00 | |
| DB0DAN | 2026-09-02 12:21:55 | 51.07737 | 8.05631 | 288° | 11km/h | 27399m | 5.3m/s | -46.6°C | 0% | 18.65hPa | 2.6V | 00:00:00 | 00:00:00 | 00:00:00 | |
| DO3DL | 2026-09-02 12:21:54 | 51.07737 | 8.05631 | 289° | 11km/h | 27400m | 5.3m/s | -46.6°C | 0.6% | 18.6hPa | 2.7V | 00:00:00 | 00:00:00 | 00:00:00 | |
| DM0DOS-11 | 2026-09-02 12:21:53 | 51.07735 | 8.05653 | 273° | 15km/h | 27378m | 4.5m/s | -46.4°C | 2.8% | 18.7hPa | 2.7V | 08:30:00 | 02:03:57 | 00:00:00 | |
| BIOWL1-15 | 2026-09-02 12:21:51 | 51.07735 | 8.05653 | 273° | 15km/h | 27378m | 4.6m/s | -46.4°C | 0% | 18.7hPa | 2.7V | 18:12:15 | 02:03:57 | 00:00:00 | |
| DL1XH-west | 2026-09-02 12:21:50 | 51.07734 | 8.05658 | 272° | 13km/h | 27373m | 6.6m/s | -46.5°C | 0% | 18.7hPa | 2.7V | 18:12:15 | 02:03:56 | 00:00:00 | |
| DL3AQ-11 | 2026-09-02 12:21:49 | 51.07734 | 8.05663 | 271° | 11km/h | 27367m | 5.5m/s | -46.5°C | 0.6% | 18.7hPa | 2.6V | 00:00:00 | 00:00:00 | 00:00:00 | |
| DD8BA-10 | 2026-09-02 12:21:48 | 51.07734 | 8.05668 | 271° | 20km/h | 27362m | 4.6m/s | -46.3°C | 2.8% | 18.7hPa | 2.6V | 00:00:00 | 00:00:00 | 00:00:00 | |
| DL1XH-15 | 2026-09-02 12:21:47 | 51.07732 | 8.05700 | 280° | 26km/h | 27339m | 4.9m/s | -46.3°C | 2.8% | 18.8hPa | 2.7V | 08:30:00 | 02:03:50 | 00:00:00 | |
| HSKMA3-T | 2026-09-02 12:21:47 | 51.07734 | 8.05681 | 275° | 22km/h | 27350m | 6.5m/s | -46.5°C | 0% | 18.8hPa | 2.7V | 18:12:15 | 02:03:52 | 00:00:00 | |
| DM0DOS-11 | 2026-09-02 12:21:46 | 51.07728 | 8.05727 | 288° | 20km/h | 27322m | 4.8m/s | -46.3°C | 2.7% | 18.9hPa | 2.6V | 08:30:00 | 02:03:47 | 00:00:00 | |
| AA1-15 | 2026-09-02 12:21:44 | 51.07732 | 8.05700 | 280° | 26km/h | 27339m | 4.9m/s | -46.3°C | 0% | 18.8hPa | 2.7V | 18:12:15 | 02:03:50 | 00:00:00 | |
| EDDB2-11 | 2026-09-02 12:21:44 | 51.07731 | 8.05710 | 283° | 24km/h | 27334m | 6.2m/s | -46.4°C | 0.6% | 18.9hPa | 2.6V | 00:00:00 | 00:00:00 | 00:00:00 | |
| DO9LL-15 | 2026-09-02 12:21:42 | 51.07729 | 8.05719 | 288° | 20km/h | 27328m | 5.8m/s | -46.3°C | 2.8% | 18.8hPa | 2.6V | 00:00:00 | 02:03:48 | 00:00:00 | |
| DL1NUX | 2026-09-02 12:21:41 | 51.07729 | 8.05768 | 249° | 24km/h | 27295m | 5m/s | -46.4°C | 2.9% | 18.9hPa | 2.6V | 08:30:00 | 02:03:42 | 00:00:00 | |
| BIOWL1-15 | 2026-09-02 12:21:40 | 51.07727 | 8.05734 | 283° | 18km/h | 27317m | 4.7m/s | -46.4°C | 0% | 18.9hPa | 2.7V | 18:12:15 | 02:03:46 | 00:00:00 | |
| DL1XH-west | 2026-09-02 12:21:39 | 51.07726 | 8.05742 | 274° | 20km/h | 27312m | 6.3m/s | -46.4°C | 0% | 18.9hPa | 2.7V | 18:12:15 | 02:03:45 | 00:00:00 | |
| DD1CC2-15 | 2026-09-02 12:21:39 | 51.07727 | 8.05734 | 284° | 18km/h | 27318m | 4.7m/s | -46.4°C | 0.6% | 18.9hPa | 2.7V | 00:00:00 | 00:00:00 | 00:00:00 | |
| DL1XH1-15 | 2026-09-02 12:21:38 | 51.07735 | 8.05790 | 244° | 18km/h | 27278m | 4.9m/s | -46.4°C | 2.8% | 19hPa | 2.7V | 08:30:00 | 02:03:39 | 00:00:00 | |
| HSKMA3-T | 2026-09-02 12:21:36 | 51.07729 | 8.05768 | 249° | 24km/h | 27295m | 5.1m/s | -46.4°C | 0% | 18.9hPa | 2.6V | 18:12:15 | 02:03:42 | 00:00:00 | |
| AA1-15 | 2026-09-02 12:21:33 | 51.07735 | 8.05790 | 245° | 18km/h | 27278m | 4.9m/s | -46.4°C | 0% | 19hPa | 2.7V | 18:12:15 | 02:03:39 | 00:00:00 | |
| DL4XJ-10 | 2026-09-02 12:21:33 | 51.07735 | 8.05790 | 245° | 20km/h | 27278m | 4.9m/s | -46.1°C | 0% | 0hPa | 2.7V | 00:00:00 | 00:00:00 | 00:00:00 | |
| DL1NUX | 2026-09-02 12:21:31 | 51.07743 | 8.05842 | 252° | 11km/h | 27238m | 4.4m/s | -46.3°C | 2.8% | 19.1hPa | 2.7V | 08:30:00 | 02:03:32 | 00:00:00 | |
| BIOWL1-15 | 2026-09-02 12:21:30 | 51.07740 | 8.05814 | 259° | 24km/h | 27261m | 5.5m/s | -46.4°C | 0% | 19.1hPa | 2.6V | 18:12:15 | 02:03:36 | 00:00:00 | |
| DL1XH-west | 2026-09-02 12:21:28 | 51.07743 | 8.05837 | 258° | 13km/h | 27243m | 5.8m/s | -46.3°C | 0% | 19.1hPa | 2.7V | 18:12:15 | 02:03:33 | 00:00:00 | |
| DL1XH-15 | 2026-09-02 12:21:28 | 51.07745 | 8.05851 | 249° | 15km/h | 27228m | 6.2m/s | -46.2°C | 2.7% | 19.1hPa | 2.6V | 08:30:00 | 02:03:30 | 00:00:00 | |
| HSKMA3-T | 2026-09-02 12:21:26 | 51.07746 | 8.05851 | 250° | 15km/h | 27228m | 6.2m/s | -46.2°C | 0% | 19.1hPa | 2.6V | 18:12:15 | 02:03:30 | 00:00:00 | |
| AA1-15 | 2026-09-02 12:21:22 | 51.07748 | 8.05864 | 251° | 20km/h | 27216m | 5.2m/s | -46.3°C | 0% | 19.2hPa | 2.7V | 18:12:15 | 02:03:28 | 00:00:00 | |
| SO1NDE-10 | 2026-09-02 12:21:22 | 51.07748 | 8.05864 | 252° | 24km/h | 27217m | 5.2m/s | -46.3°C | 2.8% | 19.1hPa | 2.6V | 00:00:00 | 02:03:28 | 00:00:00 | |
| DL1NUX | 2026-09-02 12:21:21 | 51.07761 | 8.05905 | 243° | 24km/h | 27184m | 6.6m/s | -46.1°C | 2.8% | 19.3hPa | 2.6V | 08:30:00 | 02:03:22 | 00:00:00 | |
| DL1XH-west | 2026-09-02 12:21:18 | 51.07756 | 8.05890 | 240° | 18km/h | 27194m | 4.4m/s | -46.3°C | 0% | 19.2hPa | 2.7V | 18:12:15 | 02:03:24 | 00:00:00 | |
| DL1XH1-15 | 2026-09-02 12:21:18 | 51.07771 | 8.05931 | 233° | 24km/h | 27167m | 6.5m/s | -46.3°C | 2.8% | 19.3hPa | 2.7V | 08:30:00 | 02:03:19 | 00:00:00 | |
| HSKMA3-T | 2026-09-02 12:21:15 | 51.07764 | 8.05914 | 242° | 27km/h | 27178m | 5.5m/s | -46.1°C | 0% | 19.3hPa | 2.6V | 18:12:15 | 02:03:21 | 00:00:00 | |
| AA1-15 | 2026-09-02 12:21:12 | 51.07774 | 8.05938 | 226° | 22km/h | 27161m | 6m/s | -46.2°C | 0% | 19.3hPa | 2.6V | 18:12:15 | 02:03:18 | 00:00:00 | |
| DM0DOS-11 | 2026-09-02 12:21:12 | 51.07778 | 8.05944 | 219° | 18km/h | 27155m | 5m/s | -46.1°C | 2.7% | 19.4hPa | 2.6V | 08:30:00 | 02:03:17 | 00:00:00 | |
| BIOWL1-15 | 2026-09-02 12:21:11 | 51.07798 | 8.05991 | 238° | 20km/h | 27117m | 5.6m/s | -46°C | 0% | 19.5hPa | 2.6V | 18:12:15 | 02:03:10 | 00:00:00 | |
| WPPR-10 | 2026-09-02 12:21:11 | 51.07781 | 8.05949 | 220° | 18km/h | 27150m | 5.0m/s | -46.0°C | 0.6% | 19.4hPa | 2.7V | 00:00:00 | 00:00:00 | 00:00:00 | |
| DL3AQ-11 | 2026-09-02 12:21:10 | 51.07785 | 8.05954 | 227° | 18km/h | 27145m | 6.4m/s | -46.0°C | 0.6% | 19.4hPa | 2.7V | 00:00:00 | 00:00:00 | 00:00:00 | |
| DB0NH | 2026-09-02 12:21:09 | 51.07785 | 8.05954 | 228° | 18km/h | 27145m | 6.3m/s | -46.0°C | 2.7% | 19.3hPa | 2.7V | 00:00:00 | 02:03:15 | 00:00:00 | |
| NBG1-10 | 2026-09-02 12:21:08 | 51.07791 | 8.05968 | 243° | 26km/h | 27134m | 4.5m/s | -46.1°C | 2.7% | 19.4hPa | 2.7V | 00:00:00 | 02:03:13 | 00:00:00 | |
| DL1XH-15 | 2026-09-02 12:21:07 | 51.07798 | 8.05991 | 238° | 18km/h | 27117m | 5.6m/s | -46°C | 2.8% | 19.4hPa | 2.6V | 08:30:00 | 02:03:10 | 00:00:00 | |
| DL1XH-west | 2026-09-02 12:21:07 | 51.07791 | 8.05968 | 242° | 22km/h | 27133m | 4.6m/s | -46.1°C | 0% | 19.4hPa | 2.7V | 18:12:15 | 02:03:13 | 00:00:00 | |
| DO1YAY-16 | 2026-09-02 12:21:07 | 51.07793 | 8.05976 | 244° | 22km/h | 27128m | 5.2m/s | -46.2°C | 0.6% | 19.4hPa | 2.7V | 00:00:00 | 00:00:00 | 00:00:00 | |
| DM0DOS-11 | 2026-09-02 12:21:06 | 51.07808 | 8.06012 | 233° | 26km/h | 27100m | 6.5m/s | -45.7°C | 2.7% | 19.5hPa | 2.7V | 08:30:00 | 02:03:07 | 00:00:00 | |
| HSKMA3-T | 2026-09-02 12:21:05 | 51.07796 | 8.05984 | 242° | 20km/h | 27122m | 6.4m/s | -46.1°C | 0% | 19.4hPa | 2.6V | 18:12:15 | 02:03:11 | 00:00:00 | |
| DL1XH1-15 | 2026-09-02 12:21:04 | 51.07801 | 8.05997 | 235° | 20km/h | 27111m | 5.1m/s | -46°C | 2.8% | 19.5hPa | 2.7V | 08:30:00 | 02:03:09 | 00:00:00 | |
| AA1-15 | 2026-09-02 12:21:01 | 51.07808 | 8.06012 | 233° | 26km/h | 27100m | 6.5m/s | -45.7°C | 0% | 19.5hPa | 2.7V | 18:12:15 | 02:03:07 | 00:00:00 | |
| DL1NUX | 2026-09-02 12:21:01 | 51.07837 | 8.06048 | 199° | 29km/h | 27071m | 5.1m/s | -45.5°C | 2.7% | 19.6hPa | 2.7V | 08:30:00 | 02:03:02 | 00:00:00 | |
| BIOWL1-15 | 2026-09-02 12:21:00 | 51.07823 | 8.06037 | 215° | 31km/h | 27084m | 6.1m/s | -45.6°C | 0% | 19.6hPa | 2.6V | 18:12:15 | 02:03:04 | 00:00:00 | |
| DL1XH-15 | 2026-09-02 12:20:59 | 51.07851 | 8.06056 | 206° | 27km/h | 27061m | 6.3m/s | -45.4°C | 2.6% | 19.6hPa | 2.6V | 08:30:00 | 02:03:00 | 00:00:00 | |
| AU51GT2 | 2026-09-02 12:20:59 | 51.07837 | 8.06048 | 199° | 29km/h | 27072m | 5.1m/s | -45.5°C | 0.6% | 19.6hPa | 2.6V | 00:00:00 | 00:00:00 | 00:00:00 | |
| DL1XH1-15 | 2026-09-02 12:20:58 | 51.07856 | 8.06062 | 216° | 27km/h | 27055m | 5.6m/s | -45.4°C | 2.6% | 19.6hPa | 2.6V | 08:30:00 | 02:02:59 | 00:00:00 | |
| DL1XH-west | 2026-09-02 12:20:56 | 51.07837 | 8.06048 | 199° | 29km/h | 27071m | 5.1m/s | -45.5°C | 0% | 19.6hPa | 2.7V | 18:12:15 | 02:03:02 | 00:00:00 | |
| HSKMA3-T | 2026-09-02 12:20:54 | 51.07851 | 8.06056 | 207° | 27km/h | 27061m | 6.4m/s | -45.4°C | 0% | 19.6hPa | 2.6V | 18:12:15 | 02:03:00 | 00:00:00 | |
| DD1CC8 | 2026-09-02 12:20:54 | 51.07856 | 8.06062 | 216° | 26km/h | 27055m | 5.6m/s | -45.4°C | 0.6% | 19.6hPa | 2.6V | 00:00:00 | 00:00:00 | 00:00:00 | |
| DL3OBA | 2026-09-02 12:20:53 | 51.07851 | 8.06056 | 208° | 27km/h | 27062m | 6.4m/s | -45.4°C | 0.6% | 19.6hPa | 2.6V | 00:00:00 | 00:00:00 | 00:00:00 | |
| SO1NDE-10 | 2026-09-02 12:20:52 | 51.07862 | 8.06069 | 224° | 24km/h | 27050m | 5.2m/s | -45.4°C | 2.6% | 19.6hPa | 2.6V | 00:00:00 | 02:02:58 | 00:00:00 | |
| DL1NUX | 2026-09-02 12:20:51 | 51.07888 | 8.06106 | 218° | 27km/h | 27016m | 5.9m/s | -45.6°C | 2.7% | 19.8hPa | 2.6V | 08:30:00 | 02:02:52 | 00:00:00 | |
| AA1-15 | 2026-09-02 12:20:50 | 51.07870 | 8.06083 | 224° | 22km/h | 27039m | 6.4m/s | -45.6°C | 0% | 19.7hPa | 2.7V | 18:12:15 | 02:02:56 | 00:00:00 | |
| GOEST3-10 | 2026-09-02 12:20:50 | 51.07870 | 8.06082 | 225° | 24km/h | 27039m | 6.4m/s | -45.5°C | 2.6% | 19.7hPa | 2.6V | 00:00:00 | 00:00:00 | 00:00:00 | |
| DD8BA-10 | 2026-09-02 12:20:48 | 51.07879 | 8.06094 | 218° | 29km/h | 27028m | 4.7m/s | -45.5°C | 2.7% | 19.7hPa | 2.6V | 00:00:00 | 00:00:00 | 08:30:00 | |
| DL1XH-15 | 2026-09-02 12:20:47 | 51.07901 | 8.06120 | 208° | 31km/h | 27006m | 4.4m/s | -45.6°C | 2.7% | 19.8hPa | 2.7V | 08:30:00 | 02:02:50 | 00:00:00 | |
| DL1XH-west | 2026-09-02 12:20:46 | 51.07888 | 8.06107 | 219° | 27km/h | 27016m | 5.9m/s | -45.6°C | 0% | 19.8hPa | 2.6V | 18:12:15 | 02:02:52 | 00:00:00 | |
| DL3AQ-11 | 2026-09-02 12:20:46 | 51.07894 | 8.06113 | 215° | 29km/h | 27011m | 4.8m/s | -45.6°C | 0.6% | 19.8hPa | 2.6V | 00:00:00 | 00:00:00 | 00:00:00 | |
| DL1XH1-15 | 2026-09-02 12:20:45 | 51.07908 | 8.06125 | 199° | 31km/h | 27001m | 6.4m/s | -45.6°C | 2.7% | 19.8hPa | 2.6V | 08:30:00 | 02:02:49 | 00:00:00 | |
| DL8DAS-14 | 2026-09-02 12:20:45 | 51.07901 | 8.06120 | 208° | 29km/h | 27006m | 4.4m/s | -45.6°C | 0.6% | 19.8hPa | 2.6V | 00:00:00 | 00:00:00 | 00:00:00 | |
| HSKMA3-T | 2026-09-02 12:20:43 | 51.07908 | 8.06125 | 200° | 31km/h | 27001m | 6.4m/s | -45.6°C | 0% | 19.8hPa | 2.6V | 18:12:15 | 02:02:49 | 00:00:00 | |
| DO9LL-15 | 2026-09-02 12:20:42 | 51.07915 | 8.06128 | 190° | 20km/h | 26995m | 6.2m/s | -45.5°C | 2.7% | 19.8hPa | 2.6V | 00:00:00 | 02:02:48 | 08:30:00 | |
| DL1NUX | 2026-09-02 12:20:41 | 51.07956 | 8.06140 | 203° | 22km/h | 26962m | 5.4m/s | -45.5°C | 2.6% | 19.9hPa | 2.7V | 08:30:00 | 02:02:42 | 00:00:00 | |
| AA1-15 | 2026-09-02 12:20:39 | 51.07938 | 8.06131 | 189° | 27km/h | 26978m | 6.2m/s | -45.5°C | 0% | 19.9hPa | 2.6V | 18:12:15 | 02:02:45 | 00:00:00 | |
| DL1XH1-15 | 2026-09-02 12:20:38 | 51.07971 | 8.06148 | 193° | 20km/h | 26945m | 5m/s | -45.7°C | 2.6% | 20hPa | 2.6V | 08:30:00 | 02:02:39 | 00:00:00 | |
| DL1XH-west | 2026-09-02 12:20:35 | 51.07961 | 8.06144 | 199° | 22km/h | 26956m | 6.5m/s | -45.5°C | 0% | 19.9hPa | 2.6V | 18:12:15 | 02:02:41 | 00:00:00 | |
| HSKMA3-T | 2026-09-02 12:20:33 | 51.07971 | 8.06148 | 194° | 20km/h | 26945m | 5m/s | -45.7°C | 0% | 20hPa | 2.6V | 18:12:15 | 02:02:39 | 00:00:00 | |
| NBG1-10 | 2026-09-02 12:20:32 | 51.07976 | 8.06150 | 200° | 18km/h | 26939m | 6.0m/s | -45.7°C | 2.6% | 20.0hPa | 2.7V | 00:00:00 | 02:02:38 | 00:00:00 | |
| DM0DOS-11 | 2026-09-02 12:20:32 | 51.07980 | 8.06153 | 205° | 20km/h | 26933m | 6m/s | -45.6°C | 2.7% | 20hPa | 2.7V | 08:30:00 | 02:02:37 | 00:00:00 | |
| DL1NUX | 2026-09-02 12:20:31 | 51.08007 | 8.06160 | 170° | 24km/h | 26906m | 4.7m/s | -45.7°C | 2.7% | 20.1hPa | 2.7V | 08:30:00 | 02:02:32 | 00:00:00 | |
| AA1-15 | 2026-09-02 12:20:29 | 51.07990 | 8.06159 | 197° | 22km/h | 26923m | 4.7m/s | -45.6°C | 0% | 20.1hPa | 2.6V | 18:12:15 | 02:02:35 | 00:00:00 | |
| DD8BA-10 | 2026-09-02 12:20:28 | 51.07995 | 8.06161 | 188° | 18km/h | 26918m | 6.5m/s | -45.6°C | 2.8% | 20.0hPa | 2.7V | 00:00:00 | 00:00:00 | 00:00:00 | |
| DL1XH-15 | 2026-09-02 12:20:28 | 51.08018 | 8.06158 | 177° | 18km/h | 26895m | 6.2m/s | -45.8°C | 2.8% | 20.1hPa | 2.7V | 08:30:00 | 02:02:30 | 00:00:00 | |
| DO3DL | 2026-09-02 12:20:27 | 51.07995 | 8.06161 | 188° | 22km/h | 26918m | 6.6m/s | -45.7°C | 0.6% | 20.1hPa | 2.7V | 00:00:00 | 00:00:00 | 00:00:00 | |
| AU51GT2 | 2026-09-02 12:20:26 | 51.08013 | 8.06159 | 171° | 22km/h | 26901m | 5.3m/s | -45.8°C | 0.6% | 20.1hPa | 2.7V | 00:00:00 | 00:00:00 | 00:00:00 | |
| DM0DOS-11 | 2026-09-02 12:20:25 | 51.08032 | 8.06161 | 179° | 13km/h | 26873m | 6.2m/s | -45.7°C | 2.7% | 20.2hPa | 2.7V | 08:30:00 | 02:02:26 | 00:00:00 | |
| BIOWL1-15 | 2026-09-02 12:20:25 | 51.08056 | 8.06151 | 160° | 24km/h | 26834m | 6.4m/s | -45.5°C | 0% | 20.3hPa | 2.7V | 18:12:15 | 02:02:19 | 00:00:00 | |
| DL1XH-west | 2026-09-02 12:20:25 | 51.08013 | 8.06159 | 172° | 22km/h | 26901m | 5.3m/s | -45.8°C | 0% | 20.1hPa | 2.7V | 18:12:15 | 02:02:31 | 00:00:00 | |
| DJ2KF-10 | 2026-09-02 12:20:25 | 51.08013 | 8.06159 | 172° | 16km/h | 26901m | 5.2m/s | -45.7°C | 2.8% | 20.1hPa | 2.6V | 00:00:00 | 02:02:31 | 00:00:00 | |
| DD1CC8 | 2026-09-02 12:20:23 | 51.08026 | 8.06159 | 193° | 13km/h | 26884m | 5.1m/s | -45.8°C | 0.6% | 20.2hPa | 2.6V | 00:00:00 | 00:00:00 | 00:00:00 | |
| HSKMA3-T | 2026-09-02 12:20:23 | 51.08023 | 8.06158 | 187° | 15km/h | 26889m | 5.6m/s | -45.9°C | 0% | 20.2hPa | 2.6V | 18:12:15 | 02:02:29 | 00:00:00 | |
| SO1NDE-10 | 2026-09-02 12:20:22 | 51.08026 | 8.06159 | 194° | 16km/h | 26884m | 5.0m/s | -45.8°C | 2.8% | 20.1hPa | 2.6V | 00:00:00 | 02:02:28 | 08:30:00 | |
| DL1NUX | 2026-09-02 12:20:21 | 51.08044 | 8.06157 | 168° | 11km/h | 26850m | 5.4m/s | -45.8°C | 2.7% | 20.3hPa | 2.6V | 08:30:00 | 02:02:22 | 00:00:00 | |
| GOEST3-10 | 2026-09-02 12:20:20 | 51.08032 | 8.06160 | 180° | 11km/h | 26873m | 6.2m/s | -45.6°C | 2.7% | 20.2hPa | 2.7V | 00:00:00 | 00:00:00 | 00:00:00 | |
| DL1XH-15 | 2026-09-02 12:20:19 | 51.08056 | 8.06151 | 159° | 24km/h | 26834m | 6.4m/s | -45.5°C | 2.7% | 20.3hPa | 2.7V | 08:30:00 | 02:02:19 | 00:00:00 | |
| DL1XH1-15 | 2026-09-02 12:20:18 | 51.08056 | 8.06151 | 159° | 24km/h | 26834m | 6.4m/s | -45.5°C | 2.7% | 20.3hPa | 2.7V | 08:30:00 | 02:02:19 | 00:00:00 | |
| AA1-15 | 2026-09-02 12:20:18 | 51.08038 | 8.06159 | 166° | 11km/h | 26862m | 5.1m/s | -45.7°C | 0% | 20.2hPa | 2.7V | 18:12:15 | 02:02:24 | 00:00:00 | |
| DL1XH-west | 2026-09-02 12:20:15 | 51.08062 | 8.06148 | 160° | 27km/h | 26828m | 5.2m/s | -45.5°C | 0% | 20.4hPa | 2.6V | 18:12:15 | 02:02:18 | 00:00:00 | |
| DM0DOS-11 | 2026-09-02 12:20:14 | 51.08075 | 8.06142 | 166° | 24km/h | 26818m | 5.9m/s | -45.5°C | 2.7% | 20.4hPa | 2.7V | 08:30:00 | 02:02:16 | 00:00:00 | |
| HSKMA3-T | 2026-09-02 12:20:13 | 51.08068 | 8.06144 | 162° | 27km/h | 26823m | 4.8m/s | -45.5°C | 0% | 20.4hPa | 2.6V | 18:12:15 | 02:02:17 | 00:00:00 | |
| DO9LL-15 | 2026-09-02 12:20:13 | 51.08062 | 8.06148 | 160° | 18km/h | 26828m | 5.1m/s | -45.4°C | 2.8% | 20.3hPa | 2.7V | 00:00:00 | 02:02:18 | 00:00:00 | |
| DJ8HS-15 | 2026-09-02 12:20:12 | 51.08074 | 8.06142 | 167° | 18km/h | 26818m | 5.8m/s | -45.4°C | 2.7% | 20.3hPa | 2.7V | 00:00:00 | 02:02:16 | 00:00:00 | |
| DB0ND-19 | 2026-09-02 12:20:10 | 51.08080 | 8.06140 | 174° | 18km/h | 26812m | 5.8m/s | -45.5°C | 0.6% | 20.4hPa | 2.7V | 00:00:00 | 00:00:00 | 00:00:00 | |
| DL1NUX | 2026-09-02 12:20:09 | 51.08092 | 8.06140 | 175° | 15km/h | 26796m | 6.1m/s | -45.5°C | 2.6% | 20.4hPa | 2.7V | 08:30:00 | 02:02:12 | 00:00:00 | |
| AA1-15 | 2026-09-02 12:20:07 | 51.08088 | 8.06140 | 183° | 15km/h | 26801m | 5.1m/s | -45.5°C | 0% | 20.4hPa | 2.6V | 18:12:15 | 02:02:13 | 00:00:00 | |
| DL1XH-15 | 2026-09-02 12:20:07 | 51.08099 | 8.06137 | 154° | 15km/h | 26785m | 5m/s | -45.6°C | 2.6% | 20.5hPa | 2.6V | 08:30:00 | 02:02:10 | 00:00:00 | |
| BIOWL1-15 | 2026-09-02 12:20:03 | 51.08107 | 8.06130 | 149° | 11km/h | 26768m | 5.4m/s | -45.6°C | 0% | 20.5hPa | 2.7V | 18:12:15 | 02:02:07 | 00:00:00 | |
| DL1XH-west | 2026-09-02 12:20:02 | 51.08105 | 8.06132 | 149° | 11km/h | 26774m | 6.5m/s | -45.6°C | 0% | 20.5hPa | 2.6V | 18:12:15 | 02:02:08 | 00:00:00 | |
| DM0DOS-11 | 2026-09-02 12:20:01 | 51.08109 | 8.06127 | 151° | 11km/h | 26763m | 4.8m/s | -45.5°C | 2.6% | 20.5hPa | 2.7V | 08:30:00 | 02:02:06 | 00:00:00 | |
| GOEST3-10 | 2026-09-02 12:20:00 | 51.08109 | 8.06127 | 152° | 20km/h | 26763m | 4.7m/s | -45.5°C | 2.6% | 20.5hPa | 2.7V | 00:00:00 | 00:00:00 | 00:00:00 | |
| DL1XH-15 | 2026-09-02 12:19:59 | 51.08139 | 8.06111 | 174° | 22km/h | 26731m | 5.5m/s | -45.2°C | 2.6% | 20.6hPa | 2.7V | 08:30:00 | 02:02:00 | 00:00:00 | |
| DB0NH | 2026-09-02 12:19:59 | 51.08112 | 8.06125 | 153° | 18km/h | 26758m | 5.5m/s | -45.3°C | 2.6% | 20.5hPa | 2.7V | 00:00:00 | 02:02:05 | 00:00:00 | |
| DL1XH1-15 | 2026-09-02 12:19:58 | 51.08145 | 8.06110 | 179° | 20km/h | 26726m | 4.6m/s | -45.2°C | 2.6% | 20.6hPa | 2.7V | 08:30:00 | 02:01:59 | 00:00:00 | |
| AA1-15 | 2026-09-02 12:19:56 | 51.08128 | 8.06115 | 163° | 26km/h | 26742m | 4.1m/s | -45.2°C | 0% | 20.6hPa | 2.6V | 18:12:15 | 02:02:02 | 00:00:00 | |
| DM0DOS-11 | 2026-09-02 12:19:56 | 51.08163 | 8.06104 | 149° | 18km/h | 26705m | 5m/s | -45.4°C | 2.7% | 20.7hPa | 2.7V | 08:30:00 | 02:01:55 | 00:00:00 | |
| DL1XH-west | 2026-09-02 12:19:52 | 51.08150 | 8.06110 | 177° | 18km/h | 26722m | 4.6m/s | -45.2°C | 0% | 20.7hPa | 2.6V | 18:12:15 | 02:01:58 | 00:00:00 | |
| HSKMA3-T | 2026-09-02 12:19:51 | 51.08154 | 8.06109 | 170° | 18km/h | 26716m | 6.1m/s | -45.3°C | 0% | 20.7hPa | 2.6V | 18:12:15 | 02:01:57 | 00:00:00 | |
| BIOWL1-15 | 2026-09-02 12:19:51 | 51.08169 | 8.06096 | 135° | 15km/h | 26694m | 5.8m/s | -45.5°C | 0% | 20.7hPa | 2.7V | 18:12:15 | 02:01:53 | 00:00:00 | |
| DL3AQ-11 | 2026-09-02 12:19:50 | 51.08163 | 8.06104 | 149° | 18km/h | 26705m | 5.0m/s | -45.4°C | 0.6% | 20.7hPa | 2.6V | 00:00:00 | 00:00:00 | 00:00:00 | |
| DL1NUX | 2026-09-02 12:19:49 | 51.08172 | 8.06092 | 134° | 15km/h | 26689m | 4.5m/s | -45.5°C | 2.6% | 20.8hPa | 2.6V | 08:30:00 | 02:01:52 | 00:00:00 | |
| DL4XJ-10 | 2026-09-02 12:19:48 | 51.08166 | 8.06100 | 142° | 18km/h | 26700m | 5.6m/s | -45.1°C | 0% | 0hPa | 2.6V | 00:00:00 | 00:00:00 | 00:00:00 | |
| DL1XH-15 | 2026-09-02 12:19:47 | 51.08178 | 8.06083 | 145° | 20km/h | 26680m | 5.4m/s | -45.7°C | 2.6% | 20.8hPa | 2.6V | 08:30:00 | 02:01:50 | 00:00:00 | |
| AA1-15 | 2026-09-02 12:19:46 | 51.08172 | 8.06092 | 134° | 15km/h | 26689m | 4.5m/s | -45.5°C | 0% | 20.8hPa | 2.6V | 18:12:15 | 02:01:52 | 00:00:00 | |
| GOEST3-10 | 2026-09-02 12:19:46 | 51.08175 | 8.06088 | 140° | 24km/h | 26685m | 3.8m/s | -45.6°C | 2.6% | 20.8hPa | 2.6V | 00:00:00 | 02:01:51 | 08:30:00 | |
| DB0UT-7 | 2026-09-02 12:19:45 | 51.08175 | 8.06088 | 140° | 16km/h | 26685m | 3.8m/s | -45.6°C | 2.6% | 20.8hPa | 2.7V | 00:00:00 | 02:01:51 | 00:00:00 | |
| DM0DOS-11 | 2026-09-02 12:19:44 | 51.08209 | 8.06068 | 177° | 24km/h | 26653m | 5.2m/s | -45.6°C | 2.6% | 20.9hPa | 2.7V | 08:30:00 | 02:01:45 | 00:00:00 | |
| DL1XH-west | 2026-09-02 12:19:41 | 51.08196 | 8.06071 | 166° | 29km/h | 26664m | 4.7m/s | -45.6°C | 0% | 20.9hPa | 2.6V | 18:12:15 | 02:01:47 | 00:00:00 | |
| HSKMA3-T | 2026-09-02 12:19:40 | 51.08203 | 8.06069 | 172° | 27km/h | 26658m | 6.3m/s | -45.6°C | 0% | 20.9hPa | 2.6V | 18:12:15 | 02:01:46 | 00:00:00 | |
| GOEST3-10 | 2026-09-02 12:19:40 | 51.08203 | 8.06069 | 172° | 20km/h | 26659m | 6.2m/s | -45.6°C | 2.6% | 20.8hPa | 2.7V | 00:00:00 | 00:00:00 | 00:00:00 | |
| DL1XH-15 | 2026-09-02 12:19:39 | 51.08231 | 8.06060 | 146° | 15km/h | 26628m | 4.4m/s | -46°C | 2.7% | 21hPa | 2.7V | 08:30:00 | 02:01:40 | 00:00:00 | |
| DL1XH1-15 | 2026-09-02 12:19:39 | 51.08234 | 8.06057 | 146° | 13km/h | 26623m | 5.7m/s | -46.1°C | 2.7% | 21hPa | 2.7V | 08:30:00 | 02:01:39 | 00:00:00 | |
| DF8AY | 2026-09-02 12:19:37 | 51.08253 | 8.06037 | 149° | 24km/h | 26591m | 4.5m/s | -46.2°C | 0% | 21.1hPa | 2.7V | 18:12:15 | 02:01:33 | 00:00:00 | |
| AA1-15 | 2026-09-02 12:19:35 | 51.08227 | 8.06063 | 153° | 16km/h | 26633m | 4.8m/s | -45.9°C | 0% | 21hPa | 2.6V | 18:12:15 | 02:01:41 | 00:00:00 | |
| DL1XH-west | 2026-09-02 12:19:31 | 51.08239 | 8.06052 | 151° | 11km/h | 26612m | 4.7m/s | -45.9°C | 0% | 21hPa | 2.6V | 18:12:15 | 02:01:37 | 00:00:00 | |
| DM0DOS-11 | 2026-09-02 12:19:30 | 51.08245 | 8.06046 | 146° | 16km/h | 26602m | 6.2m/s | -46°C | 2.6% | 21.1hPa | 2.6V | 08:30:00 | 02:01:35 | 00:00:00 | |
| HSKMA3-T | 2026-09-02 12:19:29 | 51.08245 | 8.06046 | 147° | 16km/h | 26602m | 6.2m/s | -46°C | 0% | 21.1hPa | 2.6V | 18:12:15 | 02:01:35 | 00:00:00 | |
| DB0NH | 2026-09-02 12:19:29 | 51.08245 | 8.06046 | 147° | 16km/h | 26602m | 6.1m/s | -46.0°C | 2.6% | 21.0hPa | 2.6V | 00:00:00 | 02:01:35 | 00:00:00 | |
| DD8BA-10 | 2026-09-02 12:19:28 | 51.08249 | 8.06042 | 146° | 18km/h | 26596m | 5.3m/s | -46.0°C | 2.6% | 21.0hPa | 2.6V | 00:00:00 | 00:00:00 | 00:00:00 | |
| DL9SK-14 | 2026-09-02 12:19:27 | 51.08258 | 8.06033 | 153° | 22km/h | 26586m | 5.4m/s | -46.2°C | 0.6% | 21.1hPa | 2.6V | 00:00:00 | 00:00:00 | 00:00:00 | |
| DL3AQ-11 | 2026-09-02 12:19:26 | 51.08264 | 8.06029 | 161° | 20km/h | 26581m | 6.0m/s | -46.1°C | 0.6% | 21.1hPa | 2.6V | 00:00:00 | 00:00:00 | 00:00:00 | |
| DM0DOS-11 | 2026-09-02 12:19:25 | 51.08287 | 8.06019 | 157° | 9km/h | 26550m | 5.5m/s | -46.4°C | 2.8% | 21.2hPa | 2.6V | 08:30:00 | 02:01:25 | 00:00:00 | |
| AA1-15 | 2026-09-02 12:19:25 | 51.08268 | 8.06027 | 170° | 20km/h | 26575m | 5.1m/s | -46°C | 0% | 21.1hPa | 2.6V | 18:12:15 | 02:01:30 | 00:00:00 | |
| DL1XH1-15 | 2026-09-02 12:19:24 | 51.08273 | 8.06026 | 171° | 18km/h | 26570m | 4.8m/s | -46°C | 2.7% | 21.2hPa | 2.6V | 08:30:00 | 02:01:29 | 00:00:00 | |
| DL1XH-west | 2026-09-02 12:19:20 | 51.08284 | 8.06021 | 154° | 13km/h | 26555m | 4.4m/s | -46.3°C | 0% | 21.2hPa | 2.7V | 18:12:15 | 02:01:26 | 00:00:00 | |
| GOEST3-10 | 2026-09-02 12:19:20 | 51.08284 | 8.06021 | 154° | 9km/h | 26555m | 4.3m/s | -46.2°C | 2.8% | 21.1hPa | 2.6V | 00:00:00 | 00:00:00 | 00:00:00 | |
| DL1XH-15 | 2026-09-02 12:19:19 | 51.08298 | 8.06013 | 150° | 16km/h | 26523m | 5.3m/s | -46.5°C | 2.7% | 21.3hPa | 2.6V | 08:30:00 | 02:01:20 | 00:00:00 | |
| HSKMA3-T | 2026-09-02 12:19:19 | 51.08287 | 8.06019 | 158° | 9km/h | 26550m | 5.5m/s | -46.4°C | 0% | 21.2hPa | 2.6V | 18:12:15 | 02:01:25 | 00:00:00 | |
| DL1XH1-15 | 2026-09-02 12:19:18 | 51.08302 | 8.06009 | 154° | 20km/h | 26519m | 4.5m/s | -46.5°C | 2.7% | 21.3hPa | 2.6V | 08:30:00 | 02:01:19 | 00:00:00 | |
| DF8AY | 2026-09-02 12:19:15 | 51.08294 | 8.06015 | 153° | 11km/h | 26529m | 6.1m/s | -46.4°C | 0% | 21.3hPa | 2.7V | 18:12:15 | 02:01:21 | 00:00:00 | |
| DB0UT-7 | 2026-09-02 12:19:15 | 51.08294 | 8.06015 | 154° | 15km/h | 26529m | 6.1m/s | -46.4°C | 2.7% | 21.2hPa | 2.7V | 00:00:00 | 00:00:00 | 00:00:00 | |
| DM0DOS-11 | 2026-09-02 12:19:14 | 51.08330 | 8.05998 | 163° | 22km/h | 26493m | 5.7m/s | -46.5°C | 2.8% | 21.4hPa | 2.6V | 08:30:00 | 02:01:14 | 00:00:00 | |
| AA1-15 | 2026-09-02 12:19:14 | 51.08307 | 8.06006 | 161° | 24km/h | 26513m | 5.8m/s | -46.4°C | 0% | 21.4hPa | 2.7V | 18:12:15 | 02:01:18 | 00:00:00 | |
| DL1XH-west | 2026-09-02 12:19:10 | 51.08318 | 8.06002 | 172° | 24km/h | 26502m | 4.5m/s | -46.4°C | 0% | 21.4hPa | 2.6V | 18:12:15 | 02:01:16 | 00:00:00 | |
| HSKMA3-T | 2026-09-02 12:19:09 | 51.08330 | 8.05998 | 164° | 22km/h | 26493m | 5.7m/s | -46.5°C | 0% | 21.4hPa | 2.6V | 18:12:15 | 02:01:14 | 00:00:00 | |
| DL1XH-15 | 2026-09-02 12:19:08 | 51.08342 | 8.05989 | 136° | 5km/h | 26472m | 5.7m/s | -46.4°C | 2.8% | 21.5hPa | 2.6V | 08:30:00 | 02:01:10 | 00:00:00 | |
| DB0ND-19 | 2026-09-02 12:19:07 | 51.08334 | 8.05996 | 155° | 18km/h | 26488m | 4.6m/s | -46.5°C | 0.6% | 21.4hPa | 2.6V | 00:00:00 | 00:00:00 | 00:00:00 | |
| DO3DL | 2026-09-02 12:19:06 | 51.08334 | 8.05995 | 157° | 18km/h | 26488m | 4.6m/s | -46.5°C | 0.6% | 21.4hPa | 2.6V | 00:00:00 | 00:00:00 | 00:00:00 | |
| GOEST3-10 | 2026-09-02 12:19:05 | 51.08340 | 8.05990 | 147° | 7km/h | 26478m | 5.8m/s | -46.4°C | 2.8% | 21.4hPa | 2.6V | 00:00:00 | 02:01:11 | 00:00:00 | |
| DL1XH1-15 | 2026-09-02 12:19:04 | 51.08342 | 8.05987 | 99° | 4km/h | 26467m | 4.5m/s | -46.5°C | 2.8% | 21.5hPa | 2.6V | 08:30:00 | 02:01:09 | 00:00:00 | |
| DM0DOS-11 | 2026-09-02 12:19:03 | 51.08352 | 8.05959 | 147° | 20km/h | 26438m | 5.9m/s | -46.8°C | 2.7% | 21.6hPa | 2.6V | 08:30:00 | 02:01:03 | 00:00:00 | |
| DF8AY | 2026-09-02 12:19:03 | 51.08342 | 8.05985 | 82° | 7km/h | 26463m | 4.3m/s | -46.6°C | 0% | 21.5hPa | 2.6V | 18:12:15 | 02:01:08 | 00:00:00 | |
| AA1-15 | 2026-09-02 12:19:02 | 51.08342 | 8.05981 | 93° | 11km/h | 26458m | 5.8m/s | -46.7°C | 0% | 21.5hPa | 2.7V | 18:12:15 | 02:01:07 | 00:00:00 | |
| DL1XH-west | 2026-09-02 12:19:00 | 51.08343 | 8.05976 | 106° | 16km/h | 26452m | 5.3m/s | -46.8°C | 0% | 21.5hPa | 2.7V | 18:12:15 | 02:01:06 | 00:00:00 | |
| DL1XH-15 | 2026-09-02 12:18:59 | 51.08366 | 8.05955 | 185° | 18km/h | 26422m | 5.1m/s | -47°C | 2.8% | 21.6hPa | 2.7V | 08:30:00 | 02:01:00 | 00:00:00 | |
| DB0NH | 2026-09-02 12:18:59 | 51.08345 | 8.05970 | 120° | 15km/h | 26448m | 4.0m/s | -46.8°C | 2.7% | 21.5hPa | 2.7V | 00:00:00 | 02:01:05 | 00:00:00 | |
| BIOWL1-15 | 2026-09-02 12:18:58 | 51.08353 | 8.05884 | 271° | 7km/h | 26116m | 6m/s | -47.7°C | 0% | 22.7hPa | 2.7V | 18:12:15 | 01:59:59 | 00:00:00 | |
| HSKMA3-T | 2026-09-02 12:18:58 | 51.08356 | 8.05956 | 168° | 20km/h | 26433m | 5.6m/s | -46.9°C | 0% | 21.6hPa | 2.6V | 18:12:15 | 02:01:02 | 00:00:00 | |
| DL1XH1-15 | 2026-09-02 12:18:58 | 51.08370 | 8.05956 | 181° | 16km/h | 26417m | 5.1m/s | -47°C | 2.9% | 21.7hPa | 2.7V | 08:30:00 | 02:00:59 | 00:00:00 | |
| DF8AY | 2026-09-02 12:18:52 | 51.08373 | 8.05956 | 174° | 11km/h | 26412m | 4.1m/s | -47°C | 0% | 21.7hPa | 2.6V | 18:12:15 | 02:00:58 | 00:00:00 | |
| AA1-15 | 2026-09-02 12:18:52 | 51.08376 | 8.05954 | 60° | 2km/h | 26403m | 6.2m/s | -47°C | 0% | 21.7hPa | 2.6V | 18:12:15 | 02:00:56 | 00:00:00 | |
| HARRO8 | 2026-09-02 12:18:51 | 51.08376 | 8.05954 | 59° | 2km/h | 26403m | 6.2m/s | -47.0°C | 0.6% | 21.7hPa | 2.7V | 00:00:00 | 00:00:00 | 00:00:00 | |
| DJ8HS-15 | 2026-09-02 12:18:50 | 51.08375 | 8.05954 | 60° | 13km/h | 26403m | 6.2m/s | -47.0°C | 2.8% | 21.7hPa | 2.7V | 00:00:00 | 02:00:56 | 00:00:00 | |
| DM0DOS-11 | 2026-09-02 12:18:49 | 51.08372 | 8.05950 | 39° | 13km/h | 26392m | 4.3m/s | -47.1°C | 2.8% | 21.7hPa | 2.7V | 08:30:00 | 02:00:54 | 00:00:00 | |
| DL1XH-west | 2026-09-02 12:18:49 | 51.08374 | 8.05953 | 28° | 9km/h | 26397m | 5.6m/s | -47.1°C | 0% | 21.7hPa | 2.7V | 18:12:15 | 02:00:55 | 00:00:00 | |
| DD8BA-10 | 2026-09-02 12:18:48 | 51.08372 | 8.05950 | 40° | 15km/h | 26393m | 4.3m/s | -47.1°C | 2.8% | 21.7hPa | 2.7V | 00:00:00 | 00:00:00 | 00:00:00 | |
| BIOWL1-15 | 2026-09-02 12:18:46 | 51.08353 | 8.05887 | 332° | 4km/h | 26105m | 4.8m/s | -47.6°C | 0% | 22.7hPa | 2.6V | 18:12:15 | 01:59:57 | 00:00:00 | |
| HSKMA3-T | 2026-09-02 12:18:45 | 51.08369 | 8.05923 | 107° | 22km/h | 26373m | 3.7m/s | -47.3°C | 0% | 21.8hPa | 2.7V | 18:12:15 | 02:00:50 | 00:00:00 | |
| DB0UT-7 | 2026-09-02 12:18:45 | 51.08368 | 8.05932 | 94° | 15km/h | 26377m | 4.5m/s | -47.3°C | 2.8% | 21.8hPa | 2.6V | 00:00:00 | 02:00:51 | 00:00:00 | |
| DL1XH1-15 | 2026-09-02 12:18:44 | 51.08371 | 8.05915 | 117° | 20km/h | 26368m | 5.2m/s | -47.3°C | 2.9% | 21.8hPa | 2.6V | 08:30:00 | 02:00:49 | 00:00:00 | |
| DF8AY | 2026-09-02 12:18:42 | 51.08378 | 8.05906 | 186° | 7km/h | 26352m | 4.6m/s | -47.3°C | 0% | 21.9hPa | 2.7V | 18:12:15 | 02:00:46 | 00:00:00 | |
| DL1XH-west | 2026-09-02 12:18:39 | 51.08379 | 8.05907 | 209° | 5km/h | 26347m | 6m/s | -47.4°C | 0% | 21.9hPa | 2.7V | 18:12:15 | 02:00:45 | 00:00:00 | |
| DL1XH1-15 | 2026-09-02 12:18:38 | 51.08366 | 8.05909 | 23° | 16km/h | 26317m | 3.5m/s | -47.5°C | 2.9% | 22hPa | 2.7V | 08:30:00 | 02:00:39 | 00:00:00 | |
| HSKMA3-T | 2026-09-02 12:18:33 | 51.08366 | 8.05909 | 23° | 16km/h | 26317m | 3.5m/s | -47.5°C | 0% | 22hPa | 2.7V | 18:12:15 | 02:00:39 | 00:00:00 | |
| DL1NUX | 2026-09-02 12:18:31 | 51.08371 | 8.05873 | 191° | 13km/h | 26282m | 5m/s | -47.5°C | 2.9% | 22.1hPa | 2.7V | 08:30:00 | 02:00:32 | 00:00:00 | |
| AA1-15 | 2026-09-02 12:18:30 | 51.08360 | 8.05892 | 97° | 22km/h | 26302m | 4.6m/s | -47.2°C | 0% | 22.1hPa | 2.6V | 18:12:15 | 02:00:36 | 00:00:00 | |
| DL1XH-west | 2026-09-02 12:18:28 | 51.08364 | 8.05877 | 133° | 18km/h | 26293m | 5.3m/s | -47.4°C | 0% | 22.1hPa | 2.7V | 18:12:15 | 02:00:34 | 00:00:00 | |
| DJ2KF-10 | 2026-09-02 12:18:25 | 51.08373 | 8.05875 | 217° | 11km/h | 26277m | 4.7m/s | -47.5°C | 2.9% | 22.1hPa | 2.6V | 00:00:00 | 02:00:31 | 00:00:00 | |
| DL1XH1-15 | 2026-09-02 12:18:24 | 51.08377 | 8.05883 | 240° | 11km/h | 26267m | 5.3m/s | -47.6°C | 2.9% | 22.2hPa | 2.6V | 08:30:00 | 02:00:29 | 00:00:00 | |
| HSKMA3-T | 2026-09-02 12:18:22 | 51.08378 | 8.05886 | 261° | 7km/h | 26262m | 4.4m/s | -47.6°C | 0% | 22.2hPa | 2.7V | 18:12:15 | 02:00:28 | 00:00:00 | |
| BIOWL1-15 | 2026-09-02 12:18:22 | 51.08393 | 8.05920 | 191° | 7km/h | 25966m | 4.3m/s | -48.2°C | 0% | 23.2hPa | 2.6V | 18:12:15 | 01:59:30 | 00:00:00 | |
| DF8AY | 2026-09-02 12:18:20 | 51.08376 | 8.05890 | 338° | 9km/h | 26252m | 6m/s | -47.5°C | 0% | 22.2hPa | 2.6V | 18:12:15 | 02:00:26 | 00:00:00 | |
| AA1-15 | 2026-09-02 12:18:19 | 51.08374 | 8.05891 | 356° | 13km/h | 26246m | 5.6m/s | -47.4°C | 0% | 22.2hPa | 2.6V | 18:12:15 | 02:00:25 | 00:00:00 | |
| DM0DOS-11 | 2026-09-02 12:18:19 | 51.08370 | 8.05891 | 15° | 15km/h | 26241m | 4.4m/s | -47.5°C | 2.8% | 22.3hPa | 2.7V | 08:30:00 | 02:00:24 | 00:00:00 | |
| DL1NUX | 2026-09-02 12:18:18 | 51.08364 | 8.05883 | 58° | 16km/h | 26231m | 6m/s | -47.7°C | 2.8% | 22.3hPa | 2.6V | 08:30:00 | 02:00:22 | 00:00:00 | |
| DL1XH1-15 | 2026-09-02 12:18:18 | 51.08363 | 8.05867 | 102° | 9km/h | 26218m | 5.2m/s | -47.8°C | 2.9% | 22.3hPa | 2.7V | 08:30:00 | 02:00:19 | 00:00:00 | |
| DL1XH-west | 2026-09-02 12:18:18 | 51.08370 | 8.05891 | 15° | 15km/h | 26241m | 4.4m/s | -47.5°C | 0% | 22.3hPa | 2.7V | 18:12:15 | 02:00:24 | 00:00:00 | |
| DL3AQ-11 | 2026-09-02 12:18:17 | 51.08364 | 8.05883 | 58° | 15km/h | 26231m | 6.0m/s | -47.7°C | 0.6% | 22.3hPa | 2.7V | 00:00:00 | 00:00:00 | 00:00:00 | |
| DB0UT-7 | 2026-09-02 12:18:15 | 51.08363 | 8.05877 | 80° | 9km/h | 26226m | 4.2m/s | -47.7°C | 2.9% | 22.3hPa | 2.7V | 00:00:00 | 00:00:00 | 00:00:00 | |
| DD1CC1-15 | 2026-09-02 12:18:14 | 51.08363 | 8.05877 | 80° | 16km/h | 26226m | 4.3m/s | -47.8°C | 0.6% | 22.3hPa | 2.7V | 00:00:00 | 00:00:00 | 00:00:00 | |
| DM0DOS-11 | 2026-09-02 12:18:13 | 51.08361 | 8.05880 | 298° | 13km/h | 26192m | 5.2m/s | -48°C | 3% | 22.4hPa | 2.7V | 08:30:00 | 02:00:14 | 00:00:00 | |
| HSKMA3-T | 2026-09-02 12:18:12 | 51.08363 | 8.05865 | 132° | 2km/h | 26212m | 5.7m/s | -47.8°C | 0% | 22.4hPa | 2.6V | 18:12:15 | 02:00:18 | 00:00:00 | |
| DO9LL-15 | 2026-09-02 12:18:12 | 51.08363 | 8.05865 | 132° | 9km/h | 26212m | 5.7m/s | -47.8°C | 2.9% | 22.3hPa | 2.7V | 00:00:00 | 02:00:18 | 00:00:00 | |
| DO2KSM | 2026-09-02 12:18:11 | 51.08363 | 8.05865 | 0° | 0km/h | 26212m | 5.7m/s | -47.8°C | 0.6% | 22.3hPa | 2.7V | 00:00:00 | 00:00:00 | 00:00:00 | |
| BIOWL1-15 | 2026-09-02 12:18:10 | 51.08397 | 8.05923 | 232° | 5km/h | 25950m | 5.1m/s | -48.2°C | 0% | 23.3hPa | 2.7V | 18:12:15 | 01:59:27 | 00:00:00 | |
| DF8AY | 2026-09-02 12:18:09 | 51.08362 | 8.05875 | 288° | 15km/h | 26197m | 4.4m/s | -48°C | 0% | 22.4hPa | 2.7V | 18:12:15 | 02:00:15 | 00:00:00 | |
| DL1XH-west | 2026-09-02 12:18:08 | 51.08361 | 8.05880 | 298° | 13km/h | 26192m | 5.2m/s | -48.1°C | 0% | 22.4hPa | 2.7V | 18:12:15 | 02:00:14 | 00:00:00 | |
| DL1XH-15 | 2026-09-02 12:18:08 | 51.08352 | 8.05881 | 28° | 13km/h | 26172m | 5.2m/s | -48.2°C | 3.1% | 22.5hPa | 2.6V | 08:30:00 | 02:00:10 | 00:00:00 | |
| DL3AQ-11 | 2026-09-02 12:18:06 | 51.08355 | 8.05883 | 23° | 11km/h | 26177m | 4.9m/s | -48.1°C | 0.6% | 22.4hPa | 2.6V | 00:00:00 | 00:00:00 | 00:00:00 | |
| DB0ND-19 | 2026-09-02 12:18:05 | 51.08355 | 8.05883 | 23° | 11km/h | 26177m | 4.9m/s | -48.1°C | 0.6% | 22.4hPa | 2.6V | 00:00:00 | 00:00:00 | 00:00:00 | |
| DL4XJ-10 | 2026-09-02 12:18:04 | 51.08352 | 8.05881 | 29° | 7km/h | 26173m | 5.1m/s | -47.9°C | 0% | 0hPa | 2.6V | 00:00:00 | 00:00:00 | 00:00:00 | |
| DO3DL | 2026-09-02 12:18:03 | 51.08349 | 8.05879 | 28° | 13km/h | 26167m | 5.6m/s | -48.2°C | 0.6% | 22.5hPa | 2.6V | 00:00:00 | 00:00:00 | 00:00:00 | |
| DM0DOS-11 | 2026-09-02 12:18:02 | 51.08347 | 8.05871 | 177° | 9km/h | 26141m | 3.9m/s | -48.1°C | 3% | 22.6hPa | 2.6V | 08:30:00 | 02:00:04 | 00:00:00 | |
| HSKMA3-T | 2026-09-02 12:18:01 | 51.08344 | 8.05875 | 45° | 5km/h | 26157m | 4.6m/s | -48.1°C | 0% | 22.5hPa | 2.7V | 18:12:15 | 02:00:07 | 00:00:00 | |
| GOEST3-10 | 2026-09-02 12:18:00 | 51.08344 | 8.05873 | 102° | 7km/h | 26152m | 5.9m/s | -48.1°C | 3.0% | 22.5hPa | 2.6V | 00:00:00 | 00:00:00 | 00:00:00 | |
| DL1XH-15 | 2026-09-02 12:17:59 | 51.08353 | 8.05884 | 270° | 7km/h | 26116m | 6m/s | -47.6°C | 2.8% | 22.7hPa | 2.7V | 08:30:00 | 01:59:59 | 00:00:00 | |
| DL1NUX | 2026-09-02 12:17:58 | 51.08351 | 8.05873 | 225° | 9km/h | 26131m | 5.6m/s | -47.9°C | 3% | 22.6hPa | 2.7V | 08:30:00 | 02:00:02 | 00:00:00 | |
| DL1XH-west | 2026-09-02 12:17:58 | 51.08347 | 8.05871 | 178° | 9km/h | 26141m | 3.9m/s | -48.1°C | 0% | 22.6hPa | 2.6V | 18:12:15 | 02:00:04 | 00:00:00 | |
| DF8AY | 2026-09-02 12:17:57 | 51.08353 | 8.05877 | 251° | 11km/h | 26126m | 5m/s | -47.7°C | 0% | 22.6hPa | 2.6V | 18:12:15 | 02:00:01 | 00:00:00 | |
| DJ2KF-10 | 2026-09-02 12:17:55 | 51.08353 | 8.05877 | 251° | 7km/h | 26126m | 4.9m/s | -47.7°C | 2.9% | 22.6hPa | 2.6V | 00:00:00 | 02:00:01 | 08:30:00 | |
| BIOWL1-15 | 2026-09-02 12:17:54 | 51.08429 | 8.05928 | 182° | 18km/h | 25899m | 6m/s | -48.4°C | 0% | 23.4hPa | 2.7V | 18:12:15 | 01:59:17 | 00:00:00 | |
| DD1CC1-15 | 2026-09-02 12:17:54 | 51.08353 | 8.05877 | 251° | 11km/h | 26126m | 5.0m/s | -47.7°C | 0.6% | 22.6hPa | 2.7V | 00:00:00 | 00:00:00 | 00:00:00 | |
| DD1CC2-15 | 2026-09-02 12:17:53 | 51.08353 | 8.05880 | 264° | 9km/h | 26121m | 4.4m/s | -47.7°C | 0.7% | 22.6hPa | 2.7V | 00:00:00 | 00:00:00 | 00:00:00 | |
| SO1NDE-10 | 2026-09-02 12:17:52 | 51.08353 | 8.05886 | 295° | 7km/h | 26110m | 5.0m/s | -47.6°C | 2.8% | 22.6hPa | 2.7V | 00:00:00 | 01:59:58 | 00:00:00 | |
| DL1NUX | 2026-09-02 12:17:51 | 51.08351 | 8.05888 | 152° | 7km/h | 26080m | 6.1m/s | -47.8°C | 2.9% | 22.8hPa | 2.7V | 08:30:00 | 01:59:52 | 00:00:00 | |
| HSKMA3-T | 2026-09-02 12:17:50 | 51.08352 | 8.05887 | 343° | 4km/h | 26100m | 5.4m/s | -47.7°C | 0% | 22.7hPa | 2.6V | 18:12:15 | 01:59:56 | 00:00:00 | |
| DJ8HS-15 | 2026-09-02 12:17:50 | 51.08352 | 8.05887 | 344° | 7km/h | 26100m | 5.3m/s | -47.6°C | 2.8% | 22.7hPa | 2.7V | 00:00:00 | 01:59:56 | 00:00:00 | |
| DM0DOS-11 | 2026-09-02 12:17:49 | 51.08350 | 8.05888 | 316° | 2km/h | 26090m | 4.2m/s | -47.7°C | 2.8% | 22.8hPa | 2.7V | 08:30:00 | 01:59:54 | 00:00:00 | |
| DF8AY | 2026-09-02 12:17:47 | 51.08351 | 8.05888 | 153° | 7km/h | 26080m | 6.1m/s | -47.8°C | 0% | 22.8hPa | 2.7V | 18:12:15 | 01:59:52 | 00:00:00 | |
| AA1-15 | 2026-09-02 12:17:47 | 51.08350 | 8.05889 | 167° | 2km/h | 26085m | 4.4m/s | -47.8°C | 0% | 22.8hPa | 2.7V | 18:12:15 | 01:59:53 | 00:00:00 | |
| DO3MHA-12 | 2026-09-02 12:17:47 | 51.08350 | 8.05889 | 168° | 11km/h | 26086m | 4.3m/s | -47.7°C | 2.9% | 22.7hPa | 2.6V | 00:00:00 | 01:59:53 | 00:00:00 | |
| DB0UT-7 | 2026-09-02 12:17:45 | 51.08353 | 8.05886 | 154° | 9km/h | 26075m | 5.3m/s | -47.8°C | 2.9% | 22.8hPa | 2.6V | 00:00:00 | 01:59:51 | 00:00:00 | |
| DL1XH1-15 | 2026-09-02 12:17:44 | 51.08360 | 8.05883 | 174° | 15km/h | 26064m | 5.4m/s | -47.9°C | 3% | 22.8hPa | 2.6V | 08:30:00 | 01:59:49 | 00:00:00 | |
| DL4XJ-10 | 2026-09-02 12:17:44 | 51.08357 | 8.05884 | 163° | 9km/h | 26070m | 4.3m/s | -47.6°C | 0% | 0hPa | 2.6V | 00:00:00 | 00:00:00 | 00:00:00 | |
| DM0DOS-11 | 2026-09-02 12:17:43 | 51.08373 | 8.05892 | 208° | 7km/h | 26039m | 5m/s | -48.1°C | 3% | 22.9hPa | 2.6V | 08:30:00 | 01:59:44 | 00:00:00 | |
| DO9LL-15 | 2026-09-02 12:17:42 | 51.08364 | 8.05883 | 193° | 9km/h | 26059m | 5.2m/s | -47.9°C | 3.0% | 22.8hPa | 2.7V | 00:00:00 | 01:59:48 | 00:00:00 | |
| DL1NUX | 2026-09-02 12:17:41 | 51.08376 | 8.05894 | 215° | 5km/h | 26029m | 4.7m/s | -48.3°C | 3% | 23hPa | 2.7V | 08:30:00 | 01:59:42 | 00:00:00 | |
| HSKMA3-T | 2026-09-02 12:17:39 | 51.08371 | 8.05890 | 217° | 9km/h | 26045m | 6m/s | -48.1°C | 0% | 22.9hPa | 2.6V | 18:12:15 | 01:59:45 | 00:00:00 | |
| DL1XH1-15 | 2026-09-02 12:17:38 | 51.08379 | 8.05901 | 231° | 7km/h | 26013m | 4.6m/s | -48.2°C | 3% | 23hPa | 2.6V | 08:30:00 | 01:59:39 | 00:00:00 | |
| DL1XH-west | 2026-09-02 12:17:37 | 51.08374 | 8.05893 | 204° | 5km/h | 26034m | 5m/s | -48.2°C | 0% | 23hPa | 2.6V | 18:12:15 | 01:59:43 | 00:00:00 | |
| DF8AY | 2026-09-02 12:17:36 | 51.08376 | 8.05894 | 215° | 5km/h | 26030m | 4.7m/s | -48.3°C | 0% | 23hPa | 2.7V | 18:12:15 | 01:59:42 | 00:00:00 | |
| DO3DL | 2026-09-02 12:17:36 | 51.08375 | 8.05894 | 216° | 5km/h | 26030m | 4.7m/s | -48.3°C | 0.7% | 23.0hPa | 2.7V | 00:00:00 | 00:00:00 | 00:00:00 | |
| EDDB2-11 | 2026-09-02 12:17:35 | 51.08377 | 8.05898 | 243° | 7km/h | 26019m | 5.0m/s | -48.3°C | 0.7% | 23.0hPa | 2.7V | 00:00:00 | 00:00:00 | 00:00:00 | |
| DB0ND-19 | 2026-09-02 12:17:34 | 51.08377 | 8.05898 | 243° | 7km/h | 26019m | 5.0m/s | -48.3°C | 0.7% | 23.0hPa | 2.7V | 00:00:00 | 00:00:00 | 00:00:00 | |
| DM0DOS-11 | 2026-09-02 12:17:33 | 51.08387 | 8.05911 | 233° | 11km/h | 25987m | 5.3m/s | -48.3°C | 3% | 23.1hPa | 2.7V | 08:30:00 | 01:59:34 | 00:00:00 | |
| WPPR-10 | 2026-09-02 12:17:33 | 51.08378 | 8.05901 | 231° | 7km/h | 26014m | 4.6m/s | -48.2°C | 0.7% | 23.0hPa | 2.6V | 00:00:00 | 00:00:00 | 00:00:00 | |
| DL1NUX | 2026-09-02 12:17:32 | 51.08390 | 8.05917 | 229° | 9km/h | 25976m | 5.8m/s | -48.4°C | 3.1% | 23.2hPa | 2.6V | 08:30:00 | 01:59:32 | 00:00:00 | |
| BIOWL1-15 | 2026-09-02 12:17:30 | 51.08492 | 8.05854 | 110° | 15km/h | 25764m | 6.2m/s | -49.1°C | 0% | 23.9hPa | 2.7V | 18:12:15 | 01:58:52 | 00:00:00 | |
| HSKMA3-T | 2026-09-02 12:17:28 | 51.08387 | 8.05911 | 233° | 11km/h | 25987m | 5.3m/s | -48.3°C | 0% | 23.1hPa | 2.7V | 18:12:15 | 01:59:34 | 00:00:00 | |
| AA1-15 | 2026-09-02 12:17:26 | 51.08390 | 8.05917 | 230° | 9km/h | 25976m | 5.8m/s | -48.4°C | 0% | 23.2hPa | 2.6V | 18:12:15 | 01:59:32 | 00:00:00 | |
| DL1XH-west | 2026-09-02 12:17:26 | 51.08392 | 8.05919 | 210° | 7km/h | 25970m | 5.6m/s | -48.3°C | 0% | 23.2hPa | 2.6V | 18:12:15 | 01:59:31 | 00:00:00 | |
| DL3AQ-11 | 2026-09-02 12:17:26 | 51.08392 | 8.05919 | 209° | 5km/h | 25971m | 5.6m/s | -48.3°C | 0.7% | 23.2hPa | 2.7V | 00:00:00 | 00:00:00 | 00:00:00 | |
| DL1XH1-15 | 2026-09-02 12:17:25 | 51.08395 | 8.05921 | 194° | 5km/h | 25961m | 4.2m/s | -48.2°C | 3% | 23.2hPa | 2.7V | 08:30:00 | 01:59:29 | 00:00:00 | |
| DF8AY | 2026-09-02 12:17:24 | 51.08417 | 8.05925 | 188° | 16km/h | 25913m | 5.2m/s | -48.3°C | 0% | 23.4hPa | 2.6V | 18:12:15 | 01:59:20 | 00:00:00 | |
| DL4XJ-10 | 2026-09-02 12:17:24 | 51.08393 | 8.05920 | 192° | 9km/h | 25966m | 4.3m/s | -47.9°C | 0% | 0hPa | 2.7V | 00:00:00 | 00:00:00 | 00:00:00 | |
| DO3DL | 2026-09-02 12:17:23 | 51.08393 | 8.05920 | 192° | 7km/h | 25966m | 4.3m/s | -48.2°C | 0.6% | 23.2hPa | 2.7V | 00:00:00 | 00:00:00 | 00:00:00 | |
| SO1NDE-10 | 2026-09-02 12:17:22 | 51.08396 | 8.05922 | 218° | 13km/h | 25956m | 6.0m/s | -48.2°C | 3.0% | 23.2hPa | 2.7V | 00:00:00 | 01:59:28 | 00:00:00 | |
| DM0DOS-11 | 2026-09-02 12:17:21 | 51.08402 | 8.05927 | 176° | 11km/h | 25935m | 6.2m/s | -48.6°C | 3% | 23.3hPa | 2.6V | 08:30:00 | 01:59:24 | 00:00:00 | |
| DL1NUX | 2026-09-02 12:17:20 | 51.08409 | 8.05925 | 170° | 16km/h | 25924m | 5.2m/s | -48.4°C | 3% | 23.4hPa | 2.7V | 08:30:00 | 01:59:22 | 00:00:00 | |
| HSKMA3-T | 2026-09-02 12:17:18 | 51.08402 | 8.05927 | 177° | 11km/h | 25935m | 6.2m/s | -48.6°C | 0% | 23.3hPa | 2.6V | 18:12:15 | 01:59:24 | 00:00:00 | |
| DD8BA-10 | 2026-09-02 12:17:18 | 51.08402 | 8.05927 | 177° | 16km/h | 25936m | 6.2m/s | -48.5°C | 3.0% | 23.3hPa | 2.6V | 00:00:00 | 00:00:00 | 00:00:00 | |
| BIOWL1-15 | 2026-09-02 12:17:17 | 51.08495 | 8.05845 | 122° | 11km/h | 25754m | 4.2m/s | -49.1°C | 0% | 24hPa | 2.6V | 18:12:15 | 01:58:50 | 00:00:00 | |
| DL1XH-west | 2026-09-02 12:17:15 | 51.08413 | 8.05924 | 178° | 16km/h | 25919m | 6.2m/s | -48.3°C | 0% | 23.4hPa | 2.7V | 18:12:15 | 01:59:21 | 00:00:00 | |
| DB0UT-7 | 2026-09-02 12:17:15 | 51.08413 | 8.05924 | 178° | 15km/h | 25919m | 6.1m/s | -48.3°C | 3.0% | 23.3hPa | 2.6V | 00:00:00 | 00:00:00 | 00:00:00 | |
| DD1CC1-15 | 2026-09-02 12:17:14 | 51.08417 | 8.05925 | 189° | 16km/h | 25913m | 5.2m/s | -48.3°C | 0.7% | 23.4hPa | 2.6V | 00:00:00 | 00:00:00 | 00:00:00 | |
| DJ2DS-15 | 2026-09-02 12:17:13 | 51.08425 | 8.05927 | 188° | 16km/h | 25904m | 4.5m/s | -48.3°C | 0.7% | 23.4hPa | 2.6V | 00:00:00 | 00:00:00 | 00:00:00 | |
| DO9LL-15 | 2026-09-02 12:17:12 | 51.08425 | 8.05927 | 189° | 15km/h | 25904m | 4.5m/s | -48.3°C | 3.1% | 23.4hPa | 2.6V | 00:00:00 | 01:59:18 | 00:00:00 | |
| DM0DOS-11 | 2026-09-02 12:17:10 | 51.08443 | 8.05926 | 173° | 16km/h | 25883m | 5.4m/s | -48.3°C | 3% | 23.5hPa | 2.6V | 08:30:00 | 01:59:14 | 00:00:00 | |
| HSKMA3-T | 2026-09-02 12:17:08 | 51.08443 | 8.05926 | 173° | 16km/h | 25883m | 5.4m/s | -48.4°C | 0% | 23.5hPa | 2.6V | 18:12:15 | 01:59:14 | 00:00:00 | |
| BIOWL9-15 | 2026-09-02 12:17:08 | 51.08446 | 8.05925 | 177° | 13km/h | 25877m | 6.1m/s | -48.4°C | 0.7% | 23.5hPa | 2.6V | 00:00:00 | 00:00:00 | 00:00:00 | |
| DL1XH-15 | 2026-09-02 12:17:07 | 51.08453 | 8.05923 | 146° | 9km/h | 25863m | 4.9m/s | -48.6°C | 3% | 23.6hPa | 2.6V | 08:30:00 | 01:59:10 | 00:00:00 | |
| DO2JMG | 2026-09-02 12:17:06 | 51.08449 | 8.05925 | 180° | 9km/h | 25871m | 5m/s | -48.4°C | 0% | 0hPa | 2.7V | 18:12:15 | 01:59:12 | 00:00:00 | |
| AA1-15 | 2026-09-02 12:17:05 | 51.08453 | 8.05923 | 146° | 9km/h | 25863m | 4.9m/s | -48.6°C | 0% | 23.6hPa | 2.6V | 18:12:15 | 01:59:10 | 00:00:00 | |
| DL1XH-west | 2026-09-02 12:17:05 | 51.08460 | 8.05912 | 132° | 16km/h | 25846m | 4.7m/s | -48.4°C | 0% | 23.6hPa | 2.7V | 18:12:15 | 01:59:07 | 00:00:00 | |
| DF8AY | 2026-09-02 12:17:01 | 51.08469 | 8.05900 | 151° | 13km/h | 25830m | 5m/s | -48.7°C | 0% | 23.7hPa | 2.6V | 18:12:15 | 01:59:04 | 00:00:00 | |
| DL1NUX | 2026-09-02 12:17:01 | 51.08475 | 8.05895 | 154° | 15km/h | 25818m | 6.2m/s | -48.5°C | 3% | 23.7hPa | 2.7V | 08:30:00 | 01:59:02 | 00:00:00 | |
| DL1XH-15 | 2026-09-02 12:17:00 | 51.08484 | 8.05886 | 139° | 11km/h | 25803m | 6.3m/s | -48.7°C | 3% | 23.8hPa | 2.6V | 08:30:00 | 01:58:59 | 00:00:00 | |
| DB0NH | 2026-09-02 12:16:59 | 51.08466 | 8.05903 | 143° | 11km/h | 25835m | 5.4m/s | -48.6°C | 3.0% | 23.6hPa | 2.6V | 00:00:00 | 01:59:05 | 00:00:00 | |
| DL1XH1-15 | 2026-09-02 12:16:58 | 51.08484 | 8.05886 | 139° | 11km/h | 25803m | 6.3m/s | -48.7°C | 3% | 23.8hPa | 2.6V | 08:30:00 | 01:58:59 | 00:00:00 | |
| HSKMA3-T | 2026-09-02 12:16:58 | 51.08472 | 8.05897 | 155° | 15km/h | 25824m | 5.5m/s | -48.6°C | 0% | 23.7hPa | 2.6V | 18:12:15 | 01:59:03 | 00:00:00 | |
| DL1XH-west | 2026-09-02 12:16:55 | 51.08482 | 8.05889 | 146° | 13km/h | 25808m | 4.4m/s | -48.6°C | 0% | 23.8hPa | 2.7V | 18:12:15 | 01:59:00 | 00:00:00 | |
| DO2JMG | 2026-09-02 12:16:54 | 51.08484 | 8.05886 | 140° | 11km/h | 25803m | 6.3m/s | -48.7°C | 0% | 0hPa | 2.6V | 18:12:15 | 01:58:59 | 00:00:00 | |
| DF8AY | 2026-09-02 12:16:51 | 51.08487 | 8.05877 | 104° | 11km/h | 25786m | 5.8m/s | -48.7°C | 0% | 23.9hPa | 2.7V | 18:12:15 | 01:58:56 | 00:00:00 | |
| HSKMA3-T | 2026-09-02 12:16:47 | 51.08491 | 8.05860 | 110° | 16km/h | 25770m | 5.4m/s | -48.9°C | 0% | 23.9hPa | 2.6V | 18:12:15 | 01:58:53 | 00:00:00 | |
| DL1XH-15 | 2026-09-02 12:16:47 | 51.08495 | 8.05845 | 121° | 11km/h | 25754m | 4.2m/s | -49.1°C | 3% | 24hPa | 2.6V | 08:30:00 | 01:58:50 | 00:00:00 | |
| DL3AQ-11 | 2026-09-02 12:16:46 | 51.08493 | 8.05849 | 112° | 11km/h | 25759m | 4.8m/s | -49.1°C | 0.7% | 23.9hPa | 2.6V | 00:00:00 | 00:00:00 | 00:00:00 | |
| DB0UT-7 | 2026-09-02 12:16:45 | 51.08493 | 8.05849 | 113° | 11km/h | 25759m | 4.8m/s | -49.1°C | 3.1% | 23.9hPa | 2.6V | 00:00:00 | 01:58:51 | 00:00:00 | |
| DL1XH1-15 | 2026-09-02 12:16:44 | 51.08496 | 8.05841 | 131° | 13km/h | 25749m | 5.7m/s | -49°C | 3.1% | 24hPa | 2.6V | 08:30:00 | 01:58:49 | 00:00:00 | |
| AA1-15 | 2026-09-02 12:16:43 | 51.08499 | 8.05837 | 138° | 15km/h | 25743m | 5.7m/s | -49.1°C | 0% | 24hPa | 2.6V | 18:12:15 | 01:58:48 | 00:00:00 | |
| DO3DL | 2026-09-02 12:16:43 | 51.08495 | 8.05845 | 123° | 11km/h | 25754m | 4.2m/s | -49.1°C | 0.6% | 24.0hPa | 2.6V | 00:00:00 | 00:00:00 | 00:00:00 | |
| DM0DOS-11 | 2026-09-02 12:16:42 | 51.08507 | 8.05827 | 160° | 2km/h | 25722m | 5.6m/s | -49.1°C | 3.1% | 24.1hPa | 2.6V | 08:30:00 | 01:58:44 | 00:00:00 | |
| GOEST3-10 | 2026-09-02 12:16:42 | 51.08504 | 8.05830 | 144° | 5km/h | 25734m | 4.6m/s | -49.2°C | 3.1% | 24.0hPa | 2.6V | 00:00:00 | 00:00:00 | 00:00:00 | |
| DL1NUX | 2026-09-02 12:16:41 | 51.08508 | 8.05827 | 194° | 2km/h | 25713m | 4.7m/s | -49.2°C | 3.1% | 24.1hPa | 2.6V | 08:30:00 | 01:58:42 | 00:00:00 | |
| BUE01 | 2026-09-02 12:16:41 | 51.08507 | 8.05827 | 160° | 2km/h | 25723m | 5.6m/s | -49.1°C | 0.7% | 24.1hPa | 2.7V | 00:00:00 | 00:00:00 | 00:00:00 | |
| DF8AY | 2026-09-02 12:16:41 | 51.08506 | 8.05828 | 145° | 7km/h | 25728m | 6.1m/s | -49.2°C | 0% | 24.1hPa | 2.7V | 18:12:15 | 01:58:45 | 00:00:00 | |
| DD8BA-10 | 2026-09-02 12:16:40 | 51.08507 | 8.05827 | 161° | 5km/h | 25723m | 5.6m/s | -49.0°C | 3.1% | 24.1hPa | 2.7V | 00:00:00 | 00:00:00 | 00:00:00 | |
| DL1XH1-15 | 2026-09-02 12:16:39 | 51.08511 | 8.05823 | 135° | 9km/h | 25697m | 4.7m/s | -49.1°C | 3.2% | 24.2hPa | 2.7V | 08:30:00 | 01:58:39 | 00:00:00 | |
| HSKMA3-T | 2026-09-02 12:16:36 | 51.08508 | 8.05827 | 195° | 2km/h | 25713m | 4.7m/s | -49.2°C | 0% | 24.1hPa | 2.6V | 18:12:15 | 01:58:42 | 00:00:00 | |
| AA1-15 | 2026-09-02 12:16:32 | 51.08512 | 8.05821 | 132° | 9km/h | 25692m | 5.9m/s | -49.1°C | 0% | 24.2hPa | 2.6V | 18:12:15 | 01:58:38 | 00:00:00 | |
| DL1XH-west | 2026-09-02 12:16:31 | 51.08515 | 8.05816 | 134° | 5km/h | 25681m | 4.8m/s | -49.2°C | 0% | 24.3hPa | 2.6V | 18:12:15 | 01:58:36 | 00:00:00 | |
| DF8AY | 2026-09-02 12:16:30 | 51.08516 | 8.05815 | 144° | 7km/h | 25676m | 4.4m/s | -49.3°C | 0% | 24.3hPa | 2.7V | 18:12:15 | 01:58:35 | 00:00:00 | |
| DJ8HS-15 | 2026-09-02 12:16:30 | 51.08515 | 8.05816 | 134° | 13km/h | 25681m | 4.7m/s | -49.2°C | 3.1% | 24.2hPa | 2.6V | 00:00:00 | 01:58:36 | 00:00:00 | |
| DL1XH-15 | 2026-09-02 12:16:30 | 51.08533 | 8.05805 | 173° | 16km/h | 25648m | 6.1m/s | -49.2°C | 3% | 24.4hPa | 2.7V | 08:30:00 | 01:58:30 | 00:00:00 | |
| DM0DOS-11 | 2026-09-02 12:16:29 | 51.08518 | 8.05813 | 151° | 11km/h | 25671m | 5.5m/s | -49.4°C | 3.1% | 24.3hPa | 2.7V | 08:30:00 | 01:58:34 | 00:00:00 | |
| HSKMA3-T | 2026-09-02 12:16:25 | 51.08529 | 8.05806 | 166° | 18km/h | 25654m | 5.3m/s | -49.2°C | 0% | 24.3hPa | 2.7V | 18:12:15 | 01:58:31 | 00:00:00 | |
| DO2JMG | 2026-09-02 12:16:24 | 51.08533 | 8.05805 | 173° | 16km/h | 25648m | 6.1m/s | -49.2°C | 0% | 0hPa | 2.7V | 18:12:15 | 01:58:30 | 00:00:00 | |
| DM0DOS-11 | 2026-09-02 12:16:23 | 51.08555 | 8.05792 | 135° | 9km/h | 25611m | 6.2m/s | -49.4°C | 3.2% | 24.5hPa | 2.6V | 08:30:00 | 01:58:23 | 00:00:00 | |
| AA1-15 | 2026-09-02 12:16:22 | 51.08544 | 8.05803 | 165° | 13km/h | 25632m | 6.1m/s | -49.4°C | 0% | 24.4hPa | 2.6V | 18:12:15 | 01:58:27 | 00:00:00 | |
| DL1XH-west | 2026-09-02 12:16:20 | 51.08557 | 8.05789 | 127° | 9km/h | 25606m | 5.1m/s | -49.4°C | 0% | 24.5hPa | 2.6V | 18:12:15 | 01:58:22 | 00:00:00 | |
| DF8AY | 2026-09-02 12:16:20 | 51.08553 | 8.05795 | 139° | 13km/h | 25617m | 4.8m/s | -49.3°C | 0% | 24.5hPa | 2.7V | 18:12:15 | 01:58:24 | 00:00:00 | |
| DL1XH1-15 | 2026-09-02 12:16:19 | 51.08562 | 8.05778 | 129° | 16km/h | 25589m | 5.8m/s | -49.6°C | 3.1% | 24.6hPa | 2.7V | 08:30:00 | 01:58:19 | 00:00:00 | |
| AU51GT2 | 2026-09-02 12:16:18 | 51.08555 | 8.05792 | 135° | 9km/h | 25611m | 6.2m/s | -49.4°C | 0.7% | 24.5hPa | 2.6V | 00:00:00 | 00:00:00 | 00:00:00 | |
| DJ2DS-15 | 2026-09-02 12:16:17 | 51.08555 | 8.05792 | 136° | 16km/h | 25612m | 6.1m/s | -49.3°C | 3.2% | 24.5hPa | 2.6V | 00:00:00 | 01:58:23 | 00:00:00 | |
| DL1XH-15 | 2026-09-02 12:16:16 | 51.08559 | 8.05782 | 124° | 13km/h | 25596m | 6m/s | -49.5°C | 3.1% | 24.6hPa | 2.7V | 08:30:00 | 01:58:20 | 00:00:00 | |
| HSKMA3-T | 2026-09-02 12:16:15 | 51.08558 | 8.05786 | 123° | 9km/h | 25601m | 4.5m/s | -49.4°C | 0% | 24.5hPa | 2.6V | 18:12:15 | 01:58:21 | 00:00:00 | |
| BIOWL1-15 | 2026-09-02 12:16:15 | 51.08610 | 8.05692 | 134° | 18km/h | 25498m | 5.7m/s | -49.7°C | 0% | 24.9hPa | 2.6V | 18:12:15 | 01:58:02 | 00:00:00 | |
| DO2JMG | 2026-09-02 12:16:14 | 51.08559 | 8.05782 | 125° | 13km/h | 25596m | 6m/s | -49.5°C | 0% | 0hPa | 2.7V | 18:12:15 | 01:58:20 | 00:00:00 | |
| DL4BBY-15 | 2026-09-02 12:16:14 | 51.08559 | 8.05782 | 125° | 16km/h | 25596m | 5.9m/s | -49.3°C | 0% | 0hPa | 2.7V | 00:00:00 | 00:00:00 | 00:00:00 | |
| DD1CC3-15 | 2026-09-02 12:16:12 | 51.08562 | 8.05778 | 131° | 16km/h | 25590m | 5.8m/s | -49.6°C | 0.7% | 24.6hPa | 2.7V | 00:00:00 | 00:00:00 | 00:00:00 | |
| DM0DOS-11 | 2026-09-02 12:16:11 | 51.08581 | 8.05757 | 154° | 18km/h | 25562m | 4.7m/s | -49.5°C | 3.2% | 24.7hPa | 2.7V | 08:30:00 | 01:58:14 | 00:00:00 | |
| DL1NUX | 2026-09-02 12:16:11 | 51.08589 | 8.05749 | 139° | 18km/h | 25551m | 4.8m/s | -49.5°C | 3.2% | 24.7hPa | 2.6V | 08:30:00 | 01:58:12 | 00:00:00 | |
| DL1XH-west | 2026-09-02 12:16:10 | 51.08572 | 8.05764 | 151° | 18km/h | 25573m | 6.4m/s | -49.6°C | 0% | 24.6hPa | 2.6V | 18:12:15 | 01:58:16 | 00:00:00 | |
| DL1XH-15 | 2026-09-02 12:16:10 | 51.08595 | 8.05739 | 127° | 15km/h | 25541m | 6.7m/s | -49.4°C | 3.2% | 24.8hPa | 2.7V | 08:30:00 | 01:58:10 | 00:00:00 | |
| DF8AY | 2026-09-02 12:16:08 | 51.08585 | 8.05753 | 148° | 20km/h | 25557m | 6.1m/s | -49.5°C | 0% | 24.7hPa | 2.7V | 18:12:15 | 01:58:13 | 00:00:00 | |
| BIOWL1-15 | 2026-09-02 12:16:07 | 51.08613 | 8.05687 | 140° | 16km/h | 25493m | 4.6m/s | -49.5°C | 0% | 25hPa | 2.6V | 18:12:15 | 01:58:01 | 00:00:00 | |
| DO2KSM | 2026-09-02 12:16:07 | 51.08585 | 8.05753 | 149° | 20km/h | 25557m | 6.1m/s | -49.5°C | 0.7% | 24.7hPa | 2.7V | 00:00:00 | 00:00:00 | 00:00:00 | |
| BIOWL9-15 | 2026-09-02 12:16:06 | 51.08592 | 8.05744 | 131° | 16km/h | 25547m | 4.7m/s | -49.5°C | 0.7% | 24.8hPa | 2.7V | 00:00:00 | 00:00:00 | 00:00:00 | |
| GOEST3-10 | 2026-09-02 12:16:05 | 51.08592 | 8.05744 | 132° | 13km/h | 25547m | 4.6m/s | -49.5°C | 3.2% | 24.7hPa | 2.7V | 00:00:00 | 01:58:11 | 00:00:00 | |
| DL1XH1-15 | 2026-09-02 12:16:04 | 51.08597 | 8.05735 | 118° | 11km/h | 25535m | 5.4m/s | -49.3°C | 3.1% | 24.8hPa | 2.7V | 08:30:00 | 01:58:09 | 00:00:00 | |
| HSKMA3-T | 2026-09-02 12:16:04 | 51.08595 | 8.05739 | 128° | 15km/h | 25541m | 6.7m/s | -49.4°C | 0% | 24.8hPa | 2.7V | 18:12:15 | 01:58:10 | 00:00:00 | |
| DL1XH-west | 2026-09-02 12:16:00 | 51.08600 | 8.05720 | 107° | 16km/h | 25519m | 6.4m/s | -49.4°C | 0% | 24.9hPa | 2.6V | 18:12:15 | 01:58:06 | 00:00:00 | |
| AA1-15 | 2026-09-02 12:16:00 | 51.08601 | 8.05713 | 112° | 22km/h | 25514m | 5m/s | -49.5°C | 0% | 24.9hPa | 2.7V | 18:12:15 | 01:58:05 | 00:00:00 | |
| DM0DOS-11 | 2026-09-02 12:16:00 | 51.08604 | 8.05705 | 119° | 22km/h | 25508m | 5m/s | -49.6°C | 3.1% | 24.9hPa | 2.7V | 08:30:00 | 01:58:04 | 00:00:00 | |
| DB0NH | 2026-09-02 12:15:59 | 51.08601 | 8.05713 | 113° | 16km/h | 25514m | 5.0m/s | -49.5°C | 3.1% | 24.8hPa | 2.7V | 00:00:00 | 01:58:05 | 00:00:00 | |
| DL1XH1-15 | 2026-09-02 12:15:58 | 51.08620 | 8.05678 | 139° | 18km/h | 25482m | 6.2m/s | -49.6°C | 3.2% | 25hPa | 2.7V | 08:30:00 | 01:57:59 | 00:00:00 | |
| DF8AY | 2026-09-02 12:15:54 | 51.08620 | 8.05678 | 139° | 18km/h | 25482m | 6.2m/s | -49.6°C | 0% | 25hPa | 2.7V | 18:12:15 | 01:57:59 | 00:00:00 | |
| HSKMA3-T | 2026-09-02 12:15:54 | 51.08617 | 8.05682 | 141° | 16km/h | 25488m | 4.7m/s | -49.5°C | 0% | 25hPa | 2.6V | 18:12:15 | 01:58:00 | 00:00:00 | |
| DM0DOS-11 | 2026-09-02 12:15:53 | 51.08634 | 8.05658 | 150° | 9km/h | 25454m | 4.8m/s | -49.6°C | 3.2% | 25.1hPa | 2.6V | 08:30:00 | 01:57:54 | 00:00:00 | |
| DL1XH-west | 2026-09-02 12:15:49 | 51.08632 | 8.05660 | 143° | 11km/h | 25460m | 6.2m/s | -49.7°C | 0% | 25.1hPa | 2.6V | 18:12:15 | 01:57:55 | 00:00:00 | |
| DD8BA-10 | 2026-09-02 12:15:48 | 51.08634 | 8.05658 | 151° | 15km/h | 25455m | 4.8m/s | -49.6°C | 3.2% | 25.0hPa | 2.6V | 00:00:00 | 00:00:00 | 00:00:00 | |
| DL1XH-15 | 2026-09-02 12:15:46 | 51.08645 | 8.05645 | 137° | 20km/h | 25434m | 4.3m/s | -49.8°C | 3.2% | 25.2hPa | 2.6V | 08:30:00 | 01:57:50 | 00:00:00 | |
| HSKMA3-T | 2026-09-02 12:15:44 | 51.08645 | 8.05645 | 138° | 20km/h | 25434m | 4.3m/s | -49.8°C | 0% | 25.2hPa | 2.6V | 18:12:15 | 01:57:50 | 00:00:00 | |
| DL4BBY-15 | 2026-09-02 12:15:44 | 51.08644 | 8.05645 | 138° | 13km/h | 25433m | 4.3m/s | -49.6°C | 0% | 0hPa | 2.7V | 00:00:00 | 00:00:00 | 00:00:00 | |
| DM0DOS-11 | 2026-09-02 12:15:43 | 51.08664 | 8.05617 | 125° | 18km/h | 25401m | 5.9m/s | -49.9°C | 3.3% | 25.3hPa | 2.7V | 08:30:00 | 01:57:44 | 00:00:00 | |
| DF8AY | 2026-09-02 12:15:42 | 51.08658 | 8.05627 | 138° | 16km/h | 25412m | 5m/s | -49.9°C | 0% | 25.3hPa | 2.6V | 18:12:15 | 01:57:46 | 00:00:00 | |
| DL1NUX | 2026-09-02 12:15:41 | 51.08669 | 8.05604 | 114° | 16km/h | 25390m | 5m/s | -49.9°C | 3.3% | 25.3hPa | 2.7V | 08:30:00 | 01:57:42 | 00:00:00 | |
| DL1XH-15 | 2026-09-02 12:15:41 | 51.08671 | 8.05595 | 111° | 9km/h | 25379m | 4.7m/s | -49.9°C | 3.3% | 25.4hPa | 2.6V | 08:30:00 | 01:57:40 | 00:00:00 | |
| DO2JMG | 2026-09-02 12:15:40 | 51.08661 | 8.05623 | 133° | 16km/h | 25407m | 6.2m/s | 0°C | 0% | 0hPa | 2.6V | 18:12:15 | 01:57:45 | 00:00:00 | |
| AA1-15 | 2026-09-02 12:15:38 | 51.08664 | 8.05617 | 126° | 18km/h | 25401m | 5.9m/s | -49.9°C | 0% | 25.3hPa | 2.7V | 18:12:15 | 01:57:44 | 00:00:00 | |
| HSKMA3-T | 2026-09-02 12:15:34 | 51.08672 | 8.05592 | 121° | 7km/h | 25375m | 4.1m/s | -50°C | 0% | 25.4hPa | 2.6V | 18:12:15 | 01:57:39 | 00:00:00 | |
| DF8AY | 2026-09-02 12:15:31 | 51.08678 | 8.05583 | 142° | 15km/h | 25358m | 5.4m/s | -50°C | 0% | 25.5hPa | 2.7V | 18:12:15 | 01:57:36 | 00:00:00 | |
| DL1NUX | 2026-09-02 12:15:31 | 51.08688 | 8.05570 | 98° | 7km/h | 25337m | 4.8m/s | -50°C | 3.2% | 25.6hPa | 2.7V | 08:30:00 | 01:57:32 | 00:00:00 | |
| DL1XH-west | 2026-09-02 12:15:27 | 51.08688 | 8.05570 | 99° | 7km/h | 25337m | 4.8m/s | -50°C | 0% | 25.6hPa | 2.7V | 18:12:15 | 01:57:32 | 00:00:00 | |
| DO2JMG | 2026-09-02 12:15:27 | 51.08687 | 8.05573 | 134° | 9km/h | 25342m | 5.8m/s | 0°C | 0% | 0hPa | 2.6V | 18:12:15 | 01:57:33 | 00:00:00 | |
| SMARD9-10 | 2026-09-02 12:15:27 | 51.08686 | 8.05573 | 135° | 9km/h | 25342m | 5.8m/s | 0°C | 0% | 0hPa | 2.6V | 00:00:00 | 00:00:00 | 00:00:00 | |
| DO2KSM | 2026-09-02 12:15:26 | 51.08688 | 8.05570 | 100° | 7km/h | 25337m | 4.8m/s | -50.0°C | 0.7% | 25.6hPa | 2.6V | 00:00:00 | 00:00:00 | 00:00:00 | |
| DL1XH-15 | 2026-09-02 12:15:25 | 51.08686 | 8.05562 | 72° | 13km/h | 25326m | 6.4m/s | -49.8°C | 3.2% | 25.6hPa | 2.6V | 08:30:00 | 01:57:30 | 00:00:00 | |
| DB0DAN | 2026-09-02 12:15:25 | 51.08687 | 8.05567 | 77° | 9km/h | 25332m | 5.1m/s | -49.8°C | 0% | 25.59hPa | 2.7V | 00:00:00 | 00:00:00 | 00:00:00 | |
| HSKMA3-T | 2026-09-02 12:15:23 | 51.08685 | 8.05556 | 68° | 16km/h | 25320m | 5m/s | -49.8°C | 0% | 25.6hPa | 2.6V | 18:12:15 | 01:57:29 | 00:00:00 | |
| DF8AY | 2026-09-02 12:15:21 | 51.08678 | 8.05523 | 143° | 7km/h | 25277m | 5.9m/s | -49.9°C | 0% | 25.8hPa | 2.7V | 18:12:15 | 01:57:21 | 00:00:00 | |
| DL1NUX | 2026-09-02 12:15:21 | 51.08676 | 8.05525 | 137° | 7km/h | 25283m | 4.7m/s | -49.9°C | 3.2% | 25.8hPa | 2.7V | 08:30:00 | 01:57:22 | 00:00:00 | |
| BIOWL1-15 | 2026-09-02 12:15:20 | 51.08664 | 8.05487 | 34° | 5km/h | 25213m | 5.3m/s | -49.8°C | 0% | 26.1hPa | 2.6V | 18:12:15 | 01:57:09 | 00:00:00 | |
| DL1XH-15 | 2026-09-02 12:15:19 | 51.08679 | 8.05522 | 132° | 5km/h | 25272m | 5.9m/s | -49.9°C | 3.3% | 25.8hPa | 2.6V | 08:30:00 | 01:57:20 | 00:00:00 | |
| DL1XH-west | 2026-09-02 12:15:17 | 51.08675 | 8.05528 | 112° | 7km/h | 25288m | 5.6m/s | -50°C | 0% | 25.8hPa | 2.7V | 18:12:15 | 01:57:23 | 00:00:00 | |
| DO2JMG | 2026-09-02 12:15:17 | 51.08676 | 8.05525 | 138° | 7km/h | 25283m | 4.7m/s | 0°C | 0% | 0hPa | 2.7V | 18:12:15 | 01:57:22 | 00:00:00 | |
| DB0UT-7 | 2026-09-02 12:15:15 | 51.08678 | 8.05523 | 144° | 9km/h | 25278m | 5.8m/s | -49.8°C | 3.3% | 25.8hPa | 2.6V | 00:00:00 | 00:00:00 | 00:00:00 | |
| DL1XH1-15 | 2026-09-02 12:15:14 | 51.08680 | 8.05520 | 109° | 4km/h | 25266m | 5.1m/s | -49.9°C | 3.3% | 25.9hPa | 2.6V | 08:30:00 | 01:57:19 | 00:00:00 | |
| HSKMA3-T | 2026-09-02 12:15:12 | 51.08680 | 8.05518 | 95° | 7km/h | 25261m | 4.8m/s | -49.8°C | 0% | 25.9hPa | 2.6V | 18:12:15 | 01:57:18 | 00:00:00 | |
| SONCRA | 2026-09-02 12:15:12 | 51.08680 | 8.05515 | 90° | 7km/h | 25256m | 6.3m/s | -49.8°C | 0.7% | 25.9hPa | 2.6V | 00:00:00 | 00:00:00 | 00:00:00 | |
| DL1NUX | 2026-09-02 12:15:11 | 51.08672 | 8.05493 | 28° | 16km/h | 25229m | 5.5m/s | -49.8°C | 3.2% | 26hPa | 2.6V | 08:30:00 | 01:57:12 | 00:00:00 | |
| DJ8HS-15 | 2026-09-02 12:15:10 | 51.08680 | 8.05510 | 84° | 9km/h | 25250m | 5.0m/s | -49.8°C | 3.2% | 25.8hPa | 2.6V | 00:00:00 | 01:57:16 | 00:00:00 | |
| DM0DOS-11 | 2026-09-02 12:15:09 | 51.08677 | 8.05501 | 57° | 15km/h | 25241m | 5.2m/s | -49.7°C | 3.2% | 25.9hPa | 2.6V | 08:30:00 | 01:57:14 | 00:00:00 | |
| DD1CC1-15 | 2026-09-02 12:15:09 | 51.08680 | 8.05510 | 85° | 13km/h | 25250m | 5.0m/s | -49.8°C | 0.7% | 25.9hPa | 2.6V | 00:00:00 | 00:00:00 | 00:00:00 | |
| DL1XH1-15 | 2026-09-02 12:15:08 | 51.08664 | 8.05487 | 33° | 5km/h | 25213m | 5.3m/s | -49.8°C | 3.2% | 26hPa | 2.6V | 08:30:00 | 01:57:09 | 00:00:00 | |
| DF8AY | 2026-09-02 12:15:07 | 51.08675 | 8.05496 | 42° | 15km/h | 25235m | 6.2m/s | -49.7°C | 0% | 26hPa | 2.6V | 18:12:15 | 01:57:13 | 00:00:00 | |
| DL1XH-west | 2026-09-02 12:15:06 | 51.08672 | 8.05493 | 28° | 16km/h | 25229m | 5.5m/s | -49.8°C | 0% | 26hPa | 2.6V | 18:12:15 | 01:57:12 | 00:00:00 | |
| AA1-15 | 2026-09-02 12:15:05 | 51.08668 | 8.05490 | 20° | 15km/h | 25224m | 4.8m/s | -49.9°C | 0% | 26hPa | 2.7V | 18:12:15 | 01:57:11 | 00:00:00 | |
| GOEST3-10 | 2026-09-02 12:15:05 | 51.08668 | 8.05490 | 21° | 5km/h | 25224m | 4.7m/s | -49.8°C | 3.2% | 26.0hPa | 2.6V | 00:00:00 | 01:57:11 | 00:00:00 | |
| BIOWL9-15 | 2026-09-02 12:15:04 | 51.08664 | 8.05487 | 33° | 4km/h | 25213m | 5.3m/s | -49.8°C | 0.7% | 26.1hPa | 2.6V | 00:00:00 | 00:00:00 | 00:00:00 | |
| DM0DOS-11 | 2026-09-02 12:15:03 | 51.08663 | 8.05486 | 98° | 2km/h | 25185m | 5.4m/s | -49.8°C | 3.3% | 26.2hPa | 2.6V | 08:30:00 | 01:57:04 | 00:00:00 | |
| HSKMA3-T | 2026-09-02 12:15:02 | 51.08663 | 8.05486 | 63° | 2km/h | 25208m | 4.9m/s | -49.8°C | 0% | 26.1hPa | 2.6V | 18:12:15 | 01:57:08 | 00:00:00 | |
| EDDB2-11 | 2026-09-02 12:15:00 | 51.08663 | 8.05487 | 327° | 0km/h | 25191m | 5.3m/s | -49.8°C | 0.7% | 26.1hPa | 2.7V | 00:00:00 | 00:00:00 | 00:00:00 | |
| DL1XH-15 | 2026-09-02 12:14:59 | 51.08661 | 8.05476 | 44° | 11km/h | 25165m | 6.2m/s | -49.8°C | 3.2% | 26.3hPa | 2.7V | 08:30:00 | 01:57:00 | 00:00:00 | |
| DL1XH-west | 2026-09-02 12:14:56 | 51.08663 | 8.05482 | 85° | 7km/h | 25174m | 4.3m/s | -49.8°C | 0% | 26.2hPa | 2.7V | 18:12:15 | 01:57:02 | 00:00:00 | |
| DO2JMG | 2026-09-02 12:14:55 | 51.08663 | 8.05479 | 65° | 9km/h | 25170m | 4.3m/s | 0°C | 0% | 0hPa | 2.7V | 18:12:15 | 01:57:01 | 00:00:00 | |
| AA1-15 | 2026-09-02 12:14:54 | 51.08661 | 8.05476 | 44° | 11km/h | 25165m | 6.2m/s | -49.8°C | 0% | 26.3hPa | 2.7V | 18:12:15 | 01:57:00 | 00:00:00 | |
| DL1XH1-15 | 2026-09-02 12:14:54 | 51.08659 | 8.05473 | 22° | 15km/h | 25159m | 5.5m/s | -49.8°C | 3.2% | 26.2hPa | 2.6V | 08:30:00 | 01:56:59 | 00:00:00 | |
| BIOWL1-15 | 2026-09-02 12:14:54 | 51.08645 | 8.05469 | 344° | 5km/h | 25134m | 3.9m/s | -49.8°C | 0% | 26.4hPa | 2.7V | 18:12:15 | 01:56:54 | 00:00:00 | |
| SO1NDE-10 | 2026-09-02 12:14:52 | 51.08655 | 8.05471 | 13° | 9km/h | 25154m | 4.6m/s | -49.9°C | 3.2% | 26.2hPa | 2.7V | 00:00:00 | 01:56:58 | 00:00:00 | |
| DM0DOS-11 | 2026-09-02 12:14:51 | 51.08645 | 8.05469 | 343° | 5km/h | 25134m | 3.9m/s | -49.8°C | 3.2% | 26.4hPa | 2.7V | 08:30:00 | 01:56:54 | 00:00:00 | |
| HSKMA3-T | 2026-09-02 12:14:51 | 51.08651 | 8.05470 | 8° | 13km/h | 25149m | 5.3m/s | -49.8°C | 0% | 26.3hPa | 2.6V | 18:12:15 | 01:56:57 | 00:00:00 | |
| DL9SK-14 | 2026-09-02 12:14:47 | 51.08642 | 8.05472 | 317° | 7km/h | 25124m | 5.7m/s | -49.9°C | 0.7% | 26.4hPa | 2.7V | 00:00:00 | 00:00:00 | 00:00:00 | |
| DL1XH-15 | 2026-09-02 12:14:46 | 51.08640 | 8.05477 | 300° | 7km/h | 25113m | 4.8m/s | -49.8°C | 3.2% | 26.4hPa | 2.7V | 08:30:00 | 01:56:50 | 00:00:00 | |
| DL1XH-west | 2026-09-02 12:14:45 | 51.08641 | 8.05475 | 309° | 9km/h | 25118m | 5.3m/s | -49.9°C | 0% | 26.4hPa | 2.6V | 18:12:15 | 01:56:51 | 00:00:00 | |
| AA1-15 | 2026-09-02 12:14:44 | 51.08639 | 8.05477 | 300° | 7km/h | 25113m | 4.8m/s | -49.8°C | 0% | 26.4hPa | 2.7V | 18:12:15 | 01:56:50 | 00:00:00 | |
| DL1XH1-15 | 2026-09-02 12:14:44 | 51.08639 | 8.05480 | 286° | 4km/h | 25108m | 6.1m/s | -49.8°C | 3.2% | 26.4hPa | 2.7V | 08:30:00 | 01:56:49 | 00:00:00 | |
| HSKMA3-T | 2026-09-02 12:14:41 | 51.08637 | 8.05480 | 18° | 5km/h | 25093m | 5.6m/s | -49.8°C | 0% | 26.5hPa | 2.7V | 18:12:15 | 01:56:46 | 00:00:00 | |
| BIOWL1-15 | 2026-09-02 12:14:40 | 51.08624 | 8.05476 | 17° | 15km/h | 25071m | 5.6m/s | -49.9°C | 0% | 26.6hPa | 2.6V | 18:12:15 | 01:56:42 | 00:00:00 | |
| DL1XH-15 | 2026-09-02 12:14:39 | 51.08619 | 8.05472 | 28° | 9km/h | 25060m | 4.5m/s | -49.9°C | 3.2% | 26.6hPa | 2.7V | 08:30:00 | 01:56:40 | 00:00:00 | |
| DL1XH1-15 | 2026-09-02 12:14:38 | 51.08617 | 8.05471 | 18° | 5km/h | 25056m | 4.8m/s | -49.8°C | 3.2% | 26.7hPa | 2.7V | 08:30:00 | 01:56:39 | 00:00:00 | |
| DL1XH-west | 2026-09-02 12:14:35 | 51.08619 | 8.05472 | 29° | 9km/h | 25060m | 4.5m/s | -49.9°C | 0% | 26.6hPa | 2.7V | 18:12:15 | 01:56:40 | 00:00:00 | |
| AA1-15 | 2026-09-02 12:14:34 | 51.08617 | 8.05471 | 19° | 5km/h | 25056m | 4.8m/s | -49.8°C | 0% | 26.7hPa | 2.7V | 18:12:15 | 01:56:39 | 00:00:00 | |
| DO2JMG | 2026-09-02 12:14:31 | 51.08614 | 8.05471 | 326° | 7km/h | 25045m | 5.3m/s | 0°C | 0% | 0hPa | 2.6V | 18:12:15 | 01:56:37 | 00:00:00 | |
| HSKMA3-T | 2026-09-02 12:14:30 | 51.08613 | 8.05473 | 311° | 7km/h | 25040m | 4.6m/s | -49.8°C | 0% | 26.8hPa | 2.6V | 18:12:15 | 01:56:36 | 00:00:00 | |
| BIOWL1-15 | 2026-09-02 12:14:27 | 51.08611 | 8.05481 | 299° | 7km/h | 25019m | 5.6m/s | -49.8°C | 0% | 26.9hPa | 2.6V | 18:12:15 | 01:56:32 | 00:00:00 | |
| WPPR-10 | 2026-09-02 12:14:27 | 51.08611 | 8.05479 | 285° | 4km/h | 25024m | 4.5m/s | -49.8°C | 0.7% | 26.8hPa | 2.7V | 00:00:00 | 00:00:00 | 00:00:00 | |
| DL1XH1-15 | 2026-09-02 12:14:26 | 51.08606 | 8.05488 | 327° | 9km/h | 25003m | 5m/s | -49.9°C | 3.2% | 26.9hPa | 2.7V | 08:30:00 | 01:56:29 | 00:00:00 | |
| DL1XH-15 | 2026-09-02 12:14:25 | 51.08608 | 8.05486 | 319° | 11km/h | 25008m | 4.5m/s | -49.9°C | 3.2% | 26.9hPa | 2.6V | 08:30:00 | 01:56:30 | 00:00:00 | |
| AA1-15 | 2026-09-02 12:14:23 | 51.08604 | 8.05490 | 341° | 7km/h | 24998m | 6m/s | -49.8°C | 0% | 26.9hPa | 2.7V | 18:12:15 | 01:56:28 | 00:00:00 | |
| DO2JMG | 2026-09-02 12:14:21 | 51.08601 | 8.05490 | 7° | 7km/h | 24987m | 4.7m/s | 0°C | 0% | 0hPa | 2.6V | 18:12:15 | 01:56:26 | 00:00:00 | |
| HSKMA3-T | 2026-09-02 12:14:20 | 51.08599 | 8.05490 | 359° | 7km/h | 24982m | 6.2m/s | -50°C | 0% | 27hPa | 2.6V | 18:12:15 | 01:56:25 | 00:00:00 | |
| DL1XH-15 | 2026-09-02 12:14:20 | 51.08590 | 8.05492 | 322° | 4km/h | 24949m | 5.4m/s | -49.8°C | 3.2% | 27.1hPa | 2.6V | 08:30:00 | 01:56:19 | 00:00:00 | |
| BIOWL1-15 | 2026-09-02 12:14:16 | 51.08592 | 8.05491 | 356° | 7km/h | 24966m | 5.5m/s | -49.9°C | 0% | 27.1hPa | 2.7V | 18:12:15 | 01:56:22 | 00:00:00 | |
| DL1XH-west | 2026-09-02 12:14:13 | 51.08589 | 8.05492 | 322° | 4km/h | 24949m | 5.4m/s | -49.8°C | 0% | 27.1hPa | 2.6V | 18:12:15 | 01:56:19 | 00:00:00 | |
| AA1-15 | 2026-09-02 12:14:12 | 51.08589 | 8.05493 | 308° | 5km/h | 24944m | 5.8m/s | -49.8°C | 0% | 27.2hPa | 2.7V | 18:12:15 | 01:56:18 | 00:00:00 | |
| DF8AY | 2026-09-02 12:14:10 | 51.08587 | 8.05498 | 291° | 7km/h | 24934m | 4m/s | -49.9°C | 0% | 27.2hPa | 2.7V | 18:12:15 | 01:56:16 | 00:00:00 | |
| DO2JMG | 2026-09-02 12:14:09 | 51.08586 | 8.05501 | 277° | 5km/h | 24930m | 5.8m/s | 0°C | 0% | 0hPa | 2.6V | 18:12:15 | 01:56:15 | 00:00:00 | |
| BIOWL1-15 | 2026-09-02 12:14:06 | 51.08587 | 8.05503 | 1° | 2km/h | 24908m | 5.6m/s | -49.8°C | 0% | 27.3hPa | 2.7V | 18:12:15 | 01:56:11 | 00:00:00 | |
| DL1XH-west | 2026-09-02 12:14:02 | 51.08585 | 8.05501 | 67° | 4km/h | 24892m | 5.9m/s | -50°C | 0% | 27.4hPa | 2.7V | 18:12:15 | 01:56:08 | 00:00:00 | |
| AA1-15 | 2026-09-02 12:14:01 | 51.08585 | 8.05500 | 79° | 4km/h | 24887m | 4.3m/s | -50.1°C | 0% | 27.4hPa | 2.7V | 18:12:15 | 01:56:07 | 00:00:00 | |
| DF8AY | 2026-09-02 12:14:00 | 51.08584 | 8.05499 | 53° | 0km/h | 24882m | 5.4m/s | -50.2°C | 0% | 27.4hPa | 2.6V | 18:12:15 | 01:56:06 | 00:00:00 | |
| Es werden nur die letzten 3500 von 7190 Frames angezeigt. GPX/KML und Diagramme bleiben verfügbar. | |||||||||||||||